<?xml version='1.0' encoding='UTF-8'?><gpx version="1.1" creator="JPX - https://github.com/jenetics/jpx" xmlns="http://www.topografix.com/GPX/1/1"><trk><trkseg><trkpt lat="44.993154793875554" lon="7.4952395073573825"><ele>282.0</ele><time>2026-05-01T07:15:05.626Z</time></trkpt><trkpt lat="44.99308473926577" lon="7.495129947633236"><ele>282.0</ele><time>2026-05-01T07:15:11.629Z</time></trkpt><trkpt lat="44.993160440046836" lon="7.495272372411908"><ele>282.0</ele><time>2026-05-01T07:16:05.694Z</time></trkpt><trkpt lat="44.99322232276209" lon="7.495359045062643"><ele>282.0</ele><time>2026-05-01T07:16:47.627Z</time></trkpt><trkpt lat="44.99327622024161" lon="7.4954155243886"><ele>282.0</ele><time>2026-05-01T07:16:49.627Z</time></trkpt><trkpt lat="44.99334252252532" lon="7.495337165500705"><ele>281.6666666666667</ele><time>2026-05-01T07:17:00.999Z</time></trkpt><trkpt lat="44.99342150435377" lon="7.49522544023138"><ele>281.3333333333333</ele><time>2026-05-01T07:17:02.999Z</time></trkpt><trkpt lat="44.993473537787374" lon="7.495173514165337"><ele>281.0</ele><time>2026-05-01T07:17:03.999Z</time></trkpt><trkpt lat="44.9935301115309" lon="7.495104780107484"><ele>280.66666666666663</ele><time>2026-05-01T07:17:05.999Z</time></trkpt><trkpt lat="44.99358864617833" lon="7.495174553874003"><ele>280.3333333333333</ele><time>2026-05-01T07:17:07.999Z</time></trkpt><trkpt lat="44.99361223502223" lon="7.495310969711888"><ele>280.0</ele><time>2026-05-01T07:17:09.999Z</time></trkpt><trkpt lat="44.99363794914873" lon="7.495410386605905"><ele>280.6</ele><time>2026-05-01T07:17:10.999Z</time></trkpt><trkpt lat="44.993674525975884" lon="7.495529320751216"><ele>281.2</ele><time>2026-05-01T07:17:11.999Z</time></trkpt><trkpt lat="44.9937050093792" lon="7.495648997615932"><ele>281.8</ele><time>2026-05-01T07:17:12.999Z</time></trkpt><trkpt lat="44.993732725098425" lon="7.495768825554379"><ele>282.4</ele><time>2026-05-01T07:17:13.999Z</time></trkpt><trkpt lat="44.993768954123446" lon="7.4959039204554685"><ele>283.0</ele><time>2026-05-01T07:17:14.999Z</time></trkpt><trkpt lat="44.99380913509781" lon="7.496044604977462"><ele>283.0</ele><time>2026-05-01T07:17:15.999Z</time></trkpt><trkpt lat="44.993842892954184" lon="7.496186143053832"><ele>283.0</ele><time>2026-05-01T07:17:16.999Z</time></trkpt><trkpt lat="44.99386375929824" lon="7.49632552801436"><ele>283.0</ele><time>2026-05-01T07:17:17.999Z</time></trkpt><trkpt lat="44.99387506582911" lon="7.496442070476257"><ele>283.0</ele><time>2026-05-01T07:17:18.999Z</time></trkpt><trkpt lat="44.99390213482874" lon="7.496538486045246"><ele>283.0</ele><time>2026-05-01T07:17:19.999Z</time></trkpt><trkpt lat="44.9937636872969" lon="7.496689307240226"><ele>283.0</ele><time>2026-05-01T07:17:20.999Z</time></trkpt><trkpt lat="44.99367180754427" lon="7.496752034657339"><ele>283.0</ele><time>2026-05-01T07:17:21.999Z</time></trkpt><trkpt lat="44.993574037618124" lon="7.496815286395748"><ele>283.0</ele><time>2026-05-01T07:17:22.999Z</time></trkpt><trkpt lat="44.993466684373026" lon="7.496889864404386"><ele>283.0</ele><time>2026-05-01T07:17:23.999Z</time></trkpt><trkpt lat="44.99334499515716" lon="7.496951391335669"><ele>282.75</ele><time>2026-05-01T07:17:24.999Z</time></trkpt><trkpt lat="44.99321949723307" lon="7.497020301878428"><ele>282.5</ele><time>2026-05-01T07:17:25.999Z</time></trkpt><trkpt lat="44.99308932093532" lon="7.49709572370859"><ele>282.25</ele><time>2026-05-01T07:17:26.999Z</time></trkpt><trkpt lat="44.99295551317049" lon="7.497174263472247"><ele>282.0</ele><time>2026-05-01T07:17:27.999Z</time></trkpt><trkpt lat="44.99282027480952" lon="7.497255101165733"><ele>281.6666666666667</ele><time>2026-05-01T07:17:28.999Z</time></trkpt><trkpt lat="44.99268258790205" lon="7.497342009388103"><ele>281.33333333333337</ele><time>2026-05-01T07:17:29.999Z</time></trkpt><trkpt lat="44.99253941383835" lon="7.497426088865074"><ele>281.0</ele><time>2026-05-01T07:17:30.999Z</time></trkpt><trkpt lat="44.992393731789974" lon="7.497509926314201"><ele>281.0</ele><time>2026-05-01T07:17:31.999Z</time></trkpt><trkpt lat="44.992244101844776" lon="7.497594238441445"><ele>281.0</ele><time>2026-05-01T07:17:32.999Z</time></trkpt><trkpt lat="44.99208862393327" lon="7.497680302989219"><ele>281.0</ele><time>2026-05-01T07:17:33.999Z</time></trkpt><trkpt lat="44.991933805281754" lon="7.497780761464872"><ele>281.0</ele><time>2026-05-01T07:17:34.999Z</time></trkpt><trkpt lat="44.991777800381364" lon="7.497881372905341"><ele>281.0</ele><time>2026-05-01T07:17:35.999Z</time></trkpt><trkpt lat="44.99161606203939" lon="7.49798527876602"><ele>281.0</ele><time>2026-05-01T07:17:36.999Z</time></trkpt><trkpt lat="44.9914524711833" lon="7.498085433150005"><ele>281.6666666666667</ele><time>2026-05-01T07:17:37.999Z</time></trkpt><trkpt lat="44.99128571809369" lon="7.498182939505655"><ele>282.3333333333333</ele><time>2026-05-01T07:17:38.999Z</time></trkpt><trkpt lat="44.991119234695915" lon="7.498278110451587"><ele>283.0</ele><time>2026-05-01T07:17:39.999Z</time></trkpt><trkpt lat="44.99095005356517" lon="7.498375931948866"><ele>282.0</ele><time>2026-05-01T07:17:40.999Z</time></trkpt><trkpt lat="44.99078114146953" lon="7.498474101014346"><ele>281.0</ele><time>2026-05-01T07:17:41.999Z</time></trkpt><trkpt lat="44.990617763464996" lon="7.498568448366046"><ele>280.0</ele><time>2026-05-01T07:17:42.999Z</time></trkpt><trkpt lat="44.99045083613784" lon="7.498662981020025"><ele>279.3333333333333</ele><time>2026-05-01T07:17:43.999Z</time></trkpt><trkpt lat="44.99028414760815" lon="7.498762289008466"><ele>278.6666666666667</ele><time>2026-05-01T07:17:44.999Z</time></trkpt><trkpt lat="44.990115218087546" lon="7.498863516500201"><ele>278.0</ele><time>2026-05-01T07:17:45.999Z</time></trkpt><trkpt lat="44.98994958911877" lon="7.498965098989307"><ele>278.0</ele><time>2026-05-01T07:17:46.999Z</time></trkpt><trkpt lat="44.98978713753971" lon="7.4990648360790155"><ele>278.0</ele><time>2026-05-01T07:17:47.999Z</time></trkpt><trkpt lat="44.989619999443335" lon="7.499167361405814"><ele>278.0</ele><time>2026-05-01T07:17:48.999Z</time></trkpt><trkpt lat="44.9894486310955" lon="7.49926272720106"><ele>278.0</ele><time>2026-05-01T07:17:49.999Z</time></trkpt><trkpt lat="44.98927728662203" lon="7.499360018371245"><ele>278.0</ele><time>2026-05-01T07:17:50.999Z</time></trkpt><trkpt lat="44.98910581351187" lon="7.4994575856391315"><ele>278.0</ele><time>2026-05-01T07:17:51.999Z</time></trkpt><trkpt lat="44.98893503489501" lon="7.499558509146152"><ele>278.33333333333337</ele><time>2026-05-01T07:17:52.999Z</time></trkpt><trkpt lat="44.988763709387094" lon="7.499665527504568"><ele>278.6666666666667</ele><time>2026-05-01T07:17:53.999Z</time></trkpt><trkpt lat="44.9885914417573" lon="7.499770748745328"><ele>279.0</ele><time>2026-05-01T07:17:54.999Z</time></trkpt><trkpt lat="44.988416322199804" lon="7.499871832377643"><ele>278.3333333333333</ele><time>2026-05-01T07:17:55.999Z</time></trkpt><trkpt lat="44.98824063469799" lon="7.499966865601904"><ele>277.66666666666663</ele><time>2026-05-01T07:17:56.999Z</time></trkpt><trkpt lat="44.98806804407593" lon="7.500072839813424"><ele>277.0</ele><time>2026-05-01T07:17:57.999Z</time></trkpt><trkpt lat="44.98789337063615" lon="7.500182125382747"><ele>277.0</ele><time>2026-05-01T07:17:58.999Z</time></trkpt><trkpt lat="44.987717872953255" lon="7.5002842664266325"><ele>277.0</ele><time>2026-05-01T07:17:59.999Z</time></trkpt><trkpt lat="44.987542507895384" lon="7.500389173727822"><ele>277.0</ele><time>2026-05-01T07:18:00.999Z</time></trkpt><trkpt lat="44.98736659090055" lon="7.500489659725325"><ele>276.3333333333333</ele><time>2026-05-01T07:18:01.999Z</time></trkpt><trkpt lat="44.98718841539581" lon="7.500593899820779"><ele>275.6666666666667</ele><time>2026-05-01T07:18:02.999Z</time></trkpt><trkpt lat="44.98701545401834" lon="7.500697304970734"><ele>275.0</ele><time>2026-05-01T07:18:03.999Z</time></trkpt><trkpt lat="44.986841268545824" lon="7.5008000263519286"><ele>275.0</ele><time>2026-05-01T07:18:04.999Z</time></trkpt><trkpt lat="44.986669456467204" lon="7.500902746680414"><ele>275.0</ele><time>2026-05-01T07:18:05.999Z</time></trkpt><trkpt lat="44.98649919596548" lon="7.501000435852624"><ele>275.0</ele><time>2026-05-01T07:18:06.999Z</time></trkpt><trkpt lat="44.986340856142185" lon="7.501092846024346"><ele>275.0</ele><time>2026-05-01T07:18:07.999Z</time></trkpt><trkpt lat="44.98618726598801" lon="7.501174922938604"><ele>275.0</ele><time>2026-05-01T07:18:08.999Z</time></trkpt><trkpt lat="44.986039506634825" lon="7.5012706725722085"><ele>275.0</ele><time>2026-05-01T07:18:09.999Z</time></trkpt><trkpt lat="44.98590898065818" lon="7.501351166888774"><ele>275.5</ele><time>2026-05-01T07:18:10.999Z</time></trkpt><trkpt lat="44.9857792030317" lon="7.501420941111629"><ele>276.0</ele><time>2026-05-01T07:18:11.999Z</time></trkpt><trkpt lat="44.985658058365765" lon="7.501493431028611"><ele>276.5</ele><time>2026-05-01T07:18:12.999Z</time></trkpt><trkpt lat="44.98553681437754" lon="7.501536446513442"><ele>277.0</ele><time>2026-05-01T07:18:13.999Z</time></trkpt><trkpt lat="44.98542054417585" lon="7.501566341854586"><ele>277.0</ele><time>2026-05-01T07:18:14.999Z</time></trkpt><trkpt lat="44.98531337547381" lon="7.501588360332902"><ele>277.0</ele><time>2026-05-01T07:18:15.999Z</time></trkpt><trkpt lat="44.985206899450304" lon="7.501619578913988"><ele>277.0</ele><time>2026-05-01T07:18:16.999Z</time></trkpt><trkpt lat="44.985103542962186" lon="7.501661369228329"><ele>277.0</ele><time>2026-05-01T07:18:17.999Z</time></trkpt><trkpt lat="44.98500330293632" lon="7.501688206834008"><ele>277.0</ele><time>2026-05-01T07:18:18.999Z</time></trkpt><trkpt lat="44.98491727784931" lon="7.501764410949319"><ele>276.8</ele><time>2026-05-01T07:18:19.999Z</time></trkpt><trkpt lat="44.98486012905624" lon="7.501876199837745"><ele>276.6</ele><time>2026-05-01T07:18:20.999Z</time></trkpt><trkpt lat="44.98483102239311" lon="7.5019993116942665"><ele>276.40000000000003</ele><time>2026-05-01T07:18:21.999Z</time></trkpt><trkpt lat="44.984841646222975" lon="7.502144207087123"><ele>276.2</ele><time>2026-05-01T07:18:22.999Z</time></trkpt><trkpt lat="44.98488138947819" lon="7.502264078109331"><ele>276.0</ele><time>2026-05-01T07:18:23.999Z</time></trkpt><trkpt lat="44.98492946125705" lon="7.502378443327553"><ele>276.0</ele><time>2026-05-01T07:18:24.999Z</time></trkpt><trkpt lat="44.98499829611107" lon="7.502479673326553"><ele>276.0</ele><time>2026-05-01T07:18:25.999Z</time></trkpt><trkpt lat="44.985088842389985" lon="7.502569086297483"><ele>276.0</ele><time>2026-05-01T07:18:26.999Z</time></trkpt><trkpt lat="44.985186293481284" lon="7.502657757967808"><ele>276.0</ele><time>2026-05-01T07:18:27.999Z</time></trkpt><trkpt lat="44.985293134333304" lon="7.502766410335736"><ele>276.0</ele><time>2026-05-01T07:18:28.999Z</time></trkpt><trkpt lat="44.98539578663083" lon="7.502903643090426"><ele>276.0</ele><time>2026-05-01T07:18:29.999Z</time></trkpt><trkpt lat="44.98550147833586" lon="7.503058692336553"><ele>276.0</ele><time>2026-05-01T07:18:30.999Z</time></trkpt><trkpt lat="44.985606656863844" lon="7.503230662149873"><ele>276.0</ele><time>2026-05-01T07:18:31.999Z</time></trkpt><trkpt lat="44.985705552266566" lon="7.503421969961267"><ele>276.0</ele><time>2026-05-01T07:18:32.999Z</time></trkpt><trkpt lat="44.985802554814185" lon="7.503628486923112"><ele>276.0</ele><time>2026-05-01T07:18:33.999Z</time></trkpt><trkpt lat="44.985905405955386" lon="7.503833014794369"><ele>276.0</ele><time>2026-05-01T07:18:34.999Z</time></trkpt><trkpt lat="44.98601736291435" lon="7.504046023233612"><ele>276.0</ele><time>2026-05-01T07:18:35.999Z</time></trkpt><trkpt lat="44.9861298834044" lon="7.504259238617895"><ele>276.0</ele><time>2026-05-01T07:18:36.999Z</time></trkpt><trkpt lat="44.986246862545315" lon="7.504480162983434"><ele>276.0</ele><time>2026-05-01T07:18:37.999Z</time></trkpt><trkpt lat="44.98636111262565" lon="7.504702770478145"><ele>276.0</ele><time>2026-05-01T07:18:38.999Z</time></trkpt><trkpt lat="44.98647287207125" lon="7.504929068899492"><ele>276.0</ele><time>2026-05-01T07:18:39.999Z</time></trkpt><trkpt lat="44.98658334435496" lon="7.505153629950559"><ele>276.6666666666667</ele><time>2026-05-01T07:18:40.999Z</time></trkpt><trkpt lat="44.986695776185634" lon="7.5053801727519485"><ele>277.33333333333337</ele><time>2026-05-01T07:18:41.999Z</time></trkpt><trkpt lat="44.9868079259237" lon="7.505602952770796"><ele>278.0</ele><time>2026-05-01T07:18:42.999Z</time></trkpt><trkpt lat="44.9869213004693" lon="7.505826762402126"><ele>278.0</ele><time>2026-05-01T07:18:43.999Z</time></trkpt><trkpt lat="44.987033391019544" lon="7.506051197452937"><ele>278.0</ele><time>2026-05-01T07:18:44.999Z</time></trkpt><trkpt lat="44.987145425067645" lon="7.506274385150979"><ele>278.0</ele><time>2026-05-01T07:18:45.999Z</time></trkpt><trkpt lat="44.98725794957138" lon="7.506498115048855"><ele>277.33333333333337</ele><time>2026-05-01T07:18:46.998Z</time></trkpt><trkpt lat="44.98737027132238" lon="7.506718870431205"><ele>276.6666666666667</ele><time>2026-05-01T07:18:47.998Z</time></trkpt><trkpt lat="44.98748301570308" lon="7.506939355104141"><ele>276.0</ele><time>2026-05-01T07:18:48.998Z</time></trkpt><trkpt lat="44.98759484878823" lon="7.507161022053956"><ele>276.0</ele><time>2026-05-01T07:18:49.998Z</time></trkpt><trkpt lat="44.98770555060686" lon="7.507381684122566"><ele>276.0</ele><time>2026-05-01T07:18:50.998Z</time></trkpt><trkpt lat="44.9878160716708" lon="7.507602920964169"><ele>276.0</ele><time>2026-05-01T07:18:51.998Z</time></trkpt><trkpt lat="44.987928024318016" lon="7.507821683975023"><ele>275.6666666666667</ele><time>2026-05-01T07:18:52.998Z</time></trkpt><trkpt lat="44.98804223848974" lon="7.508041833638818"><ele>275.33333333333337</ele><time>2026-05-01T07:18:53.998Z</time></trkpt><trkpt lat="44.98815365804298" lon="7.5082601403754365"><ele>275.0</ele><time>2026-05-01T07:18:54.998Z</time></trkpt><trkpt lat="44.98826538074588" lon="7.508480642468466"><ele>274.33333333333337</ele><time>2026-05-01T07:18:55.998Z</time></trkpt><trkpt lat="44.98837513076522" lon="7.508700425728193"><ele>273.6666666666667</ele><time>2026-05-01T07:18:56.998Z</time></trkpt><trkpt lat="44.988486919435374" lon="7.508923619696105"><ele>273.0</ele><time>2026-05-01T07:18:57.999Z</time></trkpt><trkpt lat="44.98860122321215" lon="7.5091456849076685"><ele>273.0</ele><time>2026-05-01T07:18:58.999Z</time></trkpt><trkpt lat="44.98871475256261" lon="7.509366066416155"><ele>273.0</ele><time>2026-05-01T07:18:59.999Z</time></trkpt><trkpt lat="44.98883083581268" lon="7.509586354287824"><ele>273.0</ele><time>2026-05-01T07:19:00.999Z</time></trkpt><trkpt lat="44.98894674427274" lon="7.509806531817673"><ele>273.0</ele><time>2026-05-01T07:19:01.999Z</time></trkpt><trkpt lat="44.98906539420253" lon="7.5100291366860095"><ele>273.0</ele><time>2026-05-01T07:19:02.999Z</time></trkpt><trkpt lat="44.98918081417276" lon="7.510252147116378"><ele>273.0</ele><time>2026-05-01T07:19:03.999Z</time></trkpt><trkpt lat="44.989296550504015" lon="7.5104702545583635"><ele>272.3333333333333</ele><time>2026-05-01T07:19:04.999Z</time></trkpt><trkpt lat="44.9894157632225" lon="7.5106887397334505"><ele>271.66666666666663</ele><time>2026-05-01T07:19:05.999Z</time></trkpt><trkpt lat="44.98953631625309" lon="7.510903283199689"><ele>271.0</ele><time>2026-05-01T07:19:06.999Z</time></trkpt><trkpt lat="44.98965865990518" lon="7.511117771124392"><ele>271.0</ele><time>2026-05-01T07:19:07.999Z</time></trkpt><trkpt lat="44.989777685114674" lon="7.511334236044591"><ele>271.0</ele><time>2026-05-01T07:19:08.999Z</time></trkpt><trkpt lat="44.98989872099985" lon="7.511552215449419"><ele>271.0</ele><time>2026-05-01T07:19:09.999Z</time></trkpt><trkpt lat="44.990019692449316" lon="7.511771729630068"><ele>271.0</ele><time>2026-05-01T07:19:10.999Z</time></trkpt><trkpt lat="44.9901398879171" lon="7.511981414793483"><ele>271.0</ele><time>2026-05-01T07:19:11.999Z</time></trkpt><trkpt lat="44.9902520002643" lon="7.51217693819199"><ele>271.0</ele><time>2026-05-01T07:19:12.999Z</time></trkpt><trkpt lat="44.990360611537824" lon="7.512371241054275"><ele>271.66666666666663</ele><time>2026-05-01T07:19:13.999Z</time></trkpt><trkpt lat="44.99046583122671" lon="7.512557789992141"><ele>272.3333333333333</ele><time>2026-05-01T07:19:14.999Z</time></trkpt><trkpt lat="44.99056848392447" lon="7.512737471369752"><ele>273.0</ele><time>2026-05-01T07:19:15.999Z</time></trkpt><trkpt lat="44.990668372416636" lon="7.512914815921969"><ele>273.0</ele><time>2026-05-01T07:19:16.999Z</time></trkpt><trkpt lat="44.99076613910366" lon="7.513090255408232"><ele>273.0</ele><time>2026-05-01T07:19:17.999Z</time></trkpt><trkpt lat="44.99085628815197" lon="7.513254870360269"><ele>273.0</ele><time>2026-05-01T07:19:18.999Z</time></trkpt><trkpt lat="44.990944579676544" lon="7.513410576714887"><ele>273.0</ele><time>2026-05-01T07:19:19.999Z</time></trkpt><trkpt lat="44.991029508764385" lon="7.513562980783087"><ele>273.0</ele><time>2026-05-01T07:19:20.999Z</time></trkpt><trkpt lat="44.99111006657928" lon="7.5137075546587475"><ele>273.0</ele><time>2026-05-01T07:19:21.999Z</time></trkpt><trkpt lat="44.99119033817255" lon="7.5138462109567055"><ele>273.0</ele><time>2026-05-01T07:19:22.999Z</time></trkpt><trkpt lat="44.99126712009283" lon="7.513977463491005"><ele>273.0</ele><time>2026-05-01T07:19:23.999Z</time></trkpt><trkpt lat="44.99134065779431" lon="7.514106245256964"><ele>273.2</ele><time>2026-05-01T07:19:24.999Z</time></trkpt><trkpt lat="44.99141195797926" lon="7.514232605565857"><ele>273.4</ele><time>2026-05-01T07:19:25.999Z</time></trkpt><trkpt lat="44.99147792896831" lon="7.514354947605479"><ele>273.59999999999997</ele><time>2026-05-01T07:19:26.999Z</time></trkpt><trkpt lat="44.99154346891489" lon="7.514473036017897"><ele>273.8</ele><time>2026-05-01T07:19:27.999Z</time></trkpt><trkpt lat="44.991606899121685" lon="7.514587935695063"><ele>274.0</ele><time>2026-05-01T07:19:28.999Z</time></trkpt><trkpt lat="44.99166969752894" lon="7.5146981402958195"><ele>274.2</ele><time>2026-05-01T07:19:29.999Z</time></trkpt><trkpt lat="44.99173182218413" lon="7.514805726060759"><ele>274.4</ele><time>2026-05-01T07:19:30.999Z</time></trkpt><trkpt lat="44.99179200738098" lon="7.514911380863244"><ele>274.6</ele><time>2026-05-01T07:19:31.999Z</time></trkpt><trkpt lat="44.99185234125732" lon="7.51501348193026"><ele>274.8</ele><time>2026-05-01T07:19:32.999Z</time></trkpt><trkpt lat="44.99190515079206" lon="7.51511355202723"><ele>275.0</ele><time>2026-05-01T07:19:33.999Z</time></trkpt><trkpt lat="44.99195575270104" lon="7.515210265425805"><ele>275.0</ele><time>2026-05-01T07:19:34.999Z</time></trkpt><trkpt lat="44.992004735536774" lon="7.51530080573149"><ele>275.0</ele><time>2026-05-01T07:19:35.999Z</time></trkpt><trkpt lat="44.99205129969635" lon="7.515382207493018"><ele>275.0</ele><time>2026-05-01T07:19:36.999Z</time></trkpt><trkpt lat="44.99209218037903" lon="7.51545515755846"><ele>275.0</ele><time>2026-05-01T07:19:37.999Z</time></trkpt><trkpt lat="44.9921566213593" lon="7.515572205419649"><ele>275.0</ele><time>2026-05-01T07:19:39.999Z</time></trkpt><trkpt lat="44.99220665153744" lon="7.5156603834646125"><ele>275.0</ele><time>2026-05-01T07:19:42.999Z</time></trkpt><trkpt lat="44.99225990938785" lon="7.515753629389806"><ele>274.75</ele><time>2026-05-01T07:20:04.999Z</time></trkpt><trkpt lat="44.99233769258748" lon="7.515896942992204"><ele>274.5</ele><time>2026-05-01T07:20:06.999Z</time></trkpt><trkpt lat="44.99242594934073" lon="7.5160460951664305"><ele>274.25</ele><time>2026-05-01T07:20:08.999Z</time></trkpt><trkpt lat="44.992485964597044" lon="7.516146922487931"><ele>274.0</ele><time>2026-05-01T07:20:09.999Z</time></trkpt><trkpt lat="44.99255413561128" lon="7.5162676535847375"><ele>274.5</ele><time>2026-05-01T07:20:10.999Z</time></trkpt><trkpt lat="44.99262729277365" lon="7.516398709311121"><ele>275.0</ele><time>2026-05-01T07:20:11.999Z</time></trkpt><trkpt lat="44.99271115719627" lon="7.516546951821332"><ele>275.5</ele><time>2026-05-01T07:20:12.999Z</time></trkpt><trkpt lat="44.99279950747402" lon="7.516703345241929"><ele>276.0</ele><time>2026-05-01T07:20:13.999Z</time></trkpt><trkpt lat="44.992945223360984" lon="7.516943191024434"><ele>276.3333333333333</ele><time>2026-05-01T07:20:14.999Z</time></trkpt><trkpt lat="44.99306028123034" lon="7.517148889459172"><ele>276.66666666666663</ele><time>2026-05-01T07:20:15.999Z</time></trkpt><trkpt lat="44.993184606669175" lon="7.51736881644984"><ele>277.0</ele><time>2026-05-01T07:20:16.999Z</time></trkpt><trkpt lat="44.99332077704176" lon="7.517606057440225"><ele>277.3333333333333</ele><time>2026-05-01T07:20:17.999Z</time></trkpt><trkpt lat="44.99346664572205" lon="7.5178572445514895"><ele>277.6666666666667</ele><time>2026-05-01T07:20:18.999Z</time></trkpt><trkpt lat="44.99358096893471" lon="7.518074825434184"><ele>278.0</ele><time>2026-05-01T07:20:19.999Z</time></trkpt><trkpt lat="44.99371531638781" lon="7.518309923829774"><ele>278.6666666666667</ele><time>2026-05-01T07:20:20.999Z</time></trkpt><trkpt lat="44.99384614426227" lon="7.518542790768231"><ele>279.3333333333333</ele><time>2026-05-01T07:20:21.999Z</time></trkpt><trkpt lat="44.99398069918829" lon="7.518778776746791"><ele>280.0</ele><time>2026-05-01T07:20:22.999Z</time></trkpt><trkpt lat="44.994114736819476" lon="7.519013722508737"><ele>279.0</ele><time>2026-05-01T07:20:23.999Z</time></trkpt><trkpt lat="44.99424478524722" lon="7.519245622281372"><ele>278.0</ele><time>2026-05-01T07:20:24.999Z</time></trkpt><trkpt lat="44.994375981899076" lon="7.519476052078607"><ele>277.0</ele><time>2026-05-01T07:20:25.999Z</time></trkpt><trkpt lat="44.994508731427956" lon="7.5197062762182485"><ele>276.3333333333333</ele><time>2026-05-01T07:20:26.999Z</time></trkpt><trkpt lat="44.99463899421921" lon="7.519941553571322"><ele>275.6666666666667</ele><time>2026-05-01T07:20:27.999Z</time></trkpt><trkpt lat="44.994768207555126" lon="7.520172412646285"><ele>275.0</ele><time>2026-05-01T07:20:28.999Z</time></trkpt><trkpt lat="44.99489996638355" lon="7.520404299556432"><ele>274.6666666666667</ele><time>2026-05-01T07:20:29.999Z</time></trkpt><trkpt lat="44.995027144559444" lon="7.520633525312915"><ele>274.3333333333333</ele><time>2026-05-01T07:20:30.999Z</time></trkpt><trkpt lat="44.99515399182941" lon="7.520865374806675"><ele>274.0</ele><time>2026-05-01T07:20:31.999Z</time></trkpt><trkpt lat="44.995278069418006" lon="7.521101333707333"><ele>274.66666666666663</ele><time>2026-05-01T07:20:32.999Z</time></trkpt><trkpt lat="44.99539612796509" lon="7.521338555926479"><ele>275.3333333333333</ele><time>2026-05-01T07:20:33.999Z</time></trkpt><trkpt lat="44.99550567462458" lon="7.52159664986962"><ele>276.0</ele><time>2026-05-01T07:20:34.999Z</time></trkpt><trkpt lat="44.9956342105256" lon="7.521849211064888"><ele>275.0</ele><time>2026-05-01T07:20:35.999Z</time></trkpt><trkpt lat="44.99572772382099" lon="7.522102764377319"><ele>274.0</ele><time>2026-05-01T07:20:36.999Z</time></trkpt><trkpt lat="44.99581731047438" lon="7.522366887552323"><ele>273.0</ele><time>2026-05-01T07:20:37.999Z</time></trkpt><trkpt lat="44.99590400337059" lon="7.522635777452642"><ele>272.6666666666667</ele><time>2026-05-01T07:20:38.999Z</time></trkpt><trkpt lat="44.995987302742556" lon="7.522906901318938"><ele>272.33333333333337</ele><time>2026-05-01T07:20:39.999Z</time></trkpt><trkpt lat="44.996064713823166" lon="7.523186092051407"><ele>272.0</ele><time>2026-05-01T07:20:40.999Z</time></trkpt><trkpt lat="44.99613896885358" lon="7.523470404647355"><ele>271.6666666666667</ele><time>2026-05-01T07:20:41.999Z</time></trkpt><trkpt lat="44.99620281272423" lon="7.52375735218018"><ele>271.3333333333333</ele><time>2026-05-01T07:20:42.999Z</time></trkpt><trkpt lat="44.99626558792227" lon="7.524048556514361"><ele>271.0</ele><time>2026-05-01T07:20:43.999Z</time></trkpt><trkpt lat="44.996325632742476" lon="7.524341692878771"><ele>271.3333333333333</ele><time>2026-05-01T07:20:44.999Z</time></trkpt><trkpt lat="44.99637607983844" lon="7.52463928476688"><ele>271.6666666666667</ele><time>2026-05-01T07:20:45.999Z</time></trkpt><trkpt lat="44.99640946226328" lon="7.524936687915274"><ele>272.0</ele><time>2026-05-01T07:20:46.999Z</time></trkpt><trkpt lat="44.996439930072015" lon="7.525235008521922"><ele>272.6666666666667</ele><time>2026-05-01T07:20:47.999Z</time></trkpt><trkpt lat="44.99646637765781" lon="7.525535996751954"><ele>273.3333333333333</ele><time>2026-05-01T07:20:48.999Z</time></trkpt><trkpt lat="44.99649180569281" lon="7.525834775526494"><ele>274.0</ele><time>2026-05-01T07:20:49.999Z</time></trkpt><trkpt lat="44.99650805406414" lon="7.526133391326124"><ele>274.3333333333333</ele><time>2026-05-01T07:20:50.999Z</time></trkpt><trkpt lat="44.99651744763504" lon="7.52643404541039"><ele>274.6666666666667</ele><time>2026-05-01T07:20:51.999Z</time></trkpt><trkpt lat="44.996519030143396" lon="7.526730496622245"><ele>275.0</ele><time>2026-05-01T07:20:52.999Z</time></trkpt><trkpt lat="44.996516191003344" lon="7.52701966543743"><ele>274.6666666666667</ele><time>2026-05-01T07:20:53.999Z</time></trkpt><trkpt lat="44.996503032464396" lon="7.52730597985395"><ele>274.3333333333333</ele><time>2026-05-01T07:20:54.999Z</time></trkpt><trkpt lat="44.99648688186635" lon="7.527586281264231"><ele>274.0</ele><time>2026-05-01T07:20:55.999Z</time></trkpt><trkpt lat="44.996467640780715" lon="7.527860213406512"><ele>272.66666666666663</ele><time>2026-05-01T07:20:56.999Z</time></trkpt><trkpt lat="44.99644279103339" lon="7.528133582914609"><ele>271.3333333333333</ele><time>2026-05-01T07:20:57.999Z</time></trkpt><trkpt lat="44.99642315351824" lon="7.528400277250657"><ele>270.0</ele><time>2026-05-01T07:20:58.999Z</time></trkpt><trkpt lat="44.996402074518755" lon="7.528663771628869"><ele>270.3333333333333</ele><time>2026-05-01T07:20:59.999Z</time></trkpt><trkpt lat="44.996381533093114" lon="7.528914729627285"><ele>270.66666666666663</ele><time>2026-05-01T07:21:00.999Z</time></trkpt><trkpt lat="44.99636289871576" lon="7.529152969384554"><ele>271.0</ele><time>2026-05-01T07:21:01.999Z</time></trkpt><trkpt lat="44.99634041546691" lon="7.529399546637863"><ele>270.66666666666663</ele><time>2026-05-01T07:21:03Z</time></trkpt><trkpt lat="44.99632341923595" lon="7.5296433896083"><ele>270.3333333333333</ele><time>2026-05-01T07:21:04Z</time></trkpt><trkpt lat="44.996310312985266" lon="7.529884073228426"><ele>270.0</ele><time>2026-05-01T07:21:05Z</time></trkpt><trkpt lat="44.99629403694802" lon="7.530118785162851"><ele>270.0</ele><time>2026-05-01T07:21:06Z</time></trkpt><trkpt lat="44.99627385029888" lon="7.530344803721998"><ele>270.0</ele><time>2026-05-01T07:21:07Z</time></trkpt><trkpt lat="44.99625636407891" lon="7.530561233405843"><ele>270.0</ele><time>2026-05-01T07:21:08Z</time></trkpt><trkpt lat="44.99624080238009" lon="7.530772194988551"><ele>270.25</ele><time>2026-05-01T07:21:09Z</time></trkpt><trkpt lat="44.99622415778789" lon="7.530974079474529"><ele>270.5</ele><time>2026-05-01T07:21:10Z</time></trkpt><trkpt lat="44.996204782166345" lon="7.5311656931101485"><ele>270.75</ele><time>2026-05-01T07:21:11Z</time></trkpt><trkpt lat="44.99618351193736" lon="7.531340470817972"><ele>271.0</ele><time>2026-05-01T07:21:12.001Z</time></trkpt><trkpt lat="44.99616692682519" lon="7.531487271642963"><ele>271.0</ele><time>2026-05-01T07:21:13.001Z</time></trkpt><trkpt lat="44.99614741659727" lon="7.5316080632675755"><ele>271.0</ele><time>2026-05-01T07:21:14.001Z</time></trkpt><trkpt lat="44.99611940786486" lon="7.531711082608058"><ele>271.0</ele><time>2026-05-01T07:21:15.001Z</time></trkpt><trkpt lat="44.996084928449484" lon="7.531806471717959"><ele>271.0</ele><time>2026-05-01T07:21:16.001Z</time></trkpt><trkpt lat="44.99603026781595" lon="7.531897583181036"><ele>271.0</ele><time>2026-05-01T07:21:17.001Z</time></trkpt><trkpt lat="44.99596515613112" lon="7.531962756450797"><ele>271.0</ele><time>2026-05-01T07:21:18.001Z</time></trkpt><trkpt lat="44.99581573907338" lon="7.531805850178407"><ele>270.75</ele><time>2026-05-01T07:21:19.001Z</time></trkpt><trkpt lat="44.99570354772112" lon="7.531768501690956"><ele>270.5</ele><time>2026-05-01T07:21:20.001Z</time></trkpt><trkpt lat="44.99557639296115" lon="7.531702813570979"><ele>270.25</ele><time>2026-05-01T07:21:21.001Z</time></trkpt><trkpt lat="44.995435144810706" lon="7.531639537618504"><ele>270.0</ele><time>2026-05-01T07:21:22.001Z</time></trkpt><trkpt lat="44.99528340203102" lon="7.531569641457165"><ele>270.0</ele><time>2026-05-01T07:21:23.001Z</time></trkpt><trkpt lat="44.995121002308274" lon="7.5314965209101885"><ele>270.0</ele><time>2026-05-01T07:21:24.001Z</time></trkpt><trkpt lat="44.99495581486767" lon="7.531418268579884"><ele>270.0</ele><time>2026-05-01T07:21:25.001Z</time></trkpt><trkpt lat="44.99478794230585" lon="7.531338803593058"><ele>269.6666666666667</ele><time>2026-05-01T07:21:26.001Z</time></trkpt><trkpt lat="44.99462035956123" lon="7.531256436431948"><ele>269.33333333333337</ele><time>2026-05-01T07:21:27.001Z</time></trkpt><trkpt lat="44.994446768552734" lon="7.531187592180624"><ele>269.0</ele><time>2026-05-01T07:21:28.001Z</time></trkpt><trkpt lat="44.9942759856394" lon="7.531117107587562"><ele>269.33333333333337</ele><time>2026-05-01T07:21:29.001Z</time></trkpt><trkpt lat="44.99410614805452" lon="7.531053557513116"><ele>269.6666666666667</ele><time>2026-05-01T07:21:30.001Z</time></trkpt><trkpt lat="44.99393715602485" lon="7.530998367929755"><ele>270.0</ele><time>2026-05-01T07:21:31.001Z</time></trkpt><trkpt lat="44.99376674950749" lon="7.530957900129273"><ele>270.0</ele><time>2026-05-01T07:21:32Z</time></trkpt><trkpt lat="44.993585622646314" lon="7.530926665077392"><ele>270.0</ele><time>2026-05-01T07:21:33Z</time></trkpt><trkpt lat="44.99340639968669" lon="7.530904647130259"><ele>270.0</ele><time>2026-05-01T07:21:34Z</time></trkpt><trkpt lat="44.99323354615227" lon="7.530896973855005"><ele>269.3333333333333</ele><time>2026-05-01T07:21:35Z</time></trkpt><trkpt lat="44.993057742993095" lon="7.530897298488842"><ele>268.66666666666663</ele><time>2026-05-01T07:21:36Z</time></trkpt><trkpt lat="44.99287886128878" lon="7.530899116215677"><ele>268.0</ele><time>2026-05-01T07:21:37Z</time></trkpt><trkpt lat="44.992707759901805" lon="7.530894717663245"><ele>268.0</ele><time>2026-05-01T07:21:38Z</time></trkpt><trkpt lat="44.99254293519499" lon="7.5308834754281335"><ele>268.0</ele><time>2026-05-01T07:21:39Z</time></trkpt><trkpt lat="44.992388062389836" lon="7.530873673127483"><ele>268.0</ele><time>2026-05-01T07:21:40Z</time></trkpt><trkpt lat="44.99224488856893" lon="7.530866950574583"><ele>268.0</ele><time>2026-05-01T07:21:41Z</time></trkpt><trkpt lat="44.992106775656616" lon="7.530865046541781"><ele>268.0</ele><time>2026-05-01T07:21:42Z</time></trkpt><trkpt lat="44.991980578782396" lon="7.530866500979703"><ele>268.0</ele><time>2026-05-01T07:21:43Z</time></trkpt><trkpt lat="44.99186623985623" lon="7.530871842793999"><ele>268.0</ele><time>2026-05-01T07:21:44Z</time></trkpt><trkpt lat="44.99176136476927" lon="7.530865039534309"><ele>268.0</ele><time>2026-05-01T07:21:45Z</time></trkpt><trkpt lat="44.991667970936525" lon="7.530865039534061"><ele>268.0</ele><time>2026-05-01T07:21:46Z</time></trkpt><trkpt lat="44.99159005104621" lon="7.530864410706402"><ele>268.0</ele><time>2026-05-01T07:21:47Z</time></trkpt><trkpt lat="44.99153510030982" lon="7.531222296421241"><ele>268.0</ele><time>2026-05-01T07:21:48Z</time></trkpt><trkpt lat="44.99148972727051" lon="7.531407013294861"><ele>268.0</ele><time>2026-05-01T07:21:49Z</time></trkpt><trkpt lat="44.99143995013013" lon="7.5315990059087445"><ele>268.0</ele><time>2026-05-01T07:21:50Z</time></trkpt><trkpt lat="44.99136960429725" lon="7.531804927131819"><ele>268.0</ele><time>2026-05-01T07:21:51Z</time></trkpt><trkpt lat="44.991290226511616" lon="7.532010878863804"><ele>267.66666666666663</ele><time>2026-05-01T07:21:52Z</time></trkpt><trkpt lat="44.991197520895525" lon="7.53222755191985"><ele>267.3333333333333</ele><time>2026-05-01T07:21:53Z</time></trkpt><trkpt lat="44.99109162356543" lon="7.532455230702594"><ele>267.0</ele><time>2026-05-01T07:21:54Z</time></trkpt><trkpt lat="44.99097295894727" lon="7.532673733437722"><ele>266.3333333333333</ele><time>2026-05-01T07:21:55Z</time></trkpt><trkpt lat="44.99084035961974" lon="7.532890843575205"><ele>265.66666666666663</ele><time>2026-05-01T07:21:56Z</time></trkpt><trkpt lat="44.99070067511705" lon="7.533096606234692"><ele>265.0</ele><time>2026-05-01T07:21:57Z</time></trkpt><trkpt lat="44.99055634384032" lon="7.533293752154356"><ele>265.0</ele><time>2026-05-01T07:21:58Z</time></trkpt><trkpt lat="44.990411684337396" lon="7.533491154221068"><ele>265.0</ele><time>2026-05-01T07:21:59Z</time></trkpt><trkpt lat="44.99026863104914" lon="7.533690228795257"><ele>265.0</ele><time>2026-05-01T07:22:00Z</time></trkpt><trkpt lat="44.990126572382856" lon="7.533890409851933"><ele>264.66666666666663</ele><time>2026-05-01T07:22:01Z</time></trkpt><trkpt lat="44.98998338912084" lon="7.534092717510431"><ele>264.3333333333333</ele><time>2026-05-01T07:22:02Z</time></trkpt><trkpt lat="44.98984101435197" lon="7.5342929836841925"><ele>264.0</ele><time>2026-05-01T07:22:03Z</time></trkpt><trkpt lat="44.9896961416069" lon="7.534495316361215"><ele>264.6666666666667</ele><time>2026-05-01T07:22:04Z</time></trkpt><trkpt lat="44.989549152205" lon="7.5347001324511105"><ele>265.33333333333337</ele><time>2026-05-01T07:22:05Z</time></trkpt><trkpt lat="44.989403396061746" lon="7.534904968241567"><ele>266.0</ele><time>2026-05-01T07:22:06Z</time></trkpt><trkpt lat="44.989250288481486" lon="7.535117576448273"><ele>265.6666666666667</ele><time>2026-05-01T07:22:07Z</time></trkpt><trkpt lat="44.98910295320224" lon="7.535326449064544"><ele>265.3333333333333</ele><time>2026-05-01T07:22:08Z</time></trkpt><trkpt lat="44.98895449625746" lon="7.5355348921359795"><ele>265.0</ele><time>2026-05-01T07:22:09Z</time></trkpt><trkpt lat="44.98880247215436" lon="7.535745734971692"><ele>265.0</ele><time>2026-05-01T07:22:10Z</time></trkpt><trkpt lat="44.988655364269114" lon="7.5359560629126445"><ele>265.0</ele><time>2026-05-01T07:22:11Z</time></trkpt><trkpt lat="44.98850847370233" lon="7.536162915965674"><ele>265.0</ele><time>2026-05-01T07:22:12Z</time></trkpt><trkpt lat="44.9883635845775" lon="7.536367659993135"><ele>264.0</ele><time>2026-05-01T07:22:13Z</time></trkpt><trkpt lat="44.988210247246" lon="7.536585288266492"><ele>263.0</ele><time>2026-05-01T07:22:14Z</time></trkpt><trkpt lat="44.98806266511085" lon="7.53679498652813"><ele>262.0</ele><time>2026-05-01T07:22:15Z</time></trkpt><trkpt lat="44.98791560170623" lon="7.537002368473258"><ele>262.3333333333333</ele><time>2026-05-01T07:22:16Z</time></trkpt><trkpt lat="44.98777077510127" lon="7.53720239076663"><ele>262.6666666666667</ele><time>2026-05-01T07:22:17Z</time></trkpt><trkpt lat="44.987618562422966" lon="7.537410860926964"><ele>263.0</ele><time>2026-05-01T07:22:18Z</time></trkpt><trkpt lat="44.98746478243671" lon="7.5376281259590066"><ele>263.0</ele><time>2026-05-01T07:22:19Z</time></trkpt><trkpt lat="44.98730846920607" lon="7.5378455022166175"><ele>263.0</ele><time>2026-05-01T07:22:20Z</time></trkpt><trkpt lat="44.98715191178446" lon="7.5380683623181"><ele>263.0</ele><time>2026-05-01T07:22:21Z</time></trkpt><trkpt lat="44.98699432363178" lon="7.538293297227505"><ele>262.5</ele><time>2026-05-01T07:22:22Z</time></trkpt><trkpt lat="44.986834816973754" lon="7.538520171843913"><ele>262.0</ele><time>2026-05-01T07:22:23Z</time></trkpt><trkpt lat="44.98667407301026" lon="7.538746602321037"><ele>261.5</ele><time>2026-05-01T07:22:24Z</time></trkpt><trkpt lat="44.98651638555358" lon="7.538975411125476"><ele>261.0</ele><time>2026-05-01T07:22:25Z</time></trkpt><trkpt lat="44.98636101831468" lon="7.539209089293558"><ele>261.0</ele><time>2026-05-01T07:22:26Z</time></trkpt><trkpt lat="44.98621091561185" lon="7.539455346982341"><ele>261.0</ele><time>2026-05-01T07:22:27Z</time></trkpt><trkpt lat="44.98606890385919" lon="7.539709112517244"><ele>260.5</ele><time>2026-05-01T07:22:28Z</time></trkpt><trkpt lat="44.985933336308236" lon="7.5399698269851685"><ele>260.0</ele><time>2026-05-01T07:22:29Z</time></trkpt><trkpt lat="44.98580193082212" lon="7.5402375748864205"><ele>260.5</ele><time>2026-05-01T07:22:30Z</time></trkpt><trkpt lat="44.9856722422478" lon="7.54050216285086"><ele>261.0</ele><time>2026-05-01T07:22:31Z</time></trkpt><trkpt lat="44.98554258765716" lon="7.540764976606616"><ele>261.0</ele><time>2026-05-01T07:22:32Z</time></trkpt><trkpt lat="44.985414747093365" lon="7.541027391409284"><ele>261.0</ele><time>2026-05-01T07:22:33Z</time></trkpt><trkpt lat="44.98528797636577" lon="7.541289174913148"><ele>260.0</ele><time>2026-05-01T07:22:34Z</time></trkpt><trkpt lat="44.985159650916835" lon="7.54155359078915"><ele>259.0</ele><time>2026-05-01T07:22:35Z</time></trkpt><trkpt lat="44.98502911948042" lon="7.541812386453173"><ele>259.0</ele><time>2026-05-01T07:22:36Z</time></trkpt><trkpt lat="44.98489999817837" lon="7.542075055863481"><ele>259.0</ele><time>2026-05-01T07:22:37Z</time></trkpt><trkpt lat="44.98477317702605" lon="7.5423380430230695"><ele>259.0</ele><time>2026-05-01T07:22:38Z</time></trkpt><trkpt lat="44.98464613995097" lon="7.542602472253114"><ele>259.0</ele><time>2026-05-01T07:22:39Z</time></trkpt><trkpt lat="44.98451850762426" lon="7.542864469607173"><ele>259.0</ele><time>2026-05-01T07:22:40Z</time></trkpt><trkpt lat="44.98439019882987" lon="7.543128111599338"><ele>259.0</ele><time>2026-05-01T07:22:41Z</time></trkpt><trkpt lat="44.98426302573872" lon="7.543388635333463"><ele>259.5</ele><time>2026-05-01T07:22:42Z</time></trkpt><trkpt lat="44.984136254217105" lon="7.543655515370837"><ele>260.0</ele><time>2026-05-01T07:22:43Z</time></trkpt><trkpt lat="44.984010833000546" lon="7.543920707031195"><ele>260.0</ele><time>2026-05-01T07:22:44Z</time></trkpt><trkpt lat="44.98388665749084" lon="7.544187540040022"><ele>260.0</ele><time>2026-05-01T07:22:45Z</time></trkpt><trkpt lat="44.98376922565742" lon="7.544460255445842"><ele>260.5</ele><time>2026-05-01T07:22:46Z</time></trkpt><trkpt lat="44.98365479983571" lon="7.54473577321421"><ele>261.0</ele><time>2026-05-01T07:22:47Z</time></trkpt><trkpt lat="44.98354035328722" lon="7.5450101280201896"><ele>261.0</ele><time>2026-05-01T07:22:48Z</time></trkpt><trkpt lat="44.983425004573206" lon="7.545284001759974"><ele>261.0</ele><time>2026-05-01T07:22:49Z</time></trkpt><trkpt lat="44.983312112773746" lon="7.545557303149016"><ele>261.0</ele><time>2026-05-01T07:22:50Z</time></trkpt><trkpt lat="44.98319891253889" lon="7.545832710355069"><ele>259.6666666666667</ele><time>2026-05-01T07:22:51Z</time></trkpt><trkpt lat="44.98308432637394" lon="7.546103828089883"><ele>258.33333333333337</ele><time>2026-05-01T07:22:52Z</time></trkpt><trkpt lat="44.982974284173594" lon="7.546378411540031"><ele>257.0</ele><time>2026-05-01T07:22:53Z</time></trkpt><trkpt lat="44.982861402058944" lon="7.546648298634251"><ele>257.0</ele><time>2026-05-01T07:22:54Z</time></trkpt><trkpt lat="44.98274846291223" lon="7.546922809373933"><ele>257.0</ele><time>2026-05-01T07:22:55Z</time></trkpt><trkpt lat="44.98263551956379" lon="7.547194027810185"><ele>257.0</ele><time>2026-05-01T07:22:56Z</time></trkpt><trkpt lat="44.982522126821905" lon="7.547469582611619"><ele>256.5</ele><time>2026-05-01T07:22:57Z</time></trkpt><trkpt lat="44.98240882551696" lon="7.547743779983907"><ele>256.0</ele><time>2026-05-01T07:22:58Z</time></trkpt><trkpt lat="44.98229674200217" lon="7.548021805889189"><ele>255.66666666666666</ele><time>2026-05-01T07:22:59Z</time></trkpt><trkpt lat="44.9821867699902" lon="7.548296677251856"><ele>255.33333333333331</ele><time>2026-05-01T07:23:00Z</time></trkpt><trkpt lat="44.98207412417193" lon="7.548568365398015"><ele>255.0</ele><time>2026-05-01T07:23:01Z</time></trkpt><trkpt lat="44.98196295570869" lon="7.548822068196712"><ele>255.66666666666669</ele><time>2026-05-01T07:23:02Z</time></trkpt><trkpt lat="44.981849086156785" lon="7.549078431200861"><ele>256.33333333333337</ele><time>2026-05-01T07:23:03Z</time></trkpt><trkpt lat="44.98176259136915" lon="7.549312793853779"><ele>257.0</ele><time>2026-05-01T07:23:04Z</time></trkpt><trkpt lat="44.9816657079543" lon="7.549534946829993"><ele>257.33333333333337</ele><time>2026-05-01T07:23:05Z</time></trkpt><trkpt lat="44.98157327215395" lon="7.5497455525791635"><ele>257.6666666666667</ele><time>2026-05-01T07:23:06Z</time></trkpt><trkpt lat="44.981482244311756" lon="7.549951868457798"><ele>258.0</ele><time>2026-05-01T07:23:07Z</time></trkpt><trkpt lat="44.981389403544284" lon="7.550144160328407"><ele>258.0</ele><time>2026-05-01T07:23:08.001Z</time></trkpt><trkpt lat="44.981296640440824" lon="7.550334896638529"><ele>258.0</ele><time>2026-05-01T07:23:09.001Z</time></trkpt><trkpt lat="44.981202693030845" lon="7.550518034985591"><ele>258.0</ele><time>2026-05-01T07:23:10.001Z</time></trkpt><trkpt lat="44.98110584943225" lon="7.550688476613627"><ele>257.75</ele><time>2026-05-01T07:23:11.001Z</time></trkpt><trkpt lat="44.981000219180174" lon="7.55083840427045"><ele>257.5</ele><time>2026-05-01T07:23:12.001Z</time></trkpt><trkpt lat="44.98088147561686" lon="7.55096683218725"><ele>257.25</ele><time>2026-05-01T07:23:13.001Z</time></trkpt><trkpt lat="44.98076346761224" lon="7.551074630505282"><ele>257.0</ele><time>2026-05-01T07:23:14.001Z</time></trkpt><trkpt lat="44.980649511704144" lon="7.551176224234098"><ele>257.25</ele><time>2026-05-01T07:23:15.001Z</time></trkpt><trkpt lat="44.980529938715456" lon="7.551276286423173"><ele>257.5</ele><time>2026-05-01T07:23:16.001Z</time></trkpt><trkpt lat="44.980405785248074" lon="7.551387969237629"><ele>257.75</ele><time>2026-05-01T07:23:17.001Z</time></trkpt><trkpt lat="44.98028853513671" lon="7.551524058075555"><ele>258.0</ele><time>2026-05-01T07:23:18.001Z</time></trkpt><trkpt lat="44.98019410995679" lon="7.5516857171945455"><ele>258.0</ele><time>2026-05-01T07:23:19.001Z</time></trkpt><trkpt lat="44.98010954984876" lon="7.551878292716845"><ele>258.0</ele><time>2026-05-01T07:23:20.001Z</time></trkpt><trkpt lat="44.980037505587816" lon="7.552097634647639"><ele>258.0</ele><time>2026-05-01T07:23:21.001Z</time></trkpt><trkpt lat="44.979984286425214" lon="7.552320391080125"><ele>257.3333333333333</ele><time>2026-05-01T07:23:22.001Z</time></trkpt><trkpt lat="44.979956095147784" lon="7.552555820607293"><ele>256.66666666666663</ele><time>2026-05-01T07:23:23.001Z</time></trkpt><trkpt lat="44.979941556330765" lon="7.552796613667452"><ele>256.0</ele><time>2026-05-01T07:23:24.001Z</time></trkpt><trkpt lat="44.97993355896598" lon="7.553029372680216"><ele>255.33333333333331</ele><time>2026-05-01T07:23:25.001Z</time></trkpt><trkpt lat="44.97991544898391" lon="7.553257258543136"><ele>254.66666666666669</ele><time>2026-05-01T07:23:26.001Z</time></trkpt><trkpt lat="44.97987306982878" lon="7.553474956379581"><ele>254.0</ele><time>2026-05-01T07:23:27.001Z</time></trkpt><trkpt lat="44.979800562804506" lon="7.553687202579928"><ele>254.0</ele><time>2026-05-01T07:23:28.001Z</time></trkpt><trkpt lat="44.979706495235206" lon="7.553893061337233"><ele>254.0</ele><time>2026-05-01T07:23:29.001Z</time></trkpt><trkpt lat="44.979601104844136" lon="7.554102503793097"><ele>254.0</ele><time>2026-05-01T07:23:30.001Z</time></trkpt><trkpt lat="44.979481980074205" lon="7.554305788918613"><ele>254.0</ele><time>2026-05-01T07:23:31.001Z</time></trkpt><trkpt lat="44.97935743876695" lon="7.554504189460463"><ele>254.0</ele><time>2026-05-01T07:23:32.001Z</time></trkpt><trkpt lat="44.97923404062154" lon="7.554711260164085"><ele>254.0</ele><time>2026-05-01T07:23:33.001Z</time></trkpt><trkpt lat="44.97911338649009" lon="7.55492285302972"><ele>253.66666666666669</ele><time>2026-05-01T07:23:34.001Z</time></trkpt><trkpt lat="44.97899541555323" lon="7.555136126267386"><ele>253.33333333333331</ele><time>2026-05-01T07:23:35.001Z</time></trkpt><trkpt lat="44.97887535483295" lon="7.555344113600761"><ele>253.0</ele><time>2026-05-01T07:23:36.001Z</time></trkpt><trkpt lat="44.97875476642674" lon="7.555554832056348"><ele>253.0</ele><time>2026-05-01T07:23:37.001Z</time></trkpt><trkpt lat="44.97863286540035" lon="7.555766666045182"><ele>253.0</ele><time>2026-05-01T07:23:38.001Z</time></trkpt><trkpt lat="44.97850796270386" lon="7.55598159415934"><ele>253.0</ele><time>2026-05-01T07:23:39.001Z</time></trkpt><trkpt lat="44.97838396796068" lon="7.556195663143085"><ele>253.66666666666666</ele><time>2026-05-01T07:23:40.001Z</time></trkpt><trkpt lat="44.97825810509575" lon="7.556411913947556"><ele>254.33333333333331</ele><time>2026-05-01T07:23:41.001Z</time></trkpt><trkpt lat="44.978137260566825" lon="7.556626106299166"><ele>255.0</ele><time>2026-05-01T07:23:42.001Z</time></trkpt><trkpt lat="44.97801297173241" lon="7.5568406455464165"><ele>254.33333333333331</ele><time>2026-05-01T07:23:43.001Z</time></trkpt><trkpt lat="44.977889266171644" lon="7.557049501996543"><ele>253.66666666666666</ele><time>2026-05-01T07:23:44.001Z</time></trkpt><trkpt lat="44.977764039603734" lon="7.557261371226576"><ele>253.0</ele><time>2026-05-01T07:23:45Z</time></trkpt><trkpt lat="44.97764065139722" lon="7.55747348449967"><ele>253.0</ele><time>2026-05-01T07:23:46Z</time></trkpt><trkpt lat="44.977518551598976" lon="7.557690723611664"><ele>253.0</ele><time>2026-05-01T07:23:47Z</time></trkpt><trkpt lat="44.977394597902226" lon="7.557901797880674"><ele>253.0</ele><time>2026-05-01T07:23:48Z</time></trkpt><trkpt lat="44.97726774434233" lon="7.558113690583553"><ele>253.0</ele><time>2026-05-01T07:23:49Z</time></trkpt><trkpt lat="44.97713154565845" lon="7.558318272467793"><ele>253.0</ele><time>2026-05-01T07:23:50Z</time></trkpt><trkpt lat="44.97699055416172" lon="7.558514698375133"><ele>253.0</ele><time>2026-05-01T07:23:51Z</time></trkpt><trkpt lat="44.97684570153105" lon="7.558703516705655"><ele>252.66666666666666</ele><time>2026-05-01T07:23:52Z</time></trkpt><trkpt lat="44.97669560392114" lon="7.558884445577243"><ele>252.33333333333331</ele><time>2026-05-01T07:23:53Z</time></trkpt><trkpt lat="44.97654114652137" lon="7.559056035530697"><ele>252.0</ele><time>2026-05-01T07:23:54Z</time></trkpt><trkpt lat="44.97638371727408" lon="7.559221417517926"><ele>251.33333333333331</ele><time>2026-05-01T07:23:55Z</time></trkpt><trkpt lat="44.976220465616564" lon="7.559380257607712"><ele>250.66666666666666</ele><time>2026-05-01T07:23:56Z</time></trkpt><trkpt lat="44.97605677186188" lon="7.559534203130886"><ele>250.0</ele><time>2026-05-01T07:23:57Z</time></trkpt><trkpt lat="44.975892401394034" lon="7.559688528792198"><ele>251.0</ele><time>2026-05-01T07:23:58Z</time></trkpt><trkpt lat="44.9757308650475" lon="7.559843257902089"><ele>252.0</ele><time>2026-05-01T07:23:59Z</time></trkpt><trkpt lat="44.97556705437298" lon="7.560000492905494"><ele>253.0</ele><time>2026-05-01T07:24:00Z</time></trkpt><trkpt lat="44.97540423540712" lon="7.5601604985583535"><ele>253.0</ele><time>2026-05-01T07:24:01Z</time></trkpt><trkpt lat="44.97524380582933" lon="7.56032432603953"><ele>253.0</ele><time>2026-05-01T07:24:02Z</time></trkpt><trkpt lat="44.97508476435282" lon="7.560489129610361"><ele>253.0</ele><time>2026-05-01T07:24:03Z</time></trkpt><trkpt lat="44.97493287737545" lon="7.560664272312176"><ele>254.0</ele><time>2026-05-01T07:24:04Z</time></trkpt><trkpt lat="44.97478493581066" lon="7.560848456395443"><ele>255.0</ele><time>2026-05-01T07:24:05Z</time></trkpt><trkpt lat="44.97463883009329" lon="7.5610344816157555"><ele>256.0</ele><time>2026-05-01T07:24:06Z</time></trkpt><trkpt lat="44.974494621932756" lon="7.561220483555864"><ele>255.66666666666666</ele><time>2026-05-01T07:24:07Z</time></trkpt><trkpt lat="44.97434893556235" lon="7.561410270305745"><ele>255.33333333333331</ele><time>2026-05-01T07:24:08Z</time></trkpt><trkpt lat="44.97420553141697" lon="7.5616054265019965"><ele>255.0</ele><time>2026-05-01T07:24:09Z</time></trkpt><trkpt lat="44.97406799582564" lon="7.561801356707304"><ele>255.0</ele><time>2026-05-01T07:24:10Z</time></trkpt><trkpt lat="44.9739261004352" lon="7.5619959523869404"><ele>255.0</ele><time>2026-05-01T07:24:11Z</time></trkpt><trkpt lat="44.97377870716819" lon="7.562184340760161"><ele>255.0</ele><time>2026-05-01T07:24:12Z</time></trkpt><trkpt lat="44.97362849927813" lon="7.562362331019713"><ele>256.0</ele><time>2026-05-01T07:24:13Z</time></trkpt><trkpt lat="44.97346805219385" lon="7.562528606005442"><ele>257.0</ele><time>2026-05-01T07:24:14Z</time></trkpt><trkpt lat="44.973300101602234" lon="7.562677917644412"><ele>258.0</ele><time>2026-05-01T07:24:15Z</time></trkpt><trkpt lat="44.97312390944328" lon="7.562807183554498"><ele>257.3333333333333</ele><time>2026-05-01T07:24:16Z</time></trkpt><trkpt lat="44.9729396904715" lon="7.5629158751752446"><ele>256.66666666666663</ele><time>2026-05-01T07:24:17Z</time></trkpt><trkpt lat="44.97275282202132" lon="7.563008526061033"><ele>256.0</ele><time>2026-05-01T07:24:18Z</time></trkpt><trkpt lat="44.97256210723724" lon="7.563087175424148"><ele>256.0</ele><time>2026-05-01T07:24:19Z</time></trkpt><trkpt lat="44.97236581190137" lon="7.563158785337895"><ele>256.0</ele><time>2026-05-01T07:24:20Z</time></trkpt><trkpt lat="44.97216679098884" lon="7.56322772873688"><ele>256.0</ele><time>2026-05-01T07:24:21Z</time></trkpt><trkpt lat="44.97197031495998" lon="7.563292534004203"><ele>256.0</ele><time>2026-05-01T07:24:22Z</time></trkpt><trkpt lat="44.97176992979969" lon="7.563360785305139"><ele>256.0</ele><time>2026-05-01T07:24:23Z</time></trkpt><trkpt lat="44.97157053390073" lon="7.563426701625995"><ele>256.0</ele><time>2026-05-01T07:24:24Z</time></trkpt><trkpt lat="44.97137054890534" lon="7.563494701076009"><ele>256.0</ele><time>2026-05-01T07:24:25Z</time></trkpt><trkpt lat="44.971166600564516" lon="7.563563177060936"><ele>256.0</ele><time>2026-05-01T07:24:26Z</time></trkpt><trkpt lat="44.9709603648309" lon="7.5636361013835245"><ele>256.0</ele><time>2026-05-01T07:24:27Z</time></trkpt><trkpt lat="44.970768815656456" lon="7.563744175900566"><ele>255.66666666666666</ele><time>2026-05-01T07:24:28Z</time></trkpt><trkpt lat="44.97058493843855" lon="7.563873641729163"><ele>255.33333333333331</ele><time>2026-05-01T07:24:29Z</time></trkpt><trkpt lat="44.9704155124628" lon="7.564026183812455"><ele>255.0</ele><time>2026-05-01T07:24:30Z</time></trkpt><trkpt lat="44.97024611373522" lon="7.564191771766688"><ele>255.0</ele><time>2026-05-01T07:24:31Z</time></trkpt><trkpt lat="44.970091263634764" lon="7.5643699197953795"><ele>255.0</ele><time>2026-05-01T07:24:32Z</time></trkpt><trkpt lat="44.96994798980175" lon="7.564565079562153"><ele>255.0</ele><time>2026-05-01T07:24:33Z</time></trkpt><trkpt lat="44.96981495449857" lon="7.564773467624112"><ele>254.66666666666669</ele><time>2026-05-01T07:24:34Z</time></trkpt><trkpt lat="44.969687439651906" lon="7.564986898460817"><ele>254.33333333333334</ele><time>2026-05-01T07:24:35Z</time></trkpt><trkpt lat="44.96955957508089" lon="7.565201426681712"><ele>254.0</ele><time>2026-05-01T07:24:36Z</time></trkpt><trkpt lat="44.96942847726505" lon="7.565412822776241"><ele>254.0</ele><time>2026-05-01T07:24:37Z</time></trkpt><trkpt lat="44.9692948743095" lon="7.5656202099202945"><ele>254.0</ele><time>2026-05-01T07:24:38Z</time></trkpt><trkpt lat="44.969160402767024" lon="7.56582064852734"><ele>254.0</ele><time>2026-05-01T07:24:39Z</time></trkpt><trkpt lat="44.96903011029166" lon="7.566015488898433"><ele>254.0</ele><time>2026-05-01T07:24:40Z</time></trkpt><trkpt lat="44.968900361945636" lon="7.56620697168813"><ele>254.0</ele><time>2026-05-01T07:24:41Z</time></trkpt><trkpt lat="44.96877164558737" lon="7.566396898223626"><ele>254.0</ele><time>2026-05-01T07:24:42Z</time></trkpt><trkpt lat="44.968646069876215" lon="7.566580300627292"><ele>254.0</ele><time>2026-05-01T07:24:43Z</time></trkpt><trkpt lat="44.96853096045574" lon="7.566746817261486"><ele>254.0</ele><time>2026-05-01T07:24:44Z</time></trkpt><trkpt lat="44.96841979560026" lon="7.5668905476498844"><ele>254.0</ele><time>2026-05-01T07:24:45Z</time></trkpt><trkpt lat="44.96830432334491" lon="7.56698936608738"><ele>253.25</ele><time>2026-05-01T07:24:46Z</time></trkpt><trkpt lat="44.968191909375136" lon="7.567049110198726"><ele>252.5</ele><time>2026-05-01T07:24:47Z</time></trkpt><trkpt lat="44.96808386843194" lon="7.567106765648608"><ele>251.75</ele><time>2026-05-01T07:24:48Z</time></trkpt><trkpt lat="44.96801484428875" lon="7.5672319139160455"><ele>251.0</ele><time>2026-05-01T07:24:49Z</time></trkpt><trkpt lat="44.96801206535159" lon="7.567421873516166"><ele>251.0</ele><time>2026-05-01T07:24:50Z</time></trkpt><trkpt lat="44.96797230869809" lon="7.5675959899822365"><ele>251.0</ele><time>2026-05-01T07:24:51Z</time></trkpt><trkpt lat="44.967889603995054" lon="7.567765830432517"><ele>251.0</ele><time>2026-05-01T07:24:52Z</time></trkpt><trkpt lat="44.9677827379526" lon="7.5679355824931385"><ele>251.0</ele><time>2026-05-01T07:24:53Z</time></trkpt><trkpt lat="44.967676376745956" lon="7.568120621394003"><ele>250.33333333333334</ele><time>2026-05-01T07:24:54Z</time></trkpt><trkpt lat="44.96756215181637" lon="7.56832210797718"><ele>249.66666666666669</ele><time>2026-05-01T07:24:55Z</time></trkpt><trkpt lat="44.96744393250969" lon="7.568533365827357"><ele>249.0</ele><time>2026-05-01T07:24:56Z</time></trkpt><trkpt lat="44.96731952328401" lon="7.568754761873769"><ele>250.33333333333331</ele><time>2026-05-01T07:24:57Z</time></trkpt><trkpt lat="44.96719185390972" lon="7.568979009428828"><ele>251.66666666666666</ele><time>2026-05-01T07:24:58Z</time></trkpt><trkpt lat="44.96706104014914" lon="7.569198829819422"><ele>253.0</ele><time>2026-05-01T07:24:59Z</time></trkpt><trkpt lat="44.96693104034193" lon="7.569415715542889"><ele>253.66666666666666</ele><time>2026-05-01T07:25:00Z</time></trkpt><trkpt lat="44.966799917442" lon="7.569624923087538"><ele>254.33333333333331</ele><time>2026-05-01T07:25:01Z</time></trkpt><trkpt lat="44.96666839814814" lon="7.569832362335025"><ele>255.0</ele><time>2026-05-01T07:25:02Z</time></trkpt><trkpt lat="44.966537842138415" lon="7.57003778458548"><ele>253.33333333333331</ele><time>2026-05-01T07:25:03Z</time></trkpt><trkpt lat="44.96640952514116" lon="7.570243092590869"><ele>251.66666666666666</ele><time>2026-05-01T07:25:04Z</time></trkpt><trkpt lat="44.96627879332227" lon="7.570448232893051"><ele>250.0</ele><time>2026-05-01T07:25:05Z</time></trkpt><trkpt lat="44.96614821733243" lon="7.570653283416563"><ele>249.33333333333331</ele><time>2026-05-01T07:25:06Z</time></trkpt><trkpt lat="44.9660154223813" lon="7.570858036401641"><ele>248.66666666666669</ele><time>2026-05-01T07:25:07Z</time></trkpt><trkpt lat="44.96588199058911" lon="7.5710641547803945"><ele>248.0</ele><time>2026-05-01T07:25:08Z</time></trkpt><trkpt lat="44.965750189911645" lon="7.571270047944394"><ele>248.0</ele><time>2026-05-01T07:25:09Z</time></trkpt><trkpt lat="44.96561993329386" lon="7.571479710258023"><ele>248.0</ele><time>2026-05-01T07:25:10Z</time></trkpt><trkpt lat="44.96549098776253" lon="7.571695398544028"><ele>248.0</ele><time>2026-05-01T07:25:11Z</time></trkpt><trkpt lat="44.96536211614256" lon="7.571914426396093"><ele>247.33333333333334</ele><time>2026-05-01T07:25:12Z</time></trkpt><trkpt lat="44.965231595966166" lon="7.572132814615664"><ele>246.66666666666669</ele><time>2026-05-01T07:25:13Z</time></trkpt><trkpt lat="44.965100209433935" lon="7.572351230760332"><ele>246.0</ele><time>2026-05-01T07:25:14.001Z</time></trkpt><trkpt lat="44.96496605326949" lon="7.5725696559633935"><ele>246.0</ele><time>2026-05-01T07:25:15.001Z</time></trkpt><trkpt lat="44.96482963199788" lon="7.572789308577659"><ele>246.0</ele><time>2026-05-01T07:25:16.001Z</time></trkpt><trkpt lat="44.964693597234145" lon="7.573007047758171"><ele>246.0</ele><time>2026-05-01T07:25:17.001Z</time></trkpt><trkpt lat="44.96455818223352" lon="7.573224331238447"><ele>246.33333333333331</ele><time>2026-05-01T07:25:18.001Z</time></trkpt><trkpt lat="44.964425567193544" lon="7.573438059669636"><ele>246.66666666666666</ele><time>2026-05-01T07:25:19.001Z</time></trkpt><trkpt lat="44.96429506984962" lon="7.573646254888892"><ele>247.0</ele><time>2026-05-01T07:25:20.001Z</time></trkpt><trkpt lat="44.96416756523162" lon="7.573851116792641"><ele>247.0</ele><time>2026-05-01T07:25:21.001Z</time></trkpt><trkpt lat="44.96404286684826" lon="7.574051477253951"><ele>247.0</ele><time>2026-05-01T07:25:22.001Z</time></trkpt><trkpt lat="44.963921796736805" lon="7.5742444232743615"><ele>247.0</ele><time>2026-05-01T07:25:23.001Z</time></trkpt><trkpt lat="44.96380693394807" lon="7.574429427379326"><ele>247.0</ele><time>2026-05-01T07:25:24.001Z</time></trkpt><trkpt lat="44.963693593420366" lon="7.574608329335987"><ele>247.0</ele><time>2026-05-01T07:25:25.001Z</time></trkpt><trkpt lat="44.96358350402472" lon="7.574783794422945"><ele>247.0</ele><time>2026-05-01T07:25:26.001Z</time></trkpt><trkpt lat="44.963478960911694" lon="7.574953054671319"><ele>247.0</ele><time>2026-05-01T07:25:27.001Z</time></trkpt><trkpt lat="44.963378366148994" lon="7.575113855491703"><ele>247.0</ele><time>2026-05-01T07:25:28.001Z</time></trkpt><trkpt lat="44.963283254117904" lon="7.575268043698202"><ele>247.0</ele><time>2026-05-01T07:25:29.001Z</time></trkpt><trkpt lat="44.963194347242656" lon="7.575408170872085"><ele>247.0</ele><time>2026-05-01T07:25:30.001Z</time></trkpt><trkpt lat="44.96311023166438" lon="7.575538863720132"><ele>246.25</ele><time>2026-05-01T07:25:31.001Z</time></trkpt><trkpt lat="44.96303303702604" lon="7.57566337226771"><ele>245.5</ele><time>2026-05-01T07:25:32.001Z</time></trkpt><trkpt lat="44.96296001042338" lon="7.575782409428506"><ele>244.75</ele><time>2026-05-01T07:25:33.001Z</time></trkpt><trkpt lat="44.96288830074704" lon="7.575902442323115"><ele>244.0</ele><time>2026-05-01T07:25:34.001Z</time></trkpt><trkpt lat="44.96281666685359" lon="7.576024019957268"><ele>243.99999999999997</ele><time>2026-05-01T07:25:35.001Z</time></trkpt><trkpt lat="44.962744955895616" lon="7.5761442242121655"><ele>244.0</ele><time>2026-05-01T07:25:36.001Z</time></trkpt><trkpt lat="44.96268343324103" lon="7.576238691376146"><ele>244.0</ele><time>2026-05-01T07:25:37.001Z</time></trkpt><trkpt lat="44.962629190451196" lon="7.576297909366707"><ele>244.0</ele><time>2026-05-01T07:25:38.001Z</time></trkpt><trkpt lat="44.96256011943669" lon="7.576337589582842"><ele>243.99999999999997</ele><time>2026-05-01T07:25:39.001Z</time></trkpt><trkpt lat="44.962513023801364" lon="7.576409976058993"><ele>244.0</ele><time>2026-05-01T07:25:40.001Z</time></trkpt><trkpt lat="44.96236763368969" lon="7.576363781233581"><ele>243.6</ele><time>2026-05-01T07:25:41.001Z</time></trkpt><trkpt lat="44.96225434369194" lon="7.576371906023917"><ele>243.2</ele><time>2026-05-01T07:25:42.001Z</time></trkpt><trkpt lat="44.96214618707515" lon="7.576402896020171"><ele>242.79999999999998</ele><time>2026-05-01T07:25:43.001Z</time></trkpt><trkpt lat="44.9620498295132" lon="7.576474164299135"><ele>242.39999999999998</ele><time>2026-05-01T07:25:44.001Z</time></trkpt><trkpt lat="44.96196548293389" lon="7.576571447470471"><ele>242.0</ele><time>2026-05-01T07:25:45.001Z</time></trkpt><trkpt lat="44.96189314025293" lon="7.576674760644681"><ele>242.0</ele><time>2026-05-01T07:25:46.001Z</time></trkpt><trkpt lat="44.96185228070784" lon="7.576778042853393"><ele>242.0</ele><time>2026-05-01T07:25:47.001Z</time></trkpt><trkpt lat="44.96183795113026" lon="7.576873796228638"><ele>242.0</ele><time>2026-05-01T07:25:48.001Z</time></trkpt><trkpt lat="44.96165770493379" lon="7.576842393886335"><ele>242.0</ele><time>2026-05-01T07:25:49.001Z</time></trkpt><trkpt lat="44.96155266360645" lon="7.576834103603296"><ele>242.0</ele><time>2026-05-01T07:25:50.001Z</time></trkpt><trkpt lat="44.96144847184644" lon="7.57681429276017"><ele>242.0</ele><time>2026-05-01T07:25:51.001Z</time></trkpt><trkpt lat="44.961352768715265" lon="7.576800188561404"><ele>242.0</ele><time>2026-05-01T07:25:52.001Z</time></trkpt><trkpt lat="44.96123987712888" lon="7.57679671739563"><ele>242.0</ele><time>2026-05-01T07:25:53.001Z</time></trkpt><trkpt lat="44.96110344410562" lon="7.576801513507623"><ele>242.0</ele><time>2026-05-01T07:25:54.001Z</time></trkpt><trkpt lat="44.96096159041831" lon="7.576864971854742"><ele>242.0</ele><time>2026-05-01T07:25:55.001Z</time></trkpt><trkpt lat="44.96083583565847" lon="7.576952503266319"><ele>242.0</ele><time>2026-05-01T07:25:56Z</time></trkpt><trkpt lat="44.96072491074445" lon="7.577058618983935"><ele>242.0</ele><time>2026-05-01T07:25:57Z</time></trkpt><trkpt lat="44.96060520039755" lon="7.577192222339081"><ele>242.0</ele><time>2026-05-01T07:25:58Z</time></trkpt><trkpt lat="44.960485349287545" lon="7.577375902206226"><ele>242.0</ele><time>2026-05-01T07:25:59Z</time></trkpt><trkpt lat="44.960354383686365" lon="7.577616109944714"><ele>242.0</ele><time>2026-05-01T07:26:00Z</time></trkpt><trkpt lat="44.96023283465156" lon="7.5778866761889025"><ele>242.0</ele><time>2026-05-01T07:26:01Z</time></trkpt><trkpt lat="44.96012492201275" lon="7.5781718259348905"><ele>242.0</ele><time>2026-05-01T07:26:02Z</time></trkpt><trkpt lat="44.959999934091414" lon="7.578426161533825"><ele>242.0</ele><time>2026-05-01T07:26:03Z</time></trkpt><trkpt lat="44.9598690026074" lon="7.578708844374898"><ele>242.0</ele><time>2026-05-01T07:26:04Z</time></trkpt><trkpt lat="44.95974081554357" lon="7.579008436813918"><ele>242.0</ele><time>2026-05-01T07:26:05Z</time></trkpt><trkpt lat="44.9596159369228" lon="7.579296731035308"><ele>241.0</ele><time>2026-05-01T07:26:06Z</time></trkpt><trkpt lat="44.95949710949186" lon="7.579581697484292"><ele>240.0</ele><time>2026-05-01T07:26:07Z</time></trkpt><trkpt lat="44.95937564365971" lon="7.579855368068609"><ele>240.0</ele><time>2026-05-01T07:26:08Z</time></trkpt><trkpt lat="44.95925379825345" lon="7.580109510449505"><ele>240.0</ele><time>2026-05-01T07:26:09Z</time></trkpt><trkpt lat="44.959128349443105" lon="7.5803500065192955"><ele>240.0</ele><time>2026-05-01T07:26:10Z</time></trkpt><trkpt lat="44.95899186183545" lon="7.580582426246469"><ele>240.66666666666669</ele><time>2026-05-01T07:26:11Z</time></trkpt><trkpt lat="44.958831932387234" lon="7.580783029388735"><ele>241.33333333333334</ele><time>2026-05-01T07:26:12Z</time></trkpt><trkpt lat="44.9586718272355" lon="7.580986950867636"><ele>242.0</ele><time>2026-05-01T07:26:13Z</time></trkpt><trkpt lat="44.958503207332114" lon="7.581180024431897"><ele>241.33333333333334</ele><time>2026-05-01T07:26:14Z</time></trkpt><trkpt lat="44.958324341102376" lon="7.581358341455807"><ele>240.66666666666669</ele><time>2026-05-01T07:26:15Z</time></trkpt><trkpt lat="44.95813702345124" lon="7.581520561964021"><ele>240.0</ele><time>2026-05-01T07:26:16Z</time></trkpt><trkpt lat="44.95794113780678" lon="7.581665836011248"><ele>240.0</ele><time>2026-05-01T07:26:17Z</time></trkpt><trkpt lat="44.95773941214722" lon="7.581796696928837"><ele>240.0</ele><time>2026-05-01T07:26:18Z</time></trkpt><trkpt lat="44.9575313813031" lon="7.581916190955773"><ele>240.0</ele><time>2026-05-01T07:26:19Z</time></trkpt><trkpt lat="44.95733033943849" lon="7.582049478324309"><ele>240.0</ele><time>2026-05-01T07:26:20Z</time></trkpt><trkpt lat="44.95712416533292" lon="7.582159204598457"><ele>240.0</ele><time>2026-05-01T07:26:21Z</time></trkpt><trkpt lat="44.95692300909982" lon="7.582266247082075"><ele>240.0</ele><time>2026-05-01T07:26:22Z</time></trkpt><trkpt lat="44.95672623427149" lon="7.582370899667006"><ele>240.0</ele><time>2026-05-01T07:26:23Z</time></trkpt><trkpt lat="44.95654115608981" lon="7.582472518434878"><ele>240.0</ele><time>2026-05-01T07:26:24Z</time></trkpt><trkpt lat="44.95636715031709" lon="7.582574290989909"><ele>240.0</ele><time>2026-05-01T07:26:25Z</time></trkpt><trkpt lat="44.956196059690946" lon="7.5826614358400155"><ele>240.0</ele><time>2026-05-01T07:26:26Z</time></trkpt><trkpt lat="44.956030292718175" lon="7.582749179715339"><ele>240.0</ele><time>2026-05-01T07:26:27Z</time></trkpt><trkpt lat="44.95587534587696" lon="7.582831873841541"><ele>240.0</ele><time>2026-05-01T07:26:28Z</time></trkpt><trkpt lat="44.955735236423536" lon="7.582907685845084"><ele>240.0</ele><time>2026-05-01T07:26:29Z</time></trkpt><trkpt lat="44.955601006317444" lon="7.582982537971903"><ele>240.0</ele><time>2026-05-01T07:26:30Z</time></trkpt><trkpt lat="44.95547336862694" lon="7.58306177955051"><ele>240.0</ele><time>2026-05-01T07:26:31Z</time></trkpt><trkpt lat="44.955348288962796" lon="7.583149135838781"><ele>240.0</ele><time>2026-05-01T07:26:32Z</time></trkpt><trkpt lat="44.95522547352499" lon="7.5832489146374105"><ele>240.0</ele><time>2026-05-01T07:26:33Z</time></trkpt><trkpt lat="44.95511276485809" lon="7.5833624948945175"><ele>240.0</ele><time>2026-05-01T07:26:34Z</time></trkpt><trkpt lat="44.95500935499382" lon="7.5834863923328335"><ele>240.0</ele><time>2026-05-01T07:26:35Z</time></trkpt><trkpt lat="44.95491760518158" lon="7.58360365642508"><ele>240.0</ele><time>2026-05-01T07:26:36Z</time></trkpt><trkpt lat="44.95482395599512" lon="7.583714325698519"><ele>239.4</ele><time>2026-05-01T07:26:37Z</time></trkpt><trkpt lat="44.95473592536414" lon="7.583812655913726"><ele>238.8</ele><time>2026-05-01T07:26:38Z</time></trkpt><trkpt lat="44.95465734455478" lon="7.5838993510717625"><ele>238.2</ele><time>2026-05-01T07:26:39Z</time></trkpt><trkpt lat="44.95458519610252" lon="7.583976250920966"><ele>237.6</ele><time>2026-05-01T07:26:40Z</time></trkpt><trkpt lat="44.95451405979502" lon="7.58404848029001"><ele>237.0</ele><time>2026-05-01T07:26:41Z</time></trkpt><trkpt lat="44.95444077819042" lon="7.584103236721405"><ele>237.0</ele><time>2026-05-01T07:26:42Z</time></trkpt><trkpt lat="44.95436173034202" lon="7.584138492791944"><ele>237.0</ele><time>2026-05-01T07:26:43Z</time></trkpt><trkpt lat="44.95428325329361" lon="7.584149322364418"><ele>237.0</ele><time>2026-05-01T07:26:44Z</time></trkpt><trkpt lat="44.9542039516625" lon="7.584139419713913"><ele>237.0</ele><time>2026-05-01T07:26:45Z</time></trkpt><trkpt lat="44.95411795492929" lon="7.584168322667404"><ele>237.0</ele><time>2026-05-01T07:26:46Z</time></trkpt><trkpt lat="44.95402679068784" lon="7.5842764037695085"><ele>237.0</ele><time>2026-05-01T07:26:47Z</time></trkpt><trkpt lat="44.953979124341664" lon="7.5844404573430495"><ele>237.75</ele><time>2026-05-01T07:26:48Z</time></trkpt><trkpt lat="44.95393404240345" lon="7.584611025245661"><ele>238.5</ele><time>2026-05-01T07:26:49Z</time></trkpt><trkpt lat="44.953883996322624" lon="7.584793536240747"><ele>239.25</ele><time>2026-05-01T07:26:50Z</time></trkpt><trkpt lat="44.953826252135556" lon="7.58497349921382"><ele>240.0</ele><time>2026-05-01T07:26:51Z</time></trkpt><trkpt lat="44.953687724356904" lon="7.585092535813714"><ele>240.0</ele><time>2026-05-01T07:26:52Z</time></trkpt><trkpt lat="44.95357492883019" lon="7.585234419963522"><ele>240.0</ele><time>2026-05-01T07:26:53Z</time></trkpt><trkpt lat="44.953468222749756" lon="7.585385916384514"><ele>240.0</ele><time>2026-05-01T07:26:54Z</time></trkpt><trkpt lat="44.95336294104731" lon="7.585546515850471"><ele>239.33333333333331</ele><time>2026-05-01T07:26:55Z</time></trkpt><trkpt lat="44.95325244971566" lon="7.585711485721303"><ele>238.66666666666666</ele><time>2026-05-01T07:26:56Z</time></trkpt><trkpt lat="44.95314187118056" lon="7.585887649489218"><ele>238.0</ele><time>2026-05-01T07:26:57Z</time></trkpt><trkpt lat="44.95303607418931" lon="7.586082977336788"><ele>239.0</ele><time>2026-05-01T07:26:58Z</time></trkpt><trkpt lat="44.952943580286224" lon="7.586287299322924"><ele>240.0</ele><time>2026-05-01T07:26:59Z</time></trkpt><trkpt lat="44.9528719952047" lon="7.586506246138427"><ele>241.0</ele><time>2026-05-01T07:27:00Z</time></trkpt><trkpt lat="44.95281750884229" lon="7.58674004591431"><ele>241.0</ele><time>2026-05-01T07:27:01Z</time></trkpt><trkpt lat="44.952783907561155" lon="7.586986787398908"><ele>241.0</ele><time>2026-05-01T07:27:02Z</time></trkpt><trkpt lat="44.95276306980987" lon="7.587234639674301"><ele>241.0</ele><time>2026-05-01T07:27:03Z</time></trkpt><trkpt lat="44.95275880900628" lon="7.587482699714576"><ele>240.66666666666666</ele><time>2026-05-01T07:27:04Z</time></trkpt><trkpt lat="44.95277609881924" lon="7.587737430611678"><ele>240.33333333333331</ele><time>2026-05-01T07:27:05Z</time></trkpt><trkpt lat="44.952820851973655" lon="7.587999778278345"><ele>240.0</ele><time>2026-05-01T07:27:06Z</time></trkpt><trkpt lat="44.95288181800281" lon="7.58826420342593"><ele>239.66666666666669</ele><time>2026-05-01T07:27:07Z</time></trkpt><trkpt lat="44.95295545050401" lon="7.588521215880195"><ele>239.33333333333334</ele><time>2026-05-01T07:27:08Z</time></trkpt><trkpt lat="44.953029116499934" lon="7.588779474478149"><ele>239.0</ele><time>2026-05-01T07:27:09Z</time></trkpt><trkpt lat="44.95309894642574" lon="7.589036371203308"><ele>239.0</ele><time>2026-05-01T07:27:10Z</time></trkpt><trkpt lat="44.953165960372814" lon="7.589293320680854"><ele>239.0</ele><time>2026-05-01T07:27:11Z</time></trkpt><trkpt lat="44.95323634928154" lon="7.589547439400534"><ele>239.0</ele><time>2026-05-01T07:27:12Z</time></trkpt><trkpt lat="44.95331206302351" lon="7.589794843202134"><ele>239.66666666666669</ele><time>2026-05-01T07:27:13Z</time></trkpt><trkpt lat="44.95340070266646" lon="7.590036754267906"><ele>240.33333333333331</ele><time>2026-05-01T07:27:14Z</time></trkpt><trkpt lat="44.953496493620406" lon="7.590275453112007"><ele>241.0</ele><time>2026-05-01T07:27:15Z</time></trkpt><trkpt lat="44.95360783226943" lon="7.590498453429227"><ele>241.0</ele><time>2026-05-01T07:27:16Z</time></trkpt><trkpt lat="44.95372827262792" lon="7.590713667663151"><ele>241.0</ele><time>2026-05-01T07:27:17Z</time></trkpt><trkpt lat="44.95385076966641" lon="7.590932944121697"><ele>241.0</ele><time>2026-05-01T07:27:18Z</time></trkpt><trkpt lat="44.95397251564105" lon="7.5911491391905415"><ele>240.33333333333331</ele><time>2026-05-01T07:27:19Z</time></trkpt><trkpt lat="44.954097141025194" lon="7.59136791476107"><ele>239.66666666666669</ele><time>2026-05-01T07:27:20.001Z</time></trkpt><trkpt lat="44.95421741388104" lon="7.591586733017649"><ele>239.0</ele><time>2026-05-01T07:27:21.001Z</time></trkpt><trkpt lat="44.95433493855944" lon="7.591799976536594"><ele>239.0</ele><time>2026-05-01T07:27:22.001Z</time></trkpt><trkpt lat="44.954454844644275" lon="7.59201486793257"><ele>239.0</ele><time>2026-05-01T07:27:23.001Z</time></trkpt><trkpt lat="44.95457085825978" lon="7.5922261368790585"><ele>239.0</ele><time>2026-05-01T07:27:24.001Z</time></trkpt><trkpt lat="44.95468383605612" lon="7.592443947654487"><ele>239.0</ele><time>2026-05-01T07:27:25.001Z</time></trkpt><trkpt lat="44.954781653268924" lon="7.592664976900403"><ele>239.0</ele><time>2026-05-01T07:27:26.001Z</time></trkpt><trkpt lat="44.95483706728058" lon="7.592912742750645"><ele>239.0</ele><time>2026-05-01T07:27:27.001Z</time></trkpt><trkpt lat="44.95487830620171" lon="7.593157342805694"><ele>239.66666666666669</ele><time>2026-05-01T07:27:28.001Z</time></trkpt><trkpt lat="44.95490250213049" lon="7.59341170076363"><ele>240.33333333333331</ele><time>2026-05-01T07:27:29.001Z</time></trkpt><trkpt lat="44.954902827259325" lon="7.593673087830422"><ele>241.0</ele><time>2026-05-01T07:27:30.001Z</time></trkpt><trkpt lat="44.95487361195897" lon="7.593928380158711"><ele>239.66666666666666</ele><time>2026-05-01T07:27:31.001Z</time></trkpt><trkpt lat="44.95482591650954" lon="7.5941802237181015"><ele>238.33333333333331</ele><time>2026-05-01T07:27:32.001Z</time></trkpt><trkpt lat="44.95476793685451" lon="7.594410872671917"><ele>237.0</ele><time>2026-05-01T07:27:33.001Z</time></trkpt><trkpt lat="44.954717450857025" lon="7.594642513915617"><ele>236.66666666666669</ele><time>2026-05-01T07:27:34.001Z</time></trkpt><trkpt lat="44.95465689212311" lon="7.594873577546486"><ele>236.33333333333334</ele><time>2026-05-01T07:27:35.001Z</time></trkpt><trkpt lat="44.954603008391125" lon="7.595108468430502"><ele>236.0</ele><time>2026-05-01T07:27:36.001Z</time></trkpt><trkpt lat="44.95454777881778" lon="7.595337647368508"><ele>235.66666666666669</ele><time>2026-05-01T07:27:37.001Z</time></trkpt><trkpt lat="44.954488551781694" lon="7.595561201407833"><ele>235.33333333333331</ele><time>2026-05-01T07:27:38.001Z</time></trkpt><trkpt lat="44.95442226369968" lon="7.595773765467956"><ele>235.0</ele><time>2026-05-01T07:27:39.001Z</time></trkpt><trkpt lat="44.954351417093974" lon="7.595963328444851"><ele>235.0</ele><time>2026-05-01T07:27:40.001Z</time></trkpt><trkpt lat="44.95427546323445" lon="7.596138960441602"><ele>235.0</ele><time>2026-05-01T07:27:41.001Z</time></trkpt><trkpt lat="44.95419770606532" lon="7.596297657472714"><ele>235.0</ele><time>2026-05-01T07:27:42.001Z</time></trkpt><trkpt lat="44.95412344658929" lon="7.596441781891534"><ele>235.0</ele><time>2026-05-01T07:27:43.001Z</time></trkpt><trkpt lat="44.954045180794225" lon="7.596587755564418"><ele>235.6</ele><time>2026-05-01T07:27:44.001Z</time></trkpt><trkpt lat="44.95396373383472" lon="7.5967062330773105"><ele>236.2</ele><time>2026-05-01T07:27:45.001Z</time></trkpt><trkpt lat="44.95387059773413" lon="7.5967956365521765"><ele>236.8</ele><time>2026-05-01T07:27:46.001Z</time></trkpt><trkpt lat="44.95376921865542" lon="7.596860263883745"><ele>237.4</ele><time>2026-05-01T07:27:47.001Z</time></trkpt><trkpt lat="44.9537013311044" lon="7.596966989057724"><ele>238.0</ele><time>2026-05-01T07:27:48.001Z</time></trkpt><trkpt lat="44.953661535500835" lon="7.597105385201549"><ele>238.0</ele><time>2026-05-01T07:27:49.001Z</time></trkpt><trkpt lat="44.95372562736992" lon="7.5972902617065365"><ele>238.0</ele><time>2026-05-01T07:27:50Z</time></trkpt><trkpt lat="44.95376878052263" lon="7.597460719378013"><ele>238.0</ele><time>2026-05-01T07:27:51Z</time></trkpt><trkpt lat="44.95378044213518" lon="7.59765338764902"><ele>238.0</ele><time>2026-05-01T07:27:52Z</time></trkpt><trkpt lat="44.9537497914901" lon="7.597854641613748"><ele>237.33333333333331</ele><time>2026-05-01T07:27:53Z</time></trkpt><trkpt lat="44.9536936326492" lon="7.598055563038584"><ele>236.66666666666669</ele><time>2026-05-01T07:27:54Z</time></trkpt><trkpt lat="44.95360341374706" lon="7.5982282549169655"><ele>236.0</ele><time>2026-05-01T07:27:55Z</time></trkpt><trkpt lat="44.953510527613126" lon="7.598400609299438"><ele>236.0</ele><time>2026-05-01T07:27:56Z</time></trkpt><trkpt lat="44.953400214103276" lon="7.598548941904121"><ele>236.0</ele><time>2026-05-01T07:27:57Z</time></trkpt><trkpt lat="44.95327035257978" lon="7.59867738190714"><ele>236.0</ele><time>2026-05-01T07:27:58Z</time></trkpt><trkpt lat="44.95312474443026" lon="7.59877590348494"><ele>238.0</ele><time>2026-05-01T07:27:59Z</time></trkpt><trkpt lat="44.95296604610998" lon="7.598855902117738"><ele>240.0</ele><time>2026-05-01T07:28:00Z</time></trkpt><trkpt lat="44.95278807972653" lon="7.598883101228194"><ele>242.0</ele><time>2026-05-01T07:28:01Z</time></trkpt><trkpt lat="44.952617000359304" lon="7.598894145024239"><ele>241.66666666666669</ele><time>2026-05-01T07:28:02Z</time></trkpt><trkpt lat="44.952454299184055" lon="7.598880598732447"><ele>241.33333333333331</ele><time>2026-05-01T07:28:03Z</time></trkpt><trkpt lat="44.952284924809426" lon="7.598870283561459"><ele>241.0</ele><time>2026-05-01T07:28:04Z</time></trkpt><trkpt lat="44.952109301133305" lon="7.59890251992541"><ele>241.0</ele><time>2026-05-01T07:28:05Z</time></trkpt><trkpt lat="44.9519281430364" lon="7.59897574561383"><ele>241.0</ele><time>2026-05-01T07:28:06Z</time></trkpt><trkpt lat="44.95174464735001" lon="7.599083052407596"><ele>241.0</ele><time>2026-05-01T07:28:07Z</time></trkpt><trkpt lat="44.951559921807146" lon="7.599208088435949"><ele>240.33333333333331</ele><time>2026-05-01T07:28:08Z</time></trkpt><trkpt lat="44.95137171109596" lon="7.599342203374744"><ele>239.66666666666669</ele><time>2026-05-01T07:28:09Z</time></trkpt><trkpt lat="44.951181962965244" lon="7.599473649129181"><ele>239.0</ele><time>2026-05-01T07:28:10Z</time></trkpt><trkpt lat="44.950988093105664" lon="7.599598398561006"><ele>237.66666666666669</ele><time>2026-05-01T07:28:11Z</time></trkpt><trkpt lat="44.950807427537974" lon="7.599722259902991"><ele>236.33333333333331</ele><time>2026-05-01T07:28:12Z</time></trkpt><trkpt lat="44.950614723595805" lon="7.599843758320239"><ele>235.0</ele><time>2026-05-01T07:28:13Z</time></trkpt><trkpt lat="44.9504232109935" lon="7.599968205146709"><ele>235.0</ele><time>2026-05-01T07:28:14Z</time></trkpt><trkpt lat="44.95023624923002" lon="7.600093499362235"><ele>235.0</ele><time>2026-05-01T07:28:15Z</time></trkpt><trkpt lat="44.95004348582624" lon="7.600218145519298"><ele>235.0</ele><time>2026-05-01T07:28:16Z</time></trkpt><trkpt lat="44.94985286990364" lon="7.600344681592514"><ele>235.33333333333331</ele><time>2026-05-01T07:28:17Z</time></trkpt><trkpt lat="44.94966295244814" lon="7.600471779155212"><ele>235.66666666666669</ele><time>2026-05-01T07:28:18Z</time></trkpt><trkpt lat="44.94946899627723" lon="7.600602133859079"><ele>236.0</ele><time>2026-05-01T07:28:19Z</time></trkpt><trkpt lat="44.949274695849596" lon="7.6007328917913135"><ele>236.0</ele><time>2026-05-01T07:28:20Z</time></trkpt><trkpt lat="44.949079134376966" lon="7.600865502971242"><ele>236.0</ele><time>2026-05-01T07:28:21Z</time></trkpt><trkpt lat="44.948882581743476" lon="7.60099771262216"><ele>236.0</ele><time>2026-05-01T07:28:22Z</time></trkpt><trkpt lat="44.948683659026386" lon="7.6011259603677335"><ele>236.0</ele><time>2026-05-01T07:28:23Z</time></trkpt><trkpt lat="44.94848399429149" lon="7.6012534982501645"><ele>236.0</ele><time>2026-05-01T07:28:24Z</time></trkpt><trkpt lat="44.948286704639465" lon="7.60138270491374"><ele>236.0</ele><time>2026-05-01T07:28:25Z</time></trkpt><trkpt lat="44.948090432705875" lon="7.601512974657073"><ele>236.0</ele><time>2026-05-01T07:28:26Z</time></trkpt><trkpt lat="44.94789413441282" lon="7.601644779674033"><ele>236.0</ele><time>2026-05-01T07:28:27Z</time></trkpt><trkpt lat="44.94769844298072" lon="7.6017776655038904"><ele>236.0</ele><time>2026-05-01T07:28:28Z</time></trkpt><trkpt lat="44.9475010038448" lon="7.601909548561917"><ele>235.33333333333334</ele><time>2026-05-01T07:28:29Z</time></trkpt><trkpt lat="44.94730261049135" lon="7.602040104063375"><ele>234.66666666666669</ele><time>2026-05-01T07:28:30Z</time></trkpt><trkpt lat="44.947102379876206" lon="7.60217205408615"><ele>234.0</ele><time>2026-05-01T07:28:31Z</time></trkpt><trkpt lat="44.94690269878104" lon="7.602305433853753"><ele>234.0</ele><time>2026-05-01T07:28:32Z</time></trkpt><trkpt lat="44.94670313340826" lon="7.6024356593379405"><ele>234.0</ele><time>2026-05-01T07:28:33Z</time></trkpt><trkpt lat="44.94650461076956" lon="7.602564840161233"><ele>234.0</ele><time>2026-05-01T07:28:34Z</time></trkpt><trkpt lat="44.946307904795155" lon="7.602696650506888"><ele>234.0</ele><time>2026-05-01T07:28:35Z</time></trkpt><trkpt lat="44.94611113252427" lon="7.602830764035596"><ele>234.0</ele><time>2026-05-01T07:28:36Z</time></trkpt><trkpt lat="44.94591513759172" lon="7.602963987401243"><ele>234.0</ele><time>2026-05-01T07:28:37Z</time></trkpt><trkpt lat="44.94571957679205" lon="7.603093316680524"><ele>234.33333333333331</ele><time>2026-05-01T07:28:38Z</time></trkpt><trkpt lat="44.94552853018848" lon="7.603219120268088"><ele>234.66666666666666</ele><time>2026-05-01T07:28:39Z</time></trkpt><trkpt lat="44.94534000065638" lon="7.603340702664551"><ele>235.0</ele><time>2026-05-01T07:28:40Z</time></trkpt><trkpt lat="44.94514007209942" lon="7.60346401737171"><ele>235.0</ele><time>2026-05-01T07:28:41Z</time></trkpt><trkpt lat="44.94494216284883" lon="7.603573392682993"><ele>235.0</ele><time>2026-05-01T07:28:42Z</time></trkpt><trkpt lat="44.944762439925334" lon="7.603687336761719"><ele>235.0</ele><time>2026-05-01T07:28:43Z</time></trkpt><trkpt lat="44.94456239670102" lon="7.603799799665808"><ele>235.0</ele><time>2026-05-01T07:28:44Z</time></trkpt><trkpt lat="44.944474377667326" lon="7.60391942255204"><ele>235.0</ele><time>2026-05-01T07:28:45Z</time></trkpt><trkpt lat="44.94430534947196" lon="7.60403390052409"><ele>235.0</ele><time>2026-05-01T07:28:46Z</time></trkpt><trkpt lat="44.94413569080945" lon="7.6041440743828215"><ele>234.66666666666666</ele><time>2026-05-01T07:28:47Z</time></trkpt><trkpt lat="44.94396716380759" lon="7.604255264570525"><ele>234.33333333333331</ele><time>2026-05-01T07:28:48Z</time></trkpt><trkpt lat="44.943797778983935" lon="7.6043691728757175"><ele>234.0</ele><time>2026-05-01T07:28:49Z</time></trkpt><trkpt lat="44.94362834583996" lon="7.6044842669399"><ele>233.66666666666669</ele><time>2026-05-01T07:28:50Z</time></trkpt><trkpt lat="44.94345336250277" lon="7.604596197308817"><ele>233.33333333333334</ele><time>2026-05-01T07:28:51Z</time></trkpt><trkpt lat="44.94327848008355" lon="7.604705746699511"><ele>233.0</ele><time>2026-05-01T07:28:52Z</time></trkpt><trkpt lat="44.943101527973134" lon="7.604817090158469"><ele>234.0</ele><time>2026-05-01T07:28:53Z</time></trkpt><trkpt lat="44.9429167591734" lon="7.604924092635064"><ele>235.0</ele><time>2026-05-01T07:28:54Z</time></trkpt><trkpt lat="44.94273456667206" lon="7.605021425604026"><ele>236.0</ele><time>2026-05-01T07:28:55Z</time></trkpt><trkpt lat="44.942552561124586" lon="7.605111569611149"><ele>234.66666666666669</ele><time>2026-05-01T07:28:56Z</time></trkpt><trkpt lat="44.9423680872522" lon="7.605206170534937"><ele>233.33333333333331</ele><time>2026-05-01T07:28:57Z</time></trkpt><trkpt lat="44.94219019506419" lon="7.605289995004298"><ele>232.0</ele><time>2026-05-01T07:28:58Z</time></trkpt><trkpt lat="44.942010165803964" lon="7.605377629330811"><ele>232.0</ele><time>2026-05-01T07:28:59Z</time></trkpt><trkpt lat="44.94182458246968" lon="7.605449498646046"><ele>232.0</ele><time>2026-05-01T07:29:00Z</time></trkpt><trkpt lat="44.94163410850333" lon="7.605521833027522"><ele>232.0</ele><time>2026-05-01T07:29:01Z</time></trkpt><trkpt lat="44.94144186041967" lon="7.605597241247094"><ele>231.66666666666666</ele><time>2026-05-01T07:29:02Z</time></trkpt><trkpt lat="44.941255349356936" lon="7.605677435250692"><ele>231.33333333333331</ele><time>2026-05-01T07:29:03Z</time></trkpt><trkpt lat="44.94107772668337" lon="7.605754131826269"><ele>231.0</ele><time>2026-05-01T07:29:04Z</time></trkpt><trkpt lat="44.940896046082386" lon="7.605830921212332"><ele>231.33333333333331</ele><time>2026-05-01T07:29:05Z</time></trkpt><trkpt lat="44.940713484757076" lon="7.605906016429629"><ele>231.66666666666666</ele><time>2026-05-01T07:29:06Z</time></trkpt><trkpt lat="44.940525508313044" lon="7.6059740525575315"><ele>232.0</ele><time>2026-05-01T07:29:07Z</time></trkpt><trkpt lat="44.94034506145984" lon="7.606050596237255"><ele>232.0</ele><time>2026-05-01T07:29:08Z</time></trkpt><trkpt lat="44.94016593223699" lon="7.606133440335462"><ele>232.0</ele><time>2026-05-01T07:29:09Z</time></trkpt><trkpt lat="44.9399877857793" lon="7.606232410310618"><ele>232.0</ele><time>2026-05-01T07:29:10Z</time></trkpt><trkpt lat="44.939807227635306" lon="7.606366360221352"><ele>232.33333333333331</ele><time>2026-05-01T07:29:11Z</time></trkpt><trkpt lat="44.93964177863861" lon="7.606525328821923"><ele>232.66666666666669</ele><time>2026-05-01T07:29:12Z</time></trkpt><trkpt lat="44.939474562338916" lon="7.6067013734799716"><ele>233.0</ele><time>2026-05-01T07:29:12.999Z</time></trkpt><trkpt lat="44.939316403955964" lon="7.606882094076853"><ele>232.66666666666669</ele><time>2026-05-01T07:29:13.999Z</time></trkpt><trkpt lat="44.939167862948" lon="7.6070771571379465"><ele>232.33333333333331</ele><time>2026-05-01T07:29:14.999Z</time></trkpt><trkpt lat="44.93902324174704" lon="7.607290009494228"><ele>232.0</ele><time>2026-05-01T07:29:15.999Z</time></trkpt><trkpt lat="44.93890017180318" lon="7.607495287326916"><ele>232.0</ele><time>2026-05-01T07:29:16.999Z</time></trkpt><trkpt lat="44.93878445768357" lon="7.607691554892792"><ele>232.0</ele><time>2026-05-01T07:29:17.999Z</time></trkpt><trkpt lat="44.9386655477906" lon="7.60787605175755"><ele>232.0</ele><time>2026-05-01T07:29:18.999Z</time></trkpt><trkpt lat="44.9385447791626" lon="7.608057272352654"><ele>232.0</ele><time>2026-05-01T07:29:19.999Z</time></trkpt><trkpt lat="44.93842918009589" lon="7.608233254603916"><ele>232.0</ele><time>2026-05-01T07:29:20.999Z</time></trkpt><trkpt lat="44.93832035849252" lon="7.60841168057172"><ele>232.0</ele><time>2026-05-01T07:29:21.999Z</time></trkpt><trkpt lat="44.93820952650975" lon="7.6085954700166125"><ele>232.0</ele><time>2026-05-01T07:29:22.999Z</time></trkpt><trkpt lat="44.93809373435148" lon="7.608778451280131"><ele>232.0</ele><time>2026-05-01T07:29:23.999Z</time></trkpt><trkpt lat="44.937970197932486" lon="7.608960303367871"><ele>232.0</ele><time>2026-05-01T07:29:24.999Z</time></trkpt><trkpt lat="44.93784269886401" lon="7.609141204852058"><ele>232.0</ele><time>2026-05-01T07:29:26.001Z</time></trkpt><trkpt lat="44.93771918381265" lon="7.609326559323768"><ele>232.0</ele><time>2026-05-01T07:29:27.001Z</time></trkpt><trkpt lat="44.93759467643024" lon="7.609516002234287"><ele>232.0</ele><time>2026-05-01T07:29:28.001Z</time></trkpt><trkpt lat="44.93746952373144" lon="7.609707655974518"><ele>232.33333333333331</ele><time>2026-05-01T07:29:29.001Z</time></trkpt><trkpt lat="44.937341776228365" lon="7.60990194045548"><ele>232.66666666666669</ele><time>2026-05-01T07:29:30.001Z</time></trkpt><trkpt lat="44.937211643237546" lon="7.610097224795409"><ele>233.0</ele><time>2026-05-01T07:29:31.001Z</time></trkpt><trkpt lat="44.93708264973166" lon="7.610290857804307"><ele>233.33333333333334</ele><time>2026-05-01T07:29:32.001Z</time></trkpt><trkpt lat="44.936956952358244" lon="7.610485416580352"><ele>233.66666666666669</ele><time>2026-05-01T07:29:33.001Z</time></trkpt><trkpt lat="44.93683263658872" lon="7.6106807216844725"><ele>234.0</ele><time>2026-05-01T07:29:34.001Z</time></trkpt><trkpt lat="44.936708581455946" lon="7.6108757709049"><ele>234.0</ele><time>2026-05-01T07:29:35.001Z</time></trkpt><trkpt lat="44.936587564786926" lon="7.611067641393008"><ele>234.0</ele><time>2026-05-01T07:29:36.001Z</time></trkpt><trkpt lat="44.93646616831876" lon="7.6112580573328525"><ele>234.0</ele><time>2026-05-01T07:29:37.001Z</time></trkpt><trkpt lat="44.93634919818331" lon="7.611436313614346"><ele>234.66666666666669</ele><time>2026-05-01T07:29:38.001Z</time></trkpt><trkpt lat="44.936236278999885" lon="7.611610914362536"><ele>235.33333333333334</ele><time>2026-05-01T07:29:39.001Z</time></trkpt><trkpt lat="44.9361260971765" lon="7.611779912877933"><ele>236.0</ele><time>2026-05-01T07:29:40.001Z</time></trkpt><trkpt lat="44.93601777729488" lon="7.611944212092784"><ele>236.0</ele><time>2026-05-01T07:29:41.001Z</time></trkpt><trkpt lat="44.93592031510698" lon="7.612093435406927"><ele>236.0</ele><time>2026-05-01T07:29:42.001Z</time></trkpt><trkpt lat="44.93583225478061" lon="7.612221651968653"><ele>236.0</ele><time>2026-05-01T07:29:43.001Z</time></trkpt><trkpt lat="44.9357562841081" lon="7.61232816722598"><ele>236.0</ele><time>2026-05-01T07:29:44.001Z</time></trkpt><trkpt lat="44.93567676528781" lon="7.612427401425452"><ele>235.8</ele><time>2026-05-01T07:29:45.001Z</time></trkpt><trkpt lat="44.935589974745994" lon="7.612510045477917"><ele>235.60000000000002</ele><time>2026-05-01T07:29:46.001Z</time></trkpt><trkpt lat="44.93551708850653" lon="7.612615970509407"><ele>235.4</ele><time>2026-05-01T07:29:47.001Z</time></trkpt><trkpt lat="44.93546342305024" lon="7.612760122471106"><ele>235.2</ele><time>2026-05-01T07:29:48.001Z</time></trkpt><trkpt lat="44.93540293235824" lon="7.6129048628820755"><ele>235.0</ele><time>2026-05-01T07:29:49Z</time></trkpt><trkpt lat="44.93532592939355" lon="7.613039751193954"><ele>235.0</ele><time>2026-05-01T07:29:50Z</time></trkpt><trkpt lat="44.93523582724703" lon="7.61317072233795"><ele>235.0</ele><time>2026-05-01T07:29:51Z</time></trkpt><trkpt lat="44.93514178360633" lon="7.613306545659568"><ele>235.0</ele><time>2026-05-01T07:29:52Z</time></trkpt><trkpt lat="44.935047881006405" lon="7.613449743320482"><ele>235.0</ele><time>2026-05-01T07:29:53Z</time></trkpt><trkpt lat="44.93495144057635" lon="7.613597556254378"><ele>235.5</ele><time>2026-05-01T07:29:54Z</time></trkpt><trkpt lat="44.934852515015756" lon="7.613746967268094"><ele>236.0</ele><time>2026-05-01T07:29:55Z</time></trkpt><trkpt lat="44.934753397806546" lon="7.613897633890976"><ele>236.5</ele><time>2026-05-01T07:29:56Z</time></trkpt><trkpt lat="44.93465366419616" lon="7.6140527365761255"><ele>237.0</ele><time>2026-05-01T07:29:57Z</time></trkpt><trkpt lat="44.93455342579859" lon="7.614208479693496"><ele>237.0</ele><time>2026-05-01T07:29:58Z</time></trkpt><trkpt lat="44.93445002272399" lon="7.614368475147559"><ele>237.0</ele><time>2026-05-01T07:29:59Z</time></trkpt><trkpt lat="44.93434425205982" lon="7.6145347308344835"><ele>237.0</ele><time>2026-05-01T07:30:00Z</time></trkpt><trkpt lat="44.934237819393886" lon="7.614702772902692"><ele>236.25</ele><time>2026-05-01T07:30:01Z</time></trkpt><trkpt lat="44.93413205763881" lon="7.614866519925096"><ele>235.5</ele><time>2026-05-01T07:30:02Z</time></trkpt><trkpt lat="44.93403080546476" lon="7.615018731340964"><ele>234.75</ele><time>2026-05-01T07:30:03Z</time></trkpt><trkpt lat="44.93393438152786" lon="7.615163807634689"><ele>234.0</ele><time>2026-05-01T07:30:04Z</time></trkpt><trkpt lat="44.9338391517891" lon="7.615308458030323"><ele>233.75</ele><time>2026-05-01T07:30:05Z</time></trkpt><trkpt lat="44.93374547231847" lon="7.615453404155732"><ele>233.5</ele><time>2026-05-01T07:30:06Z</time></trkpt><trkpt lat="44.933655963576214" lon="7.615591214911854"><ele>233.25</ele><time>2026-05-01T07:30:07Z</time></trkpt><trkpt lat="44.933571648372045" lon="7.615721066734187"><ele>233.0</ele><time>2026-05-01T07:30:08Z</time></trkpt><trkpt lat="44.93350022053728" lon="7.61583169238208"><ele>233.00000000000003</ele><time>2026-05-01T07:30:09Z</time></trkpt><trkpt lat="44.93343992905074" lon="7.615920822316525"><ele>233.0</ele><time>2026-05-01T07:30:10Z</time></trkpt><trkpt lat="44.9333925646765" lon="7.615988171869063"><ele>233.0</ele><time>2026-05-01T07:30:11Z</time></trkpt><trkpt lat="44.933323249174855" lon="7.616083038120571"><ele>233.0</ele><time>2026-05-01T07:30:13Z</time></trkpt><trkpt lat="44.93326371159948" lon="7.616155113767865"><ele>233.00000000000003</ele><time>2026-05-01T07:30:16Z</time></trkpt><trkpt lat="44.93320064107812" lon="7.616202843503204"><ele>233.0</ele><time>2026-05-01T07:30:22Z</time></trkpt><trkpt lat="44.933100386547345" lon="7.616246359669345"><ele>233.60000000000002</ele><time>2026-05-01T07:30:24Z</time></trkpt><trkpt lat="44.93298367278114" lon="7.616293951120484"><ele>234.20000000000002</ele><time>2026-05-01T07:30:26Z</time></trkpt><trkpt lat="44.932968084665056" lon="7.616431898738124"><ele>234.8</ele><time>2026-05-01T07:30:27Z</time></trkpt><trkpt lat="44.93294172264807" lon="7.616571421128339"><ele>235.4</ele><time>2026-05-01T07:30:28Z</time></trkpt><trkpt lat="44.932899930524144" lon="7.616705357246943"><ele>236.0</ele><time>2026-05-01T07:30:29Z</time></trkpt><trkpt lat="44.93283412665765" lon="7.616870104239386"><ele>235.33333333333334</ele><time>2026-05-01T07:30:30Z</time></trkpt><trkpt lat="44.93271023619741" lon="7.617022550911163"><ele>234.66666666666669</ele><time>2026-05-01T07:30:31Z</time></trkpt><trkpt lat="44.93257762420909" lon="7.6172287616330845"><ele>234.0</ele><time>2026-05-01T07:30:32Z</time></trkpt><trkpt lat="44.93243272108199" lon="7.6174529065980785"><ele>234.0</ele><time>2026-05-01T07:30:33Z</time></trkpt><trkpt lat="44.932279679349776" lon="7.617689640850872"><ele>234.0</ele><time>2026-05-01T07:30:34Z</time></trkpt><trkpt lat="44.93210073091008" lon="7.617965535764396"><ele>233.5</ele><time>2026-05-01T07:30:35Z</time></trkpt><trkpt lat="44.93190696515601" lon="7.618264110408493"><ele>233.0</ele><time>2026-05-01T07:30:36Z</time></trkpt><trkpt lat="44.93170981310257" lon="7.61856790302292"><ele>233.0</ele><time>2026-05-01T07:30:37Z</time></trkpt><trkpt lat="44.931536606790814" lon="7.618860360338817"><ele>233.0</ele><time>2026-05-01T07:30:38Z</time></trkpt><trkpt lat="44.93136323171537" lon="7.6191099394188955"><ele>233.0</ele><time>2026-05-01T07:30:39Z</time></trkpt><trkpt lat="44.93120604368673" lon="7.61935731721713"><ele>233.0</ele><time>2026-05-01T07:30:40Z</time></trkpt><trkpt lat="44.93105995729138" lon="7.619594581405743"><ele>233.0</ele><time>2026-05-01T07:30:41Z</time></trkpt><trkpt lat="44.93091325789305" lon="7.619827853002598"><ele>233.0</ele><time>2026-05-01T07:30:42Z</time></trkpt><trkpt lat="44.93077259530576" lon="7.620050331573753"><ele>233.0</ele><time>2026-05-01T07:30:43Z</time></trkpt><trkpt lat="44.930637312203636" lon="7.620263063395963"><ele>233.66666666666669</ele><time>2026-05-01T07:30:44Z</time></trkpt><trkpt lat="44.930513800221995" lon="7.620460010618248"><ele>234.33333333333331</ele><time>2026-05-01T07:30:45Z</time></trkpt><trkpt lat="44.93039411321298" lon="7.620652435235326"><ele>235.0</ele><time>2026-05-01T07:30:46Z</time></trkpt><trkpt lat="44.93028190593618" lon="7.6208335244401075"><ele>235.0</ele><time>2026-05-01T07:30:47Z</time></trkpt><trkpt lat="44.930174539228744" lon="7.621001929098412"><ele>235.0</ele><time>2026-05-01T07:30:48Z</time></trkpt><trkpt lat="44.930078303144" lon="7.6211452364139785"><ele>235.0</ele><time>2026-05-01T07:30:49Z</time></trkpt><trkpt lat="44.929994491554694" lon="7.621260086650839"><ele>235.0</ele><time>2026-05-01T07:30:50Z</time></trkpt><trkpt lat="44.929919269650135" lon="7.621344837414374"><ele>235.25</ele><time>2026-05-01T07:30:51Z</time></trkpt><trkpt lat="44.929833085274026" lon="7.621368933195448"><ele>235.5</ele><time>2026-05-01T07:30:52Z</time></trkpt><trkpt lat="44.929755554653234" lon="7.621445190051053"><ele>235.75</ele><time>2026-05-01T07:30:53Z</time></trkpt><trkpt lat="44.92970631667595" lon="7.621614571131466"><ele>236.0</ele><time>2026-05-01T07:30:54Z</time></trkpt><trkpt lat="44.9296350496756" lon="7.6217966945008415"><ele>236.33333333333334</ele><time>2026-05-01T07:30:55Z</time></trkpt><trkpt lat="44.92954160822192" lon="7.621982912751705"><ele>236.66666666666669</ele><time>2026-05-01T07:30:56Z</time></trkpt><trkpt lat="44.92941083922208" lon="7.622175381674891"><ele>237.0</ele><time>2026-05-01T07:30:57Z</time></trkpt><trkpt lat="44.92927060772826" lon="7.622376689826047"><ele>237.33333333333331</ele><time>2026-05-01T07:30:58Z</time></trkpt><trkpt lat="44.929121780835736" lon="7.622601700438922"><ele>237.66666666666666</ele><time>2026-05-01T07:30:59Z</time></trkpt><trkpt lat="44.92896943865615" lon="7.622839549716797"><ele>238.0</ele><time>2026-05-01T07:31:00Z</time></trkpt><trkpt lat="44.92881541955278" lon="7.6230787245421086"><ele>236.0</ele><time>2026-05-01T07:31:01Z</time></trkpt><trkpt lat="44.92866030495005" lon="7.623319800478722"><ele>234.0</ele><time>2026-05-01T07:31:02Z</time></trkpt><trkpt lat="44.92850302024359" lon="7.62356125247122"><ele>234.5</ele><time>2026-05-01T07:31:03Z</time></trkpt><trkpt lat="44.9283426238774" lon="7.623809902322642"><ele>235.0</ele><time>2026-05-01T07:31:04Z</time></trkpt><trkpt lat="44.92818121439564" lon="7.624057672124726"><ele>235.0</ele><time>2026-05-01T07:31:05Z</time></trkpt><trkpt lat="44.928025300886915" lon="7.624300372262608"><ele>235.0</ele><time>2026-05-01T07:31:06Z</time></trkpt><trkpt lat="44.92787449334671" lon="7.624534250838634"><ele>235.33333333333331</ele><time>2026-05-01T07:31:07Z</time></trkpt><trkpt lat="44.92772561259881" lon="7.624766315908207"><ele>235.66666666666669</ele><time>2026-05-01T07:31:08Z</time></trkpt><trkpt lat="44.92757630496102" lon="7.624998412623134"><ele>236.0</ele><time>2026-05-01T07:31:09Z</time></trkpt><trkpt lat="44.92742708434808" lon="7.625228943756334"><ele>236.0</ele><time>2026-05-01T07:31:10Z</time></trkpt><trkpt lat="44.927279675994384" lon="7.625456326171341"><ele>236.0</ele><time>2026-05-01T07:31:11Z</time></trkpt><trkpt lat="44.927133912014774" lon="7.625680357924121"><ele>236.0</ele><time>2026-05-01T07:31:11.999Z</time></trkpt><trkpt lat="44.92699008590881" lon="7.6259034732943904"><ele>236.0</ele><time>2026-05-01T07:31:12.999Z</time></trkpt><trkpt lat="44.92684519271961" lon="7.62612835685965"><ele>236.0</ele><time>2026-05-01T07:31:13.999Z</time></trkpt><trkpt lat="44.926699369781744" lon="7.626354929060215"><ele>236.0</ele><time>2026-05-01T07:31:14.999Z</time></trkpt><trkpt lat="44.92655083424387" lon="7.626586007400158"><ele>236.0</ele><time>2026-05-01T07:31:15.999Z</time></trkpt><trkpt lat="44.92639538275315" lon="7.62681800800353"><ele>236.0</ele><time>2026-05-01T07:31:16.999Z</time></trkpt><trkpt lat="44.92624530713254" lon="7.62705183330162"><ele>236.0</ele><time>2026-05-01T07:31:17.999Z</time></trkpt><trkpt lat="44.926093567406156" lon="7.627279480411122"><ele>236.0</ele><time>2026-05-01T07:31:18.999Z</time></trkpt><trkpt lat="44.925942135133546" lon="7.627508285954166"><ele>236.0</ele><time>2026-05-01T07:31:19.999Z</time></trkpt><trkpt lat="44.92578986685944" lon="7.62773763354801"><ele>236.0</ele><time>2026-05-01T07:31:20.999Z</time></trkpt><trkpt lat="44.92563845040203" lon="7.627967823906162"><ele>236.0</ele><time>2026-05-01T07:31:21.999Z</time></trkpt><trkpt lat="44.925488018382275" lon="7.628195246626472"><ele>236.0</ele><time>2026-05-01T07:31:22.999Z</time></trkpt><trkpt lat="44.92533882760943" lon="7.62842187668255"><ele>236.0</ele><time>2026-05-01T07:31:23.999Z</time></trkpt><trkpt lat="44.925192433034226" lon="7.628648884657389"><ele>236.0</ele><time>2026-05-01T07:31:24.999Z</time></trkpt><trkpt lat="44.92504606718869" lon="7.628878840799799"><ele>236.0</ele><time>2026-05-01T07:31:25.999Z</time></trkpt><trkpt lat="44.924900778287515" lon="7.6291058777706455"><ele>236.0</ele><time>2026-05-01T07:31:26.999Z</time></trkpt><trkpt lat="44.92475992742647" lon="7.629332314420386"><ele>236.0</ele><time>2026-05-01T07:31:27.999Z</time></trkpt><trkpt lat="44.92461878665586" lon="7.629555467914667"><ele>236.0</ele><time>2026-05-01T07:31:28.999Z</time></trkpt><trkpt lat="44.92447189074555" lon="7.629784216968507"><ele>236.0</ele><time>2026-05-01T07:31:29.999Z</time></trkpt><trkpt lat="44.924322689438874" lon="7.630012465060771"><ele>236.0</ele><time>2026-05-01T07:31:31.001Z</time></trkpt><trkpt lat="44.92417410535058" lon="7.630242334087888"><ele>236.0</ele><time>2026-05-01T07:31:32.001Z</time></trkpt><trkpt lat="44.9240235070142" lon="7.630474852463966"><ele>236.0</ele><time>2026-05-01T07:31:33.001Z</time></trkpt><trkpt lat="44.923874617255926" lon="7.6307054762911495"><ele>236.0</ele><time>2026-05-01T07:31:34.001Z</time></trkpt><trkpt lat="44.92372319702399" lon="7.630935326217293"><ele>236.0</ele><time>2026-05-01T07:31:35.001Z</time></trkpt><trkpt lat="44.923569073381536" lon="7.631161125697285"><ele>236.0</ele><time>2026-05-01T07:31:36.001Z</time></trkpt><trkpt lat="44.92341233002488" lon="7.631387100392565"><ele>236.0</ele><time>2026-05-01T07:31:37.001Z</time></trkpt><trkpt lat="44.92325423453104" lon="7.631612988868948"><ele>236.0</ele><time>2026-05-01T07:31:38Z</time></trkpt><trkpt lat="44.923098475407336" lon="7.631836938698234"><ele>236.0</ele><time>2026-05-01T07:31:39Z</time></trkpt><trkpt lat="44.922941997306076" lon="7.6320602525731704"><ele>236.0</ele><time>2026-05-01T07:31:40Z</time></trkpt><trkpt lat="44.92278588745411" lon="7.6322839954727755"><ele>236.0</ele><time>2026-05-01T07:31:41Z</time></trkpt><trkpt lat="44.922629886306794" lon="7.632503922334125"><ele>235.66666666666669</ele><time>2026-05-01T07:31:42Z</time></trkpt><trkpt lat="44.92247462489259" lon="7.63271940460068"><ele>235.33333333333331</ele><time>2026-05-01T07:31:43Z</time></trkpt><trkpt lat="44.922320075542814" lon="7.632932710229035"><ele>235.0</ele><time>2026-05-01T07:31:44Z</time></trkpt><trkpt lat="44.922164557985276" lon="7.633146327086563"><ele>235.0</ele><time>2026-05-01T07:31:45Z</time></trkpt><trkpt lat="44.92200529242396" lon="7.63336080435529"><ele>235.0</ele><time>2026-05-01T07:31:46Z</time></trkpt><trkpt lat="44.92184160806085" lon="7.633578069543259"><ele>235.0</ele><time>2026-05-01T07:31:47Z</time></trkpt><trkpt lat="44.921676993448045" lon="7.633798214275627"><ele>235.33333333333331</ele><time>2026-05-01T07:31:48Z</time></trkpt><trkpt lat="44.92151386391747" lon="7.634015211253735"><ele>235.66666666666669</ele><time>2026-05-01T07:31:49Z</time></trkpt><trkpt lat="44.92135125481159" lon="7.634229660468712"><ele>236.0</ele><time>2026-05-01T07:31:50Z</time></trkpt><trkpt lat="44.92119063304216" lon="7.634439573072889"><ele>236.33333333333334</ele><time>2026-05-01T07:31:51Z</time></trkpt><trkpt lat="44.921031712854095" lon="7.634646005940925"><ele>236.66666666666669</ele><time>2026-05-01T07:31:52Z</time></trkpt><trkpt lat="44.92087508566227" lon="7.634847978613111"><ele>237.0</ele><time>2026-05-01T07:31:53Z</time></trkpt><trkpt lat="44.920719200033794" lon="7.635049381176581"><ele>237.0</ele><time>2026-05-01T07:31:54Z</time></trkpt><trkpt lat="44.92056911803945" lon="7.63524735984641"><ele>237.0</ele><time>2026-05-01T07:31:55Z</time></trkpt><trkpt lat="44.92041776774961" lon="7.63544420907571"><ele>237.0</ele><time>2026-05-01T07:31:56Z</time></trkpt><trkpt lat="44.92027046399933" lon="7.635647473365523"><ele>236.33333333333331</ele><time>2026-05-01T07:31:57Z</time></trkpt><trkpt lat="44.92012081773327" lon="7.63585441355448"><ele>235.66666666666666</ele><time>2026-05-01T07:31:58Z</time></trkpt><trkpt lat="44.91997042863963" lon="7.636061007186117"><ele>235.0</ele><time>2026-05-01T07:31:59Z</time></trkpt><trkpt lat="44.91982252819665" lon="7.6362689079690895"><ele>234.66666666666666</ele><time>2026-05-01T07:32:00Z</time></trkpt><trkpt lat="44.91964289379158" lon="7.636401338765654"><ele>234.33333333333331</ele><time>2026-05-01T07:32:01Z</time></trkpt><trkpt lat="44.91950391234604" lon="7.636587734390975"><ele>234.0</ele><time>2026-05-01T07:32:02Z</time></trkpt><trkpt lat="44.919380287552094" lon="7.63678673930423"><ele>234.0</ele><time>2026-05-01T07:32:03Z</time></trkpt><trkpt lat="44.919266730797375" lon="7.636983868256983"><ele>234.0</ele><time>2026-05-01T07:32:04Z</time></trkpt><trkpt lat="44.91899727444411" lon="7.637180126632146"><ele>234.0</ele><time>2026-05-01T07:32:05Z</time></trkpt><trkpt lat="44.91882462023001" lon="7.637389342999357"><ele>234.0</ele><time>2026-05-01T07:32:06Z</time></trkpt><trkpt lat="44.918646108887835" lon="7.637596572145777"><ele>233.5</ele><time>2026-05-01T07:32:07Z</time></trkpt><trkpt lat="44.91846074351167" lon="7.63780406937764"><ele>233.0</ele><time>2026-05-01T07:32:08Z</time></trkpt><trkpt lat="44.918269562939095" lon="7.638014477924266"><ele>233.0</ele><time>2026-05-01T07:32:09Z</time></trkpt><trkpt lat="44.91807803343318" lon="7.638223264775481"><ele>233.0</ele><time>2026-05-01T07:32:10Z</time></trkpt><trkpt lat="44.91788854139536" lon="7.638429876650934"><ele>233.0</ele><time>2026-05-01T07:32:11Z</time></trkpt><trkpt lat="44.91770489203473" lon="7.638622654009906"><ele>233.0</ele><time>2026-05-01T07:32:12Z</time></trkpt><trkpt lat="44.91753309532257" lon="7.638806802513"><ele>233.0</ele><time>2026-05-01T07:32:13Z</time></trkpt><trkpt lat="44.91737083969508" lon="7.638988356011271"><ele>233.0</ele><time>2026-05-01T07:32:14Z</time></trkpt><trkpt lat="44.91721483394535" lon="7.639152925947729"><ele>233.0</ele><time>2026-05-01T07:32:15Z</time></trkpt><trkpt lat="44.917067685276685" lon="7.639311925437268"><ele>233.0</ele><time>2026-05-01T07:32:16Z</time></trkpt><trkpt lat="44.91692259674784" lon="7.639471724429297"><ele>233.0</ele><time>2026-05-01T07:32:17Z</time></trkpt><trkpt lat="44.916780635393934" lon="7.6396287263917015"><ele>233.0</ele><time>2026-05-01T07:32:18Z</time></trkpt><trkpt lat="44.91664981772327" lon="7.639787876389667"><ele>233.0</ele><time>2026-05-01T07:32:19Z</time></trkpt><trkpt lat="44.916527346413076" lon="7.639944762176587"><ele>233.0</ele><time>2026-05-01T07:32:20Z</time></trkpt><trkpt lat="44.91641563145433" lon="7.640094251881179"><ele>233.0</ele><time>2026-05-01T07:32:21Z</time></trkpt><trkpt lat="44.91631409079396" lon="7.640231841699105"><ele>233.0</ele><time>2026-05-01T07:32:22Z</time></trkpt><trkpt lat="44.91622766628555" lon="7.640352911029227"><ele>233.0</ele><time>2026-05-01T07:32:23Z</time></trkpt><trkpt lat="44.91614595063528" lon="7.640461941209418"><ele>233.16666666666669</ele><time>2026-05-01T07:32:24Z</time></trkpt><trkpt lat="44.916070430920556" lon="7.640538091900437"><ele>233.33333333333334</ele><time>2026-05-01T07:32:25Z</time></trkpt><trkpt lat="44.91598564999178" lon="7.640595899767024"><ele>233.5</ele><time>2026-05-01T07:32:26Z</time></trkpt><trkpt lat="44.91590325863894" lon="7.640662274872169"><ele>233.66666666666669</ele><time>2026-05-01T07:32:27Z</time></trkpt><trkpt lat="44.91583323017968" lon="7.640722845420954"><ele>233.83333333333334</ele><time>2026-05-01T07:32:28Z</time></trkpt><trkpt lat="44.915756382418856" lon="7.640744704034027"><ele>234.0</ele><time>2026-05-01T07:32:29Z</time></trkpt><trkpt lat="44.915671088826706" lon="7.640766662755651"><ele>234.0</ele><time>2026-05-01T07:32:30Z</time></trkpt><trkpt lat="44.915579293511435" lon="7.640808347387724"><ele>234.0</ele><time>2026-05-01T07:32:31Z</time></trkpt><trkpt lat="44.91548472655988" lon="7.6408909292468765"><ele>234.0</ele><time>2026-05-01T07:32:32Z</time></trkpt><trkpt lat="44.91537978508125" lon="7.641017486104123"><ele>234.0</ele><time>2026-05-01T07:32:33Z</time></trkpt><trkpt lat="44.91525099981155" lon="7.641157939974718"><ele>234.0</ele><time>2026-05-01T07:32:34Z</time></trkpt><trkpt lat="44.9151067625175" lon="7.641295753425554"><ele>234.0</ele><time>2026-05-01T07:32:35Z</time></trkpt><trkpt lat="44.91494748276074" lon="7.641440928940332"><ele>234.0</ele><time>2026-05-01T07:32:36Z</time></trkpt><trkpt lat="44.91477502382815" lon="7.641593401347586"><ele>234.0</ele><time>2026-05-01T07:32:37Z</time></trkpt><trkpt lat="44.914597803046064" lon="7.641754436855706"><ele>234.0</ele><time>2026-05-01T07:32:38Z</time></trkpt><trkpt lat="44.91441418680982" lon="7.641923528464407"><ele>234.0</ele><time>2026-05-01T07:32:39Z</time></trkpt><trkpt lat="44.91421843616205" lon="7.642105340509446"><ele>234.5</ele><time>2026-05-01T07:32:40Z</time></trkpt><trkpt lat="44.9140184197078" lon="7.642292420735347"><ele>235.0</ele><time>2026-05-01T07:32:41Z</time></trkpt><trkpt lat="44.91381523780856" lon="7.642480645314179"><ele>235.0</ele><time>2026-05-01T07:32:42Z</time></trkpt><trkpt lat="44.91361077221556" lon="7.642666642049276"><ele>235.0</ele><time>2026-05-01T07:32:43Z</time></trkpt><trkpt lat="44.9134078702091" lon="7.642848778290579"><ele>234.5</ele><time>2026-05-01T07:32:44Z</time></trkpt><trkpt lat="44.913206964668525" lon="7.643030877367918"><ele>234.0</ele><time>2026-05-01T07:32:45Z</time></trkpt><trkpt lat="44.91300722565821" lon="7.643213100247468"><ele>234.0</ele><time>2026-05-01T07:32:46Z</time></trkpt><trkpt lat="44.91280936920403" lon="7.643395557925137"><ele>234.0</ele><time>2026-05-01T07:32:47Z</time></trkpt><trkpt lat="44.91260919977866" lon="7.643580920991903"><ele>233.0</ele><time>2026-05-01T07:32:48Z</time></trkpt><trkpt lat="44.91241055618043" lon="7.643764360876408"><ele>232.0</ele><time>2026-05-01T07:32:49Z</time></trkpt><trkpt lat="44.91221034049707" lon="7.643948559398633"><ele>232.0</ele><time>2026-05-01T07:32:50Z</time></trkpt><trkpt lat="44.91200923832096" lon="7.644132491476519"><ele>232.0</ele><time>2026-05-01T07:32:51Z</time></trkpt><trkpt lat="44.91180615093567" lon="7.64431810112672"><ele>234.5</ele><time>2026-05-01T07:32:52Z</time></trkpt><trkpt lat="44.911603494884375" lon="7.644506212121826"><ele>237.0</ele><time>2026-05-01T07:32:53Z</time></trkpt><trkpt lat="44.911403258452744" lon="7.644693566262642"><ele>237.0</ele><time>2026-05-01T07:32:54Z</time></trkpt><trkpt lat="44.91120015807141" lon="7.644880172335736"><ele>237.0</ele><time>2026-05-01T07:32:55Z</time></trkpt><trkpt lat="44.91099531891922" lon="7.645065086855536"><ele>236.0</ele><time>2026-05-01T07:32:56Z</time></trkpt><trkpt lat="44.910791360704756" lon="7.64525117770407"><ele>235.0</ele><time>2026-05-01T07:32:57Z</time></trkpt><trkpt lat="44.910589210356676" lon="7.645437018359217"><ele>234.0</ele><time>2026-05-01T07:32:58Z</time></trkpt><trkpt lat="44.91039005281098" lon="7.645620307100476"><ele>233.0</ele><time>2026-05-01T07:32:59Z</time></trkpt><trkpt lat="44.91019157989767" lon="7.64580694559004"><ele>233.33333333333334</ele><time>2026-05-01T07:33:00Z</time></trkpt><trkpt lat="44.90999855557971" lon="7.645987048578237"><ele>233.66666666666669</ele><time>2026-05-01T07:33:01Z</time></trkpt><trkpt lat="44.90981649305047" lon="7.646156159727808"><ele>234.0</ele><time>2026-05-01T07:33:02Z</time></trkpt><trkpt lat="44.90964133054476" lon="7.646319034803185"><ele>234.0</ele><time>2026-05-01T07:33:03Z</time></trkpt><trkpt lat="44.90947048557503" lon="7.646479082855475"><ele>234.0</ele><time>2026-05-01T07:33:04Z</time></trkpt><trkpt lat="44.90930668519191" lon="7.646630143347966"><ele>234.0</ele><time>2026-05-01T07:33:05Z</time></trkpt><trkpt lat="44.90914540710897" lon="7.6467771523352"><ele>235.0</ele><time>2026-05-01T07:33:06Z</time></trkpt><trkpt lat="44.90898891287839" lon="7.646921671039057"><ele>236.0</ele><time>2026-05-01T07:33:07Z</time></trkpt><trkpt lat="44.908833933027864" lon="7.647062968176591"><ele>237.0</ele><time>2026-05-01T07:33:08Z</time></trkpt><trkpt lat="44.908682010555786" lon="7.647202878190542"><ele>237.0</ele><time>2026-05-01T07:33:09Z</time></trkpt><trkpt lat="44.90853484227018" lon="7.647341195249315"><ele>237.0</ele><time>2026-05-01T07:33:09.999Z</time></trkpt><trkpt lat="44.90838998991109" lon="7.6474773619192575"><ele>237.0</ele><time>2026-05-01T07:33:10.999Z</time></trkpt><trkpt lat="44.908248250960284" lon="7.647609434605732"><ele>237.0</ele><time>2026-05-01T07:33:11.999Z</time></trkpt><trkpt lat="44.90811026280496" lon="7.647737620114078"><ele>237.0</ele><time>2026-05-01T07:33:12.999Z</time></trkpt><trkpt lat="44.90797548797149" lon="7.647860944826785"><ele>237.0</ele><time>2026-05-01T07:33:13.999Z</time></trkpt><trkpt lat="44.90784448646419" lon="7.647976343404129"><ele>237.0</ele><time>2026-05-01T07:33:14.999Z</time></trkpt><trkpt lat="44.90772048815773" lon="7.648064396475204"><ele>237.0</ele><time>2026-05-01T07:33:15.999Z</time></trkpt><trkpt lat="44.9076043673476" lon="7.648121075900658"><ele>237.0</ele><time>2026-05-01T07:33:16.999Z</time></trkpt><trkpt lat="44.90750641775687" lon="7.648154492596943"><ele>237.0</ele><time>2026-05-01T07:33:17.999Z</time></trkpt><trkpt lat="44.907426325999026" lon="7.648206459696239"><ele>237.0</ele><time>2026-05-01T07:33:18.999Z</time></trkpt><trkpt lat="44.90736524014715" lon="7.648308570593384"><ele>237.0</ele><time>2026-05-01T07:33:19.999Z</time></trkpt><trkpt lat="44.90730756611828" lon="7.6484434117427815"><ele>237.0</ele><time>2026-05-01T07:33:20.999Z</time></trkpt><trkpt lat="44.90720894638294" lon="7.648581203991896"><ele>237.0</ele><time>2026-05-01T07:33:21.999Z</time></trkpt><trkpt lat="44.90705691874527" lon="7.648689932897153"><ele>237.0</ele><time>2026-05-01T07:33:22.999Z</time></trkpt><trkpt lat="44.906887766095025" lon="7.648846114092065"><ele>237.0</ele><time>2026-05-01T07:33:23.999Z</time></trkpt><trkpt lat="44.90670749414099" lon="7.649012623207769"><ele>237.0</ele><time>2026-05-01T07:33:24.999Z</time></trkpt><trkpt lat="44.90651559447173" lon="7.649189805667362"><ele>236.5</ele><time>2026-05-01T07:33:25.999Z</time></trkpt><trkpt lat="44.90631891087536" lon="7.649389643733876"><ele>236.0</ele><time>2026-05-01T07:33:26.999Z</time></trkpt><trkpt lat="44.90610372769432" lon="7.649585213904204"><ele>236.5</ele><time>2026-05-01T07:33:27.999Z</time></trkpt><trkpt lat="44.905884616122144" lon="7.649791362991493"><ele>237.0</ele><time>2026-05-01T07:33:28.999Z</time></trkpt><trkpt lat="44.90565581409275" lon="7.649982152174323"><ele>237.0</ele><time>2026-05-01T07:33:29.999Z</time></trkpt><trkpt lat="44.905428234864516" lon="7.650191316166896"><ele>237.0</ele><time>2026-05-01T07:33:30.999Z</time></trkpt><trkpt lat="44.90520352077071" lon="7.650397846875321"><ele>237.0</ele><time>2026-05-01T07:33:31.999Z</time></trkpt><trkpt lat="44.90498012505359" lon="7.650603165886958"><ele>237.0</ele><time>2026-05-01T07:33:32.999Z</time></trkpt><trkpt lat="44.90476894200678" lon="7.650823317893343"><ele>237.0</ele><time>2026-05-01T07:33:33.999Z</time></trkpt><trkpt lat="44.904547981277375" lon="7.651012699002027"><ele>237.0</ele><time>2026-05-01T07:33:34.999Z</time></trkpt><trkpt lat="44.90433085785806" lon="7.651208789734972"><ele>237.0</ele><time>2026-05-01T07:33:36Z</time></trkpt><trkpt lat="44.90411923337047" lon="7.651405859526015"><ele>237.0</ele><time>2026-05-01T07:33:37Z</time></trkpt><trkpt lat="44.90390747262537" lon="7.651601698062809"><ele>237.0</ele><time>2026-05-01T07:33:38Z</time></trkpt><trkpt lat="44.90369831626932" lon="7.651794517771665"><ele>237.0</ele><time>2026-05-01T07:33:39Z</time></trkpt><trkpt lat="44.90349019437119" lon="7.651985084254519"><ele>236.0</ele><time>2026-05-01T07:33:40Z</time></trkpt><trkpt lat="44.90328201291227" lon="7.652173806098899"><ele>235.0</ele><time>2026-05-01T07:33:41Z</time></trkpt><trkpt lat="44.903072261486734" lon="7.6523651961385335"><ele>235.0</ele><time>2026-05-01T07:33:42Z</time></trkpt><trkpt lat="44.902861291013295" lon="7.652560095821423"><ele>235.0</ele><time>2026-05-01T07:33:43Z</time></trkpt><trkpt lat="44.90264887602105" lon="7.652755208717416"><ele>234.5</ele><time>2026-05-01T07:33:44Z</time></trkpt><trkpt lat="44.9024345997002" lon="7.652950802101394"><ele>234.0</ele><time>2026-05-01T07:33:45Z</time></trkpt><trkpt lat="44.902219246178824" lon="7.653148718997946"><ele>234.0</ele><time>2026-05-01T07:33:46Z</time></trkpt><trkpt lat="44.90200419019086" lon="7.653346201797924"><ele>234.0</ele><time>2026-05-01T07:33:47Z</time></trkpt><trkpt lat="44.90178997492551" lon="7.653544370296743"><ele>237.0</ele><time>2026-05-01T07:33:48Z</time></trkpt><trkpt lat="44.90157420625903" lon="7.653743635264971"><ele>240.0</ele><time>2026-05-01T07:33:49Z</time></trkpt><trkpt lat="44.90135734008911" lon="7.653942416752537"><ele>240.0</ele><time>2026-05-01T07:33:50Z</time></trkpt><trkpt lat="44.90114142067025" lon="7.654140306362446"><ele>240.0</ele><time>2026-05-01T07:33:51Z</time></trkpt><trkpt lat="44.900924582476904" lon="7.6543386293157125"><ele>239.0</ele><time>2026-05-01T07:33:52Z</time></trkpt><trkpt lat="44.90070781053404" lon="7.654537533107035"><ele>238.0</ele><time>2026-05-01T07:33:53Z</time></trkpt><trkpt lat="44.90049048016028" lon="7.654737418585615"><ele>238.0</ele><time>2026-05-01T07:33:54Z</time></trkpt><trkpt lat="44.90027355036401" lon="7.654937104895754"><ele>238.0</ele><time>2026-05-01T07:33:55Z</time></trkpt><trkpt lat="44.90005721315612" lon="7.655136885626886"><ele>236.0</ele><time>2026-05-01T07:33:56Z</time></trkpt><trkpt lat="44.89984080447184" lon="7.65533593686311"><ele>234.0</ele><time>2026-05-01T07:33:57Z</time></trkpt><trkpt lat="44.89962418636879" lon="7.655529720287409"><ele>234.0</ele><time>2026-05-01T07:33:58Z</time></trkpt><trkpt lat="44.89940865588273" lon="7.655724844349821"><ele>234.0</ele><time>2026-05-01T07:33:59Z</time></trkpt><trkpt lat="44.89919785126245" lon="7.655924070704618"><ele>233.5</ele><time>2026-05-01T07:34:00Z</time></trkpt><trkpt lat="44.89899019502453" lon="7.656125429374457"><ele>233.0</ele><time>2026-05-01T07:34:01Z</time></trkpt><trkpt lat="44.8987820784185" lon="7.6563261888127085"><ele>233.0</ele><time>2026-05-01T07:34:02Z</time></trkpt><trkpt lat="44.89856677053029" lon="7.656501030125849"><ele>233.0</ele><time>2026-05-01T07:34:03Z</time></trkpt><trkpt lat="44.89835908629359" lon="7.6566906934932595"><ele>234.5</ele><time>2026-05-01T07:34:04Z</time></trkpt><trkpt lat="44.89816195935496" lon="7.656896596512424"><ele>236.0</ele><time>2026-05-01T07:34:05Z</time></trkpt><trkpt lat="44.89795820995469" lon="7.657084890711788"><ele>236.5</ele><time>2026-05-01T07:34:06Z</time></trkpt><trkpt lat="44.897759672174196" lon="7.657271828632071"><ele>237.0</ele><time>2026-05-01T07:34:07Z</time></trkpt><trkpt lat="44.897574177409616" lon="7.657454266179408"><ele>237.0</ele><time>2026-05-01T07:34:08Z</time></trkpt><trkpt lat="44.897396264736734" lon="7.6576374987702645"><ele>237.0</ele><time>2026-05-01T07:34:09Z</time></trkpt><trkpt lat="44.89722672918968" lon="7.657820958824853"><ele>237.0</ele><time>2026-05-01T07:34:10Z</time></trkpt><trkpt lat="44.897064803757054" lon="7.6580015570643045"><ele>237.0</ele><time>2026-05-01T07:34:11Z</time></trkpt><trkpt lat="44.896905562420955" lon="7.658183470242171"><ele>237.0</ele><time>2026-05-01T07:34:12Z</time></trkpt><trkpt lat="44.8967525396414" lon="7.65835710923623"><ele>237.0</ele><time>2026-05-01T07:34:13Z</time></trkpt><trkpt lat="44.89659298412871" lon="7.658514538922624"><ele>237.0</ele><time>2026-05-01T07:34:14Z</time></trkpt><trkpt lat="44.896461660729145" lon="7.6587057428431216"><ele>237.0</ele><time>2026-05-01T07:34:15Z</time></trkpt><trkpt lat="44.89632450846361" lon="7.658873435703027"><ele>237.0</ele><time>2026-05-01T07:34:16Z</time></trkpt><trkpt lat="44.896191251770865" lon="7.6590396960138705"><ele>237.0</ele><time>2026-05-01T07:34:17Z</time></trkpt><trkpt lat="44.89606596420582" lon="7.659195357668621"><ele>237.0</ele><time>2026-05-01T07:34:18Z</time></trkpt><trkpt lat="44.895947536983286" lon="7.659343929464223"><ele>237.0</ele><time>2026-05-01T07:34:19Z</time></trkpt><trkpt lat="44.89582259194203" lon="7.659470791756619"><ele>237.25</ele><time>2026-05-01T07:34:20Z</time></trkpt><trkpt lat="44.89570344644239" lon="7.659570852733792"><ele>237.5</ele><time>2026-05-01T07:34:21Z</time></trkpt><trkpt lat="44.89557724517343" lon="7.659642619790484"><ele>237.75</ele><time>2026-05-01T07:34:22Z</time></trkpt><trkpt lat="44.895475330503075" lon="7.659730064259623"><ele>238.0</ele><time>2026-05-01T07:34:23Z</time></trkpt><trkpt lat="44.895404938440194" lon="7.659867406902606"><ele>238.0</ele><time>2026-05-01T07:34:24Z</time></trkpt><trkpt lat="44.895364080717556" lon="7.6600556040467005"><ele>238.0</ele><time>2026-05-01T07:34:25Z</time></trkpt><trkpt lat="44.895315298752045" lon="7.660251202801292"><ele>238.0</ele><time>2026-05-01T07:34:26Z</time></trkpt><trkpt lat="44.89522771481881" lon="7.660438245443356"><ele>238.0</ele><time>2026-05-01T07:34:27Z</time></trkpt><trkpt lat="44.895099751159385" lon="7.660617132021899"><ele>238.0</ele><time>2026-05-01T07:34:28Z</time></trkpt><trkpt lat="44.8949661781446" lon="7.660809566562979"><ele>238.0</ele><time>2026-05-01T07:34:29Z</time></trkpt><trkpt lat="44.894835306369544" lon="7.66102536712807"><ele>238.0</ele><time>2026-05-01T07:34:30Z</time></trkpt><trkpt lat="44.89470177127567" lon="7.661257695504172"><ele>237.5</ele><time>2026-05-01T07:34:31Z</time></trkpt><trkpt lat="44.89456581476119" lon="7.661503405797079"><ele>237.0</ele><time>2026-05-01T07:34:32Z</time></trkpt><trkpt lat="44.89442371880567" lon="7.661762459014763"><ele>237.0</ele><time>2026-05-01T07:34:33Z</time></trkpt><trkpt lat="44.894283048742196" lon="7.662026084886251"><ele>237.0</ele><time>2026-05-01T07:34:34Z</time></trkpt><trkpt lat="44.894142509656746" lon="7.66230186038238"><ele>237.0</ele><time>2026-05-01T07:34:35Z</time></trkpt><trkpt lat="44.894005037712226" lon="7.662585914439211"><ele>237.0</ele><time>2026-05-01T07:34:36Z</time></trkpt><trkpt lat="44.89387119172373" lon="7.6628751803487996"><ele>236.5</ele><time>2026-05-01T07:34:37Z</time></trkpt><trkpt lat="44.893745219238156" lon="7.663159199759229"><ele>236.0</ele><time>2026-05-01T07:34:38Z</time></trkpt><trkpt lat="44.89362360731672" lon="7.6634344397755685"><ele>236.0</ele><time>2026-05-01T07:34:39Z</time></trkpt><trkpt lat="44.89350671020552" lon="7.663702667885586"><ele>236.0</ele><time>2026-05-01T07:34:40Z</time></trkpt><trkpt lat="44.89339529954108" lon="7.663973571627251"><ele>236.0</ele><time>2026-05-01T07:34:41Z</time></trkpt><trkpt lat="44.89329246145054" lon="7.66424337999567"><ele>236.0</ele><time>2026-05-01T07:34:42Z</time></trkpt><trkpt lat="44.89319216659739" lon="7.664512104413959"><ele>236.0</ele><time>2026-05-01T07:34:43Z</time></trkpt><trkpt lat="44.89309476128604" lon="7.664779448111631"><ele>236.0</ele><time>2026-05-01T07:34:44Z</time></trkpt><trkpt lat="44.893000129842534" lon="7.665049226191028"><ele>236.66666666666669</ele><time>2026-05-01T07:34:45Z</time></trkpt><trkpt lat="44.89290815068402" lon="7.665320410601874"><ele>237.33333333333331</ele><time>2026-05-01T07:34:46Z</time></trkpt><trkpt lat="44.89281797102689" lon="7.6655916761047065"><ele>238.0</ele><time>2026-05-01T07:34:47Z</time></trkpt><trkpt lat="44.89272901208378" lon="7.6658622178385345"><ele>238.33333333333331</ele><time>2026-05-01T07:34:48Z</time></trkpt><trkpt lat="44.89264362816951" lon="7.66613469117925"><ele>238.66666666666669</ele><time>2026-05-01T07:34:49Z</time></trkpt><trkpt lat="44.89256409925513" lon="7.666408139656564"><ele>239.0</ele><time>2026-05-01T07:34:50Z</time></trkpt><trkpt lat="44.89248169840818" lon="7.666689279622529"><ele>239.0</ele><time>2026-05-01T07:34:51Z</time></trkpt><trkpt lat="44.892419172220116" lon="7.66691702535839"><ele>239.0</ele><time>2026-05-01T07:34:52Z</time></trkpt><trkpt lat="44.89236074279345" lon="7.667154975413975"><ele>239.0</ele><time>2026-05-01T07:34:53Z</time></trkpt><trkpt lat="44.892303019412736" lon="7.6673857705994966"><ele>239.0</ele><time>2026-05-01T07:34:54Z</time></trkpt><trkpt lat="44.89224899408062" lon="7.6676123312706626"><ele>239.0</ele><time>2026-05-01T07:34:55Z</time></trkpt><trkpt lat="44.89219995363602" lon="7.667828414156743"><ele>239.0</ele><time>2026-05-01T07:34:56Z</time></trkpt><trkpt lat="44.892151347962326" lon="7.668034059891257"><ele>238.75</ele><time>2026-05-01T07:34:57Z</time></trkpt><trkpt lat="44.89210107216504" lon="7.668224563658965"><ele>238.5</ele><time>2026-05-01T07:34:58Z</time></trkpt><trkpt lat="44.89205271905632" lon="7.668401297413126"><ele>238.25</ele><time>2026-05-01T07:34:59Z</time></trkpt><trkpt lat="44.891996662519" lon="7.6685634207167315"><ele>238.0</ele><time>2026-05-01T07:35:00Z</time></trkpt><trkpt lat="44.891920340930085" lon="7.668690748393039"><ele>238.0</ele><time>2026-05-01T07:35:01Z</time></trkpt><trkpt lat="44.89181813548461" lon="7.668769224559586"><ele>238.0</ele><time>2026-05-01T07:35:02Z</time></trkpt><trkpt lat="44.891707885725" lon="7.668820567263744"><ele>238.0</ele><time>2026-05-01T07:35:02.999Z</time></trkpt><trkpt lat="44.89162515127324" lon="7.668913814250958"><ele>238.0</ele><time>2026-05-01T07:35:03.999Z</time></trkpt><trkpt lat="44.89159261911347" lon="7.669054919768682"><ele>238.0</ele><time>2026-05-01T07:35:04.999Z</time></trkpt><trkpt lat="44.89161424255272" lon="7.66921269661382"><ele>237.75</ele><time>2026-05-01T07:35:05.999Z</time></trkpt><trkpt lat="44.891662914407796" lon="7.669394667960406"><ele>237.5</ele><time>2026-05-01T07:35:06.999Z</time></trkpt><trkpt lat="44.8917234703343" lon="7.669587616707794"><ele>237.25</ele><time>2026-05-01T07:35:07.999Z</time></trkpt><trkpt lat="44.89173254849534" lon="7.669796731805884"><ele>237.0</ele><time>2026-05-01T07:35:08.999Z</time></trkpt><trkpt lat="44.89168231341493" lon="7.670020327798192"><ele>236.33333333333331</ele><time>2026-05-01T07:35:09.999Z</time></trkpt><trkpt lat="44.89161173001746" lon="7.670252915793925"><ele>235.66666666666666</ele><time>2026-05-01T07:35:10.999Z</time></trkpt><trkpt lat="44.89153349721146" lon="7.670511751569503"><ele>235.0</ele><time>2026-05-01T07:35:11.999Z</time></trkpt><trkpt lat="44.89145937923917" lon="7.670788511167655"><ele>234.5</ele><time>2026-05-01T07:35:12.999Z</time></trkpt><trkpt lat="44.89137910125953" lon="7.671097928434072"><ele>234.0</ele><time>2026-05-01T07:35:13.999Z</time></trkpt><trkpt lat="44.89130355918343" lon="7.671405490468056"><ele>234.0</ele><time>2026-05-01T07:35:14.999Z</time></trkpt><trkpt lat="44.891222654989214" lon="7.671718306305831"><ele>234.0</ele><time>2026-05-01T07:35:15.999Z</time></trkpt><trkpt lat="44.89114190680967" lon="7.6720468260607495"><ele>234.0</ele><time>2026-05-01T07:35:16.999Z</time></trkpt><trkpt lat="44.89106006058696" lon="7.6723805119069"><ele>234.0</ele><time>2026-05-01T07:35:17.999Z</time></trkpt><trkpt lat="44.890978708122546" lon="7.672711203051071"><ele>234.0</ele><time>2026-05-01T07:35:18.999Z</time></trkpt><trkpt lat="44.89089891505434" lon="7.67302913276814"><ele>234.0</ele><time>2026-05-01T07:35:19.999Z</time></trkpt><trkpt lat="44.89082180944568" lon="7.673331298891445"><ele>233.33333333333331</ele><time>2026-05-01T07:35:20.999Z</time></trkpt><trkpt lat="44.89074871433718" lon="7.673617487023393"><ele>232.66666666666666</ele><time>2026-05-01T07:35:21.999Z</time></trkpt><trkpt lat="44.890678683263054" lon="7.673900306926987"><ele>232.0</ele><time>2026-05-01T07:35:22.999Z</time></trkpt><trkpt lat="44.89060964981373" lon="7.6741774514847725"><ele>232.33333333333331</ele><time>2026-05-01T07:35:23.999Z</time></trkpt><trkpt lat="44.8905434704846" lon="7.674451659464278"><ele>232.66666666666669</ele><time>2026-05-01T07:35:24.999Z</time></trkpt><trkpt lat="44.89047654356823" lon="7.674720256452492"><ele>233.0</ele><time>2026-05-01T07:35:25.999Z</time></trkpt><trkpt lat="44.89041054607831" lon="7.6749781332684375"><ele>233.0</ele><time>2026-05-01T07:35:26.999Z</time></trkpt><trkpt lat="44.8903431446578" lon="7.675236640715618"><ele>233.0</ele><time>2026-05-01T07:35:27.999Z</time></trkpt><trkpt lat="44.89027526590969" lon="7.675491445143652"><ele>233.0</ele><time>2026-05-01T07:35:28.999Z</time></trkpt><trkpt lat="44.890211315424814" lon="7.67573949188594"><ele>232.66666666666669</ele><time>2026-05-01T07:35:29.999Z</time></trkpt><trkpt lat="44.890152287942314" lon="7.6759755662900995"><ele>232.33333333333331</ele><time>2026-05-01T07:35:30.999Z</time></trkpt><trkpt lat="44.89009594171631" lon="7.676206012116505"><ele>232.0</ele><time>2026-05-01T07:35:31.999Z</time></trkpt><trkpt lat="44.89004721297563" lon="7.676418035281873"><ele>231.75</ele><time>2026-05-01T07:35:32.999Z</time></trkpt><trkpt lat="44.8900030072574" lon="7.676616257184602"><ele>231.5</ele><time>2026-05-01T07:35:33.999Z</time></trkpt><trkpt lat="44.889963311724664" lon="7.676807579683348"><ele>231.25</ele><time>2026-05-01T07:35:34.999Z</time></trkpt><trkpt lat="44.889932387930884" lon="7.676996338077123"><ele>231.0</ele><time>2026-05-01T07:35:35.999Z</time></trkpt><trkpt lat="44.88990150679736" lon="7.6771800478960195"><ele>230.75</ele><time>2026-05-01T07:35:36.999Z</time></trkpt><trkpt lat="44.88985641550322" lon="7.67735743978566"><ele>230.5</ele><time>2026-05-01T07:35:37.999Z</time></trkpt><trkpt lat="44.889784815475835" lon="7.677536444041382"><ele>230.25</ele><time>2026-05-01T07:35:38.999Z</time></trkpt><trkpt lat="44.889679443002414" lon="7.677710244451425"><ele>230.0</ele><time>2026-05-01T07:35:39.999Z</time></trkpt><trkpt lat="44.88954902979801" lon="7.677882785600518"><ele>230.0</ele><time>2026-05-01T07:35:40.999Z</time></trkpt><trkpt lat="44.88940441830477" lon="7.6780646161660115"><ele>230.0</ele><time>2026-05-01T07:35:42Z</time></trkpt><trkpt lat="44.889254302415736" lon="7.678256984783143"><ele>230.0</ele><time>2026-05-01T07:35:43Z</time></trkpt><trkpt lat="44.889105535851705" lon="7.678463610363357"><ele>230.33333333333334</ele><time>2026-05-01T07:35:44Z</time></trkpt><trkpt lat="44.88894814284958" lon="7.678677864624807"><ele>230.66666666666669</ele><time>2026-05-01T07:35:45Z</time></trkpt><trkpt lat="44.888781354624946" lon="7.678891359930915"><ele>231.0</ele><time>2026-05-01T07:35:46Z</time></trkpt><trkpt lat="44.888593350298706" lon="7.679079096744513"><ele>231.0</ele><time>2026-05-01T07:35:47Z</time></trkpt><trkpt lat="44.88842523943614" lon="7.679302307710275"><ele>231.0</ele><time>2026-05-01T07:35:48Z</time></trkpt><trkpt lat="44.88824622201588" lon="7.679508999854251"><ele>231.0</ele><time>2026-05-01T07:35:49Z</time></trkpt><trkpt lat="44.888070733782826" lon="7.679712732728288"><ele>231.0</ele><time>2026-05-01T07:35:50Z</time></trkpt><trkpt lat="44.887897673140166" lon="7.679919044418361"><ele>231.0</ele><time>2026-05-01T07:35:51Z</time></trkpt><trkpt lat="44.88772507321545" lon="7.680124786396948"><ele>231.0</ele><time>2026-05-01T07:35:52Z</time></trkpt><trkpt lat="44.88755266442674" lon="7.680330092341325"><ele>231.66666666666669</ele><time>2026-05-01T07:35:53Z</time></trkpt><trkpt lat="44.887383123597104" lon="7.680532254964377"><ele>232.33333333333334</ele><time>2026-05-01T07:35:54Z</time></trkpt><trkpt lat="44.88721058262703" lon="7.680735531853141"><ele>233.0</ele><time>2026-05-01T07:35:55Z</time></trkpt><trkpt lat="44.88704090715146" lon="7.680939868925211"><ele>233.0</ele><time>2026-05-01T07:35:56Z</time></trkpt><trkpt lat="44.88687305853226" lon="7.681140525276922"><ele>233.0</ele><time>2026-05-01T07:35:57Z</time></trkpt><trkpt lat="44.8867049113938" lon="7.681340744977382"><ele>233.0</ele><time>2026-05-01T07:35:58Z</time></trkpt><trkpt lat="44.88653843003849" lon="7.681542776918512"><ele>232.66666666666669</ele><time>2026-05-01T07:35:59Z</time></trkpt><trkpt lat="44.8863723645743" lon="7.6817423346485185"><ele>232.33333333333331</ele><time>2026-05-01T07:36:00Z</time></trkpt><trkpt lat="44.88620774393639" lon="7.681942130931476"><ele>232.0</ele><time>2026-05-01T07:36:01Z</time></trkpt><trkpt lat="44.88604130938296" lon="7.682139754528357"><ele>231.33333333333331</ele><time>2026-05-01T07:36:02Z</time></trkpt><trkpt lat="44.88587391792735" lon="7.682337384376543"><ele>230.66666666666669</ele><time>2026-05-01T07:36:03Z</time></trkpt><trkpt lat="44.88570656895357" lon="7.682534824069227"><ele>230.0</ele><time>2026-05-01T07:36:04Z</time></trkpt><trkpt lat="44.88553972772604" lon="7.6827326270073515"><ele>230.0</ele><time>2026-05-01T07:36:05Z</time></trkpt><trkpt lat="44.885372715194535" lon="7.682934025360795"><ele>230.0</ele><time>2026-05-01T07:36:06Z</time></trkpt><trkpt lat="44.88520532696992" lon="7.683135338344192"><ele>230.0</ele><time>2026-05-01T07:36:07Z</time></trkpt><trkpt lat="44.88503815012787" lon="7.6833335157013"><ele>230.33333333333334</ele><time>2026-05-01T07:36:08Z</time></trkpt><trkpt lat="44.88487358497841" lon="7.683536234564184"><ele>230.66666666666669</ele><time>2026-05-01T07:36:09Z</time></trkpt><trkpt lat="44.88470942007114" lon="7.68373133701458"><ele>231.0</ele><time>2026-05-01T07:36:10Z</time></trkpt><trkpt lat="44.88454971642123" lon="7.683922102799545"><ele>231.0</ele><time>2026-05-01T07:36:11Z</time></trkpt><trkpt lat="44.88439017893079" lon="7.684106575955856"><ele>231.0</ele><time>2026-05-01T07:36:12Z</time></trkpt><trkpt lat="44.88424018221225" lon="7.684289343545519"><ele>231.0</ele><time>2026-05-01T07:36:13Z</time></trkpt><trkpt lat="44.88408916390219" lon="7.684472423839433"><ele>231.66666666666669</ele><time>2026-05-01T07:36:14Z</time></trkpt><trkpt lat="44.88394247894009" lon="7.684661721846379"><ele>232.33333333333334</ele><time>2026-05-01T07:36:15Z</time></trkpt><trkpt lat="44.883800625043044" lon="7.684856719094091"><ele>233.0</ele><time>2026-05-01T07:36:16Z</time></trkpt><trkpt lat="44.88366321925532" lon="7.685050850104062"><ele>233.0</ele><time>2026-05-01T07:36:17Z</time></trkpt><trkpt lat="44.883531182106076" lon="7.68524295170283"><ele>233.0</ele><time>2026-05-01T07:36:18Z</time></trkpt><trkpt lat="44.88340240482722" lon="7.685429989339586"><ele>233.0</ele><time>2026-05-01T07:36:19Z</time></trkpt><trkpt lat="44.88328189067315" lon="7.6856064878462425"><ele>233.0</ele><time>2026-05-01T07:36:20Z</time></trkpt><trkpt lat="44.883163302938435" lon="7.685779035828863"><ele>233.0</ele><time>2026-05-01T07:36:21Z</time></trkpt><trkpt lat="44.88304796009898" lon="7.685944264698932"><ele>233.0</ele><time>2026-05-01T07:36:22Z</time></trkpt><trkpt lat="44.88293780907729" lon="7.686106175512068"><ele>232.75</ele><time>2026-05-01T07:36:23Z</time></trkpt><trkpt lat="44.88283068796082" lon="7.686258687005699"><ele>232.5</ele><time>2026-05-01T07:36:24Z</time></trkpt><trkpt lat="44.88272654846701" lon="7.686407035154266"><ele>232.25</ele><time>2026-05-01T07:36:25Z</time></trkpt><trkpt lat="44.88262837044775" lon="7.686551965161994"><ele>232.0</ele><time>2026-05-01T07:36:26Z</time></trkpt><trkpt lat="44.88253305864733" lon="7.686695422660575"><ele>231.66666666666666</ele><time>2026-05-01T07:36:27Z</time></trkpt><trkpt lat="44.88241937059536" lon="7.686828737112899"><ele>231.33333333333331</ele><time>2026-05-01T07:36:28Z</time></trkpt><trkpt lat="44.882309222522345" lon="7.686988962135095"><ele>231.0</ele><time>2026-05-01T07:36:29Z</time></trkpt><trkpt lat="44.882184725406745" lon="7.687164961110359"><ele>232.0</ele><time>2026-05-01T07:36:30Z</time></trkpt><trkpt lat="44.88203803146241" lon="7.6873715819659845"><ele>233.0</ele><time>2026-05-01T07:36:31Z</time></trkpt><trkpt lat="44.881881264930094" lon="7.687600327455707"><ele>234.0</ele><time>2026-05-01T07:36:32Z</time></trkpt><trkpt lat="44.88171894893913" lon="7.687827973278522"><ele>234.0</ele><time>2026-05-01T07:36:33Z</time></trkpt><trkpt lat="44.88155470575679" lon="7.688052884346883"><ele>234.0</ele><time>2026-05-01T07:36:34Z</time></trkpt><trkpt lat="44.88139048618135" lon="7.688277763087425"><ele>234.0</ele><time>2026-05-01T07:36:35Z</time></trkpt><trkpt lat="44.881253673547725" lon="7.688536927847367"><ele>234.0</ele><time>2026-05-01T07:36:36Z</time></trkpt><trkpt lat="44.881090791651" lon="7.688743161219933"><ele>234.0</ele><time>2026-05-01T07:36:37Z</time></trkpt><trkpt lat="44.880933494710135" lon="7.688951231108516"><ele>234.33333333333331</ele><time>2026-05-01T07:36:38Z</time></trkpt><trkpt lat="44.88078359606145" lon="7.689163352648932"><ele>234.66666666666666</ele><time>2026-05-01T07:36:39Z</time></trkpt><trkpt lat="44.88063706118912" lon="7.689375725251349"><ele>235.0</ele><time>2026-05-01T07:36:40Z</time></trkpt><trkpt lat="44.88048936938509" lon="7.689587283517375"><ele>234.0</ele><time>2026-05-01T07:36:41Z</time></trkpt><trkpt lat="44.88034288227605" lon="7.6898010841846505"><ele>233.0</ele><time>2026-05-01T07:36:42Z</time></trkpt><trkpt lat="44.88019959841585" lon="7.690019685920239"><ele>232.0</ele><time>2026-05-01T07:36:43Z</time></trkpt><trkpt lat="44.88006062920131" lon="7.690247310561228"><ele>231.33333333333331</ele><time>2026-05-01T07:36:44Z</time></trkpt><trkpt lat="44.87992768355467" lon="7.690485186854342"><ele>230.66666666666669</ele><time>2026-05-01T07:36:45Z</time></trkpt><trkpt lat="44.87979841050421" lon="7.690732001973768"><ele>230.0</ele><time>2026-05-01T07:36:46Z</time></trkpt><trkpt lat="44.87967205378689" lon="7.6909835422796995"><ele>229.66666666666669</ele><time>2026-05-01T07:36:47Z</time></trkpt><trkpt lat="44.879545044327465" lon="7.69123414756088"><ele>229.33333333333331</ele><time>2026-05-01T07:36:48Z</time></trkpt><trkpt lat="44.87941830667953" lon="7.691486100013231"><ele>229.0</ele><time>2026-05-01T07:36:49Z</time></trkpt><trkpt lat="44.879296146821886" lon="7.691743603596729"><ele>229.33333333333331</ele><time>2026-05-01T07:36:50Z</time></trkpt><trkpt lat="44.87917587021667" lon="7.691999805854438"><ele>229.66666666666669</ele><time>2026-05-01T07:36:51Z</time></trkpt><trkpt lat="44.8790556761568" lon="7.69225451248273"><ele>230.0</ele><time>2026-05-01T07:36:52Z</time></trkpt><trkpt lat="44.8789354439823" lon="7.692509092079821"><ele>230.0</ele><time>2026-05-01T07:36:53Z</time></trkpt><trkpt lat="44.8788138544884" lon="7.69276057997367"><ele>230.0</ele><time>2026-05-01T07:36:54Z</time></trkpt><trkpt lat="44.878693461832185" lon="7.693012922098033"><ele>230.0</ele><time>2026-05-01T07:36:55Z</time></trkpt><trkpt lat="44.87857389689841" lon="7.693265517656842"><ele>230.0</ele><time>2026-05-01T07:36:56Z</time></trkpt><trkpt lat="44.878454740598436" lon="7.693518159695377"><ele>230.0</ele><time>2026-05-01T07:36:57Z</time></trkpt><trkpt lat="44.878336307060366" lon="7.693769822847447"><ele>230.0</ele><time>2026-05-01T07:36:58Z</time></trkpt><trkpt lat="44.87821683131804" lon="7.694023785996966"><ele>230.0</ele><time>2026-05-01T07:36:58.999Z</time></trkpt><trkpt lat="44.87809816108313" lon="7.694276422486664"><ele>230.0</ele><time>2026-05-01T07:36:59.999Z</time></trkpt><trkpt lat="44.877978278404726" lon="7.694528276241526"><ele>230.0</ele><time>2026-05-01T07:37:00.999Z</time></trkpt><trkpt lat="44.87785725883435" lon="7.694778766629449"><ele>229.66666666666669</ele><time>2026-05-01T07:37:01.999Z</time></trkpt><trkpt lat="44.877734526704536" lon="7.695030685491566"><ele>229.33333333333331</ele><time>2026-05-01T07:37:02.999Z</time></trkpt><trkpt lat="44.87761216824228" lon="7.695282371452575"><ele>229.0</ele><time>2026-05-01T07:37:03.999Z</time></trkpt><trkpt lat="44.877490628279844" lon="7.695535143040951"><ele>229.0</ele><time>2026-05-01T07:37:04.999Z</time></trkpt><trkpt lat="44.877368799242426" lon="7.69578972662742"><ele>229.0</ele><time>2026-05-01T07:37:05.999Z</time></trkpt><trkpt lat="44.87724769239542" lon="7.696041618760095"><ele>229.0</ele><time>2026-05-01T07:37:06.999Z</time></trkpt><trkpt lat="44.87712768152975" lon="7.696295795288287"><ele>229.33333333333331</ele><time>2026-05-01T07:37:07.999Z</time></trkpt><trkpt lat="44.877006321880465" lon="7.696549111066037"><ele>229.66666666666669</ele><time>2026-05-01T07:37:08.999Z</time></trkpt><trkpt lat="44.87688539139158" lon="7.696800173637839"><ele>230.0</ele><time>2026-05-01T07:37:09.999Z</time></trkpt><trkpt lat="44.876766373273576" lon="7.697053406785084"><ele>230.0</ele><time>2026-05-01T07:37:10.999Z</time></trkpt><trkpt lat="44.876648854268986" lon="7.697302759523247"><ele>230.0</ele><time>2026-05-01T07:37:11.999Z</time></trkpt><trkpt lat="44.87653207432609" lon="7.697552731887001"><ele>230.0</ele><time>2026-05-01T07:37:12.999Z</time></trkpt><trkpt lat="44.87641516873649" lon="7.697802649634645"><ele>229.66666666666669</ele><time>2026-05-01T07:37:13.999Z</time></trkpt><trkpt lat="44.87629732504596" lon="7.698051077547341"><ele>229.33333333333331</ele><time>2026-05-01T07:37:14.999Z</time></trkpt><trkpt lat="44.87618079197278" lon="7.698299188171801"><ele>229.0</ele><time>2026-05-01T07:37:15.999Z</time></trkpt><trkpt lat="44.876062587142634" lon="7.698547218317812"><ele>229.66666666666666</ele><time>2026-05-01T07:37:16.999Z</time></trkpt><trkpt lat="44.875946565793555" lon="7.698789981574109"><ele>230.33333333333331</ele><time>2026-05-01T07:37:17.999Z</time></trkpt><trkpt lat="44.87582855736093" lon="7.699038080229086"><ele>231.0</ele><time>2026-05-01T07:37:18.999Z</time></trkpt><trkpt lat="44.8757132307213" lon="7.699284012442955"><ele>232.0</ele><time>2026-05-01T07:37:19.999Z</time></trkpt><trkpt lat="44.87559646525908" lon="7.699532342051219"><ele>233.0</ele><time>2026-05-01T07:37:20.999Z</time></trkpt><trkpt lat="44.87547981668866" lon="7.699775497849006"><ele>234.0</ele><time>2026-05-01T07:37:21.999Z</time></trkpt><trkpt lat="44.87536455427261" lon="7.700016222968081"><ele>233.66666666666669</ele><time>2026-05-01T07:37:22.999Z</time></trkpt><trkpt lat="44.87524942218671" lon="7.700259090908102"><ele>233.33333333333334</ele><time>2026-05-01T07:37:23.999Z</time></trkpt><trkpt lat="44.87513449396085" lon="7.700497137848041"><ele>233.0</ele><time>2026-05-01T07:37:24.999Z</time></trkpt><trkpt lat="44.875021955196026" lon="7.700732036845725"><ele>233.0</ele><time>2026-05-01T07:37:25.999Z</time></trkpt><trkpt lat="44.87490944038397" lon="7.700963673912133"><ele>233.0</ele><time>2026-05-01T07:37:26.999Z</time></trkpt><trkpt lat="44.87480055243943" lon="7.701193448760446"><ele>233.0</ele><time>2026-05-01T07:37:27.999Z</time></trkpt><trkpt lat="44.874695692002916" lon="7.701411881486265"><ele>233.0</ele><time>2026-05-01T07:37:28.999Z</time></trkpt><trkpt lat="44.87459469171155" lon="7.701627921060958"><ele>233.0</ele><time>2026-05-01T07:37:29.999Z</time></trkpt><trkpt lat="44.874495806922916" lon="7.7018393164713785"><ele>233.0</ele><time>2026-05-01T07:37:30.999Z</time></trkpt><trkpt lat="44.87440435518637" lon="7.7020379248676765"><ele>232.66666666666669</ele><time>2026-05-01T07:37:31.999Z</time></trkpt><trkpt lat="44.87429862700928" lon="7.702245953115035"><ele>232.33333333333331</ele><time>2026-05-01T07:37:32.999Z</time></trkpt><trkpt lat="44.87420566823783" lon="7.702435553245888"><ele>232.0</ele><time>2026-05-01T07:37:33.999Z</time></trkpt><trkpt lat="44.87411798851389" lon="7.702621358777356"><ele>232.0</ele><time>2026-05-01T07:37:34.999Z</time></trkpt><trkpt lat="44.87401708556126" lon="7.702814444064966"><ele>232.0</ele><time>2026-05-01T07:37:35.999Z</time></trkpt><trkpt lat="44.873909029991204" lon="7.703002851293733"><ele>232.0</ele><time>2026-05-01T07:37:36.999Z</time></trkpt><trkpt lat="44.873801063497154" lon="7.703194797615243"><ele>232.0</ele><time>2026-05-01T07:37:37.999Z</time></trkpt><trkpt lat="44.873684543850196" lon="7.703392673368815"><ele>232.0</ele><time>2026-05-01T07:37:38.999Z</time></trkpt><trkpt lat="44.87367868630919" lon="7.703536862319308"><ele>232.0</ele><time>2026-05-01T07:37:39.999Z</time></trkpt><trkpt lat="44.87358891443014" lon="7.703727798274766"><ele>232.0</ele><time>2026-05-01T07:37:40.999Z</time></trkpt><trkpt lat="44.87350053846979" lon="7.7039215937481975"><ele>232.0</ele><time>2026-05-01T07:37:41.999Z</time></trkpt><trkpt lat="44.873412669282736" lon="7.7041142526331035"><ele>232.0</ele><time>2026-05-01T07:37:42.999Z</time></trkpt><trkpt lat="44.873322780717" lon="7.704306864600574"><ele>232.0</ele><time>2026-05-01T07:37:43.999Z</time></trkpt><trkpt lat="44.87322922026613" lon="7.704494699475656"><ele>232.0</ele><time>2026-05-01T07:37:44.999Z</time></trkpt><trkpt lat="44.87313979129414" lon="7.704683038590615"><ele>232.0</ele><time>2026-05-01T07:37:45.999Z</time></trkpt><trkpt lat="44.873049295300234" lon="7.704864265146444"><ele>232.0</ele><time>2026-05-01T07:37:46.999Z</time></trkpt><trkpt lat="44.87296030879568" lon="7.7050433947636545"><ele>232.0</ele><time>2026-05-01T07:37:48Z</time></trkpt><trkpt lat="44.872874711190434" lon="7.705226113268583"><ele>232.0</ele><time>2026-05-01T07:37:49Z</time></trkpt><trkpt lat="44.872794705367944" lon="7.705408326390853"><ele>232.0</ele><time>2026-05-01T07:37:50Z</time></trkpt><trkpt lat="44.872711483866794" lon="7.705594957595473"><ele>232.0</ele><time>2026-05-01T07:37:51Z</time></trkpt><trkpt lat="44.872622262529134" lon="7.7057832800150905"><ele>232.0</ele><time>2026-05-01T07:37:52Z</time></trkpt><trkpt lat="44.872533299581605" lon="7.7059730055022255"><ele>232.0</ele><time>2026-05-01T07:37:53Z</time></trkpt><trkpt lat="44.87244238433919" lon="7.706158961070114"><ele>232.0</ele><time>2026-05-01T07:37:54Z</time></trkpt><trkpt lat="44.872353185196935" lon="7.70634389481272"><ele>232.0</ele><time>2026-05-01T07:37:55Z</time></trkpt><trkpt lat="44.872261462826394" lon="7.706529908204879"><ele>232.0</ele><time>2026-05-01T07:37:56Z</time></trkpt><trkpt lat="44.87217628700905" lon="7.706712958141079"><ele>232.0</ele><time>2026-05-01T07:37:57Z</time></trkpt><trkpt lat="44.87209084974838" lon="7.706895120096942"><ele>232.0</ele><time>2026-05-01T07:37:58Z</time></trkpt><trkpt lat="44.87200647865176" lon="7.707077845843602"><ele>232.0</ele><time>2026-05-01T07:37:59Z</time></trkpt><trkpt lat="44.87191877116048" lon="7.7072585148610795"><ele>233.33333333333331</ele><time>2026-05-01T07:38:00Z</time></trkpt><trkpt lat="44.871832176795444" lon="7.707443460790672"><ele>234.66666666666669</ele><time>2026-05-01T07:38:01Z</time></trkpt><trkpt lat="44.87174059853053" lon="7.707632971239984"><ele>236.0</ele><time>2026-05-01T07:38:02Z</time></trkpt><trkpt lat="44.87165114516649" lon="7.7078178767165655"><ele>237.0</ele><time>2026-05-01T07:38:03Z</time></trkpt><trkpt lat="44.87156191245629" lon="7.708004476042701"><ele>238.0</ele><time>2026-05-01T07:38:04Z</time></trkpt><trkpt lat="44.87147294124788" lon="7.708193895068781"><ele>239.0</ele><time>2026-05-01T07:38:05Z</time></trkpt><trkpt lat="44.87138593333061" lon="7.708376433825012"><ele>239.0</ele><time>2026-05-01T07:38:06Z</time></trkpt><trkpt lat="44.87129761966506" lon="7.708564176151092"><ele>239.0</ele><time>2026-05-01T07:38:07Z</time></trkpt><trkpt lat="44.871211373576" lon="7.7087466644054805"><ele>239.0</ele><time>2026-05-01T07:38:08Z</time></trkpt><trkpt lat="44.87112385137377" lon="7.70893004617553"><ele>239.0</ele><time>2026-05-01T07:38:09Z</time></trkpt><trkpt lat="44.87103597242092" lon="7.709115322049366"><ele>239.0</ele><time>2026-05-01T07:38:10Z</time></trkpt><trkpt lat="44.870947755194166" lon="7.709301273767465"><ele>239.0</ele><time>2026-05-01T07:38:11Z</time></trkpt><trkpt lat="44.870860101925885" lon="7.7094866208129"><ele>239.33333333333334</ele><time>2026-05-01T07:38:12Z</time></trkpt><trkpt lat="44.8707731380917" lon="7.709674402382034"><ele>239.66666666666669</ele><time>2026-05-01T07:38:13Z</time></trkpt><trkpt lat="44.87068673347278" lon="7.709862710697714"><ele>240.0</ele><time>2026-05-01T07:38:14Z</time></trkpt><trkpt lat="44.870599956045524" lon="7.710048104012711"><ele>240.0</ele><time>2026-05-01T07:38:15Z</time></trkpt><trkpt lat="44.87051208954886" lon="7.710234183690361"><ele>240.0</ele><time>2026-05-01T07:38:16Z</time></trkpt><trkpt lat="44.87042378829856" lon="7.710422103555417"><ele>240.0</ele><time>2026-05-01T07:38:17Z</time></trkpt><trkpt lat="44.87033469214478" lon="7.710604934881974"><ele>240.0</ele><time>2026-05-01T07:38:18Z</time></trkpt><trkpt lat="44.870247149832664" lon="7.7107912798563945"><ele>240.0</ele><time>2026-05-01T07:38:19Z</time></trkpt><trkpt lat="44.870160139019596" lon="7.710975226675732"><ele>240.0</ele><time>2026-05-01T07:38:20Z</time></trkpt><trkpt lat="44.87007064777731" lon="7.711161982508892"><ele>238.66666666666669</ele><time>2026-05-01T07:38:21Z</time></trkpt><trkpt lat="44.86998226510294" lon="7.71134909874481"><ele>237.33333333333334</ele><time>2026-05-01T07:38:22Z</time></trkpt><trkpt lat="44.869896235994695" lon="7.711530090282606"><ele>236.0</ele><time>2026-05-01T07:38:23Z</time></trkpt><trkpt lat="44.86980657418991" lon="7.711717832989611"><ele>236.0</ele><time>2026-05-01T07:38:24Z</time></trkpt><trkpt lat="44.86971626614595" lon="7.7119013288586595"><ele>236.0</ele><time>2026-05-01T07:38:25Z</time></trkpt><trkpt lat="44.869622831839536" lon="7.712080841873415"><ele>236.0</ele><time>2026-05-01T07:38:26Z</time></trkpt><trkpt lat="44.86952448483759" lon="7.712257403871591"><ele>236.66666666666669</ele><time>2026-05-01T07:38:27Z</time></trkpt><trkpt lat="44.86941619909181" lon="7.712420796749911"><ele>237.33333333333331</ele><time>2026-05-01T07:38:28Z</time></trkpt><trkpt lat="44.86929607859057" lon="7.712566110357082"><ele>238.0</ele><time>2026-05-01T07:38:29Z</time></trkpt><trkpt lat="44.86917074378519" lon="7.712696031364586"><ele>238.25</ele><time>2026-05-01T07:38:30Z</time></trkpt><trkpt lat="44.86903601337286" lon="7.712791282444934"><ele>238.5</ele><time>2026-05-01T07:38:31Z</time></trkpt><trkpt lat="44.86889978959699" lon="7.7128785538756395"><ele>238.75</ele><time>2026-05-01T07:38:32Z</time></trkpt><trkpt lat="44.8687720576112" lon="7.712957943005141"><ele>239.0</ele><time>2026-05-01T07:38:33Z</time></trkpt><trkpt lat="44.868649471266444" lon="7.713034014228285"><ele>239.0</ele><time>2026-05-01T07:38:34Z</time></trkpt><trkpt lat="44.86852990538215" lon="7.713107146082159"><ele>239.0</ele><time>2026-05-01T07:38:35Z</time></trkpt><trkpt lat="44.86841338615089" lon="7.713173352557776"><ele>239.0</ele><time>2026-05-01T07:38:36Z</time></trkpt><trkpt lat="44.868306432135824" lon="7.713230440400547"><ele>239.0</ele><time>2026-05-01T07:38:37Z</time></trkpt><trkpt lat="44.86820296838666" lon="7.713266280440241"><ele>239.0</ele><time>2026-05-01T07:38:38Z</time></trkpt><trkpt lat="44.86810583004881" lon="7.71327261313963"><ele>238.99999999999997</ele><time>2026-05-01T07:38:39Z</time></trkpt><trkpt lat="44.868017592813324" lon="7.713217509125937"><ele>238.99999999999997</ele><time>2026-05-01T07:38:40Z</time></trkpt><trkpt lat="44.86793774786761" lon="7.713192255205532"><ele>239.0</ele><time>2026-05-01T07:38:41Z</time></trkpt><trkpt lat="44.86786474960805" lon="7.713231882957559"><ele>239.0</ele><time>2026-05-01T07:38:42Z</time></trkpt><trkpt lat="44.86783631548175" lon="7.713372587174759"><ele>239.0</ele><time>2026-05-01T07:38:43Z</time></trkpt><trkpt lat="44.86781137941244" lon="7.713513900802349"><ele>239.0</ele><time>2026-05-01T07:38:44Z</time></trkpt><trkpt lat="44.86773834833065" lon="7.713605089937953"><ele>239.0</ele><time>2026-05-01T07:38:45Z</time></trkpt><trkpt lat="44.86761552112871" lon="7.713659577665248"><ele>239.0</ele><time>2026-05-01T07:38:46Z</time></trkpt><trkpt lat="44.86748906237732" lon="7.713716566545604"><ele>239.33333333333334</ele><time>2026-05-01T07:38:47Z</time></trkpt><trkpt lat="44.86735326151588" lon="7.713795228060863"><ele>239.66666666666669</ele><time>2026-05-01T07:38:48Z</time></trkpt><trkpt lat="44.86721057196333" lon="7.713884527799539"><ele>240.0</ele><time>2026-05-01T07:38:49Z</time></trkpt><trkpt lat="44.86705789145061" lon="7.713978234754198"><ele>240.0</ele><time>2026-05-01T07:38:50Z</time></trkpt><trkpt lat="44.866896319382086" lon="7.714071474937782"><ele>240.0</ele><time>2026-05-01T07:38:51Z</time></trkpt><trkpt lat="44.866737239382246" lon="7.714162574257022"><ele>240.0</ele><time>2026-05-01T07:38:52Z</time></trkpt><trkpt lat="44.86657605234466" lon="7.714256947878498"><ele>240.33333333333331</ele><time>2026-05-01T07:38:53Z</time></trkpt><trkpt lat="44.86641673126889" lon="7.714351981940152"><ele>240.66666666666666</ele><time>2026-05-01T07:38:54Z</time></trkpt><trkpt lat="44.86626037633395" lon="7.714445572100048"><ele>241.0</ele><time>2026-05-01T07:38:55Z</time></trkpt><trkpt lat="44.866107691744546" lon="7.714534770468155"><ele>240.66666666666666</ele><time>2026-05-01T07:38:56Z</time></trkpt><trkpt lat="44.86595754913893" lon="7.714620571441958"><ele>240.33333333333331</ele><time>2026-05-01T07:38:57Z</time></trkpt><trkpt lat="44.86580431617737" lon="7.714709860333493"><ele>240.0</ele><time>2026-05-01T07:38:58Z</time></trkpt><trkpt lat="44.86565341071705" lon="7.714800900063814"><ele>240.0</ele><time>2026-05-01T07:38:58.999Z</time></trkpt><trkpt lat="44.86550640026667" lon="7.714892820920522"><ele>240.0</ele><time>2026-05-01T07:38:59.999Z</time></trkpt><trkpt lat="44.86535903617557" lon="7.714989505078701"><ele>240.0</ele><time>2026-05-01T07:39:00.999Z</time></trkpt><trkpt lat="44.8652154949694" lon="7.715095054483548"><ele>240.0</ele><time>2026-05-01T07:39:01.999Z</time></trkpt><trkpt lat="44.86507524126555" lon="7.715200123560956"><ele>240.0</ele><time>2026-05-01T07:39:02.999Z</time></trkpt><trkpt lat="44.864937264912854" lon="7.715302858288064"><ele>240.0</ele><time>2026-05-01T07:39:03.999Z</time></trkpt><trkpt lat="44.86479688651089" lon="7.7154060425171425"><ele>240.0</ele><time>2026-05-01T07:39:04.999Z</time></trkpt><trkpt lat="44.86465531882851" lon="7.715506996504447"><ele>240.0</ele><time>2026-05-01T07:39:05.999Z</time></trkpt><trkpt lat="44.86451304214021" lon="7.7156123417954205"><ele>240.0</ele><time>2026-05-01T07:39:06.999Z</time></trkpt><trkpt lat="44.86437651994501" lon="7.715713369611105"><ele>240.33333333333331</ele><time>2026-05-01T07:39:07.999Z</time></trkpt><trkpt lat="44.864240797530094" lon="7.715811334662101"><ele>240.66666666666666</ele><time>2026-05-01T07:39:08.999Z</time></trkpt><trkpt lat="44.864111636353556" lon="7.715921651211208"><ele>241.0</ele><time>2026-05-01T07:39:09.999Z</time></trkpt><trkpt lat="44.86398782520437" lon="7.716053179843063"><ele>241.0</ele><time>2026-05-01T07:39:10.999Z</time></trkpt><trkpt lat="44.86387535800862" lon="7.716213506453655"><ele>241.0</ele><time>2026-05-01T07:39:11.999Z</time></trkpt><trkpt lat="44.863772036374066" lon="7.716379816463347"><ele>241.0</ele><time>2026-05-01T07:39:12.999Z</time></trkpt><trkpt lat="44.86366453030265" lon="7.716540526350343"><ele>241.0</ele><time>2026-05-01T07:39:13.999Z</time></trkpt><trkpt lat="44.86356140440024" lon="7.716692483835574"><ele>241.0</ele><time>2026-05-01T07:39:14.999Z</time></trkpt><trkpt lat="44.863459475211386" lon="7.716840399957904"><ele>241.0</ele><time>2026-05-01T07:39:15.999Z</time></trkpt><trkpt lat="44.86335524277586" lon="7.716985049467859"><ele>241.0</ele><time>2026-05-01T07:39:16.999Z</time></trkpt><trkpt lat="44.86325452469877" lon="7.717126853151424"><ele>241.0</ele><time>2026-05-01T07:39:17.999Z</time></trkpt><trkpt lat="44.86315341697204" lon="7.717268225000522"><ele>241.0</ele><time>2026-05-01T07:39:18.999Z</time></trkpt><trkpt lat="44.863049967890014" lon="7.717413884161594"><ele>241.0</ele><time>2026-05-01T07:39:19.999Z</time></trkpt><trkpt lat="44.86294296174183" lon="7.717562897301232"><ele>241.0</ele><time>2026-05-01T07:39:20.999Z</time></trkpt><trkpt lat="44.862840432271554" lon="7.7177057242022435"><ele>241.25</ele><time>2026-05-01T07:39:21.999Z</time></trkpt><trkpt lat="44.86273482008528" lon="7.717855892004946"><ele>241.5</ele><time>2026-05-01T07:39:22.999Z</time></trkpt><trkpt lat="44.86263049353937" lon="7.717999124833534"><ele>241.75</ele><time>2026-05-01T07:39:23.999Z</time></trkpt><trkpt lat="44.862527897833175" lon="7.718144118720475"><ele>242.0</ele><time>2026-05-01T07:39:24.999Z</time></trkpt><trkpt lat="44.862420619991425" lon="7.718289724696917"><ele>242.0</ele><time>2026-05-01T07:39:25.999Z</time></trkpt><trkpt lat="44.8623143216119" lon="7.718432442094509"><ele>242.0</ele><time>2026-05-01T07:39:26.999Z</time></trkpt><trkpt lat="44.86220714386818" lon="7.718578764766564"><ele>242.0</ele><time>2026-05-01T07:39:27.999Z</time></trkpt><trkpt lat="44.862096333077794" lon="7.718725834842883"><ele>242.0</ele><time>2026-05-01T07:39:28.999Z</time></trkpt><trkpt lat="44.86198931005509" lon="7.718873020566862"><ele>241.66666666666669</ele><time>2026-05-01T07:39:29.999Z</time></trkpt><trkpt lat="44.8618771375128" lon="7.719031451831147"><ele>241.33333333333331</ele><time>2026-05-01T07:39:30.999Z</time></trkpt><trkpt lat="44.861759150627975" lon="7.719184452529645"><ele>241.0</ele><time>2026-05-01T07:39:31.999Z</time></trkpt><trkpt lat="44.86164562133765" lon="7.719342211328751"><ele>240.66666666666666</ele><time>2026-05-01T07:39:32.999Z</time></trkpt><trkpt lat="44.861530064305036" lon="7.7195003762182095"><ele>240.33333333333331</ele><time>2026-05-01T07:39:33.999Z</time></trkpt><trkpt lat="44.861414917093065" lon="7.719656163058813"><ele>240.0</ele><time>2026-05-01T07:39:34.999Z</time></trkpt><trkpt lat="44.861295781830854" lon="7.719818545904265"><ele>240.0</ele><time>2026-05-01T07:39:35.999Z</time></trkpt><trkpt lat="44.86117747823927" lon="7.719976078200141"><ele>240.0</ele><time>2026-05-01T07:39:36.999Z</time></trkpt><trkpt lat="44.86105693597457" lon="7.720137369621491"><ele>240.0</ele><time>2026-05-01T07:39:37.999Z</time></trkpt><trkpt lat="44.860940695671864" lon="7.720293489967088"><ele>240.0</ele><time>2026-05-01T07:39:38.999Z</time></trkpt><trkpt lat="44.86082615532322" lon="7.720454634920852"><ele>240.0</ele><time>2026-05-01T07:39:39.999Z</time></trkpt><trkpt lat="44.86071321747645" lon="7.720610446244375"><ele>240.0</ele><time>2026-05-01T07:39:40.999Z</time></trkpt><trkpt lat="44.8605961973142" lon="7.720764386008654"><ele>240.0</ele><time>2026-05-01T07:39:41.999Z</time></trkpt><trkpt lat="44.86048134723689" lon="7.720913633811502"><ele>240.0</ele><time>2026-05-01T07:39:42.999Z</time></trkpt><trkpt lat="44.86036752048749" lon="7.721055872096523"><ele>240.0</ele><time>2026-05-01T07:39:43.999Z</time></trkpt><trkpt lat="44.86025095385484" lon="7.721187750292592"><ele>239.75</ele><time>2026-05-01T07:39:44.999Z</time></trkpt><trkpt lat="44.86013737922108" lon="7.721312570757163"><ele>239.5</ele><time>2026-05-01T07:39:45.999Z</time></trkpt><trkpt lat="44.860026847006125" lon="7.7214347646261805"><ele>239.25</ele><time>2026-05-01T07:39:46.999Z</time></trkpt><trkpt lat="44.859916593467375" lon="7.721549872082139"><ele>239.0</ele><time>2026-05-01T07:39:47.999Z</time></trkpt><trkpt lat="44.85980949007163" lon="7.721666734172525"><ele>239.5</ele><time>2026-05-01T07:39:48.999Z</time></trkpt><trkpt lat="44.85970253905012" lon="7.721783334693061"><ele>240.0</ele><time>2026-05-01T07:39:49.999Z</time></trkpt><trkpt lat="44.859599510414554" lon="7.721898032665569"><ele>240.5</ele><time>2026-05-01T07:39:50.999Z</time></trkpt><trkpt lat="44.859491504411494" lon="7.7220074706629225"><ele>241.0</ele><time>2026-05-01T07:39:51.999Z</time></trkpt><trkpt lat="44.85939123992094" lon="7.722119991997235"><ele>241.0</ele><time>2026-05-01T07:39:52.999Z</time></trkpt><trkpt lat="44.85929280200812" lon="7.722227824083063"><ele>241.0</ele><time>2026-05-01T07:39:54Z</time></trkpt><trkpt lat="44.8591953372261" lon="7.722332687265959"><ele>241.0</ele><time>2026-05-01T07:39:55Z</time></trkpt><trkpt lat="44.859101797808584" lon="7.722434205394507"><ele>241.0</ele><time>2026-05-01T07:39:56Z</time></trkpt><trkpt lat="44.85901764395973" lon="7.722530973760445"><ele>240.99999999999997</ele><time>2026-05-01T07:39:57Z</time></trkpt><trkpt lat="44.85893755888396" lon="7.722622125744723"><ele>241.0</ele><time>2026-05-01T07:39:58Z</time></trkpt><trkpt lat="44.85886820234461" lon="7.722698486825517"><ele>241.0</ele><time>2026-05-01T07:39:59Z</time></trkpt><trkpt lat="44.85881755665295" lon="7.722767002433796"><ele>241.0</ele><time>2026-05-01T07:40:00Z</time></trkpt><trkpt lat="44.85876130339832" lon="7.722839536262826"><ele>240.99999999999997</ele><time>2026-05-01T07:40:02Z</time></trkpt><trkpt lat="44.85869341717063" lon="7.722945837970364"><ele>241.0</ele><time>2026-05-01T07:40:07Z</time></trkpt><trkpt lat="44.85864167049155" lon="7.723017474338992"><ele>240.99999999999997</ele><time>2026-05-01T07:40:08Z</time></trkpt><trkpt lat="44.85858886982856" lon="7.723076448666659"><ele>241.0</ele><time>2026-05-01T07:40:09Z</time></trkpt><trkpt lat="44.85853407470196" lon="7.723130134946831"><ele>241.0</ele><time>2026-05-01T07:40:10Z</time></trkpt><trkpt lat="44.858469679699766" lon="7.723178812945971"><ele>241.0</ele><time>2026-05-01T07:40:11Z</time></trkpt><trkpt lat="44.858408937039634" lon="7.723217852836231"><ele>240.99999999999997</ele><time>2026-05-01T07:40:12Z</time></trkpt><trkpt lat="44.85834690890558" lon="7.723241079166484"><ele>241.0</ele><time>2026-05-01T07:40:13Z</time></trkpt><trkpt lat="44.85822879935746" lon="7.723269158249958"><ele>241.0</ele><time>2026-05-01T07:40:15Z</time></trkpt><trkpt lat="44.85810922043526" lon="7.723316196994293"><ele>241.00000000000003</ele><time>2026-05-01T07:40:17Z</time></trkpt><trkpt lat="44.85803570355693" lon="7.723364726343277"><ele>241.00000000000003</ele><time>2026-05-01T07:40:18Z</time></trkpt><trkpt lat="44.857950001843754" lon="7.723411845140376"><ele>241.0</ele><time>2026-05-01T07:40:19Z</time></trkpt><trkpt lat="44.857849795637804" lon="7.7234500149757865"><ele>241.0</ele><time>2026-05-01T07:40:20Z</time></trkpt><trkpt lat="44.857733265730104" lon="7.723480219129361"><ele>240.60000000000002</ele><time>2026-05-01T07:40:21Z</time></trkpt><trkpt lat="44.85761788909195" lon="7.7234997601847635"><ele>240.20000000000002</ele><time>2026-05-01T07:40:22Z</time></trkpt><trkpt lat="44.85750704238749" lon="7.7235154672606265"><ele>239.79999999999998</ele><time>2026-05-01T07:40:23Z</time></trkpt><trkpt lat="44.857397368406374" lon="7.7235352989375095"><ele>239.39999999999998</ele><time>2026-05-01T07:40:24Z</time></trkpt><trkpt lat="44.857292994438694" lon="7.723562264036806"><ele>239.0</ele><time>2026-05-01T07:40:25Z</time></trkpt><trkpt lat="44.85718956576159" lon="7.723581494467291"><ele>239.6</ele><time>2026-05-01T07:40:26Z</time></trkpt><trkpt lat="44.85709024438467" lon="7.72360100143882"><ele>240.2</ele><time>2026-05-01T07:40:27Z</time></trkpt><trkpt lat="44.85699254298423" lon="7.723616398250503"><ele>240.79999999999998</ele><time>2026-05-01T07:40:28Z</time></trkpt><trkpt lat="44.8569000078876" lon="7.72363303465963"><ele>241.39999999999998</ele><time>2026-05-01T07:40:29Z</time></trkpt><trkpt lat="44.85681202663766" lon="7.7236505083794444"><ele>242.0</ele><time>2026-05-01T07:40:30Z</time></trkpt><trkpt lat="44.85672741877468" lon="7.723667920027673"><ele>242.00000000000003</ele><time>2026-05-01T07:40:31Z</time></trkpt><trkpt lat="44.8566414645221" lon="7.723686848566764"><ele>242.0</ele><time>2026-05-01T07:40:32Z</time></trkpt><trkpt lat="44.85655694931093" lon="7.723708864842669"><ele>242.0</ele><time>2026-05-01T07:40:33Z</time></trkpt><trkpt lat="44.85646838615633" lon="7.723736590085295"><ele>242.0</ele><time>2026-05-01T07:40:34Z</time></trkpt><trkpt lat="44.856382952217686" lon="7.723766963741222"><ele>242.00000000000003</ele><time>2026-05-01T07:40:35Z</time></trkpt><trkpt lat="44.85629855184433" lon="7.723761662948118"><ele>242.0</ele><time>2026-05-01T07:40:36Z</time></trkpt><trkpt lat="44.85621168666124" lon="7.7237794231088515"><ele>242.00000000000003</ele><time>2026-05-01T07:40:37Z</time></trkpt><trkpt lat="44.856124017291286" lon="7.723797347690536"><ele>242.0</ele><time>2026-05-01T07:40:38Z</time></trkpt><trkpt lat="44.856042339129004" lon="7.723813896826885"><ele>242.0</ele><time>2026-05-01T07:40:39Z</time></trkpt><trkpt lat="44.85596518150777" lon="7.72382943269776"><ele>242.0</ele><time>2026-05-01T07:40:40Z</time></trkpt><trkpt lat="44.8559025559917" lon="7.723864219339733"><ele>242.00000000000003</ele><time>2026-05-01T07:40:41Z</time></trkpt><trkpt lat="44.85580868189953" lon="7.723874752741263"><ele>242.0</ele><time>2026-05-01T07:40:43Z</time></trkpt><trkpt lat="44.855706321588585" lon="7.723892880605145"><ele>241.39999999999998</ele><time>2026-05-01T07:40:45Z</time></trkpt><trkpt lat="44.855634904787856" lon="7.723905337278584"><ele>240.79999999999998</ele><time>2026-05-01T07:40:46Z</time></trkpt><trkpt lat="44.855547213406055" lon="7.723916481127627"><ele>240.2</ele><time>2026-05-01T07:40:47Z</time></trkpt><trkpt lat="44.855441147302685" lon="7.723935419645793"><ele>239.6</ele><time>2026-05-01T07:40:48Z</time></trkpt><trkpt lat="44.855324221165596" lon="7.72395951468075"><ele>239.0</ele><time>2026-05-01T07:40:49Z</time></trkpt><trkpt lat="44.855194769177174" lon="7.7239868279925785"><ele>239.0</ele><time>2026-05-01T07:40:50Z</time></trkpt><trkpt lat="44.85505407754544" lon="7.7240170276904205"><ele>239.0</ele><time>2026-05-01T07:40:51Z</time></trkpt><trkpt lat="44.85490404699965" lon="7.724048891543011"><ele>239.0</ele><time>2026-05-01T07:40:52Z</time></trkpt><trkpt lat="44.85474970058683" lon="7.724080148433294"><ele>239.0</ele><time>2026-05-01T07:40:53Z</time></trkpt><trkpt lat="44.8545859213184" lon="7.7241175443215475"><ele>239.0</ele><time>2026-05-01T07:40:54Z</time></trkpt><trkpt lat="44.854422350005024" lon="7.7241555986831925"><ele>239.0</ele><time>2026-05-01T07:40:55Z</time></trkpt><trkpt lat="44.85430859085198" lon="7.724166433800322"><ele>239.0</ele><time>2026-05-01T07:40:56Z</time></trkpt><trkpt lat="44.85415681520944" lon="7.724202743446842"><ele>239.25</ele><time>2026-05-01T07:40:57Z</time></trkpt><trkpt lat="44.85400945601201" lon="7.724228862039495"><ele>239.5</ele><time>2026-05-01T07:40:58Z</time></trkpt><trkpt lat="44.85386440548823" lon="7.724252392827621"><ele>239.75</ele><time>2026-05-01T07:40:59Z</time></trkpt><trkpt lat="44.85371008804737" lon="7.724271555107266"><ele>240.0</ele><time>2026-05-01T07:41:00Z</time></trkpt><trkpt lat="44.853555862646104" lon="7.724294294400248"><ele>240.33333333333331</ele><time>2026-05-01T07:41:01Z</time></trkpt><trkpt lat="44.853404749007574" lon="7.72433046761117"><ele>240.66666666666666</ele><time>2026-05-01T07:41:01.999Z</time></trkpt><trkpt lat="44.8532558857839" lon="7.724365434858687"><ele>241.0</ele><time>2026-05-01T07:41:02.999Z</time></trkpt><trkpt lat="44.853100272263205" lon="7.724392909290716"><ele>240.66666666666666</ele><time>2026-05-01T07:41:03.999Z</time></trkpt><trkpt lat="44.85295673695201" lon="7.724428894857006"><ele>240.33333333333331</ele><time>2026-05-01T07:41:04.999Z</time></trkpt><trkpt lat="44.852805274813896" lon="7.7244598551098855"><ele>240.0</ele><time>2026-05-01T07:41:05.999Z</time></trkpt><trkpt lat="44.85265519323303" lon="7.724488165385332"><ele>239.5</ele><time>2026-05-01T07:41:06.999Z</time></trkpt><trkpt lat="44.85250789690158" lon="7.7245114591194115"><ele>239.0</ele><time>2026-05-01T07:41:07.999Z</time></trkpt><trkpt lat="44.85236872978773" lon="7.7245438577518755"><ele>238.5</ele><time>2026-05-01T07:41:08.999Z</time></trkpt><trkpt lat="44.85223421926652" lon="7.724566700411527"><ele>238.0</ele><time>2026-05-01T07:41:09.999Z</time></trkpt><trkpt lat="44.85210414049193" lon="7.7245879533763455"><ele>238.0</ele><time>2026-05-01T07:41:10.999Z</time></trkpt><trkpt lat="44.8519787606226" lon="7.724603035781208"><ele>238.0</ele><time>2026-05-01T07:41:11.999Z</time></trkpt><trkpt lat="44.8518612411337" lon="7.724617833468408"><ele>238.0</ele><time>2026-05-01T07:41:12.999Z</time></trkpt><trkpt lat="44.85175298776686" lon="7.724630230240434"><ele>238.0</ele><time>2026-05-01T07:41:13.999Z</time></trkpt><trkpt lat="44.85165303250279" lon="7.724644621071988"><ele>238.33333333333331</ele><time>2026-05-01T07:41:14.999Z</time></trkpt><trkpt lat="44.85155875057594" lon="7.724652678953023"><ele>238.66666666666666</ele><time>2026-05-01T07:41:15.999Z</time></trkpt><trkpt lat="44.85147223381193" lon="7.72466432082403"><ele>239.0</ele><time>2026-05-01T07:41:16.999Z</time></trkpt><trkpt lat="44.851390746355165" lon="7.724669566759018"><ele>239.33333333333331</ele><time>2026-05-01T07:41:17.999Z</time></trkpt><trkpt lat="44.851314040774604" lon="7.7246687768661"><ele>239.66666666666666</ele><time>2026-05-01T07:41:18.999Z</time></trkpt><trkpt lat="44.85124180667952" lon="7.72468593537374"><ele>240.0</ele><time>2026-05-01T07:41:19.999Z</time></trkpt><trkpt lat="44.851187161298576" lon="7.724752368706346"><ele>240.0</ele><time>2026-05-01T07:41:20.999Z</time></trkpt><trkpt lat="44.85116191651936" lon="7.724864176004989"><ele>240.0</ele><time>2026-05-01T07:41:21.999Z</time></trkpt><trkpt lat="44.851172460615985" lon="7.724996226317193"><ele>240.0</ele><time>2026-05-01T07:41:22.999Z</time></trkpt><trkpt lat="44.8511956834894" lon="7.725147180968448"><ele>240.0</ele><time>2026-05-01T07:41:23.999Z</time></trkpt><trkpt lat="44.8512144391442" lon="7.7253130169133355"><ele>240.0</ele><time>2026-05-01T07:41:24.999Z</time></trkpt><trkpt lat="44.8511300196138" lon="7.725501540894584"><ele>240.0</ele><time>2026-05-01T07:41:25.999Z</time></trkpt><trkpt lat="44.851234352796176" lon="7.7256689905285345"><ele>240.0</ele><time>2026-05-01T07:41:26.999Z</time></trkpt><trkpt lat="44.85124547697364" lon="7.725847338375153"><ele>240.0</ele><time>2026-05-01T07:41:27.999Z</time></trkpt><trkpt lat="44.851253660878974" lon="7.72601212920466"><ele>240.0</ele><time>2026-05-01T07:41:28.999Z</time></trkpt><trkpt lat="44.85125768765612" lon="7.726174873595098"><ele>240.5</ele><time>2026-05-01T07:41:29.999Z</time></trkpt><trkpt lat="44.85125881160761" lon="7.726353750498308"><ele>241.0</ele><time>2026-05-01T07:41:30.999Z</time></trkpt><trkpt lat="44.85127032286335" lon="7.726534253526684"><ele>241.5</ele><time>2026-05-01T07:41:31.999Z</time></trkpt><trkpt lat="44.85127885747909" lon="7.726717914570972"><ele>242.0</ele><time>2026-05-01T07:41:32.999Z</time></trkpt><trkpt lat="44.85127183889144" lon="7.726905160135083"><ele>242.0</ele><time>2026-05-01T07:41:33.999Z</time></trkpt><trkpt lat="44.85123632144903" lon="7.727091695432846"><ele>242.0</ele><time>2026-05-01T07:41:34.999Z</time></trkpt><trkpt lat="44.85118317368131" lon="7.727294177020041"><ele>242.0</ele><time>2026-05-01T07:41:35.999Z</time></trkpt><trkpt lat="44.85111185280208" lon="7.727493961190747"><ele>242.0</ele><time>2026-05-01T07:41:36.999Z</time></trkpt><trkpt lat="44.85103192810909" lon="7.72771162058656"><ele>241.66666666666669</ele><time>2026-05-01T07:41:37.999Z</time></trkpt><trkpt lat="44.85096083763328" lon="7.727931934951979"><ele>241.33333333333331</ele><time>2026-05-01T07:41:38.999Z</time></trkpt><trkpt lat="44.85089406370117" lon="7.728154085901536"><ele>241.0</ele><time>2026-05-01T07:41:39.999Z</time></trkpt><trkpt lat="44.85083820216944" lon="7.728371287522738"><ele>241.0</ele><time>2026-05-01T07:41:40.999Z</time></trkpt><trkpt lat="44.85079272740407" lon="7.728592989178228"><ele>241.0</ele><time>2026-05-01T07:41:41.999Z</time></trkpt><trkpt lat="44.850751764081465" lon="7.728816347779794"><ele>241.0</ele><time>2026-05-01T07:41:42.999Z</time></trkpt><trkpt lat="44.85071305608879" lon="7.729035883225768"><ele>241.0</ele><time>2026-05-01T07:41:43.999Z</time></trkpt><trkpt lat="44.85067791068566" lon="7.729250313305257"><ele>241.0</ele><time>2026-05-01T07:41:44.999Z</time></trkpt><trkpt lat="44.85064326212662" lon="7.729460502738093"><ele>241.0</ele><time>2026-05-01T07:41:45.999Z</time></trkpt><trkpt lat="44.850601651655644" lon="7.729659895666898"><ele>240.75</ele><time>2026-05-01T07:41:46.999Z</time></trkpt><trkpt lat="44.850546342594605" lon="7.729849708712973"><ele>240.5</ele><time>2026-05-01T07:41:47.999Z</time></trkpt><trkpt lat="44.85047055740667" lon="7.73002896122957"><ele>240.25</ele><time>2026-05-01T07:41:48.999Z</time></trkpt><trkpt lat="44.850354984584854" lon="7.730165079383175"><ele>240.0</ele><time>2026-05-01T07:41:49.999Z</time></trkpt><trkpt lat="44.850235055593615" lon="7.730282004473195"><ele>240.25</ele><time>2026-05-01T07:41:50.999Z</time></trkpt><trkpt lat="44.8501005413356" lon="7.730376229765326"><ele>240.5</ele><time>2026-05-01T07:41:51.999Z</time></trkpt><trkpt lat="44.849967873388174" lon="7.730457670991071"><ele>240.75</ele><time>2026-05-01T07:41:52.999Z</time></trkpt><trkpt lat="44.84982614982709" lon="7.730493977088588"><ele>241.0</ele><time>2026-05-01T07:41:53.999Z</time></trkpt><trkpt lat="44.84968807033965" lon="7.730534388572919"><ele>241.0</ele><time>2026-05-01T07:41:54.999Z</time></trkpt><trkpt lat="44.84955181558883" lon="7.730578942540702"><ele>241.0</ele><time>2026-05-01T07:41:55.999Z</time></trkpt><trkpt lat="44.8494189872863" lon="7.730619066841519"><ele>241.0</ele><time>2026-05-01T07:41:56.999Z</time></trkpt><trkpt lat="44.849278454188216" lon="7.730637211615633"><ele>241.0</ele><time>2026-05-01T07:41:57.999Z</time></trkpt><trkpt lat="44.84913313855063" lon="7.730616307432373"><ele>241.33333333333331</ele><time>2026-05-01T07:41:58.999Z</time></trkpt><trkpt lat="44.848976846251766" lon="7.7305631380487805"><ele>241.66666666666669</ele><time>2026-05-01T07:42:00Z</time></trkpt><trkpt lat="44.848810816726804" lon="7.730478111262141"><ele>242.0</ele><time>2026-05-01T07:42:01Z</time></trkpt><trkpt lat="44.84863871008984" lon="7.730386920686572"><ele>241.33333333333334</ele><time>2026-05-01T07:42:02Z</time></trkpt><trkpt lat="44.848458705153206" lon="7.730289243907145"><ele>240.66666666666669</ele><time>2026-05-01T07:42:03Z</time></trkpt><trkpt lat="44.848270995344734" lon="7.730182243161872"><ele>240.0</ele><time>2026-05-01T07:42:04Z</time></trkpt><trkpt lat="44.84808217528382" lon="7.730073607097243"><ele>240.0</ele><time>2026-05-01T07:42:05Z</time></trkpt><trkpt lat="44.84789301402786" lon="7.7299685171084445"><ele>240.0</ele><time>2026-05-01T07:42:06Z</time></trkpt><trkpt lat="44.84770700715541" lon="7.72986379935898"><ele>240.0</ele><time>2026-05-01T07:42:07Z</time></trkpt><trkpt lat="44.84752464329384" lon="7.729761079384465"><ele>241.0</ele><time>2026-05-01T07:42:08Z</time></trkpt><trkpt lat="44.847345175996075" lon="7.729662039110266"><ele>242.0</ele><time>2026-05-01T07:42:09Z</time></trkpt><trkpt lat="44.84717528195027" lon="7.7295677646737495"><ele>243.0</ele><time>2026-05-01T07:42:10Z</time></trkpt><trkpt lat="44.84699945468766" lon="7.729476537366499"><ele>242.66666666666669</ele><time>2026-05-01T07:42:11Z</time></trkpt><trkpt lat="44.84682943723928" lon="7.729373701830219"><ele>242.33333333333334</ele><time>2026-05-01T07:42:12Z</time></trkpt><trkpt lat="44.846659584393315" lon="7.729278489126455"><ele>242.0</ele><time>2026-05-01T07:42:13Z</time></trkpt><trkpt lat="44.84649214608052" lon="7.729186629232249"><ele>242.0</ele><time>2026-05-01T07:42:14Z</time></trkpt><trkpt lat="44.84632728103214" lon="7.729091915413452"><ele>242.0</ele><time>2026-05-01T07:42:15Z</time></trkpt><trkpt lat="44.84616201458183" lon="7.7290040224185725"><ele>242.0</ele><time>2026-05-01T07:42:16Z</time></trkpt><trkpt lat="44.84600094582846" lon="7.728912513956315"><ele>241.66666666666669</ele><time>2026-05-01T07:42:17Z</time></trkpt><trkpt lat="44.84584295384081" lon="7.728825531016864"><ele>241.33333333333331</ele><time>2026-05-01T07:42:18Z</time></trkpt><trkpt lat="44.84568570730849" lon="7.728745823241494"><ele>241.0</ele><time>2026-05-01T07:42:19Z</time></trkpt><trkpt lat="44.84553222971286" lon="7.728656316032759"><ele>241.0</ele><time>2026-05-01T07:42:20Z</time></trkpt><trkpt lat="44.84537720090834" lon="7.72856857789417"><ele>241.0</ele><time>2026-05-01T07:42:21Z</time></trkpt><trkpt lat="44.84522264143469" lon="7.728484018840172"><ele>241.0</ele><time>2026-05-01T07:42:22Z</time></trkpt><trkpt lat="44.84506795827361" lon="7.728404383026257"><ele>241.33333333333331</ele><time>2026-05-01T07:42:23Z</time></trkpt><trkpt lat="44.844912498324504" lon="7.728326957557583"><ele>241.66666666666669</ele><time>2026-05-01T07:42:24Z</time></trkpt><trkpt lat="44.8447592951895" lon="7.728247135852721"><ele>242.0</ele><time>2026-05-01T07:42:25Z</time></trkpt><trkpt lat="44.84461038821311" lon="7.728159167863769"><ele>242.0</ele><time>2026-05-01T07:42:26Z</time></trkpt><trkpt lat="44.844467386866505" lon="7.7280635408502585"><ele>242.0</ele><time>2026-05-01T07:42:27Z</time></trkpt><trkpt lat="44.84432024960922" lon="7.727973769946047"><ele>242.0</ele><time>2026-05-01T07:42:28Z</time></trkpt><trkpt lat="44.84417235845861" lon="7.727890678297495"><ele>241.66666666666669</ele><time>2026-05-01T07:42:29Z</time></trkpt><trkpt lat="44.84401941449945" lon="7.727812969731969"><ele>241.33333333333331</ele><time>2026-05-01T07:42:30Z</time></trkpt><trkpt lat="44.8438678120994" lon="7.727730933561107"><ele>241.0</ele><time>2026-05-01T07:42:31Z</time></trkpt><trkpt lat="44.84372102465671" lon="7.7276513955120585"><ele>241.0</ele><time>2026-05-01T07:42:32Z</time></trkpt><trkpt lat="44.84358511444287" lon="7.727567064943729"><ele>241.0</ele><time>2026-05-01T07:42:33Z</time></trkpt><trkpt lat="44.843452115413136" lon="7.727500242105811"><ele>241.0</ele><time>2026-05-01T07:42:34Z</time></trkpt><trkpt lat="44.84332636847203" lon="7.727446655732994"><ele>241.0</ele><time>2026-05-01T07:42:35Z</time></trkpt><trkpt lat="44.843205245388845" lon="7.7274002443537935"><ele>241.16666666666666</ele><time>2026-05-01T07:42:36Z</time></trkpt><trkpt lat="44.843105347915056" lon="7.727358826018324"><ele>241.33333333333331</ele><time>2026-05-01T07:42:37Z</time></trkpt><trkpt lat="44.8430285693562" lon="7.727318980662487"><ele>241.5</ele><time>2026-05-01T07:42:38Z</time></trkpt><trkpt lat="44.84297150396319" lon="7.727275951981681"><ele>241.66666666666669</ele><time>2026-05-01T07:42:39Z</time></trkpt><trkpt lat="44.84290535484664" lon="7.727152112598104"><ele>241.83333333333334</ele><time>2026-05-01T07:42:41Z</time></trkpt><trkpt lat="44.842859741535065" lon="7.7270907706533585"><ele>242.0</ele><time>2026-05-01T07:42:42Z</time></trkpt><trkpt lat="44.84280487357084" lon="7.727020442690259"><ele>242.0</ele><time>2026-05-01T07:42:43Z</time></trkpt><trkpt lat="44.842701363434344" lon="7.7270791170525275"><ele>242.0</ele><time>2026-05-01T07:42:44Z</time></trkpt><trkpt lat="44.842616586790434" lon="7.727195335569794"><ele>242.0</ele><time>2026-05-01T07:42:45Z</time></trkpt><trkpt lat="44.84252062023546" lon="7.727315349023584"><ele>242.0</ele><time>2026-05-01T07:42:46Z</time></trkpt><trkpt lat="44.84242279216699" lon="7.7274321365346905"><ele>242.0</ele><time>2026-05-01T07:42:47Z</time></trkpt><trkpt lat="44.8423183668433" lon="7.7275393697073325"><ele>242.0</ele><time>2026-05-01T07:42:48Z</time></trkpt><trkpt lat="44.84220920993553" lon="7.7276424571831"><ele>242.0</ele><time>2026-05-01T07:42:49Z</time></trkpt><trkpt lat="44.842100000874915" lon="7.727751889230183"><ele>242.0</ele><time>2026-05-01T07:42:50Z</time></trkpt><trkpt lat="44.84199942027838" lon="7.727853063093439"><ele>242.25</ele><time>2026-05-01T07:42:51Z</time></trkpt><trkpt lat="44.841901696218386" lon="7.727959246451114"><ele>242.5</ele><time>2026-05-01T07:42:52Z</time></trkpt><trkpt lat="44.84180246601536" lon="7.728071163607291"><ele>242.75</ele><time>2026-05-01T07:42:53Z</time></trkpt><trkpt lat="44.841689726288486" lon="7.728167393874388"><ele>243.0</ele><time>2026-05-01T07:42:54Z</time></trkpt><trkpt lat="44.84158182763424" lon="7.72828684364781"><ele>243.0</ele><time>2026-05-01T07:42:55Z</time></trkpt><trkpt lat="44.841467780783375" lon="7.728413099809073"><ele>243.0</ele><time>2026-05-01T07:42:56Z</time></trkpt><trkpt lat="44.841355547673594" lon="7.728538208524818"><ele>243.0</ele><time>2026-05-01T07:42:57Z</time></trkpt><trkpt lat="44.84124206350208" lon="7.728665298851733"><ele>243.0</ele><time>2026-05-01T07:42:58Z</time></trkpt><trkpt lat="44.84113331420925" lon="7.728787086605828"><ele>243.0</ele><time>2026-05-01T07:42:59Z</time></trkpt><trkpt lat="44.84103149601434" lon="7.728901112315292"><ele>243.0</ele><time>2026-05-01T07:43:00Z</time></trkpt><trkpt lat="44.84094291313337" lon="7.729030133244251"><ele>243.0</ele><time>2026-05-01T07:43:01Z</time></trkpt><trkpt lat="44.840842009257074" lon="7.72913810674474"><ele>243.0</ele><time>2026-05-01T07:43:02Z</time></trkpt><trkpt lat="44.84074004863387" lon="7.729248369990847"><ele>243.0</ele><time>2026-05-01T07:43:03Z</time></trkpt><trkpt lat="44.84063791464508" lon="7.729359849796968"><ele>243.0</ele><time>2026-05-01T07:43:03.999Z</time></trkpt><trkpt lat="44.840530167666614" lon="7.729450719455487"><ele>243.0</ele><time>2026-05-01T07:43:04.999Z</time></trkpt><trkpt lat="44.84043502140089" lon="7.729556810706059"><ele>243.0</ele><time>2026-05-01T07:43:05.999Z</time></trkpt><trkpt lat="44.840341190241304" lon="7.729661435754019"><ele>243.0</ele><time>2026-05-01T07:43:06.999Z</time></trkpt><trkpt lat="44.84024322334554" lon="7.729769952267143"><ele>243.0</ele><time>2026-05-01T07:43:07.999Z</time></trkpt><trkpt lat="44.84014313916926" lon="7.7298796922179935"><ele>243.0</ele><time>2026-05-01T07:43:08.999Z</time></trkpt><trkpt lat="44.840046635467985" lon="7.729985506193086"><ele>243.0</ele><time>2026-05-01T07:43:09.999Z</time></trkpt><trkpt lat="44.83994969198719" lon="7.730091802405606"><ele>243.0</ele><time>2026-05-01T07:43:10.999Z</time></trkpt><trkpt lat="44.83985781984106" lon="7.730192539266657"><ele>243.0</ele><time>2026-05-01T07:43:11.999Z</time></trkpt><trkpt lat="44.83976653609384" lon="7.730293404391998"><ele>243.0</ele><time>2026-05-01T07:43:12.999Z</time></trkpt><trkpt lat="44.83967205608818" lon="7.730397818961003"><ele>243.0</ele><time>2026-05-01T07:43:13.999Z</time></trkpt><trkpt lat="44.839574571973316" lon="7.73050555351183"><ele>243.0</ele><time>2026-05-01T07:43:14.999Z</time></trkpt><trkpt lat="44.839464841457335" lon="7.730626822136245"><ele>243.0</ele><time>2026-05-01T07:43:15.999Z</time></trkpt><trkpt lat="44.83931780633392" lon="7.730789485567997"><ele>243.0</ele><time>2026-05-01T07:43:16.999Z</time></trkpt><trkpt lat="44.839169561562336" lon="7.730973010608998"><ele>243.33333333333331</ele><time>2026-05-01T07:43:17.999Z</time></trkpt><trkpt lat="44.83900246890517" lon="7.731136856740159"><ele>243.66666666666666</ele><time>2026-05-01T07:43:18.999Z</time></trkpt><trkpt lat="44.838851340331374" lon="7.73131307267131"><ele>244.0</ele><time>2026-05-01T07:43:19.999Z</time></trkpt><trkpt lat="44.83869531069559" lon="7.731488403886649"><ele>244.0</ele><time>2026-05-01T07:43:20.999Z</time></trkpt><trkpt lat="44.83853915855302" lon="7.73165931308364"><ele>244.0</ele><time>2026-05-01T07:43:21.999Z</time></trkpt><trkpt lat="44.83838149509071" lon="7.731831741636757"><ele>244.0</ele><time>2026-05-01T07:43:22.999Z</time></trkpt><trkpt lat="44.83822551157769" lon="7.7320050927751005"><ele>243.66666666666666</ele><time>2026-05-01T07:43:23.999Z</time></trkpt><trkpt lat="44.83806938633754" lon="7.732181334030255"><ele>243.33333333333331</ele><time>2026-05-01T07:43:24.999Z</time></trkpt><trkpt lat="44.837911578547725" lon="7.732356849377146"><ele>243.0</ele><time>2026-05-01T07:43:25.999Z</time></trkpt><trkpt lat="44.837751723131674" lon="7.732532329312695"><ele>242.66666666666669</ele><time>2026-05-01T07:43:26.999Z</time></trkpt><trkpt lat="44.8375838247498" lon="7.732714331652297"><ele>242.33333333333334</ele><time>2026-05-01T07:43:27.999Z</time></trkpt><trkpt lat="44.83740645373714" lon="7.732909561381491"><ele>242.0</ele><time>2026-05-01T07:43:28.999Z</time></trkpt><trkpt lat="44.83723258215732" lon="7.733096707781314"><ele>241.66666666666669</ele><time>2026-05-01T07:43:29.999Z</time></trkpt><trkpt lat="44.83705472567157" lon="7.733292098187158"><ele>241.33333333333331</ele><time>2026-05-01T07:43:30.999Z</time></trkpt><trkpt lat="44.83688329236279" lon="7.7334824692669875"><ele>241.0</ele><time>2026-05-01T07:43:31.999Z</time></trkpt><trkpt lat="44.83671372253272" lon="7.733672742782455"><ele>241.0</ele><time>2026-05-01T07:43:32.999Z</time></trkpt><trkpt lat="44.83654368626789" lon="7.733860394116094"><ele>241.0</ele><time>2026-05-01T07:43:33.999Z</time></trkpt><trkpt lat="44.836374115359476" lon="7.734046572229784"><ele>241.0</ele><time>2026-05-01T07:43:34.999Z</time></trkpt><trkpt lat="44.83620739773844" lon="7.7342314701079395"><ele>241.33333333333331</ele><time>2026-05-01T07:43:35.999Z</time></trkpt><trkpt lat="44.83603997044716" lon="7.7344105877671"><ele>241.66666666666669</ele><time>2026-05-01T07:43:36.999Z</time></trkpt><trkpt lat="44.83587424880675" lon="7.734589602839152"><ele>242.0</ele><time>2026-05-01T07:43:37.999Z</time></trkpt><trkpt lat="44.8357158612685" lon="7.734744879786253"><ele>242.33333333333334</ele><time>2026-05-01T07:43:38.999Z</time></trkpt><trkpt lat="44.835560561687366" lon="7.734897718932258"><ele>242.66666666666669</ele><time>2026-05-01T07:43:39.999Z</time></trkpt><trkpt lat="44.83540807330894" lon="7.735044109039129"><ele>243.0</ele><time>2026-05-01T07:43:40.999Z</time></trkpt><trkpt lat="44.83525478703981" lon="7.7352738560335075"><ele>243.33333333333331</ele><time>2026-05-01T07:43:41.999Z</time></trkpt><trkpt lat="44.83510761219322" lon="7.7354428382961435"><ele>243.66666666666666</ele><time>2026-05-01T07:43:42.999Z</time></trkpt><trkpt lat="44.83496199548105" lon="7.735603059440492"><ele>244.0</ele><time>2026-05-01T07:43:43.999Z</time></trkpt><trkpt lat="44.83482200692395" lon="7.735759153706447"><ele>244.0</ele><time>2026-05-01T07:43:44.999Z</time></trkpt><trkpt lat="44.83468403166802" lon="7.735907705707446"><ele>244.0</ele><time>2026-05-01T07:43:45.999Z</time></trkpt><trkpt lat="44.8345583304958" lon="7.736048521772281"><ele>244.0</ele><time>2026-05-01T07:43:46.999Z</time></trkpt><trkpt lat="44.83443972649039" lon="7.7361894969706295"><ele>243.75</ele><time>2026-05-01T07:43:47.999Z</time></trkpt><trkpt lat="44.83433454500357" lon="7.7363080854601405"><ele>243.5</ele><time>2026-05-01T07:43:48.999Z</time></trkpt><trkpt lat="44.83423209263726" lon="7.736410631970405"><ele>243.25</ele><time>2026-05-01T07:43:49.999Z</time></trkpt><trkpt lat="44.83412385918745" lon="7.736479340616078"><ele>243.0</ele><time>2026-05-01T07:43:50.999Z</time></trkpt><trkpt lat="44.83401811728024" lon="7.736500712096986"><ele>243.0</ele><time>2026-05-01T07:43:51.999Z</time></trkpt><trkpt lat="44.83393707273273" lon="7.736566093566593"><ele>243.0</ele><time>2026-05-01T07:43:52.999Z</time></trkpt><trkpt lat="44.833870470468064" lon="7.736699851754429"><ele>243.0</ele><time>2026-05-01T07:43:53.999Z</time></trkpt><trkpt lat="44.833805534513914" lon="7.736880623887331"><ele>243.0</ele><time>2026-05-01T07:43:54.999Z</time></trkpt><trkpt lat="44.83368103597765" lon="7.737002942829994"><ele>243.0</ele><time>2026-05-01T07:43:55.999Z</time></trkpt><trkpt lat="44.83353514502597" lon="7.737163676689123"><ele>243.0</ele><time>2026-05-01T07:43:56.999Z</time></trkpt><trkpt lat="44.833395034908285" lon="7.737341667261142"><ele>243.0</ele><time>2026-05-01T07:43:57.999Z</time></trkpt><trkpt lat="44.83323689521575" lon="7.737510403140224"><ele>243.0</ele><time>2026-05-01T07:43:58.999Z</time></trkpt><trkpt lat="44.83307699308412" lon="7.7376867273870875"><ele>243.0</ele><time>2026-05-01T07:43:59.999Z</time></trkpt><trkpt lat="44.83290961862833" lon="7.737867211729282"><ele>243.0</ele><time>2026-05-01T07:44:00.999Z</time></trkpt><trkpt lat="44.83274420952249" lon="7.73804665759578"><ele>244.33333333333331</ele><time>2026-05-01T07:44:01.999Z</time></trkpt><trkpt lat="44.83259422406432" lon="7.738212109473707"><ele>245.66666666666666</ele><time>2026-05-01T07:44:02.999Z</time></trkpt><trkpt lat="44.83244944435608" lon="7.73837069202057"><ele>247.0</ele><time>2026-05-01T07:44:03.999Z</time></trkpt><trkpt lat="44.83231795734139" lon="7.738521670085649"><ele>246.66666666666666</ele><time>2026-05-01T07:44:05Z</time></trkpt><trkpt lat="44.83218639202739" lon="7.738667537226812"><ele>246.33333333333331</ele><time>2026-05-01T07:44:06Z</time></trkpt><trkpt lat="44.83205593391942" lon="7.738813817256912"><ele>246.0</ele><time>2026-05-01T07:44:07Z</time></trkpt><trkpt lat="44.831925671486886" lon="7.7389589398813765"><ele>246.33333333333331</ele><time>2026-05-01T07:44:08Z</time></trkpt><trkpt lat="44.83179812176222" lon="7.7391003994128145"><ele>246.66666666666666</ele><time>2026-05-01T07:44:09Z</time></trkpt><trkpt lat="44.831680141874465" lon="7.739231985953698"><ele>247.0</ele><time>2026-05-01T07:44:10Z</time></trkpt><trkpt lat="44.831566643218615" lon="7.739358478104343"><ele>246.75</ele><time>2026-05-01T07:44:11Z</time></trkpt><trkpt lat="44.831453214904556" lon="7.739467042795195"><ele>246.5</ele><time>2026-05-01T07:44:12Z</time></trkpt><trkpt lat="44.831334773795625" lon="7.739542551868586"><ele>246.25</ele><time>2026-05-01T07:44:13Z</time></trkpt><trkpt lat="44.83122191273322" lon="7.739579431558753"><ele>246.0</ele><time>2026-05-01T07:44:14Z</time></trkpt><trkpt lat="44.83112673955292" lon="7.739654719186857"><ele>246.0</ele><time>2026-05-01T07:44:15Z</time></trkpt><trkpt lat="44.83105891098999" lon="7.739816045770099"><ele>246.0</ele><time>2026-05-01T07:44:16Z</time></trkpt><trkpt lat="44.830975413761244" lon="7.739994605421189"><ele>246.0</ele><time>2026-05-01T07:44:17Z</time></trkpt><trkpt lat="44.83083653364159" lon="7.740133765144633"><ele>246.0</ele><time>2026-05-01T07:44:18Z</time></trkpt><trkpt lat="44.830685116077355" lon="7.740301475709683"><ele>246.0</ele><time>2026-05-01T07:44:19Z</time></trkpt><trkpt lat="44.83053357261549" lon="7.740488780453222"><ele>246.0</ele><time>2026-05-01T07:44:20Z</time></trkpt><trkpt lat="44.830366704851045" lon="7.740668715092541"><ele>246.0</ele><time>2026-05-01T07:44:21Z</time></trkpt><trkpt lat="44.83019336827702" lon="7.7408635520788005"><ele>246.0</ele><time>2026-05-01T07:44:22Z</time></trkpt><trkpt lat="44.830014422813655" lon="7.741060652096121"><ele>246.0</ele><time>2026-05-01T07:44:23Z</time></trkpt><trkpt lat="44.829834653508875" lon="7.741261935486238"><ele>245.5</ele><time>2026-05-01T07:44:24Z</time></trkpt><trkpt lat="44.82965353386111" lon="7.74146079535783"><ele>245.0</ele><time>2026-05-01T07:44:25Z</time></trkpt><trkpt lat="44.82947699901602" lon="7.741655922157662"><ele>245.0</ele><time>2026-05-01T07:44:26Z</time></trkpt><trkpt lat="44.82930734137068" lon="7.741846127257588"><ele>245.0</ele><time>2026-05-01T07:44:27Z</time></trkpt><trkpt lat="44.82914136334331" lon="7.742031539581717"><ele>245.0</ele><time>2026-05-01T07:44:28Z</time></trkpt><trkpt lat="44.8289761166506" lon="7.742215927856461"><ele>245.0</ele><time>2026-05-01T07:44:29Z</time></trkpt><trkpt lat="44.82880321087869" lon="7.742408257196622"><ele>245.0</ele><time>2026-05-01T07:44:30Z</time></trkpt><trkpt lat="44.828617787000596" lon="7.742617907849027"><ele>245.5</ele><time>2026-05-01T07:44:31Z</time></trkpt><trkpt lat="44.82840400273205" lon="7.7428216895055"><ele>246.0</ele><time>2026-05-01T07:44:32Z</time></trkpt><trkpt lat="44.82820092750332" lon="7.743044408620745"><ele>246.0</ele><time>2026-05-01T07:44:33Z</time></trkpt><trkpt lat="44.827998046278765" lon="7.7432692924896545"><ele>246.0</ele><time>2026-05-01T07:44:34Z</time></trkpt><trkpt lat="44.82780244002154" lon="7.743486112537661"><ele>246.5</ele><time>2026-05-01T07:44:35Z</time></trkpt><trkpt lat="44.82761825117918" lon="7.743714139912247"><ele>247.0</ele><time>2026-05-01T07:44:36Z</time></trkpt><trkpt lat="44.8274171423152" lon="7.743910904792409"><ele>247.0</ele><time>2026-05-01T07:44:37Z</time></trkpt><trkpt lat="44.8272249366996" lon="7.744125188388704"><ele>247.0</ele><time>2026-05-01T07:44:38Z</time></trkpt><trkpt lat="44.82703545554402" lon="7.744336547855388"><ele>246.5</ele><time>2026-05-01T07:44:39Z</time></trkpt><trkpt lat="44.826845098915584" lon="7.744542806403747"><ele>246.0</ele><time>2026-05-01T07:44:40Z</time></trkpt><trkpt lat="44.82665702545177" lon="7.744746993388081"><ele>245.5</ele><time>2026-05-01T07:44:41Z</time></trkpt><trkpt lat="44.8264706179818" lon="7.74495090857535"><ele>245.0</ele><time>2026-05-01T07:44:42Z</time></trkpt><trkpt lat="44.82628714063638" lon="7.745152266019475"><ele>244.5</ele><time>2026-05-01T07:44:43Z</time></trkpt><trkpt lat="44.82610604490316" lon="7.7453538512475335"><ele>244.0</ele><time>2026-05-01T07:44:44Z</time></trkpt><trkpt lat="44.82592714516004" lon="7.745556191844224"><ele>244.0</ele><time>2026-05-01T07:44:45Z</time></trkpt><trkpt lat="44.825747528069854" lon="7.745756227262902"><ele>244.0</ele><time>2026-05-01T07:44:46Z</time></trkpt><trkpt lat="44.82557312571574" lon="7.745947143410927"><ele>244.33333333333331</ele><time>2026-05-01T07:44:47Z</time></trkpt><trkpt lat="44.82539361966687" lon="7.746142145078776"><ele>244.66666666666669</ele><time>2026-05-01T07:44:48Z</time></trkpt><trkpt lat="44.825219549683865" lon="7.746336173205852"><ele>245.0</ele><time>2026-05-01T07:44:49Z</time></trkpt><trkpt lat="44.825046601801255" lon="7.746528164740809"><ele>245.0</ele><time>2026-05-01T07:44:50Z</time></trkpt><trkpt lat="44.82487654070619" lon="7.74671912932004"><ele>245.0</ele><time>2026-05-01T07:44:51Z</time></trkpt><trkpt lat="44.824705618542225" lon="7.746907349539339"><ele>245.0</ele><time>2026-05-01T07:44:52Z</time></trkpt><trkpt lat="44.82453250459409" lon="7.7470935230806015"><ele>245.0</ele><time>2026-05-01T07:44:53Z</time></trkpt><trkpt lat="44.82435881277825" lon="7.747278503659346"><ele>245.0</ele><time>2026-05-01T07:44:54Z</time></trkpt><trkpt lat="44.824186472822355" lon="7.747460809089318"><ele>245.0</ele><time>2026-05-01T07:44:55Z</time></trkpt><trkpt lat="44.82401942069987" lon="7.747649182739385"><ele>245.33333333333334</ele><time>2026-05-01T07:44:56Z</time></trkpt><trkpt lat="44.823853458959555" lon="7.74783954876797"><ele>245.66666666666669</ele><time>2026-05-01T07:44:57Z</time></trkpt><trkpt lat="44.823689410701164" lon="7.748041757543643"><ele>246.0</ele><time>2026-05-01T07:44:58Z</time></trkpt><trkpt lat="44.82352777058473" lon="7.748266927459874"><ele>246.5</ele><time>2026-05-01T07:44:59Z</time></trkpt><trkpt lat="44.82337899620127" lon="7.748516046377274"><ele>247.0</ele><time>2026-05-01T07:45:00Z</time></trkpt><trkpt lat="44.82323695945196" lon="7.748791807813279"><ele>246.0</ele><time>2026-05-01T07:45:01Z</time></trkpt><trkpt lat="44.82310558153417" lon="7.749089054307694"><ele>245.0</ele><time>2026-05-01T07:45:02Z</time></trkpt><trkpt lat="44.82298207048139" lon="7.749402831494673"><ele>244.5</ele><time>2026-05-01T07:45:03Z</time></trkpt><trkpt lat="44.82286831691621" lon="7.749707441840652"><ele>244.0</ele><time>2026-05-01T07:45:04Z</time></trkpt><trkpt lat="44.82275581245173" lon="7.749998974143293"><ele>247.5</ele><time>2026-05-01T07:45:05Z</time></trkpt><trkpt lat="44.82264409909738" lon="7.750286138472736"><ele>251.0</ele><time>2026-05-01T07:45:06Z</time></trkpt><trkpt lat="44.822532754559525" lon="7.750569850215906"><ele>251.0</ele><time>2026-05-01T07:45:07Z</time></trkpt><trkpt lat="44.82242358102877" lon="7.7508501136146455"><ele>251.0</ele><time>2026-05-01T07:45:07.999Z</time></trkpt><trkpt lat="44.82231429928133" lon="7.751128228242651"><ele>250.5</ele><time>2026-05-01T07:45:08.999Z</time></trkpt><trkpt lat="44.82220139539559" lon="7.751405344248689"><ele>250.0</ele><time>2026-05-01T07:45:09.999Z</time></trkpt><trkpt lat="44.82208245489078" lon="7.751677384435077"><ele>248.5</ele><time>2026-05-01T07:45:10.999Z</time></trkpt><trkpt lat="44.821946685479865" lon="7.751936897772722"><ele>247.0</ele><time>2026-05-01T07:45:11.999Z</time></trkpt><trkpt lat="44.821795483254775" lon="7.752174525931315"><ele>247.0</ele><time>2026-05-01T07:45:12.999Z</time></trkpt><trkpt lat="44.821634635166454" lon="7.752390947158601"><ele>247.0</ele><time>2026-05-01T07:45:13.999Z</time></trkpt><trkpt lat="44.82146506536371" lon="7.752597639879111"><ele>247.0</ele><time>2026-05-01T07:45:14.999Z</time></trkpt><trkpt lat="44.82128934862444" lon="7.7527887240918405"><ele>247.0</ele><time>2026-05-01T07:45:15.999Z</time></trkpt><trkpt lat="44.821109958355834" lon="7.75295909951764"><ele>247.0</ele><time>2026-05-01T07:45:16.999Z</time></trkpt><trkpt lat="44.82092961642132" lon="7.753107832188408"><ele>247.0</ele><time>2026-05-01T07:45:17.999Z</time></trkpt><trkpt lat="44.82074212615641" lon="7.753242105543104"><ele>246.33333333333331</ele><time>2026-05-01T07:45:18.999Z</time></trkpt><trkpt lat="44.82055161117435" lon="7.753360215973603"><ele>245.66666666666669</ele><time>2026-05-01T07:45:19.999Z</time></trkpt><trkpt lat="44.8203584415943" lon="7.753463711306774"><ele>245.0</ele><time>2026-05-01T07:45:20.999Z</time></trkpt><trkpt lat="44.820170039367945" lon="7.753541506780921"><ele>245.0</ele><time>2026-05-01T07:45:21.999Z</time></trkpt><trkpt lat="44.81999208483073" lon="7.7535804456056425"><ele>245.0</ele><time>2026-05-01T07:45:22.999Z</time></trkpt><trkpt lat="44.819781930059875" lon="7.753660639692996"><ele>245.0</ele><time>2026-05-01T07:45:23.999Z</time></trkpt><trkpt lat="44.8196017163276" lon="7.7537007254140855"><ele>245.0</ele><time>2026-05-01T07:45:24.999Z</time></trkpt><trkpt lat="44.819429958336556" lon="7.753743992625629"><ele>245.0</ele><time>2026-05-01T07:45:25.999Z</time></trkpt><trkpt lat="44.819264285004714" lon="7.75379709930658"><ele>245.0</ele><time>2026-05-01T07:45:26.999Z</time></trkpt><trkpt lat="44.81910580716959" lon="7.753866226475366"><ele>245.66666666666669</ele><time>2026-05-01T07:45:27.999Z</time></trkpt><trkpt lat="44.818956549412434" lon="7.753945559462192"><ele>246.33333333333331</ele><time>2026-05-01T07:45:28.999Z</time></trkpt><trkpt lat="44.818805899576034" lon="7.753989625112211"><ele>247.0</ele><time>2026-05-01T07:45:29.999Z</time></trkpt><trkpt lat="44.81868828976835" lon="7.754131328115234"><ele>247.0</ele><time>2026-05-01T07:45:30.999Z</time></trkpt><trkpt lat="44.81856599245513" lon="7.754220045029998"><ele>247.0</ele><time>2026-05-01T07:45:31.999Z</time></trkpt><trkpt lat="44.8184465923017" lon="7.754299990574954"><ele>247.0</ele><time>2026-05-01T07:45:32.999Z</time></trkpt><trkpt lat="44.81832792980384" lon="7.754365988697349"><ele>247.0</ele><time>2026-05-01T07:45:33.999Z</time></trkpt><trkpt lat="44.8182141875811" lon="7.754403793182334"><ele>246.99999999999997</ele><time>2026-05-01T07:45:34.999Z</time></trkpt><trkpt lat="44.81811006758921" lon="7.754404425715283"><ele>247.0</ele><time>2026-05-01T07:45:35.999Z</time></trkpt><trkpt lat="44.81801798953501" lon="7.754371684802709"><ele>247.0</ele><time>2026-05-01T07:45:36.999Z</time></trkpt><trkpt lat="44.81793812265733" lon="7.754346137044918"><ele>247.0</ele><time>2026-05-01T07:45:37.999Z</time></trkpt><trkpt lat="44.817858391072996" lon="7.754359502157265"><ele>246.99999999999997</ele><time>2026-05-01T07:45:38.999Z</time></trkpt><trkpt lat="44.817786743644874" lon="7.7544194587784885"><ele>247.0</ele><time>2026-05-01T07:45:39.999Z</time></trkpt><trkpt lat="44.81773442466265" lon="7.754527037400385"><ele>247.0</ele><time>2026-05-01T07:45:40.999Z</time></trkpt><trkpt lat="44.81771779266255" lon="7.754661823722365"><ele>247.0</ele><time>2026-05-01T07:45:41.999Z</time></trkpt><trkpt lat="44.817739153345286" lon="7.7548038391202665"><ele>247.0</ele><time>2026-05-01T07:45:42.999Z</time></trkpt><trkpt lat="44.81779686172485" lon="7.754926925512374"><ele>247.0</ele><time>2026-05-01T07:45:43.999Z</time></trkpt><trkpt lat="44.8178882845674" lon="7.7550152346805605"><ele>247.0</ele><time>2026-05-01T07:45:44.999Z</time></trkpt><trkpt lat="44.81800372408344" lon="7.755077377452868"><ele>247.0</ele><time>2026-05-01T07:45:45.999Z</time></trkpt><trkpt lat="44.818104077892166" lon="7.755173106200118"><ele>247.0</ele><time>2026-05-01T07:45:46.999Z</time></trkpt><trkpt lat="44.818180219087694" lon="7.7553352609901"><ele>247.0</ele><time>2026-05-01T07:45:47.999Z</time></trkpt><trkpt lat="44.81825171078346" lon="7.755543772649005"><ele>247.0</ele><time>2026-05-01T07:45:48.999Z</time></trkpt><trkpt lat="44.81831524322797" lon="7.755784879456158"><ele>247.33333333333331</ele><time>2026-05-01T07:45:49.999Z</time></trkpt><trkpt lat="44.818360414578265" lon="7.756034936501083"><ele>247.66666666666669</ele><time>2026-05-01T07:45:50.999Z</time></trkpt><trkpt lat="44.81838922646458" lon="7.756305199904947"><ele>248.0</ele><time>2026-05-01T07:45:51.999Z</time></trkpt><trkpt lat="44.818424166166324" lon="7.756590636338753"><ele>248.0</ele><time>2026-05-01T07:45:52.999Z</time></trkpt><trkpt lat="44.818467913421415" lon="7.7568748007592925"><ele>248.0</ele><time>2026-05-01T07:45:53.999Z</time></trkpt><trkpt lat="44.81851283333895" lon="7.757158379501061"><ele>248.0</ele><time>2026-05-01T07:45:54.999Z</time></trkpt><trkpt lat="44.818556435688485" lon="7.757433458488582"><ele>248.33333333333334</ele><time>2026-05-01T07:45:55.999Z</time></trkpt><trkpt lat="44.81860287026948" lon="7.757739276004041"><ele>248.66666666666669</ele><time>2026-05-01T07:45:56.999Z</time></trkpt><trkpt lat="44.818650165645884" lon="7.7580199548612265"><ele>249.0</ele><time>2026-05-01T07:45:57.999Z</time></trkpt><trkpt lat="44.818696776548975" lon="7.758291014761745"><ele>249.66666666666669</ele><time>2026-05-01T07:45:58.999Z</time></trkpt><trkpt lat="44.81873940914086" lon="7.758552927358846"><ele>250.33333333333334</ele><time>2026-05-01T07:45:59.999Z</time></trkpt><trkpt lat="44.81877969644246" lon="7.758810806080867"><ele>251.0</ele><time>2026-05-01T07:46:00.999Z</time></trkpt><trkpt lat="44.81881985432019" lon="7.759065869476606"><ele>251.0</ele><time>2026-05-01T07:46:01.999Z</time></trkpt><trkpt lat="44.8188536485853" lon="7.759320319730346"><ele>251.0</ele><time>2026-05-01T07:46:02.999Z</time></trkpt><trkpt lat="44.81887069891065" lon="7.759585041718761"><ele>251.0</ele><time>2026-05-01T07:46:03.999Z</time></trkpt><trkpt lat="44.81886410111464" lon="7.75986519956451"><ele>251.33333333333334</ele><time>2026-05-01T07:46:04.999Z</time></trkpt><trkpt lat="44.81882958219996" lon="7.760153566587037"><ele>251.66666666666669</ele><time>2026-05-01T07:46:05.999Z</time></trkpt><trkpt lat="44.8187651716002" lon="7.76044227601254"><ele>252.0</ele><time>2026-05-01T07:46:06.999Z</time></trkpt><trkpt lat="44.818673499116265" lon="7.760710502104869"><ele>252.0</ele><time>2026-05-01T07:46:07.999Z</time></trkpt><trkpt lat="44.818561249627784" lon="7.7609722998995325"><ele>252.0</ele><time>2026-05-01T07:46:08.999Z</time></trkpt><trkpt lat="44.818447407836814" lon="7.761245856644246"><ele>252.0</ele><time>2026-05-01T07:46:10Z</time></trkpt><trkpt lat="44.81834121053508" lon="7.761526659432084"><ele>251.5</ele><time>2026-05-01T07:46:11Z</time></trkpt><trkpt lat="44.81823407367268" lon="7.761815699958592"><ele>251.0</ele><time>2026-05-01T07:46:12Z</time></trkpt><trkpt lat="44.81812363015307" lon="7.762107298996566"><ele>250.5</ele><time>2026-05-01T07:46:13Z</time></trkpt><trkpt lat="44.81801184961019" lon="7.762407867054013"><ele>250.0</ele><time>2026-05-01T07:46:14Z</time></trkpt><trkpt lat="44.81790136232459" lon="7.76271260782094"><ele>250.0</ele><time>2026-05-01T07:46:15Z</time></trkpt><trkpt lat="44.81779170433991" lon="7.7630116179208155"><ele>250.0</ele><time>2026-05-01T07:46:16Z</time></trkpt><trkpt lat="44.81768115429415" lon="7.763311609697922"><ele>254.0</ele><time>2026-05-01T07:46:17Z</time></trkpt><trkpt lat="44.81756940588646" lon="7.7636114622741115"><ele>258.0</ele><time>2026-05-01T07:46:18Z</time></trkpt><trkpt lat="44.817459062538994" lon="7.763909441267855"><ele>258.0</ele><time>2026-05-01T07:46:19Z</time></trkpt><trkpt lat="44.81734967842841" lon="7.764204389846177"><ele>258.0</ele><time>2026-05-01T07:46:20Z</time></trkpt><trkpt lat="44.81724337433202" lon="7.7644954788823775"><ele>260.5</ele><time>2026-05-01T07:46:21Z</time></trkpt><trkpt lat="44.81713834199441" lon="7.764783783995237"><ele>263.0</ele><time>2026-05-01T07:46:22Z</time></trkpt><trkpt lat="44.81703118670063" lon="7.7650733414163575"><ele>263.5</ele><time>2026-05-01T07:46:23Z</time></trkpt><trkpt lat="44.816921909247576" lon="7.765365595606636"><ele>264.0</ele><time>2026-05-01T07:46:24Z</time></trkpt><trkpt lat="44.81681077862451" lon="7.765663179261877"><ele>264.5</ele><time>2026-05-01T07:46:25Z</time></trkpt><trkpt lat="44.81669854324361" lon="7.765962783687411"><ele>265.0</ele><time>2026-05-01T07:46:26Z</time></trkpt><trkpt lat="44.816580310524834" lon="7.766275451387064"><ele>265.0</ele><time>2026-05-01T07:46:27Z</time></trkpt><trkpt lat="44.81646205673309" lon="7.766595933411875"><ele>265.0</ele><time>2026-05-01T07:46:28Z</time></trkpt><trkpt lat="44.816341965122646" lon="7.766919779501369"><ele>266.0</ele><time>2026-05-01T07:46:29Z</time></trkpt><trkpt lat="44.81622019429346" lon="7.767245491613102"><ele>267.0</ele><time>2026-05-01T07:46:30Z</time></trkpt><trkpt lat="44.81613564747734" lon="7.767485484683227"><ele>266.5</ele><time>2026-05-01T07:46:31Z</time></trkpt><trkpt lat="44.816020584979086" lon="7.767792291963278"><ele>266.0</ele><time>2026-05-01T07:46:32Z</time></trkpt><trkpt lat="44.81590370637414" lon="7.768102576962128"><ele>266.0</ele><time>2026-05-01T07:46:33Z</time></trkpt><trkpt lat="44.81578573484643" lon="7.768412871389046"><ele>266.0</ele><time>2026-05-01T07:46:34Z</time></trkpt><trkpt lat="44.81566940552592" lon="7.768729501429882"><ele>267.5</ele><time>2026-05-01T07:46:35Z</time></trkpt><trkpt lat="44.815552863638224" lon="7.769042956647924"><ele>269.0</ele><time>2026-05-01T07:46:36Z</time></trkpt><trkpt lat="44.81543569885444" lon="7.769355359548982"><ele>269.5</ele><time>2026-05-01T07:46:37Z</time></trkpt><trkpt lat="44.81530239941475" lon="7.7696582902213125"><ele>270.0</ele><time>2026-05-01T07:46:38Z</time></trkpt><trkpt lat="44.81519823440387" lon="7.769986653978177"><ele>270.5</ele><time>2026-05-01T07:46:39Z</time></trkpt><trkpt lat="44.81508008484551" lon="7.770305821596238"><ele>271.0</ele><time>2026-05-01T07:46:40Z</time></trkpt><trkpt lat="44.81494574914102" lon="7.77061442855031"><ele>271.0</ele><time>2026-05-01T07:46:41Z</time></trkpt><trkpt lat="44.8148253977041" lon="7.770934658188088"><ele>271.0</ele><time>2026-05-01T07:46:42Z</time></trkpt><trkpt lat="44.81470439451851" lon="7.771255293368523"><ele>271.0</ele><time>2026-05-01T07:46:43Z</time></trkpt><trkpt lat="44.81458262778458" lon="7.77157795240413"><ele>271.0</ele><time>2026-05-01T07:46:44Z</time></trkpt><trkpt lat="44.81446068507778" lon="7.771901077736109"><ele>271.0</ele><time>2026-05-01T07:46:45Z</time></trkpt><trkpt lat="44.81433893433062" lon="7.772225811036914"><ele>271.0</ele><time>2026-05-01T07:46:46Z</time></trkpt><trkpt lat="44.81421772806154" lon="7.772549424152212"><ele>270.0</ele><time>2026-05-01T07:46:47Z</time></trkpt><trkpt lat="44.81409760062728" lon="7.772870157280906"><ele>269.0</ele><time>2026-05-01T07:46:48Z</time></trkpt><trkpt lat="44.813978646414014" lon="7.773188385283291"><ele>269.0</ele><time>2026-05-01T07:46:49Z</time></trkpt><trkpt lat="44.813860653842674" lon="7.773507697238529"><ele>269.0</ele><time>2026-05-01T07:46:50Z</time></trkpt><trkpt lat="44.81374414368705" lon="7.77382246469013"><ele>269.5</ele><time>2026-05-01T07:46:51Z</time></trkpt><trkpt lat="44.81364218158136" lon="7.774142581792246"><ele>270.0</ele><time>2026-05-01T07:46:52Z</time></trkpt><trkpt lat="44.81351128975227" lon="7.774444285665839"><ele>272.0</ele><time>2026-05-01T07:46:53Z</time></trkpt><trkpt lat="44.8133942411559" lon="7.774756856262526"><ele>274.0</ele><time>2026-05-01T07:46:54Z</time></trkpt><trkpt lat="44.813296928332754" lon="7.775081681583491"><ele>274.5</ele><time>2026-05-01T07:46:55Z</time></trkpt><trkpt lat="44.81317974685366" lon="7.775386292643101"><ele>275.0</ele><time>2026-05-01T07:46:56Z</time></trkpt><trkpt lat="44.81306450116861" lon="7.775692466258823"><ele>275.0</ele><time>2026-05-01T07:46:57Z</time></trkpt><trkpt lat="44.81294958190076" lon="7.775999613048332"><ele>275.0</ele><time>2026-05-01T07:46:58Z</time></trkpt><trkpt lat="44.81281856458438" lon="7.7762902431371"><ele>275.5</ele><time>2026-05-01T07:46:59Z</time></trkpt><trkpt lat="44.812703175172786" lon="7.776595316221139"><ele>276.0</ele><time>2026-05-01T07:47:00Z</time></trkpt><trkpt lat="44.81258561350856" lon="7.776906054671864"><ele>276.5</ele><time>2026-05-01T07:47:01Z</time></trkpt><trkpt lat="44.81246518828386" lon="7.777221357955865"><ele>277.0</ele><time>2026-05-01T07:47:02Z</time></trkpt><trkpt lat="44.81235741400745" lon="7.7775451060704315"><ele>277.5</ele><time>2026-05-01T07:47:03Z</time></trkpt><trkpt lat="44.81223449648429" lon="7.777855925466465"><ele>278.0</ele><time>2026-05-01T07:47:04Z</time></trkpt><trkpt lat="44.81211403909323" lon="7.7781679473180105"><ele>278.0</ele><time>2026-05-01T07:47:05Z</time></trkpt><trkpt lat="44.81199623227361" lon="7.778480805410637"><ele>278.0</ele><time>2026-05-01T07:47:06Z</time></trkpt><trkpt lat="44.81188204731637" lon="7.778800821081089"><ele>278.0</ele><time>2026-05-01T07:47:07Z</time></trkpt><trkpt lat="44.8117646074109" lon="7.779118626917269"><ele>278.0</ele><time>2026-05-01T07:47:08Z</time></trkpt><trkpt lat="44.81164510931687" lon="7.779434805900049"><ele>278.0</ele><time>2026-05-01T07:47:09Z</time></trkpt><trkpt lat="44.81152657596222" lon="7.779749200434785"><ele>278.0</ele><time>2026-05-01T07:47:10Z</time></trkpt><trkpt lat="44.811394741597745" lon="7.780056901233105"><ele>278.0</ele><time>2026-05-01T07:47:10.999Z</time></trkpt><trkpt lat="44.811273847870496" lon="7.78037607745455"><ele>278.0</ele><time>2026-05-01T07:47:11.999Z</time></trkpt><trkpt lat="44.81116692933967" lon="7.780705461393174"><ele>278.0</ele><time>2026-05-01T07:47:12.999Z</time></trkpt><trkpt lat="44.81104341576615" lon="7.78102554451371"><ele>278.0</ele><time>2026-05-01T07:47:13.999Z</time></trkpt><trkpt lat="44.81091457732964" lon="7.781335192706122"><ele>277.5</ele><time>2026-05-01T07:47:14.999Z</time></trkpt><trkpt lat="44.81077879173901" lon="7.781636075467902"><ele>277.0</ele><time>2026-05-01T07:47:15.999Z</time></trkpt><trkpt lat="44.81068099351669" lon="7.781994167670342"><ele>277.0</ele><time>2026-05-01T07:47:16.999Z</time></trkpt><trkpt lat="44.810559470514406" lon="7.78231583191529"><ele>277.0</ele><time>2026-05-01T07:47:17.999Z</time></trkpt><trkpt lat="44.81044053920813" lon="7.782634286531565"><ele>278.0</ele><time>2026-05-01T07:47:18.999Z</time></trkpt><trkpt lat="44.8103196913945" lon="7.782951684437133"><ele>279.0</ele><time>2026-05-01T07:47:19.999Z</time></trkpt><trkpt lat="44.81019664908543" lon="7.783262021797919"><ele>279.0</ele><time>2026-05-01T07:47:20.999Z</time></trkpt><trkpt lat="44.810080704488314" lon="7.783573090656517"><ele>279.0</ele><time>2026-05-01T07:47:21.999Z</time></trkpt><trkpt lat="44.80996427220705" lon="7.783886011652051"><ele>279.0</ele><time>2026-05-01T07:47:22.999Z</time></trkpt><trkpt lat="44.809848114223264" lon="7.784197647982889"><ele>279.0</ele><time>2026-05-01T07:47:23.999Z</time></trkpt><trkpt lat="44.80973158916445" lon="7.78450422740793"><ele>279.0</ele><time>2026-05-01T07:47:24.999Z</time></trkpt><trkpt lat="44.809619666723584" lon="7.784809981554903"><ele>279.0</ele><time>2026-05-01T07:47:25.999Z</time></trkpt><trkpt lat="44.80950594136044" lon="7.785115915140389"><ele>279.5</ele><time>2026-05-01T07:47:26.999Z</time></trkpt><trkpt lat="44.809395826537425" lon="7.78541559442354"><ele>280.0</ele><time>2026-05-01T07:47:27.999Z</time></trkpt><trkpt lat="44.80926699250993" lon="7.785711673516003"><ele>282.0</ele><time>2026-05-01T07:47:28.999Z</time></trkpt><trkpt lat="44.80915167445002" lon="7.786016309400721"><ele>284.0</ele><time>2026-05-01T07:47:29.999Z</time></trkpt><trkpt lat="44.80905439255495" lon="7.786333493696819"><ele>284.0</ele><time>2026-05-01T07:47:30.999Z</time></trkpt><trkpt lat="44.808938766908696" lon="7.786639786954001"><ele>284.0</ele><time>2026-05-01T07:47:31.999Z</time></trkpt><trkpt lat="44.80882000695829" lon="7.786943007876104"><ele>283.0</ele><time>2026-05-01T07:47:32.999Z</time></trkpt><trkpt lat="44.8087024821693" lon="7.787252943959567"><ele>282.0</ele><time>2026-05-01T07:47:33.999Z</time></trkpt><trkpt lat="44.80858811354837" lon="7.787557488631341"><ele>281.5</ele><time>2026-05-01T07:47:34.999Z</time></trkpt><trkpt lat="44.80846947780028" lon="7.7878622586563395"><ele>281.0</ele><time>2026-05-01T07:47:35.999Z</time></trkpt><trkpt lat="44.808353324901304" lon="7.7881681655422925"><ele>281.0</ele><time>2026-05-01T07:47:36.999Z</time></trkpt><trkpt lat="44.80823977822578" lon="7.788477307851236"><ele>281.0</ele><time>2026-05-01T07:47:37.999Z</time></trkpt><trkpt lat="44.80811627061901" lon="7.788783967303769"><ele>282.0</ele><time>2026-05-01T07:47:38.999Z</time></trkpt><trkpt lat="44.80800087470784" lon="7.7890963539760625"><ele>283.0</ele><time>2026-05-01T07:47:39.999Z</time></trkpt><trkpt lat="44.80788676146635" lon="7.7894026689576545"><ele>283.0</ele><time>2026-05-01T07:47:40.999Z</time></trkpt><trkpt lat="44.80777207433155" lon="7.789706255902978"><ele>283.0</ele><time>2026-05-01T07:47:41.999Z</time></trkpt><trkpt lat="44.80765891486458" lon="7.790008905483988"><ele>281.5</ele><time>2026-05-01T07:47:42.999Z</time></trkpt><trkpt lat="44.80754624175706" lon="7.790307180712856"><ele>280.0</ele><time>2026-05-01T07:47:43.999Z</time></trkpt><trkpt lat="44.80743486684505" lon="7.790606758910225"><ele>280.0</ele><time>2026-05-01T07:47:44.999Z</time></trkpt><trkpt lat="44.807321834154884" lon="7.790902964983048"><ele>280.0</ele><time>2026-05-01T07:47:45.999Z</time></trkpt><trkpt lat="44.80721069612928" lon="7.7911974736252105"><ele>281.5</ele><time>2026-05-01T07:47:46.999Z</time></trkpt><trkpt lat="44.80710072665225" lon="7.791493630671856"><ele>283.0</ele><time>2026-05-01T07:47:47.999Z</time></trkpt><trkpt lat="44.806989457652854" lon="7.791791583376847"><ele>283.0</ele><time>2026-05-01T07:47:48.999Z</time></trkpt><trkpt lat="44.80687935783588" lon="7.792079460015122"><ele>283.0</ele><time>2026-05-01T07:47:49.999Z</time></trkpt><trkpt lat="44.80676771413007" lon="7.792371654985773"><ele>284.5</ele><time>2026-05-01T07:47:50.999Z</time></trkpt><trkpt lat="44.80665792325006" lon="7.792655656612605"><ele>286.0</ele><time>2026-05-01T07:47:51.999Z</time></trkpt><trkpt lat="44.80654819198094" lon="7.79294263399055"><ele>286.0</ele><time>2026-05-01T07:47:52.999Z</time></trkpt><trkpt lat="44.80643853892789" lon="7.793228852813122"><ele>286.0</ele><time>2026-05-01T07:47:53.999Z</time></trkpt><trkpt lat="44.80632953663228" lon="7.7935202647114314"><ele>285.5</ele><time>2026-05-01T07:47:54.999Z</time></trkpt><trkpt lat="44.806219623704585" lon="7.793810808411511"><ele>285.0</ele><time>2026-05-01T07:47:55.999Z</time></trkpt><trkpt lat="44.80610990884923" lon="7.794098924483936"><ele>285.5</ele><time>2026-05-01T07:47:56.999Z</time></trkpt><trkpt lat="44.80599737118275" lon="7.7943923259930745"><ele>286.0</ele><time>2026-05-01T07:47:57.999Z</time></trkpt><trkpt lat="44.80588307408732" lon="7.794691254928513"><ele>286.0</ele><time>2026-05-01T07:47:58.999Z</time></trkpt><trkpt lat="44.80577061969629" lon="7.794989800457163"><ele>286.0</ele><time>2026-05-01T07:47:59.999Z</time></trkpt><trkpt lat="44.80565567333494" lon="7.7952946567184975"><ele>286.5</ele><time>2026-05-01T07:48:00.999Z</time></trkpt><trkpt lat="44.805540657394985" lon="7.795601561811866"><ele>287.0</ele><time>2026-05-01T07:48:01.999Z</time></trkpt><trkpt lat="44.80542521527486" lon="7.795911990016644"><ele>286.5</ele><time>2026-05-01T07:48:02.999Z</time></trkpt><trkpt lat="44.80530499932339" lon="7.796224880501998"><ele>286.0</ele><time>2026-05-01T07:48:03.999Z</time></trkpt><trkpt lat="44.80518640513724" lon="7.796537743648746"><ele>286.0</ele><time>2026-05-01T07:48:04.999Z</time></trkpt><trkpt lat="44.805064916831626" lon="7.7968517897137115"><ele>286.0</ele><time>2026-05-01T07:48:05.999Z</time></trkpt><trkpt lat="44.80494372809546" lon="7.797171669355056"><ele>286.0</ele><time>2026-05-01T07:48:06.999Z</time></trkpt><trkpt lat="44.80482340393458" lon="7.797488779466654"><ele>286.0</ele><time>2026-05-01T07:48:07.999Z</time></trkpt><trkpt lat="44.80470310502446" lon="7.797808774434638"><ele>285.5</ele><time>2026-05-01T07:48:08.999Z</time></trkpt><trkpt lat="44.80458350580811" lon="7.798125812849605"><ele>285.0</ele><time>2026-05-01T07:48:09.999Z</time></trkpt><trkpt lat="44.80446482165563" lon="7.7984407621987675"><ele>285.0</ele><time>2026-05-01T07:48:10.999Z</time></trkpt><trkpt lat="44.804350410763" lon="7.7987422774922495"><ele>285.0</ele><time>2026-05-01T07:48:11.999Z</time></trkpt><trkpt lat="44.8042407305884" lon="7.799033157833235"><ele>285.0</ele><time>2026-05-01T07:48:12.999Z</time></trkpt><trkpt lat="44.80413478410934" lon="7.799314061157332"><ele>285.0</ele><time>2026-05-01T07:48:13.999Z</time></trkpt><trkpt lat="44.804031688255414" lon="7.799586683657049"><ele>285.0</ele><time>2026-05-01T07:48:14.999Z</time></trkpt><trkpt lat="44.80393248129755" lon="7.799852975411962"><ele>285.3333333333333</ele><time>2026-05-01T07:48:16Z</time></trkpt><trkpt lat="44.80383739741102" lon="7.800108025123717"><ele>285.66666666666663</ele><time>2026-05-01T07:48:17Z</time></trkpt><trkpt lat="44.80374369016785" lon="7.800356178569387"><ele>286.0</ele><time>2026-05-01T07:48:18Z</time></trkpt><trkpt lat="44.803657035944205" lon="7.8005800356812705"><ele>286.66666666666663</ele><time>2026-05-01T07:48:19Z</time></trkpt><trkpt lat="44.80357222788719" lon="7.800802777957842"><ele>287.3333333333333</ele><time>2026-05-01T07:48:20Z</time></trkpt><trkpt lat="44.8034854607705" lon="7.80102670540933"><ele>288.0</ele><time>2026-05-01T07:48:21Z</time></trkpt><trkpt lat="44.80339544512295" lon="7.801256150195825"><ele>288.6666666666667</ele><time>2026-05-01T07:48:22Z</time></trkpt><trkpt lat="44.803302547439074" lon="7.801496054033003"><ele>289.33333333333337</ele><time>2026-05-01T07:48:23Z</time></trkpt><trkpt lat="44.80320661391681" lon="7.801753438263048"><ele>290.0</ele><time>2026-05-01T07:48:24Z</time></trkpt><trkpt lat="44.80311300558795" lon="7.802006127741692"><ele>290.0</ele><time>2026-05-01T07:48:25Z</time></trkpt><trkpt lat="44.803022405992245" lon="7.802254533259901"><ele>290.0</ele><time>2026-05-01T07:48:26Z</time></trkpt><trkpt lat="44.80293314533939" lon="7.802491996650742"><ele>290.0</ele><time>2026-05-01T07:48:27Z</time></trkpt><trkpt lat="44.80284655712479" lon="7.802716763142598"><ele>289.6666666666667</ele><time>2026-05-01T07:48:28Z</time></trkpt><trkpt lat="44.80276374918423" lon="7.802932424871329"><ele>289.3333333333333</ele><time>2026-05-01T07:48:29Z</time></trkpt><trkpt lat="44.802685747702036" lon="7.803138511961418"><ele>289.0</ele><time>2026-05-01T07:48:30Z</time></trkpt><trkpt lat="44.80261075961057" lon="7.803335463782235"><ele>289.0</ele><time>2026-05-01T07:48:31Z</time></trkpt><trkpt lat="44.80254258004105" lon="7.803526853468071"><ele>289.0</ele><time>2026-05-01T07:48:32Z</time></trkpt><trkpt lat="44.80248956111868" lon="7.803705867152518"><ele>289.0</ele><time>2026-05-01T07:48:33Z</time></trkpt><trkpt lat="44.80244299505662" lon="7.803881003799203"><ele>289.0</ele><time>2026-05-01T07:48:34Z</time></trkpt><trkpt lat="44.8023951933983" lon="7.804070195220311"><ele>289.0</ele><time>2026-05-01T07:48:35Z</time></trkpt><trkpt lat="44.802347651417435" lon="7.804290658218188"><ele>289.0</ele><time>2026-05-01T07:48:36Z</time></trkpt><trkpt lat="44.802318202962724" lon="7.804536593919681"><ele>289.0</ele><time>2026-05-01T07:48:37Z</time></trkpt><trkpt lat="44.80230558814093" lon="7.804805695440849"><ele>289.66666666666663</ele><time>2026-05-01T07:48:38Z</time></trkpt><trkpt lat="44.80230282123322" lon="7.80507791211929"><ele>290.3333333333333</ele><time>2026-05-01T07:48:39Z</time></trkpt><trkpt lat="44.802303967220894" lon="7.805366604344059"><ele>291.0</ele><time>2026-05-01T07:48:40Z</time></trkpt><trkpt lat="44.80230112297287" lon="7.805672832201283"><ele>291.5</ele><time>2026-05-01T07:48:41Z</time></trkpt><trkpt lat="44.8022967704565" lon="7.8059869336512655"><ele>292.0</ele><time>2026-05-01T07:48:42Z</time></trkpt><trkpt lat="44.80229078279417" lon="7.80631018957791"><ele>293.0</ele><time>2026-05-01T07:48:43Z</time></trkpt><trkpt lat="44.80228493463671" lon="7.806634677336556"><ele>294.0</ele><time>2026-05-01T07:48:44Z</time></trkpt><trkpt lat="44.80227924649804" lon="7.806956917120344"><ele>294.0</ele><time>2026-05-01T07:48:45Z</time></trkpt><trkpt lat="44.8022741105086" lon="7.807278391618218"><ele>294.0</ele><time>2026-05-01T07:48:46Z</time></trkpt><trkpt lat="44.802268910370174" lon="7.807600906345911"><ele>292.5</ele><time>2026-05-01T07:48:47Z</time></trkpt><trkpt lat="44.802264421834295" lon="7.807920623787959"><ele>291.0</ele><time>2026-05-01T07:48:48Z</time></trkpt><trkpt lat="44.80226045044469" lon="7.8082379678038185"><ele>290.3333333333333</ele><time>2026-05-01T07:48:49Z</time></trkpt><trkpt lat="44.80225518768006" lon="7.8085504096411595"><ele>289.66666666666663</ele><time>2026-05-01T07:48:50Z</time></trkpt><trkpt lat="44.802251003567186" lon="7.808860497531502"><ele>289.0</ele><time>2026-05-01T07:48:51Z</time></trkpt><trkpt lat="44.80224663150268" lon="7.809170210700667"><ele>289.0</ele><time>2026-05-01T07:48:52Z</time></trkpt><trkpt lat="44.80224185101882" lon="7.809479935393224"><ele>289.0</ele><time>2026-05-01T07:48:53Z</time></trkpt><trkpt lat="44.802237743207826" lon="7.809791605643797"><ele>289.0</ele><time>2026-05-01T07:48:54Z</time></trkpt><trkpt lat="44.80223361515227" lon="7.810103060033437"><ele>289.66666666666663</ele><time>2026-05-01T07:48:55Z</time></trkpt><trkpt lat="44.80222922975329" lon="7.810413895710022"><ele>290.3333333333333</ele><time>2026-05-01T07:48:56Z</time></trkpt><trkpt lat="44.80222315213071" lon="7.810718999992135"><ele>291.0</ele><time>2026-05-01T07:48:57Z</time></trkpt><trkpt lat="44.80221585739748" lon="7.81102115145895"><ele>291.3333333333333</ele><time>2026-05-01T07:48:58Z</time></trkpt><trkpt lat="44.80220939635063" lon="7.811318416825088"><ele>291.66666666666663</ele><time>2026-05-01T07:48:59Z</time></trkpt><trkpt lat="44.80220368123789" lon="7.811608037184107"><ele>292.0</ele><time>2026-05-01T07:49:00Z</time></trkpt><trkpt lat="44.80220016900236" lon="7.811873910543427"><ele>292.3333333333333</ele><time>2026-05-01T07:49:01Z</time></trkpt><trkpt lat="44.80219549771153" lon="7.812135533222258"><ele>292.6666666666667</ele><time>2026-05-01T07:49:02Z</time></trkpt><trkpt lat="44.80219265673904" lon="7.812388611377773"><ele>293.0</ele><time>2026-05-01T07:49:03Z</time></trkpt><trkpt lat="44.80219022621965" lon="7.812634176279951"><ele>293.33333333333337</ele><time>2026-05-01T07:49:04Z</time></trkpt><trkpt lat="44.80218656753553" lon="7.8128687728113775"><ele>293.6666666666667</ele><time>2026-05-01T07:49:05Z</time></trkpt><trkpt lat="44.80217851235646" lon="7.813095085250202"><ele>294.0</ele><time>2026-05-01T07:49:06Z</time></trkpt><trkpt lat="44.8021551874458" lon="7.813319746527265"><ele>293.6666666666667</ele><time>2026-05-01T07:49:07Z</time></trkpt><trkpt lat="44.80210321336976" lon="7.81353816086533"><ele>293.33333333333337</ele><time>2026-05-01T07:49:08Z</time></trkpt><trkpt lat="44.80202759759941" lon="7.813743265480129"><ele>293.0</ele><time>2026-05-01T07:49:09Z</time></trkpt><trkpt lat="44.80194029881407" lon="7.81395592462862"><ele>293.0</ele><time>2026-05-01T07:49:10Z</time></trkpt><trkpt lat="44.80185628623561" lon="7.814151446270824"><ele>293.0</ele><time>2026-05-01T07:49:11Z</time></trkpt><trkpt lat="44.801778200946984" lon="7.814338374404712"><ele>293.0</ele><time>2026-05-01T07:49:12Z</time></trkpt><trkpt lat="44.80170037065877" lon="7.814521598202546"><ele>293.33333333333337</ele><time>2026-05-01T07:49:12.999Z</time></trkpt><trkpt lat="44.80161803696041" lon="7.814708753392185"><ele>293.6666666666667</ele><time>2026-05-01T07:49:13.999Z</time></trkpt><trkpt lat="44.80152487039303" lon="7.814898310971881"><ele>294.0</ele><time>2026-05-01T07:49:14.999Z</time></trkpt><trkpt lat="44.80142246252125" lon="7.815096761814803"><ele>294.3333333333333</ele><time>2026-05-01T07:49:15.999Z</time></trkpt><trkpt lat="44.801324940959645" lon="7.81528616556367"><ele>294.66666666666663</ele><time>2026-05-01T07:49:16.999Z</time></trkpt><trkpt lat="44.80122790832205" lon="7.815470161315159"><ele>295.0</ele><time>2026-05-01T07:49:17.999Z</time></trkpt><trkpt lat="44.80113410820231" lon="7.8156456167566635"><ele>295.0</ele><time>2026-05-01T07:49:18.999Z</time></trkpt><trkpt lat="44.801040836422885" lon="7.815819027110876"><ele>295.0</ele><time>2026-05-01T07:49:19.999Z</time></trkpt><trkpt lat="44.800946290522944" lon="7.815983516200766"><ele>295.0</ele><time>2026-05-01T07:49:20.999Z</time></trkpt><trkpt lat="44.80085844395771" lon="7.816151272065758"><ele>295.5</ele><time>2026-05-01T07:49:21.999Z</time></trkpt><trkpt lat="44.80077846560365" lon="7.816326388893548"><ele>296.0</ele><time>2026-05-01T07:49:22.999Z</time></trkpt><trkpt lat="44.800686257449115" lon="7.816488899038171"><ele>296.5</ele><time>2026-05-01T07:49:23.999Z</time></trkpt><trkpt lat="44.8006257648016" lon="7.816675428675706"><ele>297.0</ele><time>2026-05-01T07:49:24.999Z</time></trkpt><trkpt lat="44.80055242399638" lon="7.816852833967935"><ele>297.0</ele><time>2026-05-01T07:49:25.999Z</time></trkpt><trkpt lat="44.80047465205212" lon="7.817016865402218"><ele>297.0</ele><time>2026-05-01T07:49:26.999Z</time></trkpt><trkpt lat="44.800410050689045" lon="7.817181920706383"><ele>297.0</ele><time>2026-05-01T07:49:27.999Z</time></trkpt><trkpt lat="44.80034307296913" lon="7.817333613299151"><ele>297.0</ele><time>2026-05-01T07:49:28.999Z</time></trkpt><trkpt lat="44.800282909563684" lon="7.817477622167025"><ele>297.0</ele><time>2026-05-01T07:49:29.999Z</time></trkpt><trkpt lat="44.800223736278944" lon="7.81761383987342"><ele>297.0</ele><time>2026-05-01T07:49:30.999Z</time></trkpt><trkpt lat="44.80016912997812" lon="7.817742562189343"><ele>297.0</ele><time>2026-05-01T07:49:31.999Z</time></trkpt><trkpt lat="44.800122386008574" lon="7.817862692662986"><ele>297.0</ele><time>2026-05-01T07:49:32.999Z</time></trkpt><trkpt lat="44.80008659386927" lon="7.817968016409725"><ele>297.0</ele><time>2026-05-01T07:49:33.999Z</time></trkpt><trkpt lat="44.80005334843223" lon="7.818063541795588"><ele>297.0</ele><time>2026-05-01T07:49:34.999Z</time></trkpt><trkpt lat="44.80001695386106" lon="7.818147276311087"><ele>297.0</ele><time>2026-05-01T07:49:35.999Z</time></trkpt><trkpt lat="44.799971671714395" lon="7.818224909923567"><ele>297.0</ele><time>2026-05-01T07:49:36.999Z</time></trkpt><trkpt lat="44.799907682042196" lon="7.818289928489292"><ele>297.0</ele><time>2026-05-01T07:49:37.999Z</time></trkpt><trkpt lat="44.79983755490808" lon="7.818354516493338"><ele>297.0</ele><time>2026-05-01T07:49:38.999Z</time></trkpt><trkpt lat="44.799765477452446" lon="7.818413279562574"><ele>297.0</ele><time>2026-05-01T07:49:39.999Z</time></trkpt><trkpt lat="44.79969137834096" lon="7.818465410058557"><ele>297.0</ele><time>2026-05-01T07:49:40.999Z</time></trkpt><trkpt lat="44.79961649938942" lon="7.818517489625647"><ele>297.0</ele><time>2026-05-01T07:49:41.999Z</time></trkpt><trkpt lat="44.79954177730264" lon="7.818575918343932"><ele>297.0</ele><time>2026-05-01T07:49:42.999Z</time></trkpt><trkpt lat="44.79946969548173" lon="7.818640038662861"><ele>297.0</ele><time>2026-05-01T07:49:43.999Z</time></trkpt><trkpt lat="44.79939443029059" lon="7.818705498667391"><ele>297.0</ele><time>2026-05-01T07:49:44.999Z</time></trkpt><trkpt lat="44.79931475880932" lon="7.818770495901833"><ele>297.0</ele><time>2026-05-01T07:49:45.999Z</time></trkpt><trkpt lat="44.799228507832204" lon="7.818840153294673"><ele>296.5</ele><time>2026-05-01T07:49:46.999Z</time></trkpt><trkpt lat="44.79913714114363" lon="7.8189101137575845"><ele>296.0</ele><time>2026-05-01T07:49:47.999Z</time></trkpt><trkpt lat="44.79903201930128" lon="7.8189936122754755"><ele>295.5</ele><time>2026-05-01T07:49:48.999Z</time></trkpt><trkpt lat="44.79893062556974" lon="7.819073738174766"><ele>295.0</ele><time>2026-05-01T07:49:49.999Z</time></trkpt><trkpt lat="44.798831507784996" lon="7.819160602390025"><ele>295.0</ele><time>2026-05-01T07:49:50.999Z</time></trkpt><trkpt lat="44.79873880389282" lon="7.819264979554844"><ele>295.0</ele><time>2026-05-01T07:49:51.999Z</time></trkpt><trkpt lat="44.7986465188729" lon="7.819379033803633"><ele>295.0</ele><time>2026-05-01T07:49:52.999Z</time></trkpt><trkpt lat="44.798572558916405" lon="7.819520748914438"><ele>295.0</ele><time>2026-05-01T07:49:53.999Z</time></trkpt><trkpt lat="44.79850558668688" lon="7.819680747313702"><ele>294.25</ele><time>2026-05-01T07:49:54.999Z</time></trkpt><trkpt lat="44.79844582343084" lon="7.8198531522156625"><ele>293.5</ele><time>2026-05-01T07:49:55.999Z</time></trkpt><trkpt lat="44.79837906562096" lon="7.82004792066563"><ele>292.75</ele><time>2026-05-01T07:49:56.999Z</time></trkpt><trkpt lat="44.79830943779564" lon="7.8202466619533295"><ele>292.0</ele><time>2026-05-01T07:49:57.999Z</time></trkpt><trkpt lat="44.798236558046874" lon="7.820435367781981"><ele>292.0</ele><time>2026-05-01T07:49:58.999Z</time></trkpt><trkpt lat="44.79816065289702" lon="7.820608294145971"><ele>292.0</ele><time>2026-05-01T07:49:59.999Z</time></trkpt><trkpt lat="44.79808298922801" lon="7.820781312773497"><ele>292.0</ele><time>2026-05-01T07:50:00.999Z</time></trkpt><trkpt lat="44.79800441199181" lon="7.82095385610106"><ele>292.0</ele><time>2026-05-01T07:50:01.999Z</time></trkpt><trkpt lat="44.797924606615624" lon="7.821127358197596"><ele>292.66666666666663</ele><time>2026-05-01T07:50:02.999Z</time></trkpt><trkpt lat="44.79784214756144" lon="7.821304876704268"><ele>293.3333333333333</ele><time>2026-05-01T07:50:03.999Z</time></trkpt><trkpt lat="44.79775768192812" lon="7.821486181666424"><ele>294.0</ele><time>2026-05-01T07:50:04.999Z</time></trkpt><trkpt lat="44.79767229252442" lon="7.821669278644019"><ele>293.0</ele><time>2026-05-01T07:50:05.999Z</time></trkpt><trkpt lat="44.79758675426416" lon="7.821853973018515"><ele>292.0</ele><time>2026-05-01T07:50:06.999Z</time></trkpt><trkpt lat="44.79749727782901" lon="7.822041744815276"><ele>291.0</ele><time>2026-05-01T07:50:07.999Z</time></trkpt><trkpt lat="44.79740380307079" lon="7.822225090009762"><ele>291.0</ele><time>2026-05-01T07:50:08.999Z</time></trkpt><trkpt lat="44.797306056650406" lon="7.8223907966271975"><ele>291.0</ele><time>2026-05-01T07:50:09.999Z</time></trkpt><trkpt lat="44.79720206243631" lon="7.822546629715024"><ele>291.0</ele><time>2026-05-01T07:50:10.999Z</time></trkpt><trkpt lat="44.79708848044386" lon="7.8227017056857076"><ele>291.3333333333333</ele><time>2026-05-01T07:50:11.999Z</time></trkpt><trkpt lat="44.79696903432545" lon="7.8228586013705375"><ele>291.66666666666663</ele><time>2026-05-01T07:50:12.999Z</time></trkpt><trkpt lat="44.7968468183946" lon="7.823020962784209"><ele>292.0</ele><time>2026-05-01T07:50:13.999Z</time></trkpt><trkpt lat="44.7967249655252" lon="7.823182536900946"><ele>292.0</ele><time>2026-05-01T07:50:14.999Z</time></trkpt><trkpt lat="44.79660042643474" lon="7.823340096369439"><ele>292.0</ele><time>2026-05-01T07:50:15.999Z</time></trkpt><trkpt lat="44.796462626320874" lon="7.8234817638359475"><ele>292.0</ele><time>2026-05-01T07:50:16.999Z</time></trkpt><trkpt lat="44.79634383382055" lon="7.823657297764162"><ele>293.0</ele><time>2026-05-01T07:50:17.999Z</time></trkpt><trkpt lat="44.79620957237894" lon="7.8238171537043195"><ele>294.0</ele><time>2026-05-01T07:50:18.999Z</time></trkpt><trkpt lat="44.796069082154325" lon="7.82398468157884"><ele>295.0</ele><time>2026-05-01T07:50:19.999Z</time></trkpt><trkpt lat="44.79590998451305" lon="7.82415956962777"><ele>293.3333333333333</ele><time>2026-05-01T07:50:20.999Z</time></trkpt><trkpt lat="44.79574405007289" lon="7.824336164555497"><ele>291.6666666666667</ele><time>2026-05-01T07:50:22Z</time></trkpt><trkpt lat="44.7955943939076" lon="7.824535419472196"><ele>290.0</ele><time>2026-05-01T07:50:23Z</time></trkpt><trkpt lat="44.79542354600495" lon="7.824738606136219"><ele>290.0</ele><time>2026-05-01T07:50:24Z</time></trkpt><trkpt lat="44.79525256122374" lon="7.824942153883672"><ele>290.0</ele><time>2026-05-01T07:50:25Z</time></trkpt><trkpt lat="44.79508987711424" lon="7.825161503061184"><ele>290.0</ele><time>2026-05-01T07:50:26Z</time></trkpt><trkpt lat="44.79491677680781" lon="7.825366546857268"><ele>290.33333333333337</ele><time>2026-05-01T07:50:27Z</time></trkpt><trkpt lat="44.794748764490905" lon="7.82556659377477"><ele>290.6666666666667</ele><time>2026-05-01T07:50:28Z</time></trkpt><trkpt lat="44.79458206116082" lon="7.825767814962894"><ele>291.0</ele><time>2026-05-01T07:50:29Z</time></trkpt><trkpt lat="44.794417679018316" lon="7.825963737898117"><ele>291.0</ele><time>2026-05-01T07:50:30Z</time></trkpt><trkpt lat="44.79425523078769" lon="7.826157075911332"><ele>291.0</ele><time>2026-05-01T07:50:31Z</time></trkpt><trkpt lat="44.79408935981662" lon="7.826355617622154"><ele>291.0</ele><time>2026-05-01T07:50:32Z</time></trkpt><trkpt lat="44.79391579855338" lon="7.8265635791710615"><ele>291.0</ele><time>2026-05-01T07:50:33Z</time></trkpt><trkpt lat="44.79372491906407" lon="7.826759347058881"><ele>291.0</ele><time>2026-05-01T07:50:34Z</time></trkpt><trkpt lat="44.79354006373066" lon="7.82698133451566"><ele>291.0</ele><time>2026-05-01T07:50:35Z</time></trkpt><trkpt lat="44.7933538688479" lon="7.8272050434518325"><ele>291.0</ele><time>2026-05-01T07:50:36Z</time></trkpt><trkpt lat="44.79316942529342" lon="7.827424475135278"><ele>294.0</ele><time>2026-05-01T07:50:37Z</time></trkpt><trkpt lat="44.792982510047196" lon="7.827645614423081"><ele>297.0</ele><time>2026-05-01T07:50:38Z</time></trkpt><trkpt lat="44.79279845802226" lon="7.827863365979581"><ele>294.0</ele><time>2026-05-01T07:50:39Z</time></trkpt><trkpt lat="44.79261567937498" lon="7.82807961264027"><ele>291.0</ele><time>2026-05-01T07:50:40Z</time></trkpt><trkpt lat="44.79243148383887" lon="7.828297534118554"><ele>292.5</ele><time>2026-05-01T07:50:41Z</time></trkpt><trkpt lat="44.79224677297859" lon="7.8285160652762595"><ele>294.0</ele><time>2026-05-01T07:50:42Z</time></trkpt><trkpt lat="44.79206320098666" lon="7.8287332490435775"><ele>294.0</ele><time>2026-05-01T07:50:43Z</time></trkpt><trkpt lat="44.79187699132144" lon="7.828953553316703"><ele>294.0</ele><time>2026-05-01T07:50:44Z</time></trkpt><trkpt lat="44.79169725739248" lon="7.829166091155737"><ele>296.5</ele><time>2026-05-01T07:50:45Z</time></trkpt><trkpt lat="44.79152555889681" lon="7.829396713299161"><ele>299.0</ele><time>2026-05-01T07:50:46Z</time></trkpt><trkpt lat="44.791345431436945" lon="7.829607862699173"><ele>299.0</ele><time>2026-05-01T07:50:47Z</time></trkpt><trkpt lat="44.79117241494126" lon="7.829827604186524"><ele>299.0</ele><time>2026-05-01T07:50:48Z</time></trkpt><trkpt lat="44.791003520263835" lon="7.830054795275315"><ele>298.5</ele><time>2026-05-01T07:50:49Z</time></trkpt><trkpt lat="44.79084007779989" lon="7.83029092581214"><ele>298.0</ele><time>2026-05-01T07:50:50Z</time></trkpt><trkpt lat="44.79068561650751" lon="7.830538360204571"><ele>298.0</ele><time>2026-05-01T07:50:51Z</time></trkpt><trkpt lat="44.79053855791649" lon="7.830793160324389"><ele>298.0</ele><time>2026-05-01T07:50:52Z</time></trkpt><trkpt lat="44.79039838551752" lon="7.831055177141025"><ele>294.5</ele><time>2026-05-01T07:50:53Z</time></trkpt><trkpt lat="44.79025527305634" lon="7.831316505683652"><ele>291.0</ele><time>2026-05-01T07:50:54Z</time></trkpt><trkpt lat="44.79010991386753" lon="7.831572259572895"><ele>296.5</ele><time>2026-05-01T07:50:55Z</time></trkpt><trkpt lat="44.789963756203385" lon="7.831822575263142"><ele>302.0</ele><time>2026-05-01T07:50:56Z</time></trkpt><trkpt lat="44.78982136933508" lon="7.83206403945517"><ele>302.0</ele><time>2026-05-01T07:50:57Z</time></trkpt><trkpt lat="44.7896840991979" lon="7.832302605654995"><ele>302.0</ele><time>2026-05-01T07:50:58Z</time></trkpt><trkpt lat="44.78955174482379" lon="7.832542796514519"><ele>302.0</ele><time>2026-05-01T07:50:59Z</time></trkpt><trkpt lat="44.78942283178323" lon="7.832777027803371"><ele>298.0</ele><time>2026-05-01T07:51:00Z</time></trkpt><trkpt lat="44.78929597532881" lon="7.833005348359609"><ele>294.0</ele><time>2026-05-01T07:51:01Z</time></trkpt><trkpt lat="44.78917072306661" lon="7.833224762901035"><ele>290.0</ele><time>2026-05-01T07:51:02Z</time></trkpt><trkpt lat="44.78904180354466" lon="7.833445156570856"><ele>292.0</ele><time>2026-05-01T07:51:03Z</time></trkpt><trkpt lat="44.788915368411566" lon="7.833666591621972"><ele>294.0</ele><time>2026-05-01T07:51:04Z</time></trkpt><trkpt lat="44.78878942729795" lon="7.8338922441679335"><ele>296.0</ele><time>2026-05-01T07:51:05Z</time></trkpt><trkpt lat="44.7886652509802" lon="7.834118149174812"><ele>295.6666666666667</ele><time>2026-05-01T07:51:06Z</time></trkpt><trkpt lat="44.78853971858722" lon="7.83434357276426"><ele>295.3333333333333</ele><time>2026-05-01T07:51:07Z</time></trkpt><trkpt lat="44.78841210788022" lon="7.834566538488857"><ele>295.0</ele><time>2026-05-01T07:51:08Z</time></trkpt><trkpt lat="44.788285198685244" lon="7.8347899301426445"><ele>295.0</ele><time>2026-05-01T07:51:09Z</time></trkpt><trkpt lat="44.78815868000683" lon="7.835017128872372"><ele>295.0</ele><time>2026-05-01T07:51:10Z</time></trkpt><trkpt lat="44.788034317719394" lon="7.835248922666727"><ele>295.0</ele><time>2026-05-01T07:51:11Z</time></trkpt><trkpt lat="44.78791427611048" lon="7.835484019763347"><ele>295.66666666666663</ele><time>2026-05-01T07:51:12Z</time></trkpt><trkpt lat="44.78780005700298" lon="7.835724664606559"><ele>296.3333333333333</ele><time>2026-05-01T07:51:12.999Z</time></trkpt><trkpt lat="44.78769403688" lon="7.835972748994444"><ele>297.0</ele><time>2026-05-01T07:51:13.999Z</time></trkpt><trkpt lat="44.78759690742951" lon="7.836233563894458"><ele>297.0</ele><time>2026-05-01T07:51:14.999Z</time></trkpt><trkpt lat="44.78751822105032" lon="7.836505068905538"><ele>297.0</ele><time>2026-05-01T07:51:15.999Z</time></trkpt><trkpt lat="44.787444554461246" lon="7.8367732974188"><ele>297.0</ele><time>2026-05-01T07:51:16.999Z</time></trkpt><trkpt lat="44.78737909379939" lon="7.837042914717544"><ele>297.0</ele><time>2026-05-01T07:51:17.999Z</time></trkpt><trkpt lat="44.78731428914243" lon="7.837313839649748"><ele>297.0</ele><time>2026-05-01T07:51:18.999Z</time></trkpt><trkpt lat="44.78725461257619" lon="7.837574330191448"><ele>297.0</ele><time>2026-05-01T07:51:19.999Z</time></trkpt><trkpt lat="44.78719593870113" lon="7.837833770852658"><ele>297.3333333333333</ele><time>2026-05-01T07:51:20.999Z</time></trkpt><trkpt lat="44.78714068268464" lon="7.838098489954879"><ele>297.66666666666663</ele><time>2026-05-01T07:51:21.999Z</time></trkpt><trkpt lat="44.787092206406314" lon="7.838380785772208"><ele>298.0</ele><time>2026-05-01T07:51:22.999Z</time></trkpt><trkpt lat="44.787029990569984" lon="7.838669091850769"><ele>299.0</ele><time>2026-05-01T07:51:23.999Z</time></trkpt><trkpt lat="44.78694727340054" lon="7.838958671683484"><ele>300.0</ele><time>2026-05-01T07:51:24.999Z</time></trkpt><trkpt lat="44.7868606298931" lon="7.839254927020594"><ele>301.0</ele><time>2026-05-01T07:51:25.999Z</time></trkpt><trkpt lat="44.78678402927946" lon="7.839566836554949"><ele>299.0</ele><time>2026-05-01T07:51:26.999Z</time></trkpt><trkpt lat="44.786714093899114" lon="7.839879925385494"><ele>297.0</ele><time>2026-05-01T07:51:27.999Z</time></trkpt><trkpt lat="44.78664108676398" lon="7.840196630525136"><ele>297.0</ele><time>2026-05-01T07:51:28.999Z</time></trkpt><trkpt lat="44.786568337703294" lon="7.840515596639836"><ele>297.0</ele><time>2026-05-01T07:51:29.999Z</time></trkpt><trkpt lat="44.78649470187325" lon="7.840835786653371"><ele>297.0</ele><time>2026-05-01T07:51:30.999Z</time></trkpt><trkpt lat="44.78642052930107" lon="7.841155271266304"><ele>297.0</ele><time>2026-05-01T07:51:31.999Z</time></trkpt><trkpt lat="44.78634584992251" lon="7.841472618201689"><ele>297.0</ele><time>2026-05-01T07:51:32.999Z</time></trkpt><trkpt lat="44.78627299252595" lon="7.841793424293412"><ele>297.0</ele><time>2026-05-01T07:51:33.999Z</time></trkpt><trkpt lat="44.78620060893763" lon="7.842110660628111"><ele>297.5</ele><time>2026-05-01T07:51:34.999Z</time></trkpt><trkpt lat="44.786127974478674" lon="7.842431203851293"><ele>298.0</ele><time>2026-05-01T07:51:35.999Z</time></trkpt><trkpt lat="44.786052864930426" lon="7.842755142079632"><ele>295.5</ele><time>2026-05-01T07:51:36.999Z</time></trkpt><trkpt lat="44.78597434396466" lon="7.843080083372547"><ele>293.0</ele><time>2026-05-01T07:51:37.999Z</time></trkpt><trkpt lat="44.78589613092612" lon="7.843400482689261"><ele>294.0</ele><time>2026-05-01T07:51:38.999Z</time></trkpt><trkpt lat="44.78582005925113" lon="7.843721940920927"><ele>295.0</ele><time>2026-05-01T07:51:39.999Z</time></trkpt><trkpt lat="44.78574669591699" lon="7.844047332271976"><ele>296.0</ele><time>2026-05-01T07:51:40.999Z</time></trkpt><trkpt lat="44.78567297310158" lon="7.844370342180198"><ele>297.0</ele><time>2026-05-01T07:51:41.999Z</time></trkpt><trkpt lat="44.78560163659" lon="7.844690653079665"><ele>297.0</ele><time>2026-05-01T07:51:42.999Z</time></trkpt><trkpt lat="44.78553814431896" lon="7.845018000961623"><ele>297.0</ele><time>2026-05-01T07:51:43.999Z</time></trkpt><trkpt lat="44.78548066732464" lon="7.845348891765406"><ele>297.5</ele><time>2026-05-01T07:51:44.999Z</time></trkpt><trkpt lat="44.78542703285025" lon="7.845678520623976"><ele>298.0</ele><time>2026-05-01T07:51:45.999Z</time></trkpt><trkpt lat="44.785377804944105" lon="7.846011971853903"><ele>298.0</ele><time>2026-05-01T07:51:46.999Z</time></trkpt><trkpt lat="44.785337422989066" lon="7.846345494289355"><ele>298.0</ele><time>2026-05-01T07:51:47.999Z</time></trkpt><trkpt lat="44.7853029788361" lon="7.8466817760366245"><ele>298.5</ele><time>2026-05-01T07:51:48.999Z</time></trkpt><trkpt lat="44.78527370783295" lon="7.847020564313207"><ele>299.0</ele><time>2026-05-01T07:51:49.999Z</time></trkpt><trkpt lat="44.785245685351555" lon="7.847358167112534"><ele>299.0</ele><time>2026-05-01T07:51:50.999Z</time></trkpt><trkpt lat="44.7852195708423" lon="7.847693980484712"><ele>299.0</ele><time>2026-05-01T07:51:51.999Z</time></trkpt><trkpt lat="44.78519664205644" lon="7.848028047216994"><ele>300.0</ele><time>2026-05-01T07:51:52.999Z</time></trkpt><trkpt lat="44.78517494819078" lon="7.848363810408184"><ele>301.0</ele><time>2026-05-01T07:51:53.999Z</time></trkpt><trkpt lat="44.78515185832015" lon="7.848700596351359"><ele>301.0</ele><time>2026-05-01T07:51:54.999Z</time></trkpt><trkpt lat="44.785128257996945" lon="7.849034250523128"><ele>301.0</ele><time>2026-05-01T07:51:55.999Z</time></trkpt><trkpt lat="44.7851028518258" lon="7.849369482206435"><ele>301.5</ele><time>2026-05-01T07:51:56.999Z</time></trkpt><trkpt lat="44.78507651010334" lon="7.849700729249016"><ele>302.0</ele><time>2026-05-01T07:51:57.999Z</time></trkpt><trkpt lat="44.78505097605078" lon="7.850032641770283"><ele>303.5</ele><time>2026-05-01T07:51:58.999Z</time></trkpt><trkpt lat="44.785027077410135" lon="7.850363129321312"><ele>305.0</ele><time>2026-05-01T07:51:59.999Z</time></trkpt><trkpt lat="44.78500368494725" lon="7.850691372093935"><ele>305.5</ele><time>2026-05-01T07:52:00.999Z</time></trkpt><trkpt lat="44.78498030239371" lon="7.851018768833492"><ele>306.0</ele><time>2026-05-01T07:52:01.999Z</time></trkpt><trkpt lat="44.78495777926997" lon="7.8513455532065635"><ele>306.0</ele><time>2026-05-01T07:52:02.999Z</time></trkpt><trkpt lat="44.78493498278555" lon="7.851668796522938"><ele>306.0</ele><time>2026-05-01T07:52:03.999Z</time></trkpt><trkpt lat="44.78491211077608" lon="7.851989656357939"><ele>307.0</ele><time>2026-05-01T07:52:04.999Z</time></trkpt><trkpt lat="44.78488882795249" lon="7.852310263174565"><ele>308.0</ele><time>2026-05-01T07:52:05.999Z</time></trkpt><trkpt lat="44.78486469818287" lon="7.852630941389459"><ele>309.0</ele><time>2026-05-01T07:52:06.999Z</time></trkpt><trkpt lat="44.784840370093924" lon="7.852957672018685"><ele>310.0</ele><time>2026-05-01T07:52:07.999Z</time></trkpt><trkpt lat="44.784814430694155" lon="7.853289829488535"><ele>310.5</ele><time>2026-05-01T07:52:08.999Z</time></trkpt><trkpt lat="44.7847890333126" lon="7.853620540596735"><ele>311.0</ele><time>2026-05-01T07:52:09.999Z</time></trkpt><trkpt lat="44.78476189632781" lon="7.8539522302046105"><ele>311.0</ele><time>2026-05-01T07:52:10.999Z</time></trkpt><trkpt lat="44.7847368610293" lon="7.854287749577243"><ele>311.0</ele><time>2026-05-01T07:52:11.999Z</time></trkpt><trkpt lat="44.784712425422754" lon="7.854624846764047"><ele>311.0</ele><time>2026-05-01T07:52:12.999Z</time></trkpt><trkpt lat="44.78468838551593" lon="7.854964520299346"><ele>311.0</ele><time>2026-05-01T07:52:13.999Z</time></trkpt><trkpt lat="44.784664150146604" lon="7.855306212592988"><ele>311.0</ele><time>2026-05-01T07:52:14.999Z</time></trkpt><trkpt lat="44.784639261097375" lon="7.855655699742652"><ele>311.0</ele><time>2026-05-01T07:52:15.999Z</time></trkpt><trkpt lat="44.7846136377683" lon="7.856007832333878"><ele>310.5</ele><time>2026-05-01T07:52:16.999Z</time></trkpt><trkpt lat="44.784587380252304" lon="7.856364649460785"><ele>310.0</ele><time>2026-05-01T07:52:17.999Z</time></trkpt><trkpt lat="44.78456099946885" lon="7.856720076139018"><ele>310.5</ele><time>2026-05-01T07:52:18.999Z</time></trkpt><trkpt lat="44.784533078772625" lon="7.857079775428907"><ele>311.0</ele><time>2026-05-01T07:52:19.999Z</time></trkpt><trkpt lat="44.78450388641715" lon="7.857438539704242"><ele>310.0</ele><time>2026-05-01T07:52:20.999Z</time></trkpt><trkpt lat="44.784476626129376" lon="7.857789707609777"><ele>309.0</ele><time>2026-05-01T07:52:21.999Z</time></trkpt><trkpt lat="44.78445119987953" lon="7.858139647834759"><ele>308.5</ele><time>2026-05-01T07:52:22.999Z</time></trkpt><trkpt lat="44.784427401992446" lon="7.8584885236589495"><ele>308.0</ele><time>2026-05-01T07:52:23.999Z</time></trkpt><trkpt lat="44.78440374888274" lon="7.858832041333622"><ele>308.0</ele><time>2026-05-01T07:52:24.999Z</time></trkpt><trkpt lat="44.78437891633315" lon="7.8591748412104705"><ele>308.0</ele><time>2026-05-01T07:52:25.999Z</time></trkpt><trkpt lat="44.78435456873602" lon="7.8595161769470225"><ele>311.5</ele><time>2026-05-01T07:52:27Z</time></trkpt><trkpt lat="44.78432984476694" lon="7.859854972453719"><ele>315.0</ele><time>2026-05-01T07:52:28Z</time></trkpt><trkpt lat="44.7843053498365" lon="7.860191596627148"><ele>315.0</ele><time>2026-05-01T07:52:29Z</time></trkpt><trkpt lat="44.78428052163284" lon="7.860524520606465"><ele>315.0</ele><time>2026-05-01T07:52:30Z</time></trkpt><trkpt lat="44.78425419860351" lon="7.860858989339618"><ele>315.5</ele><time>2026-05-01T07:52:31Z</time></trkpt><trkpt lat="44.78422762715233" lon="7.861190493634646"><ele>316.0</ele><time>2026-05-01T07:52:32Z</time></trkpt><trkpt lat="44.7842028578881" lon="7.861530653411334"><ele>317.0</ele><time>2026-05-01T07:52:33Z</time></trkpt><trkpt lat="44.78417542092187" lon="7.86186964571067"><ele>318.0</ele><time>2026-05-01T07:52:34Z</time></trkpt><trkpt lat="44.784137633536076" lon="7.8622108667758575"><ele>318.0</ele><time>2026-05-01T07:52:35Z</time></trkpt><trkpt lat="44.784081912542696" lon="7.862546771800269"><ele>318.0</ele><time>2026-05-01T07:52:36Z</time></trkpt><trkpt lat="44.78401012064812" lon="7.862867302436434"><ele>318.0</ele><time>2026-05-01T07:52:37Z</time></trkpt><trkpt lat="44.783928191136056" lon="7.863179111579641"><ele>318.0</ele><time>2026-05-01T07:52:38Z</time></trkpt><trkpt lat="44.78382901457272" lon="7.863462848226572"><ele>318.0</ele><time>2026-05-01T07:52:39Z</time></trkpt><trkpt lat="44.7837269732074" lon="7.863707649769802"><ele>318.0</ele><time>2026-05-01T07:52:40Z</time></trkpt><trkpt lat="44.78363000233765" lon="7.863926177973062"><ele>318.0</ele><time>2026-05-01T07:52:41Z</time></trkpt><trkpt lat="44.78354308482857" lon="7.864127999739833"><ele>317.3333333333333</ele><time>2026-05-01T07:52:42Z</time></trkpt><trkpt lat="44.78345265749165" lon="7.864306884061421"><ele>316.66666666666663</ele><time>2026-05-01T07:52:43Z</time></trkpt><trkpt lat="44.783350509433944" lon="7.864462960311401"><ele>316.0</ele><time>2026-05-01T07:52:44Z</time></trkpt><trkpt lat="44.78325427156362" lon="7.864617016991528"><ele>316.0</ele><time>2026-05-01T07:52:45Z</time></trkpt><trkpt lat="44.78319305201714" lon="7.864802728516602"><ele>316.0</ele><time>2026-05-01T07:52:46Z</time></trkpt><trkpt lat="44.783155265498145" lon="7.8650214630600965"><ele>316.0</ele><time>2026-05-01T07:52:47Z</time></trkpt><trkpt lat="44.78307013605049" lon="7.865231287487391"><ele>314.66666666666663</ele><time>2026-05-01T07:52:48Z</time></trkpt><trkpt lat="44.78297401152267" lon="7.865455517457146"><ele>313.3333333333333</ele><time>2026-05-01T07:52:49Z</time></trkpt><trkpt lat="44.78288360298878" lon="7.86570677810228"><ele>312.0</ele><time>2026-05-01T07:52:50Z</time></trkpt><trkpt lat="44.782778538418555" lon="7.86594623086714"><ele>313.0</ele><time>2026-05-01T07:52:51Z</time></trkpt><trkpt lat="44.78267090857271" lon="7.8661947760150515"><ele>314.0</ele><time>2026-05-01T07:52:52Z</time></trkpt><trkpt lat="44.78256094628834" lon="7.8664473589029935"><ele>315.0</ele><time>2026-05-01T07:52:53Z</time></trkpt><trkpt lat="44.78244907915846" lon="7.866704590719528"><ele>314.0</ele><time>2026-05-01T07:52:54Z</time></trkpt><trkpt lat="44.78233097767937" lon="7.866970577307304"><ele>313.0</ele><time>2026-05-01T07:52:55Z</time></trkpt><trkpt lat="44.782208847274156" lon="7.867245536133968"><ele>313.0</ele><time>2026-05-01T07:52:56Z</time></trkpt><trkpt lat="44.7820844211747" lon="7.867530794683186"><ele>313.0</ele><time>2026-05-01T07:52:57Z</time></trkpt><trkpt lat="44.781961366596704" lon="7.867814895850403"><ele>315.5</ele><time>2026-05-01T07:52:58Z</time></trkpt><trkpt lat="44.78183266416828" lon="7.868112680356757"><ele>318.0</ele><time>2026-05-01T07:52:59Z</time></trkpt><trkpt lat="44.7817017609275" lon="7.868409621521692"><ele>318.0</ele><time>2026-05-01T07:53:00Z</time></trkpt><trkpt lat="44.78157282049609" lon="7.868703973491365"><ele>318.0</ele><time>2026-05-01T07:53:01Z</time></trkpt><trkpt lat="44.78144134195255" lon="7.869002218521372"><ele>318.0</ele><time>2026-05-01T07:53:02Z</time></trkpt><trkpt lat="44.781307181007115" lon="7.869304164370781"><ele>318.0</ele><time>2026-05-01T07:53:03Z</time></trkpt><trkpt lat="44.78117008500819" lon="7.869612606209121"><ele>318.0</ele><time>2026-05-01T07:53:04Z</time></trkpt><trkpt lat="44.78103402748914" lon="7.869920988055856"><ele>318.0</ele><time>2026-05-01T07:53:05Z</time></trkpt><trkpt lat="44.78089679068484" lon="7.870229488153787"><ele>317.5</ele><time>2026-05-01T07:53:06Z</time></trkpt><trkpt lat="44.780759055174165" lon="7.870537742944862"><ele>317.0</ele><time>2026-05-01T07:53:07Z</time></trkpt><trkpt lat="44.7806220267601" lon="7.8708468619303575"><ele>315.5</ele><time>2026-05-01T07:53:08Z</time></trkpt><trkpt lat="44.78048626945221" lon="7.871159195631403"><ele>314.0</ele><time>2026-05-01T07:53:09Z</time></trkpt><trkpt lat="44.78035017942824" lon="7.871473190967509"><ele>314.5</ele><time>2026-05-01T07:53:10Z</time></trkpt><trkpt lat="44.78021419933383" lon="7.871780097274621"><ele>315.0</ele><time>2026-05-01T07:53:11Z</time></trkpt><trkpt lat="44.78007910979126" lon="7.872099694156586"><ele>315.5</ele><time>2026-05-01T07:53:12Z</time></trkpt><trkpt lat="44.77993202833323" lon="7.872412774932547"><ele>316.0</ele><time>2026-05-01T07:53:13Z</time></trkpt><trkpt lat="44.77982100518407" lon="7.872683125838283"><ele>316.0</ele><time>2026-05-01T07:53:14Z</time></trkpt><trkpt lat="44.77969100013328" lon="7.8729827959429715"><ele>316.0</ele><time>2026-05-01T07:53:15Z</time></trkpt><trkpt lat="44.77956379749376" lon="7.873274980726647"><ele>316.0</ele><time>2026-05-01T07:53:16Z</time></trkpt><trkpt lat="44.779433617207715" lon="7.87355913464828"><ele>316.0</ele><time>2026-05-01T07:53:16.999Z</time></trkpt><trkpt lat="44.779305341668405" lon="7.8738415016652725"><ele>316.0</ele><time>2026-05-01T07:53:17.999Z</time></trkpt><trkpt lat="44.77917856284309" lon="7.874128083510614"><ele>316.0</ele><time>2026-05-01T07:53:18.999Z</time></trkpt><trkpt lat="44.77905128228706" lon="7.874414514847967"><ele>316.0</ele><time>2026-05-01T07:53:19.999Z</time></trkpt><trkpt lat="44.77892613016845" lon="7.874702601442588"><ele>316.0</ele><time>2026-05-01T07:53:20.999Z</time></trkpt><trkpt lat="44.778800740124424" lon="7.874993411849846"><ele>316.5</ele><time>2026-05-01T07:53:21.999Z</time></trkpt><trkpt lat="44.77867560594774" lon="7.875279475835691"><ele>317.0</ele><time>2026-05-01T07:53:22.999Z</time></trkpt><trkpt lat="44.77855094838204" lon="7.875566440901874"><ele>317.5</ele><time>2026-05-01T07:53:23.999Z</time></trkpt><trkpt lat="44.778425993782704" lon="7.875850152633947"><ele>318.0</ele><time>2026-05-01T07:53:24.999Z</time></trkpt><trkpt lat="44.778296606985194" lon="7.876150540037435"><ele>319.0</ele><time>2026-05-01T07:53:25.999Z</time></trkpt><trkpt lat="44.77816534108882" lon="7.876461573431113"><ele>320.0</ele><time>2026-05-01T07:53:26.999Z</time></trkpt><trkpt lat="44.77803321938849" lon="7.876775922949312"><ele>319.6666666666667</ele><time>2026-05-01T07:53:27.999Z</time></trkpt><trkpt lat="44.777913668514344" lon="7.87697955149869"><ele>319.3333333333333</ele><time>2026-05-01T07:53:28.999Z</time></trkpt><trkpt lat="44.77778990002765" lon="7.877258804673134"><ele>319.0</ele><time>2026-05-01T07:53:29.999Z</time></trkpt><trkpt lat="44.77767225483346" lon="7.877532230600491"><ele>320.5</ele><time>2026-05-01T07:53:30.999Z</time></trkpt><trkpt lat="44.77755563169323" lon="7.87781096866713"><ele>322.0</ele><time>2026-05-01T07:53:31.999Z</time></trkpt><trkpt lat="44.77743574980309" lon="7.878087723260207"><ele>322.0</ele><time>2026-05-01T07:53:32.999Z</time></trkpt><trkpt lat="44.77731179758113" lon="7.878368809439406"><ele>322.0</ele><time>2026-05-01T07:53:33.999Z</time></trkpt><trkpt lat="44.77718420739435" lon="7.878660683937408"><ele>326.0</ele><time>2026-05-01T07:53:34.999Z</time></trkpt><trkpt lat="44.7770560517773" lon="7.878953383631734"><ele>330.0</ele><time>2026-05-01T07:53:35.999Z</time></trkpt><trkpt lat="44.776925796038825" lon="7.879247198871159"><ele>328.0</ele><time>2026-05-01T07:53:36.999Z</time></trkpt><trkpt lat="44.7767930274595" lon="7.879536085903804"><ele>326.0</ele><time>2026-05-01T07:53:37.999Z</time></trkpt><trkpt lat="44.77666356910226" lon="7.87982479637914"><ele>329.5</ele><time>2026-05-01T07:53:38.999Z</time></trkpt><trkpt lat="44.77653469510589" lon="7.880116309750382"><ele>333.0</ele><time>2026-05-01T07:53:39.999Z</time></trkpt><trkpt lat="44.77640645980409" lon="7.880403009174629"><ele>333.0</ele><time>2026-05-01T07:53:40.999Z</time></trkpt><trkpt lat="44.77628102136262" lon="7.88068933583006"><ele>333.0</ele><time>2026-05-01T07:53:41.999Z</time></trkpt><trkpt lat="44.77615854040332" lon="7.880973741154682"><ele>334.5</ele><time>2026-05-01T07:53:42.999Z</time></trkpt><trkpt lat="44.77603449853334" lon="7.881255750718236"><ele>336.0</ele><time>2026-05-01T07:53:43.999Z</time></trkpt><trkpt lat="44.77591151687208" lon="7.881541558211332"><ele>335.0</ele><time>2026-05-01T07:53:44.999Z</time></trkpt><trkpt lat="44.775786980061" lon="7.881826449464474"><ele>334.0</ele><time>2026-05-01T07:53:45.999Z</time></trkpt><trkpt lat="44.77566353185165" lon="7.882117052064516"><ele>334.0</ele><time>2026-05-01T07:53:46.999Z</time></trkpt><trkpt lat="44.77554121029715" lon="7.882408533780803"><ele>334.0</ele><time>2026-05-01T07:53:47.999Z</time></trkpt><trkpt lat="44.775413337031374" lon="7.882706069200607"><ele>333.0</ele><time>2026-05-01T07:53:48.999Z</time></trkpt><trkpt lat="44.77528422347703" lon="7.88299795536167"><ele>332.0</ele><time>2026-05-01T07:53:49.999Z</time></trkpt><trkpt lat="44.77514920127266" lon="7.883293222113139"><ele>333.0</ele><time>2026-05-01T07:53:50.999Z</time></trkpt><trkpt lat="44.7750181465918" lon="7.883589717705194"><ele>334.0</ele><time>2026-05-01T07:53:51.999Z</time></trkpt><trkpt lat="44.77488552110999" lon="7.88388744989238"><ele>334.0</ele><time>2026-05-01T07:53:52.999Z</time></trkpt><trkpt lat="44.77475157496762" lon="7.884194490255618"><ele>334.0</ele><time>2026-05-01T07:53:53.999Z</time></trkpt><trkpt lat="44.77461911048353" lon="7.884497076934556"><ele>334.0</ele><time>2026-05-01T07:53:54.999Z</time></trkpt><trkpt lat="44.774486513098665" lon="7.884798194808968"><ele>334.0</ele><time>2026-05-01T07:53:55.999Z</time></trkpt><trkpt lat="44.77435194775666" lon="7.885100672275257"><ele>334.0</ele><time>2026-05-01T07:53:56.999Z</time></trkpt><trkpt lat="44.774219363287976" lon="7.885400354631634"><ele>334.0</ele><time>2026-05-01T07:53:57.999Z</time></trkpt><trkpt lat="44.77408477092968" lon="7.885701801257794"><ele>336.5</ele><time>2026-05-01T07:53:58.999Z</time></trkpt><trkpt lat="44.773953277927944" lon="7.886001971965382"><ele>339.0</ele><time>2026-05-01T07:53:59.999Z</time></trkpt><trkpt lat="44.773820264899406" lon="7.886302350283233"><ele>339.0</ele><time>2026-05-01T07:54:00.999Z</time></trkpt><trkpt lat="44.77368987073984" lon="7.886598087038916"><ele>339.0</ele><time>2026-05-01T07:54:01.999Z</time></trkpt><trkpt lat="44.77355908376279" lon="7.8868960854636905"><ele>337.0</ele><time>2026-05-01T07:54:02.999Z</time></trkpt><trkpt lat="44.773430657320695" lon="7.887189549830294"><ele>335.0</ele><time>2026-05-01T07:54:03.999Z</time></trkpt><trkpt lat="44.773301291137244" lon="7.8874903896211155"><ele>336.5</ele><time>2026-05-01T07:54:04.999Z</time></trkpt><trkpt lat="44.773171402707945" lon="7.887791606306612"><ele>338.0</ele><time>2026-05-01T07:54:05.999Z</time></trkpt><trkpt lat="44.77304247878462" lon="7.888082835657718"><ele>338.0</ele><time>2026-05-01T07:54:06.999Z</time></trkpt><trkpt lat="44.77291563707682" lon="7.888369366136427"><ele>338.0</ele><time>2026-05-01T07:54:07.999Z</time></trkpt><trkpt lat="44.772790273367626" lon="7.888654278833532"><ele>333.5</ele><time>2026-05-01T07:54:08.999Z</time></trkpt><trkpt lat="44.772663850585815" lon="7.88894079386211"><ele>329.0</ele><time>2026-05-01T07:54:09.999Z</time></trkpt><trkpt lat="44.772537568755055" lon="7.889228463762166"><ele>330.0</ele><time>2026-05-01T07:54:10.999Z</time></trkpt><trkpt lat="44.77242040839445" lon="7.889499981976093"><ele>331.0</ele><time>2026-05-01T07:54:11.999Z</time></trkpt><trkpt lat="44.772304976076235" lon="7.8897567352778895"><ele>332.0</ele><time>2026-05-01T07:54:12.999Z</time></trkpt><trkpt lat="44.77219812313247" lon="7.890004304167249"><ele>334.0</ele><time>2026-05-01T07:54:13.999Z</time></trkpt><trkpt lat="44.77209354346124" lon="7.890231482472908"><ele>336.0</ele><time>2026-05-01T07:54:14.999Z</time></trkpt><trkpt lat="44.771994894643235" lon="7.890432270596795"><ele>338.0</ele><time>2026-05-01T07:54:15.999Z</time></trkpt><trkpt lat="44.77190197638862" lon="7.8905946582887365"><ele>337.0</ele><time>2026-05-01T07:54:16.999Z</time></trkpt><trkpt lat="44.771805205927514" lon="7.890741665933605"><ele>336.0</ele><time>2026-05-01T07:54:17.999Z</time></trkpt><trkpt lat="44.77171016896942" lon="7.890860031483633"><ele>335.0</ele><time>2026-05-01T07:54:18.999Z</time></trkpt><trkpt lat="44.771609251708774" lon="7.890932151290139"><ele>334.0</ele><time>2026-05-01T07:54:19.999Z</time></trkpt><trkpt lat="44.771518501953295" lon="7.890958429842018"><ele>334.0</ele><time>2026-05-01T07:54:20.999Z</time></trkpt><trkpt lat="44.77144397726427" lon="7.8909948630413735"><ele>334.0</ele><time>2026-05-01T07:54:21.999Z</time></trkpt><trkpt lat="44.7713978432729" lon="7.891071691916496"><ele>334.0</ele><time>2026-05-01T07:54:22.999Z</time></trkpt><trkpt lat="44.77139279996705" lon="7.891169657032503"><ele>334.0</ele><time>2026-05-01T07:54:23.999Z</time></trkpt><trkpt lat="44.77142892880334" lon="7.891259200080441"><ele>334.0</ele><time>2026-05-01T07:54:24.999Z</time></trkpt><trkpt lat="44.771484880330014" lon="7.8913362357693755"><ele>334.0</ele><time>2026-05-01T07:54:25.999Z</time></trkpt><trkpt lat="44.771522214315766" lon="7.891428016177871"><ele>334.0</ele><time>2026-05-01T07:54:26.999Z</time></trkpt><trkpt lat="44.771511345034206" lon="7.8915309033518755"><ele>334.0</ele><time>2026-05-01T07:54:27.999Z</time></trkpt><trkpt lat="44.77142415522114" lon="7.891609111017651"><ele>334.0</ele><time>2026-05-01T07:54:28.999Z</time></trkpt><trkpt lat="44.77135104452284" lon="7.891741643400788"><ele>334.0</ele><time>2026-05-01T07:54:29.999Z</time></trkpt><trkpt lat="44.77126073347945" lon="7.891905355928914"><ele>334.0</ele><time>2026-05-01T07:54:30.999Z</time></trkpt><trkpt lat="44.771165567211675" lon="7.892077869830931"><ele>334.0</ele><time>2026-05-01T07:54:31.999Z</time></trkpt><trkpt lat="44.77106054946953" lon="7.892268242124037"><ele>334.0</ele><time>2026-05-01T07:54:33Z</time></trkpt><trkpt lat="44.77094982964133" lon="7.892468460890038"><ele>334.0</ele><time>2026-05-01T07:54:34Z</time></trkpt><trkpt lat="44.77082888318658" lon="7.8926868712245035"><ele>334.0</ele><time>2026-05-01T07:54:35Z</time></trkpt><trkpt lat="44.77070353130921" lon="7.8929142410429085"><ele>334.0</ele><time>2026-05-01T07:54:36Z</time></trkpt><trkpt lat="44.77057658988493" lon="7.893146206591049"><ele>334.0</ele><time>2026-05-01T07:54:37Z</time></trkpt><trkpt lat="44.7704462449539" lon="7.893384391516688"><ele>334.66666666666663</ele><time>2026-05-01T07:54:38Z</time></trkpt><trkpt lat="44.770313979484555" lon="7.8936258962873955"><ele>335.3333333333333</ele><time>2026-05-01T07:54:39Z</time></trkpt><trkpt lat="44.77018032256683" lon="7.893867729489905"><ele>336.0</ele><time>2026-05-01T07:54:40Z</time></trkpt><trkpt lat="44.77004591414121" lon="7.894110244231582"><ele>336.6666666666667</ele><time>2026-05-01T07:54:41Z</time></trkpt><trkpt lat="44.769925209603656" lon="7.8943636487266815"><ele>337.33333333333337</ele><time>2026-05-01T07:54:42Z</time></trkpt><trkpt lat="44.76979191191685" lon="7.894603507241023"><ele>338.0</ele><time>2026-05-01T07:54:43Z</time></trkpt><trkpt lat="44.76964731421937" lon="7.894827977006331"><ele>338.0</ele><time>2026-05-01T07:54:44Z</time></trkpt><trkpt lat="44.76951442821744" lon="7.895067382482797"><ele>338.0</ele><time>2026-05-01T07:54:45Z</time></trkpt><trkpt lat="44.76938251561379" lon="7.8953065229133195"><ele>338.0</ele><time>2026-05-01T07:54:46Z</time></trkpt><trkpt lat="44.76925009236927" lon="7.89554658907304"><ele>338.0</ele><time>2026-05-01T07:54:47Z</time></trkpt><trkpt lat="44.769114306940594" lon="7.895792018015056"><ele>338.0</ele><time>2026-05-01T07:54:48Z</time></trkpt><trkpt lat="44.768978846271985" lon="7.896036032785888"><ele>338.0</ele><time>2026-05-01T07:54:49Z</time></trkpt><trkpt lat="44.76885634952803" lon="7.896294242236271"><ele>339.0</ele><time>2026-05-01T07:54:50Z</time></trkpt><trkpt lat="44.76872383889595" lon="7.896536696758966"><ele>340.0</ele><time>2026-05-01T07:54:51Z</time></trkpt><trkpt lat="44.76858957734156" lon="7.896777404794454"><ele>341.0</ele><time>2026-05-01T07:54:52Z</time></trkpt><trkpt lat="44.76845528045053" lon="7.897017158435264"><ele>341.0</ele><time>2026-05-01T07:54:53Z</time></trkpt><trkpt lat="44.768324288147575" lon="7.89725076772875"><ele>341.0</ele><time>2026-05-01T07:54:54Z</time></trkpt><trkpt lat="44.76818582336721" lon="7.897464038506242"><ele>341.0</ele><time>2026-05-01T07:54:55Z</time></trkpt><trkpt lat="44.7680665726874" lon="7.897679177788111"><ele>344.0</ele><time>2026-05-01T07:54:56Z</time></trkpt><trkpt lat="44.76794970826494" lon="7.8978960998021215"><ele>347.0</ele><time>2026-05-01T07:54:57Z</time></trkpt><trkpt lat="44.767837669983784" lon="7.898102105726701"><ele>350.0</ele><time>2026-05-01T07:54:58Z</time></trkpt><trkpt lat="44.767725904861315" lon="7.898289381936712"><ele>348.0</ele><time>2026-05-01T07:54:59Z</time></trkpt><trkpt lat="44.767597329162136" lon="7.898454726150707"><ele>346.0</ele><time>2026-05-01T07:55:00Z</time></trkpt><trkpt lat="44.767446852093734" lon="7.898603448151089"><ele>344.0</ele><time>2026-05-01T07:55:01Z</time></trkpt><trkpt lat="44.76727240434568" lon="7.89870651995644"><ele>344.0</ele><time>2026-05-01T07:55:02Z</time></trkpt><trkpt lat="44.767088803446235" lon="7.898799291149735"><ele>344.0</ele><time>2026-05-01T07:55:03Z</time></trkpt><trkpt lat="44.76691651760688" lon="7.8988961881480435"><ele>344.0</ele><time>2026-05-01T07:55:04Z</time></trkpt><trkpt lat="44.76674466157177" lon="7.89895880398431"><ele>344.33333333333337</ele><time>2026-05-01T07:55:05Z</time></trkpt><trkpt lat="44.766588249939204" lon="7.899022200278853"><ele>344.6666666666667</ele><time>2026-05-01T07:55:06Z</time></trkpt><trkpt lat="44.766438185920734" lon="7.899102443762596"><ele>345.0</ele><time>2026-05-01T07:55:07Z</time></trkpt><trkpt lat="44.766299938398774" lon="7.899224268669386"><ele>347.0</ele><time>2026-05-01T07:55:08Z</time></trkpt><trkpt lat="44.76617588769775" lon="7.899387903977022"><ele>349.0</ele><time>2026-05-01T07:55:09Z</time></trkpt><trkpt lat="44.76606043935585" lon="7.89958041829145"><ele>351.0</ele><time>2026-05-01T07:55:10Z</time></trkpt><trkpt lat="44.765941914219034" lon="7.8997634552209535"><ele>351.0</ele><time>2026-05-01T07:55:11Z</time></trkpt><trkpt lat="44.765824692537336" lon="7.899940570395405"><ele>351.0</ele><time>2026-05-01T07:55:12Z</time></trkpt><trkpt lat="44.765717743592965" lon="7.900128476016354"><ele>351.0</ele><time>2026-05-01T07:55:13Z</time></trkpt><trkpt lat="44.76564637388716" lon="7.9003613084830775"><ele>354.6666666666667</ele><time>2026-05-01T07:55:14Z</time></trkpt><trkpt lat="44.7655907360142" lon="7.90063021442362"><ele>358.33333333333337</ele><time>2026-05-01T07:55:15Z</time></trkpt><trkpt lat="44.765539076182264" lon="7.9008941408447075"><ele>362.0</ele><time>2026-05-01T07:55:16Z</time></trkpt><trkpt lat="44.76548971927061" lon="7.901151533014341"><ele>365.0</ele><time>2026-05-01T07:55:17Z</time></trkpt><trkpt lat="44.765445163014505" lon="7.901400606702557"><ele>368.0</ele><time>2026-05-01T07:55:18Z</time></trkpt><trkpt lat="44.765404996579335" lon="7.901650050882244"><ele>371.0</ele><time>2026-05-01T07:55:18.999Z</time></trkpt><trkpt lat="44.765384994860106" lon="7.901922671156527"><ele>370.6666666666667</ele><time>2026-05-01T07:55:19.999Z</time></trkpt><trkpt lat="44.76537775694095" lon="7.902210297290591"><ele>370.3333333333333</ele><time>2026-05-01T07:55:20.999Z</time></trkpt><trkpt lat="44.76537349724174" lon="7.902494190788068"><ele>370.0</ele><time>2026-05-01T07:55:21.999Z</time></trkpt><trkpt lat="44.76536994064482" lon="7.902773542934347"><ele>370.0</ele><time>2026-05-01T07:55:22.999Z</time></trkpt><trkpt lat="44.76537056281807" lon="7.903052749168181"><ele>370.0</ele><time>2026-05-01T07:55:23.999Z</time></trkpt><trkpt lat="44.76536130745817" lon="7.903331012003861"><ele>370.0</ele><time>2026-05-01T07:55:24.999Z</time></trkpt><trkpt lat="44.76537920962399" lon="7.903608164178333"><ele>371.0</ele><time>2026-05-01T07:55:25.999Z</time></trkpt><trkpt lat="44.765386592365836" lon="7.90388412874316"><ele>372.0</ele><time>2026-05-01T07:55:26.999Z</time></trkpt><trkpt lat="44.765369187566854" lon="7.904159405529989"><ele>373.0</ele><time>2026-05-01T07:55:27.999Z</time></trkpt><trkpt lat="44.765342835593806" lon="7.9044389516173394"><ele>374.0</ele><time>2026-05-01T07:55:28.999Z</time></trkpt><trkpt lat="44.765303517763655" lon="7.904716482391679"><ele>375.0</ele><time>2026-05-01T07:55:29.999Z</time></trkpt><trkpt lat="44.76525203095423" lon="7.904993014214918"><ele>376.0</ele><time>2026-05-01T07:55:30.999Z</time></trkpt><trkpt lat="44.76518218074265" lon="7.905261172396949"><ele>373.3333333333333</ele><time>2026-05-01T07:55:31.999Z</time></trkpt><trkpt lat="44.76509976406177" lon="7.905526965928012"><ele>370.6666666666667</ele><time>2026-05-01T07:55:32.999Z</time></trkpt><trkpt lat="44.76503501250447" lon="7.905793615112527"><ele>368.0</ele><time>2026-05-01T07:55:33.999Z</time></trkpt><trkpt lat="44.764956138239675" lon="7.906037381957749"><ele>368.0</ele><time>2026-05-01T07:55:34.999Z</time></trkpt><trkpt lat="44.764880245084505" lon="7.906274483097554"><ele>368.0</ele><time>2026-05-01T07:55:35.999Z</time></trkpt><trkpt lat="44.764777495857516" lon="7.906490399195095"><ele>368.0</ele><time>2026-05-01T07:55:36.999Z</time></trkpt><trkpt lat="44.76467822918296" lon="7.906709382981819"><ele>371.6666666666667</ele><time>2026-05-01T07:55:37.999Z</time></trkpt><trkpt lat="44.76456940518932" lon="7.9069172839535025"><ele>375.3333333333333</ele><time>2026-05-01T07:55:38.999Z</time></trkpt><trkpt lat="44.76447476615162" lon="7.907141403132113"><ele>379.0</ele><time>2026-05-01T07:55:39.999Z</time></trkpt><trkpt lat="44.76437155757671" lon="7.90734838703522"><ele>375.66666666666663</ele><time>2026-05-01T07:55:40.999Z</time></trkpt><trkpt lat="44.7642610723632" lon="7.90754080000993"><ele>372.3333333333333</ele><time>2026-05-01T07:55:41.999Z</time></trkpt><trkpt lat="44.7641903317291" lon="7.907761886395641"><ele>369.0</ele><time>2026-05-01T07:55:42.999Z</time></trkpt><trkpt lat="44.76409494512059" lon="7.907967304884644"><ele>369.0</ele><time>2026-05-01T07:55:43.999Z</time></trkpt><trkpt lat="44.76402312151532" lon="7.90817506647536"><ele>369.0</ele><time>2026-05-01T07:55:44.999Z</time></trkpt><trkpt lat="44.76395650073763" lon="7.908372668083851"><ele>369.0</ele><time>2026-05-01T07:55:45.999Z</time></trkpt><trkpt lat="44.76390714208534" lon="7.908570530666965"><ele>368.25</ele><time>2026-05-01T07:55:46.999Z</time></trkpt><trkpt lat="44.76382346514706" lon="7.908736055246268"><ele>367.5</ele><time>2026-05-01T07:55:47.999Z</time></trkpt><trkpt lat="44.76374332919017" lon="7.908895405142659"><ele>366.75</ele><time>2026-05-01T07:55:48.999Z</time></trkpt><trkpt lat="44.76359785548602" lon="7.908970070863027"><ele>366.0</ele><time>2026-05-01T07:55:49.999Z</time></trkpt><trkpt lat="44.76345729722015" lon="7.909076319076288"><ele>366.0</ele><time>2026-05-01T07:55:50.999Z</time></trkpt><trkpt lat="44.76331161240112" lon="7.909189700125018"><ele>366.0</ele><time>2026-05-01T07:55:51.999Z</time></trkpt><trkpt lat="44.76317809683984" lon="7.909322896935125"><ele>366.0</ele><time>2026-05-01T07:55:52.999Z</time></trkpt><trkpt lat="44.76304265242681" lon="7.909455886589457"><ele>369.0</ele><time>2026-05-01T07:55:53.999Z</time></trkpt><trkpt lat="44.76293111973842" lon="7.909619407167022"><ele>372.0</ele><time>2026-05-01T07:55:54.999Z</time></trkpt><trkpt lat="44.76285008001747" lon="7.909808203201768"><ele>375.0</ele><time>2026-05-01T07:55:55.999Z</time></trkpt><trkpt lat="44.76276013041399" lon="7.909974504898731"><ele>373.25</ele><time>2026-05-01T07:55:56.999Z</time></trkpt><trkpt lat="44.76268006063905" lon="7.910141132655597"><ele>371.5</ele><time>2026-05-01T07:55:57.999Z</time></trkpt><trkpt lat="44.76260940934553" lon="7.910291191458583"><ele>369.75</ele><time>2026-05-01T07:55:58.999Z</time></trkpt><trkpt lat="44.762552938569215" lon="7.910445245771925"><ele>368.0</ele><time>2026-05-01T07:55:59.999Z</time></trkpt><trkpt lat="44.762470071523786" lon="7.910556434211574"><ele>368.0</ele><time>2026-05-01T07:56:00.999Z</time></trkpt><trkpt lat="44.76237706664595" lon="7.910630193705996"><ele>368.0</ele><time>2026-05-01T07:56:01.999Z</time></trkpt><trkpt lat="44.76229137720596" lon="7.910633930705052"><ele>368.0</ele><time>2026-05-01T07:56:02.999Z</time></trkpt><trkpt lat="44.76221394312147" lon="7.910757583268313"><ele>368.0</ele><time>2026-05-01T07:56:03.999Z</time></trkpt><trkpt lat="44.7621701061331" lon="7.910855778121643"><ele>368.0</ele><time>2026-05-01T07:56:04.999Z</time></trkpt><trkpt lat="44.762154328216674" lon="7.910954668648233"><ele>368.83333333333337</ele><time>2026-05-01T07:56:05.999Z</time></trkpt><trkpt lat="44.76215187332552" lon="7.911084600452045"><ele>369.6666666666667</ele><time>2026-05-01T07:56:06.999Z</time></trkpt><trkpt lat="44.762116426581294" lon="7.911197013367906"><ele>370.5</ele><time>2026-05-01T07:56:07.999Z</time></trkpt><trkpt lat="44.76206898476484" lon="7.911296883276915"><ele>371.3333333333333</ele><time>2026-05-01T07:56:08.999Z</time></trkpt><trkpt lat="44.76201805065331" lon="7.911376905491349"><ele>372.16666666666663</ele><time>2026-05-01T07:56:09.999Z</time></trkpt><trkpt lat="44.7619625822948" lon="7.911437477610137"><ele>373.0</ele><time>2026-05-01T07:56:10.999Z</time></trkpt><trkpt lat="44.76188986183496" lon="7.911524603137773"><ele>373.0</ele><time>2026-05-01T07:56:12.999Z</time></trkpt><trkpt lat="44.762020683820474" lon="7.91146425271275"><ele>373.0</ele><time>2026-05-01T07:56:17.999Z</time></trkpt><trkpt lat="44.76207717086113" lon="7.91136654274926"><ele>373.0</ele><time>2026-05-01T07:56:18.999Z</time></trkpt><trkpt lat="44.762149977890964" lon="7.911265950286588"><ele>373.0</ele><time>2026-05-01T07:56:19.999Z</time></trkpt><trkpt lat="44.7622053786241" lon="7.91117407355577"><ele>373.0</ele><time>2026-05-01T07:56:20.999Z</time></trkpt><trkpt lat="44.76225175117442" lon="7.911097465892547"><ele>373.0</ele><time>2026-05-01T07:56:21.999Z</time></trkpt><trkpt lat="44.76230987276179" lon="7.910976153842459"><ele>373.0</ele><time>2026-05-01T07:56:23.999Z</time></trkpt><trkpt lat="44.7623743309978" lon="7.910828522266272"><ele>373.0</ele><time>2026-05-01T07:56:27.999Z</time></trkpt><trkpt lat="44.76234107295176" lon="7.91071353507702"><ele>373.0</ele><time>2026-05-01T07:56:34.999Z</time></trkpt><trkpt lat="44.762278217632606" lon="7.910648879809439"><ele>373.0</ele><time>2026-05-01T07:56:35.999Z</time></trkpt><trkpt lat="44.7621807145726" lon="7.910618560208613"><ele>372.75</ele><time>2026-05-01T07:56:36.999Z</time></trkpt><trkpt lat="44.76208559940405" lon="7.9106318581282045"><ele>372.5</ele><time>2026-05-01T07:56:37.999Z</time></trkpt><trkpt lat="44.76196999188772" lon="7.9105908830219915"><ele>372.25</ele><time>2026-05-01T07:56:39Z</time></trkpt><trkpt lat="44.76182628448459" lon="7.910564002772061"><ele>372.0</ele><time>2026-05-01T07:56:40Z</time></trkpt><trkpt lat="44.761679661187685" lon="7.910535434951824"><ele>372.0</ele><time>2026-05-01T07:56:41Z</time></trkpt><trkpt lat="44.76152762621988" lon="7.910499320592599"><ele>372.0</ele><time>2026-05-01T07:56:42Z</time></trkpt><trkpt lat="44.76136314228555" lon="7.910461103210753"><ele>372.0</ele><time>2026-05-01T07:56:43Z</time></trkpt><trkpt lat="44.761183688352986" lon="7.910423191410201"><ele>374.3333333333333</ele><time>2026-05-01T07:56:44Z</time></trkpt><trkpt lat="44.760993192101864" lon="7.910395778178141"><ele>376.66666666666663</ele><time>2026-05-01T07:56:45Z</time></trkpt><trkpt lat="44.76081878285967" lon="7.910356149598267"><ele>379.0</ele><time>2026-05-01T07:56:46Z</time></trkpt><trkpt lat="44.76065386123982" lon="7.910369708541463"><ele>379.0</ele><time>2026-05-01T07:56:47Z</time></trkpt><trkpt lat="44.76048904190725" lon="7.910417911642365"><ele>379.0</ele><time>2026-05-01T07:56:48Z</time></trkpt><trkpt lat="44.76033523129984" lon="7.910499675926932"><ele>379.0</ele><time>2026-05-01T07:56:49Z</time></trkpt><trkpt lat="44.7601868403218" lon="7.9105960698359805"><ele>380.3333333333333</ele><time>2026-05-01T07:56:50Z</time></trkpt><trkpt lat="44.760043145003834" lon="7.910707526652693"><ele>381.6666666666667</ele><time>2026-05-01T07:56:51Z</time></trkpt><trkpt lat="44.75989346686525" lon="7.910797165099814"><ele>383.0</ele><time>2026-05-01T07:56:52Z</time></trkpt><trkpt lat="44.75972882388037" lon="7.910886579063415"><ele>383.33333333333337</ele><time>2026-05-01T07:56:53Z</time></trkpt><trkpt lat="44.759559103120395" lon="7.910968361651886"><ele>383.6666666666667</ele><time>2026-05-01T07:56:54Z</time></trkpt><trkpt lat="44.7593889018693" lon="7.91106903369731"><ele>384.0</ele><time>2026-05-01T07:56:55Z</time></trkpt><trkpt lat="44.7592286995789" lon="7.911187279368648"><ele>384.33333333333337</ele><time>2026-05-01T07:56:56Z</time></trkpt><trkpt lat="44.75906804720252" lon="7.9112890791343995"><ele>384.6666666666667</ele><time>2026-05-01T07:56:57Z</time></trkpt><trkpt lat="44.758920710180796" lon="7.911388786672491"><ele>385.0</ele><time>2026-05-01T07:56:58Z</time></trkpt><trkpt lat="44.75878963314849" lon="7.911490613086903"><ele>385.0</ele><time>2026-05-01T07:56:59Z</time></trkpt><trkpt lat="44.7586597177072" lon="7.911578729621124"><ele>385.0</ele><time>2026-05-01T07:57:00Z</time></trkpt><trkpt lat="44.75852272555992" lon="7.911628521121743"><ele>385.0</ele><time>2026-05-01T07:57:01Z</time></trkpt><trkpt lat="44.758395042461494" lon="7.9116936138194065"><ele>385.0</ele><time>2026-05-01T07:57:02Z</time></trkpt><trkpt lat="44.758266263770075" lon="7.91172008704856"><ele>388.0</ele><time>2026-05-01T07:57:03Z</time></trkpt><trkpt lat="44.75813977622542" lon="7.911744694283026"><ele>391.0</ele><time>2026-05-01T07:57:04Z</time></trkpt><trkpt lat="44.758015527501286" lon="7.911775667734825"><ele>394.0</ele><time>2026-05-01T07:57:05Z</time></trkpt><trkpt lat="44.757892879796344" lon="7.911813838562933"><ele>397.0</ele><time>2026-05-01T07:57:06Z</time></trkpt><trkpt lat="44.757778168134756" lon="7.911842179444911"><ele>393.0</ele><time>2026-05-01T07:57:07Z</time></trkpt><trkpt lat="44.757674438985475" lon="7.911895667497411"><ele>389.0</ele><time>2026-05-01T07:57:08Z</time></trkpt><trkpt lat="44.757591828803896" lon="7.912001053926454"><ele>385.0</ele><time>2026-05-01T07:57:09Z</time></trkpt><trkpt lat="44.757547577738634" lon="7.91215336221749"><ele>381.0</ele><time>2026-05-01T07:57:10Z</time></trkpt><trkpt lat="44.75752074836825" lon="7.912328049922382"><ele>381.0</ele><time>2026-05-01T07:57:11Z</time></trkpt><trkpt lat="44.75747409868746" lon="7.912487194801201"><ele>381.0</ele><time>2026-05-01T07:57:12Z</time></trkpt><trkpt lat="44.757434918211246" lon="7.912650406708358"><ele>381.0</ele><time>2026-05-01T07:57:13Z</time></trkpt><trkpt lat="44.75738261444394" lon="7.912809286751027"><ele>381.0</ele><time>2026-05-01T07:57:14Z</time></trkpt><trkpt lat="44.75730077568736" lon="7.912936688907917"><ele>381.5</ele><time>2026-05-01T07:57:15Z</time></trkpt><trkpt lat="44.757206490828665" lon="7.913044058199118"><ele>382.0</ele><time>2026-05-01T07:57:16Z</time></trkpt><trkpt lat="44.75709714906089" lon="7.91310439916526"><ele>382.5</ele><time>2026-05-01T07:57:17Z</time></trkpt><trkpt lat="44.75700478783697" lon="7.91318739567065"><ele>383.0</ele><time>2026-05-01T07:57:18Z</time></trkpt><trkpt lat="44.756965407947" lon="7.913322866693077"><ele>379.75</ele><time>2026-05-01T07:57:19Z</time></trkpt><trkpt lat="44.75698019805421" lon="7.913481226603072"><ele>376.5</ele><time>2026-05-01T07:57:19.999Z</time></trkpt><trkpt lat="44.757045420049394" lon="7.913619883653989"><ele>373.25</ele><time>2026-05-01T07:57:20.999Z</time></trkpt><trkpt lat="44.75713419813596" lon="7.913727255660137"><ele>370.0</ele><time>2026-05-01T07:57:21.999Z</time></trkpt><trkpt lat="44.75722250968192" lon="7.913827981088899"><ele>370.0</ele><time>2026-05-01T07:57:22.999Z</time></trkpt><trkpt lat="44.7573025887944" lon="7.913929775091242"><ele>370.0</ele><time>2026-05-01T07:57:23.999Z</time></trkpt><trkpt lat="44.75737605451694" lon="7.914013304441723"><ele>370.0</ele><time>2026-05-01T07:57:24.999Z</time></trkpt><trkpt lat="44.7574189554957" lon="7.914094272042997"><ele>370.0</ele><time>2026-05-01T07:57:25.999Z</time></trkpt><trkpt lat="44.75746810632943" lon="7.914213372179408"><ele>370.0</ele><time>2026-05-01T07:57:27.999Z</time></trkpt><trkpt lat="44.7573656021" lon="7.914275469647959"><ele>370.0</ele><time>2026-05-01T07:57:29.999Z</time></trkpt><trkpt lat="44.757299919328695" lon="7.914218431584667"><ele>370.0</ele><time>2026-05-01T07:57:30.999Z</time></trkpt><trkpt lat="44.75723181615128" lon="7.9141238835543435"><ele>370.0</ele><time>2026-05-01T07:57:31.999Z</time></trkpt><trkpt lat="44.75716102208442" lon="7.914021813520857"><ele>370.0</ele><time>2026-05-01T07:57:32.999Z</time></trkpt><trkpt lat="44.75707202072763" lon="7.913914887614731"><ele>370.0</ele><time>2026-05-01T07:57:33.999Z</time></trkpt><trkpt lat="44.75697633473338" lon="7.913796108689821"><ele>370.0</ele><time>2026-05-01T07:57:34.999Z</time></trkpt><trkpt lat="44.75688837657628" lon="7.913685624576928"><ele>370.0</ele><time>2026-05-01T07:57:35.999Z</time></trkpt><trkpt lat="44.75680680110147" lon="7.913574409508375"><ele>370.0</ele><time>2026-05-01T07:57:36.999Z</time></trkpt><trkpt lat="44.75673109439436" lon="7.913457261326756"><ele>370.0</ele><time>2026-05-01T07:57:37.999Z</time></trkpt><trkpt lat="44.75666412448505" lon="7.913333938233145"><ele>367.0</ele><time>2026-05-01T07:57:38.999Z</time></trkpt><trkpt lat="44.7566021488388" lon="7.913212395448485"><ele>364.0</ele><time>2026-05-01T07:57:39.999Z</time></trkpt><trkpt lat="44.75655365049097" lon="7.913099285668756"><ele>361.0</ele><time>2026-05-01T07:57:40.999Z</time></trkpt><trkpt lat="44.75652313051195" lon="7.913010868118412"><ele>358.0</ele><time>2026-05-01T07:57:41.999Z</time></trkpt><trkpt lat="44.75643463792178" lon="7.912936681983446"><ele>355.0</ele><time>2026-05-01T07:57:43.999Z</time></trkpt><trkpt lat="44.75635619967712" lon="7.913065087525939"><ele>355.0</ele><time>2026-05-01T07:57:45.999Z</time></trkpt><trkpt lat="44.75638700231009" lon="7.9132108680121105"><ele>355.0</ele><time>2026-05-01T07:57:46.999Z</time></trkpt><trkpt lat="44.756456289336825" lon="7.913337206285253"><ele>355.0</ele><time>2026-05-01T07:57:47.999Z</time></trkpt><trkpt lat="44.75651877886408" lon="7.913492864851598"><ele>355.0</ele><time>2026-05-01T07:57:48.999Z</time></trkpt><trkpt lat="44.75658200415756" lon="7.913666489998967"><ele>351.75</ele><time>2026-05-01T07:57:49.999Z</time></trkpt><trkpt lat="44.756650799739226" lon="7.913842614503998"><ele>348.5</ele><time>2026-05-01T07:57:50.999Z</time></trkpt><trkpt lat="44.75673836619088" lon="7.914004269580776"><ele>345.25</ele><time>2026-05-01T07:57:51.999Z</time></trkpt><trkpt lat="44.75683932178437" lon="7.914145601362194"><ele>342.0</ele><time>2026-05-01T07:57:52.999Z</time></trkpt><trkpt lat="44.75694386367065" lon="7.914279025389698"><ele>342.0</ele><time>2026-05-01T07:57:53.999Z</time></trkpt><trkpt lat="44.75704586062927" lon="7.914416735825701"><ele>342.0</ele><time>2026-05-01T07:57:54.999Z</time></trkpt><trkpt lat="44.7571460973158" lon="7.91455537250515"><ele>342.0</ele><time>2026-05-01T07:57:55.999Z</time></trkpt><trkpt lat="44.757248050439074" lon="7.914690119770933"><ele>342.0</ele><time>2026-05-01T07:57:56.999Z</time></trkpt><trkpt lat="44.7573558075796" lon="7.914813706864103"><ele>342.0</ele><time>2026-05-01T07:57:57.999Z</time></trkpt><trkpt lat="44.75747533010343" lon="7.91492148320067"><ele>342.0</ele><time>2026-05-01T07:57:58.999Z</time></trkpt><trkpt lat="44.75758860054698" lon="7.915016878872351"><ele>342.0</ele><time>2026-05-01T07:57:59.999Z</time></trkpt><trkpt lat="44.757691797830844" lon="7.915101300384186"><ele>342.0</ele><time>2026-05-01T07:58:00.999Z</time></trkpt><trkpt lat="44.75778808956394" lon="7.915166545455698"><ele>344.3333333333333</ele><time>2026-05-01T07:58:01.999Z</time></trkpt><trkpt lat="44.75787658172776" lon="7.915190766443686"><ele>346.6666666666667</ele><time>2026-05-01T07:58:02.999Z</time></trkpt><trkpt lat="44.75796261587899" lon="7.915193509605901"><ele>349.0</ele><time>2026-05-01T07:58:03.999Z</time></trkpt><trkpt lat="44.75804177470969" lon="7.9152166231360805"><ele>351.33333333333337</ele><time>2026-05-01T07:58:04.999Z</time></trkpt><trkpt lat="44.75810801551081" lon="7.915297314947255"><ele>353.6666666666667</ele><time>2026-05-01T07:58:05.999Z</time></trkpt><trkpt lat="44.75814463288017" lon="7.915416463539536"><ele>356.0</ele><time>2026-05-01T07:58:06.999Z</time></trkpt><trkpt lat="44.758138752255746" lon="7.915568837252709"><ele>356.0</ele><time>2026-05-01T07:58:07.999Z</time></trkpt><trkpt lat="44.75808906609044" lon="7.915709106328903"><ele>356.0</ele><time>2026-05-01T07:58:08.999Z</time></trkpt><trkpt lat="44.75797907811996" lon="7.915811488825581"><ele>356.0</ele><time>2026-05-01T07:58:09.999Z</time></trkpt><trkpt lat="44.75785222891974" lon="7.915857614291091"><ele>356.0</ele><time>2026-05-01T07:58:10.999Z</time></trkpt><trkpt lat="44.7577308159071" lon="7.915908766263024"><ele>352.75</ele><time>2026-05-01T07:58:11.999Z</time></trkpt><trkpt lat="44.757622637633766" lon="7.915984762938156"><ele>349.5</ele><time>2026-05-01T07:58:12.999Z</time></trkpt><trkpt lat="44.75752891765229" lon="7.916110224254401"><ele>346.25</ele><time>2026-05-01T07:58:13.999Z</time></trkpt><trkpt lat="44.75744076916935" lon="7.916261099070682"><ele>343.0</ele><time>2026-05-01T07:58:14.999Z</time></trkpt><trkpt lat="44.75732764273783" lon="7.9163759297838405"><ele>343.0</ele><time>2026-05-01T07:58:15.999Z</time></trkpt><trkpt lat="44.75720888728543" lon="7.916474392654082"><ele>343.0</ele><time>2026-05-01T07:58:16.999Z</time></trkpt><trkpt lat="44.757095281229425" lon="7.9165794493931845"><ele>343.0</ele><time>2026-05-01T07:58:17.999Z</time></trkpt><trkpt lat="44.756975783971505" lon="7.916661048356107"><ele>343.0</ele><time>2026-05-01T07:58:18.999Z</time></trkpt><trkpt lat="44.75686285466093" lon="7.916742071730777"><ele>339.59999999999997</ele><time>2026-05-01T07:58:19.999Z</time></trkpt><trkpt lat="44.75674869090461" lon="7.916762417350581"><ele>336.2</ele><time>2026-05-01T07:58:20.999Z</time></trkpt><trkpt lat="44.75664652797407" lon="7.916793191331159"><ele>332.8</ele><time>2026-05-01T07:58:21.999Z</time></trkpt><trkpt lat="44.756548564265344" lon="7.916817804160436"><ele>329.4</ele><time>2026-05-01T07:58:22.999Z</time></trkpt><trkpt lat="44.756471163159944" lon="7.916884502809688"><ele>326.0</ele><time>2026-05-01T07:58:23.999Z</time></trkpt><trkpt lat="44.756422176493885" lon="7.917008944816065"><ele>326.0</ele><time>2026-05-01T07:58:24.999Z</time></trkpt><trkpt lat="44.75642402632384" lon="7.917174318860416"><ele>326.0</ele><time>2026-05-01T07:58:25.999Z</time></trkpt><trkpt lat="44.75646546799208" lon="7.917314934859467"><ele>326.0</ele><time>2026-05-01T07:58:26.999Z</time></trkpt><trkpt lat="44.756541540916494" lon="7.917427972301533"><ele>326.0</ele><time>2026-05-01T07:58:27.999Z</time></trkpt><trkpt lat="44.756640135263936" lon="7.917512058909881"><ele>323.8</ele><time>2026-05-01T07:58:28.999Z</time></trkpt><trkpt lat="44.75672512048473" lon="7.917619277203947"><ele>321.6</ele><time>2026-05-01T07:58:29.999Z</time></trkpt><trkpt lat="44.75676352551264" lon="7.917769203715787"><ele>319.4</ele><time>2026-05-01T07:58:30.999Z</time></trkpt><trkpt lat="44.756829102315066" lon="7.917894116365272"><ele>317.2</ele><time>2026-05-01T07:58:31.999Z</time></trkpt><trkpt lat="44.756879012932465" lon="7.918031075609482"><ele>315.0</ele><time>2026-05-01T07:58:32.999Z</time></trkpt><trkpt lat="44.75693299414522" lon="7.918171108468237"><ele>319.75</ele><time>2026-05-01T07:58:33.999Z</time></trkpt><trkpt lat="44.756965573481246" lon="7.918325483325823"><ele>324.5</ele><time>2026-05-01T07:58:34.999Z</time></trkpt><trkpt lat="44.756989423054684" lon="7.918482029805223"><ele>329.25</ele><time>2026-05-01T07:58:35.999Z</time></trkpt><trkpt lat="44.75700010581866" lon="7.918651440121303"><ele>334.0</ele><time>2026-05-01T07:58:36.999Z</time></trkpt><trkpt lat="44.75697344906829" lon="7.918816482568076"><ele>334.0</ele><time>2026-05-01T07:58:37.999Z</time></trkpt><trkpt lat="44.75692865946478" lon="7.9189893631569355"><ele>334.0</ele><time>2026-05-01T07:58:38.999Z</time></trkpt><trkpt lat="44.75686393761233" lon="7.919153394567991"><ele>334.0</ele><time>2026-05-01T07:58:39.999Z</time></trkpt><trkpt lat="44.756774661890965" lon="7.919290794045387"><ele>334.0</ele><time>2026-05-01T07:58:40.999Z</time></trkpt><trkpt lat="44.75666613432184" lon="7.9194237407187185"><ele>331.0</ele><time>2026-05-01T07:58:41.998Z</time></trkpt><trkpt lat="44.75655101740233" lon="7.919550836675544"><ele>328.0</ele><time>2026-05-01T07:58:42.998Z</time></trkpt><trkpt lat="44.756443620310726" lon="7.919688035481558"><ele>325.0</ele><time>2026-05-01T07:58:43.998Z</time></trkpt><trkpt lat="44.756327239096514" lon="7.919805002549242"><ele>322.0</ele><time>2026-05-01T07:58:45Z</time></trkpt><trkpt lat="44.75621085991834" lon="7.919924824706136"><ele>322.0</ele><time>2026-05-01T07:58:46Z</time></trkpt><trkpt lat="44.75607305855879" lon="7.920011205276071"><ele>322.0</ele><time>2026-05-01T07:58:47Z</time></trkpt><trkpt lat="44.755931151137275" lon="7.920095631491851"><ele>322.0</ele><time>2026-05-01T07:58:48Z</time></trkpt><trkpt lat="44.75578437099999" lon="7.920180755487385"><ele>317.0</ele><time>2026-05-01T07:58:49Z</time></trkpt><trkpt lat="44.75564508193122" lon="7.9202848492951095"><ele>312.0</ele><time>2026-05-01T07:58:50Z</time></trkpt><trkpt lat="44.75549921102849" lon="7.920368130008947"><ele>307.0</ele><time>2026-05-01T07:58:51Z</time></trkpt><trkpt lat="44.7553566948646" lon="7.92045567962812"><ele>307.0</ele><time>2026-05-01T07:58:52Z</time></trkpt><trkpt lat="44.75521768392857" lon="7.920538981308261"><ele>307.0</ele><time>2026-05-01T07:58:53Z</time></trkpt><trkpt lat="44.755079305160635" lon="7.920616837158878"><ele>307.0</ele><time>2026-05-01T07:58:54Z</time></trkpt><trkpt lat="44.75493384914668" lon="7.920697354715717"><ele>304.3333333333333</ele><time>2026-05-01T07:58:55Z</time></trkpt><trkpt lat="44.75478928988939" lon="7.920773564939138"><ele>301.6666666666667</ele><time>2026-05-01T07:58:56Z</time></trkpt><trkpt lat="44.754649397084094" lon="7.920851233179803"><ele>299.0</ele><time>2026-05-01T07:58:57Z</time></trkpt><trkpt lat="44.75451501737107" lon="7.920934029182789"><ele>298.5</ele><time>2026-05-01T07:58:58Z</time></trkpt><trkpt lat="44.754382820427296" lon="7.921027475821541"><ele>298.0</ele><time>2026-05-01T07:58:59Z</time></trkpt><trkpt lat="44.75425784552713" lon="7.9211346631546995"><ele>297.5</ele><time>2026-05-01T07:59:00Z</time></trkpt><trkpt lat="44.754153607191355" lon="7.921281033259705"><ele>297.0</ele><time>2026-05-01T07:59:01Z</time></trkpt><trkpt lat="44.754087447036376" lon="7.921472596926657"><ele>295.5</ele><time>2026-05-01T07:59:02Z</time></trkpt><trkpt lat="44.754028629000736" lon="7.921660311521199"><ele>294.0</ele><time>2026-05-01T07:59:03Z</time></trkpt><trkpt lat="44.753953636513906" lon="7.921834150855638"><ele>292.5</ele><time>2026-05-01T07:59:04Z</time></trkpt><trkpt lat="44.753896986967355" lon="7.922019593720666"><ele>291.0</ele><time>2026-05-01T07:59:05Z</time></trkpt><trkpt lat="44.753794951897135" lon="7.9221729660923055"><ele>290.5</ele><time>2026-05-01T07:59:06Z</time></trkpt><trkpt lat="44.753667493529804" lon="7.922288218621657"><ele>290.0</ele><time>2026-05-01T07:59:07Z</time></trkpt><trkpt lat="44.75352882459702" lon="7.9223582577361435"><ele>289.5</ele><time>2026-05-01T07:59:08Z</time></trkpt><trkpt lat="44.753395301697275" lon="7.922417823576225"><ele>289.0</ele><time>2026-05-01T07:59:09Z</time></trkpt><trkpt lat="44.75325703603302" lon="7.9224872919562035"><ele>288.0</ele><time>2026-05-01T07:59:10Z</time></trkpt><trkpt lat="44.75312012277242" lon="7.922552791328828"><ele>287.0</ele><time>2026-05-01T07:59:11Z</time></trkpt><trkpt lat="44.75297720680634" lon="7.922588775238294"><ele>286.0</ele><time>2026-05-01T07:59:12Z</time></trkpt><trkpt lat="44.752823781013774" lon="7.922591898611436"><ele>285.0</ele><time>2026-05-01T07:59:13Z</time></trkpt><trkpt lat="44.75267156288262" lon="7.922573498624034"><ele>283.5</ele><time>2026-05-01T07:59:14Z</time></trkpt><trkpt lat="44.75252312205003" lon="7.922544245306465"><ele>282.0</ele><time>2026-05-01T07:59:15Z</time></trkpt><trkpt lat="44.75237643672647" lon="7.922514981527053"><ele>280.5</ele><time>2026-05-01T07:59:16Z</time></trkpt><trkpt lat="44.75223312852413" lon="7.922486526042524"><ele>279.0</ele><time>2026-05-01T07:59:17Z</time></trkpt><trkpt lat="44.75209147408444" lon="7.922459432475009"><ele>279.0</ele><time>2026-05-01T07:59:18Z</time></trkpt><trkpt lat="44.75194712723052" lon="7.922441673950473"><ele>279.0</ele><time>2026-05-01T07:59:19Z</time></trkpt><trkpt lat="44.75180394816618" lon="7.922430531189035"><ele>279.0</ele><time>2026-05-01T07:59:20Z</time></trkpt><trkpt lat="44.7516610424247" lon="7.922432137428953"><ele>279.0</ele><time>2026-05-01T07:59:21Z</time></trkpt><trkpt lat="44.751515490996795" lon="7.922481155616121"><ele>278.0</ele><time>2026-05-01T07:59:22Z</time></trkpt><trkpt lat="44.75137454068054" lon="7.922547142144529"><ele>277.0</ele><time>2026-05-01T07:59:23Z</time></trkpt><trkpt lat="44.75123512998536" lon="7.922615275446542"><ele>276.0</ele><time>2026-05-01T07:59:23.999Z</time></trkpt><trkpt lat="44.75109090814172" lon="7.922691906193513"><ele>274.5</ele><time>2026-05-01T07:59:24.999Z</time></trkpt><trkpt lat="44.750952109195346" lon="7.922789170948578"><ele>273.0</ele><time>2026-05-01T07:59:25.999Z</time></trkpt><trkpt lat="44.75082822021482" lon="7.9229025135315725"><ele>271.5</ele><time>2026-05-01T07:59:26.999Z</time></trkpt><trkpt lat="44.750720991079994" lon="7.923041239599204"><ele>270.0</ele><time>2026-05-01T07:59:27.999Z</time></trkpt><trkpt lat="44.750645854402414" lon="7.923218916224072"><ele>269.3333333333333</ele><time>2026-05-01T07:59:28.999Z</time></trkpt><trkpt lat="44.75061582043589" lon="7.923419471474275"><ele>268.66666666666663</ele><time>2026-05-01T07:59:29.999Z</time></trkpt><trkpt lat="44.75059580617599" lon="7.923634243366923"><ele>268.0</ele><time>2026-05-01T07:59:30.999Z</time></trkpt><trkpt lat="44.75058312221939" lon="7.923855451531631"><ele>268.0</ele><time>2026-05-01T07:59:31.999Z</time></trkpt><trkpt lat="44.750568431657946" lon="7.924083297938967"><ele>268.0</ele><time>2026-05-01T07:59:32.999Z</time></trkpt><trkpt lat="44.75055224244341" lon="7.924308880845282"><ele>268.0</ele><time>2026-05-01T07:59:33.999Z</time></trkpt><trkpt lat="44.75055040560713" lon="7.924533038198886"><ele>267.3333333333333</ele><time>2026-05-01T07:59:34.999Z</time></trkpt><trkpt lat="44.75053117116463" lon="7.92474614080333"><ele>266.6666666666667</ele><time>2026-05-01T07:59:35.999Z</time></trkpt><trkpt lat="44.75050983462762" lon="7.924961152244581"><ele>266.0</ele><time>2026-05-01T07:59:36.999Z</time></trkpt><trkpt lat="44.750472737478155" lon="7.925180954187804"><ele>267.33333333333337</ele><time>2026-05-01T07:59:37.999Z</time></trkpt><trkpt lat="44.75041264306202" lon="7.925407419497478"><ele>268.6666666666667</ele><time>2026-05-01T07:59:38.999Z</time></trkpt><trkpt lat="44.75031398004798" lon="7.925612024281227"><ele>270.0</ele><time>2026-05-01T07:59:39.999Z</time></trkpt><trkpt lat="44.75022151554657" lon="7.925779870345468"><ele>267.3333333333333</ele><time>2026-05-01T07:59:40.999Z</time></trkpt><trkpt lat="44.75011365848722" lon="7.92596573278018"><ele>264.66666666666663</ele><time>2026-05-01T07:59:41.999Z</time></trkpt><trkpt lat="44.75000530294137" lon="7.926141073994408"><ele>262.0</ele><time>2026-05-01T07:59:42.999Z</time></trkpt><trkpt lat="44.74989435542122" lon="7.926317972622666"><ele>262.0</ele><time>2026-05-01T07:59:43.999Z</time></trkpt><trkpt lat="44.74978960588396" lon="7.926494432577798"><ele>262.0</ele><time>2026-05-01T07:59:44.999Z</time></trkpt><trkpt lat="44.74970159026638" lon="7.9266675542444"><ele>262.0</ele><time>2026-05-01T07:59:45.999Z</time></trkpt><trkpt lat="44.749614445507234" lon="7.926829039542651"><ele>261.3333333333333</ele><time>2026-05-01T07:59:46.999Z</time></trkpt><trkpt lat="44.74954143737794" lon="7.927026913336895"><ele>260.6666666666667</ele><time>2026-05-01T07:59:47.999Z</time></trkpt><trkpt lat="44.74950245051268" lon="7.927262770040555"><ele>260.0</ele><time>2026-05-01T07:59:48.999Z</time></trkpt><trkpt lat="44.749483302930756" lon="7.927510629194845"><ele>258.33333333333337</ele><time>2026-05-01T07:59:49.999Z</time></trkpt><trkpt lat="44.749475398427805" lon="7.927756038551275"><ele>256.6666666666667</ele><time>2026-05-01T07:59:50.999Z</time></trkpt><trkpt lat="44.749461284909366" lon="7.928002727632038"><ele>255.0</ele><time>2026-05-01T07:59:51.999Z</time></trkpt><trkpt lat="44.749414584164214" lon="7.9282386647908565"><ele>254.0</ele><time>2026-05-01T07:59:52.999Z</time></trkpt><trkpt lat="44.74936179110276" lon="7.9284659639244355"><ele>253.0</ele><time>2026-05-01T07:59:53.999Z</time></trkpt><trkpt lat="44.74929246350699" lon="7.9286918385870795"><ele>252.0</ele><time>2026-05-01T07:59:54.999Z</time></trkpt><trkpt lat="44.749207446811646" lon="7.928902795146276"><ele>252.0</ele><time>2026-05-01T07:59:55.999Z</time></trkpt><trkpt lat="44.74910928351548" lon="7.929109815635598"><ele>252.0</ele><time>2026-05-01T07:59:56.999Z</time></trkpt><trkpt lat="44.748997008735955" lon="7.929300244292349"><ele>252.0</ele><time>2026-05-01T07:59:57.999Z</time></trkpt><trkpt lat="44.74887537170784" lon="7.9294789300821975"><ele>251.66666666666669</ele><time>2026-05-01T07:59:58.999Z</time></trkpt><trkpt lat="44.74875058094555" lon="7.92964792321735"><ele>251.33333333333334</ele><time>2026-05-01T07:59:59.999Z</time></trkpt><trkpt lat="44.74863767514881" lon="7.929823447226171"><ele>251.0</ele><time>2026-05-01T08:00:00.999Z</time></trkpt><trkpt lat="44.74851079582707" lon="7.9299723489841"><ele>251.66666666666669</ele><time>2026-05-01T08:00:01.999Z</time></trkpt><trkpt lat="44.74838509033924" lon="7.930129859509561"><ele>252.33333333333331</ele><time>2026-05-01T08:00:02.999Z</time></trkpt><trkpt lat="44.74826287621383" lon="7.9302894145573815"><ele>253.0</ele><time>2026-05-01T08:00:03.999Z</time></trkpt><trkpt lat="44.74812998259852" lon="7.930432551796989"><ele>253.0</ele><time>2026-05-01T08:00:04.999Z</time></trkpt><trkpt lat="44.74800842713827" lon="7.93059671921382"><ele>253.0</ele><time>2026-05-01T08:00:05.999Z</time></trkpt><trkpt lat="44.74789484420337" lon="7.930773857013602"><ele>253.0</ele><time>2026-05-01T08:00:06.999Z</time></trkpt><trkpt lat="44.74779931527807" lon="7.93097555714366"><ele>252.66666666666666</ele><time>2026-05-01T08:00:07.999Z</time></trkpt><trkpt lat="44.74770246847304" lon="7.931174605054116"><ele>252.33333333333331</ele><time>2026-05-01T08:00:08.999Z</time></trkpt><trkpt lat="44.74761481186593" lon="7.931384795441386"><ele>252.0</ele><time>2026-05-01T08:00:09.999Z</time></trkpt><trkpt lat="44.74753902087115" lon="7.931607692476554"><ele>252.0</ele><time>2026-05-01T08:00:10.999Z</time></trkpt><trkpt lat="44.74747368212239" lon="7.931846267096532"><ele>252.0</ele><time>2026-05-01T08:00:11.999Z</time></trkpt><trkpt lat="44.74741827640814" lon="7.932092974554179"><ele>252.0</ele><time>2026-05-01T08:00:12.999Z</time></trkpt><trkpt lat="44.74737237030284" lon="7.932344207934477"><ele>254.33333333333331</ele><time>2026-05-01T08:00:13.999Z</time></trkpt><trkpt lat="44.74733275518577" lon="7.932595234575815"><ele>256.66666666666663</ele><time>2026-05-01T08:00:14.999Z</time></trkpt><trkpt lat="44.74729617622807" lon="7.932845976476538"><ele>259.0</ele><time>2026-05-01T08:00:15.999Z</time></trkpt><trkpt lat="44.747253253579686" lon="7.933089106088118"><ele>259.0</ele><time>2026-05-01T08:00:16.999Z</time></trkpt><trkpt lat="44.74720340698342" lon="7.9333235882671165"><ele>259.0</ele><time>2026-05-01T08:00:17.999Z</time></trkpt><trkpt lat="44.74714924516333" lon="7.93355576149884"><ele>259.0</ele><time>2026-05-01T08:00:18.999Z</time></trkpt><trkpt lat="44.74706801088688" lon="7.933764543998104"><ele>262.66666666666663</ele><time>2026-05-01T08:00:19.999Z</time></trkpt><trkpt lat="44.74699791809552" lon="7.93396971793454"><ele>266.3333333333333</ele><time>2026-05-01T08:00:20.999Z</time></trkpt><trkpt lat="44.74694343716318" lon="7.9341754757327205"><ele>270.0</ele><time>2026-05-01T08:00:21.999Z</time></trkpt><trkpt lat="44.74688460302844" lon="7.934376517832173"><ele>263.6666666666667</ele><time>2026-05-01T08:00:22.999Z</time></trkpt><trkpt lat="44.7468414472477" lon="7.9345861905779556"><ele>257.33333333333337</ele><time>2026-05-01T08:00:23.999Z</time></trkpt><trkpt lat="44.746808062873214" lon="7.934800400029244"><ele>251.0</ele><time>2026-05-01T08:00:24.999Z</time></trkpt><trkpt lat="44.74678267299988" lon="7.935022732157887"><ele>249.33333333333334</ele><time>2026-05-01T08:00:25.999Z</time></trkpt><trkpt lat="44.746745721438934" lon="7.935253219405148"><ele>247.66666666666669</ele><time>2026-05-01T08:00:26.999Z</time></trkpt><trkpt lat="44.74675007960099" lon="7.935496761857166"><ele>246.0</ele><time>2026-05-01T08:00:27.999Z</time></trkpt><trkpt lat="44.74673465127915" lon="7.935732247675436"><ele>244.66666666666669</ele><time>2026-05-01T08:00:28.999Z</time></trkpt><trkpt lat="44.74672071714543" lon="7.935962677423003"><ele>243.33333333333334</ele><time>2026-05-01T08:00:29.999Z</time></trkpt><trkpt lat="44.74671053739277" lon="7.936189372847922"><ele>242.0</ele><time>2026-05-01T08:00:30.999Z</time></trkpt><trkpt lat="44.74671162413577" lon="7.936418519796546"><ele>242.0</ele><time>2026-05-01T08:00:31.999Z</time></trkpt><trkpt lat="44.74672787728578" lon="7.936649918925619"><ele>242.0</ele><time>2026-05-01T08:00:32.999Z</time></trkpt><trkpt lat="44.74675350344154" lon="7.936877215216147"><ele>242.0</ele><time>2026-05-01T08:00:33.999Z</time></trkpt><trkpt lat="44.74678352732273" lon="7.9371002871312575"><ele>240.66666666666669</ele><time>2026-05-01T08:00:34.999Z</time></trkpt><trkpt lat="44.74681011540233" lon="7.937318159830541"><ele>239.33333333333331</ele><time>2026-05-01T08:00:35.999Z</time></trkpt><trkpt lat="44.74683689314171" lon="7.937539227527743"><ele>238.0</ele><time>2026-05-01T08:00:36.999Z</time></trkpt><trkpt lat="44.7468631861967" lon="7.9377514278961305"><ele>237.5</ele><time>2026-05-01T08:00:37.999Z</time></trkpt><trkpt lat="44.74689096266534" lon="7.937960816308885"><ele>237.0</ele><time>2026-05-01T08:00:38.999Z</time></trkpt><trkpt lat="44.74691623968046" lon="7.938166352526847"><ele>236.5</ele><time>2026-05-01T08:00:39.999Z</time></trkpt><trkpt lat="44.746940485789786" lon="7.938358260816732"><ele>236.0</ele><time>2026-05-01T08:00:40.999Z</time></trkpt><trkpt lat="44.74696161712793" lon="7.938524991649969"><ele>236.0</ele><time>2026-05-01T08:00:41.999Z</time></trkpt><trkpt lat="44.746981100387956" lon="7.938663785349085"><ele>236.00000000000003</ele><time>2026-05-01T08:00:42.999Z</time></trkpt><trkpt lat="44.74699689286931" lon="7.938779073362732"><ele>236.00000000000003</ele><time>2026-05-01T08:00:43.999Z</time></trkpt><trkpt lat="44.747013235308245" lon="7.9388717849977155"><ele>236.0</ele><time>2026-05-01T08:00:44.999Z</time></trkpt><trkpt lat="44.74702216741335" lon="7.939006574415683"><ele>236.0</ele><time>2026-05-01T08:00:46.999Z</time></trkpt><trkpt lat="44.74694274276306" lon="7.939114420011807"><ele>236.5</ele><time>2026-05-01T08:00:48.998Z</time></trkpt><trkpt lat="44.74686848289151" lon="7.939165074176603"><ele>237.0</ele><time>2026-05-01T08:00:49.998Z</time></trkpt><trkpt lat="44.74677221875637" lon="7.939229767172644"><ele>237.5</ele><time>2026-05-01T08:00:51Z</time></trkpt><trkpt lat="44.746660127781986" lon="7.939305039447811"><ele>238.0</ele><time>2026-05-01T08:00:52Z</time></trkpt><trkpt lat="44.746520473420226" lon="7.939414634347173"><ele>240.33333333333331</ele><time>2026-05-01T08:00:53Z</time></trkpt><trkpt lat="44.746388059331736" lon="7.939514718647168"><ele>242.66666666666669</ele><time>2026-05-01T08:00:54Z</time></trkpt><trkpt lat="44.74624521064124" lon="7.93959636857994"><ele>245.0</ele><time>2026-05-01T08:00:55Z</time></trkpt><trkpt lat="44.74609780119845" lon="7.939711253567003"><ele>244.66666666666669</ele><time>2026-05-01T08:00:56Z</time></trkpt><trkpt lat="44.74594153040651" lon="7.939827683540116"><ele>244.33333333333331</ele><time>2026-05-01T08:00:57Z</time></trkpt><trkpt lat="44.74577769443525" lon="7.939952429842694"><ele>244.0</ele><time>2026-05-01T08:00:58Z</time></trkpt><trkpt lat="44.74559015130001" lon="7.9400953452478245"><ele>244.0</ele><time>2026-05-01T08:00:59Z</time></trkpt><trkpt lat="44.74539512387324" lon="7.940242434222989"><ele>244.0</ele><time>2026-05-01T08:01:00Z</time></trkpt><trkpt lat="44.745203054404406" lon="7.940377527242803"><ele>244.0</ele><time>2026-05-01T08:01:01Z</time></trkpt><trkpt lat="44.745016447757536" lon="7.940497463597037"><ele>242.0</ele><time>2026-05-01T08:01:02Z</time></trkpt><trkpt lat="44.74483280220367" lon="7.940617720723574"><ele>240.0</ele><time>2026-05-01T08:01:03Z</time></trkpt><trkpt lat="44.744636855626375" lon="7.940708986993226"><ele>238.0</ele><time>2026-05-01T08:01:04Z</time></trkpt><trkpt lat="44.744439861009276" lon="7.940789516721935"><ele>237.0</ele><time>2026-05-01T08:01:05Z</time></trkpt><trkpt lat="44.744239019925125" lon="7.94086172800383"><ele>236.0</ele><time>2026-05-01T08:01:06Z</time></trkpt><trkpt lat="44.74403834326906" lon="7.9409338071944315"><ele>235.0</ele><time>2026-05-01T08:01:07Z</time></trkpt><trkpt lat="44.74383778133406" lon="7.941008714289299"><ele>233.66666666666666</ele><time>2026-05-01T08:01:08Z</time></trkpt><trkpt lat="44.7436387833243" lon="7.941092561184437"><ele>232.33333333333331</ele><time>2026-05-01T08:01:09Z</time></trkpt><trkpt lat="44.74344241339323" lon="7.9411898525402185"><ele>231.0</ele><time>2026-05-01T08:01:10Z</time></trkpt><trkpt lat="44.74324681256334" lon="7.941295521986603"><ele>231.0</ele><time>2026-05-01T08:01:11Z</time></trkpt><trkpt lat="44.74305114127285" lon="7.9414026704472365"><ele>231.0</ele><time>2026-05-01T08:01:12Z</time></trkpt><trkpt lat="44.74285774671871" lon="7.941525430813241"><ele>231.0</ele><time>2026-05-01T08:01:13Z</time></trkpt><trkpt lat="44.74266092272752" lon="7.941640088724109"><ele>230.33333333333331</ele><time>2026-05-01T08:01:14Z</time></trkpt><trkpt lat="44.742461438082294" lon="7.941756257228544"><ele>229.66666666666666</ele><time>2026-05-01T08:01:15Z</time></trkpt><trkpt lat="44.74224816824615" lon="7.941880844691243"><ele>229.0</ele><time>2026-05-01T08:01:16Z</time></trkpt><trkpt lat="44.74203473027997" lon="7.942008321180813"><ele>226.0</ele><time>2026-05-01T08:01:17Z</time></trkpt><trkpt lat="44.74182521936906" lon="7.942135772020414"><ele>223.0</ele><time>2026-05-01T08:01:18Z</time></trkpt><trkpt lat="44.74161894420049" lon="7.942262573976883"><ele>223.0</ele><time>2026-05-01T08:01:19Z</time></trkpt><trkpt lat="44.74141584904005" lon="7.942388066862071"><ele>223.0</ele><time>2026-05-01T08:01:20Z</time></trkpt><trkpt lat="44.74121954974937" lon="7.942509332741164"><ele>223.0</ele><time>2026-05-01T08:01:21Z</time></trkpt><trkpt lat="44.741024745936336" lon="7.94263157275694"><ele>223.0</ele><time>2026-05-01T08:01:22Z</time></trkpt><trkpt lat="44.74083622563859" lon="7.942759304898651"><ele>223.0</ele><time>2026-05-01T08:01:23Z</time></trkpt><trkpt lat="44.7406553704336" lon="7.94290394258292"><ele>223.0</ele><time>2026-05-01T08:01:23.999Z</time></trkpt><trkpt lat="44.74047676585408" lon="7.9430594620704"><ele>223.0</ele><time>2026-05-01T08:01:24.999Z</time></trkpt><trkpt lat="44.74029989215552" lon="7.943221524686598"><ele>223.0</ele><time>2026-05-01T08:01:25.999Z</time></trkpt><trkpt lat="44.74012462841273" lon="7.943379843208231"><ele>223.0</ele><time>2026-05-01T08:01:26.999Z</time></trkpt><trkpt lat="44.739944968602934" lon="7.943509953286167"><ele>222.33333333333331</ele><time>2026-05-01T08:01:27.999Z</time></trkpt><trkpt lat="44.73977360063684" lon="7.943644970677572"><ele>221.66666666666669</ele><time>2026-05-01T08:01:28.999Z</time></trkpt><trkpt lat="44.73959712024784" lon="7.94376074225501"><ele>221.0</ele><time>2026-05-01T08:01:29.999Z</time></trkpt><trkpt lat="44.73942503383278" lon="7.943843786800278"><ele>221.0</ele><time>2026-05-01T08:01:30.999Z</time></trkpt><trkpt lat="44.73924839621089" lon="7.943897770082622"><ele>221.0</ele><time>2026-05-01T08:01:31.999Z</time></trkpt><trkpt lat="44.73906852427747" lon="7.943944722135608"><ele>221.0</ele><time>2026-05-01T08:01:32.999Z</time></trkpt><trkpt lat="44.73888589238531" lon="7.943948633868409"><ele>221.0</ele><time>2026-05-01T08:01:33.999Z</time></trkpt><trkpt lat="44.73870154051083" lon="7.943951742554043"><ele>221.0</ele><time>2026-05-01T08:01:34.999Z</time></trkpt><trkpt lat="44.73852499673814" lon="7.943965455449109"><ele>221.0</ele><time>2026-05-01T08:01:35.999Z</time></trkpt><trkpt lat="44.73834992175299" lon="7.944014198704945"><ele>220.0</ele><time>2026-05-01T08:01:36.999Z</time></trkpt><trkpt lat="44.738172579514675" lon="7.944117105921247"><ele>219.0</ele><time>2026-05-01T08:01:37.999Z</time></trkpt><trkpt lat="44.73800206453364" lon="7.944258550495008"><ele>218.0</ele><time>2026-05-01T08:01:38.999Z</time></trkpt><trkpt lat="44.73783196687436" lon="7.944412510613897"><ele>220.0</ele><time>2026-05-01T08:01:39.999Z</time></trkpt><trkpt lat="44.73765963947286" lon="7.944553909422925"><ele>222.0</ele><time>2026-05-01T08:01:40.999Z</time></trkpt><trkpt lat="44.737489688581725" lon="7.944691636475587"><ele>224.0</ele><time>2026-05-01T08:01:41.999Z</time></trkpt><trkpt lat="44.7373200201861" lon="7.944826982290461"><ele>224.0</ele><time>2026-05-01T08:01:42.999Z</time></trkpt><trkpt lat="44.73715902064843" lon="7.944965466512642"><ele>224.0</ele><time>2026-05-01T08:01:43.999Z</time></trkpt><trkpt lat="44.73700294852706" lon="7.945131466981041"><ele>224.0</ele><time>2026-05-01T08:01:44.999Z</time></trkpt><trkpt lat="44.73685873234892" lon="7.945326746928881"><ele>223.66666666666669</ele><time>2026-05-01T08:01:45.999Z</time></trkpt><trkpt lat="44.73669755215064" lon="7.945503778662459"><ele>223.33333333333331</ele><time>2026-05-01T08:01:46.999Z</time></trkpt><trkpt lat="44.73655113350526" lon="7.9456982392347975"><ele>223.0</ele><time>2026-05-01T08:01:47.999Z</time></trkpt><trkpt lat="44.736412451122575" lon="7.945907067772302"><ele>224.66666666666666</ele><time>2026-05-01T08:01:48.999Z</time></trkpt><trkpt lat="44.736263515236026" lon="7.946099565264545"><ele>226.33333333333331</ele><time>2026-05-01T08:01:49.999Z</time></trkpt><trkpt lat="44.7361236823131" lon="7.946302351073844"><ele>228.0</ele><time>2026-05-01T08:01:50.999Z</time></trkpt><trkpt lat="44.735996321365285" lon="7.946518046823705"><ele>223.33333333333331</ele><time>2026-05-01T08:01:51.999Z</time></trkpt><trkpt lat="44.73588598356118" lon="7.9467328417558685"><ele>218.66666666666666</ele><time>2026-05-01T08:01:52.999Z</time></trkpt><trkpt lat="44.73579339339022" lon="7.946946556862304"><ele>214.0</ele><time>2026-05-01T08:01:53.999Z</time></trkpt><trkpt lat="44.73570460743582" lon="7.947165498667356"><ele>214.0</ele><time>2026-05-01T08:01:54.999Z</time></trkpt><trkpt lat="44.735597894360765" lon="7.947373567598716"><ele>214.0</ele><time>2026-05-01T08:01:55.999Z</time></trkpt><trkpt lat="44.735502415134484" lon="7.947590908455229"><ele>214.0</ele><time>2026-05-01T08:01:56.999Z</time></trkpt><trkpt lat="44.735423795265326" lon="7.947811553632531"><ele>213.66666666666666</ele><time>2026-05-01T08:01:57.999Z</time></trkpt><trkpt lat="44.73533835268923" lon="7.948005986270661"><ele>213.33333333333331</ele><time>2026-05-01T08:01:58.999Z</time></trkpt><trkpt lat="44.73525313913641" lon="7.948189178846587"><ele>213.0</ele><time>2026-05-01T08:01:59.999Z</time></trkpt><trkpt lat="44.73518192545352" lon="7.948361893291102"><ele>213.0</ele><time>2026-05-01T08:02:00.999Z</time></trkpt><trkpt lat="44.73511327311025" lon="7.948514296164344"><ele>213.0</ele><time>2026-05-01T08:02:01.999Z</time></trkpt><trkpt lat="44.735046978854925" lon="7.948657149144862"><ele>213.0</ele><time>2026-05-01T08:02:02.999Z</time></trkpt><trkpt lat="44.734978107923396" lon="7.9487896508005935"><ele>213.0</ele><time>2026-05-01T08:02:03.999Z</time></trkpt><trkpt lat="44.73489159262398" lon="7.948877032948678"><ele>213.0</ele><time>2026-05-01T08:02:04.999Z</time></trkpt><trkpt lat="44.73480823319421" lon="7.948940868273727"><ele>213.0</ele><time>2026-05-01T08:02:05.999Z</time></trkpt><trkpt lat="44.73473902957095" lon="7.949043044027651"><ele>213.0</ele><time>2026-05-01T08:02:06.999Z</time></trkpt><trkpt lat="44.73469718664091" lon="7.9492083418151465"><ele>213.0</ele><time>2026-05-01T08:02:07.999Z</time></trkpt><trkpt lat="44.73467015950043" lon="7.949398932632148"><ele>212.66666666666669</ele><time>2026-05-01T08:02:08.999Z</time></trkpt><trkpt lat="44.73462194102392" lon="7.949596687933448"><ele>212.33333333333334</ele><time>2026-05-01T08:02:09.999Z</time></trkpt><trkpt lat="44.734515990390165" lon="7.949777080324112"><ele>212.0</ele><time>2026-05-01T08:02:10.999Z</time></trkpt><trkpt lat="44.73441231543414" lon="7.949983986863007"><ele>212.0</ele><time>2026-05-01T08:02:11.999Z</time></trkpt><trkpt lat="44.73430800849993" lon="7.950216378361212"><ele>212.0</ele><time>2026-05-01T08:02:12.999Z</time></trkpt><trkpt lat="44.7341910529803" lon="7.950448315350346"><ele>212.0</ele><time>2026-05-01T08:02:13.999Z</time></trkpt><trkpt lat="44.7340662206164" lon="7.950694367239217"><ele>211.66666666666669</ele><time>2026-05-01T08:02:14.999Z</time></trkpt><trkpt lat="44.73394790945004" lon="7.9509399245477175"><ele>211.33333333333331</ele><time>2026-05-01T08:02:15.999Z</time></trkpt><trkpt lat="44.73383565381062" lon="7.9511717492446765"><ele>211.0</ele><time>2026-05-01T08:02:16.999Z</time></trkpt><trkpt lat="44.73373600330303" lon="7.951363677808474"><ele>211.0</ele><time>2026-05-01T08:02:17.999Z</time></trkpt><trkpt lat="44.73366307839384" lon="7.951532937170984"><ele>211.0</ele><time>2026-05-01T08:02:18.999Z</time></trkpt><trkpt lat="44.73361343111377" lon="7.95166208741667"><ele>211.0</ele><time>2026-05-01T08:02:19.999Z</time></trkpt><trkpt lat="44.73357184363723" lon="7.951783604752168"><ele>211.0</ele><time>2026-05-01T08:02:20.999Z</time></trkpt><trkpt lat="44.733382016548696" lon="7.9524975311090875"><ele>210.66666666666666</ele><time>2026-05-01T08:02:21.999Z</time></trkpt><trkpt lat="44.73332514044315" lon="7.95278629347516"><ele>210.33333333333331</ele><time>2026-05-01T08:02:22.999Z</time></trkpt><trkpt lat="44.733272123367954" lon="7.953085848088587"><ele>210.0</ele><time>2026-05-01T08:02:23.999Z</time></trkpt><trkpt lat="44.73322497289925" lon="7.953394079071078"><ele>209.5</ele><time>2026-05-01T08:02:24.999Z</time></trkpt><trkpt lat="44.73317922249701" lon="7.953712314852967"><ele>209.0</ele><time>2026-05-01T08:02:25.999Z</time></trkpt><trkpt lat="44.73313827027042" lon="7.954055884755934"><ele>208.5</ele><time>2026-05-01T08:02:26.999Z</time></trkpt><trkpt lat="44.733093317548246" lon="7.954402097395253"><ele>208.0</ele><time>2026-05-01T08:02:27.999Z</time></trkpt><trkpt lat="44.73304670106342" lon="7.954757982087339"><ele>209.0</ele><time>2026-05-01T08:02:28.999Z</time></trkpt><trkpt lat="44.73299804850901" lon="7.955113463898431"><ele>210.0</ele><time>2026-05-01T08:02:29.999Z</time></trkpt><trkpt lat="44.73294890570543" lon="7.95547198353234"><ele>210.0</ele><time>2026-05-01T08:02:30.999Z</time></trkpt><trkpt lat="44.73290266132654" lon="7.955832289956424"><ele>210.0</ele><time>2026-05-01T08:02:31.999Z</time></trkpt><trkpt lat="44.73285457094816" lon="7.956193134007802"><ele>209.0</ele><time>2026-05-01T08:02:32.999Z</time></trkpt><trkpt lat="44.73281121046957" lon="7.956555086865933"><ele>208.0</ele><time>2026-05-01T08:02:33.999Z</time></trkpt><trkpt lat="44.73276268757871" lon="7.956915571206025"><ele>216.0</ele><time>2026-05-01T08:02:34.999Z</time></trkpt><trkpt lat="44.73271513654726" lon="7.957278677862403"><ele>224.0</ele><time>2026-05-01T08:02:35.999Z</time></trkpt><trkpt lat="44.73266439706348" lon="7.957639045376728"><ele>224.0</ele><time>2026-05-01T08:02:36.999Z</time></trkpt><trkpt lat="44.732615621890545" lon="7.957989649688348"><ele>224.0</ele><time>2026-05-01T08:02:37.999Z</time></trkpt><trkpt lat="44.732567053431204" lon="7.9583341859404655"><ele>223.0</ele><time>2026-05-01T08:02:38.999Z</time></trkpt><trkpt lat="44.732520376815536" lon="7.958689824663123"><ele>222.0</ele><time>2026-05-01T08:02:39.999Z</time></trkpt><trkpt lat="44.73247045853931" lon="7.959036522845854"><ele>220.5</ele><time>2026-05-01T08:02:40.999Z</time></trkpt><trkpt lat="44.73242193882098" lon="7.959385217806472"><ele>219.0</ele><time>2026-05-01T08:02:41.999Z</time></trkpt><trkpt lat="44.73237722907582" lon="7.9597249542881805"><ele>216.0</ele><time>2026-05-01T08:02:42.999Z</time></trkpt><trkpt lat="44.732339563657284" lon="7.960066239668373"><ele>213.0</ele><time>2026-05-01T08:02:43.999Z</time></trkpt><trkpt lat="44.73229570917089" lon="7.960401904084272"><ele>213.0</ele><time>2026-05-01T08:02:44.999Z</time></trkpt><trkpt lat="44.73224965137952" lon="7.9607350164642705"><ele>213.0</ele><time>2026-05-01T08:02:45.999Z</time></trkpt><trkpt lat="44.7322034953579" lon="7.961067671775731"><ele>211.0</ele><time>2026-05-01T08:02:46.999Z</time></trkpt><trkpt lat="44.73215751725423" lon="7.9613995783547855"><ele>209.0</ele><time>2026-05-01T08:02:47.999Z</time></trkpt><trkpt lat="44.73211251502073" lon="7.961728698856468"><ele>209.0</ele><time>2026-05-01T08:02:48.998Z</time></trkpt><trkpt lat="44.732068571351036" lon="7.962058407881049"><ele>209.0</ele><time>2026-05-01T08:02:49.998Z</time></trkpt><trkpt lat="44.73202425354716" lon="7.962387930209049"><ele>209.0</ele><time>2026-05-01T08:02:50.998Z</time></trkpt><trkpt lat="44.73198109222724" lon="7.96272015828236"><ele>209.0</ele><time>2026-05-01T08:02:51.998Z</time></trkpt><trkpt lat="44.73193624111573" lon="7.9630565128000885"><ele>208.5</ele><time>2026-05-01T08:02:52.998Z</time></trkpt><trkpt lat="44.73189092895094" lon="7.963391662925784"><ele>208.0</ele><time>2026-05-01T08:02:53.998Z</time></trkpt><trkpt lat="44.73184652969532" lon="7.963724503631238"><ele>212.0</ele><time>2026-05-01T08:02:54.998Z</time></trkpt><trkpt lat="44.73180681050976" lon="7.964055410128429"><ele>216.0</ele><time>2026-05-01T08:02:55.998Z</time></trkpt><trkpt lat="44.731771080638936" lon="7.9643947880608055"><ele>216.0</ele><time>2026-05-01T08:02:57Z</time></trkpt><trkpt lat="44.73173945260498" lon="7.964732315902694"><ele>216.0</ele><time>2026-05-01T08:02:58Z</time></trkpt><trkpt lat="44.73170948811892" lon="7.965067411956809"><ele>214.5</ele><time>2026-05-01T08:02:59Z</time></trkpt><trkpt lat="44.73168544969613" lon="7.9654072426963065"><ele>213.0</ele><time>2026-05-01T08:03:00Z</time></trkpt><trkpt lat="44.73164601059689" lon="7.965747623683996"><ele>210.5</ele><time>2026-05-01T08:03:01Z</time></trkpt><trkpt lat="44.73164885776352" lon="7.966090107304278"><ele>208.0</ele><time>2026-05-01T08:03:02Z</time></trkpt><trkpt lat="44.73163575942219" lon="7.966425769648709"><ele>206.5</ele><time>2026-05-01T08:03:03Z</time></trkpt><trkpt lat="44.73162443917692" lon="7.966748888142502"><ele>205.0</ele><time>2026-05-01T08:03:04Z</time></trkpt><trkpt lat="44.731615424036896" lon="7.967072625344369"><ele>205.0</ele><time>2026-05-01T08:03:05Z</time></trkpt><trkpt lat="44.7316106392845" lon="7.9674022240194375"><ele>205.0</ele><time>2026-05-01T08:03:06Z</time></trkpt><trkpt lat="44.73160682936765" lon="7.967728084283601"><ele>203.0</ele><time>2026-05-01T08:03:07Z</time></trkpt><trkpt lat="44.73160899570876" lon="7.9680507928072295"><ele>201.0</ele><time>2026-05-01T08:03:08Z</time></trkpt><trkpt lat="44.731614994493086" lon="7.968372437919613"><ele>200.5</ele><time>2026-05-01T08:03:09Z</time></trkpt><trkpt lat="44.731623148025896" lon="7.968693440438977"><ele>200.0</ele><time>2026-05-01T08:03:10Z</time></trkpt><trkpt lat="44.73163436627089" lon="7.969018740286515"><ele>198.5</ele><time>2026-05-01T08:03:11Z</time></trkpt><trkpt lat="44.73164546608103" lon="7.969340100474525"><ele>197.0</ele><time>2026-05-01T08:03:12Z</time></trkpt><trkpt lat="44.73165664039839" lon="7.969656832935375"><ele>197.0</ele><time>2026-05-01T08:03:13Z</time></trkpt><trkpt lat="44.73167107015365" lon="7.969972196923276"><ele>197.0</ele><time>2026-05-01T08:03:14Z</time></trkpt><trkpt lat="44.731686192375605" lon="7.970285880692964"><ele>197.0</ele><time>2026-05-01T08:03:15Z</time></trkpt><trkpt lat="44.73169941813607" lon="7.970588043432971"><ele>197.66666666666669</ele><time>2026-05-01T08:03:16Z</time></trkpt><trkpt lat="44.73170790467419" lon="7.970885346627924"><ele>198.33333333333331</ele><time>2026-05-01T08:03:17Z</time></trkpt><trkpt lat="44.73171090392101" lon="7.9711755229219685"><ele>199.0</ele><time>2026-05-01T08:03:18Z</time></trkpt><trkpt lat="44.731707542959256" lon="7.971464380672523"><ele>198.66666666666666</ele><time>2026-05-01T08:03:19Z</time></trkpt><trkpt lat="44.73168337274033" lon="7.971742347980776"><ele>198.33333333333331</ele><time>2026-05-01T08:03:20Z</time></trkpt><trkpt lat="44.73164418358196" lon="7.972014312429032"><ele>198.0</ele><time>2026-05-01T08:03:21Z</time></trkpt><trkpt lat="44.731593274716296" lon="7.972268803868197"><ele>198.0</ele><time>2026-05-01T08:03:22Z</time></trkpt><trkpt lat="44.73152899679596" lon="7.972490691710439"><ele>198.0</ele><time>2026-05-01T08:03:23Z</time></trkpt><trkpt lat="44.73146512591544" lon="7.972672884210292"><ele>198.0</ele><time>2026-05-01T08:03:24Z</time></trkpt><trkpt lat="44.73140885053001" lon="7.972808472183025"><ele>198.0</ele><time>2026-05-01T08:03:25Z</time></trkpt><trkpt lat="44.73135896434547" lon="7.972901719668202"><ele>198.0</ele><time>2026-05-01T08:03:26Z</time></trkpt><trkpt lat="44.731258164770935" lon="7.9729902311974055"><ele>198.0</ele><time>2026-05-01T08:03:27.999Z</time></trkpt><trkpt lat="44.73114574200658" lon="7.973067522829915"><ele>198.0</ele><time>2026-05-01T08:03:29.999Z</time></trkpt><trkpt lat="44.73108671380307" lon="7.973116171297323"><ele>198.0</ele><time>2026-05-01T08:03:30.999Z</time></trkpt><trkpt lat="44.73103959511833" lon="7.973192935924581"><ele>198.0</ele><time>2026-05-01T08:03:31.999Z</time></trkpt><trkpt lat="44.73102750893177" lon="7.973296757382617"><ele>197.83333333333334</ele><time>2026-05-01T08:03:32.999Z</time></trkpt><trkpt lat="44.73105149656349" lon="7.973392808415843"><ele>197.66666666666669</ele><time>2026-05-01T08:03:33.999Z</time></trkpt><trkpt lat="44.731089480001096" lon="7.973469521680284"><ele>197.5</ele><time>2026-05-01T08:03:34.999Z</time></trkpt><trkpt lat="44.73112765199151" lon="7.973555816901955"><ele>197.33333333333334</ele><time>2026-05-01T08:03:35.999Z</time></trkpt><trkpt lat="44.73114599236115" lon="7.973672977937306"><ele>197.16666666666669</ele><time>2026-05-01T08:03:36.999Z</time></trkpt><trkpt lat="44.731137147538846" lon="7.9738144462125495"><ele>197.0</ele><time>2026-05-01T08:03:37.999Z</time></trkpt><trkpt lat="44.73111543741823" lon="7.9739736151196725"><ele>197.0</ele><time>2026-05-01T08:03:38.999Z</time></trkpt><trkpt lat="44.7310875168258" lon="7.974153505673546"><ele>197.0</ele><time>2026-05-01T08:03:39.999Z</time></trkpt><trkpt lat="44.73105824385688" lon="7.974374471464968"><ele>197.0</ele><time>2026-05-01T08:03:40.999Z</time></trkpt><trkpt lat="44.73102536543802" lon="7.974645876592541"><ele>197.0</ele><time>2026-05-01T08:03:41.999Z</time></trkpt><trkpt lat="44.73098292558613" lon="7.974952582922628"><ele>197.0</ele><time>2026-05-01T08:03:42.999Z</time></trkpt><trkpt lat="44.730924462136294" lon="7.975276067672949"><ele>196.5</ele><time>2026-05-01T08:03:43.999Z</time></trkpt><trkpt lat="44.7308547062569" lon="7.975606336174927"><ele>196.0</ele><time>2026-05-01T08:03:44.999Z</time></trkpt><trkpt lat="44.73079424262737" lon="7.975950843342485"><ele>197.0</ele><time>2026-05-01T08:03:45.999Z</time></trkpt><trkpt lat="44.73074304290256" lon="7.976309428198224"><ele>198.0</ele><time>2026-05-01T08:03:46.999Z</time></trkpt><trkpt lat="44.730698158310275" lon="7.9766788070510835"><ele>198.0</ele><time>2026-05-01T08:03:47.999Z</time></trkpt><trkpt lat="44.730654544367354" lon="7.977044001749868"><ele>198.0</ele><time>2026-05-01T08:03:48.999Z</time></trkpt><trkpt lat="44.73061017719345" lon="7.977405485737666"><ele>197.0</ele><time>2026-05-01T08:03:49.999Z</time></trkpt><trkpt lat="44.73056572998102" lon="7.977764314578827"><ele>196.0</ele><time>2026-05-01T08:03:50.999Z</time></trkpt><trkpt lat="44.730521760288845" lon="7.978117650140735"><ele>194.5</ele><time>2026-05-01T08:03:51.999Z</time></trkpt><trkpt lat="44.730481561021485" lon="7.978465570486889"><ele>193.0</ele><time>2026-05-01T08:03:52.999Z</time></trkpt><trkpt lat="44.73044308553922" lon="7.978810736373697"><ele>193.0</ele><time>2026-05-01T08:03:53.999Z</time></trkpt><trkpt lat="44.73040379124485" lon="7.979155083139731"><ele>193.0</ele><time>2026-05-01T08:03:54.999Z</time></trkpt><trkpt lat="44.73036086382925" lon="7.97950146995398"><ele>192.5</ele><time>2026-05-01T08:03:55.999Z</time></trkpt><trkpt lat="44.73031827901973" lon="7.97984786188587"><ele>192.0</ele><time>2026-05-01T08:03:56.999Z</time></trkpt><trkpt lat="44.73027923929463" lon="7.980192881340713"><ele>193.0</ele><time>2026-05-01T08:03:57.999Z</time></trkpt><trkpt lat="44.73024151535243" lon="7.9805358287529975"><ele>194.0</ele><time>2026-05-01T08:03:58.999Z</time></trkpt><trkpt lat="44.7302028149364" lon="7.980876799362493"><ele>196.5</ele><time>2026-05-01T08:03:59.999Z</time></trkpt><trkpt lat="44.73016110823416" lon="7.981224736974006"><ele>199.0</ele><time>2026-05-01T08:04:00.999Z</time></trkpt><trkpt lat="44.73012387781513" lon="7.981592228150921"><ele>199.0</ele><time>2026-05-01T08:04:01.999Z</time></trkpt><trkpt lat="44.730092464052255" lon="7.981973978404894"><ele>199.0</ele><time>2026-05-01T08:04:02.999Z</time></trkpt><trkpt lat="44.73005468484616" lon="7.982355971123327"><ele>198.0</ele><time>2026-05-01T08:04:03.999Z</time></trkpt><trkpt lat="44.73001448538838" lon="7.982726365603189"><ele>197.0</ele><time>2026-05-01T08:04:04.999Z</time></trkpt><trkpt lat="44.729974685678314" lon="7.983085993820172"><ele>195.5</ele><time>2026-05-01T08:04:05.999Z</time></trkpt><trkpt lat="44.72993912715221" lon="7.9834381182638"><ele>194.0</ele><time>2026-05-01T08:04:06.999Z</time></trkpt><trkpt lat="44.72991093463333" lon="7.983796568789268"><ele>194.0</ele><time>2026-05-01T08:04:07.999Z</time></trkpt><trkpt lat="44.72988903901521" lon="7.9841544076254785"><ele>194.0</ele><time>2026-05-01T08:04:08.999Z</time></trkpt><trkpt lat="44.729867148582265" lon="7.984508536184552"><ele>194.0</ele><time>2026-05-01T08:04:09.999Z</time></trkpt><trkpt lat="44.72984634175199" lon="7.984857680939217"><ele>194.0</ele><time>2026-05-01T08:04:10.999Z</time></trkpt><trkpt lat="44.72982547545169" lon="7.985202516089125"><ele>193.5</ele><time>2026-05-01T08:04:11.999Z</time></trkpt><trkpt lat="44.72980658154216" lon="7.9855436116067535"><ele>193.0</ele><time>2026-05-01T08:04:12.999Z</time></trkpt><trkpt lat="44.72978818574689" lon="7.985885619209164"><ele>192.0</ele><time>2026-05-01T08:04:13.999Z</time></trkpt><trkpt lat="44.72977141472081" lon="7.986223200064703"><ele>191.0</ele><time>2026-05-01T08:04:14.999Z</time></trkpt><trkpt lat="44.72975681737568" lon="7.986561022444155"><ele>190.5</ele><time>2026-05-01T08:04:15.999Z</time></trkpt><trkpt lat="44.72974166471411" lon="7.986900977948902"><ele>190.0</ele><time>2026-05-01T08:04:16.999Z</time></trkpt><trkpt lat="44.729726238857424" lon="7.987242874680446"><ele>190.0</ele><time>2026-05-01T08:04:17.999Z</time></trkpt><trkpt lat="44.72971091427577" lon="7.9875851715791235"><ele>190.0</ele><time>2026-05-01T08:04:18.999Z</time></trkpt><trkpt lat="44.7296969405937" lon="7.98792364352599"><ele>190.0</ele><time>2026-05-01T08:04:19.999Z</time></trkpt><trkpt lat="44.72968372074269" lon="7.988256124786379"><ele>190.0</ele><time>2026-05-01T08:04:20.999Z</time></trkpt><trkpt lat="44.72967175526879" lon="7.988568378667407"><ele>190.0</ele><time>2026-05-01T08:04:21.999Z</time></trkpt><trkpt lat="44.72966034045448" lon="7.988873605937409"><ele>190.0</ele><time>2026-05-01T08:04:22.999Z</time></trkpt><trkpt lat="44.729649271420406" lon="7.989165949631328"><ele>190.0</ele><time>2026-05-01T08:04:23.999Z</time></trkpt><trkpt lat="44.72963927781131" lon="7.989451188396479"><ele>191.0</ele><time>2026-05-01T08:04:24.999Z</time></trkpt><trkpt lat="44.72963138338396" lon="7.9897158407073405"><ele>192.0</ele><time>2026-05-01T08:04:25.999Z</time></trkpt><trkpt lat="44.72962391968468" lon="7.989972028893426"><ele>193.0</ele><time>2026-05-01T08:04:26.999Z</time></trkpt><trkpt lat="44.729614784948225" lon="7.990217946102927"><ele>193.66666666666666</ele><time>2026-05-01T08:04:27.999Z</time></trkpt><trkpt lat="44.72960244255699" lon="7.9904509949819005"><ele>194.33333333333331</ele><time>2026-05-01T08:04:28.999Z</time></trkpt><trkpt lat="44.72958433907673" lon="7.990661071178465"><ele>195.0</ele><time>2026-05-01T08:04:29.999Z</time></trkpt><trkpt lat="44.729549755767735" lon="7.990856078952849"><ele>195.75</ele><time>2026-05-01T08:04:30.999Z</time></trkpt><trkpt lat="44.72948161629662" lon="7.991007312085924"><ele>196.5</ele><time>2026-05-01T08:04:31.999Z</time></trkpt><trkpt lat="44.72942814214836" lon="7.991153488939563"><ele>197.25</ele><time>2026-05-01T08:04:32.999Z</time></trkpt><trkpt lat="44.72943422549837" lon="7.991306513084495"><ele>198.0</ele><time>2026-05-01T08:04:33.999Z</time></trkpt><trkpt lat="44.72949006223053" lon="7.9914636026497075"><ele>198.0</ele><time>2026-05-01T08:04:34.999Z</time></trkpt><trkpt lat="44.7295403370536" lon="7.9916355376803665"><ele>198.0</ele><time>2026-05-01T08:04:35.999Z</time></trkpt><trkpt lat="44.72951349004923" lon="7.991846588580391"><ele>198.0</ele><time>2026-05-01T08:04:36.999Z</time></trkpt><trkpt lat="44.72944748233176" lon="7.992073848323527"><ele>197.0</ele><time>2026-05-01T08:04:37.999Z</time></trkpt><trkpt lat="44.72937852294466" lon="7.992319547620844"><ele>196.0</ele><time>2026-05-01T08:04:38.999Z</time></trkpt><trkpt lat="44.72930369345671" lon="7.992585586854168"><ele>195.0</ele><time>2026-05-01T08:04:39.999Z</time></trkpt><trkpt lat="44.72924167145327" lon="7.992873569688709"><ele>194.5</ele><time>2026-05-01T08:04:40.999Z</time></trkpt><trkpt lat="44.72916173983346" lon="7.993170527090353"><ele>194.0</ele><time>2026-05-01T08:04:41.999Z</time></trkpt><trkpt lat="44.72907997889745" lon="7.993464586829026"><ele>195.0</ele><time>2026-05-01T08:04:42.999Z</time></trkpt><trkpt lat="44.728999269287286" lon="7.993751224940174"><ele>196.0</ele><time>2026-05-01T08:04:43.999Z</time></trkpt><trkpt lat="44.72891818021491" lon="7.994033558339679"><ele>197.0</ele><time>2026-05-01T08:04:44.999Z</time></trkpt><trkpt lat="44.728838461521676" lon="7.9943184104902025"><ele>197.66666666666669</ele><time>2026-05-01T08:04:45.999Z</time></trkpt><trkpt lat="44.728762745509336" lon="7.994594542348701"><ele>198.33333333333331</ele><time>2026-05-01T08:04:46.999Z</time></trkpt><trkpt lat="44.72869150719506" lon="7.9948634826503335"><ele>199.0</ele><time>2026-05-01T08:04:47.999Z</time></trkpt><trkpt lat="44.72861750497073" lon="7.995132670948588"><ele>196.33333333333331</ele><time>2026-05-01T08:04:48.999Z</time></trkpt><trkpt lat="44.72854585156062" lon="7.995396334975172"><ele>193.66666666666666</ele><time>2026-05-01T08:04:49.999Z</time></trkpt><trkpt lat="44.72847484965373" lon="7.995662122545609"><ele>191.0</ele><time>2026-05-01T08:04:50.998Z</time></trkpt><trkpt lat="44.72840375409755" lon="7.99592638895121"><ele>190.66666666666666</ele><time>2026-05-01T08:04:51.998Z</time></trkpt><trkpt lat="44.72833394302844" lon="7.996186171480003"><ele>190.33333333333334</ele><time>2026-05-01T08:04:52.998Z</time></trkpt><trkpt lat="44.72826610051713" lon="7.996431919354108"><ele>190.0</ele><time>2026-05-01T08:04:53.998Z</time></trkpt><trkpt lat="44.728201180542946" lon="7.996670955295637"><ele>190.66666666666669</ele><time>2026-05-01T08:04:54.998Z</time></trkpt><trkpt lat="44.72813709601909" lon="7.996902368433711"><ele>191.33333333333334</ele><time>2026-05-01T08:04:55.998Z</time></trkpt><trkpt lat="44.72807385981348" lon="7.997137676944669"><ele>192.0</ele><time>2026-05-01T08:04:56.998Z</time></trkpt><trkpt lat="44.72801373452811" lon="7.99736215735411"><ele>192.0</ele><time>2026-05-01T08:04:57.998Z</time></trkpt><trkpt lat="44.727955414241634" lon="7.997585373390628"><ele>192.0</ele><time>2026-05-01T08:04:58.998Z</time></trkpt><trkpt lat="44.72789651290508" lon="7.997809123988088"><ele>192.0</ele><time>2026-05-01T08:04:59.998Z</time></trkpt><trkpt lat="44.72783728689292" lon="7.998020214293"><ele>192.0</ele><time>2026-05-01T08:05:00.998Z</time></trkpt><trkpt lat="44.727775176146345" lon="7.9982355456575585"><ele>192.0</ele><time>2026-05-01T08:05:01.998Z</time></trkpt><trkpt lat="44.727716937851056" lon="7.998451357268534"><ele>192.0</ele><time>2026-05-01T08:05:03Z</time></trkpt><trkpt lat="44.727642627627745" lon="7.998646872999025"><ele>190.0</ele><time>2026-05-01T08:05:04Z</time></trkpt><trkpt lat="44.72756468472455" lon="7.9989284107354"><ele>188.0</ele><time>2026-05-01T08:05:05Z</time></trkpt><trkpt lat="44.72751664373444" lon="7.999161694792271"><ele>186.0</ele><time>2026-05-01T08:05:06Z</time></trkpt><trkpt lat="44.72744406084205" lon="7.999383510497064"><ele>185.66666666666666</ele><time>2026-05-01T08:05:07Z</time></trkpt><trkpt lat="44.72740358934513" lon="7.9996241171642115"><ele>185.33333333333331</ele><time>2026-05-01T08:05:08Z</time></trkpt><trkpt lat="44.72740130878383" lon="7.999878830014406"><ele>185.0</ele><time>2026-05-01T08:05:09Z</time></trkpt><trkpt lat="44.72741628180171" lon="8.000127904017909"><ele>185.0</ele><time>2026-05-01T08:05:10Z</time></trkpt><trkpt lat="44.727459383494036" lon="8.0003728030038"><ele>185.0</ele><time>2026-05-01T08:05:11Z</time></trkpt><trkpt lat="44.72752551004526" lon="8.00061835116314"><ele>185.0</ele><time>2026-05-01T08:05:12Z</time></trkpt><trkpt lat="44.72758563655784" lon="8.000865309926203"><ele>184.66666666666666</ele><time>2026-05-01T08:05:13Z</time></trkpt><trkpt lat="44.72763834816872" lon="8.00111521576642"><ele>184.33333333333334</ele><time>2026-05-01T08:05:14Z</time></trkpt><trkpt lat="44.72768955706536" lon="8.00136044565394"><ele>184.0</ele><time>2026-05-01T08:05:15Z</time></trkpt><trkpt lat="44.7277422639355" lon="8.001604360566326"><ele>184.66666666666669</ele><time>2026-05-01T08:05:16Z</time></trkpt><trkpt lat="44.727780862887364" lon="8.001855641415615"><ele>185.33333333333334</ele><time>2026-05-01T08:05:17Z</time></trkpt><trkpt lat="44.72783298335192" lon="8.002098741338328"><ele>186.0</ele><time>2026-05-01T08:05:18Z</time></trkpt><trkpt lat="44.72788836850906" lon="8.002357067980832"><ele>184.66666666666666</ele><time>2026-05-01T08:05:19Z</time></trkpt><trkpt lat="44.72794458917215" lon="8.002619291919592"><ele>183.33333333333331</ele><time>2026-05-01T08:05:20Z</time></trkpt><trkpt lat="44.727998869767745" lon="8.002872465890649"><ele>182.0</ele><time>2026-05-01T08:05:21Z</time></trkpt><trkpt lat="44.72804988938594" lon="8.003109896452113"><ele>182.0</ele><time>2026-05-01T08:05:22Z</time></trkpt><trkpt lat="44.728099805392176" lon="8.003342237292767"><ele>182.0</ele><time>2026-05-01T08:05:23Z</time></trkpt><trkpt lat="44.72814874581872" lon="8.003570036929013"><ele>182.0</ele><time>2026-05-01T08:05:24Z</time></trkpt><trkpt lat="44.72819664407415" lon="8.003793014762318"><ele>182.0</ele><time>2026-05-01T08:05:25Z</time></trkpt><trkpt lat="44.72824459939071" lon="8.004016289938106"><ele>182.0</ele><time>2026-05-01T08:05:26Z</time></trkpt><trkpt lat="44.72829027876261" lon="8.00423027543137"><ele>182.0</ele><time>2026-05-01T08:05:27Z</time></trkpt><trkpt lat="44.72833501461363" lon="8.004439762079377"><ele>182.0</ele><time>2026-05-01T08:05:28Z</time></trkpt><trkpt lat="44.728379954268604" lon="8.004647315733902"><ele>182.0</ele><time>2026-05-01T08:05:29Z</time></trkpt><trkpt lat="44.72842399586704" lon="8.004850721650318"><ele>182.0</ele><time>2026-05-01T08:05:30Z</time></trkpt><trkpt lat="44.72847887006352" lon="8.00504376393758"><ele>181.66666666666666</ele><time>2026-05-01T08:05:31Z</time></trkpt><trkpt lat="44.72851076823258" lon="8.005246059882209"><ele>181.33333333333334</ele><time>2026-05-01T08:05:31.999Z</time></trkpt><trkpt lat="44.728547800085394" lon="8.005444967546126"><ele>181.0</ele><time>2026-05-01T08:05:32.999Z</time></trkpt><trkpt lat="44.72859464326285" lon="8.005656530330153"><ele>181.0</ele><time>2026-05-01T08:05:33.999Z</time></trkpt><trkpt lat="44.72864165367886" lon="8.00586426402835"><ele>181.0</ele><time>2026-05-01T08:05:34.999Z</time></trkpt><trkpt lat="44.728683803414235" lon="8.0060577311784"><ele>181.0</ele><time>2026-05-01T08:05:35.999Z</time></trkpt><trkpt lat="44.72872372984658" lon="8.006250974667275"><ele>181.0</ele><time>2026-05-01T08:05:36.999Z</time></trkpt><trkpt lat="44.728767091561785" lon="8.00643434408743"><ele>181.0</ele><time>2026-05-01T08:05:37.999Z</time></trkpt><trkpt lat="44.728801746710985" lon="8.006599942197491"><ele>181.0</ele><time>2026-05-01T08:05:38.999Z</time></trkpt><trkpt lat="44.728835438939406" lon="8.006743617935696"><ele>181.0</ele><time>2026-05-01T08:05:39.999Z</time></trkpt><trkpt lat="44.728859453185144" lon="8.006854270890559"><ele>181.0</ele><time>2026-05-01T08:05:40.999Z</time></trkpt><trkpt lat="44.7288806067471" lon="8.006960666399712"><ele>181.0</ele><time>2026-05-01T08:05:41.999Z</time></trkpt><trkpt lat="44.72890090832428" lon="8.007053255729671"><ele>181.0</ele><time>2026-05-01T08:05:42.999Z</time></trkpt><trkpt lat="44.72891815565056" lon="8.007141690519887"><ele>181.0</ele><time>2026-05-01T08:05:43.999Z</time></trkpt><trkpt lat="44.72893853362682" lon="8.00723293261932"><ele>181.0</ele><time>2026-05-01T08:05:46.999Z</time></trkpt><trkpt lat="44.728955303645854" lon="8.007355626089929"><ele>181.0</ele><time>2026-05-01T08:06:02.999Z</time></trkpt><trkpt lat="44.72895242643119" lon="8.00749355436004"><ele>181.0</ele><time>2026-05-01T08:06:05.999Z</time></trkpt><trkpt lat="44.72892408090595" lon="8.007586257405123"><ele>181.0</ele><time>2026-05-01T08:06:07.999Z</time></trkpt><trkpt lat="44.728868047805165" lon="8.007671508864384"><ele>181.0</ele><time>2026-05-01T08:06:09.999Z</time></trkpt><trkpt lat="44.72880462045886" lon="8.007767478238357"><ele>181.0</ele><time>2026-05-01T08:06:11.999Z</time></trkpt><trkpt lat="44.7287301170928" lon="8.00787696399868"><ele>181.0</ele><time>2026-05-01T08:06:13.999Z</time></trkpt><trkpt lat="44.728624581672186" lon="8.007943317389161"><ele>181.0</ele><time>2026-05-01T08:06:15.999Z</time></trkpt><trkpt lat="44.72855359817556" lon="8.007967690344348"><ele>181.0</ele><time>2026-05-01T08:06:16.999Z</time></trkpt><trkpt lat="44.72846824683537" lon="8.007991151588076"><ele>180.75</ele><time>2026-05-01T08:06:17.999Z</time></trkpt><trkpt lat="44.72836304857674" lon="8.008020010514878"><ele>180.5</ele><time>2026-05-01T08:06:18.999Z</time></trkpt><trkpt lat="44.728224376687045" lon="8.008031242707883"><ele>180.25</ele><time>2026-05-01T08:06:19.999Z</time></trkpt><trkpt lat="44.72807447889621" lon="8.008064000626732"><ele>180.0</ele><time>2026-05-01T08:06:20.999Z</time></trkpt><trkpt lat="44.727912495618874" lon="8.008099399128072"><ele>180.0</ele><time>2026-05-01T08:06:21.999Z</time></trkpt><trkpt lat="44.72774084589112" lon="8.008160234223633"><ele>180.0</ele><time>2026-05-01T08:06:22.999Z</time></trkpt><trkpt lat="44.72754075328888" lon="8.008180206673357"><ele>180.0</ele><time>2026-05-01T08:06:23.999Z</time></trkpt><trkpt lat="44.72733357153761" lon="8.00822548462187"><ele>179.66666666666666</ele><time>2026-05-01T08:06:24.999Z</time></trkpt><trkpt lat="44.7271300070125" lon="8.008269310565215"><ele>179.33333333333331</ele><time>2026-05-01T08:06:25.999Z</time></trkpt><trkpt lat="44.7269294398169" lon="8.008312527857642"><ele>179.0</ele><time>2026-05-01T08:06:26.999Z</time></trkpt><trkpt lat="44.72674634016986" lon="8.008368396187363"><ele>178.66666666666666</ele><time>2026-05-01T08:06:27.999Z</time></trkpt><trkpt lat="44.72656478754843" lon="8.008405022035518"><ele>178.33333333333334</ele><time>2026-05-01T08:06:28.999Z</time></trkpt><trkpt lat="44.726378851052566" lon="8.008443840998073"><ele>178.0</ele><time>2026-05-01T08:06:29.999Z</time></trkpt><trkpt lat="44.726192778981236" lon="8.008484669292"><ele>178.66666666666669</ele><time>2026-05-01T08:06:30.999Z</time></trkpt><trkpt lat="44.72601456976149" lon="8.008524123040276"><ele>179.33333333333334</ele><time>2026-05-01T08:06:31.999Z</time></trkpt><trkpt lat="44.72583891682318" lon="8.00856229538359"><ele>180.0</ele><time>2026-05-01T08:06:32.999Z</time></trkpt><trkpt lat="44.72566157810989" lon="8.008598917304942"><ele>180.0</ele><time>2026-05-01T08:06:33.999Z</time></trkpt><trkpt lat="44.72548477035103" lon="8.008636438768605"><ele>180.0</ele><time>2026-05-01T08:06:34.999Z</time></trkpt><trkpt lat="44.72530725972557" lon="8.008673648850209"><ele>180.0</ele><time>2026-05-01T08:06:35.999Z</time></trkpt><trkpt lat="44.72512705515376" lon="8.008711303618782"><ele>180.33333333333334</ele><time>2026-05-01T08:06:36.999Z</time></trkpt><trkpt lat="44.72494728081416" lon="8.008750280081406"><ele>180.66666666666669</ele><time>2026-05-01T08:06:37.999Z</time></trkpt><trkpt lat="44.72476414142103" lon="8.008790872691648"><ele>181.0</ele><time>2026-05-01T08:06:38.999Z</time></trkpt><trkpt lat="44.724574696754615" lon="8.008834171998595"><ele>181.0</ele><time>2026-05-01T08:06:39.999Z</time></trkpt><trkpt lat="44.72438313555526" lon="8.008876470199112"><ele>181.0</ele><time>2026-05-01T08:06:40.999Z</time></trkpt><trkpt lat="44.724195028456364" lon="8.008919494188522"><ele>181.0</ele><time>2026-05-01T08:06:41.999Z</time></trkpt><trkpt lat="44.72401695038377" lon="8.008959973616397"><ele>181.0</ele><time>2026-05-01T08:06:42.999Z</time></trkpt><trkpt lat="44.723850562147895" lon="8.008999646886949"><ele>181.0</ele><time>2026-05-01T08:06:43.999Z</time></trkpt><trkpt lat="44.72369807000157" lon="8.009034762490916"><ele>181.0</ele><time>2026-05-01T08:06:44.999Z</time></trkpt><trkpt lat="44.72355809404449" lon="8.0090662794374"><ele>182.0</ele><time>2026-05-01T08:06:45.999Z</time></trkpt><trkpt lat="44.72342378054197" lon="8.00909555009777"><ele>183.0</ele><time>2026-05-01T08:06:46.999Z</time></trkpt><trkpt lat="44.723293511780184" lon="8.009121984574309"><ele>184.0</ele><time>2026-05-01T08:06:47.999Z</time></trkpt><trkpt lat="44.7231606882889" lon="8.009147010012985"><ele>185.0</ele><time>2026-05-01T08:06:48.999Z</time></trkpt><trkpt lat="44.72303444497516" lon="8.009173469184699"><ele>182.75</ele><time>2026-05-01T08:06:49.999Z</time></trkpt><trkpt lat="44.72291085256503" lon="8.009198957328007"><ele>180.5</ele><time>2026-05-01T08:06:50.999Z</time></trkpt><trkpt lat="44.72278722722862" lon="8.009227369352459"><ele>178.25</ele><time>2026-05-01T08:06:51.999Z</time></trkpt><trkpt lat="44.72265992775199" lon="8.009258360927948"><ele>176.0</ele><time>2026-05-01T08:06:52.999Z</time></trkpt><trkpt lat="44.722533055543146" lon="8.009286328829688"><ele>176.0</ele><time>2026-05-01T08:06:53.999Z</time></trkpt><trkpt lat="44.72241415072561" lon="8.009313227523627"><ele>176.0</ele><time>2026-05-01T08:06:54.999Z</time></trkpt><trkpt lat="44.72229395728576" lon="8.009318802946945"><ele>176.0</ele><time>2026-05-01T08:06:55.998Z</time></trkpt><trkpt lat="44.72217882966169" lon="8.009344509626867"><ele>176.0</ele><time>2026-05-01T08:06:56.998Z</time></trkpt><trkpt lat="44.72207029425851" lon="8.009368744290377"><ele>176.0</ele><time>2026-05-01T08:06:57.998Z</time></trkpt><trkpt lat="44.72196534635231" lon="8.009391437878131"><ele>176.0</ele><time>2026-05-01T08:06:58.998Z</time></trkpt><trkpt lat="44.72186437069828" lon="8.009413244471974"><ele>176.0</ele><time>2026-05-01T08:06:59.998Z</time></trkpt><trkpt lat="44.72178060112476" lon="8.00943133525422"><ele>176.0</ele><time>2026-05-01T08:07:00.998Z</time></trkpt><trkpt lat="44.72171005882546" lon="8.009446569507608"><ele>176.0</ele><time>2026-05-01T08:07:01.998Z</time></trkpt><trkpt lat="44.72159921820041" lon="8.009469560015729"><ele>175.83333333333331</ele><time>2026-05-01T08:07:03.998Z</time></trkpt><trkpt lat="44.721509609721586" lon="8.009503718900225"><ele>175.66666666666666</ele><time>2026-05-01T08:07:05.998Z</time></trkpt><trkpt lat="44.72141697958957" lon="8.009458887209238"><ele>175.5</ele><time>2026-05-01T08:07:07.998Z</time></trkpt><trkpt lat="44.72136395157402" lon="8.009403715797673"><ele>175.33333333333334</ele><time>2026-05-01T08:07:09Z</time></trkpt><trkpt lat="44.72129842493485" lon="8.00934274151201"><ele>175.16666666666669</ele><time>2026-05-01T08:07:10Z</time></trkpt><trkpt lat="44.721228865372204" lon="8.009303583699037"><ele>175.0</ele><time>2026-05-01T08:07:11Z</time></trkpt><trkpt lat="44.72115082609139" lon="8.009322365612318"><ele>175.0</ele><time>2026-05-01T08:07:12Z</time></trkpt><trkpt lat="44.72108621680112" lon="8.009397099787046"><ele>175.0</ele><time>2026-05-01T08:07:13Z</time></trkpt><trkpt lat="44.72104569549426" lon="8.009495809306495"><ele>175.0</ele><time>2026-05-01T08:07:14Z</time></trkpt><trkpt lat="44.720989441089486" lon="8.009591232399853"><ele>175.0</ele><time>2026-05-01T08:07:15Z</time></trkpt><trkpt lat="44.720903501906704" lon="8.009654597586822"><ele>175.0</ele><time>2026-05-01T08:07:16Z</time></trkpt><trkpt lat="44.720794869393956" lon="8.009684553605279"><ele>174.5</ele><time>2026-05-01T08:07:17Z</time></trkpt><trkpt lat="44.720673798368445" lon="8.009697076633532"><ele>174.0</ele><time>2026-05-01T08:07:18Z</time></trkpt><trkpt lat="44.72054222062917" lon="8.009709421351266"><ele>173.5</ele><time>2026-05-01T08:07:19Z</time></trkpt><trkpt lat="44.72040551021678" lon="8.009733345299681"><ele>173.0</ele><time>2026-05-01T08:07:20Z</time></trkpt><trkpt lat="44.72026427889977" lon="8.009764543700301"><ele>172.75</ele><time>2026-05-01T08:07:21Z</time></trkpt><trkpt lat="44.72013138219325" lon="8.009795085754748"><ele>172.5</ele><time>2026-05-01T08:07:22Z</time></trkpt><trkpt lat="44.72000280719655" lon="8.009828786207263"><ele>172.25</ele><time>2026-05-01T08:07:23Z</time></trkpt><trkpt lat="44.71987778384665" lon="8.009861972505139"><ele>172.0</ele><time>2026-05-01T08:07:24Z</time></trkpt><trkpt lat="44.71972151017142" lon="8.009896414645652"><ele>172.0</ele><time>2026-05-01T08:07:25Z</time></trkpt><trkpt lat="44.71958834126573" lon="8.009924520742306"><ele>172.0</ele><time>2026-05-01T08:07:26Z</time></trkpt><trkpt lat="44.719457918072244" lon="8.009957783867238"><ele>172.0</ele><time>2026-05-01T08:07:27Z</time></trkpt><trkpt lat="44.719334514121705" lon="8.009963233490563"><ele>172.0</ele><time>2026-05-01T08:07:28Z</time></trkpt><trkpt lat="44.71921071313596" lon="8.009990349108095"><ele>172.0</ele><time>2026-05-01T08:07:29Z</time></trkpt><trkpt lat="44.71908822797026" lon="8.0100172236917"><ele>172.0</ele><time>2026-05-01T08:07:30Z</time></trkpt><trkpt lat="44.718970649531904" lon="8.010043021723384"><ele>172.0</ele><time>2026-05-01T08:07:31Z</time></trkpt><trkpt lat="44.718856687131755" lon="8.010067995538153"><ele>172.0</ele><time>2026-05-01T08:07:32Z</time></trkpt><trkpt lat="44.718748906505205" lon="8.010090919136516"><ele>172.0</ele><time>2026-05-01T08:07:33Z</time></trkpt><trkpt lat="44.718655257556904" lon="8.010110837104511"><ele>172.0</ele><time>2026-05-01T08:07:34Z</time></trkpt><trkpt lat="44.71857444815572" lon="8.01015065385499"><ele>172.0</ele><time>2026-05-01T08:07:34.999Z</time></trkpt><trkpt lat="44.718494012484896" lon="8.01014513188064"><ele>172.0</ele><time>2026-05-01T08:07:35.999Z</time></trkpt><trkpt lat="44.71842117925849" lon="8.010185962914496"><ele>172.0</ele><time>2026-05-01T08:07:36.999Z</time></trkpt><trkpt lat="44.71834975770978" lon="8.010201287579925"><ele>172.0</ele><time>2026-05-01T08:07:37.999Z</time></trkpt><trkpt lat="44.71823699254776" lon="8.010225760638264"><ele>172.0</ele><time>2026-05-01T08:07:39.999Z</time></trkpt><trkpt lat="44.71813106215039" lon="8.010247435954485"><ele>172.0</ele><time>2026-05-01T08:07:41.999Z</time></trkpt><trkpt lat="44.71802973474374" lon="8.010270130525289"><ele>172.0</ele><time>2026-05-01T08:07:43.999Z</time></trkpt><trkpt lat="44.71793541385298" lon="8.010297620576841"><ele>172.0</ele><time>2026-05-01T08:07:45.999Z</time></trkpt><trkpt lat="44.71787391239646" lon="8.010316856782064"><ele>172.0</ele><time>2026-05-01T08:07:46.999Z</time></trkpt><trkpt lat="44.71780453659912" lon="8.010329968638251"><ele>172.0</ele><time>2026-05-01T08:07:47.999Z</time></trkpt><trkpt lat="44.71772697848261" lon="8.010342494180994"><ele>172.0</ele><time>2026-05-01T08:07:48.999Z</time></trkpt><trkpt lat="44.7176421724927" lon="8.0103647129661"><ele>172.0</ele><time>2026-05-01T08:07:49.999Z</time></trkpt><trkpt lat="44.71755625872065" lon="8.010435731403186"><ele>172.0</ele><time>2026-05-01T08:07:50.999Z</time></trkpt><trkpt lat="44.7174668689694" lon="8.010552806625395"><ele>172.0</ele><time>2026-05-01T08:07:51.999Z</time></trkpt><trkpt lat="44.71737930324536" lon="8.010662698293418"><ele>172.0</ele><time>2026-05-01T08:07:52.999Z</time></trkpt><trkpt lat="44.71728328611874" lon="8.01078675618241"><ele>171.75</ele><time>2026-05-01T08:07:53.999Z</time></trkpt><trkpt lat="44.71717520604661" lon="8.010898256545682"><ele>171.5</ele><time>2026-05-01T08:07:54.999Z</time></trkpt><trkpt lat="44.717077579657705" lon="8.011028844817996"><ele>171.25</ele><time>2026-05-01T08:07:55.999Z</time></trkpt><trkpt lat="44.7169799810803" lon="8.01115701213145"><ele>171.0</ele><time>2026-05-01T08:07:56.999Z</time></trkpt><trkpt lat="44.716892505926594" lon="8.01128967607089"><ele>170.8</ele><time>2026-05-01T08:07:57.999Z</time></trkpt><trkpt lat="44.71681622765862" lon="8.011407760769483"><ele>170.60000000000002</ele><time>2026-05-01T08:07:58.999Z</time></trkpt><trkpt lat="44.71673861668309" lon="8.011529581196724"><ele>170.4</ele><time>2026-05-01T08:07:59.999Z</time></trkpt><trkpt lat="44.716668937171676" lon="8.011635631103765"><ele>170.2</ele><time>2026-05-01T08:08:00.999Z</time></trkpt><trkpt lat="44.71660978541915" lon="8.011724786643933"><ele>170.0</ele><time>2026-05-01T08:08:01.999Z</time></trkpt><trkpt lat="44.716548658000136" lon="8.011812560880553"><ele>170.0</ele><time>2026-05-01T08:08:02.999Z</time></trkpt><trkpt lat="44.71648905468318" lon="8.011904154548299"><ele>170.0</ele><time>2026-05-01T08:08:03.999Z</time></trkpt><trkpt lat="44.71642447863152" lon="8.011996990410804"><ele>170.0</ele><time>2026-05-01T08:08:04.999Z</time></trkpt><trkpt lat="44.71635739998823" lon="8.012091433170617"><ele>170.0</ele><time>2026-05-01T08:08:05.999Z</time></trkpt><trkpt lat="44.716285078562535" lon="8.012194375049688"><ele>170.0</ele><time>2026-05-01T08:08:06.999Z</time></trkpt><trkpt lat="44.7162153829889" lon="8.012301137973306"><ele>170.0</ele><time>2026-05-01T08:08:07.999Z</time></trkpt><trkpt lat="44.71614360313255" lon="8.012405877321587"><ele>170.0</ele><time>2026-05-01T08:08:08.999Z</time></trkpt><trkpt lat="44.71607324960321" lon="8.01251044629995"><ele>170.0</ele><time>2026-05-01T08:08:09.999Z</time></trkpt><trkpt lat="44.71598958916274" lon="8.012600356831577"><ele>170.0</ele><time>2026-05-01T08:08:10.999Z</time></trkpt><trkpt lat="44.71592054595307" lon="8.012699963201738"><ele>170.0</ele><time>2026-05-01T08:08:11.999Z</time></trkpt><trkpt lat="44.71585787839795" lon="8.012790183915246"><ele>170.0</ele><time>2026-05-01T08:08:12.999Z</time></trkpt><trkpt lat="44.71579776901024" lon="8.012876751296666"><ele>170.0</ele><time>2026-05-01T08:08:13.999Z</time></trkpt><trkpt lat="44.71574528015421" lon="8.012978275873223"><ele>170.0</ele><time>2026-05-01T08:08:14.999Z</time></trkpt><trkpt lat="44.715684694476295" lon="8.013059175646097"><ele>170.0</ele><time>2026-05-01T08:08:15.999Z</time></trkpt><trkpt lat="44.71562558135945" lon="8.013132521315839"><ele>170.0</ele><time>2026-05-01T08:08:16.999Z</time></trkpt><trkpt lat="44.71556663692351" lon="8.01320497460903"><ele>170.0</ele><time>2026-05-01T08:08:17.999Z</time></trkpt><trkpt lat="44.71550670654548" lon="8.013266509241378"><ele>170.0</ele><time>2026-05-01T08:08:18.999Z</time></trkpt><trkpt lat="44.71544202219991" lon="8.01332790619542"><ele>170.0</ele><time>2026-05-01T08:08:19.999Z</time></trkpt><trkpt lat="44.715376028900586" lon="8.013381658604336"><ele>170.0</ele><time>2026-05-01T08:08:20.999Z</time></trkpt><trkpt lat="44.71531250475145" lon="8.013434579974408"><ele>170.0</ele><time>2026-05-01T08:08:21.999Z</time></trkpt><trkpt lat="44.715201064892426" lon="8.013505112038038"><ele>170.0</ele><time>2026-05-01T08:08:23.999Z</time></trkpt><trkpt lat="44.715133279265025" lon="8.013538885069703"><ele>170.0</ele><time>2026-05-01T08:08:24.999Z</time></trkpt><trkpt lat="44.71506713305235" lon="8.013562107916838"><ele>170.0</ele><time>2026-05-01T08:08:25.999Z</time></trkpt><trkpt lat="44.71499653387257" lon="8.013562537393168"><ele>170.0</ele><time>2026-05-01T08:08:26.999Z</time></trkpt><trkpt lat="44.71494009721357" lon="8.013610651280967"><ele>170.0</ele><time>2026-05-01T08:08:27.999Z</time></trkpt><trkpt lat="44.71491674013465" lon="8.013789816840362"><ele>170.0</ele><time>2026-05-01T08:08:29.999Z</time></trkpt><trkpt lat="44.71493915418832" lon="8.01394292911308"><ele>170.0</ele><time>2026-05-01T08:08:31.999Z</time></trkpt><trkpt lat="44.71493624498768" lon="8.01411948599729"><ele>170.0</ele><time>2026-05-01T08:08:33.999Z</time></trkpt><trkpt lat="44.71490676125018" lon="8.01422855372171"><ele>170.0</ele><time>2026-05-01T08:08:34.999Z</time></trkpt><trkpt lat="44.71483506820209" lon="8.014317645322102"><ele>170.0</ele><time>2026-05-01T08:08:35.999Z</time></trkpt><trkpt lat="44.7147519205411" lon="8.014426891509963"><ele>170.0</ele><time>2026-05-01T08:08:36.999Z</time></trkpt><trkpt lat="44.71467035706962" lon="8.01454793350871"><ele>170.0</ele><time>2026-05-01T08:08:37.999Z</time></trkpt><trkpt lat="44.714595289914115" lon="8.014659337497466"><ele>170.0</ele><time>2026-05-01T08:08:38.999Z</time></trkpt><trkpt lat="44.714541770549545" lon="8.014774045966503"><ele>170.0</ele><time>2026-05-01T08:08:39.999Z</time></trkpt><trkpt lat="44.71448744114484" lon="8.014846193507294"><ele>170.0</ele><time>2026-05-01T08:08:40.999Z</time></trkpt><trkpt lat="44.714440853293624" lon="8.014906877553315"><ele>170.0</ele><time>2026-05-01T08:08:41.999Z</time></trkpt><trkpt lat="44.714351841118734" lon="8.015030146493507"><ele>170.0</ele><time>2026-05-01T08:08:43.999Z</time></trkpt><trkpt lat="44.7142721597039" lon="8.015156419996467"><ele>169.75</ele><time>2026-05-01T08:08:45.999Z</time></trkpt><trkpt lat="44.71419620506315" lon="8.015295047996856"><ele>169.5</ele><time>2026-05-01T08:08:47.999Z</time></trkpt><trkpt lat="44.71411937478181" lon="8.015416203365556"><ele>169.25</ele><time>2026-05-01T08:08:49.999Z</time></trkpt><trkpt lat="44.7140438283646" lon="8.015530081689795"><ele>169.0</ele><time>2026-05-01T08:08:51.999Z</time></trkpt><trkpt lat="44.71398183768808" lon="8.015676526089011"><ele>169.0</ele><time>2026-05-01T08:08:53.999Z</time></trkpt><trkpt lat="44.71398901335646" lon="8.01578601008669"><ele>169.0</ele><time>2026-05-01T08:08:54.999Z</time></trkpt><trkpt lat="44.71402006320846" lon="8.015906982774945"><ele>169.0</ele><time>2026-05-01T08:08:55.999Z</time></trkpt><trkpt lat="44.71405811348561" lon="8.016032053583402"><ele>169.0</ele><time>2026-05-01T08:08:56.999Z</time></trkpt><trkpt lat="44.71408926062089" lon="8.016168580897407"><ele>169.0</ele><time>2026-05-01T08:08:57.999Z</time></trkpt><trkpt lat="44.71412138141901" lon="8.016319784745077"><ele>168.75</ele><time>2026-05-01T08:08:58.999Z</time></trkpt><trkpt lat="44.71417582683629" lon="8.016460744091459"><ele>168.5</ele><time>2026-05-01T08:08:59.998Z</time></trkpt><trkpt lat="44.71413795271029" lon="8.016668120327225"><ele>168.25</ele><time>2026-05-01T08:09:00.998Z</time></trkpt><trkpt lat="44.714130455882696" lon="8.01686753027585"><ele>168.0</ele><time>2026-05-01T08:09:01.998Z</time></trkpt><trkpt lat="44.71411321800048" lon="8.017093593077917"><ele>168.0</ele><time>2026-05-01T08:09:02.998Z</time></trkpt><trkpt lat="44.714126025215215" lon="8.017330895020319"><ele>168.0</ele><time>2026-05-01T08:09:03.998Z</time></trkpt><trkpt lat="44.71410242680939" lon="8.017556551932026"><ele>168.0</ele><time>2026-05-01T08:09:04.998Z</time></trkpt><trkpt lat="44.714074664219154" lon="8.017763050134462"><ele>168.0</ele><time>2026-05-01T08:09:05.998Z</time></trkpt><trkpt lat="44.71404815253069" lon="8.017956346888086"><ele>168.0</ele><time>2026-05-01T08:09:06.998Z</time></trkpt><trkpt lat="44.71399104572702" lon="8.01811391079119"><ele>168.0</ele><time>2026-05-01T08:09:07.998Z</time></trkpt><trkpt lat="44.71395294430796" lon="8.018311600677336"><ele>168.0</ele><time>2026-05-01T08:09:08.998Z</time></trkpt><trkpt lat="44.713928271749964" lon="8.018588542002522"><ele>168.0</ele><time>2026-05-01T08:09:09.998Z</time></trkpt><trkpt lat="44.71384732247796" lon="8.018888850066462"><ele>168.0</ele><time>2026-05-01T08:09:10.998Z</time></trkpt><trkpt lat="44.713738738623974" lon="8.01919868511648"><ele>168.0</ele><time>2026-05-01T08:09:11.998Z</time></trkpt><trkpt lat="44.713633942805146" lon="8.019490191038612"><ele>168.0</ele><time>2026-05-01T08:09:12.998Z</time></trkpt><trkpt lat="44.71353848805401" lon="8.019759148847589"><ele>168.0</ele><time>2026-05-01T08:09:13.998Z</time></trkpt><trkpt lat="44.71344729870224" lon="8.020008940538931"><ele>167.66666666666666</ele><time>2026-05-01T08:09:15Z</time></trkpt><trkpt lat="44.71335928289476" lon="8.020251625136186"><ele>167.33333333333331</ele><time>2026-05-01T08:09:16Z</time></trkpt><trkpt lat="44.7132720468652" lon="8.020491617067655"><ele>167.0</ele><time>2026-05-01T08:09:17Z</time></trkpt><trkpt lat="44.713184635229325" lon="8.02073383607414"><ele>167.0</ele><time>2026-05-01T08:09:18Z</time></trkpt><trkpt lat="44.71310082789121" lon="8.02097573745958"><ele>167.0</ele><time>2026-05-01T08:09:19Z</time></trkpt><trkpt lat="44.713013615735875" lon="8.02122310270912"><ele>167.0</ele><time>2026-05-01T08:09:20Z</time></trkpt><trkpt lat="44.7129247717917" lon="8.02147704601811"><ele>167.0</ele><time>2026-05-01T08:09:21Z</time></trkpt><trkpt lat="44.712833163112734" lon="8.021734400001687"><ele>167.0</ele><time>2026-05-01T08:09:22Z</time></trkpt><trkpt lat="44.71274502151234" lon="8.021981125887384"><ele>167.0</ele><time>2026-05-01T08:09:23Z</time></trkpt><trkpt lat="44.71265808067548" lon="8.022219894270936"><ele>167.0</ele><time>2026-05-01T08:09:24Z</time></trkpt><trkpt lat="44.712570942374434" lon="8.022459450202378"><ele>167.0</ele><time>2026-05-01T08:09:25Z</time></trkpt><trkpt lat="44.71248542111835" lon="8.022697081148463"><ele>167.0</ele><time>2026-05-01T08:09:26Z</time></trkpt><trkpt lat="44.712403198106394" lon="8.022930737735408"><ele>167.0</ele><time>2026-05-01T08:09:27Z</time></trkpt><trkpt lat="44.712319426591584" lon="8.023159991976026"><ele>167.0</ele><time>2026-05-01T08:09:28Z</time></trkpt><trkpt lat="44.71222970944563" lon="8.023385078982967"><ele>167.0</ele><time>2026-05-01T08:09:29Z</time></trkpt><trkpt lat="44.7121345100684" lon="8.023601640676484"><ele>167.0</ele><time>2026-05-01T08:09:30Z</time></trkpt><trkpt lat="44.71203530005658" lon="8.023808856667674"><ele>167.0</ele><time>2026-05-01T08:09:31Z</time></trkpt><trkpt lat="44.711931955553915" lon="8.02400428585502"><ele>167.0</ele><time>2026-05-01T08:09:32Z</time></trkpt><trkpt lat="44.7118276292751" lon="8.024182552053633"><ele>166.33333333333331</ele><time>2026-05-01T08:09:33Z</time></trkpt><trkpt lat="44.711721480509325" lon="8.024350814331594"><ele>165.66666666666666</ele><time>2026-05-01T08:09:34Z</time></trkpt><trkpt lat="44.711612649759786" lon="8.024516792369287"><ele>165.0</ele><time>2026-05-01T08:09:35Z</time></trkpt><trkpt lat="44.711503169188404" lon="8.024674794377454"><ele>165.0</ele><time>2026-05-01T08:09:36Z</time></trkpt><trkpt lat="44.71139234006815" lon="8.024821478709331"><ele>165.0</ele><time>2026-05-01T08:09:36.999Z</time></trkpt><trkpt lat="44.71128057177704" lon="8.024958079530116"><ele>165.0</ele><time>2026-05-01T08:09:37.999Z</time></trkpt><trkpt lat="44.711172061585074" lon="8.025084187585039"><ele>165.0</ele><time>2026-05-01T08:09:38.999Z</time></trkpt><trkpt lat="44.71106548114157" lon="8.025204345614977"><ele>165.0</ele><time>2026-05-01T08:09:39.999Z</time></trkpt><trkpt lat="44.71095588574779" lon="8.025310977903175"><ele>165.0</ele><time>2026-05-01T08:09:40.999Z</time></trkpt><trkpt lat="44.71084096175674" lon="8.025415994506234"><ele>165.0</ele><time>2026-05-01T08:09:41.999Z</time></trkpt><trkpt lat="44.7107209222682" lon="8.025518488957724"><ele>165.0</ele><time>2026-05-01T08:09:42.999Z</time></trkpt><trkpt lat="44.71059846768272" lon="8.025617286841442"><ele>165.0</ele><time>2026-05-01T08:09:43.999Z</time></trkpt><trkpt lat="44.71048586392905" lon="8.025705936473724"><ele>165.0</ele><time>2026-05-01T08:09:44.999Z</time></trkpt><trkpt lat="44.71038106755946" lon="8.025782056472703"><ele>165.0</ele><time>2026-05-01T08:09:45.999Z</time></trkpt><trkpt lat="44.71028133788519" lon="8.025846320661813"><ele>165.0</ele><time>2026-05-01T08:09:46.999Z</time></trkpt><trkpt lat="44.710194780222245" lon="8.025895121569842"><ele>165.5</ele><time>2026-05-01T08:09:47.999Z</time></trkpt><trkpt lat="44.710120135456265" lon="8.025930804578397"><ele>166.0</ele><time>2026-05-01T08:09:48.999Z</time></trkpt><trkpt lat="44.71004957293742" lon="8.025970887377364"><ele>166.5</ele><time>2026-05-01T08:09:49.999Z</time></trkpt><trkpt lat="44.70998347077945" lon="8.026007614970043"><ele>167.0</ele><time>2026-05-01T08:09:50.999Z</time></trkpt><trkpt lat="44.70992240023085" lon="8.026041453923057"><ele>167.5</ele><time>2026-05-01T08:09:51.999Z</time></trkpt><trkpt lat="44.70981242132264" lon="8.02609719712991"><ele>168.0</ele><time>2026-05-01T08:09:53.999Z</time></trkpt><trkpt lat="44.70969410674649" lon="8.026157976990195"><ele>168.0</ele><time>2026-05-01T08:09:55.999Z</time></trkpt><trkpt lat="44.70959666713257" lon="8.026190988677754"><ele>168.0</ele><time>2026-05-01T08:09:56.999Z</time></trkpt><trkpt lat="44.70949918771133" lon="8.026208212633692"><ele>168.0</ele><time>2026-05-01T08:09:57.999Z</time></trkpt><trkpt lat="44.709398021825315" lon="8.026231759189931"><ele>168.0</ele><time>2026-05-01T08:09:58.999Z</time></trkpt><trkpt lat="44.70928724537955" lon="8.026286024779605"><ele>168.0</ele><time>2026-05-01T08:09:59.999Z</time></trkpt><trkpt lat="44.70917599163072" lon="8.026344156489754"><ele>167.66666666666666</ele><time>2026-05-01T08:10:00.999Z</time></trkpt><trkpt lat="44.709042892079864" lon="8.026372217115425"><ele>167.33333333333331</ele><time>2026-05-01T08:10:01.999Z</time></trkpt><trkpt lat="44.708891221585525" lon="8.026393446996199"><ele>167.0</ele><time>2026-05-01T08:10:02.999Z</time></trkpt><trkpt lat="44.708714129244086" lon="8.02644008024815"><ele>166.33333333333331</ele><time>2026-05-01T08:10:03.999Z</time></trkpt><trkpt lat="44.70853811262923" lon="8.026506205041875"><ele>165.66666666666666</ele><time>2026-05-01T08:10:04.999Z</time></trkpt><trkpt lat="44.70837426701105" lon="8.026560698768726"><ele>165.0</ele><time>2026-05-01T08:10:05.999Z</time></trkpt><trkpt lat="44.70822233603304" lon="8.026608779857778"><ele>165.0</ele><time>2026-05-01T08:10:06.999Z</time></trkpt><trkpt lat="44.70806147327247" lon="8.026658356931819"><ele>165.0</ele><time>2026-05-01T08:10:07.999Z</time></trkpt><trkpt lat="44.70789495647105" lon="8.026708844243577"><ele>165.0</ele><time>2026-05-01T08:10:08.999Z</time></trkpt><trkpt lat="44.70773553029354" lon="8.026755081939084"><ele>165.0</ele><time>2026-05-01T08:10:09.999Z</time></trkpt><trkpt lat="44.70757483163776" lon="8.026794673724945"><ele>165.0</ele><time>2026-05-01T08:10:10.999Z</time></trkpt><trkpt lat="44.7074050613845" lon="8.02684722264147"><ele>165.0</ele><time>2026-05-01T08:10:11.999Z</time></trkpt><trkpt lat="44.70726497122727" lon="8.026882063548548"><ele>165.0</ele><time>2026-05-01T08:10:12.999Z</time></trkpt><trkpt lat="44.70711994192645" lon="8.026920379193426"><ele>165.0</ele><time>2026-05-01T08:10:13.999Z</time></trkpt><trkpt lat="44.70697741328272" lon="8.026959986515248"><ele>165.0</ele><time>2026-05-01T08:10:14.999Z</time></trkpt><trkpt lat="44.706832339986335" lon="8.027000362086314"><ele>165.0</ele><time>2026-05-01T08:10:15.999Z</time></trkpt><trkpt lat="44.706681112612266" lon="8.027041779773981"><ele>165.0</ele><time>2026-05-01T08:10:16.999Z</time></trkpt><trkpt lat="44.706528088530106" lon="8.027083540138488"><ele>165.0</ele><time>2026-05-01T08:10:17.999Z</time></trkpt><trkpt lat="44.70637193137247" lon="8.027122337712845"><ele>165.0</ele><time>2026-05-01T08:10:18.999Z</time></trkpt><trkpt lat="44.70622442285578" lon="8.027160240681887"><ele>165.0</ele><time>2026-05-01T08:10:19.999Z</time></trkpt><trkpt lat="44.70608544302211" lon="8.027195038866633"><ele>165.0</ele><time>2026-05-01T08:10:20.999Z</time></trkpt><trkpt lat="44.705948751782394" lon="8.02723165505285"><ele>165.0</ele><time>2026-05-01T08:10:21.999Z</time></trkpt><trkpt lat="44.705816002368856" lon="8.02726810020354"><ele>165.0</ele><time>2026-05-01T08:10:22.999Z</time></trkpt><trkpt lat="44.70568602840654" lon="8.027302313830894"><ele>163.75</ele><time>2026-05-01T08:10:23.999Z</time></trkpt><trkpt lat="44.70555722599952" lon="8.0273409836563"><ele>162.5</ele><time>2026-05-01T08:10:24.999Z</time></trkpt><trkpt lat="44.70543112715681" lon="8.027375462074742"><ele>161.25</ele><time>2026-05-01T08:10:25.999Z</time></trkpt><trkpt lat="44.70531760341052" lon="8.027404017290255"><ele>160.0</ele><time>2026-05-01T08:10:26.999Z</time></trkpt><trkpt lat="44.705224320312894" lon="8.027427656462844"><ele>159.66666666666669</ele><time>2026-05-01T08:10:27.999Z</time></trkpt><trkpt lat="44.70513992818151" lon="8.02744749038681"><ele>159.33333333333334</ele><time>2026-05-01T08:10:28.999Z</time></trkpt><trkpt lat="44.705056451334194" lon="8.027471479005465"><ele>159.0</ele><time>2026-05-01T08:10:29.999Z</time></trkpt><trkpt lat="44.70498268554211" lon="8.027494586434507"><ele>158.66666666666666</ele><time>2026-05-01T08:10:30.999Z</time></trkpt><trkpt lat="44.704912650881816" lon="8.02751424108996"><ele>158.33333333333331</ele><time>2026-05-01T08:10:31.999Z</time></trkpt><trkpt lat="44.704847545591605" lon="8.027535231200645"><ele>158.0</ele><time>2026-05-01T08:10:32.999Z</time></trkpt><trkpt lat="44.70473568892068" lon="8.027573889884517"><ele>159.0</ele><time>2026-05-01T08:10:34.999Z</time></trkpt><trkpt lat="44.70463993433471" lon="8.027616086596595"><ele>160.0</ele><time>2026-05-01T08:10:36.999Z</time></trkpt><trkpt lat="44.7045337309206" lon="8.02766073546152"><ele>161.0</ele><time>2026-05-01T08:10:38.999Z</time></trkpt><trkpt lat="44.70442863459636" lon="8.027708633333614"><ele>162.0</ele><time>2026-05-01T08:10:40.999Z</time></trkpt><trkpt lat="44.70435817461428" lon="8.027748506351323"><ele>163.0</ele><time>2026-05-01T08:10:43.999Z</time></trkpt><trkpt lat="44.70428696280334" lon="8.027784036912044"><ele>163.33333333333334</ele><time>2026-05-01T08:10:45.999Z</time></trkpt><trkpt lat="44.70416795206639" lon="8.027825841196035"><ele>163.66666666666669</ele><time>2026-05-01T08:10:47.999Z</time></trkpt><trkpt lat="44.70410159118872" lon="8.027848018748859"><ele>164.0</ele><time>2026-05-01T08:10:48.999Z</time></trkpt><trkpt lat="44.704034121302314" lon="8.027897194146437"><ele>164.33333333333334</ele><time>2026-05-01T08:10:49.999Z</time></trkpt><trkpt lat="44.70397908104595" lon="8.027978852822374"><ele>164.66666666666666</ele><time>2026-05-01T08:10:50.999Z</time></trkpt><trkpt lat="44.703959659160965" lon="8.028104707682102"><ele>165.0</ele><time>2026-05-01T08:10:51.999Z</time></trkpt><trkpt lat="44.703969444199565" lon="8.02823212296675"><ele>165.75</ele><time>2026-05-01T08:10:52.999Z</time></trkpt><trkpt lat="44.703994289477315" lon="8.028381390010885"><ele>166.5</ele><time>2026-05-01T08:10:53.999Z</time></trkpt><trkpt lat="44.704020690433374" lon="8.02855175014526"><ele>167.25</ele><time>2026-05-01T08:10:54.999Z</time></trkpt><trkpt lat="44.704031747395774" lon="8.028718869736341"><ele>168.0</ele><time>2026-05-01T08:10:55.999Z</time></trkpt><trkpt lat="44.70401616133455" lon="8.028883116947238"><ele>168.0</ele><time>2026-05-01T08:10:56.999Z</time></trkpt><trkpt lat="44.704014540593406" lon="8.02901295020847"><ele>168.0</ele><time>2026-05-01T08:10:57.999Z</time></trkpt><trkpt lat="44.70391388448844" lon="8.029141238733146"><ele>168.0</ele><time>2026-05-01T08:10:58.999Z</time></trkpt><trkpt lat="44.70386721791257" lon="8.029226958523472"><ele>168.0</ele><time>2026-05-01T08:10:59.999Z</time></trkpt><trkpt lat="44.703818587698784" lon="8.029322237393464"><ele>168.0</ele><time>2026-05-01T08:11:00.999Z</time></trkpt><trkpt lat="44.70376878010368" lon="8.029427117637855"><ele>168.0</ele><time>2026-05-01T08:11:01.998Z</time></trkpt><trkpt lat="44.703701749942766" lon="8.029522327171883"><ele>168.0</ele><time>2026-05-01T08:11:02.998Z</time></trkpt><trkpt lat="44.703647150847196" lon="8.029630828060332"><ele>168.0</ele><time>2026-05-01T08:11:03.998Z</time></trkpt><trkpt lat="44.70360989187143" lon="8.029742544687831"><ele>168.0</ele><time>2026-05-01T08:11:04.998Z</time></trkpt><trkpt lat="44.70356139103778" lon="8.029835893965107"><ele>168.0</ele><time>2026-05-01T08:11:05.998Z</time></trkpt><trkpt lat="44.70351678133085" lon="8.029932083047415"><ele>168.0</ele><time>2026-05-01T08:11:06.998Z</time></trkpt><trkpt lat="44.70347078462757" lon="8.030027006185001"><ele>168.0</ele><time>2026-05-01T08:11:07.998Z</time></trkpt><trkpt lat="44.70342177269563" lon="8.030117656867564"><ele>168.0</ele><time>2026-05-01T08:11:08.998Z</time></trkpt><trkpt lat="44.70337605068245" lon="8.03020593851361"><ele>168.0</ele><time>2026-05-01T08:11:09.998Z</time></trkpt><trkpt lat="44.7033310843889" lon="8.0302888459642"><ele>168.0</ele><time>2026-05-01T08:11:10.998Z</time></trkpt><trkpt lat="44.70328800640215" lon="8.030368667527835"><ele>168.0</ele><time>2026-05-01T08:11:11.998Z</time></trkpt><trkpt lat="44.703245796830466" lon="8.030438895710253"><ele>168.0</ele><time>2026-05-01T08:11:12.998Z</time></trkpt><trkpt lat="44.703191015318595" lon="8.030546620988833"><ele>168.0</ele><time>2026-05-01T08:11:14.998Z</time></trkpt><trkpt lat="44.70312649681322" lon="8.030677783870853"><ele>168.0</ele><time>2026-05-01T08:11:16.998Z</time></trkpt><trkpt lat="44.70308803307399" lon="8.030754071423054"><ele>168.0</ele><time>2026-05-01T08:11:17.998Z</time></trkpt><trkpt lat="44.7030469124668" lon="8.030838239995976"><ele>168.0</ele><time>2026-05-01T08:11:18.998Z</time></trkpt><trkpt lat="44.70300130079977" lon="8.030929360023908"><ele>168.0</ele><time>2026-05-01T08:11:19.998Z</time></trkpt><trkpt lat="44.702951264617525" lon="8.031030170685298"><ele>168.0</ele><time>2026-05-01T08:11:21Z</time></trkpt><trkpt lat="44.70289980323125" lon="8.031137092610612"><ele>168.0</ele><time>2026-05-01T08:11:22Z</time></trkpt><trkpt lat="44.702846281558095" lon="8.031248746390395"><ele>168.0</ele><time>2026-05-01T08:11:23Z</time></trkpt><trkpt lat="44.70277807366533" lon="8.031344523884572"><ele>168.0</ele><time>2026-05-01T08:11:24Z</time></trkpt><trkpt lat="44.7027254937387" lon="8.03144824835951"><ele>168.0</ele><time>2026-05-01T08:11:25Z</time></trkpt><trkpt lat="44.702675298505234" lon="8.031547160623697"><ele>168.0</ele><time>2026-05-01T08:11:26Z</time></trkpt><trkpt lat="44.70262604724936" lon="8.031644466897315"><ele>168.33333333333334</ele><time>2026-05-01T08:11:27Z</time></trkpt><trkpt lat="44.70259345124243" lon="8.031749510383234"><ele>168.66666666666666</ele><time>2026-05-01T08:11:28Z</time></trkpt><trkpt lat="44.702542596327994" lon="8.031846341379769"><ele>169.0</ele><time>2026-05-01T08:11:29Z</time></trkpt><trkpt lat="44.702494247722804" lon="8.031941533327206"><ele>169.33333333333331</ele><time>2026-05-01T08:11:30Z</time></trkpt><trkpt lat="44.70244850015051" lon="8.032030370090931"><ele>169.66666666666666</ele><time>2026-05-01T08:11:31Z</time></trkpt><trkpt lat="44.70240137946315" lon="8.032112846719057"><ele>170.0</ele><time>2026-05-01T08:11:32Z</time></trkpt><trkpt lat="44.70232227325226" lon="8.032195628082674"><ele>170.0</ele><time>2026-05-01T08:11:35Z</time></trkpt><trkpt lat="44.702321118393606" lon="8.032349308650746"><ele>170.0</ele><time>2026-05-01T08:11:36.999Z</time></trkpt><trkpt lat="44.702370530505846" lon="8.03241009618034"><ele>170.0</ele><time>2026-05-01T08:11:37.999Z</time></trkpt><trkpt lat="44.70243921678372" lon="8.032462956222794"><ele>170.0</ele><time>2026-05-01T08:11:38.999Z</time></trkpt><trkpt lat="44.702519239394455" lon="8.032530710226384"><ele>170.0</ele><time>2026-05-01T08:11:39.999Z</time></trkpt><trkpt lat="44.702600400085565" lon="8.032617637008842"><ele>170.0</ele><time>2026-05-01T08:11:40.999Z</time></trkpt><trkpt lat="44.70268569811598" lon="8.032711747229543"><ele>168.5</ele><time>2026-05-01T08:11:41.999Z</time></trkpt><trkpt lat="44.70277728184504" lon="8.0328144668181"><ele>167.0</ele><time>2026-05-01T08:11:42.999Z</time></trkpt><trkpt lat="44.70287782877259" lon="8.032915512769083"><ele>165.5</ele><time>2026-05-01T08:11:43.999Z</time></trkpt><trkpt lat="44.70297679675878" lon="8.033019238373607"><ele>164.0</ele><time>2026-05-01T08:11:44.999Z</time></trkpt><trkpt lat="44.7030657421741" lon="8.03311779615481"><ele>164.0</ele><time>2026-05-01T08:11:45.999Z</time></trkpt><trkpt lat="44.70315671316652" lon="8.033217116835056"><ele>164.0</ele><time>2026-05-01T08:11:46.999Z</time></trkpt><trkpt lat="44.70324814308953" lon="8.033312037154758"><ele>164.0</ele><time>2026-05-01T08:11:47.999Z</time></trkpt><trkpt lat="44.70332610462519" lon="8.033418705765767"><ele>164.0</ele><time>2026-05-01T08:11:48.999Z</time></trkpt><trkpt lat="44.703395765838984" lon="8.033511898480784"><ele>164.0</ele><time>2026-05-01T08:11:49.999Z</time></trkpt><trkpt lat="44.70336351681222" lon="8.033693415973021"><ele>164.5</ele><time>2026-05-01T08:11:50.999Z</time></trkpt><trkpt lat="44.70340066482935" lon="8.03386733818923"><ele>165.0</ele><time>2026-05-01T08:11:51.999Z</time></trkpt><trkpt lat="44.70337763708428" lon="8.034052756589526"><ele>165.5</ele><time>2026-05-01T08:11:52.999Z</time></trkpt><trkpt lat="44.70335099079581" lon="8.034267349054797"><ele>166.0</ele><time>2026-05-01T08:11:53.999Z</time></trkpt><trkpt lat="44.70332992269057" lon="8.034482453884097"><ele>166.33333333333334</ele><time>2026-05-01T08:11:54.999Z</time></trkpt><trkpt lat="44.70331754239074" lon="8.034715522362212"><ele>166.66666666666666</ele><time>2026-05-01T08:11:55.999Z</time></trkpt><trkpt lat="44.70327303020232" lon="8.034948911978631"><ele>167.0</ele><time>2026-05-01T08:11:56.999Z</time></trkpt><trkpt lat="44.70325541831968" lon="8.035187838416439"><ele>167.0</ele><time>2026-05-01T08:11:57.999Z</time></trkpt><trkpt lat="44.703236565272654" lon="8.035441831448235"><ele>167.0</ele><time>2026-05-01T08:11:58.999Z</time></trkpt><trkpt lat="44.70322723724936" lon="8.035688402567231"><ele>167.0</ele><time>2026-05-01T08:11:59.999Z</time></trkpt><trkpt lat="44.70322893895921" lon="8.035924336827135"><ele>167.0</ele><time>2026-05-01T08:12:00.999Z</time></trkpt><trkpt lat="44.703210781964756" lon="8.036156454993503"><ele>167.0</ele><time>2026-05-01T08:12:01.999Z</time></trkpt><trkpt lat="44.703194199940604" lon="8.036387447339584"><ele>167.0</ele><time>2026-05-01T08:12:02.999Z</time></trkpt><trkpt lat="44.70318248225613" lon="8.036623323284422"><ele>166.66666666666666</ele><time>2026-05-01T08:12:03.999Z</time></trkpt><trkpt lat="44.703168166075066" lon="8.036854661137507"><ele>166.33333333333334</ele><time>2026-05-01T08:12:04.999Z</time></trkpt><trkpt lat="44.70314567522753" lon="8.03707437292517"><ele>166.0</ele><time>2026-05-01T08:12:05.999Z</time></trkpt><trkpt lat="44.70313306294854" lon="8.037300195161041"><ele>165.75</ele><time>2026-05-01T08:12:06.999Z</time></trkpt><trkpt lat="44.70311898071864" lon="8.037515157547073"><ele>165.5</ele><time>2026-05-01T08:12:07.999Z</time></trkpt><trkpt lat="44.703106576514585" lon="8.037711488836113"><ele>165.25</ele><time>2026-05-01T08:12:08.999Z</time></trkpt><trkpt lat="44.70309460932003" lon="8.037902753470414"><ele>165.0</ele><time>2026-05-01T08:12:09.999Z</time></trkpt><trkpt lat="44.70308372438469" lon="8.038087187036822"><ele>165.0</ele><time>2026-05-01T08:12:10.999Z</time></trkpt><trkpt lat="44.703062037441526" lon="8.038259038970601"><ele>165.0</ele><time>2026-05-01T08:12:11.999Z</time></trkpt><trkpt lat="44.70301739844034" lon="8.03841295243294"><ele>165.0</ele><time>2026-05-01T08:12:12.999Z</time></trkpt><trkpt lat="44.70293833175571" lon="8.038536030163156"><ele>165.0</ele><time>2026-05-01T08:12:13.999Z</time></trkpt><trkpt lat="44.7028220571295" lon="8.038614706101749"><ele>165.75</ele><time>2026-05-01T08:12:14.999Z</time></trkpt><trkpt lat="44.70269477339735" lon="8.038688395687496"><ele>166.5</ele><time>2026-05-01T08:12:15.999Z</time></trkpt><trkpt lat="44.70256390945022" lon="8.038775667947016"><ele>167.25</ele><time>2026-05-01T08:12:16.999Z</time></trkpt><trkpt lat="44.702434239532124" lon="8.038871207702412"><ele>168.0</ele><time>2026-05-01T08:12:17.999Z</time></trkpt><trkpt lat="44.702300595768776" lon="8.038971128840158"><ele>168.0</ele><time>2026-05-01T08:12:18.999Z</time></trkpt><trkpt lat="44.7021680837168" lon="8.039068441452903"><ele>168.0</ele><time>2026-05-01T08:12:19.999Z</time></trkpt><trkpt lat="44.70204052783652" lon="8.03915854422326"><ele>168.0</ele><time>2026-05-01T08:12:20.999Z</time></trkpt><trkpt lat="44.701914140151096" lon="8.039248873974433"><ele>168.0</ele><time>2026-05-01T08:12:21.999Z</time></trkpt><trkpt lat="44.70178752203174" lon="8.039341558999515"><ele>168.25</ele><time>2026-05-01T08:12:22.999Z</time></trkpt><trkpt lat="44.70166478313704" lon="8.03942531593176"><ele>168.5</ele><time>2026-05-01T08:12:23.999Z</time></trkpt><trkpt lat="44.701546017723466" lon="8.039506938921331"><ele>168.75</ele><time>2026-05-01T08:12:24.999Z</time></trkpt><trkpt lat="44.70142784355401" lon="8.03959255004577"><ele>169.0</ele><time>2026-05-01T08:12:25.999Z</time></trkpt><trkpt lat="44.70131582054528" lon="8.039666853166214"><ele>169.0</ele><time>2026-05-01T08:12:26.999Z</time></trkpt><trkpt lat="44.70120847624793" lon="8.039737393288005"><ele>169.0</ele><time>2026-05-01T08:12:27.999Z</time></trkpt><trkpt lat="44.70110658039699" lon="8.039798467871215"><ele>169.0</ele><time>2026-05-01T08:12:28.999Z</time></trkpt><trkpt lat="44.70101367873559" lon="8.039844876530298"><ele>169.0</ele><time>2026-05-01T08:12:29.999Z</time></trkpt><trkpt lat="44.70092604106826" lon="8.039883172806814"><ele>169.0</ele><time>2026-05-01T08:12:30.999Z</time></trkpt><trkpt lat="44.70084578162849" lon="8.039900889403185"><ele>169.0</ele><time>2026-05-01T08:12:31.999Z</time></trkpt><trkpt lat="44.700777344285505" lon="8.039887608297839"><ele>169.0</ele><time>2026-05-01T08:12:32.999Z</time></trkpt><trkpt lat="44.70066971232987" lon="8.039824797916612"><ele>169.0</ele><time>2026-05-01T08:12:34.999Z</time></trkpt><trkpt lat="44.700602012146774" lon="8.039801331815438"><ele>169.0</ele><time>2026-05-01T08:12:35.999Z</time></trkpt><trkpt lat="44.700537676743565" lon="8.039806229667242"><ele>169.0</ele><time>2026-05-01T08:12:36.999Z</time></trkpt><trkpt lat="44.70049579404595" lon="8.039878292444671"><ele>169.0</ele><time>2026-05-01T08:12:37.999Z</time></trkpt><trkpt lat="44.70049458197913" lon="8.039986411289227"><ele>169.0</ele><time>2026-05-01T08:12:38.999Z</time></trkpt><trkpt lat="44.70052543065241" lon="8.040066042209675"><ele>169.0</ele><time>2026-05-01T08:12:39.999Z</time></trkpt><trkpt lat="44.70057143898146" lon="8.040155401962592"><ele>169.0</ele><time>2026-05-01T08:12:41.999Z</time></trkpt><trkpt lat="44.700588158377016" lon="8.040271029140014"><ele>169.0</ele><time>2026-05-01T08:12:43.999Z</time></trkpt><trkpt lat="44.700582746054934" lon="8.040365552636981"><ele>169.0</ele><time>2026-05-01T08:12:44.999Z</time></trkpt><trkpt lat="44.70057160659397" lon="8.040470602214954"><ele>169.0</ele><time>2026-05-01T08:12:45.999Z</time></trkpt><trkpt lat="44.70053943257679" lon="8.04059987401834"><ele>169.0</ele><time>2026-05-01T08:12:46.999Z</time></trkpt><trkpt lat="44.70051663526879" lon="8.040779694878628"><ele>169.0</ele><time>2026-05-01T08:12:47.999Z</time></trkpt><trkpt lat="44.700491999092975" lon="8.040978452637948"><ele>169.0</ele><time>2026-05-01T08:12:48.999Z</time></trkpt><trkpt lat="44.70046520251986" lon="8.04118204919031"><ele>169.0</ele><time>2026-05-01T08:12:49.999Z</time></trkpt><trkpt lat="44.700438537937515" lon="8.041396845541511"><ele>167.75</ele><time>2026-05-01T08:12:50.999Z</time></trkpt><trkpt lat="44.70042907551021" lon="8.041603299097801"><ele>166.5</ele><time>2026-05-01T08:12:51.999Z</time></trkpt><trkpt lat="44.70040304348146" lon="8.041809905084193"><ele>165.25</ele><time>2026-05-01T08:12:52.999Z</time></trkpt><trkpt lat="44.70037888718662" lon="8.042008687454999"><ele>164.0</ele><time>2026-05-01T08:12:53.999Z</time></trkpt><trkpt lat="44.7003562268734" lon="8.042197755868404"><ele>163.75</ele><time>2026-05-01T08:12:54.999Z</time></trkpt><trkpt lat="44.70032002916339" lon="8.042372547081316"><ele>163.5</ele><time>2026-05-01T08:12:55.999Z</time></trkpt><trkpt lat="44.70029775170439" lon="8.042545953826915"><ele>163.25</ele><time>2026-05-01T08:12:56.999Z</time></trkpt><trkpt lat="44.70028731293384" lon="8.042714606636723"><ele>163.0</ele><time>2026-05-01T08:12:57.999Z</time></trkpt><trkpt lat="44.700268252737295" lon="8.042861587543928"><ele>164.25</ele><time>2026-05-01T08:12:58.999Z</time></trkpt><trkpt lat="44.70023793216671" lon="8.042997630918084"><ele>165.5</ele><time>2026-05-01T08:12:59.999Z</time></trkpt><trkpt lat="44.700188434793226" lon="8.043140522602709"><ele>166.75</ele><time>2026-05-01T08:13:00.999Z</time></trkpt><trkpt lat="44.70012302057054" lon="8.04328506863835"><ele>168.0</ele><time>2026-05-01T08:13:01.998Z</time></trkpt><trkpt lat="44.700032189258614" lon="8.043400518120952"><ele>168.75</ele><time>2026-05-01T08:13:02.998Z</time></trkpt><trkpt lat="44.6999030489518" lon="8.043403801709003"><ele>169.5</ele><time>2026-05-01T08:13:03.998Z</time></trkpt><trkpt lat="44.69978731086307" lon="8.043463162572126"><ele>170.25</ele><time>2026-05-01T08:13:04.998Z</time></trkpt><trkpt lat="44.69967735751626" lon="8.043450639506561"><ele>171.0</ele><time>2026-05-01T08:13:05.998Z</time></trkpt><trkpt lat="44.69957932104626" lon="8.043432984709934"><ele>171.0</ele><time>2026-05-01T08:13:06.998Z</time></trkpt><trkpt lat="44.69948309533404" lon="8.043423576212387"><ele>171.0</ele><time>2026-05-01T08:13:07.998Z</time></trkpt><trkpt lat="44.69938034802439" lon="8.04342204216825"><ele>171.0</ele><time>2026-05-01T08:13:08.998Z</time></trkpt><trkpt lat="44.699273591216404" lon="8.043433771783864"><ele>171.0</ele><time>2026-05-01T08:13:09.998Z</time></trkpt><trkpt lat="44.69916824561959" lon="8.043461736759738"><ele>171.0</ele><time>2026-05-01T08:13:10.998Z</time></trkpt><trkpt lat="44.6990620211581" lon="8.043503793900662"><ele>170.75</ele><time>2026-05-01T08:13:11.998Z</time></trkpt><trkpt lat="44.698959294936635" lon="8.04356087080648"><ele>170.5</ele><time>2026-05-01T08:13:12.998Z</time></trkpt><trkpt lat="44.698850589955704" lon="8.04362263125054"><ele>170.25</ele><time>2026-05-01T08:13:13.998Z</time></trkpt><trkpt lat="44.698741671178716" lon="8.043678514567894"><ele>170.0</ele><time>2026-05-01T08:13:14.998Z</time></trkpt><trkpt lat="44.69863111422328" lon="8.043724165749781"><ele>171.0</ele><time>2026-05-01T08:13:15.998Z</time></trkpt><trkpt lat="44.69851723096259" lon="8.043761142991059"><ele>172.0</ele><time>2026-05-01T08:13:16.998Z</time></trkpt><trkpt lat="44.69840025504954" lon="8.043788667594791"><ele>173.0</ele><time>2026-05-01T08:13:17.998Z</time></trkpt><trkpt lat="44.69826667506886" lon="8.04381890223949"><ele>174.0</ele><time>2026-05-01T08:13:18.998Z</time></trkpt><trkpt lat="44.698105327340706" lon="8.043809009578538"><ele>174.0</ele><time>2026-05-01T08:13:19.998Z</time></trkpt><trkpt lat="44.69793389218452" lon="8.043829749043642"><ele>174.0</ele><time>2026-05-01T08:13:20.998Z</time></trkpt><trkpt lat="44.697773096838986" lon="8.04384684875156"><ele>174.0</ele><time>2026-05-01T08:13:21.998Z</time></trkpt><trkpt lat="44.697635503130606" lon="8.043866758836115"><ele>175.0</ele><time>2026-05-01T08:13:22.998Z</time></trkpt><trkpt lat="44.69751298591216" lon="8.043778013769467"><ele>176.0</ele><time>2026-05-01T08:13:23.998Z</time></trkpt><trkpt lat="44.69737401351712" lon="8.043694699030741"><ele>177.0</ele><time>2026-05-01T08:13:24.998Z</time></trkpt><trkpt lat="44.69723387058915" lon="8.043610682543735"><ele>178.0</ele><time>2026-05-01T08:13:25.999Z</time></trkpt><trkpt lat="44.69708246501215" lon="8.043541920172407"><ele>178.0</ele><time>2026-05-01T08:13:26.999Z</time></trkpt><trkpt lat="44.696935724792795" lon="8.043446192318584"><ele>178.0</ele><time>2026-05-01T08:13:27.999Z</time></trkpt><trkpt lat="44.69678624888155" lon="8.0433445872771"><ele>178.0</ele><time>2026-05-01T08:13:28.999Z</time></trkpt><trkpt lat="44.69663711872589" lon="8.043251191885258"><ele>176.66666666666669</ele><time>2026-05-01T08:13:29.999Z</time></trkpt><trkpt lat="44.69648140099569" lon="8.043147813848389"><ele>175.33333333333334</ele><time>2026-05-01T08:13:30.999Z</time></trkpt><trkpt lat="44.69633683172726" lon="8.043055261120484"><ele>174.0</ele><time>2026-05-01T08:13:31.999Z</time></trkpt><trkpt lat="44.696172229684095" lon="8.042970289610924"><ele>177.66666666666666</ele><time>2026-05-01T08:13:32.999Z</time></trkpt><trkpt lat="44.69598115598252" lon="8.042915918894114"><ele>181.33333333333331</ele><time>2026-05-01T08:13:33.999Z</time></trkpt><trkpt lat="44.69579571509102" lon="8.04288449720512"><ele>185.0</ele><time>2026-05-01T08:13:34.999Z</time></trkpt><trkpt lat="44.695619440138806" lon="8.042855994613635"><ele>185.0</ele><time>2026-05-01T08:13:35.999Z</time></trkpt><trkpt lat="44.69544928268248" lon="8.042832040157393"><ele>185.0</ele><time>2026-05-01T08:13:36.999Z</time></trkpt><trkpt lat="44.69528232863247" lon="8.042810432459492"><ele>185.0</ele><time>2026-05-01T08:13:37.999Z</time></trkpt><trkpt lat="44.69512405368721" lon="8.042750825771048"><ele>188.33333333333331</ele><time>2026-05-01T08:13:38.999Z</time></trkpt><trkpt lat="44.69497184582968" lon="8.042693268270225"><ele>191.66666666666666</ele><time>2026-05-01T08:13:39.999Z</time></trkpt><trkpt lat="44.694817103040315" lon="8.042639475808413"><ele>195.0</ele><time>2026-05-01T08:13:40.999Z</time></trkpt><trkpt lat="44.694659858244606" lon="8.042560474275213"><ele>195.0</ele><time>2026-05-01T08:13:41.999Z</time></trkpt><trkpt lat="44.694502348464496" lon="8.042485303217981"><ele>195.0</ele><time>2026-05-01T08:13:42.999Z</time></trkpt><trkpt lat="44.69434063655153" lon="8.042406388721997"><ele>195.0</ele><time>2026-05-01T08:13:43.999Z</time></trkpt><trkpt lat="44.69418354487647" lon="8.042327366859302"><ele>193.0</ele><time>2026-05-01T08:13:44.999Z</time></trkpt><trkpt lat="44.69402723061049" lon="8.042253247774632"><ele>191.0</ele><time>2026-05-01T08:13:45.999Z</time></trkpt><trkpt lat="44.6938714606549" lon="8.042175559309353"><ele>189.0</ele><time>2026-05-01T08:13:46.999Z</time></trkpt><trkpt lat="44.69371897381511" lon="8.042106767322926"><ele>192.0</ele><time>2026-05-01T08:13:47.999Z</time></trkpt><trkpt lat="44.69356987565109" lon="8.042031214459067"><ele>195.0</ele><time>2026-05-01T08:13:48.999Z</time></trkpt><trkpt lat="44.693413763268026" lon="8.041971206472958"><ele>198.0</ele><time>2026-05-01T08:13:49.999Z</time></trkpt><trkpt lat="44.693254801693314" lon="8.041930580174471"><ele>198.0</ele><time>2026-05-01T08:13:50.999Z</time></trkpt><trkpt lat="44.693088417834154" lon="8.041885384798091"><ele>198.0</ele><time>2026-05-01T08:13:51.999Z</time></trkpt><trkpt lat="44.69292251929875" lon="8.041853060691018"><ele>198.0</ele><time>2026-05-01T08:13:52.999Z</time></trkpt><trkpt lat="44.692764239796176" lon="8.041824430328763"><ele>200.0</ele><time>2026-05-01T08:13:53.999Z</time></trkpt><trkpt lat="44.69260253472348" lon="8.041794812260632"><ele>202.0</ele><time>2026-05-01T08:13:54.999Z</time></trkpt><trkpt lat="44.69245694980804" lon="8.041774437888092"><ele>204.0</ele><time>2026-05-01T08:13:55.999Z</time></trkpt><trkpt lat="44.69231918363846" lon="8.041787937663097"><ele>206.0</ele><time>2026-05-01T08:13:56.999Z</time></trkpt><trkpt lat="44.69218253255948" lon="8.041847040647825"><ele>206.0</ele><time>2026-05-01T08:13:57.999Z</time></trkpt><trkpt lat="44.69206341618847" lon="8.041960701494968"><ele>206.0</ele><time>2026-05-01T08:13:58.999Z</time></trkpt><trkpt lat="44.691964061393406" lon="8.042109789402753"><ele>206.0</ele><time>2026-05-01T08:13:59.999Z</time></trkpt><trkpt lat="44.69189007976168" lon="8.04228167088669"><ele>206.0</ele><time>2026-05-01T08:14:00.999Z</time></trkpt><trkpt lat="44.69183855193522" lon="8.042479720387622"><ele>207.66666666666669</ele><time>2026-05-01T08:14:01.999Z</time></trkpt><trkpt lat="44.6918105353136" lon="8.04271332125661"><ele>209.33333333333331</ele><time>2026-05-01T08:14:02.999Z</time></trkpt><trkpt lat="44.69175447544618" lon="8.04294715650399"><ele>211.0</ele><time>2026-05-01T08:14:03.999Z</time></trkpt><trkpt lat="44.69169674044925" lon="8.043187248281248"><ele>214.33333333333331</ele><time>2026-05-01T08:14:04.999Z</time></trkpt><trkpt lat="44.69162674063966" lon="8.043441417348898"><ele>217.66666666666669</ele><time>2026-05-01T08:14:05.999Z</time></trkpt><trkpt lat="44.69155149169473" lon="8.043684124936203"><ele>221.0</ele><time>2026-05-01T08:14:06.999Z</time></trkpt><trkpt lat="44.69147217069384" lon="8.043917838007532"><ele>224.66666666666669</ele><time>2026-05-01T08:14:07.999Z</time></trkpt><trkpt lat="44.6913956300042" lon="8.044143705316301"><ele>228.33333333333331</ele><time>2026-05-01T08:14:08.999Z</time></trkpt><trkpt lat="44.691321685319615" lon="8.044358994230583"><ele>232.0</ele><time>2026-05-01T08:14:09.999Z</time></trkpt><trkpt lat="44.69125317041718" lon="8.044558474303148"><ele>232.0</ele><time>2026-05-01T08:14:10.999Z</time></trkpt><trkpt lat="44.691202454572185" lon="8.044752053679058"><ele>232.0</ele><time>2026-05-01T08:14:11.999Z</time></trkpt><trkpt lat="44.69112671489807" lon="8.044931381914035"><ele>232.0</ele><time>2026-05-01T08:14:12.999Z</time></trkpt><trkpt lat="44.69105671451815" lon="8.045114696957235"><ele>232.0</ele><time>2026-05-01T08:14:13.999Z</time></trkpt><trkpt lat="44.69097885232138" lon="8.045270680815525"><ele>230.5</ele><time>2026-05-01T08:14:14.999Z</time></trkpt><trkpt lat="44.69088218436535" lon="8.045377350278969"><ele>229.0</ele><time>2026-05-01T08:14:15.999Z</time></trkpt><trkpt lat="44.69074071162932" lon="8.04540260032007"><ele>227.5</ele><time>2026-05-01T08:14:16.999Z</time></trkpt><trkpt lat="44.690600164619966" lon="8.045392998206456"><ele>226.0</ele><time>2026-05-01T08:14:17.999Z</time></trkpt><trkpt lat="44.6904445670314" lon="8.045349441174919"><ele>226.0</ele><time>2026-05-01T08:14:18.999Z</time></trkpt><trkpt lat="44.690269417129805" lon="8.0452967747261"><ele>226.0</ele><time>2026-05-01T08:14:19.999Z</time></trkpt><trkpt lat="44.69007872902696" lon="8.04524093579184"><ele>226.0</ele><time>2026-05-01T08:14:20.999Z</time></trkpt><trkpt lat="44.68988973975834" lon="8.045186977515552"><ele>228.0</ele><time>2026-05-01T08:14:21.999Z</time></trkpt><trkpt lat="44.68971578456706" lon="8.045158852396606"><ele>230.0</ele><time>2026-05-01T08:14:22.999Z</time></trkpt><trkpt lat="44.68955579511904" lon="8.045122184173852"><ele>232.0</ele><time>2026-05-01T08:14:23.999Z</time></trkpt><trkpt lat="44.689413276823366" lon="8.045041997208912"><ele>234.5</ele><time>2026-05-01T08:14:24.999Z</time></trkpt><trkpt lat="44.68928655756831" lon="8.044958886622977"><ele>237.0</ele><time>2026-05-01T08:14:25.999Z</time></trkpt><trkpt lat="44.68920361011876" lon="8.0447918203395"><ele>239.5</ele><time>2026-05-01T08:14:26.999Z</time></trkpt><trkpt lat="44.68915226020565" lon="8.044592907197815"><ele>242.0</ele><time>2026-05-01T08:14:27.999Z</time></trkpt><trkpt lat="44.68912927710917" lon="8.044378955437663"><ele>242.0</ele><time>2026-05-01T08:14:28.999Z</time></trkpt><trkpt lat="44.68911691307317" lon="8.044174617649372"><ele>242.0</ele><time>2026-05-01T08:14:29.999Z</time></trkpt><trkpt lat="44.68909481778695" lon="8.043990561599996"><ele>242.0</ele><time>2026-05-01T08:14:30.999Z</time></trkpt><trkpt lat="44.68905588288179" lon="8.04382811625913"><ele>242.0</ele><time>2026-05-01T08:14:31.999Z</time></trkpt><trkpt lat="44.68898488544924" lon="8.04368448464332"><ele>242.0</ele><time>2026-05-01T08:14:32.999Z</time></trkpt><trkpt lat="44.688869409068" lon="8.043595966994028"><ele>242.0</ele><time>2026-05-01T08:14:33.999Z</time></trkpt><trkpt lat="44.68872289948018" lon="8.043556602602056"><ele>242.0</ele><time>2026-05-01T08:14:34.999Z</time></trkpt><trkpt lat="44.68857235816583" lon="8.043582029968963"><ele>242.0</ele><time>2026-05-01T08:14:35.999Z</time></trkpt><trkpt lat="44.68843690017772" lon="8.043683920131542"><ele>242.0</ele><time>2026-05-01T08:14:36.999Z</time></trkpt><trkpt lat="44.68832562812823" lon="8.043848011015944"><ele>242.0</ele><time>2026-05-01T08:14:37.999Z</time></trkpt><trkpt lat="44.68822116650431" lon="8.04403821514588"><ele>242.0</ele><time>2026-05-01T08:14:38.999Z</time></trkpt><trkpt lat="44.6881126414769" lon="8.044232130990958"><ele>245.66666666666669</ele><time>2026-05-01T08:14:39.999Z</time></trkpt><trkpt lat="44.68800162916218" lon="8.044426032103177"><ele>249.33333333333331</ele><time>2026-05-01T08:14:40.999Z</time></trkpt><trkpt lat="44.68790278348903" lon="8.044641986513968"><ele>253.0</ele><time>2026-05-01T08:14:41.999Z</time></trkpt><trkpt lat="44.6878166650637" lon="8.04488706786567"><ele>254.0</ele><time>2026-05-01T08:14:42.999Z</time></trkpt><trkpt lat="44.6877496980748" lon="8.045163150854984"><ele>255.0</ele><time>2026-05-01T08:14:43.999Z</time></trkpt><trkpt lat="44.68770215562985" lon="8.04547579968278"><ele>256.0</ele><time>2026-05-01T08:14:44.999Z</time></trkpt><trkpt lat="44.6876622859252" lon="8.0458072025176"><ele>256.0</ele><time>2026-05-01T08:14:45.999Z</time></trkpt><trkpt lat="44.68762655594543" lon="8.046123819539469"><ele>256.0</ele><time>2026-05-01T08:14:46.999Z</time></trkpt><trkpt lat="44.68758805250287" lon="8.04641790508215"><ele>256.0</ele><time>2026-05-01T08:14:47.999Z</time></trkpt><trkpt lat="44.687528736738614" lon="8.04666691954021"><ele>259.3333333333333</ele><time>2026-05-01T08:14:48.999Z</time></trkpt><trkpt lat="44.68745575800602" lon="8.046892797457991"><ele>262.6666666666667</ele><time>2026-05-01T08:14:49.999Z</time></trkpt><trkpt lat="44.687368444964584" lon="8.047109375508182"><ele>266.0</ele><time>2026-05-01T08:14:50.999Z</time></trkpt><trkpt lat="44.6872601665303" lon="8.047295907355416"><ele>266.0</ele><time>2026-05-01T08:14:51.999Z</time></trkpt><trkpt lat="44.68713044932342" lon="8.047446455217194"><ele>266.0</ele><time>2026-05-01T08:14:52.999Z</time></trkpt><trkpt lat="44.68700562887522" lon="8.04761156804166"><ele>266.0</ele><time>2026-05-01T08:14:53.999Z</time></trkpt><trkpt lat="44.686885983141536" lon="8.047769826080188"><ele>266.33333333333337</ele><time>2026-05-01T08:14:54.999Z</time></trkpt><trkpt lat="44.68677015684317" lon="8.047924326677812"><ele>266.6666666666667</ele><time>2026-05-01T08:14:55.999Z</time></trkpt><trkpt lat="44.6866647306058" lon="8.048083256684357"><ele>267.0</ele><time>2026-05-01T08:14:56.999Z</time></trkpt><trkpt lat="44.68656439327938" lon="8.048242824765873"><ele>269.25</ele><time>2026-05-01T08:14:57.999Z</time></trkpt><trkpt lat="44.68645986484826" lon="8.048383397259371"><ele>271.5</ele><time>2026-05-01T08:14:58.999Z</time></trkpt><trkpt lat="44.68633227482205" lon="8.048477999089672"><ele>273.75</ele><time>2026-05-01T08:14:59.999Z</time></trkpt><trkpt lat="44.68618696209488" lon="8.048498448431452"><ele>276.0</ele><time>2026-05-01T08:15:00.999Z</time></trkpt><trkpt lat="44.686034481500656" lon="8.048522126835424"><ele>276.0</ele><time>2026-05-01T08:15:01.999Z</time></trkpt><trkpt lat="44.685888800128616" lon="8.048594628569406"><ele>276.0</ele><time>2026-05-01T08:15:02.999Z</time></trkpt><trkpt lat="44.68574807223614" lon="8.04871839903825"><ele>276.0</ele><time>2026-05-01T08:15:03.999Z</time></trkpt><trkpt lat="44.68562389518604" lon="8.048887119296243"><ele>276.0</ele><time>2026-05-01T08:15:04.999Z</time></trkpt><trkpt lat="44.68552978807494" lon="8.049082791483286"><ele>276.0</ele><time>2026-05-01T08:15:05.999Z</time></trkpt><trkpt lat="44.685409508644426" lon="8.049225801484864"><ele>276.0</ele><time>2026-05-01T08:15:06.998Z</time></trkpt><trkpt lat="44.68529063233903" lon="8.049338003177724"><ele>278.75</ele><time>2026-05-01T08:15:07.998Z</time></trkpt><trkpt lat="44.685161789266196" lon="8.049382517181643"><ele>281.5</ele><time>2026-05-01T08:15:08.998Z</time></trkpt><trkpt lat="44.68502668460856" lon="8.04939517864994"><ele>284.25</ele><time>2026-05-01T08:15:09.998Z</time></trkpt><trkpt lat="44.684898768148585" lon="8.049355378760248"><ele>287.0</ele><time>2026-05-01T08:15:10.999Z</time></trkpt><trkpt lat="44.68476738047648" lon="8.049284962446869"><ele>287.0</ele><time>2026-05-01T08:15:11.999Z</time></trkpt><trkpt lat="44.684629827338526" lon="8.049193890012786"><ele>287.0</ele><time>2026-05-01T08:15:12.999Z</time></trkpt><trkpt lat="44.684471754053384" lon="8.049092994125713"><ele>287.0</ele><time>2026-05-01T08:15:13.999Z</time></trkpt><trkpt lat="44.684305941424824" lon="8.048970939015215"><ele>286.0</ele><time>2026-05-01T08:15:14.999Z</time></trkpt><trkpt lat="44.6841472754276" lon="8.04885072895479"><ele>285.0</ele><time>2026-05-01T08:15:15.999Z</time></trkpt><trkpt lat="44.683992687547786" lon="8.048729335463051"><ele>284.0</ele><time>2026-05-01T08:15:16.999Z</time></trkpt><trkpt lat="44.6838413700248" lon="8.0486149719209"><ele>284.0</ele><time>2026-05-01T08:15:17.999Z</time></trkpt><trkpt lat="44.683704795252176" lon="8.048514359310785"><ele>284.0</ele><time>2026-05-01T08:15:18.999Z</time></trkpt><trkpt lat="44.68358001539193" lon="8.048426065393304"><ele>284.0</ele><time>2026-05-01T08:15:19.999Z</time></trkpt><trkpt lat="44.68345790316317" lon="8.04837556836762"><ele>284.0</ele><time>2026-05-01T08:15:20.999Z</time></trkpt><trkpt lat="44.68332829774108" lon="8.048386833570284"><ele>289.0</ele><time>2026-05-01T08:15:21.999Z</time></trkpt><trkpt lat="44.683197843652884" lon="8.04845481662785"><ele>294.0</ele><time>2026-05-01T08:15:22.999Z</time></trkpt><trkpt lat="44.68307567837912" lon="8.04857946832072"><ele>299.0</ele><time>2026-05-01T08:15:23.999Z</time></trkpt><trkpt lat="44.68296488115894" lon="8.04875769061995"><ele>299.0</ele><time>2026-05-01T08:15:24.999Z</time></trkpt><trkpt lat="44.68283264092751" lon="8.04893308271011"><ele>299.0</ele><time>2026-05-01T08:15:25.999Z</time></trkpt><trkpt lat="44.68271028531232" lon="8.049110883192833"><ele>299.0</ele><time>2026-05-01T08:15:26.999Z</time></trkpt><trkpt lat="44.682588900139166" lon="8.049268301401781"><ele>300.75</ele><time>2026-05-01T08:15:27.999Z</time></trkpt><trkpt lat="44.682462603555166" lon="8.04938365597989"><ele>302.5</ele><time>2026-05-01T08:15:28.999Z</time></trkpt><trkpt lat="44.68232941584432" lon="8.049476824581069"><ele>304.25</ele><time>2026-05-01T08:15:29.999Z</time></trkpt><trkpt lat="44.68219404780642" lon="8.04955266545999"><ele>306.0</ele><time>2026-05-01T08:15:30.999Z</time></trkpt><trkpt lat="44.68207999017448" lon="8.049648984541175"><ele>306.0</ele><time>2026-05-01T08:15:32Z</time></trkpt><trkpt lat="44.681992736121074" lon="8.049763325151675"><ele>306.0</ele><time>2026-05-01T08:15:33Z</time></trkpt><trkpt lat="44.68195008234998" lon="8.049936793099073"><ele>306.0</ele><time>2026-05-01T08:15:34Z</time></trkpt><trkpt lat="44.68196485350577" lon="8.050168837949368"><ele>306.0</ele><time>2026-05-01T08:15:35Z</time></trkpt><trkpt lat="44.68201861636161" lon="8.050429803721931"><ele>311.6666666666667</ele><time>2026-05-01T08:15:36Z</time></trkpt><trkpt lat="44.68205900386627" lon="8.050687550705627"><ele>317.33333333333337</ele><time>2026-05-01T08:15:37Z</time></trkpt><trkpt lat="44.682061357118364" lon="8.0509427648493"><ele>323.0</ele><time>2026-05-01T08:15:38Z</time></trkpt><trkpt lat="44.68206048948126" lon="8.051199080995563"><ele>320.33333333333337</ele><time>2026-05-01T08:15:39Z</time></trkpt><trkpt lat="44.682033245580136" lon="8.051446421676895"><ele>317.6666666666667</ele><time>2026-05-01T08:15:40Z</time></trkpt><trkpt lat="44.68198941842034" lon="8.051693637301394"><ele>315.0</ele><time>2026-05-01T08:15:41Z</time></trkpt><trkpt lat="44.681925126837214" lon="8.051932309133017"><ele>315.0</ele><time>2026-05-01T08:15:42Z</time></trkpt><trkpt lat="44.68185379075815" lon="8.052148183055563"><ele>315.0</ele><time>2026-05-01T08:15:43Z</time></trkpt><trkpt lat="44.68178777489333" lon="8.052343606982607"><ele>315.0</ele><time>2026-05-01T08:15:44Z</time></trkpt><trkpt lat="44.6817261865932" lon="8.052522944309958"><ele>318.5</ele><time>2026-05-01T08:15:45Z</time></trkpt><trkpt lat="44.68165622307159" lon="8.052682992825085"><ele>322.0</ele><time>2026-05-01T08:15:46Z</time></trkpt><trkpt lat="44.681557853136844" lon="8.052819055552392"><ele>325.5</ele><time>2026-05-01T08:15:47Z</time></trkpt><trkpt lat="44.68140898395092" lon="8.052903822771187"><ele>329.0</ele><time>2026-05-01T08:15:48Z</time></trkpt><trkpt lat="44.68121625513997" lon="8.052955993334153"><ele>327.33333333333337</ele><time>2026-05-01T08:15:49Z</time></trkpt><trkpt lat="44.6810054786791" lon="8.053053049092743"><ele>325.6666666666667</ele><time>2026-05-01T08:15:50Z</time></trkpt><trkpt lat="44.68078111834366" lon="8.05309022183357"><ele>324.0</ele><time>2026-05-01T08:15:51Z</time></trkpt><trkpt lat="44.68055306074902" lon="8.053140322649263"><ele>324.0</ele><time>2026-05-01T08:15:52Z</time></trkpt><trkpt lat="44.6803232624373" lon="8.053198746722368"><ele>324.0</ele><time>2026-05-01T08:15:53Z</time></trkpt><trkpt lat="44.680092986732376" lon="8.053230836708906"><ele>322.6666666666667</ele><time>2026-05-01T08:15:54Z</time></trkpt><trkpt lat="44.67987398662404" lon="8.053281311100234"><ele>321.33333333333337</ele><time>2026-05-01T08:15:55Z</time></trkpt><trkpt lat="44.67965884471208" lon="8.053331501479418"><ele>320.0</ele><time>2026-05-01T08:15:56Z</time></trkpt><trkpt lat="44.679452517710985" lon="8.053382709758957"><ele>326.33333333333337</ele><time>2026-05-01T08:15:57Z</time></trkpt><trkpt lat="44.67924992754386" lon="8.053451149265197"><ele>332.6666666666667</ele><time>2026-05-01T08:15:58Z</time></trkpt><trkpt lat="44.67904541244283" lon="8.053500985944572"><ele>339.0</ele><time>2026-05-01T08:15:59Z</time></trkpt><trkpt lat="44.678838410739594" lon="8.053561355716374"><ele>339.0</ele><time>2026-05-01T08:16:00Z</time></trkpt><trkpt lat="44.678624471362035" lon="8.053636069654416"><ele>339.0</ele><time>2026-05-01T08:16:01Z</time></trkpt><trkpt lat="44.678409386234584" lon="8.053724996243949"><ele>339.0</ele><time>2026-05-01T08:16:02Z</time></trkpt><trkpt lat="44.67819158173208" lon="8.05380127740107"><ele>338.3333333333333</ele><time>2026-05-01T08:16:03Z</time></trkpt><trkpt lat="44.67798323608481" lon="8.053898970282956"><ele>337.66666666666663</ele><time>2026-05-01T08:16:04Z</time></trkpt><trkpt lat="44.67778109726518" lon="8.053988609181221"><ele>337.0</ele><time>2026-05-01T08:16:05Z</time></trkpt><trkpt lat="44.67757979090977" lon="8.054062224605252"><ele>335.66666666666663</ele><time>2026-05-01T08:16:06Z</time></trkpt><trkpt lat="44.67737588202469" lon="8.054116586276272"><ele>334.3333333333333</ele><time>2026-05-01T08:16:07Z</time></trkpt><trkpt lat="44.67715888500087" lon="8.05415036033443"><ele>333.0</ele><time>2026-05-01T08:16:08Z</time></trkpt><trkpt lat="44.67693647461438" lon="8.05415696776117"><ele>340.3333333333333</ele><time>2026-05-01T08:16:09Z</time></trkpt><trkpt lat="44.67671223782416" lon="8.054152336203165"><ele>347.66666666666663</ele><time>2026-05-01T08:16:10Z</time></trkpt><trkpt lat="44.67649014031998" lon="8.05414087518502"><ele>355.0</ele><time>2026-05-01T08:16:11Z</time></trkpt><trkpt lat="44.676274757985205" lon="8.054127544875248"><ele>352.66666666666663</ele><time>2026-05-01T08:16:12Z</time></trkpt><trkpt lat="44.67607102701929" lon="8.054114735039178"><ele>350.3333333333333</ele><time>2026-05-01T08:16:13Z</time></trkpt><trkpt lat="44.675882036140635" lon="8.054102852003565"><ele>348.0</ele><time>2026-05-01T08:16:14Z</time></trkpt><trkpt lat="44.675710201662376" lon="8.054099281432217"><ele>350.3333333333333</ele><time>2026-05-01T08:16:15Z</time></trkpt><trkpt lat="44.67553855132559" lon="8.05413008716552"><ele>352.66666666666663</ele><time>2026-05-01T08:16:16Z</time></trkpt><trkpt lat="44.67536991264608" lon="8.054163801856586"><ele>355.0</ele><time>2026-05-01T08:16:17Z</time></trkpt><trkpt lat="44.675199397905445" lon="8.054244049205474"><ele>355.0</ele><time>2026-05-01T08:16:18Z</time></trkpt><trkpt lat="44.67502902712141" lon="8.054379252323299"><ele>355.0</ele><time>2026-05-01T08:16:19Z</time></trkpt><trkpt lat="44.67487557276192" lon="8.054555830802565"><ele>355.0</ele><time>2026-05-01T08:16:20Z</time></trkpt><trkpt lat="44.67473050128868" lon="8.054773974173647"><ele>354.0</ele><time>2026-05-01T08:16:21Z</time></trkpt><trkpt lat="44.674592971891954" lon="8.055004743068638"><ele>353.0</ele><time>2026-05-01T08:16:22Z</time></trkpt><trkpt lat="44.67443663247703" lon="8.055188562697339"><ele>352.0</ele><time>2026-05-01T08:16:23Z</time></trkpt><trkpt lat="44.674269354429775" lon="8.05533673363559"><ele>352.0</ele><time>2026-05-01T08:16:24Z</time></trkpt><trkpt lat="44.67409336198059" lon="8.05546523856908"><ele>352.0</ele><time>2026-05-01T08:16:25Z</time></trkpt><trkpt lat="44.67391303699378" lon="8.055596995250424"><ele>352.0</ele><time>2026-05-01T08:16:26Z</time></trkpt><trkpt lat="44.673723420488976" lon="8.055670469987632"><ele>349.3333333333333</ele><time>2026-05-01T08:16:27Z</time></trkpt><trkpt lat="44.67354554054008" lon="8.055722270081523"><ele>346.6666666666667</ele><time>2026-05-01T08:16:28Z</time></trkpt><trkpt lat="44.67337196583357" lon="8.055766497993046"><ele>344.0</ele><time>2026-05-01T08:16:29Z</time></trkpt><trkpt lat="44.67320367934102" lon="8.055818716924724"><ele>346.33333333333337</ele><time>2026-05-01T08:16:30Z</time></trkpt><trkpt lat="44.67304031065285" lon="8.055865394603195"><ele>348.6666666666667</ele><time>2026-05-01T08:16:31Z</time></trkpt><trkpt lat="44.67290176790643" lon="8.055986385709424"><ele>351.0</ele><time>2026-05-01T08:16:32Z</time></trkpt><trkpt lat="44.67276924206324" lon="8.056120881731864"><ele>351.0</ele><time>2026-05-01T08:16:33Z</time></trkpt><trkpt lat="44.6726562316107" lon="8.056294627880444"><ele>351.0</ele><time>2026-05-01T08:16:34Z</time></trkpt><trkpt lat="44.67255523984881" lon="8.056495052388545"><ele>351.0</ele><time>2026-05-01T08:16:35Z</time></trkpt><trkpt lat="44.6724679750857" lon="8.056706189621275"><ele>354.3333333333333</ele><time>2026-05-01T08:16:36Z</time></trkpt><trkpt lat="44.6723674499623" lon="8.056906319483364"><ele>357.66666666666663</ele><time>2026-05-01T08:16:37Z</time></trkpt><trkpt lat="44.6722770401094" lon="8.057110113683132"><ele>361.0</ele><time>2026-05-01T08:16:38Z</time></trkpt><trkpt lat="44.672184087041224" lon="8.057323390994469"><ele>361.0</ele><time>2026-05-01T08:16:39Z</time></trkpt><trkpt lat="44.67204011451998" lon="8.057484090844788"><ele>361.0</ele><time>2026-05-01T08:16:40Z</time></trkpt><trkpt lat="44.67188860457062" lon="8.05764174108639"><ele>361.0</ele><time>2026-05-01T08:16:41Z</time></trkpt><trkpt lat="44.67171432087288" lon="8.057747342583756"><ele>361.0</ele><time>2026-05-01T08:16:42Z</time></trkpt><trkpt lat="44.67152660283887" lon="8.057801686655422"><ele>361.0</ele><time>2026-05-01T08:16:43Z</time></trkpt><trkpt lat="44.67133660433711" lon="8.057892276286333"><ele>361.0</ele><time>2026-05-01T08:16:44Z</time></trkpt><trkpt lat="44.671146208702396" lon="8.05794788173768"><ele>361.0</ele><time>2026-05-01T08:16:45Z</time></trkpt><trkpt lat="44.67095815235161" lon="8.057996188582432"><ele>361.0</ele><time>2026-05-01T08:16:46Z</time></trkpt><trkpt lat="44.67077871493532" lon="8.05808068571222"><ele>361.0</ele><time>2026-05-01T08:16:47Z</time></trkpt><trkpt lat="44.67059756628445" lon="8.058136309895358"><ele>361.0</ele><time>2026-05-01T08:16:48Z</time></trkpt><trkpt lat="44.67041831773895" lon="8.058196011449237"><ele>361.0</ele><time>2026-05-01T08:16:49Z</time></trkpt><trkpt lat="44.670243074196975" lon="8.058258743876422"><ele>361.0</ele><time>2026-05-01T08:16:50Z</time></trkpt><trkpt lat="44.67007120474238" lon="8.058322484133686"><ele>364.3333333333333</ele><time>2026-05-01T08:16:51Z</time></trkpt><trkpt lat="44.66990071299054" lon="8.058384183868787"><ele>367.6666666666667</ele><time>2026-05-01T08:16:52Z</time></trkpt><trkpt lat="44.66974071279553" lon="8.05843304043065"><ele>371.0</ele><time>2026-05-01T08:16:53Z</time></trkpt><trkpt lat="44.66958549838785" lon="8.05846544048225"><ele>372.0</ele><time>2026-05-01T08:16:54Z</time></trkpt><trkpt lat="44.66942183166135" lon="8.058430797402016"><ele>373.0</ele><time>2026-05-01T08:16:55Z</time></trkpt><trkpt lat="44.669253053101976" lon="8.05837438327813"><ele>374.0</ele><time>2026-05-01T08:16:56Z</time></trkpt><trkpt lat="44.66908996816245" lon="8.05829383139821"><ele>373.0</ele><time>2026-05-01T08:16:57Z</time></trkpt><trkpt lat="44.66892301829171" lon="8.058249541127703"><ele>372.0</ele><time>2026-05-01T08:16:58Z</time></trkpt><trkpt lat="44.66875255743062" lon="8.058244508472454"><ele>371.0</ele><time>2026-05-01T08:16:59Z</time></trkpt><trkpt lat="44.6685722515344" lon="8.058299986727667"><ele>373.33333333333337</ele><time>2026-05-01T08:17:00Z</time></trkpt><trkpt lat="44.66838660921366" lon="8.058404500556556"><ele>375.6666666666667</ele><time>2026-05-01T08:17:01Z</time></trkpt><trkpt lat="44.66821034567141" lon="8.058535661612215"><ele>378.0</ele><time>2026-05-01T08:17:02Z</time></trkpt><trkpt lat="44.66804915627877" lon="8.058685679025965"><ele>378.0</ele><time>2026-05-01T08:17:03Z</time></trkpt><trkpt lat="44.66788787715257" lon="8.058799299352758"><ele>378.0</ele><time>2026-05-01T08:17:04Z</time></trkpt><trkpt lat="44.667743053493446" lon="8.058921544245495"><ele>378.0</ele><time>2026-05-01T08:17:05Z</time></trkpt><trkpt lat="44.667596541770884" lon="8.059045809715201"><ele>379.3333333333333</ele><time>2026-05-01T08:17:06Z</time></trkpt><trkpt lat="44.66745286780447" lon="8.05917094509979"><ele>380.66666666666663</ele><time>2026-05-01T08:17:07Z</time></trkpt><trkpt lat="44.667309188858916" lon="8.059296084861721"><ele>382.0</ele><time>2026-05-01T08:17:08Z</time></trkpt><trkpt lat="44.66717804829686" lon="8.059437142828264"><ele>382.0</ele><time>2026-05-01T08:17:09Z</time></trkpt><trkpt lat="44.667044384689554" lon="8.059559125819092"><ele>382.0</ele><time>2026-05-01T08:17:10Z</time></trkpt><trkpt lat="44.666928595668296" lon="8.05971140078893"><ele>382.0</ele><time>2026-05-01T08:17:11Z</time></trkpt><trkpt lat="44.666833608791286" lon="8.059899845578798"><ele>381.66666666666663</ele><time>2026-05-01T08:17:11.999Z</time></trkpt><trkpt lat="44.66674552833415" lon="8.060130528383572"><ele>381.3333333333333</ele><time>2026-05-01T08:17:12.999Z</time></trkpt><trkpt lat="44.66668636429687" lon="8.060366176227557"><ele>381.0</ele><time>2026-05-01T08:17:13.999Z</time></trkpt><trkpt lat="44.66662566581574" lon="8.060605622351309"><ele>381.6666666666667</ele><time>2026-05-01T08:17:14.999Z</time></trkpt><trkpt lat="44.66655473161373" lon="8.060833037455275"><ele>382.33333333333337</ele><time>2026-05-01T08:17:15.999Z</time></trkpt><trkpt lat="44.666477026177425" lon="8.061052571455017"><ele>383.0</ele><time>2026-05-01T08:17:16.999Z</time></trkpt><trkpt lat="44.666415341557865" lon="8.061267074689999"><ele>383.0</ele><time>2026-05-01T08:17:17.999Z</time></trkpt><trkpt lat="44.66634559052142" lon="8.061450151638336"><ele>383.0</ele><time>2026-05-01T08:17:18.999Z</time></trkpt><trkpt lat="44.66629755365078" lon="8.061644525361588"><ele>383.0</ele><time>2026-05-01T08:17:19.999Z</time></trkpt><trkpt lat="44.66628323919127" lon="8.06185568771327"><ele>383.0</ele><time>2026-05-01T08:17:20.999Z</time></trkpt><trkpt lat="44.66627695345105" lon="8.062061794444606"><ele>385.33333333333337</ele><time>2026-05-01T08:17:21.999Z</time></trkpt><trkpt lat="44.66626469146912" lon="8.062253550597134"><ele>387.6666666666667</ele><time>2026-05-01T08:17:22.999Z</time></trkpt><trkpt lat="44.66624664975316" lon="8.062545123100836"><ele>390.0</ele><time>2026-05-01T08:17:23.999Z</time></trkpt><trkpt lat="44.66622900552875" lon="8.06276687805803"><ele>392.66666666666663</ele><time>2026-05-01T08:17:24.999Z</time></trkpt><trkpt lat="44.66612801679325" lon="8.0629622473575"><ele>395.3333333333333</ele><time>2026-05-01T08:17:25.999Z</time></trkpt><trkpt lat="44.66601951471094" lon="8.063128643951066"><ele>398.0</ele><time>2026-05-01T08:17:26.999Z</time></trkpt><trkpt lat="44.66588331579334" lon="8.06326511465232"><ele>397.66666666666663</ele><time>2026-05-01T08:17:27.999Z</time></trkpt><trkpt lat="44.66572930646078" lon="8.063353865891456"><ele>397.33333333333337</ele><time>2026-05-01T08:17:28.999Z</time></trkpt><trkpt lat="44.66555159590586" lon="8.06338120558206"><ele>397.0</ele><time>2026-05-01T08:17:29.999Z</time></trkpt><trkpt lat="44.66535369911843" lon="8.063421967267496"><ele>394.0</ele><time>2026-05-01T08:17:30.999Z</time></trkpt><trkpt lat="44.6651682939352" lon="8.063511485924181"><ele>391.0</ele><time>2026-05-01T08:17:31.999Z</time></trkpt><trkpt lat="44.66498209578565" lon="8.063580187345572"><ele>388.0</ele><time>2026-05-01T08:17:32.999Z</time></trkpt><trkpt lat="44.66480797314836" lon="8.06370380745307"><ele>388.0</ele><time>2026-05-01T08:17:33.999Z</time></trkpt><trkpt lat="44.6646320846464" lon="8.063811796158578"><ele>388.0</ele><time>2026-05-01T08:17:34.999Z</time></trkpt><trkpt lat="44.664470442486206" lon="8.06395270362197"><ele>388.0</ele><time>2026-05-01T08:17:35.999Z</time></trkpt><trkpt lat="44.66431978645062" lon="8.064138361415653"><ele>391.0</ele><time>2026-05-01T08:17:36.999Z</time></trkpt><trkpt lat="44.664178275879735" lon="8.064351706835502"><ele>394.0</ele><time>2026-05-01T08:17:38Z</time></trkpt><trkpt lat="44.66404244768222" lon="8.064568940993858"><ele>397.0</ele><time>2026-05-01T08:17:39Z</time></trkpt><trkpt lat="44.663911548472605" lon="8.064767004281093"><ele>396.0</ele><time>2026-05-01T08:17:40Z</time></trkpt><trkpt lat="44.663794422880066" lon="8.06494983427097"><ele>395.0</ele><time>2026-05-01T08:17:41Z</time></trkpt><trkpt lat="44.66366813354681" lon="8.065106419881024"><ele>394.0</ele><time>2026-05-01T08:17:42Z</time></trkpt><trkpt lat="44.66355206971105" lon="8.065254471921671"><ele>394.0</ele><time>2026-05-01T08:17:43Z</time></trkpt><trkpt lat="44.663438037838205" lon="8.065366903361783"><ele>394.0</ele><time>2026-05-01T08:17:44Z</time></trkpt><trkpt lat="44.66331147169639" lon="8.065467610535428"><ele>394.0</ele><time>2026-05-01T08:17:45Z</time></trkpt><trkpt lat="44.66315198717498" lon="8.065566776342445"><ele>394.0</ele><time>2026-05-01T08:17:46Z</time></trkpt><trkpt lat="44.66296958543126" lon="8.065673796338066"><ele>394.0</ele><time>2026-05-01T08:17:47Z</time></trkpt><trkpt lat="44.6627816224314" lon="8.065784079305223"><ele>394.0</ele><time>2026-05-01T08:17:48Z</time></trkpt><trkpt lat="44.66258837021826" lon="8.065897465663523"><ele>398.6666666666667</ele><time>2026-05-01T08:17:49Z</time></trkpt><trkpt lat="44.662412612258535" lon="8.066025877615687"><ele>403.33333333333337</ele><time>2026-05-01T08:17:50Z</time></trkpt><trkpt lat="44.6622489415639" lon="8.066130068332148"><ele>408.0</ele><time>2026-05-01T08:17:51Z</time></trkpt><trkpt lat="44.66208776324474" lon="8.066198271965654"><ele>408.33333333333337</ele><time>2026-05-01T08:17:52Z</time></trkpt><trkpt lat="44.66192914318782" lon="8.06627170901206"><ele>408.6666666666667</ele><time>2026-05-01T08:17:53Z</time></trkpt><trkpt lat="44.6617555964365" lon="8.066307186117895"><ele>409.0</ele><time>2026-05-01T08:17:54Z</time></trkpt><trkpt lat="44.661571431539365" lon="8.066310396008328"><ele>409.0</ele><time>2026-05-01T08:17:55Z</time></trkpt><trkpt lat="44.66138953765241" lon="8.06625005198487"><ele>409.0</ele><time>2026-05-01T08:17:56Z</time></trkpt><trkpt lat="44.66119538694046" lon="8.06616364898042"><ele>409.0</ele><time>2026-05-01T08:17:57Z</time></trkpt><trkpt lat="44.66099814408797" lon="8.066092925134928"><ele>411.0</ele><time>2026-05-01T08:17:58Z</time></trkpt><trkpt lat="44.66081918887716" lon="8.065995731473786"><ele>413.0</ele><time>2026-05-01T08:17:59Z</time></trkpt><trkpt lat="44.66064800006732" lon="8.065927148215716"><ele>415.0</ele><time>2026-05-01T08:18:00Z</time></trkpt><trkpt lat="44.660484389416716" lon="8.065886094168722"><ele>414.6666666666667</ele><time>2026-05-01T08:18:01Z</time></trkpt><trkpt lat="44.66028201007275" lon="8.065936520964378"><ele>414.33333333333337</ele><time>2026-05-01T08:18:02Z</time></trkpt><trkpt lat="44.66008808443763" lon="8.066002110567917"><ele>414.0</ele><time>2026-05-01T08:18:03Z</time></trkpt><trkpt lat="44.65990287482608" lon="8.066101371782707"><ele>414.0</ele><time>2026-05-01T08:18:04Z</time></trkpt><trkpt lat="44.65972785155754" lon="8.066226855256726"><ele>414.0</ele><time>2026-05-01T08:18:05Z</time></trkpt><trkpt lat="44.65956863563452" lon="8.066383136480109"><ele>414.0</ele><time>2026-05-01T08:18:06Z</time></trkpt><trkpt lat="44.65941824968496" lon="8.066576360509755"><ele>414.33333333333337</ele><time>2026-05-01T08:18:07Z</time></trkpt><trkpt lat="44.65928019323155" lon="8.066789686423123"><ele>414.6666666666667</ele><time>2026-05-01T08:18:08Z</time></trkpt><trkpt lat="44.659144791420665" lon="8.067004448300166"><ele>415.0</ele><time>2026-05-01T08:18:09Z</time></trkpt><trkpt lat="44.65898569076669" lon="8.067177172283332"><ele>415.0</ele><time>2026-05-01T08:18:10Z</time></trkpt><trkpt lat="44.65882522333361" lon="8.067322126041487"><ele>415.0</ele><time>2026-05-01T08:18:11Z</time></trkpt><trkpt lat="44.65865326748612" lon="8.067403808284746"><ele>415.0</ele><time>2026-05-01T08:18:12Z</time></trkpt><trkpt lat="44.65848114399934" lon="8.06744211244549"><ele>417.33333333333337</ele><time>2026-05-01T08:18:13Z</time></trkpt><trkpt lat="44.658302506697865" lon="8.067460883890524"><ele>419.66666666666663</ele><time>2026-05-01T08:18:14Z</time></trkpt><trkpt lat="44.658135550969035" lon="8.067491797526998"><ele>422.0</ele><time>2026-05-01T08:18:15Z</time></trkpt><trkpt lat="44.657977586990704" lon="8.067502282749198"><ele>422.0</ele><time>2026-05-01T08:18:16Z</time></trkpt><trkpt lat="44.65784172740058" lon="8.067509692365253"><ele>422.0</ele><time>2026-05-01T08:18:17Z</time></trkpt><trkpt lat="44.65772148886148" lon="8.067541777176979"><ele>422.0</ele><time>2026-05-01T08:18:18Z</time></trkpt><trkpt lat="44.657624458345886" lon="8.067611156262384"><ele>422.0</ele><time>2026-05-01T08:18:19Z</time></trkpt><trkpt lat="44.65755523792491" lon="8.067733290639932"><ele>421.25</ele><time>2026-05-01T08:18:20Z</time></trkpt><trkpt lat="44.65753481291929" lon="8.067912036179182"><ele>420.5</ele><time>2026-05-01T08:18:21Z</time></trkpt><trkpt lat="44.65755756371654" lon="8.068098711356308"><ele>419.75</ele><time>2026-05-01T08:18:22Z</time></trkpt><trkpt lat="44.657609896057096" lon="8.068297449952814"><ele>419.0</ele><time>2026-05-01T08:18:23Z</time></trkpt><trkpt lat="44.657666734433874" lon="8.068506582259534"><ele>419.0</ele><time>2026-05-01T08:18:24Z</time></trkpt><trkpt lat="44.65769055147723" lon="8.068723071827822"><ele>419.0</ele><time>2026-05-01T08:18:25Z</time></trkpt><trkpt lat="44.65768993021269" lon="8.068910820786916"><ele>419.0</ele><time>2026-05-01T08:18:26Z</time></trkpt><trkpt lat="44.65765303909253" lon="8.069088334831491"><ele>419.0</ele><time>2026-05-01T08:18:27Z</time></trkpt><trkpt lat="44.657567143565686" lon="8.069226509915344"><ele>419.75</ele><time>2026-05-01T08:18:28Z</time></trkpt><trkpt lat="44.657472686523114" lon="8.069367052799285"><ele>420.5</ele><time>2026-05-01T08:18:29Z</time></trkpt><trkpt lat="44.65739986947735" lon="8.06951450618573"><ele>421.25</ele><time>2026-05-01T08:18:30Z</time></trkpt><trkpt lat="44.65732640923754" lon="8.069642278854698"><ele>422.0</ele><time>2026-05-01T08:18:31Z</time></trkpt><trkpt lat="44.65728637660953" lon="8.069806134055064"><ele>421.75</ele><time>2026-05-01T08:18:32Z</time></trkpt><trkpt lat="44.657298599774435" lon="8.06999475855006"><ele>421.5</ele><time>2026-05-01T08:18:33Z</time></trkpt><trkpt lat="44.657368520631614" lon="8.07016799822417"><ele>421.25</ele><time>2026-05-01T08:18:34Z</time></trkpt><trkpt lat="44.657476683313" lon="8.070292956733509"><ele>421.0</ele><time>2026-05-01T08:18:35Z</time></trkpt><trkpt lat="44.65762682687413" lon="8.070335377570803"><ele>425.0</ele><time>2026-05-01T08:18:36Z</time></trkpt><trkpt lat="44.657791058607955" lon="8.070334872248315"><ele>429.0</ele><time>2026-05-01T08:18:37Z</time></trkpt><trkpt lat="44.65793953123232" lon="8.070346479155305"><ele>433.0</ele><time>2026-05-01T08:18:38Z</time></trkpt><trkpt lat="44.6580707696739" lon="8.070376979417787"><ele>437.0</ele><time>2026-05-01T08:18:39Z</time></trkpt><trkpt lat="44.658190644082346" lon="8.07046444217661"><ele>437.0</ele><time>2026-05-01T08:18:40Z</time></trkpt><trkpt lat="44.658260171810696" lon="8.070646399562913"><ele>437.0</ele><time>2026-05-01T08:18:41Z</time></trkpt><trkpt lat="44.65830274364779" lon="8.070853424839664"><ele>437.0</ele><time>2026-05-01T08:18:42Z</time></trkpt><trkpt lat="44.6583132532145" lon="8.071075484378802"><ele>435.0</ele><time>2026-05-01T08:18:43Z</time></trkpt><trkpt lat="44.65829088718643" lon="8.071288177602685"><ele>433.0</ele><time>2026-05-01T08:18:44Z</time></trkpt><trkpt lat="44.65826657162186" lon="8.071499163435707"><ele>431.0</ele><time>2026-05-01T08:18:45Z</time></trkpt><trkpt lat="44.6582166466749" lon="8.071682059666205"><ele>429.0</ele><time>2026-05-01T08:18:46Z</time></trkpt><trkpt lat="44.65817820153149" lon="8.071853245467905"><ele>429.0</ele><time>2026-05-01T08:18:47Z</time></trkpt><trkpt lat="44.65814876264904" lon="8.072017875324162"><ele>429.0</ele><time>2026-05-01T08:18:48Z</time></trkpt><trkpt lat="44.65816036528539" lon="8.072167399174702"><ele>429.0</ele><time>2026-05-01T08:18:49Z</time></trkpt><trkpt lat="44.65821953775799" lon="8.072297584678505"><ele>429.0</ele><time>2026-05-01T08:18:50Z</time></trkpt><trkpt lat="44.6583414067151" lon="8.072380219731523"><ele>431.0</ele><time>2026-05-01T08:18:51Z</time></trkpt><trkpt lat="44.65849172539548" lon="8.072455513450983"><ele>433.0</ele><time>2026-05-01T08:18:52Z</time></trkpt><trkpt lat="44.65864883592397" lon="8.07255378804781"><ele>435.0</ele><time>2026-05-01T08:18:53Z</time></trkpt><trkpt lat="44.65878109412331" lon="8.07270922103257"><ele>435.0</ele><time>2026-05-01T08:18:54Z</time></trkpt><trkpt lat="44.65889692974432" lon="8.072875955679887"><ele>435.0</ele><time>2026-05-01T08:18:55Z</time></trkpt><trkpt lat="44.65898630475309" lon="8.073054311620007"><ele>435.0</ele><time>2026-05-01T08:18:56Z</time></trkpt><trkpt lat="44.65904488935539" lon="8.073249412191121"><ele>432.25</ele><time>2026-05-01T08:18:57Z</time></trkpt><trkpt lat="44.65906653999355" lon="8.073458306252828"><ele>429.5</ele><time>2026-05-01T08:18:58Z</time></trkpt><trkpt lat="44.65905710872305" lon="8.07366329813341"><ele>426.75</ele><time>2026-05-01T08:18:59Z</time></trkpt><trkpt lat="44.65900752957997" lon="8.073842534838352"><ele>424.0</ele><time>2026-05-01T08:19:00Z</time></trkpt><trkpt lat="44.65894635075782" lon="8.074020057052488"><ele>423.5</ele><time>2026-05-01T08:19:01Z</time></trkpt><trkpt lat="44.65889535514717" lon="8.074202193224577"><ele>423.0</ele><time>2026-05-01T08:19:02Z</time></trkpt><trkpt lat="44.65884797484306" lon="8.074384215182317"><ele>422.5</ele><time>2026-05-01T08:19:03Z</time></trkpt><trkpt lat="44.65882897199894" lon="8.074602956194079"><ele>422.0</ele><time>2026-05-01T08:19:04Z</time></trkpt><trkpt lat="44.658833753441336" lon="8.07485931815725"><ele>422.3333333333333</ele><time>2026-05-01T08:19:05Z</time></trkpt><trkpt lat="44.6588494919362" lon="8.075102954100451"><ele>422.66666666666663</ele><time>2026-05-01T08:19:06Z</time></trkpt><trkpt lat="44.65887490837388" lon="8.075328865976347"><ele>423.0</ele><time>2026-05-01T08:19:07Z</time></trkpt><trkpt lat="44.65893024019865" lon="8.07554521627208"><ele>423.0</ele><time>2026-05-01T08:19:08Z</time></trkpt><trkpt lat="44.65900202281411" lon="8.075747076273739"><ele>423.0</ele><time>2026-05-01T08:19:09Z</time></trkpt><trkpt lat="44.65906119125192" lon="8.075938027192528"><ele>423.0</ele><time>2026-05-01T08:19:10Z</time></trkpt><trkpt lat="44.659069435977656" lon="8.076133421228455"><ele>423.0</ele><time>2026-05-01T08:19:11Z</time></trkpt><trkpt lat="44.65898921213725" lon="8.076320648611526"><ele>422.66666666666663</ele><time>2026-05-01T08:19:12Z</time></trkpt><trkpt lat="44.658929181083195" lon="8.07651788490662"><ele>422.3333333333333</ele><time>2026-05-01T08:19:13Z</time></trkpt><trkpt lat="44.65889389772621" lon="8.07672657176676"><ele>422.0</ele><time>2026-05-01T08:19:13.999Z</time></trkpt><trkpt lat="44.658878119287806" lon="8.076935419771289"><ele>422.0</ele><time>2026-05-01T08:19:14.999Z</time></trkpt><trkpt lat="44.65892329895155" lon="8.077159766025968"><ele>422.0</ele><time>2026-05-01T08:19:15.999Z</time></trkpt><trkpt lat="44.658955479299365" lon="8.077382317409281"><ele>422.0</ele><time>2026-05-01T08:19:16.999Z</time></trkpt><trkpt lat="44.658995495902815" lon="8.077582238167306"><ele>421.0</ele><time>2026-05-01T08:19:17.999Z</time></trkpt><trkpt lat="44.65907271289257" lon="8.077764161303591"><ele>420.0</ele><time>2026-05-01T08:19:18.999Z</time></trkpt><trkpt lat="44.65918314734543" lon="8.077941082269628"><ele>419.0</ele><time>2026-05-01T08:19:19.999Z</time></trkpt><trkpt lat="44.65930072395643" lon="8.078130088825963"><ele>421.3333333333333</ele><time>2026-05-01T08:19:20.999Z</time></trkpt><trkpt lat="44.65941005585281" lon="8.078336588167408"><ele>423.66666666666663</ele><time>2026-05-01T08:19:21.999Z</time></trkpt><trkpt lat="44.65950126840182" lon="8.078563084622223"><ele>426.0</ele><time>2026-05-01T08:19:22.999Z</time></trkpt><trkpt lat="44.65957591218279" lon="8.078802500441316"><ele>426.0</ele><time>2026-05-01T08:19:23.999Z</time></trkpt><trkpt lat="44.65961882459047" lon="8.07905715804097"><ele>426.0</ele><time>2026-05-01T08:19:24.999Z</time></trkpt><trkpt lat="44.65966980229931" lon="8.079310200162297"><ele>426.0</ele><time>2026-05-01T08:19:25.999Z</time></trkpt><trkpt lat="44.65973233612478" lon="8.079556077279415"><ele>424.0</ele><time>2026-05-01T08:19:26.999Z</time></trkpt><trkpt lat="44.659761209338946" lon="8.079817781636194"><ele>422.0</ele><time>2026-05-01T08:19:27.999Z</time></trkpt><trkpt lat="44.65981726987752" lon="8.080069810298577"><ele>420.0</ele><time>2026-05-01T08:19:28.999Z</time></trkpt><trkpt lat="44.65985956758771" lon="8.080328854694914"><ele>417.33333333333337</ele><time>2026-05-01T08:19:29.999Z</time></trkpt><trkpt lat="44.65988951616303" lon="8.08058801691415"><ele>414.6666666666667</ele><time>2026-05-01T08:19:30.999Z</time></trkpt><trkpt lat="44.659895652937585" lon="8.08085501042688"><ele>412.0</ele><time>2026-05-01T08:19:31.999Z</time></trkpt><trkpt lat="44.65992468798045" lon="8.081110385705191"><ele>412.0</ele><time>2026-05-01T08:19:32.999Z</time></trkpt><trkpt lat="44.65993514150153" lon="8.08135241037267"><ele>412.0</ele><time>2026-05-01T08:19:33.999Z</time></trkpt><trkpt lat="44.65994098367934" lon="8.081566243083023"><ele>412.0</ele><time>2026-05-01T08:19:34.999Z</time></trkpt><trkpt lat="44.659943931470494" lon="8.08175972898397"><ele>412.0</ele><time>2026-05-01T08:19:35.999Z</time></trkpt><trkpt lat="44.659913904862556" lon="8.08192374874639"><ele>412.0</ele><time>2026-05-01T08:19:36.999Z</time></trkpt><trkpt lat="44.65984904312921" lon="8.082051291268442"><ele>412.0</ele><time>2026-05-01T08:19:37.999Z</time></trkpt><trkpt lat="44.65976982688989" lon="8.08219704284216"><ele>412.0</ele><time>2026-05-01T08:19:38.999Z</time></trkpt><trkpt lat="44.65971376521499" lon="8.082370905825682"><ele>414.33333333333337</ele><time>2026-05-01T08:19:39.999Z</time></trkpt><trkpt lat="44.659675353318356" lon="8.082584145071229"><ele>416.66666666666663</ele><time>2026-05-01T08:19:40.999Z</time></trkpt><trkpt lat="44.65966706803893" lon="8.082815374168709"><ele>419.0</ele><time>2026-05-01T08:19:41.999Z</time></trkpt><trkpt lat="44.65966942962662" lon="8.083040342324784"><ele>419.66666666666663</ele><time>2026-05-01T08:19:42.999Z</time></trkpt><trkpt lat="44.65970523575027" lon="8.083269399892535"><ele>420.33333333333337</ele><time>2026-05-01T08:19:44Z</time></trkpt><trkpt lat="44.65979261089955" lon="8.083497424010785"><ele>421.0</ele><time>2026-05-01T08:19:45Z</time></trkpt><trkpt lat="44.659904524471294" lon="8.083709951103668"><ele>421.0</ele><time>2026-05-01T08:19:46Z</time></trkpt><trkpt lat="44.66001346619384" lon="8.083922621899276"><ele>421.0</ele><time>2026-05-01T08:19:47Z</time></trkpt><trkpt lat="44.66008277650357" lon="8.084170482357722"><ele>421.0</ele><time>2026-05-01T08:19:48Z</time></trkpt><trkpt lat="44.66013418456483" lon="8.084425289628456"><ele>420.0</ele><time>2026-05-01T08:19:49Z</time></trkpt><trkpt lat="44.660164355789604" lon="8.084689364263019"><ele>419.0</ele><time>2026-05-01T08:19:50Z</time></trkpt><trkpt lat="44.66017972822581" lon="8.084957322490222"><ele>418.0</ele><time>2026-05-01T08:19:51Z</time></trkpt><trkpt lat="44.660208293284924" lon="8.085227502592483"><ele>417.0</ele><time>2026-05-01T08:19:52Z</time></trkpt><trkpt lat="44.660218551411894" lon="8.085498029563903"><ele>416.0</ele><time>2026-05-01T08:19:53Z</time></trkpt><trkpt lat="44.6602333710912" lon="8.085766836409125"><ele>415.0</ele><time>2026-05-01T08:19:54Z</time></trkpt><trkpt lat="44.66022590777704" lon="8.086038891863154"><ele>414.33333333333337</ele><time>2026-05-01T08:19:55Z</time></trkpt><trkpt lat="44.66022705424152" lon="8.08631013748852"><ele>413.66666666666663</ele><time>2026-05-01T08:19:56Z</time></trkpt><trkpt lat="44.66021572322718" lon="8.086582337506991"><ele>413.0</ele><time>2026-05-01T08:19:57Z</time></trkpt><trkpt lat="44.66020786436522" lon="8.086860496670603"><ele>415.0</ele><time>2026-05-01T08:19:58Z</time></trkpt><trkpt lat="44.66017433773175" lon="8.087134573937906"><ele>417.0</ele><time>2026-05-01T08:19:59Z</time></trkpt><trkpt lat="44.66014072326187" lon="8.08742213139743"><ele>419.0</ele><time>2026-05-01T08:20:00Z</time></trkpt><trkpt lat="44.660109118938614" lon="8.087711306211647"><ele>421.66666666666663</ele><time>2026-05-01T08:20:01Z</time></trkpt><trkpt lat="44.6600797265684" lon="8.08797775914087"><ele>424.33333333333337</ele><time>2026-05-01T08:20:02Z</time></trkpt><trkpt lat="44.660048607188365" lon="8.088225613150046"><ele>427.0</ele><time>2026-05-01T08:20:03Z</time></trkpt><trkpt lat="44.65999603880262" lon="8.088468476058521"><ele>429.33333333333337</ele><time>2026-05-01T08:20:04Z</time></trkpt><trkpt lat="44.6599341074216" lon="8.088719463267944"><ele>431.66666666666663</ele><time>2026-05-01T08:20:05Z</time></trkpt><trkpt lat="44.659840951348954" lon="8.088972252845867"><ele>434.0</ele><time>2026-05-01T08:20:06Z</time></trkpt><trkpt lat="44.65973334959097" lon="8.089232376888292"><ele>436.66666666666663</ele><time>2026-05-01T08:20:07Z</time></trkpt><trkpt lat="44.6596291597682" lon="8.089501320287301"><ele>439.33333333333337</ele><time>2026-05-01T08:20:08Z</time></trkpt><trkpt lat="44.65952023757404" lon="8.08974432425277"><ele>442.0</ele><time>2026-05-01T08:20:09Z</time></trkpt><trkpt lat="44.659421789296765" lon="8.089966166477756"><ele>442.0</ele><time>2026-05-01T08:20:10Z</time></trkpt><trkpt lat="44.65932660641529" lon="8.090180741967036"><ele>442.0</ele><time>2026-05-01T08:20:11Z</time></trkpt><trkpt lat="44.659219065667" lon="8.090377423979241"><ele>442.0</ele><time>2026-05-01T08:20:12Z</time></trkpt><trkpt lat="44.65908287665761" lon="8.090551773027125"><ele>442.0</ele><time>2026-05-01T08:20:13Z</time></trkpt><trkpt lat="44.658906023071" lon="8.090670196293983"><ele>442.0</ele><time>2026-05-01T08:20:14Z</time></trkpt><trkpt lat="44.65873377617913" lon="8.09075036628724"><ele>442.0</ele><time>2026-05-01T08:20:15Z</time></trkpt><trkpt lat="44.6585915766646" lon="8.09077710022286"><ele>444.20000000000005</ele><time>2026-05-01T08:20:16Z</time></trkpt><trkpt lat="44.65845460420359" lon="8.09084356584055"><ele>446.40000000000003</ele><time>2026-05-01T08:20:17Z</time></trkpt><trkpt lat="44.658342012154385" lon="8.090888147163998"><ele>448.59999999999997</ele><time>2026-05-01T08:20:18Z</time></trkpt><trkpt lat="44.658289258192355" lon="8.090990210294068"><ele>450.79999999999995</ele><time>2026-05-01T08:20:19Z</time></trkpt><trkpt lat="44.65829535151872" lon="8.091123726292693"><ele>453.0</ele><time>2026-05-01T08:20:20Z</time></trkpt><trkpt lat="44.65835489142191" lon="8.091252664941662"><ele>453.0</ele><time>2026-05-01T08:20:21Z</time></trkpt><trkpt lat="44.658480985994935" lon="8.091334843590907"><ele>453.0</ele><time>2026-05-01T08:20:22Z</time></trkpt><trkpt lat="44.65861222209208" lon="8.09145834365985"><ele>453.0</ele><time>2026-05-01T08:20:23Z</time></trkpt><trkpt lat="44.658743392394875" lon="8.091524525928918"><ele>453.0</ele><time>2026-05-01T08:20:24Z</time></trkpt><trkpt lat="44.65883538889918" lon="8.091636781135664"><ele>453.5</ele><time>2026-05-01T08:20:25Z</time></trkpt><trkpt lat="44.65889117672812" lon="8.091796140950159"><ele>454.0</ele><time>2026-05-01T08:20:26Z</time></trkpt><trkpt lat="44.6588893424964" lon="8.091998032441376"><ele>454.5</ele><time>2026-05-01T08:20:27Z</time></trkpt><trkpt lat="44.658855263947" lon="8.092213780441568"><ele>455.0</ele><time>2026-05-01T08:20:28Z</time></trkpt><trkpt lat="44.6588161479919" lon="8.092451768870907"><ele>455.3333333333333</ele><time>2026-05-01T08:20:29Z</time></trkpt><trkpt lat="44.65877317813364" lon="8.09269813027023"><ele>455.66666666666663</ele><time>2026-05-01T08:20:30Z</time></trkpt><trkpt lat="44.658746822874804" lon="8.092953524883477"><ele>456.0</ele><time>2026-05-01T08:20:31Z</time></trkpt><trkpt lat="44.65871775088798" lon="8.093193823405173"><ele>456.33333333333337</ele><time>2026-05-01T08:20:32Z</time></trkpt><trkpt lat="44.658706250225045" lon="8.093430019181703"><ele>456.6666666666667</ele><time>2026-05-01T08:20:33Z</time></trkpt><trkpt lat="44.658724658713" lon="8.093642213160347"><ele>457.0</ele><time>2026-05-01T08:20:34Z</time></trkpt><trkpt lat="44.658749601696826" lon="8.09382775832134"><ele>457.0</ele><time>2026-05-01T08:20:35Z</time></trkpt><trkpt lat="44.6587307638137" lon="8.094004467785572"><ele>457.0</ele><time>2026-05-01T08:20:36Z</time></trkpt><trkpt lat="44.658680644350376" lon="8.094139263205525"><ele>457.0</ele><time>2026-05-01T08:20:37Z</time></trkpt><trkpt lat="44.658609319009265" lon="8.094261422384204"><ele>457.0</ele><time>2026-05-01T08:20:38Z</time></trkpt><trkpt lat="44.65851128857283" lon="8.094418719712575"><ele>464.0</ele><time>2026-05-01T08:20:39Z</time></trkpt><trkpt lat="44.65839098285129" lon="8.094603273811225"><ele>471.0</ele><time>2026-05-01T08:20:40Z</time></trkpt><trkpt lat="44.65826019797797" lon="8.0948034123773"><ele>478.0</ele><time>2026-05-01T08:20:41Z</time></trkpt><trkpt lat="44.65812606394059" lon="8.095008676399859"><ele>478.0</ele><time>2026-05-01T08:20:42Z</time></trkpt><trkpt lat="44.657998235908465" lon="8.095204890457051"><ele>478.0</ele><time>2026-05-01T08:20:43Z</time></trkpt><trkpt lat="44.65787861631713" lon="8.095394992158862"><ele>478.0</ele><time>2026-05-01T08:20:44Z</time></trkpt><trkpt lat="44.657779356043925" lon="8.09560665101804"><ele>479.0</ele><time>2026-05-01T08:20:45Z</time></trkpt><trkpt lat="44.65768202797323" lon="8.095815922651465"><ele>480.0</ele><time>2026-05-01T08:20:46Z</time></trkpt><trkpt lat="44.65761199157051" lon="8.096057764478106"><ele>481.0</ele><time>2026-05-01T08:20:47Z</time></trkpt><trkpt lat="44.65757125503008" lon="8.09631542356385"><ele>480.6666666666667</ele><time>2026-05-01T08:20:48Z</time></trkpt><trkpt lat="44.65759879758747" lon="8.096599559811139"><ele>480.33333333333337</ele><time>2026-05-01T08:20:49Z</time></trkpt><trkpt lat="44.6576292982162" lon="8.096872557983486"><ele>480.0</ele><time>2026-05-01T08:20:50Z</time></trkpt><trkpt lat="44.65766704339596" lon="8.09712519459643"><ele>480.0</ele><time>2026-05-01T08:20:51Z</time></trkpt><trkpt lat="44.657699412079396" lon="8.097372385531921"><ele>480.0</ele><time>2026-05-01T08:20:52Z</time></trkpt><trkpt lat="44.6577272023726" lon="8.09761031814114"><ele>480.0</ele><time>2026-05-01T08:20:53Z</time></trkpt><trkpt lat="44.657758052615705" lon="8.097840762367348"><ele>480.25</ele><time>2026-05-01T08:20:54Z</time></trkpt><trkpt lat="44.65778896249538" lon="8.098047150090558"><ele>480.5</ele><time>2026-05-01T08:20:55Z</time></trkpt><trkpt lat="44.65781236475609" lon="8.098220471621552"><ele>480.75</ele><time>2026-05-01T08:20:56Z</time></trkpt><trkpt lat="44.65783535901577" lon="8.09836757108614"><ele>481.0</ele><time>2026-05-01T08:20:57Z</time></trkpt><trkpt lat="44.65784448308442" lon="8.098501989596599"><ele>481.0</ele><time>2026-05-01T08:20:58Z</time></trkpt><trkpt lat="44.65781919665037" lon="8.09863889322843"><ele>481.0</ele><time>2026-05-01T08:20:59Z</time></trkpt><trkpt lat="44.65773740595243" lon="8.098740721527989"><ele>481.0</ele><time>2026-05-01T08:21:00Z</time></trkpt><trkpt lat="44.65764288898506" lon="8.09887535076218"><ele>481.0</ele><time>2026-05-01T08:21:01Z</time></trkpt><trkpt lat="44.65753129268265" lon="8.099026704638144"><ele>487.0</ele><time>2026-05-01T08:21:02Z</time></trkpt><trkpt lat="44.65739591277073" lon="8.099172293370795"><ele>493.0</ele><time>2026-05-01T08:21:03Z</time></trkpt><trkpt lat="44.65724037759504" lon="8.099337204531617"><ele>499.0</ele><time>2026-05-01T08:21:04Z</time></trkpt><trkpt lat="44.65707987740964" lon="8.099509021236534"><ele>499.33333333333337</ele><time>2026-05-01T08:21:05Z</time></trkpt><trkpt lat="44.65693224681597" lon="8.099667525256882"><ele>499.66666666666663</ele><time>2026-05-01T08:21:06Z</time></trkpt><trkpt lat="44.65679456155183" lon="8.099812414613899"><ele>500.0</ele><time>2026-05-01T08:21:07Z</time></trkpt><trkpt lat="44.65665916069822" lon="8.099943043772107"><ele>500.0</ele><time>2026-05-01T08:21:08Z</time></trkpt><trkpt lat="44.65651914957738" lon="8.100052956152407"><ele>500.0</ele><time>2026-05-01T08:21:09Z</time></trkpt><trkpt lat="44.65637761961395" lon="8.100126352195085"><ele>500.0</ele><time>2026-05-01T08:21:10Z</time></trkpt><trkpt lat="44.656243647762615" lon="8.100178273986916"><ele>500.0</ele><time>2026-05-01T08:21:11Z</time></trkpt><trkpt lat="44.65612905473534" lon="8.100242179686632"><ele>500.0</ele><time>2026-05-01T08:21:12Z</time></trkpt><trkpt lat="44.65602656235153" lon="8.100310246627073"><ele>500.0</ele><time>2026-05-01T08:21:13Z</time></trkpt><trkpt lat="44.655948528164615" lon="8.100427495237454"><ele>500.0</ele><time>2026-05-01T08:21:14Z</time></trkpt><trkpt lat="44.65590765504368" lon="8.100601806991055"><ele>501.3333333333333</ele><time>2026-05-01T08:21:15Z</time></trkpt><trkpt lat="44.655899899881604" lon="8.100821713090168"><ele>502.66666666666663</ele><time>2026-05-01T08:21:16Z</time></trkpt><trkpt lat="44.65588726895501" lon="8.10107961905149"><ele>504.0</ele><time>2026-05-01T08:21:16.999Z</time></trkpt><trkpt lat="44.65585545843672" lon="8.101333896148189"><ele>504.0</ele><time>2026-05-01T08:21:17.999Z</time></trkpt><trkpt lat="44.655816922812136" lon="8.101578662331521"><ele>504.0</ele><time>2026-05-01T08:21:18.999Z</time></trkpt><trkpt lat="44.65576938992358" lon="8.101816181323212"><ele>504.0</ele><time>2026-05-01T08:21:19.999Z</time></trkpt><trkpt lat="44.65571066774984" lon="8.10204172596273"><ele>508.0</ele><time>2026-05-01T08:21:20.999Z</time></trkpt><trkpt lat="44.655640195733554" lon="8.102251178348936"><ele>512.0</ele><time>2026-05-01T08:21:21.999Z</time></trkpt><trkpt lat="44.65554612297953" lon="8.102420618910404"><ele>516.0</ele><time>2026-05-01T08:21:22.999Z</time></trkpt><trkpt lat="44.65544639493799" lon="8.102574682658066"><ele>516.0</ele><time>2026-05-01T08:21:23.999Z</time></trkpt><trkpt lat="44.655367473982075" lon="8.102727282560712"><ele>516.0</ele><time>2026-05-01T08:21:24.999Z</time></trkpt><trkpt lat="44.65529012986511" lon="8.102866899266695"><ele>516.0</ele><time>2026-05-01T08:21:25.999Z</time></trkpt><trkpt lat="44.6552387640195" lon="8.103062464913304"><ele>516.0</ele><time>2026-05-01T08:21:26.999Z</time></trkpt><trkpt lat="44.655224300604864" lon="8.103296077578625"><ele>516.0</ele><time>2026-05-01T08:21:27.999Z</time></trkpt><trkpt lat="44.65522121719221" lon="8.1035583740251"><ele>516.0</ele><time>2026-05-01T08:21:28.999Z</time></trkpt><trkpt lat="44.65521880912139" lon="8.103819890331387"><ele>516.0</ele><time>2026-05-01T08:21:29.999Z</time></trkpt><trkpt lat="44.655242952734476" lon="8.10407018362397"><ele>528.3333333333334</ele><time>2026-05-01T08:21:30.999Z</time></trkpt><trkpt lat="44.655299393021565" lon="8.104314468480998"><ele>540.6666666666667</ele><time>2026-05-01T08:21:31.999Z</time></trkpt><trkpt lat="44.655319474464605" lon="8.104547829397555"><ele>553.0</ele><time>2026-05-01T08:21:32.999Z</time></trkpt><trkpt lat="44.65530137345629" lon="8.104781010393319"><ele>545.6666666666667</ele><time>2026-05-01T08:21:33.999Z</time></trkpt><trkpt lat="44.65525403161491" lon="8.105008372015748"><ele>538.3333333333334</ele><time>2026-05-01T08:21:34.999Z</time></trkpt><trkpt lat="44.655204148560216" lon="8.105245683167922"><ele>531.0</ele><time>2026-05-01T08:21:35.999Z</time></trkpt><trkpt lat="44.65516799836775" lon="8.105485892500226"><ele>531.0</ele><time>2026-05-01T08:21:36.999Z</time></trkpt><trkpt lat="44.65509103355491" lon="8.105691576750582"><ele>531.0</ele><time>2026-05-01T08:21:37.999Z</time></trkpt><trkpt lat="44.655011156477634" lon="8.105870739502848"><ele>531.0</ele><time>2026-05-01T08:21:38.999Z</time></trkpt><trkpt lat="44.65491975716628" lon="8.106044855533657"><ele>533.25</ele><time>2026-05-01T08:21:39.999Z</time></trkpt><trkpt lat="44.654815609610885" lon="8.106205103512691"><ele>535.5</ele><time>2026-05-01T08:21:40.999Z</time></trkpt><trkpt lat="44.6547005263948" lon="8.10634212138979"><ele>537.75</ele><time>2026-05-01T08:21:41.999Z</time></trkpt><trkpt lat="44.65458879377656" lon="8.106458124593567"><ele>540.0</ele><time>2026-05-01T08:21:42.999Z</time></trkpt><trkpt lat="44.65448339969681" lon="8.106559156354045"><ele>541.0</ele><time>2026-05-01T08:21:43.999Z</time></trkpt><trkpt lat="44.65438684290128" lon="8.106648993227244"><ele>542.0</ele><time>2026-05-01T08:21:44.999Z</time></trkpt><trkpt lat="44.654305603811" lon="8.106726926451072"><ele>543.0</ele><time>2026-05-01T08:21:45.999Z</time></trkpt><trkpt lat="44.654242859937625" lon="8.106811736318523"><ele>544.0</ele><time>2026-05-01T08:21:46.999Z</time></trkpt><trkpt lat="44.65420160550425" lon="8.106902136540679"><ele>545.0</ele><time>2026-05-01T08:21:47.999Z</time></trkpt><trkpt lat="44.65418161742536" lon="8.107012770887176"><ele>545.0</ele><time>2026-05-01T08:21:48.999Z</time></trkpt><trkpt lat="44.6542649213164" lon="8.1071549758371"><ele>545.0</ele><time>2026-05-01T08:21:50Z</time></trkpt><trkpt lat="44.6543450674824" lon="8.107255626538043"><ele>545.0</ele><time>2026-05-01T08:21:51Z</time></trkpt><trkpt lat="44.654474428351925" lon="8.107249534375645"><ele>545.0</ele><time>2026-05-01T08:21:52Z</time></trkpt><trkpt lat="44.654608057348426" lon="8.107230447339763"><ele>546.3333333333333</ele><time>2026-05-01T08:21:53Z</time></trkpt><trkpt lat="44.65475921796861" lon="8.107213675103372"><ele>547.6666666666666</ele><time>2026-05-01T08:21:54Z</time></trkpt><trkpt lat="44.65492209095539" lon="8.107196038197028"><ele>549.0</ele><time>2026-05-01T08:21:55Z</time></trkpt><trkpt lat="44.65508958885692" lon="8.107149557446766"><ele>549.0</ele><time>2026-05-01T08:21:56Z</time></trkpt><trkpt lat="44.65525210131581" lon="8.107077066387333"><ele>549.0</ele><time>2026-05-01T08:21:57Z</time></trkpt><trkpt lat="44.655403537634015" lon="8.106991765706306"><ele>549.0</ele><time>2026-05-01T08:21:58Z</time></trkpt><trkpt lat="44.655528590165694" lon="8.106902889216608"><ele>550.4</ele><time>2026-05-01T08:21:59Z</time></trkpt><trkpt lat="44.655628289167424" lon="8.106804052110327"><ele>551.8</ele><time>2026-05-01T08:22:00Z</time></trkpt><trkpt lat="44.655713536088385" lon="8.106704691999767"><ele>553.2</ele><time>2026-05-01T08:22:01Z</time></trkpt><trkpt lat="44.655789721276804" lon="8.106637362134602"><ele>554.6</ele><time>2026-05-01T08:22:02Z</time></trkpt><trkpt lat="44.655870906391534" lon="8.106633602292836"><ele>556.0</ele><time>2026-05-01T08:22:03Z</time></trkpt><trkpt lat="44.655946179969405" lon="8.106722522331832"><ele>556.0</ele><time>2026-05-01T08:22:04Z</time></trkpt><trkpt lat="44.65596766511252" lon="8.1068608846918"><ele>556.0</ele><time>2026-05-01T08:22:05Z</time></trkpt><trkpt lat="44.65591210066001" lon="8.107005524974218"><ele>556.0</ele><time>2026-05-01T08:22:06Z</time></trkpt><trkpt lat="44.65582749081353" lon="8.107131272032154"><ele>556.0</ele><time>2026-05-01T08:22:07Z</time></trkpt><trkpt lat="44.6557437562555" lon="8.107305820450383"><ele>557.6666666666667</ele><time>2026-05-01T08:22:08Z</time></trkpt><trkpt lat="44.65563214092609" lon="8.107458005121032"><ele>559.3333333333334</ele><time>2026-05-01T08:22:09Z</time></trkpt><trkpt lat="44.655494956815126" lon="8.107597775663626"><ele>561.0</ele><time>2026-05-01T08:22:10Z</time></trkpt><trkpt lat="44.655335933386176" lon="8.107716077179251"><ele>560.3333333333334</ele><time>2026-05-01T08:22:11Z</time></trkpt><trkpt lat="44.65518821765137" lon="8.107842175680005"><ele>559.6666666666667</ele><time>2026-05-01T08:22:12Z</time></trkpt><trkpt lat="44.6550486343104" lon="8.107942354886685"><ele>559.0</ele><time>2026-05-01T08:22:13Z</time></trkpt><trkpt lat="44.65493486519344" lon="8.108055845758985"><ele>559.0</ele><time>2026-05-01T08:22:14Z</time></trkpt><trkpt lat="44.654834338906795" lon="8.108204272603574"><ele>559.0</ele><time>2026-05-01T08:22:15Z</time></trkpt><trkpt lat="44.65474126067792" lon="8.108412834675308"><ele>559.0</ele><time>2026-05-01T08:22:16Z</time></trkpt><trkpt lat="44.65466201609014" lon="8.108647057644035"><ele>563.3333333333334</ele><time>2026-05-01T08:22:17Z</time></trkpt><trkpt lat="44.65458235701308" lon="8.108891167406256"><ele>567.6666666666666</ele><time>2026-05-01T08:22:18Z</time></trkpt><trkpt lat="44.65450199506556" lon="8.109111008317184"><ele>572.0</ele><time>2026-05-01T08:22:19Z</time></trkpt><trkpt lat="44.6543904354698" lon="8.109263704890001"><ele>572.75</ele><time>2026-05-01T08:22:20Z</time></trkpt><trkpt lat="44.65428069048422" lon="8.109378872550094"><ele>573.5</ele><time>2026-05-01T08:22:21Z</time></trkpt><trkpt lat="44.654186040699194" lon="8.1094991555829"><ele>574.25</ele><time>2026-05-01T08:22:22Z</time></trkpt><trkpt lat="44.65410845925973" lon="8.109595637065377"><ele>575.0</ele><time>2026-05-01T08:22:23Z</time></trkpt><trkpt lat="44.65407234626597" lon="8.109741342461543"><ele>578.0</ele><time>2026-05-01T08:22:24Z</time></trkpt><trkpt lat="44.65409446565433" lon="8.109939999898787"><ele>581.0</ele><time>2026-05-01T08:22:25Z</time></trkpt><trkpt lat="44.654131032521036" lon="8.110177529188269"><ele>584.0</ele><time>2026-05-01T08:22:26Z</time></trkpt><trkpt lat="44.65415318058499" lon="8.110439809808813"><ele>584.0</ele><time>2026-05-01T08:22:27Z</time></trkpt><trkpt lat="44.65416703761781" lon="8.11071252030944"><ele>584.0</ele><time>2026-05-01T08:22:28Z</time></trkpt><trkpt lat="44.654148550561736" lon="8.1109616607686"><ele>584.0</ele><time>2026-05-01T08:22:29Z</time></trkpt><trkpt lat="44.65412413969189" lon="8.111181466362288"><ele>586.3333333333333</ele><time>2026-05-01T08:22:30Z</time></trkpt><trkpt lat="44.654082525208466" lon="8.111399106820166"><ele>588.6666666666666</ele><time>2026-05-01T08:22:31Z</time></trkpt><trkpt lat="44.65402356302278" lon="8.111612534460637"><ele>591.0</ele><time>2026-05-01T08:22:32Z</time></trkpt><trkpt lat="44.65394339807506" lon="8.111842967726107"><ele>594.0</ele><time>2026-05-01T08:22:33Z</time></trkpt><trkpt lat="44.653846805852844" lon="8.112065263868958"><ele>597.0</ele><time>2026-05-01T08:22:34Z</time></trkpt><trkpt lat="44.65374506227315" lon="8.112290216087867"><ele>600.0</ele><time>2026-05-01T08:22:35Z</time></trkpt><trkpt lat="44.65364597733787" lon="8.112509290658357"><ele>597.6666666666666</ele><time>2026-05-01T08:22:36Z</time></trkpt><trkpt lat="44.6535612963426" lon="8.112731205471537"><ele>595.3333333333333</ele><time>2026-05-01T08:22:37Z</time></trkpt><trkpt lat="44.65346911846395" lon="8.112938291505278"><ele>593.0</ele><time>2026-05-01T08:22:38Z</time></trkpt><trkpt lat="44.653362819064135" lon="8.113118082393608"><ele>596.3333333333333</ele><time>2026-05-01T08:22:39Z</time></trkpt><trkpt lat="44.65325770832089" lon="8.113297759430642"><ele>599.6666666666666</ele><time>2026-05-01T08:22:40Z</time></trkpt><trkpt lat="44.653134723922186" lon="8.11344228594237"><ele>603.0</ele><time>2026-05-01T08:22:41Z</time></trkpt><trkpt lat="44.65300268099142" lon="8.1135685238994"><ele>603.0</ele><time>2026-05-01T08:22:42Z</time></trkpt><trkpt lat="44.65287552393233" lon="8.113682298171788"><ele>603.0</ele><time>2026-05-01T08:22:43Z</time></trkpt><trkpt lat="44.652773327725996" lon="8.113812747644026"><ele>603.0</ele><time>2026-05-01T08:22:44Z</time></trkpt><trkpt lat="44.652691874976675" lon="8.113964219141025"><ele>603.0</ele><time>2026-05-01T08:22:45Z</time></trkpt><trkpt lat="44.65263053196289" lon="8.114168752535525"><ele>603.6666666666666</ele><time>2026-05-01T08:22:46Z</time></trkpt><trkpt lat="44.652560066833814" lon="8.114381510606535"><ele>604.3333333333333</ele><time>2026-05-01T08:22:47Z</time></trkpt><trkpt lat="44.652481963621625" lon="8.114578944521547"><ele>605.0</ele><time>2026-05-01T08:22:48Z</time></trkpt><trkpt lat="44.65238153098875" lon="8.114741431354187"><ele>605.0</ele><time>2026-05-01T08:22:49Z</time></trkpt><trkpt lat="44.65223748707287" lon="8.114899771050807"><ele>605.0</ele><time>2026-05-01T08:22:50Z</time></trkpt><trkpt lat="44.65207762270019" lon="8.115016773452318"><ele>605.0</ele><time>2026-05-01T08:22:51Z</time></trkpt><trkpt lat="44.651905769013624" lon="8.115122111294484"><ele>607.3333333333333</ele><time>2026-05-01T08:22:52Z</time></trkpt><trkpt lat="44.65173802486566" lon="8.115220109678637"><ele>609.6666666666666</ele><time>2026-05-01T08:22:53Z</time></trkpt><trkpt lat="44.65158773151509" lon="8.11532900983306"><ele>612.0</ele><time>2026-05-01T08:22:54Z</time></trkpt><trkpt lat="44.6514422650038" lon="8.115413889946344"><ele>612.0</ele><time>2026-05-01T08:22:55Z</time></trkpt><trkpt lat="44.651306236493" lon="8.11549181984199"><ele>612.0</ele><time>2026-05-01T08:22:56Z</time></trkpt><trkpt lat="44.65117721956842" lon="8.115562689321923"><ele>612.0</ele><time>2026-05-01T08:22:57Z</time></trkpt><trkpt lat="44.65105037463879" lon="8.115640469965278"><ele>612.0</ele><time>2026-05-01T08:22:58Z</time></trkpt><trkpt lat="44.6509160315468" lon="8.115727308629292"><ele>615.6666666666666</ele><time>2026-05-01T08:22:59Z</time></trkpt><trkpt lat="44.65077154868197" lon="8.115810285866173"><ele>619.3333333333333</ele><time>2026-05-01T08:23:00Z</time></trkpt><trkpt lat="44.65061096083298" lon="8.11584474809372"><ele>623.0</ele><time>2026-05-01T08:23:01Z</time></trkpt><trkpt lat="44.65043849029501" lon="8.115887912747187"><ele>622.0</ele><time>2026-05-01T08:23:02Z</time></trkpt><trkpt lat="44.65026599041904" lon="8.115925627327222"><ele>621.0</ele><time>2026-05-01T08:23:03Z</time></trkpt><trkpt lat="44.650107097548045" lon="8.115981052024207"><ele>620.0</ele><time>2026-05-01T08:23:04Z</time></trkpt><trkpt lat="44.64997855154018" lon="8.11601965199797"><ele>620.0</ele><time>2026-05-01T08:23:05Z</time></trkpt><trkpt lat="44.649877033747515" lon="8.11610952549974"><ele>620.0</ele><time>2026-05-01T08:23:06Z</time></trkpt><trkpt lat="44.649806473988946" lon="8.11626604845337"><ele>620.0</ele><time>2026-05-01T08:23:07Z</time></trkpt><trkpt lat="44.649770177313556" lon="8.11651608797478"><ele>620.0</ele><time>2026-05-01T08:23:08Z</time></trkpt><trkpt lat="44.649720391305245" lon="8.11676035668758"><ele>625.0</ele><time>2026-05-01T08:23:09Z</time></trkpt><trkpt lat="44.649650470103516" lon="8.117003908368153"><ele>630.0</ele><time>2026-05-01T08:23:10Z</time></trkpt><trkpt lat="44.64959620088218" lon="8.117277745782529"><ele>635.0</ele><time>2026-05-01T08:23:11Z</time></trkpt><trkpt lat="44.64954303000836" lon="8.117543222237416"><ele>635.3333333333333</ele><time>2026-05-01T08:23:12Z</time></trkpt><trkpt lat="44.6494782631132" lon="8.117800974727338"><ele>635.6666666666666</ele><time>2026-05-01T08:23:13Z</time></trkpt><trkpt lat="44.64940827701654" lon="8.118051361700248"><ele>636.0</ele><time>2026-05-01T08:23:14Z</time></trkpt><trkpt lat="44.649341479590035" lon="8.118289700179716"><ele>636.0</ele><time>2026-05-01T08:23:15Z</time></trkpt><trkpt lat="44.64927521500806" lon="8.118526138618892"><ele>636.0</ele><time>2026-05-01T08:23:16Z</time></trkpt><trkpt lat="44.64921120890117" lon="8.118754517703671"><ele>636.0</ele><time>2026-05-01T08:23:17Z</time></trkpt><trkpt lat="44.649151709753895" lon="8.11896744441739"><ele>638.75</ele><time>2026-05-01T08:23:18Z</time></trkpt><trkpt lat="44.649093802820744" lon="8.119175708779778"><ele>641.5</ele><time>2026-05-01T08:23:19Z</time></trkpt><trkpt lat="44.6490391444511" lon="8.11936466198857"><ele>644.25</ele><time>2026-05-01T08:23:20Z</time></trkpt><trkpt lat="44.648979115749874" lon="8.119527366201464"><ele>647.0</ele><time>2026-05-01T08:23:20.999Z</time></trkpt><trkpt lat="44.648887948515345" lon="8.119657082896046"><ele>647.0</ele><time>2026-05-01T08:23:21.999Z</time></trkpt><trkpt lat="44.648773694922355" lon="8.119774955915428"><ele>647.0</ele><time>2026-05-01T08:23:22.999Z</time></trkpt><trkpt lat="44.648629257008025" lon="8.119890977785412"><ele>647.0</ele><time>2026-05-01T08:23:23.999Z</time></trkpt><trkpt lat="44.6484623466922" lon="8.120023926834861"><ele>645.6666666666666</ele><time>2026-05-01T08:23:24.999Z</time></trkpt><trkpt lat="44.64829335135985" lon="8.120164025660292"><ele>644.3333333333334</ele><time>2026-05-01T08:23:25.999Z</time></trkpt><trkpt lat="44.648116669771426" lon="8.120233482770645"><ele>643.0</ele><time>2026-05-01T08:23:26.999Z</time></trkpt><trkpt lat="44.647954824670926" lon="8.120261604723536"><ele>644.3333333333334</ele><time>2026-05-01T08:23:27.999Z</time></trkpt><trkpt lat="44.64778444591272" lon="8.120240489597263"><ele>645.6666666666666</ele><time>2026-05-01T08:23:28.999Z</time></trkpt><trkpt lat="44.64760051755816" lon="8.120172293284165"><ele>647.0</ele><time>2026-05-01T08:23:29.999Z</time></trkpt><trkpt lat="44.64740317288325" lon="8.120104949530841"><ele>647.0</ele><time>2026-05-01T08:23:30.999Z</time></trkpt><trkpt lat="44.647209503120344" lon="8.12002290853541"><ele>647.0</ele><time>2026-05-01T08:23:31.999Z</time></trkpt><trkpt lat="44.64701719702827" lon="8.119942115929698"><ele>647.0</ele><time>2026-05-01T08:23:32.999Z</time></trkpt><trkpt lat="44.64682788911336" lon="8.119853556526586"><ele>645.0</ele><time>2026-05-01T08:23:33.999Z</time></trkpt><trkpt lat="44.646644046588044" lon="8.11975433769268"><ele>643.0</ele><time>2026-05-01T08:23:34.999Z</time></trkpt><trkpt lat="44.64647953943076" lon="8.11964906701753"><ele>641.0</ele><time>2026-05-01T08:23:35.999Z</time></trkpt><trkpt lat="44.64632260378172" lon="8.119539925165688"><ele>641.0</ele><time>2026-05-01T08:23:36.999Z</time></trkpt><trkpt lat="44.64618025754765" lon="8.119442369073104"><ele>641.0</ele><time>2026-05-01T08:23:37.999Z</time></trkpt><trkpt lat="44.64604771306572" lon="8.119356706784579"><ele>641.0</ele><time>2026-05-01T08:23:38.999Z</time></trkpt><trkpt lat="44.64590863126869" lon="8.119318852886991"><ele>641.0</ele><time>2026-05-01T08:23:39.999Z</time></trkpt><trkpt lat="44.645744738256774" lon="8.11934202691359"><ele>643.6666666666666</ele><time>2026-05-01T08:23:40.999Z</time></trkpt><trkpt lat="44.64556290739376" lon="8.11935246207099"><ele>646.3333333333334</ele><time>2026-05-01T08:23:41.999Z</time></trkpt><trkpt lat="44.64539654473719" lon="8.119367970312066"><ele>649.0</ele><time>2026-05-01T08:23:42.999Z</time></trkpt><trkpt lat="44.64523747125856" lon="8.119325678751395"><ele>650.3333333333334</ele><time>2026-05-01T08:23:43.999Z</time></trkpt><trkpt lat="44.645086143430525" lon="8.119211069154536"><ele>651.6666666666666</ele><time>2026-05-01T08:23:44.999Z</time></trkpt><trkpt lat="44.64495931889723" lon="8.11908962905106"><ele>653.0</ele><time>2026-05-01T08:23:45.999Z</time></trkpt><trkpt lat="44.644801311507486" lon="8.118919452890447"><ele>652.0</ele><time>2026-05-01T08:23:46.999Z</time></trkpt><trkpt lat="44.644637375510335" lon="8.118724162303945"><ele>651.0</ele><time>2026-05-01T08:23:47.999Z</time></trkpt><trkpt lat="44.644476707722646" lon="8.118504160087907"><ele>650.0</ele><time>2026-05-01T08:23:48.999Z</time></trkpt><trkpt lat="44.644309176539636" lon="8.11828060492815"><ele>647.0</ele><time>2026-05-01T08:23:49.999Z</time></trkpt><trkpt lat="44.644143420646635" lon="8.118058411714483"><ele>644.0</ele><time>2026-05-01T08:23:50.999Z</time></trkpt><trkpt lat="44.64399028268252" lon="8.117830785831735"><ele>644.0</ele><time>2026-05-01T08:23:51.999Z</time></trkpt><trkpt lat="44.64383730643739" lon="8.11759254849514"><ele>644.0</ele><time>2026-05-01T08:23:52.999Z</time></trkpt><trkpt lat="44.64368986202162" lon="8.117362926003388"><ele>644.0</ele><time>2026-05-01T08:23:53.999Z</time></trkpt><trkpt lat="44.64353627824111" lon="8.117148657510633"><ele>644.6666666666666</ele><time>2026-05-01T08:23:54.999Z</time></trkpt><trkpt lat="44.64339333906351" lon="8.11692452578698"><ele>645.3333333333334</ele><time>2026-05-01T08:23:56Z</time></trkpt><trkpt lat="44.643255677083836" lon="8.116709129739535"><ele>646.0</ele><time>2026-05-01T08:23:57Z</time></trkpt><trkpt lat="44.643131135267105" lon="8.116494948200435"><ele>646.3333333333334</ele><time>2026-05-01T08:23:58Z</time></trkpt><trkpt lat="44.642990838709586" lon="8.116317833250736"><ele>646.6666666666666</ele><time>2026-05-01T08:23:59Z</time></trkpt><trkpt lat="44.642844216144695" lon="8.116148338877007"><ele>647.0</ele><time>2026-05-01T08:24:00Z</time></trkpt><trkpt lat="44.64268935094648" lon="8.116000594630863"><ele>647.0</ele><time>2026-05-01T08:24:01Z</time></trkpt><trkpt lat="44.64256164420015" lon="8.115823114011455"><ele>647.0</ele><time>2026-05-01T08:24:02Z</time></trkpt><trkpt lat="44.64243229016663" lon="8.115664115725139"><ele>647.0</ele><time>2026-05-01T08:24:03Z</time></trkpt><trkpt lat="44.642323961522706" lon="8.115493147049698"><ele>645.0</ele><time>2026-05-01T08:24:04Z</time></trkpt><trkpt lat="44.64224633805703" lon="8.115284695950654"><ele>643.0</ele><time>2026-05-01T08:24:05Z</time></trkpt><trkpt lat="44.64220898959121" lon="8.115055287161455"><ele>641.0</ele><time>2026-05-01T08:24:06Z</time></trkpt><trkpt lat="44.64218346236114" lon="8.11482152756572"><ele>641.0</ele><time>2026-05-01T08:24:07Z</time></trkpt><trkpt lat="44.642145151851444" lon="8.114602283080902"><ele>641.0</ele><time>2026-05-01T08:24:08Z</time></trkpt><trkpt lat="44.64213190712468" lon="8.114398249883525"><ele>641.0</ele><time>2026-05-01T08:24:09Z</time></trkpt><trkpt lat="44.6420791883283" lon="8.114206825670502"><ele>642.0</ele><time>2026-05-01T08:24:10Z</time></trkpt><trkpt lat="44.641995968060314" lon="8.114015944202373"><ele>643.0</ele><time>2026-05-01T08:24:11Z</time></trkpt><trkpt lat="44.641888338108174" lon="8.113826399860672"><ele>644.0</ele><time>2026-05-01T08:24:12Z</time></trkpt><trkpt lat="44.64176647046823" lon="8.113662075124543"><ele>644.0</ele><time>2026-05-01T08:24:13Z</time></trkpt><trkpt lat="44.641628213360434" lon="8.113524336020221"><ele>644.0</ele><time>2026-05-01T08:24:14Z</time></trkpt><trkpt lat="44.64146748118786" lon="8.113412196129856"><ele>644.0</ele><time>2026-05-01T08:24:15Z</time></trkpt><trkpt lat="44.64130340436041" lon="8.11328974294386"><ele>641.6666666666666</ele><time>2026-05-01T08:24:16Z</time></trkpt><trkpt lat="44.641132097639684" lon="8.113171859546682"><ele>639.3333333333334</ele><time>2026-05-01T08:24:17Z</time></trkpt><trkpt lat="44.640962026824916" lon="8.113060977065537"><ele>637.0</ele><time>2026-05-01T08:24:18Z</time></trkpt><trkpt lat="44.6407977946005" lon="8.112956633483172"><ele>637.0</ele><time>2026-05-01T08:24:19Z</time></trkpt><trkpt lat="44.64063431695034" lon="8.112857812917346"><ele>637.0</ele><time>2026-05-01T08:24:20Z</time></trkpt><trkpt lat="44.64046863108921" lon="8.11277287761128"><ele>637.0</ele><time>2026-05-01T08:24:21Z</time></trkpt><trkpt lat="44.64029966774626" lon="8.112730781394855"><ele>633.3333333333334</ele><time>2026-05-01T08:24:22Z</time></trkpt><trkpt lat="44.64012816861314" lon="8.112684224878244"><ele>629.6666666666666</ele><time>2026-05-01T08:24:23Z</time></trkpt><trkpt lat="44.63995484121886" lon="8.112663610599961"><ele>626.0</ele><time>2026-05-01T08:24:24Z</time></trkpt><trkpt lat="44.639789184785045" lon="8.112616074386944"><ele>626.0</ele><time>2026-05-01T08:24:25Z</time></trkpt><trkpt lat="44.63962181301968" lon="8.112589512211489"><ele>626.0</ele><time>2026-05-01T08:24:26Z</time></trkpt><trkpt lat="44.639465348769484" lon="8.112580290558984"><ele>626.0</ele><time>2026-05-01T08:24:27Z</time></trkpt><trkpt lat="44.639320903284" lon="8.112617770839568"><ele>624.25</ele><time>2026-05-01T08:24:28Z</time></trkpt><trkpt lat="44.6391889412885" lon="8.112642270437863"><ele>622.5</ele><time>2026-05-01T08:24:29Z</time></trkpt><trkpt lat="44.639069761194754" lon="8.112635848453712"><ele>620.75</ele><time>2026-05-01T08:24:30Z</time></trkpt><trkpt lat="44.63895512111822" lon="8.112658161829321"><ele>619.0</ele><time>2026-05-01T08:24:31Z</time></trkpt><trkpt lat="44.63884194991412" lon="8.112614239159813"><ele>619.0</ele><time>2026-05-01T08:24:32Z</time></trkpt><trkpt lat="44.63873606148291" lon="8.112512537535984"><ele>619.0</ele><time>2026-05-01T08:24:33Z</time></trkpt><trkpt lat="44.63861212899529" lon="8.112458486212857"><ele>619.0</ele><time>2026-05-01T08:24:34Z</time></trkpt><trkpt lat="44.63849201812393" lon="8.112393251508383"><ele>619.0</ele><time>2026-05-01T08:24:35Z</time></trkpt><trkpt lat="44.638368064835596" lon="8.112347658613656"><ele>619.5</ele><time>2026-05-01T08:24:36Z</time></trkpt><trkpt lat="44.63825037347808" lon="8.11231693409921"><ele>620.0</ele><time>2026-05-01T08:24:37Z</time></trkpt><trkpt lat="44.63812516015678" lon="8.112314800324388"><ele>620.5</ele><time>2026-05-01T08:24:38Z</time></trkpt><trkpt lat="44.63798630780839" lon="8.112364016334691"><ele>621.0</ele><time>2026-05-01T08:24:39Z</time></trkpt><trkpt lat="44.63784999126389" lon="8.112461596804922"><ele>618.3333333333334</ele><time>2026-05-01T08:24:40Z</time></trkpt><trkpt lat="44.63773398034067" lon="8.112602993097077"><ele>615.6666666666667</ele><time>2026-05-01T08:24:41Z</time></trkpt><trkpt lat="44.63763310609256" lon="8.112761733858216"><ele>613.0</ele><time>2026-05-01T08:24:42Z</time></trkpt><trkpt lat="44.637516883197655" lon="8.112894529623762"><ele>613.0</ele><time>2026-05-01T08:24:43Z</time></trkpt><trkpt lat="44.63739628102477" lon="8.112999840970549"><ele>613.0</ele><time>2026-05-01T08:24:44Z</time></trkpt><trkpt lat="44.63724544679109" lon="8.113033663786839"><ele>613.0</ele><time>2026-05-01T08:24:45Z</time></trkpt><trkpt lat="44.637086507074784" lon="8.113070489074614"><ele>610.0</ele><time>2026-05-01T08:24:46Z</time></trkpt><trkpt lat="44.636928682990124" lon="8.113116155070792"><ele>607.0</ele><time>2026-05-01T08:24:47Z</time></trkpt><trkpt lat="44.63677816278295" lon="8.113150780893438"><ele>604.0</ele><time>2026-05-01T08:24:48Z</time></trkpt><trkpt lat="44.63663589398317" lon="8.113204845625807"><ele>604.0</ele><time>2026-05-01T08:24:49Z</time></trkpt><trkpt lat="44.63649192215971" lon="8.113256289102003"><ele>604.0</ele><time>2026-05-01T08:24:50Z</time></trkpt><trkpt lat="44.63635144174368" lon="8.11322078257768"><ele>604.0</ele><time>2026-05-01T08:24:51Z</time></trkpt><trkpt lat="44.63623339184546" lon="8.113117426198542"><ele>604.0</ele><time>2026-05-01T08:24:52Z</time></trkpt><trkpt lat="44.636097451462994" lon="8.11303564093755"><ele>604.0</ele><time>2026-05-01T08:24:53Z</time></trkpt><trkpt lat="44.635968134743365" lon="8.112927734089654"><ele>604.0</ele><time>2026-05-01T08:24:54Z</time></trkpt><trkpt lat="44.63583521756684" lon="8.112827091768173"><ele>604.0</ele><time>2026-05-01T08:24:55Z</time></trkpt><trkpt lat="44.63570962292033" lon="8.112729817592196"><ele>604.0</ele><time>2026-05-01T08:24:56Z</time></trkpt><trkpt lat="44.63558408956106" lon="8.112639671499897"><ele>604.0</ele><time>2026-05-01T08:24:57Z</time></trkpt><trkpt lat="44.63546117282738" lon="8.112562887335068"><ele>604.0</ele><time>2026-05-01T08:24:58Z</time></trkpt><trkpt lat="44.635328340652784" lon="8.112522176907536"><ele>604.0</ele><time>2026-05-01T08:24:59Z</time></trkpt><trkpt lat="44.63518198133649" lon="8.112532799683862"><ele>604.0</ele><time>2026-05-01T08:25:00Z</time></trkpt><trkpt lat="44.63502848923415" lon="8.112554027490532"><ele>605.0</ele><time>2026-05-01T08:25:01Z</time></trkpt><trkpt lat="44.634870999766314" lon="8.112518438751398"><ele>606.0</ele><time>2026-05-01T08:25:02Z</time></trkpt><trkpt lat="44.63472122080923" lon="8.112470784737685"><ele>607.0</ele><time>2026-05-01T08:25:03Z</time></trkpt><trkpt lat="44.63457860247641" lon="8.11242456506857"><ele>605.75</ele><time>2026-05-01T08:25:04Z</time></trkpt><trkpt lat="44.63445105926983" lon="8.112333626998668"><ele>604.5</ele><time>2026-05-01T08:25:05Z</time></trkpt><trkpt lat="44.634328369520205" lon="8.11224078896903"><ele>603.25</ele><time>2026-05-01T08:25:06Z</time></trkpt><trkpt lat="44.63420758986766" lon="8.112142330172768"><ele>602.0</ele><time>2026-05-01T08:25:07Z</time></trkpt><trkpt lat="44.634095459674555" lon="8.112030102966427"><ele>602.0</ele><time>2026-05-01T08:25:08Z</time></trkpt><trkpt lat="44.633997408793306" lon="8.111898806178322"><ele>602.0</ele><time>2026-05-01T08:25:09Z</time></trkpt><trkpt lat="44.6339083603487" lon="8.111758515474003"><ele>602.0</ele><time>2026-05-01T08:25:10Z</time></trkpt><trkpt lat="44.63382670267116" lon="8.11161427813719"><ele>602.0</ele><time>2026-05-01T08:25:11Z</time></trkpt><trkpt lat="44.63375271069232" lon="8.111467926553006"><ele>601.2</ele><time>2026-05-01T08:25:12Z</time></trkpt><trkpt lat="44.63368846448646" lon="8.111336822794827"><ele>600.4000000000001</ele><time>2026-05-01T08:25:13Z</time></trkpt><trkpt lat="44.63364574157883" lon="8.111240798656539"><ele>599.5999999999999</ele><time>2026-05-01T08:25:14Z</time></trkpt><trkpt lat="44.633615221041204" lon="8.111161920728236"><ele>598.8</ele><time>2026-05-01T08:25:16Z</time></trkpt><trkpt lat="44.63353854008976" lon="8.111044280437607"><ele>598.0</ele><time>2026-05-01T08:25:18.999Z</time></trkpt><trkpt lat="44.63337068251149" lon="8.111078457415474"><ele>598.0</ele><time>2026-05-01T08:25:20.999Z</time></trkpt><trkpt lat="44.633275303763455" lon="8.111122841941295"><ele>598.0</ele><time>2026-05-01T08:25:21.999Z</time></trkpt><trkpt lat="44.63320939817604" lon="8.111267985786174"><ele>598.0</ele><time>2026-05-01T08:25:22.999Z</time></trkpt><trkpt lat="44.633157769828905" lon="8.111426976463497"><ele>598.0</ele><time>2026-05-01T08:25:23.999Z</time></trkpt><trkpt lat="44.6331373466837" lon="8.111658115033515"><ele>599.3333333333334</ele><time>2026-05-01T08:25:24.999Z</time></trkpt><trkpt lat="44.63312542894532" lon="8.111901737039712"><ele>600.6666666666666</ele><time>2026-05-01T08:25:25.999Z</time></trkpt><trkpt lat="44.633106071776815" lon="8.112160832608527"><ele>602.0</ele><time>2026-05-01T08:25:26.999Z</time></trkpt><trkpt lat="44.63308150227564" lon="8.112441736703461"><ele>604.0</ele><time>2026-05-01T08:25:27.999Z</time></trkpt><trkpt lat="44.633057484811026" lon="8.112707297024455"><ele>606.0</ele><time>2026-05-01T08:25:28.999Z</time></trkpt><trkpt lat="44.633036465181775" lon="8.11295925221858"><ele>608.0</ele><time>2026-05-01T08:25:29.999Z</time></trkpt><trkpt lat="44.6330187920429" lon="8.113202353973907"><ele>610.6666666666666</ele><time>2026-05-01T08:25:30.999Z</time></trkpt><trkpt lat="44.63299916384927" lon="8.113428665219756"><ele>613.3333333333334</ele><time>2026-05-01T08:25:31.999Z</time></trkpt><trkpt lat="44.63294154899234" lon="8.113629703750554"><ele>616.0</ele><time>2026-05-01T08:25:32.999Z</time></trkpt><trkpt lat="44.63286061943739" lon="8.113810860925046"><ele>615.3333333333334</ele><time>2026-05-01T08:25:33.999Z</time></trkpt><trkpt lat="44.63273794402567" lon="8.113976470471549"><ele>614.6666666666666</ele><time>2026-05-01T08:25:34.999Z</time></trkpt><trkpt lat="44.63258628650521" lon="8.114123693902583"><ele>614.0</ele><time>2026-05-01T08:25:35.999Z</time></trkpt><trkpt lat="44.63241735039226" lon="8.114198321351235"><ele>614.0</ele><time>2026-05-01T08:25:36.999Z</time></trkpt><trkpt lat="44.63223823972024" lon="8.114223421485287"><ele>614.0</ele><time>2026-05-01T08:25:37.999Z</time></trkpt><trkpt lat="44.632051689639226" lon="8.114238908616871"><ele>614.0</ele><time>2026-05-01T08:25:38.999Z</time></trkpt><trkpt lat="44.631877574138905" lon="8.114294315462377"><ele>612.3333333333333</ele><time>2026-05-01T08:25:39.999Z</time></trkpt><trkpt lat="44.63170413432211" lon="8.114367514799943"><ele>610.6666666666666</ele><time>2026-05-01T08:25:40.999Z</time></trkpt><trkpt lat="44.631540536696996" lon="8.114485845571423"><ele>609.0</ele><time>2026-05-01T08:25:41.999Z</time></trkpt><trkpt lat="44.63137843524296" lon="8.114575935411835"><ele>609.0</ele><time>2026-05-01T08:25:42.999Z</time></trkpt><trkpt lat="44.63123409219234" lon="8.114677227242527"><ele>609.0</ele><time>2026-05-01T08:25:43.999Z</time></trkpt><trkpt lat="44.6311050401749" lon="8.114826105088255"><ele>609.0</ele><time>2026-05-01T08:25:44.999Z</time></trkpt><trkpt lat="44.630976224330716" lon="8.115003364265112"><ele>611.0</ele><time>2026-05-01T08:25:45.999Z</time></trkpt><trkpt lat="44.63085539986214" lon="8.115193550545673"><ele>613.0</ele><time>2026-05-01T08:25:46.999Z</time></trkpt><trkpt lat="44.63073722846915" lon="8.115373916015425"><ele>615.0</ele><time>2026-05-01T08:25:47.999Z</time></trkpt><trkpt lat="44.6306336973445" lon="8.115547424864028"><ele>615.0</ele><time>2026-05-01T08:25:48.999Z</time></trkpt><trkpt lat="44.63056503063297" lon="8.11572740488455"><ele>615.0</ele><time>2026-05-01T08:25:49.999Z</time></trkpt><trkpt lat="44.6305369303154" lon="8.115931816457184"><ele>615.0</ele><time>2026-05-01T08:25:50.999Z</time></trkpt><trkpt lat="44.63055880187474" lon="8.116149872171242"><ele>620.3333333333334</ele><time>2026-05-01T08:25:51.999Z</time></trkpt><trkpt lat="44.630611685589294" lon="8.116363301832186"><ele>625.6666666666667</ele><time>2026-05-01T08:25:52.999Z</time></trkpt><trkpt lat="44.63064337849178" lon="8.116570995698522"><ele>631.0</ele><time>2026-05-01T08:25:53.999Z</time></trkpt><trkpt lat="44.6306097408632" lon="8.116768261139926"><ele>631.0</ele><time>2026-05-01T08:25:54.999Z</time></trkpt><trkpt lat="44.63055154994662" lon="8.11696780078348"><ele>631.0</ele><time>2026-05-01T08:25:55.999Z</time></trkpt><trkpt lat="44.63050813013849" lon="8.117165536102435"><ele>631.0</ele><time>2026-05-01T08:25:56.999Z</time></trkpt><trkpt lat="44.630505987991754" lon="8.117331990628943"><ele>631.0</ele><time>2026-05-01T08:25:57.999Z</time></trkpt><trkpt lat="44.63056930946653" lon="8.117468084227434"><ele>629.5</ele><time>2026-05-01T08:25:58.999Z</time></trkpt><trkpt lat="44.63067178779397" lon="8.117540458630051"><ele>628.0</ele><time>2026-05-01T08:25:59.999Z</time></trkpt><trkpt lat="44.63078269859032" lon="8.117553824557117"><ele>626.5</ele><time>2026-05-01T08:26:00.999Z</time></trkpt><trkpt lat="44.63090306164114" lon="8.117570534412307"><ele>625.0</ele><time>2026-05-01T08:26:02Z</time></trkpt><trkpt lat="44.63104637879031" lon="8.117623385877307"><ele>629.3333333333334</ele><time>2026-05-01T08:26:03Z</time></trkpt><trkpt lat="44.63120635663448" lon="8.117701076908856"><ele>633.6666666666666</ele><time>2026-05-01T08:26:04Z</time></trkpt><trkpt lat="44.631370619451395" lon="8.117784232332228"><ele>638.0</ele><time>2026-05-01T08:26:05Z</time></trkpt><trkpt lat="44.63152362117055" lon="8.117849779670655"><ele>638.0</ele><time>2026-05-01T08:26:06Z</time></trkpt><trkpt lat="44.6316677274899" lon="8.117910577657108"><ele>638.0</ele><time>2026-05-01T08:26:07Z</time></trkpt><trkpt lat="44.63181067143998" lon="8.117978524253171"><ele>638.0</ele><time>2026-05-01T08:26:08Z</time></trkpt><trkpt lat="44.63195651248079" lon="8.118058379772487"><ele>635.3333333333333</ele><time>2026-05-01T08:26:09Z</time></trkpt><trkpt lat="44.63210167873474" lon="8.118156089549597"><ele>632.6666666666666</ele><time>2026-05-01T08:26:10Z</time></trkpt><trkpt lat="44.63223563025001" lon="8.11828078352027"><ele>630.0</ele><time>2026-05-01T08:26:11Z</time></trkpt><trkpt lat="44.63235173593446" lon="8.118438970683444"><ele>630.0</ele><time>2026-05-01T08:26:12Z</time></trkpt><trkpt lat="44.63244989042837" lon="8.118630828581455"><ele>630.0</ele><time>2026-05-01T08:26:13Z</time></trkpt><trkpt lat="44.632527975945024" lon="8.118833370906048"><ele>630.0</ele><time>2026-05-01T08:26:14Z</time></trkpt><trkpt lat="44.63259212116347" lon="8.119050279454626"><ele>627.0</ele><time>2026-05-01T08:26:15Z</time></trkpt><trkpt lat="44.63264709201596" lon="8.119280214954008"><ele>624.0</ele><time>2026-05-01T08:26:16Z</time></trkpt><trkpt lat="44.63269316331596" lon="8.119517075787908"><ele>621.0</ele><time>2026-05-01T08:26:17Z</time></trkpt><trkpt lat="44.63272132427218" lon="8.119759613637022"><ele>619.0</ele><time>2026-05-01T08:26:18Z</time></trkpt><trkpt lat="44.632705585547626" lon="8.120015145979643"><ele>617.0</ele><time>2026-05-01T08:26:19Z</time></trkpt><trkpt lat="44.632669061821446" lon="8.120255383272584"><ele>615.0</ele><time>2026-05-01T08:26:20Z</time></trkpt><trkpt lat="44.63261482236218" lon="8.120485899544807"><ele>615.0</ele><time>2026-05-01T08:26:21Z</time></trkpt><trkpt lat="44.63252261038015" lon="8.120704702212342"><ele>615.0</ele><time>2026-05-01T08:26:22Z</time></trkpt><trkpt lat="44.63239695620381" lon="8.120891739634134"><ele>615.0</ele><time>2026-05-01T08:26:23Z</time></trkpt><trkpt lat="44.63224925646117" lon="8.121056821164695"><ele>616.6666666666666</ele><time>2026-05-01T08:26:24Z</time></trkpt><trkpt lat="44.63209185182157" lon="8.121200322771774"><ele>618.3333333333333</ele><time>2026-05-01T08:26:25Z</time></trkpt><trkpt lat="44.63191751242992" lon="8.121332649854525"><ele>620.0</ele><time>2026-05-01T08:26:26Z</time></trkpt><trkpt lat="44.631727089260664" lon="8.121453024690593"><ele>619.0</ele><time>2026-05-01T08:26:27Z</time></trkpt><trkpt lat="44.63150635795655" lon="8.1215038603635"><ele>618.0</ele><time>2026-05-01T08:26:28Z</time></trkpt><trkpt lat="44.63125664778466" lon="8.12156679627428"><ele>612.0</ele><time>2026-05-01T08:26:29Z</time></trkpt><trkpt lat="44.63101969802059" lon="8.121624141192438"><ele>606.0</ele><time>2026-05-01T08:26:30Z</time></trkpt><trkpt lat="44.63079418158268" lon="8.121678719074431"><ele>606.0</ele><time>2026-05-01T08:26:31Z</time></trkpt><trkpt lat="44.63055887828204" lon="8.121736829910871"><ele>606.0</ele><time>2026-05-01T08:26:32Z</time></trkpt><trkpt lat="44.63040883554994" lon="8.121786552092706"><ele>606.0</ele><time>2026-05-01T08:26:34Z</time></trkpt><trkpt lat="44.63022235833579" lon="8.121829719913078"><ele>603.6666666666666</ele><time>2026-05-01T08:26:35Z</time></trkpt><trkpt lat="44.6300541650577" lon="8.121863468128401"><ele>601.3333333333333</ele><time>2026-05-01T08:26:36Z</time></trkpt><trkpt lat="44.6299058699087" lon="8.121895787848043"><ele>599.0</ele><time>2026-05-01T08:26:37Z</time></trkpt><trkpt lat="44.62977598805676" lon="8.121935286030046"><ele>599.0</ele><time>2026-05-01T08:26:38Z</time></trkpt><trkpt lat="44.62966197616122" lon="8.122029395148445"><ele>599.0</ele><time>2026-05-01T08:26:39Z</time></trkpt><trkpt lat="44.62957760990681" lon="8.122188610496112"><ele>599.0</ele><time>2026-05-01T08:26:40Z</time></trkpt><trkpt lat="44.62952234625405" lon="8.122416346561456"><ele>599.0</ele><time>2026-05-01T08:26:41Z</time></trkpt><trkpt lat="44.62946980949596" lon="8.122646251066058"><ele>596.6666666666666</ele><time>2026-05-01T08:26:42Z</time></trkpt><trkpt lat="44.629377442897415" lon="8.122830580820029"><ele>594.3333333333334</ele><time>2026-05-01T08:26:43Z</time></trkpt><trkpt lat="44.62928056984094" lon="8.122996288232084"><ele>592.0</ele><time>2026-05-01T08:26:44Z</time></trkpt><trkpt lat="44.629164740062265" lon="8.123123567285331"><ele>592.0</ele><time>2026-05-01T08:26:45Z</time></trkpt><trkpt lat="44.62903919475141" lon="8.123227768953658"><ele>592.0</ele><time>2026-05-01T08:26:46Z</time></trkpt><trkpt lat="44.62892381394592" lon="8.123352389791513"><ele>592.0</ele><time>2026-05-01T08:26:47Z</time></trkpt><trkpt lat="44.62880451049683" lon="8.123446793011896"><ele>592.0</ele><time>2026-05-01T08:26:48Z</time></trkpt><trkpt lat="44.62870695344311" lon="8.123553731730613"><ele>594.5</ele><time>2026-05-01T08:26:49Z</time></trkpt><trkpt lat="44.62865132759513" lon="8.123704285912982"><ele>597.0</ele><time>2026-05-01T08:26:50Z</time></trkpt><trkpt lat="44.62864409233728" lon="8.123880481420864"><ele>599.5</ele><time>2026-05-01T08:26:51Z</time></trkpt><trkpt lat="44.62867638464045" lon="8.12407355041399"><ele>602.0</ele><time>2026-05-01T08:26:52Z</time></trkpt><trkpt lat="44.628753534427375" lon="8.124265554436201"><ele>602.6666666666666</ele><time>2026-05-01T08:26:53Z</time></trkpt><trkpt lat="44.62885105824653" lon="8.124441840047982"><ele>603.3333333333334</ele><time>2026-05-01T08:26:54Z</time></trkpt><trkpt lat="44.628938660224904" lon="8.12461250665946"><ele>604.0</ele><time>2026-05-01T08:26:55Z</time></trkpt><trkpt lat="44.629018759156025" lon="8.124777615565026"><ele>600.25</ele><time>2026-05-01T08:26:56Z</time></trkpt><trkpt lat="44.62908810585082" lon="8.12495243664739"><ele>596.5</ele><time>2026-05-01T08:26:57Z</time></trkpt><trkpt lat="44.62913522004474" lon="8.125130397961126"><ele>592.75</ele><time>2026-05-01T08:26:58Z</time></trkpt><trkpt lat="44.62918397295657" lon="8.125282520769847"><ele>589.0</ele><time>2026-05-01T08:26:59Z</time></trkpt><trkpt lat="44.62925114013369" lon="8.125394521732401"><ele>589.0</ele><time>2026-05-01T08:27:00Z</time></trkpt><trkpt lat="44.62936646763992" lon="8.125476090047698"><ele>589.0</ele><time>2026-05-01T08:27:01Z</time></trkpt><trkpt lat="44.62951309724977" lon="8.125493695810281"><ele>589.0</ele><time>2026-05-01T08:27:02Z</time></trkpt><trkpt lat="44.62966186819523" lon="8.125488512587296"><ele>589.0</ele><time>2026-05-01T08:27:03Z</time></trkpt><trkpt lat="44.6298102396983" lon="8.125504445749064"><ele>592.25</ele><time>2026-05-01T08:27:04Z</time></trkpt><trkpt lat="44.62994318199113" lon="8.125520677591496"><ele>595.5</ele><time>2026-05-01T08:27:05Z</time></trkpt><trkpt lat="44.630071329132804" lon="8.12552879392003"><ele>598.75</ele><time>2026-05-01T08:27:06Z</time></trkpt><trkpt lat="44.63019666008985" lon="8.125541289667169"><ele>602.0</ele><time>2026-05-01T08:27:07Z</time></trkpt><trkpt lat="44.63031552699428" lon="8.125589377141814"><ele>602.5</ele><time>2026-05-01T08:27:08Z</time></trkpt><trkpt lat="44.6303922085141" lon="8.125737179122407"><ele>603.0</ele><time>2026-05-01T08:27:09Z</time></trkpt><trkpt lat="44.63042088705639" lon="8.125932762724116"><ele>603.5</ele><time>2026-05-01T08:27:10Z</time></trkpt><trkpt lat="44.63045371477268" lon="8.126156174075755"><ele>604.0</ele><time>2026-05-01T08:27:11Z</time></trkpt><trkpt lat="44.63050345248911" lon="8.126338560472743"><ele>604.0</ele><time>2026-05-01T08:27:12Z</time></trkpt><trkpt lat="44.63051115303087" lon="8.126533945380697"><ele>604.0</ele><time>2026-05-01T08:27:13Z</time></trkpt><trkpt lat="44.630535879745196" lon="8.12670868256003"><ele>604.0</ele><time>2026-05-01T08:27:14Z</time></trkpt><trkpt lat="44.63053389277127" lon="8.126894040369294"><ele>604.0</ele><time>2026-05-01T08:27:15Z</time></trkpt><trkpt lat="44.63048865057314" lon="8.127078045979028"><ele>600.0</ele><time>2026-05-01T08:27:16Z</time></trkpt><trkpt lat="44.630381831621136" lon="8.127218502804078"><ele>596.0</ele><time>2026-05-01T08:27:17Z</time></trkpt><trkpt lat="44.630263835459324" lon="8.12733204973075"><ele>592.0</ele><time>2026-05-01T08:27:18Z</time></trkpt><trkpt lat="44.63014278369909" lon="8.12746094735118"><ele>588.0</ele><time>2026-05-01T08:27:19Z</time></trkpt><trkpt lat="44.63000911165863" lon="8.127569047716424"><ele>582.0</ele><time>2026-05-01T08:27:20Z</time></trkpt><trkpt lat="44.629881516885284" lon="8.127691206443632"><ele>576.0</ele><time>2026-05-01T08:27:21Z</time></trkpt><trkpt lat="44.6297597780487" lon="8.12780816946419"><ele>570.0</ele><time>2026-05-01T08:27:22Z</time></trkpt><trkpt lat="44.62964200411424" lon="8.127924990061635"><ele>564.0</ele><time>2026-05-01T08:27:23Z</time></trkpt><trkpt lat="44.62953361920841" lon="8.128064400533685"><ele>560.0</ele><time>2026-05-01T08:27:24Z</time></trkpt><trkpt lat="44.629435761100545" lon="8.128243941130355"><ele>556.0</ele><time>2026-05-01T08:27:25Z</time></trkpt><trkpt lat="44.62934717385404" lon="8.128440509813826"><ele>552.0</ele><time>2026-05-01T08:27:26Z</time></trkpt><trkpt lat="44.62926371371849" lon="8.128640943363585"><ele>552.0</ele><time>2026-05-01T08:27:27Z</time></trkpt><trkpt lat="44.62918414248782" lon="8.128834990270239"><ele>552.0</ele><time>2026-05-01T08:27:28Z</time></trkpt><trkpt lat="44.6290752950617" lon="8.12899349952266"><ele>552.0</ele><time>2026-05-01T08:27:29Z</time></trkpt><trkpt lat="44.62896865983428" lon="8.129139830005952"><ele>549.3333333333334</ele><time>2026-05-01T08:27:30Z</time></trkpt><trkpt lat="44.62886328129991" lon="8.129288809434744"><ele>546.6666666666667</ele><time>2026-05-01T08:27:30.999Z</time></trkpt><trkpt lat="44.628729505948286" lon="8.129407519777748"><ele>544.0</ele><time>2026-05-01T08:27:31.999Z</time></trkpt><trkpt lat="44.628576689756834" lon="8.129487030044114"><ele>544.0</ele><time>2026-05-01T08:27:32.999Z</time></trkpt><trkpt lat="44.62842275208311" lon="8.129592848039673"><ele>544.0</ele><time>2026-05-01T08:27:33.999Z</time></trkpt><trkpt lat="44.628247386502814" lon="8.129625235525465"><ele>544.0</ele><time>2026-05-01T08:27:34.999Z</time></trkpt><trkpt lat="44.62807922347614" lon="8.12963157157687"><ele>544.0</ele><time>2026-05-01T08:27:35.999Z</time></trkpt><trkpt lat="44.62790795101043" lon="8.12964229272612"><ele>544.0</ele><time>2026-05-01T08:27:36.999Z</time></trkpt><trkpt lat="44.62773408578501" lon="8.129654748340677"><ele>544.0</ele><time>2026-05-01T08:27:37.999Z</time></trkpt><trkpt lat="44.62756376506475" lon="8.129662863911747"><ele>541.0</ele><time>2026-05-01T08:27:38.999Z</time></trkpt><trkpt lat="44.6273911126656" lon="8.129684907992573"><ele>538.0</ele><time>2026-05-01T08:27:39.999Z</time></trkpt><trkpt lat="44.62721464749701" lon="8.129715752961378"><ele>535.0</ele><time>2026-05-01T08:27:40.999Z</time></trkpt><trkpt lat="44.627042243262316" lon="8.129753634434286"><ele>531.6666666666667</ele><time>2026-05-01T08:27:41.999Z</time></trkpt><trkpt lat="44.62687301194063" lon="8.12979204433328"><ele>528.3333333333334</ele><time>2026-05-01T08:27:42.999Z</time></trkpt><trkpt lat="44.62670960083012" lon="8.129833913364045"><ele>525.0</ele><time>2026-05-01T08:27:43.999Z</time></trkpt><trkpt lat="44.626550466729356" lon="8.129872241821186"><ele>525.0</ele><time>2026-05-01T08:27:44.999Z</time></trkpt><trkpt lat="44.626400757426076" lon="8.129892136975903"><ele>525.0</ele><time>2026-05-01T08:27:45.999Z</time></trkpt><trkpt lat="44.626253039638065" lon="8.129875013376825"><ele>525.0</ele><time>2026-05-01T08:27:46.999Z</time></trkpt><trkpt lat="44.6261159707989" lon="8.129820271873163"><ele>525.0</ele><time>2026-05-01T08:27:47.999Z</time></trkpt><trkpt lat="44.625985784623765" lon="8.129766662142499"><ele>522.75</ele><time>2026-05-01T08:27:48.999Z</time></trkpt><trkpt lat="44.62585419164384" lon="8.12974894955077"><ele>520.5</ele><time>2026-05-01T08:27:49.999Z</time></trkpt><trkpt lat="44.625725333596" lon="8.129794936474116"><ele>518.25</ele><time>2026-05-01T08:27:50.999Z</time></trkpt><trkpt lat="44.625590596651115" lon="8.129884813629324"><ele>516.0</ele><time>2026-05-01T08:27:51.999Z</time></trkpt><trkpt lat="44.625444173921686" lon="8.130024037050536"><ele>520.0</ele><time>2026-05-01T08:27:52.999Z</time></trkpt><trkpt lat="44.625297776929145" lon="8.130154763256355"><ele>524.0</ele><time>2026-05-01T08:27:53.999Z</time></trkpt><trkpt lat="44.62515735748392" lon="8.130268698730546"><ele>528.0</ele><time>2026-05-01T08:27:54.999Z</time></trkpt><trkpt lat="44.62501621785351" lon="8.130373056517024"><ele>528.0</ele><time>2026-05-01T08:27:55.999Z</time></trkpt><trkpt lat="44.62487671631545" lon="8.13046586996373"><ele>528.0</ele><time>2026-05-01T08:27:56.999Z</time></trkpt><trkpt lat="44.624741819817736" lon="8.13054772796752"><ele>528.0</ele><time>2026-05-01T08:27:57.999Z</time></trkpt><trkpt lat="44.62461015850611" lon="8.130610856322528"><ele>528.0</ele><time>2026-05-01T08:27:58.999Z</time></trkpt><trkpt lat="44.62447676364903" lon="8.130610907594225"><ele>524.5</ele><time>2026-05-01T08:27:59.999Z</time></trkpt><trkpt lat="44.62434530716883" lon="8.13061673730721"><ele>521.0</ele><time>2026-05-01T08:28:00.999Z</time></trkpt><trkpt lat="44.624222201843494" lon="8.130632826789942"><ele>517.5</ele><time>2026-05-01T08:28:01.999Z</time></trkpt><trkpt lat="44.62411327923119" lon="8.130632025085763"><ele>514.0</ele><time>2026-05-01T08:28:02.999Z</time></trkpt><trkpt lat="44.62402203400403" lon="8.130643313063977"><ele>514.0</ele><time>2026-05-01T08:28:03.999Z</time></trkpt><trkpt lat="44.62394466328726" lon="8.130654484100157"><ele>514.0</ele><time>2026-05-01T08:28:04.999Z</time></trkpt><trkpt lat="44.62388210185708" lon="8.130624421513097"><ele>514.0</ele><time>2026-05-01T08:28:05.999Z</time></trkpt><trkpt lat="44.62387271016118" lon="8.13045204715927"><ele>514.0</ele><time>2026-05-01T08:28:08Z</time></trkpt><trkpt lat="44.623943417297305" lon="8.13037256154887"><ele>514.0</ele><time>2026-05-01T08:28:09Z</time></trkpt><trkpt lat="44.62404182179255" lon="8.130357671823795"><ele>514.0</ele><time>2026-05-01T08:28:10Z</time></trkpt><trkpt lat="44.62415497598684" lon="8.1302919474443"><ele>514.0</ele><time>2026-05-01T08:28:11Z</time></trkpt><trkpt lat="44.62428684262978" lon="8.130222951917508"><ele>514.0</ele><time>2026-05-01T08:28:12Z</time></trkpt><trkpt lat="44.62441761142202" lon="8.13014838490769"><ele>514.0</ele><time>2026-05-01T08:28:13Z</time></trkpt><trkpt lat="44.62454335996592" lon="8.130075048216339"><ele>511.5</ele><time>2026-05-01T08:28:14Z</time></trkpt><trkpt lat="44.62467198482006" lon="8.130000129652514"><ele>509.0</ele><time>2026-05-01T08:28:15Z</time></trkpt><trkpt lat="44.624808704725154" lon="8.12991085228587"><ele>506.5</ele><time>2026-05-01T08:28:16Z</time></trkpt><trkpt lat="44.62494635808184" lon="8.129821209085549"><ele>504.0</ele><time>2026-05-01T08:28:17Z</time></trkpt><trkpt lat="44.625089568576506" lon="8.129741079915464"><ele>504.0</ele><time>2026-05-01T08:28:18Z</time></trkpt><trkpt lat="44.62522524460093" lon="8.129672187305898"><ele>504.0</ele><time>2026-05-01T08:28:19Z</time></trkpt><trkpt lat="44.62534886987639" lon="8.129603864232235"><ele>504.0</ele><time>2026-05-01T08:28:20Z</time></trkpt><trkpt lat="44.62546454716794" lon="8.129534531963081"><ele>504.0</ele><time>2026-05-01T08:28:21Z</time></trkpt><trkpt lat="44.625573808386754" lon="8.129470168626678"><ele>506.4</ele><time>2026-05-01T08:28:22Z</time></trkpt><trkpt lat="44.62568001617733" lon="8.12940591984852"><ele>508.79999999999995</ele><time>2026-05-01T08:28:23Z</time></trkpt><trkpt lat="44.62578301735716" lon="8.129347405420628"><ele>511.20000000000005</ele><time>2026-05-01T08:28:24Z</time></trkpt><trkpt lat="44.62587833841843" lon="8.129300906654732"><ele>513.6</ele><time>2026-05-01T08:28:25Z</time></trkpt><trkpt lat="44.625956611411794" lon="8.129260894955262"><ele>516.0</ele><time>2026-05-01T08:28:26Z</time></trkpt><trkpt lat="44.62602487389799" lon="8.129203105741793"><ele>516.0</ele><time>2026-05-01T08:28:27Z</time></trkpt><trkpt lat="44.6260714495812" lon="8.129111161836864"><ele>516.0</ele><time>2026-05-01T08:28:28Z</time></trkpt><trkpt lat="44.62607925096719" lon="8.12899129962474"><ele>516.0</ele><time>2026-05-01T08:28:29Z</time></trkpt><trkpt lat="44.626033125553505" lon="8.128877516185035"><ele>516.0</ele><time>2026-05-01T08:28:30Z</time></trkpt><trkpt lat="44.62594684203882" lon="8.128796616024163"><ele>516.0</ele><time>2026-05-01T08:28:31Z</time></trkpt><trkpt lat="44.62581715912242" lon="8.128837964911218"><ele>508.33333333333337</ele><time>2026-05-01T08:28:32Z</time></trkpt><trkpt lat="44.62567628047059" lon="8.128905884266747"><ele>500.6666666666667</ele><time>2026-05-01T08:28:33Z</time></trkpt><trkpt lat="44.62552558083306" lon="8.1289760761711"><ele>493.0</ele><time>2026-05-01T08:28:34Z</time></trkpt><trkpt lat="44.62535705734414" lon="8.12901771938542"><ele>496.6666666666667</ele><time>2026-05-01T08:28:35Z</time></trkpt><trkpt lat="44.625179125534665" lon="8.129084753766783"><ele>500.33333333333337</ele><time>2026-05-01T08:28:36Z</time></trkpt><trkpt lat="44.624998006890706" lon="8.129175730043613"><ele>504.0</ele><time>2026-05-01T08:28:37Z</time></trkpt><trkpt lat="44.624816199231475" lon="8.129220813201444"><ele>504.0</ele><time>2026-05-01T08:28:38Z</time></trkpt><trkpt lat="44.62464615859466" lon="8.129284218164932"><ele>504.0</ele><time>2026-05-01T08:28:39Z</time></trkpt><trkpt lat="44.624484768728166" lon="8.129364834297608"><ele>504.0</ele><time>2026-05-01T08:28:40Z</time></trkpt><trkpt lat="44.6243209765955" lon="8.12942490156646"><ele>498.33333333333337</ele><time>2026-05-01T08:28:41Z</time></trkpt><trkpt lat="44.62415941164859" lon="8.129484252664941"><ele>492.6666666666667</ele><time>2026-05-01T08:28:42Z</time></trkpt><trkpt lat="44.623997150079546" lon="8.129519093526799"><ele>487.0</ele><time>2026-05-01T08:28:43Z</time></trkpt><trkpt lat="44.62385289463323" lon="8.129591294299601"><ele>487.0</ele><time>2026-05-01T08:28:44Z</time></trkpt><trkpt lat="44.623704061003274" lon="8.129579312556233"><ele>487.0</ele><time>2026-05-01T08:28:45Z</time></trkpt><trkpt lat="44.62356388693505" lon="8.129515918629636"><ele>487.0</ele><time>2026-05-01T08:28:46Z</time></trkpt><trkpt lat="44.62340863682567" lon="8.12946544774405"><ele>485.25</ele><time>2026-05-01T08:28:47Z</time></trkpt><trkpt lat="44.62326501864825" lon="8.129394668836264"><ele>483.5</ele><time>2026-05-01T08:28:48Z</time></trkpt><trkpt lat="44.62312809740587" lon="8.129346297207967"><ele>481.75</ele><time>2026-05-01T08:28:49Z</time></trkpt><trkpt lat="44.62299624616776" lon="8.129334878465729"><ele>480.0</ele><time>2026-05-01T08:28:50Z</time></trkpt><trkpt lat="44.622859644690195" lon="8.129360387819272"><ele>477.0</ele><time>2026-05-01T08:28:51Z</time></trkpt><trkpt lat="44.62271855800845" lon="8.129426447344803"><ele>474.0</ele><time>2026-05-01T08:28:52Z</time></trkpt><trkpt lat="44.62258367040333" lon="8.129495270359943"><ele>471.0</ele><time>2026-05-01T08:28:53Z</time></trkpt><trkpt lat="44.622455763850894" lon="8.129562615562536"><ele>468.0</ele><time>2026-05-01T08:28:54Z</time></trkpt><trkpt lat="44.62233792297073" lon="8.12964028215543"><ele>468.0</ele><time>2026-05-01T08:28:55Z</time></trkpt><trkpt lat="44.62223679551289" lon="8.129765612608912"><ele>468.0</ele><time>2026-05-01T08:28:56Z</time></trkpt><trkpt lat="44.62215765921795" lon="8.129944059224407"><ele>468.0</ele><time>2026-05-01T08:28:57Z</time></trkpt><trkpt lat="44.62210765364349" lon="8.130144689147047"><ele>468.0</ele><time>2026-05-01T08:28:58Z</time></trkpt><trkpt lat="44.62210113352404" lon="8.130352724889445"><ele>473.25</ele><time>2026-05-01T08:28:59Z</time></trkpt><trkpt lat="44.622126434623425" lon="8.130550528812817"><ele>478.5</ele><time>2026-05-01T08:29:00Z</time></trkpt><trkpt lat="44.6221774180236" lon="8.130731895315437"><ele>483.75</ele><time>2026-05-01T08:29:01Z</time></trkpt><trkpt lat="44.622218215228564" lon="8.13089643670756"><ele>489.0</ele><time>2026-05-01T08:29:02Z</time></trkpt><trkpt lat="44.622222589681634" lon="8.13107749371362"><ele>489.5</ele><time>2026-05-01T08:29:03Z</time></trkpt><trkpt lat="44.62215155116846" lon="8.131230613862957"><ele>490.0</ele><time>2026-05-01T08:29:04Z</time></trkpt><trkpt lat="44.622032187722105" lon="8.131298467948085"><ele>490.5</ele><time>2026-05-01T08:29:05Z</time></trkpt><trkpt lat="44.621906490250645" lon="8.131387596379483"><ele>491.0</ele><time>2026-05-01T08:29:06Z</time></trkpt><trkpt lat="44.621788483344204" lon="8.131485776619499"><ele>486.0</ele><time>2026-05-01T08:29:07Z</time></trkpt><trkpt lat="44.6216740332337" lon="8.131568895196637"><ele>481.0</ele><time>2026-05-01T08:29:08Z</time></trkpt><trkpt lat="44.62156605692594" lon="8.13165487696635"><ele>476.0</ele><time>2026-05-01T08:29:09Z</time></trkpt><trkpt lat="44.621456929830536" lon="8.131737590392463"><ele>471.0</ele><time>2026-05-01T08:29:10Z</time></trkpt><trkpt lat="44.62134684429406" lon="8.131811171461463"><ele>471.0</ele><time>2026-05-01T08:29:11Z</time></trkpt><trkpt lat="44.62125648652206" lon="8.131886438416272"><ele>471.0</ele><time>2026-05-01T08:29:12Z</time></trkpt><trkpt lat="44.621212779511275" lon="8.131991776149126"><ele>471.0</ele><time>2026-05-01T08:29:13Z</time></trkpt><trkpt lat="44.62120617418934" lon="8.132113261970398"><ele>471.0</ele><time>2026-05-01T08:29:14Z</time></trkpt><trkpt lat="44.62128782093985" lon="8.132231475819367"><ele>471.0</ele><time>2026-05-01T08:29:15Z</time></trkpt><trkpt lat="44.6213826565181" lon="8.132319774211787"><ele>471.0</ele><time>2026-05-01T08:29:16Z</time></trkpt><trkpt lat="44.621483855742405" lon="8.132366626223343"><ele>471.0</ele><time>2026-05-01T08:29:17Z</time></trkpt><trkpt lat="44.621568882512655" lon="8.132417987328445"><ele>471.0</ele><time>2026-05-01T08:29:18Z</time></trkpt><trkpt lat="44.62164697542618" lon="8.132478660418013"><ele>471.0</ele><time>2026-05-01T08:29:19Z</time></trkpt><trkpt lat="44.62172647584516" lon="8.132543623931486"><ele>471.0</ele><time>2026-05-01T08:29:20Z</time></trkpt><trkpt lat="44.62181574621654" lon="8.132613841539088"><ele>470.4</ele><time>2026-05-01T08:29:21Z</time></trkpt><trkpt lat="44.621907638372356" lon="8.132681608100771"><ele>469.8</ele><time>2026-05-01T08:29:22Z</time></trkpt><trkpt lat="44.62200183841362" lon="8.132746188424683"><ele>469.19999999999993</ele><time>2026-05-01T08:29:23Z</time></trkpt><trkpt lat="44.62209119494835" lon="8.132811048039223"><ele>468.59999999999997</ele><time>2026-05-01T08:29:24Z</time></trkpt><trkpt lat="44.62215101691342" lon="8.132919852983433"><ele>468.0</ele><time>2026-05-01T08:29:25Z</time></trkpt><trkpt lat="44.62214947933363" lon="8.133062044225"><ele>468.0</ele><time>2026-05-01T08:29:26Z</time></trkpt><trkpt lat="44.62207938291647" lon="8.133149519420286"><ele>467.99999999999994</ele><time>2026-05-01T08:29:26.999Z</time></trkpt><trkpt lat="44.62201443464554" lon="8.133205385174774"><ele>467.99999999999994</ele><time>2026-05-01T08:29:27.999Z</time></trkpt><trkpt lat="44.62191729312774" lon="8.133172269861298"><ele>468.0</ele><time>2026-05-01T08:29:28.999Z</time></trkpt><trkpt lat="44.621813903379554" lon="8.133119324259411"><ele>468.0</ele><time>2026-05-01T08:29:29.999Z</time></trkpt><trkpt lat="44.62170068874925" lon="8.133095933836698"><ele>468.0</ele><time>2026-05-01T08:29:30.999Z</time></trkpt><trkpt lat="44.62159698402214" lon="8.13310080046095"><ele>468.0</ele><time>2026-05-01T08:29:31.999Z</time></trkpt><trkpt lat="44.621494336431695" lon="8.133148470080744"><ele>468.0</ele><time>2026-05-01T08:29:32.999Z</time></trkpt><trkpt lat="44.62139409299359" lon="8.13323902640824"><ele>468.0</ele><time>2026-05-01T08:29:33.999Z</time></trkpt><trkpt lat="44.621299506837936" lon="8.13336298538767"><ele>465.25</ele><time>2026-05-01T08:29:34.999Z</time></trkpt><trkpt lat="44.62118755566805" lon="8.133472778477337"><ele>462.5</ele><time>2026-05-01T08:29:35.999Z</time></trkpt><trkpt lat="44.621083381364485" lon="8.133600729480785"><ele>459.75</ele><time>2026-05-01T08:29:36.999Z</time></trkpt><trkpt lat="44.6209723906493" lon="8.133732071317667"><ele>457.0</ele><time>2026-05-01T08:29:37.999Z</time></trkpt><trkpt lat="44.62085398389096" lon="8.133864711523941"><ele>455.6666666666667</ele><time>2026-05-01T08:29:38.999Z</time></trkpt><trkpt lat="44.6207171108078" lon="8.13397073306399"><ele>454.33333333333337</ele><time>2026-05-01T08:29:39.999Z</time></trkpt><trkpt lat="44.620572474401584" lon="8.134050021102247"><ele>453.0</ele><time>2026-05-01T08:29:40.999Z</time></trkpt><trkpt lat="44.620425991547" lon="8.134124409554444"><ele>447.0</ele><time>2026-05-01T08:29:41.999Z</time></trkpt><trkpt lat="44.6202773136191" lon="8.134199912704211"><ele>441.0</ele><time>2026-05-01T08:29:42.999Z</time></trkpt><trkpt lat="44.620125280278536" lon="8.134277119808484"><ele>435.0</ele><time>2026-05-01T08:29:43.999Z</time></trkpt><trkpt lat="44.61997380473" lon="8.13435535289657"><ele>435.0</ele><time>2026-05-01T08:29:44.999Z</time></trkpt><trkpt lat="44.6198469596585" lon="8.134443278042696"><ele>435.0</ele><time>2026-05-01T08:29:45.999Z</time></trkpt><trkpt lat="44.61972517199916" lon="8.134507785894954"><ele>435.0</ele><time>2026-05-01T08:29:46.999Z</time></trkpt><trkpt lat="44.61961726399049" lon="8.134581785708422"><ele>435.0</ele><time>2026-05-01T08:29:47.999Z</time></trkpt><trkpt lat="44.619530321230144" lon="8.134692218385792"><ele>435.4</ele><time>2026-05-01T08:29:48.999Z</time></trkpt><trkpt lat="44.619471139644446" lon="8.134819317345016"><ele>435.8</ele><time>2026-05-01T08:29:49.999Z</time></trkpt><trkpt lat="44.61943032012089" lon="8.13493406125316"><ele>436.20000000000005</ele><time>2026-05-01T08:29:50.999Z</time></trkpt><trkpt lat="44.619343671482376" lon="8.134972626388054"><ele>436.6</ele><time>2026-05-01T08:29:51.999Z</time></trkpt><trkpt lat="44.61923928533103" lon="8.134937591264583"><ele>437.0</ele><time>2026-05-01T08:29:52.999Z</time></trkpt><trkpt lat="44.61914260894797" lon="8.134794268401016"><ele>433.0</ele><time>2026-05-01T08:29:53.999Z</time></trkpt><trkpt lat="44.61902336960035" lon="8.134703424772944"><ele>429.0</ele><time>2026-05-01T08:29:54.999Z</time></trkpt><trkpt lat="44.618911299476444" lon="8.134649596558754"><ele>425.0</ele><time>2026-05-01T08:29:55.999Z</time></trkpt><trkpt lat="44.61878625224607" lon="8.134617522731382"><ele>421.0</ele><time>2026-05-01T08:29:56.999Z</time></trkpt><trkpt lat="44.61865524572267" lon="8.134614340601178"><ele>416.8</ele><time>2026-05-01T08:29:57.999Z</time></trkpt><trkpt lat="44.618540739646946" lon="8.134611323595113"><ele>412.6</ele><time>2026-05-01T08:29:58.999Z</time></trkpt><trkpt lat="44.618428958711824" lon="8.13460584110345"><ele>408.4</ele><time>2026-05-01T08:29:59.999Z</time></trkpt><trkpt lat="44.6183183149213" lon="8.134604644980156"><ele>404.2</ele><time>2026-05-01T08:30:00.999Z</time></trkpt><trkpt lat="44.61821074635798" lon="8.13463231377141"><ele>400.0</ele><time>2026-05-01T08:30:01.999Z</time></trkpt><trkpt lat="44.61811649089893" lon="8.134712595640824"><ele>400.0</ele><time>2026-05-01T08:30:02.999Z</time></trkpt><trkpt lat="44.61805814887694" lon="8.134854250602112"><ele>400.0</ele><time>2026-05-01T08:30:03.999Z</time></trkpt><trkpt lat="44.61803678263694" lon="8.135025469545441"><ele>400.0</ele><time>2026-05-01T08:30:04.999Z</time></trkpt><trkpt lat="44.61801750704876" lon="8.135221815292077"><ele>400.0</ele><time>2026-05-01T08:30:05.999Z</time></trkpt><trkpt lat="44.6179966065832" lon="8.135431341584951"><ele>399.0</ele><time>2026-05-01T08:30:06.999Z</time></trkpt><trkpt lat="44.61795799230456" lon="8.13564020317883"><ele>398.0</ele><time>2026-05-01T08:30:07.999Z</time></trkpt><trkpt lat="44.61790426220769" lon="8.135832193134267"><ele>397.0</ele><time>2026-05-01T08:30:08.999Z</time></trkpt><trkpt lat="44.617820067511396" lon="8.135990043921979"><ele>396.0</ele><time>2026-05-01T08:30:09.999Z</time></trkpt><trkpt lat="44.61772609167167" lon="8.136128913089284"><ele>396.0</ele><time>2026-05-01T08:30:10.999Z</time></trkpt><trkpt lat="44.61758117856365" lon="8.1361672574515"><ele>396.0</ele><time>2026-05-01T08:30:12Z</time></trkpt><trkpt lat="44.61743884309741" lon="8.136234673870948"><ele>396.0</ele><time>2026-05-01T08:30:13Z</time></trkpt><trkpt lat="44.61730888363591" lon="8.136348926599291"><ele>396.0</ele><time>2026-05-01T08:30:14Z</time></trkpt><trkpt lat="44.61720242831733" lon="8.136505484968982"><ele>396.0</ele><time>2026-05-01T08:30:15Z</time></trkpt><trkpt lat="44.61710346553812" lon="8.136652627361096"><ele>396.0</ele><time>2026-05-01T08:30:16Z</time></trkpt><trkpt lat="44.617005701593214" lon="8.13678938938627"><ele>396.0</ele><time>2026-05-01T08:30:17Z</time></trkpt><trkpt lat="44.61690778232795" lon="8.13694888819813"><ele>395.75</ele><time>2026-05-01T08:30:18Z</time></trkpt><trkpt lat="44.61682439751521" lon="8.13712665602802"><ele>395.5</ele><time>2026-05-01T08:30:19Z</time></trkpt><trkpt lat="44.61676304088446" lon="8.137308769397775"><ele>395.25</ele><time>2026-05-01T08:30:20Z</time></trkpt><trkpt lat="44.61670590046731" lon="8.137486594363521"><ele>395.0</ele><time>2026-05-01T08:30:21Z</time></trkpt><trkpt lat="44.6166445782924" lon="8.137651433624544"><ele>395.0</ele><time>2026-05-01T08:30:22Z</time></trkpt><trkpt lat="44.61658812937494" lon="8.13781087983665"><ele>395.0</ele><time>2026-05-01T08:30:23Z</time></trkpt><trkpt lat="44.616545603673295" lon="8.137973543696454"><ele>395.0</ele><time>2026-05-01T08:30:24Z</time></trkpt><trkpt lat="44.61657628047211" lon="8.13813529209666"><ele>395.0</ele><time>2026-05-01T08:30:25Z</time></trkpt><trkpt lat="44.61662984208805" lon="8.138286519567032"><ele>397.0</ele><time>2026-05-01T08:30:26Z</time></trkpt><trkpt lat="44.61668672531217" lon="8.138418463142719"><ele>399.0</ele><time>2026-05-01T08:30:27Z</time></trkpt><trkpt lat="44.61668533222268" lon="8.138548750960949"><ele>401.0</ele><time>2026-05-01T08:30:28Z</time></trkpt><trkpt lat="44.616622020618344" lon="8.138635887161932"><ele>403.0</ele><time>2026-05-01T08:30:29Z</time></trkpt><trkpt lat="44.616515163144975" lon="8.138622268692691"><ele>405.0</ele><time>2026-05-01T08:30:30Z</time></trkpt><trkpt lat="44.61641487706304" lon="8.13864858160614"><ele>405.0</ele><time>2026-05-01T08:30:31Z</time></trkpt><trkpt lat="44.616289775179055" lon="8.13864201339322"><ele>405.0</ele><time>2026-05-01T08:30:32Z</time></trkpt><trkpt lat="44.616161322335664" lon="8.138673451582548"><ele>405.0</ele><time>2026-05-01T08:30:33Z</time></trkpt><trkpt lat="44.616043966925155" lon="8.138774590137741"><ele>405.0</ele><time>2026-05-01T08:30:34Z</time></trkpt><trkpt lat="44.61595922794293" lon="8.138929424950955"><ele>400.5</ele><time>2026-05-01T08:30:35Z</time></trkpt><trkpt lat="44.61589657636488" lon="8.139091778549615"><ele>396.0</ele><time>2026-05-01T08:30:36Z</time></trkpt><trkpt lat="44.61580965792056" lon="8.139220734286333"><ele>391.5</ele><time>2026-05-01T08:30:37Z</time></trkpt><trkpt lat="44.61573593716462" lon="8.139369000237329"><ele>387.0</ele><time>2026-05-01T08:30:38Z</time></trkpt><trkpt lat="44.6156956978921" lon="8.139541667546492"><ele>387.0</ele><time>2026-05-01T08:30:39Z</time></trkpt><trkpt lat="44.615673520995394" lon="8.139714584093872"><ele>387.0</ele><time>2026-05-01T08:30:40Z</time></trkpt><trkpt lat="44.615633484966274" lon="8.139867855055252"><ele>387.0</ele><time>2026-05-01T08:30:41Z</time></trkpt><trkpt lat="44.615509189563916" lon="8.13993543065484"><ele>387.0</ele><time>2026-05-01T08:30:42Z</time></trkpt><trkpt lat="44.615371003775195" lon="8.140010876165377"><ele>380.3333333333333</ele><time>2026-05-01T08:30:43Z</time></trkpt><trkpt lat="44.61524377132776" lon="8.140147604209453"><ele>373.66666666666663</ele><time>2026-05-01T08:30:44Z</time></trkpt><trkpt lat="44.61510965256517" lon="8.140283530713473"><ele>367.0</ele><time>2026-05-01T08:30:45Z</time></trkpt><trkpt lat="44.61499123477899" lon="8.140435397501198"><ele>367.0</ele><time>2026-05-01T08:30:46Z</time></trkpt><trkpt lat="44.61485948473801" lon="8.140551289095567"><ele>367.0</ele><time>2026-05-01T08:30:47Z</time></trkpt><trkpt lat="44.61474538865392" lon="8.14070141682396"><ele>367.0</ele><time>2026-05-01T08:30:48Z</time></trkpt><trkpt lat="44.61462088435001" lon="8.140840270664478"><ele>363.3333333333333</ele><time>2026-05-01T08:30:49Z</time></trkpt><trkpt lat="44.614494004149535" lon="8.140981580945835"><ele>359.6666666666667</ele><time>2026-05-01T08:30:50Z</time></trkpt><trkpt lat="44.61436747420478" lon="8.141124067070368"><ele>356.0</ele><time>2026-05-01T08:30:51Z</time></trkpt><trkpt lat="44.614238065230744" lon="8.141267617945052"><ele>356.0</ele><time>2026-05-01T08:30:52Z</time></trkpt><trkpt lat="44.61410349216132" lon="8.141389720065849"><ele>356.0</ele><time>2026-05-01T08:30:53Z</time></trkpt><trkpt lat="44.61397202724489" lon="8.141535020553423"><ele>356.0</ele><time>2026-05-01T08:30:54Z</time></trkpt><trkpt lat="44.61385153166744" lon="8.141668554794013"><ele>354.75</ele><time>2026-05-01T08:30:55Z</time></trkpt><trkpt lat="44.61373373888383" lon="8.141799417965567"><ele>353.5</ele><time>2026-05-01T08:30:56Z</time></trkpt><trkpt lat="44.61361803544517" lon="8.141927959925448"><ele>352.25</ele><time>2026-05-01T08:30:57Z</time></trkpt><trkpt lat="44.61350394058148" lon="8.142053778822731"><ele>351.0</ele><time>2026-05-01T08:30:58Z</time></trkpt><trkpt lat="44.61339075899415" lon="8.142177407405411"><ele>351.0</ele><time>2026-05-01T08:30:59Z</time></trkpt><trkpt lat="44.61328010993361" lon="8.142298269686322"><ele>351.0</ele><time>2026-05-01T08:31:00Z</time></trkpt><trkpt lat="44.61317916902231" lon="8.142410239714994"><ele>351.0</ele><time>2026-05-01T08:31:01Z</time></trkpt><trkpt lat="44.61308903348683" lon="8.142520248379938"><ele>351.0</ele><time>2026-05-01T08:31:02Z</time></trkpt><trkpt lat="44.613037352396496" lon="8.142666882251316"><ele>355.75</ele><time>2026-05-01T08:31:03Z</time></trkpt><trkpt lat="44.61300566580596" lon="8.142818705941707"><ele>360.5</ele><time>2026-05-01T08:31:04Z</time></trkpt><trkpt lat="44.61300864256568" lon="8.142994966106812"><ele>365.25</ele><time>2026-05-01T08:31:05Z</time></trkpt><trkpt lat="44.61306008822896" lon="8.143165406416838"><ele>370.0</ele><time>2026-05-01T08:31:06Z</time></trkpt><trkpt lat="44.61314051258768" lon="8.143324651086965"><ele>370.75</ele><time>2026-05-01T08:31:07Z</time></trkpt><trkpt lat="44.61320860413539" lon="8.143487011173253"><ele>371.5</ele><time>2026-05-01T08:31:08Z</time></trkpt><trkpt lat="44.61327719059301" lon="8.143636941704758"><ele>372.25</ele><time>2026-05-01T08:31:09Z</time></trkpt><trkpt lat="44.61334554438254" lon="8.143786363622212"><ele>373.0</ele><time>2026-05-01T08:31:10Z</time></trkpt><trkpt lat="44.61342377760024" lon="8.143923423355998"><ele>375.75</ele><time>2026-05-01T08:31:11Z</time></trkpt><trkpt lat="44.613485742556506" lon="8.144066598479647"><ele>378.5</ele><time>2026-05-01T08:31:12Z</time></trkpt><trkpt lat="44.613550839512236" lon="8.144201857998455"><ele>381.25</ele><time>2026-05-01T08:31:13Z</time></trkpt><trkpt lat="44.61361711656032" lon="8.144339657388528"><ele>384.0</ele><time>2026-05-01T08:31:14Z</time></trkpt><trkpt lat="44.61368745519812" lon="8.14447436587717"><ele>384.0</ele><time>2026-05-01T08:31:15Z</time></trkpt><trkpt lat="44.613782233571655" lon="8.144573223317435"><ele>384.0</ele><time>2026-05-01T08:31:16Z</time></trkpt><trkpt lat="44.613886049279316" lon="8.144640405944532"><ele>384.0</ele><time>2026-05-01T08:31:17Z</time></trkpt><trkpt lat="44.613974556606635" lon="8.144681588570268"><ele>384.0</ele><time>2026-05-01T08:31:18Z</time></trkpt><trkpt lat="44.614040375854735" lon="8.14474273334957"><ele>384.0</ele><time>2026-05-01T08:31:19Z</time></trkpt><trkpt lat="44.61412010886875" lon="8.1448515966373"><ele>384.0</ele><time>2026-05-01T08:31:21Z</time></trkpt><trkpt lat="44.61408453119285" lon="8.14493433250411"><ele>384.0</ele><time>2026-05-01T08:31:22Z</time></trkpt><trkpt lat="44.61401403935251" lon="8.14496883933967"><ele>384.0</ele><time>2026-05-01T08:31:23Z</time></trkpt><trkpt lat="44.61393604657085" lon="8.144921782336475"><ele>384.0</ele><time>2026-05-01T08:31:24Z</time></trkpt><trkpt lat="44.61387442120106" lon="8.144824841343544"><ele>384.0</ele><time>2026-05-01T08:31:25Z</time></trkpt><trkpt lat="44.61379619958344" lon="8.144721032663"><ele>384.0</ele><time>2026-05-01T08:31:26Z</time></trkpt><trkpt lat="44.613700123825694" lon="8.144626790312996"><ele>376.25</ele><time>2026-05-01T08:31:27Z</time></trkpt><trkpt lat="44.613587127693165" lon="8.144523589828312"><ele>368.5</ele><time>2026-05-01T08:31:28Z</time></trkpt><trkpt lat="44.613466979652635" lon="8.14440761340394"><ele>360.75</ele><time>2026-05-01T08:31:29Z</time></trkpt><trkpt lat="44.613342975081096" lon="8.14428418403208"><ele>353.0</ele><time>2026-05-01T08:31:29.999Z</time></trkpt><trkpt lat="44.61321189976881" lon="8.144158529829967"><ele>359.6666666666667</ele><time>2026-05-01T08:31:30.999Z</time></trkpt><trkpt lat="44.61307724919559" lon="8.144033477037055"><ele>366.3333333333333</ele><time>2026-05-01T08:31:31.999Z</time></trkpt><trkpt lat="44.612951707713556" lon="8.143912406034358"><ele>373.0</ele><time>2026-05-01T08:31:32.999Z</time></trkpt><trkpt lat="44.61283003684332" lon="8.143799644117745"><ele>365.0</ele><time>2026-05-01T08:31:33.999Z</time></trkpt><trkpt lat="44.61271338773893" lon="8.143687830122474"><ele>357.0</ele><time>2026-05-01T08:31:34.999Z</time></trkpt><trkpt lat="44.612604577905415" lon="8.143580770901282"><ele>349.0</ele><time>2026-05-01T08:31:35.999Z</time></trkpt><trkpt lat="44.612516109498294" lon="8.143480178203417"><ele>341.0</ele><time>2026-05-01T08:31:36.999Z</time></trkpt><trkpt lat="44.61244172265237" lon="8.143390481584763"><ele>341.0</ele><time>2026-05-01T08:31:37.999Z</time></trkpt><trkpt lat="44.61237446558106" lon="8.143315906595461"><ele>341.0</ele><time>2026-05-01T08:31:38.999Z</time></trkpt><trkpt lat="44.61229930887092" lon="8.143278417053372"><ele>341.0</ele><time>2026-05-01T08:31:39.999Z</time></trkpt><trkpt lat="44.612218651924486" lon="8.14329424920841"><ele>341.0</ele><time>2026-05-01T08:31:40.999Z</time></trkpt><trkpt lat="44.612161876169836" lon="8.143386790906947"><ele>341.0</ele><time>2026-05-01T08:31:41.999Z</time></trkpt><trkpt lat="44.612163793198086" lon="8.143522508508145"><ele>341.0</ele><time>2026-05-01T08:31:42.999Z</time></trkpt><trkpt lat="44.61218528031981" lon="8.143655768398643"><ele>341.0</ele><time>2026-05-01T08:31:43.999Z</time></trkpt><trkpt lat="44.61228025538707" lon="8.143754977875485"><ele>341.0</ele><time>2026-05-01T08:31:44.999Z</time></trkpt><trkpt lat="44.61234974629427" lon="8.143864586537171"><ele>341.0</ele><time>2026-05-01T08:31:45.999Z</time></trkpt><trkpt lat="44.612374555061436" lon="8.14401510092479"><ele>341.0</ele><time>2026-05-01T08:31:46.999Z</time></trkpt><trkpt lat="44.61237525284339" lon="8.144179664300896"><ele>338.5</ele><time>2026-05-01T08:31:47.999Z</time></trkpt><trkpt lat="44.61236642726426" lon="8.144348482271198"><ele>336.0</ele><time>2026-05-01T08:31:48.999Z</time></trkpt><trkpt lat="44.61237100695797" lon="8.144525807644845"><ele>333.5</ele><time>2026-05-01T08:31:49.999Z</time></trkpt><trkpt lat="44.61236009842578" lon="8.14470909672443"><ele>331.0</ele><time>2026-05-01T08:31:50.999Z</time></trkpt><trkpt lat="44.61235060421323" lon="8.144901777755374"><ele>329.0</ele><time>2026-05-01T08:31:51.999Z</time></trkpt><trkpt lat="44.61233931553733" lon="8.14510394061998"><ele>327.0</ele><time>2026-05-01T08:31:52.999Z</time></trkpt><trkpt lat="44.61232753856811" lon="8.145311399830973"><ele>325.0</ele><time>2026-05-01T08:31:53.999Z</time></trkpt><trkpt lat="44.61231715350995" lon="8.145525433784785"><ele>323.0</ele><time>2026-05-01T08:31:54.999Z</time></trkpt><trkpt lat="44.61230739720192" lon="8.14573390852705"><ele>323.0</ele><time>2026-05-01T08:31:55.999Z</time></trkpt><trkpt lat="44.612297033228785" lon="8.145927248563401"><ele>323.0</ele><time>2026-05-01T08:31:56.999Z</time></trkpt><trkpt lat="44.61229016407705" lon="8.146110914132151"><ele>323.0</ele><time>2026-05-01T08:31:57.999Z</time></trkpt><trkpt lat="44.61228325352754" lon="8.146280635128752"><ele>323.0</ele><time>2026-05-01T08:31:58.999Z</time></trkpt><trkpt lat="44.61227442070051" lon="8.146441661658763"><ele>324.2</ele><time>2026-05-01T08:31:59.999Z</time></trkpt><trkpt lat="44.61226461755151" lon="8.14659131408817"><ele>325.4</ele><time>2026-05-01T08:32:00.999Z</time></trkpt><trkpt lat="44.61225575965936" lon="8.146734056188183"><ele>326.59999999999997</ele><time>2026-05-01T08:32:01.999Z</time></trkpt><trkpt lat="44.61225010281775" lon="8.146862642698393"><ele>327.79999999999995</ele><time>2026-05-01T08:32:02.999Z</time></trkpt><trkpt lat="44.61224596494852" lon="8.146984521084253"><ele>329.0</ele><time>2026-05-01T08:32:03.999Z</time></trkpt><trkpt lat="44.61224244399562" lon="8.147084382014189"><ele>329.0</ele><time>2026-05-01T08:32:04.999Z</time></trkpt><trkpt lat="44.61223297223709" lon="8.147178800114856"><ele>329.0</ele><time>2026-05-01T08:32:05.999Z</time></trkpt><trkpt lat="44.612232841994754" lon="8.147284755804908"><ele>329.0</ele><time>2026-05-01T08:32:06.999Z</time></trkpt><trkpt lat="44.612224797219376" lon="8.147405543033157"><ele>329.0</ele><time>2026-05-01T08:32:07.999Z</time></trkpt><trkpt lat="44.61221766711793" lon="8.14754170093007"><ele>329.0</ele><time>2026-05-01T08:32:08.999Z</time></trkpt><trkpt lat="44.61221077720631" lon="8.147689337470526"><ele>329.0</ele><time>2026-05-01T08:32:09.999Z</time></trkpt><trkpt lat="44.61222593892862" lon="8.147839659800105"><ele>330.25</ele><time>2026-05-01T08:32:10.999Z</time></trkpt><trkpt lat="44.61228705309692" lon="8.147986092410664"><ele>331.5</ele><time>2026-05-01T08:32:11.999Z</time></trkpt><trkpt lat="44.61238150000168" lon="8.148133573081916"><ele>332.75</ele><time>2026-05-01T08:32:12.999Z</time></trkpt><trkpt lat="44.61249142106043" lon="8.148275053366254"><ele>334.0</ele><time>2026-05-01T08:32:13.999Z</time></trkpt><trkpt lat="44.612602114743126" lon="8.14842350082025"><ele>333.75</ele><time>2026-05-01T08:32:14.999Z</time></trkpt><trkpt lat="44.61271112485192" lon="8.148575200429903"><ele>333.5</ele><time>2026-05-01T08:32:15.999Z</time></trkpt><trkpt lat="44.61282047143779" lon="8.148703783995144"><ele>333.25</ele><time>2026-05-01T08:32:16.999Z</time></trkpt><trkpt lat="44.61294276656656" lon="8.148796497880676"><ele>333.0</ele><time>2026-05-01T08:32:18Z</time></trkpt><trkpt lat="44.61307708923357" lon="8.14883308956064"><ele>333.0</ele><time>2026-05-01T08:32:19Z</time></trkpt><trkpt lat="44.61319708088604" lon="8.148854437711215"><ele>333.0</ele><time>2026-05-01T08:32:20Z</time></trkpt><trkpt lat="44.61329545784219" lon="8.148878127027418"><ele>333.0</ele><time>2026-05-01T08:32:21Z</time></trkpt><trkpt lat="44.613373597726905" lon="8.148934494238626"><ele>333.0</ele><time>2026-05-01T08:32:22Z</time></trkpt><trkpt lat="44.6134077683019" lon="8.149033061958727"><ele>333.0</ele><time>2026-05-01T08:32:23Z</time></trkpt><trkpt lat="44.61339008661941" lon="8.149132034245229"><ele>336.4</ele><time>2026-05-01T08:32:24Z</time></trkpt><trkpt lat="44.61330643410049" lon="8.149163742263497"><ele>339.79999999999995</ele><time>2026-05-01T08:32:25Z</time></trkpt><trkpt lat="44.613222401197795" lon="8.149143186331314"><ele>343.2</ele><time>2026-05-01T08:32:26Z</time></trkpt><trkpt lat="44.61311374541462" lon="8.149141912482774"><ele>346.6</ele><time>2026-05-01T08:32:27Z</time></trkpt><trkpt lat="44.612996537125035" lon="8.149116712393171"><ele>350.0</ele><time>2026-05-01T08:32:28Z</time></trkpt><trkpt lat="44.61290197544646" lon="8.14909552907787"><ele>350.0</ele><time>2026-05-01T08:32:29Z</time></trkpt><trkpt lat="44.61282339008115" lon="8.14911280597478"><ele>350.0</ele><time>2026-05-01T08:32:30Z</time></trkpt><trkpt lat="44.61275692802154" lon="8.14915649339395"><ele>350.0</ele><time>2026-05-01T08:32:31Z</time></trkpt><trkpt lat="44.61272944226204" lon="8.149309812107623"><ele>350.0</ele><time>2026-05-01T08:32:32Z</time></trkpt><trkpt lat="44.61273022968808" lon="8.149471102868155"><ele>350.0</ele><time>2026-05-01T08:32:33Z</time></trkpt><trkpt lat="44.61278000712331" lon="8.14961499097538"><ele>350.0</ele><time>2026-05-01T08:32:34Z</time></trkpt><trkpt lat="44.61288742089191" lon="8.14969615467695"><ele>350.0</ele><time>2026-05-01T08:32:35Z</time></trkpt><trkpt lat="44.61299538972757" lon="8.149725006526554"><ele>350.0</ele><time>2026-05-01T08:32:36Z</time></trkpt><trkpt lat="44.61311261143594" lon="8.149785780295206"><ele>350.0</ele><time>2026-05-01T08:32:37Z</time></trkpt><trkpt lat="44.613208760165094" lon="8.14989242488468"><ele>352.75</ele><time>2026-05-01T08:32:38Z</time></trkpt><trkpt lat="44.613265620019114" lon="8.1500505746869"><ele>355.5</ele><time>2026-05-01T08:32:39Z</time></trkpt><trkpt lat="44.613278098270094" lon="8.150218485903993"><ele>358.25</ele><time>2026-05-01T08:32:40Z</time></trkpt><trkpt lat="44.61324268986839" lon="8.150387522464131"><ele>361.0</ele><time>2026-05-01T08:32:41Z</time></trkpt><trkpt lat="44.61317317159398" lon="8.150567996138143"><ele>363.0</ele><time>2026-05-01T08:32:42Z</time></trkpt><trkpt lat="44.613097207332935" lon="8.150763590788578"><ele>365.0</ele><time>2026-05-01T08:32:43Z</time></trkpt><trkpt lat="44.6130217867984" lon="8.150974887951428"><ele>367.0</ele><time>2026-05-01T08:32:44Z</time></trkpt><trkpt lat="44.61295805560322" lon="8.151181910150639"><ele>367.0</ele><time>2026-05-01T08:32:45Z</time></trkpt><trkpt lat="44.61291390989866" lon="8.151365786680053"><ele>367.0</ele><time>2026-05-01T08:32:46Z</time></trkpt><trkpt lat="44.612917309706724" lon="8.151536968267443"><ele>367.0</ele><time>2026-05-01T08:32:47Z</time></trkpt><trkpt lat="44.61294506034979" lon="8.151720763835476"><ele>367.0</ele><time>2026-05-01T08:32:48Z</time></trkpt><trkpt lat="44.61304565765614" lon="8.151889889773257"><ele>369.3333333333333</ele><time>2026-05-01T08:32:49Z</time></trkpt><trkpt lat="44.61317922495907" lon="8.152051450285656"><ele>371.6666666666667</ele><time>2026-05-01T08:32:50Z</time></trkpt><trkpt lat="44.61331580200081" lon="8.152205175530403"><ele>374.0</ele><time>2026-05-01T08:32:51Z</time></trkpt><trkpt lat="44.613428727159295" lon="8.152364616455822"><ele>370.6666666666667</ele><time>2026-05-01T08:32:52Z</time></trkpt><trkpt lat="44.613526957259424" lon="8.152543208717068"><ele>367.3333333333333</ele><time>2026-05-01T08:32:53Z</time></trkpt><trkpt lat="44.61361679042839" lon="8.15279118009999"><ele>364.0</ele><time>2026-05-01T08:32:54Z</time></trkpt><trkpt lat="44.61367620936662" lon="8.153021214129703"><ele>368.0</ele><time>2026-05-01T08:32:55Z</time></trkpt><trkpt lat="44.61369646552663" lon="8.153251220322995"><ele>372.0</ele><time>2026-05-01T08:32:56Z</time></trkpt><trkpt lat="44.61371160924368" lon="8.153489996831457"><ele>376.0</ele><time>2026-05-01T08:32:57Z</time></trkpt><trkpt lat="44.61372565280367" lon="8.153721236662488"><ele>376.0</ele><time>2026-05-01T08:32:58Z</time></trkpt><trkpt lat="44.613772448026175" lon="8.153943582242974"><ele>376.0</ele><time>2026-05-01T08:32:59Z</time></trkpt><trkpt lat="44.61382265944848" lon="8.15416499325716"><ele>376.0</ele><time>2026-05-01T08:33:00Z</time></trkpt><trkpt lat="44.61391306170611" lon="8.154375029835343"><ele>380.66666666666663</ele><time>2026-05-01T08:33:01Z</time></trkpt><trkpt lat="44.61400801502322" lon="8.15456984372965"><ele>385.3333333333333</ele><time>2026-05-01T08:33:02Z</time></trkpt><trkpt lat="44.61405956749499" lon="8.154763023080516"><ele>390.0</ele><time>2026-05-01T08:33:03Z</time></trkpt><trkpt lat="44.61408295831994" lon="8.154951360285184"><ele>391.75</ele><time>2026-05-01T08:33:04Z</time></trkpt><trkpt lat="44.614067762671645" lon="8.155140611258297"><ele>393.5</ele><time>2026-05-01T08:33:05Z</time></trkpt><trkpt lat="44.61403896762505" lon="8.155325011168843"><ele>395.25</ele><time>2026-05-01T08:33:06Z</time></trkpt><trkpt lat="44.614007674596394" lon="8.155494280625872"><ele>397.0</ele><time>2026-05-01T08:33:07Z</time></trkpt><trkpt lat="44.613978716796545" lon="8.15563286673132"><ele>396.8</ele><time>2026-05-01T08:33:08Z</time></trkpt><trkpt lat="44.61393974122923" lon="8.155750740722379"><ele>396.6</ele><time>2026-05-01T08:33:09Z</time></trkpt><trkpt lat="44.61388008576953" lon="8.155801928834547"><ele>396.40000000000003</ele><time>2026-05-01T08:33:10Z</time></trkpt><trkpt lat="44.61379465086522" lon="8.15582117760676"><ele>396.20000000000005</ele><time>2026-05-01T08:33:11Z</time></trkpt><trkpt lat="44.61369770545628" lon="8.155726180356721"><ele>396.0</ele><time>2026-05-01T08:33:12Z</time></trkpt><trkpt lat="44.613650239560236" lon="8.155540482765074"><ele>403.0</ele><time>2026-05-01T08:33:13Z</time></trkpt><trkpt lat="44.61356350016984" lon="8.155354716185837"><ele>410.0</ele><time>2026-05-01T08:33:14Z</time></trkpt><trkpt lat="44.61347967570176" lon="8.155145581110112"><ele>417.0</ele><time>2026-05-01T08:33:15Z</time></trkpt><trkpt lat="44.613398138684204" lon="8.15490672940159"><ele>415.66666666666663</ele><time>2026-05-01T08:33:16Z</time></trkpt><trkpt lat="44.61336096782276" lon="8.154666416064073"><ele>414.3333333333333</ele><time>2026-05-01T08:33:17Z</time></trkpt><trkpt lat="44.613360229460646" lon="8.154402094283535"><ele>413.0</ele><time>2026-05-01T08:33:18Z</time></trkpt><trkpt lat="44.61335367368412" lon="8.154131644257196"><ele>411.0</ele><time>2026-05-01T08:33:19Z</time></trkpt><trkpt lat="44.613336603418574" lon="8.15388132325645"><ele>409.0</ele><time>2026-05-01T08:33:20Z</time></trkpt><trkpt lat="44.61330866672543" lon="8.153659230005784"><ele>407.0</ele><time>2026-05-01T08:33:21Z</time></trkpt><trkpt lat="44.6132769221967" lon="8.153460019660608"><ele>407.0</ele><time>2026-05-01T08:33:22Z</time></trkpt><trkpt lat="44.61324042622275" lon="8.153281288930565"><ele>407.0</ele><time>2026-05-01T08:33:23Z</time></trkpt><trkpt lat="44.61320389578498" lon="8.15313533084396"><ele>407.0</ele><time>2026-05-01T08:33:24Z</time></trkpt><trkpt lat="44.613141968888584" lon="8.153038219514292"><ele>407.0</ele><time>2026-05-01T08:33:25Z</time></trkpt><trkpt lat="44.61303718357009" lon="8.152985050439197"><ele>407.0</ele><time>2026-05-01T08:33:26Z</time></trkpt><trkpt lat="44.61291305451115" lon="8.152997114338087"><ele>407.0</ele><time>2026-05-01T08:33:27Z</time></trkpt><trkpt lat="44.612805649197696" lon="8.153092612626782"><ele>407.0</ele><time>2026-05-01T08:33:28Z</time></trkpt><trkpt lat="44.612723769669216" lon="8.153257359152377"><ele>407.0</ele><time>2026-05-01T08:33:29Z</time></trkpt><trkpt lat="44.612657260109586" lon="8.153482962900418"><ele>407.0</ele><time>2026-05-01T08:33:30Z</time></trkpt><trkpt lat="44.61255676784041" lon="8.153695871305036"><ele>410.66666666666663</ele><time>2026-05-01T08:33:30.999Z</time></trkpt><trkpt lat="44.61246399693476" lon="8.153925701790165"><ele>414.33333333333337</ele><time>2026-05-01T08:33:31.999Z</time></trkpt><trkpt lat="44.61238166785718" lon="8.154173829286142"><ele>418.0</ele><time>2026-05-01T08:33:32.999Z</time></trkpt><trkpt lat="44.61227210922464" lon="8.15439911875487"><ele>421.33333333333337</ele><time>2026-05-01T08:33:33.999Z</time></trkpt><trkpt lat="44.61218398270254" lon="8.154620786273547"><ele>424.66666666666663</ele><time>2026-05-01T08:33:34.999Z</time></trkpt><trkpt lat="44.61210158137007" lon="8.15484178034956"><ele>428.0</ele><time>2026-05-01T08:33:35.999Z</time></trkpt><trkpt lat="44.61205429343271" lon="8.155082802170563"><ele>430.0</ele><time>2026-05-01T08:33:36.999Z</time></trkpt><trkpt lat="44.61201906437392" lon="8.155343294843465"><ele>432.0</ele><time>2026-05-01T08:33:37.999Z</time></trkpt><trkpt lat="44.61197549900211" lon="8.155605940756542"><ele>434.0</ele><time>2026-05-01T08:33:38.999Z</time></trkpt><trkpt lat="44.61193737912198" lon="8.155873862132827"><ele>438.0</ele><time>2026-05-01T08:33:39.999Z</time></trkpt><trkpt lat="44.611895395791066" lon="8.15611445367288"><ele>442.0</ele><time>2026-05-01T08:33:40.999Z</time></trkpt><trkpt lat="44.61182265815999" lon="8.156332445285532"><ele>446.0</ele><time>2026-05-01T08:33:41.999Z</time></trkpt><trkpt lat="44.61173805896732" lon="8.156536484485962"><ele>446.3333333333333</ele><time>2026-05-01T08:33:42.999Z</time></trkpt><trkpt lat="44.61165178954846" lon="8.156736228279565"><ele>446.66666666666663</ele><time>2026-05-01T08:33:43.999Z</time></trkpt><trkpt lat="44.61158903588709" lon="8.156949959882864"><ele>447.0</ele><time>2026-05-01T08:33:44.999Z</time></trkpt><trkpt lat="44.61153977011359" lon="8.157160761091333"><ele>446.0</ele><time>2026-05-01T08:33:45.999Z</time></trkpt><trkpt lat="44.61154083754081" lon="8.157390087132972"><ele>445.0</ele><time>2026-05-01T08:33:46.999Z</time></trkpt><trkpt lat="44.61155725065315" lon="8.157643789680378"><ele>444.0</ele><time>2026-05-01T08:33:47.999Z</time></trkpt><trkpt lat="44.61162851667918" lon="8.157895024120112"><ele>444.0</ele><time>2026-05-01T08:33:48.999Z</time></trkpt><trkpt lat="44.611653240269625" lon="8.158170732045969"><ele>444.0</ele><time>2026-05-01T08:33:49.999Z</time></trkpt><trkpt lat="44.61165719999953" lon="8.158448991035641"><ele>444.0</ele><time>2026-05-01T08:33:50.999Z</time></trkpt><trkpt lat="44.61165466829196" lon="8.158725682831632"><ele>445.66666666666663</ele><time>2026-05-01T08:33:51.999Z</time></trkpt><trkpt lat="44.61165251210554" lon="8.159004829471538"><ele>447.3333333333333</ele><time>2026-05-01T08:33:52.999Z</time></trkpt><trkpt lat="44.61164962294247" lon="8.159277147982435"><ele>449.0</ele><time>2026-05-01T08:33:53.999Z</time></trkpt><trkpt lat="44.61163739931194" lon="8.159541184380599"><ele>450.66666666666663</ele><time>2026-05-01T08:33:54.999Z</time></trkpt><trkpt lat="44.611604283147315" lon="8.159787657682344"><ele>452.33333333333337</ele><time>2026-05-01T08:33:55.999Z</time></trkpt><trkpt lat="44.611573784017324" lon="8.160034071990554"><ele>454.0</ele><time>2026-05-01T08:33:56.999Z</time></trkpt><trkpt lat="44.61153132796106" lon="8.160266014306067"><ele>455.6666666666667</ele><time>2026-05-01T08:33:57.999Z</time></trkpt><trkpt lat="44.61150724809108" lon="8.160515777373194"><ele>457.33333333333337</ele><time>2026-05-01T08:33:58.999Z</time></trkpt><trkpt lat="44.61150451038579" lon="8.16076823162276"><ele>459.0</ele><time>2026-05-01T08:33:59.999Z</time></trkpt><trkpt lat="44.6115069132329" lon="8.161019566210419"><ele>459.66666666666663</ele><time>2026-05-01T08:34:00.999Z</time></trkpt><trkpt lat="44.61151102449718" lon="8.161276305744977"><ele>460.3333333333333</ele><time>2026-05-01T08:34:01.999Z</time></trkpt><trkpt lat="44.61153965841511" lon="8.161542655644105"><ele>461.0</ele><time>2026-05-01T08:34:02.999Z</time></trkpt><trkpt lat="44.611600041468094" lon="8.161813420714605"><ele>463.0</ele><time>2026-05-01T08:34:03.999Z</time></trkpt><trkpt lat="44.611690944194436" lon="8.162075461577015"><ele>465.0</ele><time>2026-05-01T08:34:04.999Z</time></trkpt><trkpt lat="44.61178602659355" lon="8.162347007586806"><ele>467.0</ele><time>2026-05-01T08:34:05.999Z</time></trkpt><trkpt lat="44.611874319320236" lon="8.162617337705635"><ele>467.3333333333333</ele><time>2026-05-01T08:34:06.999Z</time></trkpt><trkpt lat="44.611961869012255" lon="8.162889526376613"><ele>467.66666666666663</ele><time>2026-05-01T08:34:07.999Z</time></trkpt><trkpt lat="44.612029988804274" lon="8.163166257850255"><ele>468.0</ele><time>2026-05-01T08:34:08.999Z</time></trkpt><trkpt lat="44.61212791031161" lon="8.163424742164315"><ele>468.0</ele><time>2026-05-01T08:34:09.999Z</time></trkpt><trkpt lat="44.61220680468728" lon="8.163697742565661"><ele>468.0</ele><time>2026-05-01T08:34:10.999Z</time></trkpt><trkpt lat="44.61228892124285" lon="8.163967054869644"><ele>468.0</ele><time>2026-05-01T08:34:11.999Z</time></trkpt><trkpt lat="44.61237316452557" lon="8.164234041620958"><ele>471.66666666666663</ele><time>2026-05-01T08:34:12.999Z</time></trkpt><trkpt lat="44.6124562952017" lon="8.164492290946736"><ele>475.3333333333333</ele><time>2026-05-01T08:34:13.999Z</time></trkpt><trkpt lat="44.612536214658014" lon="8.164740213016184"><ele>479.0</ele><time>2026-05-01T08:34:14.999Z</time></trkpt><trkpt lat="44.61260875582761" lon="8.164976958489627"><ele>478.3333333333333</ele><time>2026-05-01T08:34:15.999Z</time></trkpt><trkpt lat="44.61267150689159" lon="8.165199418890824"><ele>477.66666666666663</ele><time>2026-05-01T08:34:16.999Z</time></trkpt><trkpt lat="44.61273575431496" lon="8.16539254004718"><ele>477.0</ele><time>2026-05-01T08:34:17.999Z</time></trkpt><trkpt lat="44.61282914299096" lon="8.165573024244583"><ele>479.66666666666663</ele><time>2026-05-01T08:34:18.999Z</time></trkpt><trkpt lat="44.6129683206493" lon="8.165721412139039"><ele>482.3333333333333</ele><time>2026-05-01T08:34:19.999Z</time></trkpt><trkpt lat="44.61312668202626" lon="8.165848220794773"><ele>485.0</ele><time>2026-05-01T08:34:20.999Z</time></trkpt><trkpt lat="44.61324619770459" lon="8.166017579910724"><ele>485.0</ele><time>2026-05-01T08:34:21.999Z</time></trkpt><trkpt lat="44.61334391856582" lon="8.166224140120358"><ele>485.0</ele><time>2026-05-01T08:34:22.999Z</time></trkpt><trkpt lat="44.613430246489614" lon="8.16649227626664"><ele>485.0</ele><time>2026-05-01T08:34:24Z</time></trkpt><trkpt lat="44.613536230292944" lon="8.166785936226947"><ele>486.5</ele><time>2026-05-01T08:34:25Z</time></trkpt><trkpt lat="44.613637547439225" lon="8.167110478850875"><ele>488.0</ele><time>2026-05-01T08:34:26Z</time></trkpt><trkpt lat="44.61374353037827" lon="8.167441443596099"><ele>488.0</ele><time>2026-05-01T08:34:27Z</time></trkpt><trkpt lat="44.61385185758017" lon="8.167780066134714"><ele>488.0</ele><time>2026-05-01T08:34:28Z</time></trkpt><trkpt lat="44.61396352257551" lon="8.168126258065646"><ele>492.5</ele><time>2026-05-01T08:34:29Z</time></trkpt><trkpt lat="44.614077062777085" lon="8.1684721255777"><ele>497.0</ele><time>2026-05-01T08:34:30Z</time></trkpt><trkpt lat="44.61418111905984" lon="8.168801487043408"><ele>501.0</ele><time>2026-05-01T08:34:31Z</time></trkpt><trkpt lat="44.61427397092063" lon="8.169104069657742"><ele>505.0</ele><time>2026-05-01T08:34:32Z</time></trkpt><trkpt lat="44.6143624545012" lon="8.16938444082328"><ele>505.0</ele><time>2026-05-01T08:34:33Z</time></trkpt><trkpt lat="44.61445237123388" lon="8.169655799015173"><ele>505.0</ele><time>2026-05-01T08:34:34Z</time></trkpt><trkpt lat="44.61453968365494" lon="8.169930040070879"><ele>505.0</ele><time>2026-05-01T08:34:35Z</time></trkpt><trkpt lat="44.61462773854148" lon="8.170214294753352"><ele>504.5</ele><time>2026-05-01T08:34:36Z</time></trkpt><trkpt lat="44.614720989406976" lon="8.17050430444178"><ele>504.0</ele><time>2026-05-01T08:34:37Z</time></trkpt><trkpt lat="44.61482479353644" lon="8.170797767465771"><ele>504.0</ele><time>2026-05-01T08:34:38Z</time></trkpt><trkpt lat="44.61493569181784" lon="8.171105973401557"><ele>504.0</ele><time>2026-05-01T08:34:39Z</time></trkpt><trkpt lat="44.61506052272252" lon="8.171430684841548"><ele>505.5</ele><time>2026-05-01T08:34:40Z</time></trkpt><trkpt lat="44.61519565195447" lon="8.17176343918884"><ele>507.0</ele><time>2026-05-01T08:34:41Z</time></trkpt><trkpt lat="44.61533798891656" lon="8.17207644721948"><ele>504.5</ele><time>2026-05-01T08:34:42Z</time></trkpt><trkpt lat="44.61546890843219" lon="8.172391156469057"><ele>502.0</ele><time>2026-05-01T08:34:43Z</time></trkpt><trkpt lat="44.61559840437931" lon="8.172709305846105"><ele>502.0</ele><time>2026-05-01T08:34:44Z</time></trkpt><trkpt lat="44.6157318077508" lon="8.173027128595837"><ele>502.0</ele><time>2026-05-01T08:34:45Z</time></trkpt><trkpt lat="44.61586616899098" lon="8.173343748962836"><ele>504.0</ele><time>2026-05-01T08:34:46Z</time></trkpt><trkpt lat="44.61599974069442" lon="8.173660877735326"><ele>506.0</ele><time>2026-05-01T08:34:47Z</time></trkpt><trkpt lat="44.61613333686926" lon="8.173979679132062"><ele>504.0</ele><time>2026-05-01T08:34:48Z</time></trkpt><trkpt lat="44.61627316980455" lon="8.174310095892329"><ele>502.0</ele><time>2026-05-01T08:34:49Z</time></trkpt><trkpt lat="44.61641532864265" lon="8.174638142465675"><ele>506.0</ele><time>2026-05-01T08:34:50Z</time></trkpt><trkpt lat="44.616546624328286" lon="8.174951791337755"><ele>510.0</ele><time>2026-05-01T08:34:51Z</time></trkpt><trkpt lat="44.61667302681782" lon="8.17525251818419"><ele>510.0</ele><time>2026-05-01T08:34:52Z</time></trkpt><trkpt lat="44.61679313945085" lon="8.175540229135288"><ele>510.0</ele><time>2026-05-01T08:34:53Z</time></trkpt><trkpt lat="44.61690680667329" lon="8.17581415371271"><ele>508.66666666666663</ele><time>2026-05-01T08:34:54Z</time></trkpt><trkpt lat="44.61701312633383" lon="8.176069448769912"><ele>507.3333333333333</ele><time>2026-05-01T08:34:55Z</time></trkpt><trkpt lat="44.617114363674666" lon="8.176307916830067"><ele>506.0</ele><time>2026-05-01T08:34:56Z</time></trkpt><trkpt lat="44.61721050598672" lon="8.176530944768272"><ele>509.3333333333333</ele><time>2026-05-01T08:34:57Z</time></trkpt><trkpt lat="44.617301836001715" lon="8.176745162392697"><ele>512.6666666666666</ele><time>2026-05-01T08:34:58Z</time></trkpt><trkpt lat="44.61739418907099" lon="8.176960984441127"><ele>516.0</ele><time>2026-05-01T08:34:59Z</time></trkpt><trkpt lat="44.617484093820146" lon="8.17717764267179"><ele>518.3333333333334</ele><time>2026-05-01T08:35:00Z</time></trkpt><trkpt lat="44.61756929104982" lon="8.177390448526674"><ele>520.6666666666667</ele><time>2026-05-01T08:35:01Z</time></trkpt><trkpt lat="44.61764835061583" lon="8.177598851293439"><ele>523.0</ele><time>2026-05-01T08:35:02Z</time></trkpt><trkpt lat="44.617720546999955" lon="8.17780822238451"><ele>523.0</ele><time>2026-05-01T08:35:03Z</time></trkpt><trkpt lat="44.61776738287933" lon="8.17802465256643"><ele>523.0</ele><time>2026-05-01T08:35:04Z</time></trkpt><trkpt lat="44.617783571593336" lon="8.178251966836644"><ele>523.0</ele><time>2026-05-01T08:35:05Z</time></trkpt><trkpt lat="44.61777599667678" lon="8.178508485059861"><ele>524.0</ele><time>2026-05-01T08:35:06Z</time></trkpt><trkpt lat="44.61776515434566" lon="8.178768496124402"><ele>525.0</ele><time>2026-05-01T08:35:07Z</time></trkpt><trkpt lat="44.61775547845826" lon="8.179035051994967"><ele>526.0</ele><time>2026-05-01T08:35:08Z</time></trkpt><trkpt lat="44.61774888949202" lon="8.179306733837109"><ele>526.0</ele><time>2026-05-01T08:35:09Z</time></trkpt><trkpt lat="44.6177420836449" lon="8.179593315572498"><ele>526.0</ele><time>2026-05-01T08:35:10Z</time></trkpt><trkpt lat="44.61773474207132" lon="8.17990821037466"><ele>526.0</ele><time>2026-05-01T08:35:11Z</time></trkpt><trkpt lat="44.61772526563822" lon="8.180231687989066"><ele>527.0</ele><time>2026-05-01T08:35:12Z</time></trkpt><trkpt lat="44.61770985801094" lon="8.180552569640417"><ele>528.0</ele><time>2026-05-01T08:35:13Z</time></trkpt><trkpt lat="44.6176973550557" lon="8.180841256927495"><ele>529.0</ele><time>2026-05-01T08:35:14Z</time></trkpt><trkpt lat="44.617688841394624" lon="8.18110712431267"><ele>530.0</ele><time>2026-05-01T08:35:15Z</time></trkpt><trkpt lat="44.617681283202764" lon="8.181355453227734"><ele>531.0</ele><time>2026-05-01T08:35:16Z</time></trkpt><trkpt lat="44.61767689784928" lon="8.181573903806665"><ele>532.0</ele><time>2026-05-01T08:35:17Z</time></trkpt><trkpt lat="44.61767807097381" lon="8.181761503866275"><ele>533.1666666666667</ele><time>2026-05-01T08:35:18Z</time></trkpt><trkpt lat="44.61767362719474" lon="8.181915661915406"><ele>534.3333333333334</ele><time>2026-05-01T08:35:19Z</time></trkpt><trkpt lat="44.61767093887712" lon="8.182042384181"><ele>535.5</ele><time>2026-05-01T08:35:20Z</time></trkpt><trkpt lat="44.61767449584743" lon="8.182156870504015"><ele>536.6666666666666</ele><time>2026-05-01T08:35:21Z</time></trkpt><trkpt lat="44.61766000414449" lon="8.182263571789145"><ele>537.8333333333333</ele><time>2026-05-01T08:35:22Z</time></trkpt><trkpt lat="44.617643260874324" lon="8.182364418670584"><ele>539.0</ele><time>2026-05-01T08:35:23Z</time></trkpt><trkpt lat="44.6176278103807" lon="8.182480357708053"><ele>539.0</ele><time>2026-05-01T08:35:24Z</time></trkpt><trkpt lat="44.617608720872305" lon="8.182605424192687"><ele>539.0</ele><time>2026-05-01T08:35:25Z</time></trkpt><trkpt lat="44.61757649781433" lon="8.182738367743497"><ele>539.0</ele><time>2026-05-01T08:35:26Z</time></trkpt><trkpt lat="44.61752576275328" lon="8.182856604388997"><ele>539.0</ele><time>2026-05-01T08:35:27Z</time></trkpt><trkpt lat="44.61745397988068" lon="8.182937442209527"><ele>539.0</ele><time>2026-05-01T08:35:28Z</time></trkpt><trkpt lat="44.61736067501625" lon="8.182980188293925"><ele>539.0</ele><time>2026-05-01T08:35:29Z</time></trkpt><trkpt lat="44.61726528327275" lon="8.18298706481476"><ele>539.0</ele><time>2026-05-01T08:35:29.999Z</time></trkpt><trkpt lat="44.61717719580038" lon="8.182944799362275"><ele>539.0</ele><time>2026-05-01T08:35:30.999Z</time></trkpt><trkpt lat="44.61709863985558" lon="8.182871498332018"><ele>539.0</ele><time>2026-05-01T08:35:31.999Z</time></trkpt><trkpt lat="44.61703483541076" lon="8.182769015881135"><ele>539.0</ele><time>2026-05-01T08:35:32.999Z</time></trkpt><trkpt lat="44.61696785533237" lon="8.182668644812626"><ele>540.4</ele><time>2026-05-01T08:35:33.999Z</time></trkpt><trkpt lat="44.61689602349684" lon="8.182578100961628"><ele>541.8</ele><time>2026-05-01T08:35:34.999Z</time></trkpt><trkpt lat="44.61680315799555" lon="8.182502227717578"><ele>543.2</ele><time>2026-05-01T08:35:35.999Z</time></trkpt><trkpt lat="44.61670267959619" lon="8.182425579143555"><ele>544.6</ele><time>2026-05-01T08:35:36.999Z</time></trkpt><trkpt lat="44.616590347232204" lon="8.18235835274576"><ele>546.0</ele><time>2026-05-01T08:35:37.999Z</time></trkpt><trkpt lat="44.61646315258983" lon="8.182310312748886"><ele>546.0</ele><time>2026-05-01T08:35:38.999Z</time></trkpt><trkpt lat="44.61634036601056" lon="8.182260898968142"><ele>546.0</ele><time>2026-05-01T08:35:39.999Z</time></trkpt><trkpt lat="44.616196414443145" lon="8.18223922960104"><ele>546.0</ele><time>2026-05-01T08:35:40.999Z</time></trkpt><trkpt lat="44.61604978604331" lon="8.18222139689381"><ele>546.0</ele><time>2026-05-01T08:35:41.999Z</time></trkpt><trkpt lat="44.61591474587903" lon="8.182189494356972"><ele>544.0</ele><time>2026-05-01T08:35:42.999Z</time></trkpt><trkpt lat="44.6157907284819" lon="8.182127608615867"><ele>542.0</ele><time>2026-05-01T08:35:43.999Z</time></trkpt><trkpt lat="44.615678225791314" lon="8.182035890889784"><ele>540.0</ele><time>2026-05-01T08:35:44.999Z</time></trkpt><trkpt lat="44.61557040256214" lon="8.181893086788042"><ele>538.0</ele><time>2026-05-01T08:35:45.999Z</time></trkpt><trkpt lat="44.61547161671338" lon="8.181743999837588"><ele>538.0</ele><time>2026-05-01T08:35:46.999Z</time></trkpt><trkpt lat="44.615348670092416" lon="8.181624720570742"><ele>538.0</ele><time>2026-05-01T08:35:47.999Z</time></trkpt><trkpt lat="44.61519704566816" lon="8.18155596724822"><ele>538.0</ele><time>2026-05-01T08:35:48.999Z</time></trkpt><trkpt lat="44.61503460679616" lon="8.181513567389135"><ele>543.0</ele><time>2026-05-01T08:35:49.999Z</time></trkpt><trkpt lat="44.61486640747739" lon="8.181472779526688"><ele>548.0</ele><time>2026-05-01T08:35:50.999Z</time></trkpt><trkpt lat="44.61470036221031" lon="8.181465256936045"><ele>553.0</ele><time>2026-05-01T08:35:51.999Z</time></trkpt><trkpt lat="44.61454693958398" lon="8.181504534449143"><ele>546.0</ele><time>2026-05-01T08:35:52.999Z</time></trkpt><trkpt lat="44.61439937951819" lon="8.181584231752394"><ele>539.0</ele><time>2026-05-01T08:35:53.999Z</time></trkpt><trkpt lat="44.61426574024863" lon="8.181708828071084"><ele>532.0</ele><time>2026-05-01T08:35:54.999Z</time></trkpt><trkpt lat="44.614149763881144" lon="8.181846570476367"><ele>532.0</ele><time>2026-05-01T08:35:55.999Z</time></trkpt><trkpt lat="44.614055946404456" lon="8.181960028256302"><ele>532.0</ele><time>2026-05-01T08:35:56.999Z</time></trkpt><trkpt lat="44.61396736755359" lon="8.182037783139238"><ele>532.0</ele><time>2026-05-01T08:35:57.999Z</time></trkpt><trkpt lat="44.61386055755481" lon="8.182054733365705"><ele>532.0</ele><time>2026-05-01T08:35:58.999Z</time></trkpt><trkpt lat="44.61376272296898" lon="8.181943605714332"><ele>532.0</ele><time>2026-05-01T08:35:59.999Z</time></trkpt><trkpt lat="44.6136795384886" lon="8.181824552158572"><ele>532.0</ele><time>2026-05-01T08:36:00.999Z</time></trkpt><trkpt lat="44.61357513372431" lon="8.18170396763051"><ele>532.0</ele><time>2026-05-01T08:36:01.999Z</time></trkpt><trkpt lat="44.61345899563045" lon="8.181580703804809"><ele>532.0</ele><time>2026-05-01T08:36:02.999Z</time></trkpt><trkpt lat="44.613349017087515" lon="8.18147599760903"><ele>540.3333333333334</ele><time>2026-05-01T08:36:03.999Z</time></trkpt><trkpt lat="44.61322516181866" lon="8.181412398769417"><ele>548.6666666666666</ele><time>2026-05-01T08:36:04.999Z</time></trkpt><trkpt lat="44.61307196611548" lon="8.18140748682886"><ele>557.0</ele><time>2026-05-01T08:36:05.999Z</time></trkpt><trkpt lat="44.61290785693009" lon="8.181452139532626"><ele>547.0</ele><time>2026-05-01T08:36:06.999Z</time></trkpt><trkpt lat="44.61274522916246" lon="8.18152414193053"><ele>537.0</ele><time>2026-05-01T08:36:07.999Z</time></trkpt><trkpt lat="44.61258043901824" lon="8.18159569511958"><ele>527.0</ele><time>2026-05-01T08:36:08.999Z</time></trkpt><trkpt lat="44.612406468823764" lon="8.181662123179894"><ele>527.0</ele><time>2026-05-01T08:36:09.999Z</time></trkpt><trkpt lat="44.612234180194726" lon="8.181727787471464"><ele>527.0</ele><time>2026-05-01T08:36:10.999Z</time></trkpt><trkpt lat="44.61206813150427" lon="8.181793728818622"><ele>527.0</ele><time>2026-05-01T08:36:11.999Z</time></trkpt><trkpt lat="44.61191224628767" lon="8.181852488772204"><ele>528.3333333333333</ele><time>2026-05-01T08:36:12.999Z</time></trkpt><trkpt lat="44.61174853665143" lon="8.181871406402657"><ele>529.6666666666666</ele><time>2026-05-01T08:36:13.999Z</time></trkpt><trkpt lat="44.611581709421095" lon="8.18184114117799"><ele>531.0</ele><time>2026-05-01T08:36:14.999Z</time></trkpt><trkpt lat="44.6114064474303" lon="8.181809153139472"><ele>531.0</ele><time>2026-05-01T08:36:15.999Z</time></trkpt><trkpt lat="44.611233434570984" lon="8.181748122446816"><ele>531.0</ele><time>2026-05-01T08:36:16.999Z</time></trkpt><trkpt lat="44.611054262557424" lon="8.181702104629485"><ele>531.0</ele><time>2026-05-01T08:36:17.999Z</time></trkpt><trkpt lat="44.610882965620284" lon="8.181650485492879"><ele>527.6666666666666</ele><time>2026-05-01T08:36:18.999Z</time></trkpt><trkpt lat="44.610721034857825" lon="8.181598971404156"><ele>524.3333333333333</ele><time>2026-05-01T08:36:19.999Z</time></trkpt><trkpt lat="44.61056533443752" lon="8.181559665758678"><ele>521.0</ele><time>2026-05-01T08:36:20.999Z</time></trkpt><trkpt lat="44.61041996811256" lon="8.181531580418186"><ele>521.25</ele><time>2026-05-01T08:36:21.999Z</time></trkpt><trkpt lat="44.610287245882624" lon="8.181529709428816"><ele>521.5</ele><time>2026-05-01T08:36:22.999Z</time></trkpt><trkpt lat="44.6101615333246" lon="8.181579629901675"><ele>521.75</ele><time>2026-05-01T08:36:23.999Z</time></trkpt><trkpt lat="44.61005092999802" lon="8.181690333047197"><ele>522.0</ele><time>2026-05-01T08:36:24.999Z</time></trkpt><trkpt lat="44.6099708183213" lon="8.181860140034296"><ele>522.0</ele><time>2026-05-01T08:36:25.999Z</time></trkpt><trkpt lat="44.60993647455084" lon="8.182055901379638"><ele>522.0</ele><time>2026-05-01T08:36:26.999Z</time></trkpt><trkpt lat="44.60995563207109" lon="8.182275378241824"><ele>522.0</ele><time>2026-05-01T08:36:27.999Z</time></trkpt><trkpt lat="44.60999885125459" lon="8.182495374391275"><ele>520.3333333333334</ele><time>2026-05-01T08:36:28.999Z</time></trkpt><trkpt lat="44.610032000484956" lon="8.182720047887313"><ele>518.6666666666667</ele><time>2026-05-01T08:36:30Z</time></trkpt><trkpt lat="44.610058084009616" lon="8.182943870796986"><ele>517.0</ele><time>2026-05-01T08:36:31Z</time></trkpt><trkpt lat="44.61007991832876" lon="8.183167221657287"><ele>517.3333333333334</ele><time>2026-05-01T08:36:32Z</time></trkpt><trkpt lat="44.61009927676411" lon="8.183384749155797"><ele>517.6666666666666</ele><time>2026-05-01T08:36:33Z</time></trkpt><trkpt lat="44.6100921915589" lon="8.183590892053786"><ele>518.0</ele><time>2026-05-01T08:36:34Z</time></trkpt><trkpt lat="44.61006880648756" lon="8.183796373064464"><ele>518.0</ele><time>2026-05-01T08:36:35Z</time></trkpt><trkpt lat="44.61000451429382" lon="8.183995399093845"><ele>518.0</ele><time>2026-05-01T08:36:36Z</time></trkpt><trkpt lat="44.60992354114038" lon="8.184170570845758"><ele>518.0</ele><time>2026-05-01T08:36:37Z</time></trkpt><trkpt lat="44.609829351310026" lon="8.184302244861218"><ele>518.0</ele><time>2026-05-01T08:36:38Z</time></trkpt><trkpt lat="44.609720381709465" lon="8.184384670866557"><ele>518.3333333333333</ele><time>2026-05-01T08:36:39Z</time></trkpt><trkpt lat="44.60958142645561" lon="8.18442497959749"><ele>518.6666666666666</ele><time>2026-05-01T08:36:40Z</time></trkpt><trkpt lat="44.60942735343967" lon="8.184462282128585"><ele>519.0</ele><time>2026-05-01T08:36:41Z</time></trkpt><trkpt lat="44.60926979846286" lon="8.184471021241286"><ele>519.0</ele><time>2026-05-01T08:36:42Z</time></trkpt><trkpt lat="44.60912375197961" lon="8.184486841513857"><ele>519.0</ele><time>2026-05-01T08:36:43Z</time></trkpt><trkpt lat="44.60898854750471" lon="8.184469545759777"><ele>519.0</ele><time>2026-05-01T08:36:44Z</time></trkpt><trkpt lat="44.60886484600035" lon="8.184391546264086"><ele>519.0</ele><time>2026-05-01T08:36:45Z</time></trkpt><trkpt lat="44.608765821301496" lon="8.184256658759585"><ele>519.0</ele><time>2026-05-01T08:36:46Z</time></trkpt><trkpt lat="44.608711684339035" lon="8.184055862180328"><ele>519.0</ele><time>2026-05-01T08:36:47Z</time></trkpt><trkpt lat="44.60863452122587" lon="8.183849197878503"><ele>519.0</ele><time>2026-05-01T08:36:48Z</time></trkpt><trkpt lat="44.60856807473119" lon="8.183645082237172"><ele>520.75</ele><time>2026-05-01T08:36:49Z</time></trkpt><trkpt lat="44.60848707767268" lon="8.183471565774813"><ele>522.5</ele><time>2026-05-01T08:36:50Z</time></trkpt><trkpt lat="44.608394114897436" lon="8.183315139738157"><ele>524.25</ele><time>2026-05-01T08:36:51Z</time></trkpt><trkpt lat="44.608286774971475" lon="8.18318423955316"><ele>526.0</ele><time>2026-05-01T08:36:52Z</time></trkpt><trkpt lat="44.608166839984285" lon="8.183102628952172"><ele>526.0</ele><time>2026-05-01T08:36:53Z</time></trkpt><trkpt lat="44.60803273324752" lon="8.183095224390962"><ele>526.0</ele><time>2026-05-01T08:36:54Z</time></trkpt><trkpt lat="44.60788676896614" lon="8.183157452397062"><ele>526.0</ele><time>2026-05-01T08:36:55Z</time></trkpt><trkpt lat="44.607737232689665" lon="8.183268152713765"><ele>520.0</ele><time>2026-05-01T08:36:56Z</time></trkpt><trkpt lat="44.60758642493876" lon="8.183330463682468"><ele>514.0</ele><time>2026-05-01T08:36:57Z</time></trkpt><trkpt lat="44.60743907293088" lon="8.183421494151522"><ele>508.0</ele><time>2026-05-01T08:36:58Z</time></trkpt><trkpt lat="44.60731299576802" lon="8.183545645924076"><ele>508.0</ele><time>2026-05-01T08:36:59Z</time></trkpt><trkpt lat="44.60719795803804" lon="8.183671710723504"><ele>508.0</ele><time>2026-05-01T08:37:00Z</time></trkpt><trkpt lat="44.60710233801338" lon="8.183816908509796"><ele>508.0</ele><time>2026-05-01T08:37:01Z</time></trkpt><trkpt lat="44.60699787711896" lon="8.18392885485218"><ele>508.0</ele><time>2026-05-01T08:37:02Z</time></trkpt><trkpt lat="44.60690897580255" lon="8.184009909227267"><ele>508.0</ele><time>2026-05-01T08:37:03Z</time></trkpt><trkpt lat="44.60681466779913" lon="8.184010545005837"><ele>508.0</ele><time>2026-05-01T08:37:04Z</time></trkpt><trkpt lat="44.60671682382039" lon="8.1839442279856"><ele>508.0</ele><time>2026-05-01T08:37:05Z</time></trkpt><trkpt lat="44.60663429143127" lon="8.183783569898518"><ele>508.0</ele><time>2026-05-01T08:37:06Z</time></trkpt><trkpt lat="44.60652515104511" lon="8.183639632547207"><ele>508.0</ele><time>2026-05-01T08:37:07Z</time></trkpt><trkpt lat="44.60643494819794" lon="8.183496899991889"><ele>508.0</ele><time>2026-05-01T08:37:08Z</time></trkpt><trkpt lat="44.60634010431001" lon="8.183367168062972"><ele>508.0</ele><time>2026-05-01T08:37:09Z</time></trkpt><trkpt lat="44.60624838266862" lon="8.183244914610018"><ele>508.0</ele><time>2026-05-01T08:37:10Z</time></trkpt><trkpt lat="44.60616552507909" lon="8.183118885110265"><ele>509.5</ele><time>2026-05-01T08:37:11Z</time></trkpt><trkpt lat="44.60608240543004" lon="8.183010848534197"><ele>511.0</ele><time>2026-05-01T08:37:12Z</time></trkpt><trkpt lat="44.60597266033673" lon="8.18297150898436"><ele>512.5</ele><time>2026-05-01T08:37:13Z</time></trkpt><trkpt lat="44.605847262072295" lon="8.182900077116233"><ele>514.0</ele><time>2026-05-01T08:37:14Z</time></trkpt><trkpt lat="44.60575229515097" lon="8.183188824720714"><ele>506.0</ele><time>2026-05-01T08:37:15Z</time></trkpt><trkpt lat="44.60564003282251" lon="8.183370046484976"><ele>498.0</ele><time>2026-05-01T08:37:16Z</time></trkpt><trkpt lat="44.605527142075324" lon="8.183567604168086"><ele>490.0</ele><time>2026-05-01T08:37:17Z</time></trkpt><trkpt lat="44.605424457843306" lon="8.183791295142937"><ele>491.0</ele><time>2026-05-01T08:37:18Z</time></trkpt><trkpt lat="44.60534388519134" lon="8.184014665583028"><ele>492.0</ele><time>2026-05-01T08:37:19Z</time></trkpt><trkpt lat="44.60528483435261" lon="8.18423510482783"><ele>493.0</ele><time>2026-05-01T08:37:20Z</time></trkpt><trkpt lat="44.605244087765044" lon="8.184457181707998"><ele>493.0</ele><time>2026-05-01T08:37:21Z</time></trkpt><trkpt lat="44.605221538497865" lon="8.184681143956745"><ele>493.0</ele><time>2026-05-01T08:37:22Z</time></trkpt><trkpt lat="44.60518079727953" lon="8.184891765564732"><ele>493.0</ele><time>2026-05-01T08:37:23Z</time></trkpt><trkpt lat="44.605128745532106" lon="8.185102659123006"><ele>490.33333333333337</ele><time>2026-05-01T08:37:24Z</time></trkpt><trkpt lat="44.605031389295235" lon="8.18529492080504"><ele>487.66666666666663</ele><time>2026-05-01T08:37:25Z</time></trkpt><trkpt lat="44.60491821278664" lon="8.185526642662056"><ele>485.0</ele><time>2026-05-01T08:37:25.999Z</time></trkpt><trkpt lat="44.60480509872505" lon="8.185760767287901"><ele>478.3333333333333</ele><time>2026-05-01T08:37:26.999Z</time></trkpt><trkpt lat="44.60470049468854" lon="8.185977277780541"><ele>471.66666666666663</ele><time>2026-05-01T08:37:27.999Z</time></trkpt><trkpt lat="44.60459804793132" lon="8.18618932310564"><ele>465.0</ele><time>2026-05-01T08:37:28.999Z</time></trkpt><trkpt lat="44.60449764216065" lon="8.186397143977416"><ele>462.66666666666663</ele><time>2026-05-01T08:37:29.999Z</time></trkpt><trkpt lat="44.60439964147664" lon="8.186598663127347"><ele>460.3333333333333</ele><time>2026-05-01T08:37:30.999Z</time></trkpt><trkpt lat="44.60430320869962" lon="8.186796366539664"><ele>458.0</ele><time>2026-05-01T08:37:31.999Z</time></trkpt><trkpt lat="44.60420934806742" lon="8.18698879663004"><ele>458.0</ele><time>2026-05-01T08:37:32.999Z</time></trkpt><trkpt lat="44.60413322819658" lon="8.187185149853079"><ele>458.0</ele><time>2026-05-01T08:37:33.999Z</time></trkpt><trkpt lat="44.604043693468135" lon="8.187350258286775"><ele>458.0</ele><time>2026-05-01T08:37:34.999Z</time></trkpt><trkpt lat="44.603968303899" lon="8.187502068059132"><ele>458.0</ele><time>2026-05-01T08:37:35.999Z</time></trkpt><trkpt lat="44.603907767176125" lon="8.187650505760358"><ele>456.0</ele><time>2026-05-01T08:37:36.999Z</time></trkpt><trkpt lat="44.60386653830227" lon="8.187812481446516"><ele>454.0</ele><time>2026-05-01T08:37:37.999Z</time></trkpt><trkpt lat="44.60388887936538" lon="8.18800743644029"><ele>452.0</ele><time>2026-05-01T08:37:38.999Z</time></trkpt><trkpt lat="44.603944354656576" lon="8.188192448181365"><ele>450.0</ele><time>2026-05-01T08:37:39.999Z</time></trkpt><trkpt lat="44.60399245473963" lon="8.188367707086826"><ele>449.5</ele><time>2026-05-01T08:37:40.999Z</time></trkpt><trkpt lat="44.604028033796624" lon="8.188528292164031"><ele>449.0</ele><time>2026-05-01T08:37:41.999Z</time></trkpt><trkpt lat="44.60405089638665" lon="8.188688002269423"><ele>448.5</ele><time>2026-05-01T08:37:42.999Z</time></trkpt><trkpt lat="44.604024198175374" lon="8.18884254091539"><ele>448.0</ele><time>2026-05-01T08:37:43.999Z</time></trkpt><trkpt lat="44.603975848888396" lon="8.18897397488421"><ele>445.25</ele><time>2026-05-01T08:37:44.999Z</time></trkpt><trkpt lat="44.603881939739814" lon="8.189067182788213"><ele>442.5</ele><time>2026-05-01T08:37:45.999Z</time></trkpt><trkpt lat="44.603761448651795" lon="8.189104715836287"><ele>439.75</ele><time>2026-05-01T08:37:46.999Z</time></trkpt><trkpt lat="44.603638875716015" lon="8.189136158916758"><ele>437.0</ele><time>2026-05-01T08:37:47.999Z</time></trkpt><trkpt lat="44.60352181535613" lon="8.189176941541655"><ele>436.75</ele><time>2026-05-01T08:37:48.999Z</time></trkpt><trkpt lat="44.603407149424406" lon="8.189213193096792"><ele>436.5</ele><time>2026-05-01T08:37:49.999Z</time></trkpt><trkpt lat="44.6033014093076" lon="8.189292504471082"><ele>436.25</ele><time>2026-05-01T08:37:50.999Z</time></trkpt><trkpt lat="44.60321208918686" lon="8.189430622030116"><ele>436.0</ele><time>2026-05-01T08:37:51.999Z</time></trkpt><trkpt lat="44.60313286046564" lon="8.189597139023792"><ele>436.0</ele><time>2026-05-01T08:37:52.999Z</time></trkpt><trkpt lat="44.603051375812385" lon="8.189768561738484"><ele>436.0</ele><time>2026-05-01T08:37:53.999Z</time></trkpt><trkpt lat="44.60293549862301" lon="8.189883045628955"><ele>436.0</ele><time>2026-05-01T08:37:54.999Z</time></trkpt><trkpt lat="44.60280348390411" lon="8.189954798918869"><ele>436.0</ele><time>2026-05-01T08:37:55.999Z</time></trkpt><trkpt lat="44.60264879865573" lon="8.190013172806532"><ele>434.33333333333337</ele><time>2026-05-01T08:37:56.999Z</time></trkpt><trkpt lat="44.60249893722791" lon="8.190085706786672"><ele>432.66666666666663</ele><time>2026-05-01T08:37:57.999Z</time></trkpt><trkpt lat="44.602350861157724" lon="8.190138107699442"><ele>431.0</ele><time>2026-05-01T08:37:58.999Z</time></trkpt><trkpt lat="44.602208264286425" lon="8.190193062894197"><ele>431.0</ele><time>2026-05-01T08:37:59.999Z</time></trkpt><trkpt lat="44.602059047034" lon="8.190255050652878"><ele>431.0</ele><time>2026-05-01T08:38:00.999Z</time></trkpt><trkpt lat="44.60191322994279" lon="8.19030761100059"><ele>431.0</ele><time>2026-05-01T08:38:01.999Z</time></trkpt><trkpt lat="44.601770097929545" lon="8.190354723331584"><ele>430.25</ele><time>2026-05-01T08:38:02.999Z</time></trkpt><trkpt lat="44.60163162468099" lon="8.190416641389849"><ele>429.5</ele><time>2026-05-01T08:38:03.999Z</time></trkpt><trkpt lat="44.60150451567363" lon="8.190501978931062"><ele>428.75</ele><time>2026-05-01T08:38:04.999Z</time></trkpt><trkpt lat="44.601404790138226" lon="8.190598071866217"><ele>428.0</ele><time>2026-05-01T08:38:05.999Z</time></trkpt><trkpt lat="44.60133825861449" lon="8.19070578014176"><ele>428.0</ele><time>2026-05-01T08:38:06.999Z</time></trkpt><trkpt lat="44.601318143982745" lon="8.190842860212468"><ele>428.0</ele><time>2026-05-01T08:38:07.999Z</time></trkpt><trkpt lat="44.60135355450853" lon="8.191003098784675"><ele>428.0</ele><time>2026-05-01T08:38:08.999Z</time></trkpt><trkpt lat="44.601433184333885" lon="8.191151563210408"><ele>428.0</ele><time>2026-05-01T08:38:09.999Z</time></trkpt><trkpt lat="44.60152238861671" lon="8.19129691047391"><ele>428.0</ele><time>2026-05-01T08:38:10.999Z</time></trkpt><trkpt lat="44.60159281256715" lon="8.19144601957413"><ele>428.0</ele><time>2026-05-01T08:38:11.999Z</time></trkpt><trkpt lat="44.601673966312745" lon="8.191567031349603"><ele>428.0</ele><time>2026-05-01T08:38:12.999Z</time></trkpt><trkpt lat="44.60180353745702" lon="8.191596149695366"><ele>428.0</ele><time>2026-05-01T08:38:13.999Z</time></trkpt><trkpt lat="44.6019253692202" lon="8.191582237591286"><ele>430.0</ele><time>2026-05-01T08:38:14.999Z</time></trkpt><trkpt lat="44.60206445872144" lon="8.191552397132002"><ele>432.0</ele><time>2026-05-01T08:38:15.999Z</time></trkpt><trkpt lat="44.60221185821109" lon="8.19152338455129"><ele>434.0</ele><time>2026-05-01T08:38:16.999Z</time></trkpt><trkpt lat="44.60236060419891" lon="8.191492322327202"><ele>436.0</ele><time>2026-05-01T08:38:17.999Z</time></trkpt><trkpt lat="44.602509454721755" lon="8.191457419880908"><ele>436.0</ele><time>2026-05-01T08:38:18.999Z</time></trkpt><trkpt lat="44.602654675868806" lon="8.19138575870495"><ele>436.0</ele><time>2026-05-01T08:38:19.999Z</time></trkpt><trkpt lat="44.60278206729298" lon="8.191286107791361"><ele>436.0</ele><time>2026-05-01T08:38:20.999Z</time></trkpt><trkpt lat="44.60291049633029" lon="8.191196350636293"><ele>436.0</ele><time>2026-05-01T08:38:21.999Z</time></trkpt><trkpt lat="44.6030303344958" lon="8.1910755054313"><ele>434.75</ele><time>2026-05-01T08:38:22.999Z</time></trkpt><trkpt lat="44.6031333128027" lon="8.19093469295847"><ele>433.5</ele><time>2026-05-01T08:38:23.999Z</time></trkpt><trkpt lat="44.60322019699166" lon="8.190768954345321"><ele>432.25</ele><time>2026-05-01T08:38:24.999Z</time></trkpt><trkpt lat="44.60329498221214" lon="8.1905996622175"><ele>431.0</ele><time>2026-05-01T08:38:25.999Z</time></trkpt><trkpt lat="44.60337386254039" lon="8.19044469075104"><ele>431.0</ele><time>2026-05-01T08:38:26.999Z</time></trkpt><trkpt lat="44.60345864301868" lon="8.190301595937777"><ele>431.0</ele><time>2026-05-01T08:38:27.999Z</time></trkpt><trkpt lat="44.60354715981443" lon="8.190174892716202"><ele>431.0</ele><time>2026-05-01T08:38:28.999Z</time></trkpt><trkpt lat="44.60367498180882" lon="8.190116188037802"><ele>431.0</ele><time>2026-05-01T08:38:29.999Z</time></trkpt><trkpt lat="44.60381808723728" lon="8.190085895948348"><ele>426.25</ele><time>2026-05-01T08:38:30.999Z</time></trkpt><trkpt lat="44.60396521423209" lon="8.190116556819651"><ele>421.5</ele><time>2026-05-01T08:38:31.999Z</time></trkpt><trkpt lat="44.60410781244442" lon="8.190164806740642"><ele>416.75</ele><time>2026-05-01T08:38:32.999Z</time></trkpt><trkpt lat="44.60424464384376" lon="8.190215366671419"><ele>412.0</ele><time>2026-05-01T08:38:33.999Z</time></trkpt><trkpt lat="44.604382885185984" lon="8.190256293526549"><ele>412.0</ele><time>2026-05-01T08:38:34.999Z</time></trkpt><trkpt lat="44.60449533540457" lon="8.190283010454058"><ele>412.0</ele><time>2026-05-01T08:38:36Z</time></trkpt><trkpt lat="44.60459469819512" lon="8.19024503793311"><ele>412.0</ele><time>2026-05-01T08:38:37Z</time></trkpt><trkpt lat="44.6046808358307" lon="8.190131767812671"><ele>412.0</ele><time>2026-05-01T08:38:38Z</time></trkpt><trkpt lat="44.604737472735785" lon="8.189948486580166"><ele>409.5</ele><time>2026-05-01T08:38:39Z</time></trkpt><trkpt lat="44.60479274128185" lon="8.189752696498898"><ele>407.0</ele><time>2026-05-01T08:38:40Z</time></trkpt><trkpt lat="44.604858998147485" lon="8.189572523757525"><ele>404.5</ele><time>2026-05-01T08:38:41Z</time></trkpt><trkpt lat="44.60493257750218" lon="8.189396778214485"><ele>402.0</ele><time>2026-05-01T08:38:42Z</time></trkpt><trkpt lat="44.60500552383517" lon="8.189222375278497"><ele>402.0</ele><time>2026-05-01T08:38:43Z</time></trkpt><trkpt lat="44.605078340420114" lon="8.18904692384857"><ele>402.0</ele><time>2026-05-01T08:38:44Z</time></trkpt><trkpt lat="44.605160812639944" lon="8.188884217318467"><ele>402.0</ele><time>2026-05-01T08:38:45Z</time></trkpt><trkpt lat="44.60525004111409" lon="8.188732614231155"><ele>402.0</ele><time>2026-05-01T08:38:46Z</time></trkpt><trkpt lat="44.60535130141471" lon="8.18859483332755"><ele>402.75</ele><time>2026-05-01T08:38:47Z</time></trkpt><trkpt lat="44.60546013823727" lon="8.18847497146984"><ele>403.5</ele><time>2026-05-01T08:38:48Z</time></trkpt><trkpt lat="44.60557550037825" lon="8.18836320902567"><ele>404.25</ele><time>2026-05-01T08:38:49Z</time></trkpt><trkpt lat="44.60569206150591" lon="8.188255595701257"><ele>405.0</ele><time>2026-05-01T08:38:50Z</time></trkpt><trkpt lat="44.605805116745636" lon="8.18813862902857"><ele>405.0</ele><time>2026-05-01T08:38:51Z</time></trkpt><trkpt lat="44.60590771014175" lon="8.188014674045853"><ele>405.0</ele><time>2026-05-01T08:38:52Z</time></trkpt><trkpt lat="44.60600216424154" lon="8.187889311018981"><ele>405.0</ele><time>2026-05-01T08:38:53Z</time></trkpt><trkpt lat="44.60607653856655" lon="8.187779374106247"><ele>405.0</ele><time>2026-05-01T08:38:54Z</time></trkpt><trkpt lat="44.60614002295591" lon="8.187686045882998"><ele>402.4</ele><time>2026-05-01T08:38:55Z</time></trkpt><trkpt lat="44.60619259592314" lon="8.187615219411123"><ele>399.8</ele><time>2026-05-01T08:38:56Z</time></trkpt><trkpt lat="44.60629293092388" lon="8.187573564084449"><ele>397.20000000000005</ele><time>2026-05-01T08:38:58Z</time></trkpt><trkpt lat="44.606366247335686" lon="8.187702041577072"><ele>394.6</ele><time>2026-05-01T08:39:00Z</time></trkpt><trkpt lat="44.60636090851219" lon="8.187802514392022"><ele>392.0</ele><time>2026-05-01T08:39:01Z</time></trkpt><trkpt lat="44.60627387189067" lon="8.187871640941271"><ele>392.0</ele><time>2026-05-01T08:39:02Z</time></trkpt><trkpt lat="44.60618622439711" lon="8.187985858287043"><ele>392.0</ele><time>2026-05-01T08:39:03Z</time></trkpt><trkpt lat="44.606080071378905" lon="8.188132766798413"><ele>392.0</ele><time>2026-05-01T08:39:04Z</time></trkpt><trkpt lat="44.60596301209315" lon="8.188300833989711"><ele>392.0</ele><time>2026-05-01T08:39:05Z</time></trkpt><trkpt lat="44.60585262264191" lon="8.188459325080904"><ele>391.5</ele><time>2026-05-01T08:39:06Z</time></trkpt><trkpt lat="44.60575023107057" lon="8.188604859615497"><ele>391.0</ele><time>2026-05-01T08:39:07Z</time></trkpt><trkpt lat="44.605655396267856" lon="8.188759861480532"><ele>390.5</ele><time>2026-05-01T08:39:08Z</time></trkpt><trkpt lat="44.60555971676419" lon="8.18890786046239"><ele>390.0</ele><time>2026-05-01T08:39:09Z</time></trkpt><trkpt lat="44.60547018282901" lon="8.189062861073502"><ele>386.25</ele><time>2026-05-01T08:39:10Z</time></trkpt><trkpt lat="44.605410856330025" lon="8.189239714085335"><ele>382.5</ele><time>2026-05-01T08:39:11Z</time></trkpt><trkpt lat="44.6053889826281" lon="8.189436217592599"><ele>378.75</ele><time>2026-05-01T08:39:12Z</time></trkpt><trkpt lat="44.6054007036685" lon="8.18963518671293"><ele>375.0</ele><time>2026-05-01T08:39:13Z</time></trkpt><trkpt lat="44.60538439319819" lon="8.18982359982127"><ele>378.0</ele><time>2026-05-01T08:39:14Z</time></trkpt><trkpt lat="44.60533899766353" lon="8.189997154542423"><ele>381.0</ele><time>2026-05-01T08:39:15Z</time></trkpt><trkpt lat="44.6052667895259" lon="8.190160850974943"><ele>384.0</ele><time>2026-05-01T08:39:16Z</time></trkpt><trkpt lat="44.605194546103654" lon="8.19032549437866"><ele>387.0</ele><time>2026-05-01T08:39:17Z</time></trkpt><trkpt lat="44.60512116507486" lon="8.190492730392974"><ele>387.0</ele><time>2026-05-01T08:39:18Z</time></trkpt><trkpt lat="44.60504887255395" lon="8.190659071792439"><ele>387.0</ele><time>2026-05-01T08:39:19Z</time></trkpt><trkpt lat="44.60497805160098" lon="8.190824500424618"><ele>387.0</ele><time>2026-05-01T08:39:20Z</time></trkpt><trkpt lat="44.60490315688102" lon="8.190984877548635"><ele>387.0</ele><time>2026-05-01T08:39:21Z</time></trkpt><trkpt lat="44.604810300178244" lon="8.19110996199121"><ele>387.0</ele><time>2026-05-01T08:39:22Z</time></trkpt><trkpt lat="44.604698609015195" lon="8.191195524272588"><ele>387.0</ele><time>2026-05-01T08:39:23Z</time></trkpt><trkpt lat="44.60457552875953" lon="8.191265589656512"><ele>387.0</ele><time>2026-05-01T08:39:24Z</time></trkpt><trkpt lat="44.60445334838895" lon="8.191335688489238"><ele>387.0</ele><time>2026-05-01T08:39:25Z</time></trkpt><trkpt lat="44.60433137688129" lon="8.191409306033428"><ele>387.0</ele><time>2026-05-01T08:39:26Z</time></trkpt><trkpt lat="44.60420704585314" lon="8.191488650872905"><ele>387.0</ele><time>2026-05-01T08:39:27Z</time></trkpt><trkpt lat="44.60408632853139" lon="8.191572829303494"><ele>387.0</ele><time>2026-05-01T08:39:28Z</time></trkpt><trkpt lat="44.603967267044666" lon="8.191662600164799"><ele>387.0</ele><time>2026-05-01T08:39:29Z</time></trkpt><trkpt lat="44.60385486937606" lon="8.191771492082143"><ele>386.25</ele><time>2026-05-01T08:39:30Z</time></trkpt><trkpt lat="44.60374837118631" lon="8.191889686712225"><ele>385.5</ele><time>2026-05-01T08:39:31Z</time></trkpt><trkpt lat="44.603631531474186" lon="8.191991733249354"><ele>384.75</ele><time>2026-05-01T08:39:31.999Z</time></trkpt><trkpt lat="44.60352437749882" lon="8.192111137689198"><ele>384.0</ele><time>2026-05-01T08:39:32.999Z</time></trkpt><trkpt lat="44.6034258685096" lon="8.192244782991184"><ele>376.75</ele><time>2026-05-01T08:39:33.999Z</time></trkpt><trkpt lat="44.60331500339052" lon="8.192359236495951"><ele>369.5</ele><time>2026-05-01T08:39:34.999Z</time></trkpt><trkpt lat="44.603204316695304" lon="8.192474091173292"><ele>362.25</ele><time>2026-05-01T08:39:35.999Z</time></trkpt><trkpt lat="44.60308705068802" lon="8.19257611045554"><ele>355.0</ele><time>2026-05-01T08:39:36.999Z</time></trkpt><trkpt lat="44.60296201483059" lon="8.192657293478181"><ele>359.5</ele><time>2026-05-01T08:39:37.999Z</time></trkpt><trkpt lat="44.6028298868196" lon="8.192728849636238"><ele>364.0</ele><time>2026-05-01T08:39:38.999Z</time></trkpt><trkpt lat="44.60269954023627" lon="8.19280010346543"><ele>368.5</ele><time>2026-05-01T08:39:39.999Z</time></trkpt><trkpt lat="44.60257023838935" lon="8.192881584819103"><ele>373.0</ele><time>2026-05-01T08:39:40.999Z</time></trkpt><trkpt lat="44.60244234054164" lon="8.192966593513988"><ele>373.0</ele><time>2026-05-01T08:39:41.999Z</time></trkpt><trkpt lat="44.60231617371666" lon="8.19305612056841"><ele>373.0</ele><time>2026-05-01T08:39:42.999Z</time></trkpt><trkpt lat="44.60219196558886" lon="8.193150194556758"><ele>373.0</ele><time>2026-05-01T08:39:43.999Z</time></trkpt><trkpt lat="44.602085907695965" lon="8.19323984940534"><ele>373.0</ele><time>2026-05-01T08:39:44.999Z</time></trkpt><trkpt lat="44.60199141697887" lon="8.193319884876466"><ele>368.2</ele><time>2026-05-01T08:39:45.999Z</time></trkpt><trkpt lat="44.60190006293735" lon="8.193388269801536"><ele>363.4</ele><time>2026-05-01T08:39:46.999Z</time></trkpt><trkpt lat="44.601813736534396" lon="8.193438712953075"><ele>358.59999999999997</ele><time>2026-05-01T08:39:47.999Z</time></trkpt><trkpt lat="44.60171836078237" lon="8.193470360343118"><ele>353.79999999999995</ele><time>2026-05-01T08:39:48.999Z</time></trkpt><trkpt lat="44.601604580549775" lon="8.193487348652157"><ele>349.0</ele><time>2026-05-01T08:39:49.999Z</time></trkpt><trkpt lat="44.601473565211776" lon="8.193463722904141"><ele>349.0</ele><time>2026-05-01T08:39:50.999Z</time></trkpt><trkpt lat="44.60132476441076" lon="8.19345206206742"><ele>349.0</ele><time>2026-05-01T08:39:51.999Z</time></trkpt><trkpt lat="44.601172687234836" lon="8.193414577387804"><ele>349.0</ele><time>2026-05-01T08:39:52.999Z</time></trkpt><trkpt lat="44.60101667996183" lon="8.19335473568605"><ele>354.0</ele><time>2026-05-01T08:39:53.999Z</time></trkpt><trkpt lat="44.60085935301321" lon="8.193277660779428"><ele>359.0</ele><time>2026-05-01T08:39:54.999Z</time></trkpt><trkpt lat="44.6007155218394" lon="8.193166548606236"><ele>364.0</ele><time>2026-05-01T08:39:55.999Z</time></trkpt><trkpt lat="44.60058572555572" lon="8.19304401460258"><ele>364.0</ele><time>2026-05-01T08:39:56.999Z</time></trkpt><trkpt lat="44.60046892113861" lon="8.192903015122493"><ele>364.0</ele><time>2026-05-01T08:39:57.999Z</time></trkpt><trkpt lat="44.60035575614162" lon="8.19276346624088"><ele>364.0</ele><time>2026-05-01T08:39:58.999Z</time></trkpt><trkpt lat="44.600243875804516" lon="8.192633376131472"><ele>361.5</ele><time>2026-05-01T08:39:59.999Z</time></trkpt><trkpt lat="44.60012105908439" lon="8.192525434959055"><ele>359.0</ele><time>2026-05-01T08:40:00.999Z</time></trkpt><trkpt lat="44.59999116510335" lon="8.192431849956764"><ele>356.5</ele><time>2026-05-01T08:40:01.999Z</time></trkpt><trkpt lat="44.59986124235367" lon="8.19234757673033"><ele>354.0</ele><time>2026-05-01T08:40:02.999Z</time></trkpt><trkpt lat="44.59973117434813" lon="8.192260249105422"><ele>354.0</ele><time>2026-05-01T08:40:03.999Z</time></trkpt><trkpt lat="44.599614992326025" lon="8.192147647737134"><ele>354.0</ele><time>2026-05-01T08:40:04.999Z</time></trkpt><trkpt lat="44.59950855331915" lon="8.192013117782379"><ele>354.0</ele><time>2026-05-01T08:40:05.999Z</time></trkpt><trkpt lat="44.59941070233506" lon="8.191865642107022"><ele>354.0</ele><time>2026-05-01T08:40:06.999Z</time></trkpt><trkpt lat="44.59931623727411" lon="8.1917173301616"><ele>347.25</ele><time>2026-05-01T08:40:07.999Z</time></trkpt><trkpt lat="44.59921212016794" lon="8.191593701255123"><ele>340.5</ele><time>2026-05-01T08:40:08.999Z</time></trkpt><trkpt lat="44.59908799677045" lon="8.19151230098026"><ele>333.75</ele><time>2026-05-01T08:40:09.999Z</time></trkpt><trkpt lat="44.59895085698163" lon="8.191481804385692"><ele>327.0</ele><time>2026-05-01T08:40:10.999Z</time></trkpt><trkpt lat="44.598811287830735" lon="8.191501097151995"><ele>326.5</ele><time>2026-05-01T08:40:11.999Z</time></trkpt><trkpt lat="44.59867885609458" lon="8.191573834362844"><ele>326.0</ele><time>2026-05-01T08:40:12.999Z</time></trkpt><trkpt lat="44.59856552657639" lon="8.191679312701003"><ele>325.5</ele><time>2026-05-01T08:40:13.999Z</time></trkpt><trkpt lat="44.598466087449104" lon="8.191804893360942"><ele>325.0</ele><time>2026-05-01T08:40:14.999Z</time></trkpt><trkpt lat="44.59835043184164" lon="8.191881878827258"><ele>322.6</ele><time>2026-05-01T08:40:15.999Z</time></trkpt><trkpt lat="44.598227908448045" lon="8.191905162524261"><ele>320.2</ele><time>2026-05-01T08:40:16.999Z</time></trkpt><trkpt lat="44.59810471594813" lon="8.191886535660556"><ele>317.8</ele><time>2026-05-01T08:40:17.999Z</time></trkpt><trkpt lat="44.597995405341564" lon="8.191866527043262"><ele>315.4</ele><time>2026-05-01T08:40:18.999Z</time></trkpt><trkpt lat="44.59790680089236" lon="8.191835492943039"><ele>313.0</ele><time>2026-05-01T08:40:19.999Z</time></trkpt><trkpt lat="44.59783160538188" lon="8.191873457758911"><ele>313.0</ele><time>2026-05-01T08:40:20.999Z</time></trkpt><trkpt lat="44.59779028541624" lon="8.191975682272293"><ele>313.0</ele><time>2026-05-01T08:40:21.999Z</time></trkpt><trkpt lat="44.597774008363764" lon="8.192085722296877"><ele>313.0</ele><time>2026-05-01T08:40:22.999Z</time></trkpt><trkpt lat="44.59784821995864" lon="8.192191990707059"><ele>313.0</ele><time>2026-05-01T08:40:23.999Z</time></trkpt><trkpt lat="44.59795385769364" lon="8.192245880223778"><ele>313.0</ele><time>2026-05-01T08:40:24.999Z</time></trkpt><trkpt lat="44.59807650702611" lon="8.192273486572299"><ele>313.0</ele><time>2026-05-01T08:40:25.999Z</time></trkpt><trkpt lat="44.598205237322915" lon="8.192305038069462"><ele>313.0</ele><time>2026-05-01T08:40:26.999Z</time></trkpt><trkpt lat="44.598333649323294" lon="8.19233427399785"><ele>313.0</ele><time>2026-05-01T08:40:27.999Z</time></trkpt><trkpt lat="44.598457491853765" lon="8.192326045860673"><ele>313.0</ele><time>2026-05-01T08:40:28.999Z</time></trkpt><trkpt lat="44.59857892864434" lon="8.192259272334262"><ele>316.0</ele><time>2026-05-01T08:40:29.999Z</time></trkpt><trkpt lat="44.59868050948519" lon="8.192148997142105"><ele>319.0</ele><time>2026-05-01T08:40:30.999Z</time></trkpt><trkpt lat="44.59877787473653" lon="8.192043138572645"><ele>322.0</ele><time>2026-05-01T08:40:31.999Z</time></trkpt><trkpt lat="44.5989043956674" lon="8.192007344117405"><ele>325.0</ele><time>2026-05-01T08:40:32.999Z</time></trkpt><trkpt lat="44.59904479330253" lon="8.192076433336299"><ele>325.0</ele><time>2026-05-01T08:40:33.999Z</time></trkpt><trkpt lat="44.599134193299975" lon="8.192251304059793"><ele>325.0</ele><time>2026-05-01T08:40:34.999Z</time></trkpt><trkpt lat="44.59924354951396" lon="8.192410024095315"><ele>325.0</ele><time>2026-05-01T08:40:35.999Z</time></trkpt><trkpt lat="44.599334437468954" lon="8.192595726078391"><ele>326.66666666666663</ele><time>2026-05-01T08:40:36.999Z</time></trkpt><trkpt lat="44.599447847529035" lon="8.192764035323338"><ele>328.3333333333333</ele><time>2026-05-01T08:40:37.999Z</time></trkpt><trkpt lat="44.59957613051776" lon="8.192925051961334"><ele>330.0</ele><time>2026-05-01T08:40:38.999Z</time></trkpt><trkpt lat="44.599700283276775" lon="8.193069665755786"><ele>321.3333333333333</ele><time>2026-05-01T08:40:39.999Z</time></trkpt><trkpt lat="44.599817451715836" lon="8.193211475150571"><ele>312.66666666666663</ele><time>2026-05-01T08:40:40.999Z</time></trkpt><trkpt lat="44.59992999372398" lon="8.193358471903363"><ele>304.0</ele><time>2026-05-01T08:40:42Z</time></trkpt><trkpt lat="44.60004034332724" lon="8.193501226476151"><ele>304.0</ele><time>2026-05-01T08:40:43Z</time></trkpt><trkpt lat="44.60015086462895" lon="8.193638312176077"><ele>304.0</ele><time>2026-05-01T08:40:44Z</time></trkpt><trkpt lat="44.60026319967161" lon="8.193771179579434"><ele>304.0</ele><time>2026-05-01T08:40:45Z</time></trkpt><trkpt lat="44.60037296431999" lon="8.193906677480504"><ele>304.0</ele><time>2026-05-01T08:40:46Z</time></trkpt><trkpt lat="44.600484573991515" lon="8.194037569399066"><ele>302.75</ele><time>2026-05-01T08:40:47Z</time></trkpt><trkpt lat="44.60060656194487" lon="8.194148375467439"><ele>301.5</ele><time>2026-05-01T08:40:48Z</time></trkpt><trkpt lat="44.60073554049581" lon="8.194233026250505"><ele>300.25</ele><time>2026-05-01T08:40:49Z</time></trkpt><trkpt lat="44.60086464438805" lon="8.194301224289028"><ele>299.0</ele><time>2026-05-01T08:40:50Z</time></trkpt><trkpt lat="44.60098299057613" lon="8.19436765055331"><ele>299.0</ele><time>2026-05-01T08:40:51Z</time></trkpt><trkpt lat="44.60109536106079" lon="8.194430253988871"><ele>299.0</ele><time>2026-05-01T08:40:52Z</time></trkpt><trkpt lat="44.60119601429116" lon="8.194482664283775"><ele>299.0</ele><time>2026-05-01T08:40:53Z</time></trkpt><trkpt lat="44.60128287995149" lon="8.19453038972797"><ele>299.0</ele><time>2026-05-01T08:40:54Z</time></trkpt><trkpt lat="44.60133671982876" lon="8.194605422279006"><ele>299.0</ele><time>2026-05-01T08:40:55Z</time></trkpt><trkpt lat="44.60133681669201" lon="8.194724100639116"><ele>299.0</ele><time>2026-05-01T08:40:56Z</time></trkpt><trkpt lat="44.60129429573138" lon="8.194830682086687"><ele>299.0</ele><time>2026-05-01T08:40:57Z</time></trkpt><trkpt lat="44.60120378885556" lon="8.194857780454827"><ele>299.0</ele><time>2026-05-01T08:40:58Z</time></trkpt><trkpt lat="44.60111051090635" lon="8.194818792883533"><ele>299.0</ele><time>2026-05-01T08:40:59Z</time></trkpt><trkpt lat="44.601004555319385" lon="8.19476229444307"><ele>299.0</ele><time>2026-05-01T08:41:00Z</time></trkpt><trkpt lat="44.60088252947202" lon="8.194715057091603"><ele>299.0</ele><time>2026-05-01T08:41:01Z</time></trkpt><trkpt lat="44.600740861538924" lon="8.194633094739064"><ele>299.0</ele><time>2026-05-01T08:41:02Z</time></trkpt><trkpt lat="44.60059240761261" lon="8.194546907204517"><ele>299.0</ele><time>2026-05-01T08:41:03Z</time></trkpt><trkpt lat="44.600438274709305" lon="8.194461736634484"><ele>292.0</ele><time>2026-05-01T08:41:04Z</time></trkpt><trkpt lat="44.600292389495586" lon="8.194375674936435"><ele>285.0</ele><time>2026-05-01T08:41:05Z</time></trkpt><trkpt lat="44.600122883663154" lon="8.19428307618067"><ele>278.0</ele><time>2026-05-01T08:41:06Z</time></trkpt><trkpt lat="44.59995109749625" lon="8.194189803008598"><ele>278.0</ele><time>2026-05-01T08:41:07Z</time></trkpt><trkpt lat="44.59979689621427" lon="8.194056560611118"><ele>278.0</ele><time>2026-05-01T08:41:08Z</time></trkpt><trkpt lat="44.59964042497791" lon="8.193932496314805"><ele>278.0</ele><time>2026-05-01T08:41:09Z</time></trkpt><trkpt lat="44.599477207762455" lon="8.19381207724104"><ele>278.6666666666667</ele><time>2026-05-01T08:41:10Z</time></trkpt><trkpt lat="44.59931867437858" lon="8.193671563900589"><ele>279.3333333333333</ele><time>2026-05-01T08:41:11Z</time></trkpt><trkpt lat="44.599153694177176" lon="8.193529133360613"><ele>280.0</ele><time>2026-05-01T08:41:12Z</time></trkpt><trkpt lat="44.59898991943056" lon="8.193386073079866"><ele>280.0</ele><time>2026-05-01T08:41:13Z</time></trkpt><trkpt lat="44.59881764590701" lon="8.193252471502833"><ele>280.0</ele><time>2026-05-01T08:41:14Z</time></trkpt><trkpt lat="44.59863678306433" lon="8.193177409058713"><ele>280.0</ele><time>2026-05-01T08:41:15Z</time></trkpt><trkpt lat="44.598432572751115" lon="8.193182964428601"><ele>276.66666666666663</ele><time>2026-05-01T08:41:16Z</time></trkpt><trkpt lat="44.59822318287159" lon="8.193217108031638"><ele>273.3333333333333</ele><time>2026-05-01T08:41:17Z</time></trkpt><trkpt lat="44.59801492804989" lon="8.193176348315179"><ele>270.0</ele><time>2026-05-01T08:41:18Z</time></trkpt><trkpt lat="44.59780577114009" lon="8.193141885461868"><ele>278.0</ele><time>2026-05-01T08:41:19Z</time></trkpt><trkpt lat="44.59759854503781" lon="8.193075427484233"><ele>286.0</ele><time>2026-05-01T08:41:20Z</time></trkpt><trkpt lat="44.59739198505594" lon="8.193018017247336"><ele>294.0</ele><time>2026-05-01T08:41:21Z</time></trkpt><trkpt lat="44.59720096555625" lon="8.192949073364343"><ele>294.0</ele><time>2026-05-01T08:41:22Z</time></trkpt><trkpt lat="44.59701424330677" lon="8.192896807094371"><ele>294.0</ele><time>2026-05-01T08:41:23Z</time></trkpt><trkpt lat="44.596833781858145" lon="8.19284624010867"><ele>294.0</ele><time>2026-05-01T08:41:24Z</time></trkpt><trkpt lat="44.59665717696257" lon="8.192820170177217"><ele>285.0</ele><time>2026-05-01T08:41:25Z</time></trkpt><trkpt lat="44.59648415235369" lon="8.19277367801099"><ele>276.0</ele><time>2026-05-01T08:41:26Z</time></trkpt><trkpt lat="44.59631444495559" lon="8.192721068522307"><ele>267.0</ele><time>2026-05-01T08:41:27Z</time></trkpt><trkpt lat="44.59614565119021" lon="8.192678367214238"><ele>263.0</ele><time>2026-05-01T08:41:28Z</time></trkpt><trkpt lat="44.5959836354915" lon="8.192632181204138"><ele>259.0</ele><time>2026-05-01T08:41:29Z</time></trkpt><trkpt lat="44.59582852099636" lon="8.192590052687232"><ele>255.0</ele><time>2026-05-01T08:41:30Z</time></trkpt><trkpt lat="44.595679810623146" lon="8.192543838938995"><ele>255.0</ele><time>2026-05-01T08:41:31Z</time></trkpt><trkpt lat="44.59555189733479" lon="8.19243456226526"><ele>255.0</ele><time>2026-05-01T08:41:32Z</time></trkpt><trkpt lat="44.59540807711887" lon="8.192321020571736"><ele>255.0</ele><time>2026-05-01T08:41:33Z</time></trkpt><trkpt lat="44.59526346687783" lon="8.192185455923253"><ele>254.33333333333331</ele><time>2026-05-01T08:41:33.999Z</time></trkpt><trkpt lat="44.59508958961893" lon="8.192040555939737"><ele>253.66666666666666</ele><time>2026-05-01T08:41:34.999Z</time></trkpt><trkpt lat="44.594921145308355" lon="8.191875883971697"><ele>253.0</ele><time>2026-05-01T08:41:35.999Z</time></trkpt><trkpt lat="44.59476172013978" lon="8.191718890254137"><ele>253.0</ele><time>2026-05-01T08:41:36.999Z</time></trkpt><trkpt lat="44.59460339881164" lon="8.191572508890863"><ele>253.0</ele><time>2026-05-01T08:41:37.999Z</time></trkpt><trkpt lat="44.594451724152584" lon="8.191433044243182"><ele>253.0</ele><time>2026-05-01T08:41:38.999Z</time></trkpt><trkpt lat="44.59430064273152" lon="8.191295572868404"><ele>253.33333333333331</ele><time>2026-05-01T08:41:39.999Z</time></trkpt><trkpt lat="44.59415475255726" lon="8.191161098884072"><ele>253.66666666666669</ele><time>2026-05-01T08:41:40.999Z</time></trkpt><trkpt lat="44.59401136832496" lon="8.191025641687288"><ele>254.0</ele><time>2026-05-01T08:41:41.999Z</time></trkpt><trkpt lat="44.593869518329655" lon="8.190887130394243"><ele>254.0</ele><time>2026-05-01T08:41:42.999Z</time></trkpt><trkpt lat="44.59372969913324" lon="8.190750666417065"><ele>254.0</ele><time>2026-05-01T08:41:43.999Z</time></trkpt><trkpt lat="44.59359230053408" lon="8.190618322677715"><ele>254.0</ele><time>2026-05-01T08:41:44.999Z</time></trkpt><trkpt lat="44.59345308877411" lon="8.190485458913578"><ele>253.0</ele><time>2026-05-01T08:41:45.999Z</time></trkpt><trkpt lat="44.593317610733045" lon="8.190357813449674"><ele>252.0</ele><time>2026-05-01T08:41:46.999Z</time></trkpt><trkpt lat="44.59317902153469" lon="8.190249832557642"><ele>251.0</ele><time>2026-05-01T08:41:47.999Z</time></trkpt><trkpt lat="44.59303165939538" lon="8.190179623122544"><ele>251.0</ele><time>2026-05-01T08:41:48.999Z</time></trkpt><trkpt lat="44.592876633786105" lon="8.190159200117272"><ele>251.0</ele><time>2026-05-01T08:41:49.999Z</time></trkpt><trkpt lat="44.592716105261125" lon="8.190180019223384"><ele>251.0</ele><time>2026-05-01T08:41:50.999Z</time></trkpt><trkpt lat="44.592554322292266" lon="8.190225625904798"><ele>249.33333333333334</ele><time>2026-05-01T08:41:51.999Z</time></trkpt><trkpt lat="44.592402038134125" lon="8.190258126629185"><ele>247.66666666666669</ele><time>2026-05-01T08:41:52.999Z</time></trkpt><trkpt lat="44.592251775673134" lon="8.19026054323405"><ele>246.0</ele><time>2026-05-01T08:41:53.999Z</time></trkpt><trkpt lat="44.59210760191976" lon="8.190298542599848"><ele>245.5</ele><time>2026-05-01T08:41:54.999Z</time></trkpt><trkpt lat="44.591964292784404" lon="8.190328328828697"><ele>245.0</ele><time>2026-05-01T08:41:55.999Z</time></trkpt><trkpt lat="44.591825119956674" lon="8.190349413595005"><ele>244.5</ele><time>2026-05-01T08:41:56.999Z</time></trkpt><trkpt lat="44.59168669688305" lon="8.190371363196702"><ele>244.0</ele><time>2026-05-01T08:41:57.999Z</time></trkpt><trkpt lat="44.59155268934753" lon="8.19039320073947"><ele>244.0</ele><time>2026-05-01T08:41:58.999Z</time></trkpt><trkpt lat="44.59141736231972" lon="8.190413380043356"><ele>244.0</ele><time>2026-05-01T08:41:59.999Z</time></trkpt><trkpt lat="44.59128441353594" lon="8.190433856521913"><ele>244.0</ele><time>2026-05-01T08:42:00.999Z</time></trkpt><trkpt lat="44.591147970064846" lon="8.190459607726254"><ele>244.0</ele><time>2026-05-01T08:42:01.999Z</time></trkpt><trkpt lat="44.59101460604908" lon="8.190482970603739"><ele>244.5</ele><time>2026-05-01T08:42:02.999Z</time></trkpt><trkpt lat="44.590875787644336" lon="8.19050455624092"><ele>245.0</ele><time>2026-05-01T08:42:03.999Z</time></trkpt><trkpt lat="44.59073883352117" lon="8.190524812022689"><ele>245.5</ele><time>2026-05-01T08:42:04.999Z</time></trkpt><trkpt lat="44.590601940779266" lon="8.190545192713358"><ele>246.0</ele><time>2026-05-01T08:42:05.999Z</time></trkpt><trkpt lat="44.59046613451143" lon="8.190570820426082"><ele>246.0</ele><time>2026-05-01T08:42:06.999Z</time></trkpt><trkpt lat="44.59032522714672" lon="8.190591975259602"><ele>246.0</ele><time>2026-05-01T08:42:07.999Z</time></trkpt><trkpt lat="44.590188163007895" lon="8.190610868485308"><ele>246.0</ele><time>2026-05-01T08:42:08.999Z</time></trkpt><trkpt lat="44.59005313970102" lon="8.19063364980128"><ele>246.0</ele><time>2026-05-01T08:42:09.999Z</time></trkpt><trkpt lat="44.589917744604165" lon="8.19065414849072"><ele>245.75</ele><time>2026-05-01T08:42:10.999Z</time></trkpt><trkpt lat="44.589783041782034" lon="8.190674718063393"><ele>245.5</ele><time>2026-05-01T08:42:11.999Z</time></trkpt><trkpt lat="44.58965415993276" lon="8.190699191300666"><ele>245.25</ele><time>2026-05-01T08:42:12.999Z</time></trkpt><trkpt lat="44.58953083415153" lon="8.190720562088277"><ele>245.0</ele><time>2026-05-01T08:42:13.999Z</time></trkpt><trkpt lat="44.58941155067372" lon="8.190741774196654"><ele>245.0</ele><time>2026-05-01T08:42:14.999Z</time></trkpt><trkpt lat="44.58930308584068" lon="8.190761995230282"><ele>245.0</ele><time>2026-05-01T08:42:15.999Z</time></trkpt><trkpt lat="44.58920591689495" lon="8.19078618430859"><ele>245.0</ele><time>2026-05-01T08:42:16.999Z</time></trkpt><trkpt lat="44.58909768489356" lon="8.190781254363257"><ele>245.0</ele><time>2026-05-01T08:42:17.999Z</time></trkpt><trkpt lat="44.58895644766003" lon="8.19080536773153"><ele>245.0</ele><time>2026-05-01T08:42:18.999Z</time></trkpt><trkpt lat="44.58879630503597" lon="8.190852200585322"><ele>245.0</ele><time>2026-05-01T08:42:19.999Z</time></trkpt><trkpt lat="44.588633898310135" lon="8.190873497303148"><ele>245.0</ele><time>2026-05-01T08:42:20.999Z</time></trkpt><trkpt lat="44.58847043634106" lon="8.190899138772215"><ele>245.66666666666669</ele><time>2026-05-01T08:42:21.999Z</time></trkpt><trkpt lat="44.588303450960886" lon="8.190924705409165"><ele>246.33333333333331</ele><time>2026-05-01T08:42:22.999Z</time></trkpt><trkpt lat="44.588133060791996" lon="8.190954818638831"><ele>247.0</ele><time>2026-05-01T08:42:23.999Z</time></trkpt><trkpt lat="44.58795838699717" lon="8.190982087417671"><ele>247.33333333333331</ele><time>2026-05-01T08:42:24.999Z</time></trkpt><trkpt lat="44.58777915110975" lon="8.191014042149495"><ele>247.66666666666669</ele><time>2026-05-01T08:42:25.999Z</time></trkpt><trkpt lat="44.58759543711812" lon="8.191041302387156"><ele>248.0</ele><time>2026-05-01T08:42:26.999Z</time></trkpt><trkpt lat="44.58741013186822" lon="8.191072909069671"><ele>248.0</ele><time>2026-05-01T08:42:27.999Z</time></trkpt><trkpt lat="44.587224930029706" lon="8.191105203486991"><ele>248.0</ele><time>2026-05-01T08:42:28.999Z</time></trkpt><trkpt lat="44.587040549030405" lon="8.191138882768298"><ele>248.0</ele><time>2026-05-01T08:42:29.999Z</time></trkpt><trkpt lat="44.58685554539436" lon="8.191171753640422"><ele>249.0</ele><time>2026-05-01T08:42:30.999Z</time></trkpt><trkpt lat="44.58666894332977" lon="8.191195324078322"><ele>250.0</ele><time>2026-05-01T08:42:31.999Z</time></trkpt><trkpt lat="44.58647915537969" lon="8.191225390211654"><ele>251.0</ele><time>2026-05-01T08:42:32.999Z</time></trkpt><trkpt lat="44.58629320411895" lon="8.191254512340944"><ele>251.66666666666669</ele><time>2026-05-01T08:42:33.999Z</time></trkpt><trkpt lat="44.58610427131413" lon="8.19128356727505"><ele>252.33333333333331</ele><time>2026-05-01T08:42:34.999Z</time></trkpt><trkpt lat="44.58592158925755" lon="8.191316811926818"><ele>253.0</ele><time>2026-05-01T08:42:35.999Z</time></trkpt><trkpt lat="44.58573798285374" lon="8.191344115598842"><ele>253.0</ele><time>2026-05-01T08:42:36.999Z</time></trkpt><trkpt lat="44.58555821725141" lon="8.191373504512866"><ele>253.0</ele><time>2026-05-01T08:42:37.999Z</time></trkpt><trkpt lat="44.58538024238257" lon="8.191404312034237"><ele>253.0</ele><time>2026-05-01T08:42:38.999Z</time></trkpt><trkpt lat="44.58520677716688" lon="8.191436824914343"><ele>253.0</ele><time>2026-05-01T08:42:39.999Z</time></trkpt><trkpt lat="44.58502662305698" lon="8.191465871136232"><ele>253.0</ele><time>2026-05-01T08:42:40.999Z</time></trkpt><trkpt lat="44.58484643992113" lon="8.191496004447279"><ele>253.0</ele><time>2026-05-01T08:42:41.999Z</time></trkpt><trkpt lat="44.584673218851925" lon="8.191523124404707"><ele>252.66666666666666</ele><time>2026-05-01T08:42:42.999Z</time></trkpt><trkpt lat="44.5845135333603" lon="8.191546710934634"><ele>252.33333333333331</ele><time>2026-05-01T08:42:43.999Z</time></trkpt><trkpt lat="44.58435649343224" lon="8.19157288063969"><ele>252.0</ele><time>2026-05-01T08:42:44.999Z</time></trkpt><trkpt lat="44.584206227097575" lon="8.191598817806304"><ele>252.5</ele><time>2026-05-01T08:42:45.999Z</time></trkpt><trkpt lat="44.584064282001044" lon="8.191618802127064"><ele>253.0</ele><time>2026-05-01T08:42:46.999Z</time></trkpt><trkpt lat="44.583941168665135" lon="8.191656265039638"><ele>253.5</ele><time>2026-05-01T08:42:48Z</time></trkpt><trkpt lat="44.583797960791195" lon="8.191664946341177"><ele>254.0</ele><time>2026-05-01T08:42:49Z</time></trkpt><trkpt lat="44.583660280408616" lon="8.191685575677175"><ele>254.5</ele><time>2026-05-01T08:42:50Z</time></trkpt><trkpt lat="44.58352000865349" lon="8.191709492631043"><ele>255.0</ele><time>2026-05-01T08:42:51Z</time></trkpt><trkpt lat="44.58337893189464" lon="8.191735929919536"><ele>255.5</ele><time>2026-05-01T08:42:52Z</time></trkpt><trkpt lat="44.58323777980483" lon="8.191761412502771"><ele>256.0</ele><time>2026-05-01T08:42:53Z</time></trkpt><trkpt lat="44.583095830462874" lon="8.191785754011189"><ele>256.0</ele><time>2026-05-01T08:42:54Z</time></trkpt><trkpt lat="44.58295465367795" lon="8.191808946418213"><ele>256.0</ele><time>2026-05-01T08:42:55Z</time></trkpt><trkpt lat="44.582819390895246" lon="8.191830623145119"><ele>256.0</ele><time>2026-05-01T08:42:56Z</time></trkpt><trkpt lat="44.58269008094042" lon="8.191853116050451"><ele>256.0</ele><time>2026-05-01T08:42:57Z</time></trkpt><trkpt lat="44.58256694557522" lon="8.191871694974939"><ele>257.0</ele><time>2026-05-01T08:42:58Z</time></trkpt><trkpt lat="44.58245142948879" lon="8.191890056625022"><ele>258.0</ele><time>2026-05-01T08:42:59Z</time></trkpt><trkpt lat="44.58233600642598" lon="8.191910163985"><ele>259.0</ele><time>2026-05-01T08:43:00Z</time></trkpt><trkpt lat="44.58221573305004" lon="8.191932117323033"><ele>260.0</ele><time>2026-05-01T08:43:01Z</time></trkpt><trkpt lat="44.58209405023044" lon="8.191958078171712"><ele>260.25</ele><time>2026-05-01T08:43:02Z</time></trkpt><trkpt lat="44.58196508013803" lon="8.191978092037825"><ele>260.5</ele><time>2026-05-01T08:43:03Z</time></trkpt><trkpt lat="44.581836748730396" lon="8.192000007715242"><ele>260.75</ele><time>2026-05-01T08:43:04Z</time></trkpt><trkpt lat="44.58171740818428" lon="8.192016092644558"><ele>261.0</ele><time>2026-05-01T08:43:05Z</time></trkpt><trkpt lat="44.58161703088919" lon="8.192032350196305"><ele>261.0</ele><time>2026-05-01T08:43:06Z</time></trkpt><trkpt lat="44.581525442158586" lon="8.192045479035057"><ele>261.0</ele><time>2026-05-01T08:43:07Z</time></trkpt><trkpt lat="44.581439011125475" lon="8.19206012807745"><ele>261.0</ele><time>2026-05-01T08:43:08Z</time></trkpt><trkpt lat="44.58136118438742" lon="8.192074506445207"><ele>261.0</ele><time>2026-05-01T08:43:09Z</time></trkpt><trkpt lat="44.58128503335369" lon="8.192087245576035"><ele>261.0</ele><time>2026-05-01T08:43:10Z</time></trkpt><trkpt lat="44.58121110547866" lon="8.192102450377295"><ele>261.0</ele><time>2026-05-01T08:43:11Z</time></trkpt><trkpt lat="44.581134619487464" lon="8.192121056736102"><ele>259.6666666666667</ele><time>2026-05-01T08:43:12Z</time></trkpt><trkpt lat="44.58105429620485" lon="8.192137382266587"><ele>258.3333333333333</ele><time>2026-05-01T08:43:13Z</time></trkpt><trkpt lat="44.580973577452674" lon="8.192167214383609"><ele>257.0</ele><time>2026-05-01T08:43:14Z</time></trkpt><trkpt lat="44.58090154255471" lon="8.192206000935386"><ele>255.66666666666666</ele><time>2026-05-01T08:43:15Z</time></trkpt><trkpt lat="44.58083397741392" lon="8.192255414717145"><ele>254.33333333333331</ele><time>2026-05-01T08:43:16Z</time></trkpt><trkpt lat="44.58077642263266" lon="8.19232388897154"><ele>253.0</ele><time>2026-05-01T08:43:17Z</time></trkpt><trkpt lat="44.58072556466864" lon="8.192417063433128"><ele>252.49999999999997</ele><time>2026-05-01T08:43:18Z</time></trkpt><trkpt lat="44.58068038699696" lon="8.192530711867423"><ele>252.0</ele><time>2026-05-01T08:43:19Z</time></trkpt><trkpt lat="44.58063396704232" lon="8.192645143111424"><ele>251.5</ele><time>2026-05-01T08:43:20Z</time></trkpt><trkpt lat="44.580592989577" lon="8.19275022936821"><ele>251.0</ele><time>2026-05-01T08:43:21Z</time></trkpt><trkpt lat="44.58055529666324" lon="8.192848656870241"><ele>250.49999999999997</ele><time>2026-05-01T08:43:22Z</time></trkpt><trkpt lat="44.58052164123494" lon="8.192937762275047"><ele>250.0</ele><time>2026-05-01T08:43:23Z</time></trkpt><trkpt lat="44.58048687762509" lon="8.193028666560751"><ele>249.99999999999997</ele><time>2026-05-01T08:43:24Z</time></trkpt><trkpt lat="44.580452374248914" lon="8.19311871323769"><ele>250.0</ele><time>2026-05-01T08:43:25Z</time></trkpt><trkpt lat="44.58041422865427" lon="8.193220741173896"><ele>250.0</ele><time>2026-05-01T08:43:26Z</time></trkpt><trkpt lat="44.58037187829029" lon="8.193325137823315"><ele>250.0</ele><time>2026-05-01T08:43:27Z</time></trkpt><trkpt lat="44.58033004364653" lon="8.193436517262024"><ele>249.99999999999997</ele><time>2026-05-01T08:43:28Z</time></trkpt><trkpt lat="44.58028860783143" lon="8.193550775412763"><ele>250.0</ele><time>2026-05-01T08:43:29Z</time></trkpt><trkpt lat="44.58023051809471" lon="8.193655613606005"><ele>250.6</ele><time>2026-05-01T08:43:30Z</time></trkpt><trkpt lat="44.58019706467433" lon="8.19378038884862"><ele>251.2</ele><time>2026-05-01T08:43:31Z</time></trkpt><trkpt lat="44.58015281889189" lon="8.193896097174544"><ele>251.8</ele><time>2026-05-01T08:43:32Z</time></trkpt><trkpt lat="44.58011006471822" lon="8.194008253065144"><ele>252.4</ele><time>2026-05-01T08:43:33Z</time></trkpt><trkpt lat="44.58006802632516" lon="8.194115757385454"><ele>253.0</ele><time>2026-05-01T08:43:34Z</time></trkpt><trkpt lat="44.580024352517704" lon="8.194222323125915"><ele>252.99999999999997</ele><time>2026-05-01T08:43:35Z</time></trkpt><trkpt lat="44.579981316788206" lon="8.194327521031564"><ele>253.0</ele><time>2026-05-01T08:43:36Z</time></trkpt><trkpt lat="44.57993206038852" lon="8.194424690392866"><ele>253.0</ele><time>2026-05-01T08:43:37Z</time></trkpt><trkpt lat="44.5798756081282" lon="8.194517219301318"><ele>253.0</ele><time>2026-05-01T08:43:37.999Z</time></trkpt><trkpt lat="44.579821331314704" lon="8.194602614458125"><ele>252.99999999999997</ele><time>2026-05-01T08:43:38.999Z</time></trkpt><trkpt lat="44.57976170292174" lon="8.194680102768665"><ele>253.0</ele><time>2026-05-01T08:43:39.999Z</time></trkpt><trkpt lat="44.57969372242833" lon="8.194744769358298"><ele>252.99999999999997</ele><time>2026-05-01T08:43:40.999Z</time></trkpt><trkpt lat="44.57962435207186" lon="8.19480169883463"><ele>253.0</ele><time>2026-05-01T08:43:41.999Z</time></trkpt><trkpt lat="44.579554626521194" lon="8.194856527128435"><ele>253.0</ele><time>2026-05-01T08:43:42.999Z</time></trkpt><trkpt lat="44.57948759913599" lon="8.194910235331475"><ele>253.0</ele><time>2026-05-01T08:43:43.999Z</time></trkpt><trkpt lat="44.57941735280465" lon="8.19496382955102"><ele>252.99999999999997</ele><time>2026-05-01T08:43:44.999Z</time></trkpt><trkpt lat="44.579349250782954" lon="8.195011987412062"><ele>253.0</ele><time>2026-05-01T08:43:45.999Z</time></trkpt><trkpt lat="44.579277279018136" lon="8.19506243373421"><ele>253.00000000000003</ele><time>2026-05-01T08:43:46.999Z</time></trkpt><trkpt lat="44.5792080580419" lon="8.19511376091832"><ele>253.0</ele><time>2026-05-01T08:43:47.999Z</time></trkpt><trkpt lat="44.57914200425341" lon="8.195157795588882"><ele>253.00000000000003</ele><time>2026-05-01T08:43:48.999Z</time></trkpt><trkpt lat="44.57907348352453" lon="8.19518769612671"><ele>253.00000000000003</ele><time>2026-05-01T08:43:49.999Z</time></trkpt><trkpt lat="44.57901098711419" lon="8.195232133010002"><ele>253.0</ele><time>2026-05-01T08:43:50.999Z</time></trkpt><trkpt lat="44.57896001979962" lon="8.195296822038408"><ele>253.00000000000003</ele><time>2026-05-01T08:43:51.999Z</time></trkpt><trkpt lat="44.57890031948447" lon="8.19533810824246"><ele>253.00000000000003</ele><time>2026-05-01T08:43:52.999Z</time></trkpt><trkpt lat="44.5788363364412" lon="8.195381135442641"><ele>252.99999999999997</ele><time>2026-05-01T08:43:53.999Z</time></trkpt><trkpt lat="44.578776693420394" lon="8.195424237459676"><ele>253.0</ele><time>2026-05-01T08:43:54.999Z</time></trkpt><trkpt lat="44.57867588659006" lon="8.195493721752422"><ele>253.0</ele><time>2026-05-01T08:43:56.999Z</time></trkpt><trkpt lat="44.57861409703292" lon="8.19554619087754"><ele>253.0</ele><time>2026-05-01T08:43:58.999Z</time></trkpt><trkpt lat="44.578547999574" lon="8.19560251171131"><ele>252.99999999999997</ele><time>2026-05-01T08:44:01.999Z</time></trkpt><trkpt lat="44.57854295514776" lon="8.195707911471338"><ele>253.0</ele><time>2026-05-01T08:44:04.999Z</time></trkpt><trkpt lat="44.578531890032394" lon="8.195607223980623"><ele>256.0</ele><time>2026-05-01T08:44:05.999Z</time></trkpt><trkpt lat="44.57864354670072" lon="8.195706292632233"><ele>253.0</ele><time>2026-05-01T08:44:07.999Z</time></trkpt><trkpt lat="44.57871078149481" lon="8.195633696278014"><ele>253.0</ele><time>2026-05-01T08:44:10.999Z</time></trkpt><trkpt lat="44.57877029404569" lon="8.195590309519922"><ele>253.0</ele><time>2026-05-01T08:44:12.999Z</time></trkpt></trkseg><trkseg><trkpt lat="44.57871534387365" lon="8.195557092245773"><ele>253.0</ele><time>2026-05-01T09:05:46.885Z</time></trkpt><trkpt lat="44.57879771028844" lon="8.195504364309718"><ele>253.0</ele><time>2026-05-01T09:09:41.998Z</time></trkpt><trkpt lat="44.57884189857566" lon="8.195415726927084"><ele>253.0</ele><time>2026-05-01T09:09:44.998Z</time></trkpt><trkpt lat="44.57893294233897" lon="8.195330875019536"><ele>253.0</ele><time>2026-05-01T09:09:46.998Z</time></trkpt><trkpt lat="44.57901215264849" lon="8.195372036167415"><ele>253.0</ele><time>2026-05-01T09:09:48.998Z</time></trkpt><trkpt lat="44.579010903173725" lon="8.195501048771728"><ele>252.99999999999997</ele><time>2026-05-01T09:09:50.998Z</time></trkpt><trkpt lat="44.578925344280535" lon="8.195610145525215"><ele>253.0</ele><time>2026-05-01T09:09:52.998Z</time></trkpt><trkpt lat="44.57884726638657" lon="8.195716580674686"><ele>253.0</ele><time>2026-05-01T09:09:54.998Z</time></trkpt><trkpt lat="44.57880416226353" lon="8.195822735315092"><ele>253.0</ele><time>2026-05-01T09:09:56.998Z</time></trkpt><trkpt lat="44.57882372027221" lon="8.195906804813063"><ele>252.99999999999997</ele><time>2026-05-01T09:09:57.998Z</time></trkpt><trkpt lat="44.57886406368133" lon="8.195991810125408"><ele>253.0</ele><time>2026-05-01T09:09:58.998Z</time></trkpt><trkpt lat="44.578909342291176" lon="8.196081114188358"><ele>253.0</ele><time>2026-05-01T09:09:59.999Z</time></trkpt><trkpt lat="44.57895758034396" lon="8.196174526151589"><ele>253.0</ele><time>2026-05-01T09:10:00.999Z</time></trkpt><trkpt lat="44.579010999928705" lon="8.196287560581808"><ele>253.0</ele><time>2026-05-01T09:10:01.999Z</time></trkpt><trkpt lat="44.579061002324735" lon="8.1964072525903"><ele>253.0</ele><time>2026-05-01T09:10:02.999Z</time></trkpt><trkpt lat="44.5791172560058" lon="8.196536866044287"><ele>253.0</ele><time>2026-05-01T09:10:03.999Z</time></trkpt><trkpt lat="44.579176348237205" lon="8.19666845452466"><ele>253.0</ele><time>2026-05-01T09:10:04.999Z</time></trkpt><trkpt lat="44.57922879042541" lon="8.196816558727269"><ele>253.0</ele><time>2026-05-01T09:10:05.999Z</time></trkpt><trkpt lat="44.57929335787614" lon="8.196957988312215"><ele>253.0</ele><time>2026-05-01T09:10:06.999Z</time></trkpt><trkpt lat="44.57935674588653" lon="8.197096834446567"><ele>253.0</ele><time>2026-05-01T09:10:07.999Z</time></trkpt><trkpt lat="44.57942076213884" lon="8.197237057953602"><ele>254.5</ele><time>2026-05-01T09:10:08.999Z</time></trkpt><trkpt lat="44.57948515350033" lon="8.19737630089758"><ele>256.0</ele><time>2026-05-01T09:10:09.999Z</time></trkpt><trkpt lat="44.57955058942943" lon="8.197510131709281"><ele>257.5</ele><time>2026-05-01T09:10:10.999Z</time></trkpt><trkpt lat="44.579625167763496" lon="8.19763472972253"><ele>259.0</ele><time>2026-05-01T09:10:11.999Z</time></trkpt><trkpt lat="44.57969324378218" lon="8.1977408902928"><ele>259.0</ele><time>2026-05-01T09:10:12.999Z</time></trkpt><trkpt lat="44.57976867133974" lon="8.197830701684001"><ele>259.0</ele><time>2026-05-01T09:10:13.999Z</time></trkpt><trkpt lat="44.579872206422976" lon="8.19789208956237"><ele>259.0</ele><time>2026-05-01T09:10:14.999Z</time></trkpt><trkpt lat="44.579999351121366" lon="8.197881831321995"><ele>259.0</ele><time>2026-05-01T09:10:15.999Z</time></trkpt><trkpt lat="44.58012566261026" lon="8.197886498419425"><ele>259.0</ele><time>2026-05-01T09:10:16.999Z</time></trkpt><trkpt lat="44.580237660319824" lon="8.197950572862569"><ele>259.0</ele><time>2026-05-01T09:10:17.999Z</time></trkpt><trkpt lat="44.58035181676686" lon="8.198019661670092"><ele>259.0</ele><time>2026-05-01T09:10:18.999Z</time></trkpt><trkpt lat="44.580464130224414" lon="8.198093858097547"><ele>259.0</ele><time>2026-05-01T09:10:19.999Z</time></trkpt><trkpt lat="44.58058359403298" lon="8.198166564220498"><ele>262.25</ele><time>2026-05-01T09:10:20.999Z</time></trkpt><trkpt lat="44.58071261589984" lon="8.198189970853473"><ele>265.5</ele><time>2026-05-01T09:10:21.999Z</time></trkpt><trkpt lat="44.58083374285296" lon="8.198225520541726"><ele>268.75</ele><time>2026-05-01T09:10:22.999Z</time></trkpt><trkpt lat="44.58094125032716" lon="8.198278199655483"><ele>272.0</ele><time>2026-05-01T09:10:23.999Z</time></trkpt><trkpt lat="44.58104240671304" lon="8.198314598449025"><ele>272.0</ele><time>2026-05-01T09:10:24.999Z</time></trkpt><trkpt lat="44.58114661865889" lon="8.19835731332133"><ele>272.0</ele><time>2026-05-01T09:10:25.999Z</time></trkpt><trkpt lat="44.58124879958961" lon="8.198413486511548"><ele>272.0</ele><time>2026-05-01T09:10:26.999Z</time></trkpt><trkpt lat="44.58134542754263" lon="8.198456525512395"><ele>272.0</ele><time>2026-05-01T09:10:27.999Z</time></trkpt><trkpt lat="44.58141257453414" lon="8.198531665406051"><ele>272.0</ele><time>2026-05-01T09:10:28.999Z</time></trkpt><trkpt lat="44.58146656046573" lon="8.198579260184648"><ele>270.0</ele><time>2026-05-01T09:10:29.999Z</time></trkpt><trkpt lat="44.581576986188324" lon="8.198697720603834"><ele>268.0</ele><time>2026-05-01T09:10:31.999Z</time></trkpt><trkpt lat="44.581660465446056" lon="8.198798816268663"><ele>266.0</ele><time>2026-05-01T09:10:32.999Z</time></trkpt><trkpt lat="44.58174034147506" lon="8.198925619622061"><ele>264.0</ele><time>2026-05-01T09:10:33.999Z</time></trkpt><trkpt lat="44.58181697603814" lon="8.199022492411972"><ele>265.1666666666667</ele><time>2026-05-01T09:10:34.999Z</time></trkpt><trkpt lat="44.58189590530465" lon="8.199087518673636"><ele>266.3333333333333</ele><time>2026-05-01T09:10:35.999Z</time></trkpt><trkpt lat="44.58195530871707" lon="8.199166900673822"><ele>267.5</ele><time>2026-05-01T09:10:36.999Z</time></trkpt><trkpt lat="44.582017343194885" lon="8.19922221834601"><ele>268.66666666666663</ele><time>2026-05-01T09:10:37.999Z</time></trkpt><trkpt lat="44.5820690128111" lon="8.199282889241028"><ele>269.8333333333333</ele><time>2026-05-01T09:10:38.999Z</time></trkpt><trkpt lat="44.582105200582426" lon="8.199356978091052"><ele>271.0</ele><time>2026-05-01T09:10:39.999Z</time></trkpt><trkpt lat="44.582003700850954" lon="8.199497791133949"><ele>273.5</ele><time>2026-05-01T09:10:41.999Z</time></trkpt><trkpt lat="44.58186798567539" lon="8.199365256201034"><ele>276.0</ele><time>2026-05-01T09:10:43.999Z</time></trkpt><trkpt lat="44.58178244782188" lon="8.19931482817365"><ele>278.5</ele><time>2026-05-01T09:10:44.999Z</time></trkpt><trkpt lat="44.58169309051436" lon="8.199225337368635"><ele>281.0</ele><time>2026-05-01T09:10:45.999Z</time></trkpt><trkpt lat="44.58159276007046" lon="8.1991521227141"><ele>281.0</ele><time>2026-05-01T09:10:46.999Z</time></trkpt><trkpt lat="44.581486178327786" lon="8.199083355068845"><ele>281.0</ele><time>2026-05-01T09:10:47.999Z</time></trkpt><trkpt lat="44.58137290591443" lon="8.199028857817643"><ele>281.0</ele><time>2026-05-01T09:10:48.999Z</time></trkpt><trkpt lat="44.58125029649765" lon="8.198997404736582"><ele>281.0</ele><time>2026-05-01T09:10:49.999Z</time></trkpt><trkpt lat="44.58110325666984" lon="8.198994119495593"><ele>278.0</ele><time>2026-05-01T09:10:50.999Z</time></trkpt><trkpt lat="44.58094740186731" lon="8.1989976754879"><ele>275.0</ele><time>2026-05-01T09:10:51.999Z</time></trkpt><trkpt lat="44.58078989963226" lon="8.198992458031075"><ele>272.0</ele><time>2026-05-01T09:10:52.999Z</time></trkpt><trkpt lat="44.58063798613382" lon="8.198974372710135"><ele>272.0</ele><time>2026-05-01T09:10:53.999Z</time></trkpt><trkpt lat="44.580499297415805" lon="8.198942191358828"><ele>272.0</ele><time>2026-05-01T09:10:54.999Z</time></trkpt><trkpt lat="44.58037300542478" lon="8.198912768984906"><ele>272.0</ele><time>2026-05-01T09:10:55.999Z</time></trkpt><trkpt lat="44.580266409222105" lon="8.198887372931136"><ele>272.0</ele><time>2026-05-01T09:10:56.999Z</time></trkpt><trkpt lat="44.580178620377374" lon="8.198865273933137"><ele>272.0</ele><time>2026-05-01T09:10:57.999Z</time></trkpt><trkpt lat="44.58010483658428" lon="8.198857153074112"><ele>272.0</ele><time>2026-05-01T09:10:58.999Z</time></trkpt><trkpt lat="44.580002317193326" lon="8.198941256924696"><ele>272.0</ele><time>2026-05-01T09:11:00.999Z</time></trkpt><trkpt lat="44.579993826186886" lon="8.199050878588674"><ele>272.0</ele><time>2026-05-01T09:11:01.999Z</time></trkpt><trkpt lat="44.58003565823588" lon="8.199164610040768"><ele>272.0</ele><time>2026-05-01T09:11:02.999Z</time></trkpt><trkpt lat="44.5801408625577" lon="8.199210405373803"><ele>275.6</ele><time>2026-05-01T09:11:03.999Z</time></trkpt><trkpt lat="44.58024353292256" lon="8.199187475292652"><ele>279.2</ele><time>2026-05-01T09:11:04.999Z</time></trkpt><trkpt lat="44.58033723295798" lon="8.199227489357924"><ele>282.8</ele><time>2026-05-01T09:11:05.999Z</time></trkpt><trkpt lat="44.580429257070634" lon="8.199288239055742"><ele>286.4</ele><time>2026-05-01T09:11:06.999Z</time></trkpt><trkpt lat="44.5804898293701" lon="8.199408632961982"><ele>290.0</ele><time>2026-05-01T09:11:07.999Z</time></trkpt><trkpt lat="44.58057279337499" lon="8.19954519784555"><ele>290.0</ele><time>2026-05-01T09:11:08.999Z</time></trkpt><trkpt lat="44.58068011730047" lon="8.19964941142948"><ele>290.0</ele><time>2026-05-01T09:11:09.999Z</time></trkpt><trkpt lat="44.580791470723284" lon="8.199736380910874"><ele>290.0</ele><time>2026-05-01T09:11:10.999Z</time></trkpt><trkpt lat="44.580917221377945" lon="8.19979115542864"><ele>290.0</ele><time>2026-05-01T09:11:11.999Z</time></trkpt><trkpt lat="44.58104569761915" lon="8.199859137442264"><ele>292.75</ele><time>2026-05-01T09:11:12.999Z</time></trkpt><trkpt lat="44.581180044108045" lon="8.19992305295177"><ele>295.5</ele><time>2026-05-01T09:11:13.999Z</time></trkpt><trkpt lat="44.581315252390844" lon="8.19998994996894"><ele>298.25</ele><time>2026-05-01T09:11:14.999Z</time></trkpt><trkpt lat="44.5814510789227" lon="8.200065413530664"><ele>301.0</ele><time>2026-05-01T09:11:15.999Z</time></trkpt><trkpt lat="44.58158561049782" lon="8.200153051927016"><ele>301.0</ele><time>2026-05-01T09:11:16.999Z</time></trkpt><trkpt lat="44.58172179199651" lon="8.20024820790291"><ele>301.0</ele><time>2026-05-01T09:11:17.999Z</time></trkpt><trkpt lat="44.58185141889205" lon="8.200356259453304"><ele>301.0</ele><time>2026-05-01T09:11:18.999Z</time></trkpt><trkpt lat="44.58197922150505" lon="8.200468677765352"><ele>298.25</ele><time>2026-05-01T09:11:19.999Z</time></trkpt><trkpt lat="44.58210981652723" lon="8.200564301008109"><ele>295.5</ele><time>2026-05-01T09:11:20.999Z</time></trkpt><trkpt lat="44.58224244403734" lon="8.200643409372192"><ele>292.75</ele><time>2026-05-01T09:11:21.999Z</time></trkpt><trkpt lat="44.5823779475596" lon="8.200706443851288"><ele>290.0</ele><time>2026-05-01T09:11:22.999Z</time></trkpt><trkpt lat="44.5825053365299" lon="8.200767424315707"><ele>293.25</ele><time>2026-05-01T09:11:23.999Z</time></trkpt><trkpt lat="44.582624987937145" lon="8.200846752414739"><ele>296.5</ele><time>2026-05-01T09:11:24.999Z</time></trkpt><trkpt lat="44.5827427742879" lon="8.200937596040966"><ele>299.75</ele><time>2026-05-01T09:11:25.999Z</time></trkpt><trkpt lat="44.58286279404757" lon="8.201039955927252"><ele>303.0</ele><time>2026-05-01T09:11:26.999Z</time></trkpt><trkpt lat="44.58298464364588" lon="8.201144641620777"><ele>303.0</ele><time>2026-05-01T09:11:27.999Z</time></trkpt><trkpt lat="44.58311052049858" lon="8.201244623383037"><ele>303.0</ele><time>2026-05-01T09:11:28.999Z</time></trkpt><trkpt lat="44.58324825199485" lon="8.201306576941125"><ele>303.0</ele><time>2026-05-01T09:11:29.999Z</time></trkpt><trkpt lat="44.58336942447199" lon="8.201407616427582"><ele>303.0</ele><time>2026-05-01T09:11:30.999Z</time></trkpt><trkpt lat="44.58349706890303" lon="8.201494871037193"><ele>305.25</ele><time>2026-05-01T09:11:31.999Z</time></trkpt><trkpt lat="44.58362990060549" lon="8.201567053560398"><ele>307.5</ele><time>2026-05-01T09:11:32.999Z</time></trkpt><trkpt lat="44.5837526124025" lon="8.201667852962627"><ele>309.75</ele><time>2026-05-01T09:11:33.999Z</time></trkpt><trkpt lat="44.58387202403367" lon="8.201765111648076"><ele>312.0</ele><time>2026-05-01T09:11:34.999Z</time></trkpt><trkpt lat="44.583987657058955" lon="8.2018532098735"><ele>312.0</ele><time>2026-05-01T09:11:35.999Z</time></trkpt><trkpt lat="44.58409596738523" lon="8.20193563082306"><ele>312.0</ele><time>2026-05-01T09:11:36.999Z</time></trkpt><trkpt lat="44.58419408228125" lon="8.202011425972058"><ele>312.0</ele><time>2026-05-01T09:11:37.999Z</time></trkpt><trkpt lat="44.58428389133903" lon="8.202080822908696"><ele>312.0</ele><time>2026-05-01T09:11:38.999Z</time></trkpt><trkpt lat="44.58436092458491" lon="8.202141552281196"><ele>312.0</ele><time>2026-05-01T09:11:39.999Z</time></trkpt><trkpt lat="44.58440976010044" lon="8.202214849624504"><ele>312.0</ele><time>2026-05-01T09:11:40.999Z</time></trkpt><trkpt lat="44.58438346454558" lon="8.20235162330516"><ele>312.0</ele><time>2026-05-01T09:11:42.999Z</time></trkpt><trkpt lat="44.58426954257827" lon="8.20237246783966"><ele>312.0</ele><time>2026-05-01T09:11:44.999Z</time></trkpt><trkpt lat="44.58422060711625" lon="8.202276952220403"><ele>312.0</ele><time>2026-05-01T09:11:45.998Z</time></trkpt><trkpt lat="44.58416894901899" lon="8.202204604922386"><ele>312.0</ele><time>2026-05-01T09:11:46.998Z</time></trkpt><trkpt lat="44.584084198694576" lon="8.202133435145157"><ele>312.0</ele><time>2026-05-01T09:11:47.998Z</time></trkpt><trkpt lat="44.583975243303136" lon="8.202038333798694"><ele>312.0</ele><time>2026-05-01T09:11:48.998Z</time></trkpt><trkpt lat="44.5838368531984" lon="8.201946448666295"><ele>312.0</ele><time>2026-05-01T09:11:49.998Z</time></trkpt><trkpt lat="44.58369668670793" lon="8.201846614035455"><ele>312.0</ele><time>2026-05-01T09:11:50.998Z</time></trkpt><trkpt lat="44.583550521034645" lon="8.20175416317405"><ele>317.6666666666667</ele><time>2026-05-01T09:11:51.998Z</time></trkpt><trkpt lat="44.583394328073204" lon="8.20168550465518"><ele>323.33333333333337</ele><time>2026-05-01T09:11:52.998Z</time></trkpt><trkpt lat="44.58323821872156" lon="8.201644188509377"><ele>329.0</ele><time>2026-05-01T09:11:53.998Z</time></trkpt><trkpt lat="44.58308859574714" lon="8.201610785015912"><ele>329.0</ele><time>2026-05-01T09:11:54.998Z</time></trkpt><trkpt lat="44.582942971776646" lon="8.20156764806207"><ele>329.0</ele><time>2026-05-01T09:11:55.998Z</time></trkpt><trkpt lat="44.582799308310115" lon="8.201524219629404"><ele>329.0</ele><time>2026-05-01T09:11:56.998Z</time></trkpt><trkpt lat="44.582660553519794" lon="8.201481828191554"><ele>329.0</ele><time>2026-05-01T09:11:57.998Z</time></trkpt><trkpt lat="44.5825253663617" lon="8.201442582966157"><ele>326.5</ele><time>2026-05-01T09:11:58.998Z</time></trkpt><trkpt lat="44.58239450717193" lon="8.201414787084106"><ele>324.0</ele><time>2026-05-01T09:11:59.998Z</time></trkpt><trkpt lat="44.582249926350684" lon="8.201418162919714"><ele>321.5</ele><time>2026-05-01T09:12:00.998Z</time></trkpt><trkpt lat="44.58209903916053" lon="8.201451251062947"><ele>319.0</ele><time>2026-05-01T09:12:01.998Z</time></trkpt><trkpt lat="44.581956759693576" lon="8.201475144303751"><ele>319.0</ele><time>2026-05-01T09:12:02.998Z</time></trkpt><trkpt lat="44.58182742415768" lon="8.201493462881166"><ele>319.0</ele><time>2026-05-01T09:12:03.998Z</time></trkpt><trkpt lat="44.581707854865506" lon="8.201525224150506"><ele>319.0</ele><time>2026-05-01T09:12:04.998Z</time></trkpt><trkpt lat="44.581597170954936" lon="8.201576400509342"><ele>319.0</ele><time>2026-05-01T09:12:05.999Z</time></trkpt><trkpt lat="44.581489390712875" lon="8.201661898872358"><ele>326.0</ele><time>2026-05-01T09:12:06.999Z</time></trkpt><trkpt lat="44.581373011649156" lon="8.201769410357098"><ele>333.0</ele><time>2026-05-01T09:12:07.999Z</time></trkpt><trkpt lat="44.58124070483308" lon="8.201890367075121"><ele>340.0</ele><time>2026-05-01T09:12:08.999Z</time></trkpt><trkpt lat="44.58110111135081" lon="8.202016247229235"><ele>340.0</ele><time>2026-05-01T09:12:09.999Z</time></trkpt><trkpt lat="44.580960950425826" lon="8.202143985727405"><ele>340.0</ele><time>2026-05-01T09:12:10.999Z</time></trkpt><trkpt lat="44.58082438800889" lon="8.202253148949685"><ele>340.0</ele><time>2026-05-01T09:12:11.999Z</time></trkpt><trkpt lat="44.580708409125904" lon="8.202359945313866"><ele>344.25</ele><time>2026-05-01T09:12:12.999Z</time></trkpt><trkpt lat="44.58060920061239" lon="8.202462296809285"><ele>348.5</ele><time>2026-05-01T09:12:13.999Z</time></trkpt><trkpt lat="44.58052312785124" lon="8.202600523233524"><ele>352.75</ele><time>2026-05-01T09:12:14.999Z</time></trkpt><trkpt lat="44.58045306180766" lon="8.20277482529138"><ele>357.0</ele><time>2026-05-01T09:12:15.999Z</time></trkpt><trkpt lat="44.580388277195574" lon="8.202944879174675"><ele>355.75</ele><time>2026-05-01T09:12:16.999Z</time></trkpt><trkpt lat="44.58034794195516" lon="8.203117479282517"><ele>354.5</ele><time>2026-05-01T09:12:17.999Z</time></trkpt><trkpt lat="44.58032648301711" lon="8.203307250775492"><ele>353.25</ele><time>2026-05-01T09:12:18.999Z</time></trkpt><trkpt lat="44.58031096139386" lon="8.203486534968965"><ele>352.0</ele><time>2026-05-01T09:12:19.999Z</time></trkpt><trkpt lat="44.580329806747855" lon="8.203661965363409"><ele>354.25</ele><time>2026-05-01T09:12:20.999Z</time></trkpt><trkpt lat="44.580352221361785" lon="8.203831765269607"><ele>356.5</ele><time>2026-05-01T09:12:21.999Z</time></trkpt><trkpt lat="44.58036921182014" lon="8.20400234608888"><ele>358.75</ele><time>2026-05-01T09:12:22.999Z</time></trkpt><trkpt lat="44.58035170095472" lon="8.204173060153474"><ele>361.0</ele><time>2026-05-01T09:12:23.999Z</time></trkpt><trkpt lat="44.580281823743796" lon="8.204320803988004"><ele>361.0</ele><time>2026-05-01T09:12:24.999Z</time></trkpt><trkpt lat="44.580194474149316" lon="8.20446006376639"><ele>361.0</ele><time>2026-05-01T09:12:25.999Z</time></trkpt><trkpt lat="44.5801100932112" lon="8.204594946799553"><ele>361.0</ele><time>2026-05-01T09:12:26.999Z</time></trkpt><trkpt lat="44.580005257517" lon="8.204655689630483"><ele>361.0</ele><time>2026-05-01T09:12:27.999Z</time></trkpt><trkpt lat="44.57989089974525" lon="8.204648721114067"><ele>361.0</ele><time>2026-05-01T09:12:28.999Z</time></trkpt><trkpt lat="44.57978965398772" lon="8.204575344485795"><ele>361.0</ele><time>2026-05-01T09:12:29.999Z</time></trkpt><trkpt lat="44.57970668937862" lon="8.204453625929185"><ele>361.0</ele><time>2026-05-01T09:12:30.999Z</time></trkpt><trkpt lat="44.579633746359406" lon="8.204327356606713"><ele>361.0</ele><time>2026-05-01T09:12:31.999Z</time></trkpt><trkpt lat="44.57954003637016" lon="8.20425928402283"><ele>362.0</ele><time>2026-05-01T09:12:32.999Z</time></trkpt><trkpt lat="44.57942134709273" lon="8.204237610209823"><ele>363.0</ele><time>2026-05-01T09:12:33.999Z</time></trkpt><trkpt lat="44.57929369087932" lon="8.204249068420976"><ele>364.0</ele><time>2026-05-01T09:12:34.999Z</time></trkpt><trkpt lat="44.579173442634605" lon="8.20428647089693"><ele>365.0</ele><time>2026-05-01T09:12:35.999Z</time></trkpt><trkpt lat="44.57906854229436" lon="8.204373483487622"><ele>365.0</ele><time>2026-05-01T09:12:36.999Z</time></trkpt><trkpt lat="44.578999820365404" lon="8.20451328888366"><ele>365.0</ele><time>2026-05-01T09:12:37.999Z</time></trkpt><trkpt lat="44.578947789528506" lon="8.204685208428588"><ele>365.0</ele><time>2026-05-01T09:12:38.999Z</time></trkpt><trkpt lat="44.57887516102394" lon="8.204853571417067"><ele>365.0</ele><time>2026-05-01T09:12:39.999Z</time></trkpt><trkpt lat="44.57881997660147" lon="8.205034139157545"><ele>364.75</ele><time>2026-05-01T09:12:40.999Z</time></trkpt><trkpt lat="44.57877285428621" lon="8.205211338556335"><ele>364.5</ele><time>2026-05-01T09:12:41.999Z</time></trkpt><trkpt lat="44.578734257918356" lon="8.205371748634304"><ele>364.25</ele><time>2026-05-01T09:12:42.999Z</time></trkpt><trkpt lat="44.57869557032848" lon="8.205511567824711"><ele>364.0</ele><time>2026-05-01T09:12:43.999Z</time></trkpt><trkpt lat="44.57864759110091" lon="8.205654935882723"><ele>368.25</ele><time>2026-05-01T09:12:44.999Z</time></trkpt><trkpt lat="44.57856249575141" lon="8.205731743946002"><ele>372.5</ele><time>2026-05-01T09:12:45.999Z</time></trkpt><trkpt lat="44.57839848666526" lon="8.205804712054276"><ele>376.75</ele><time>2026-05-01T09:12:46.999Z</time></trkpt><trkpt lat="44.57825810249758" lon="8.205833247429723"><ele>381.0</ele><time>2026-05-01T09:12:47.999Z</time></trkpt><trkpt lat="44.578121503371115" lon="8.205798012580056"><ele>381.0</ele><time>2026-05-01T09:12:48.999Z</time></trkpt><trkpt lat="44.57797800315863" lon="8.205734752659588"><ele>381.0</ele><time>2026-05-01T09:12:49.999Z</time></trkpt><trkpt lat="44.57782807432135" lon="8.20569271332842"><ele>381.0</ele><time>2026-05-01T09:12:50.999Z</time></trkpt><trkpt lat="44.57768975333944" lon="8.205625899019727"><ele>378.0</ele><time>2026-05-01T09:12:51.999Z</time></trkpt><trkpt lat="44.57754778174893" lon="8.205586822013016"><ele>375.0</ele><time>2026-05-01T09:12:52.999Z</time></trkpt><trkpt lat="44.57739117608439" lon="8.205577899987382"><ele>372.0</ele><time>2026-05-01T09:12:53.999Z</time></trkpt><trkpt lat="44.57721533058502" lon="8.205575662459795"><ele>372.0</ele><time>2026-05-01T09:12:54.999Z</time></trkpt><trkpt lat="44.5770528871762" lon="8.205574292030409"><ele>372.0</ele><time>2026-05-01T09:12:55.999Z</time></trkpt><trkpt lat="44.5769040543371" lon="8.205563024912102"><ele>372.0</ele><time>2026-05-01T09:12:56.999Z</time></trkpt><trkpt lat="44.57679044130473" lon="8.205441484508373"><ele>373.75</ele><time>2026-05-01T09:12:57.999Z</time></trkpt><trkpt lat="44.57666362053728" lon="8.205367639725006"><ele>375.5</ele><time>2026-05-01T09:12:58.999Z</time></trkpt><trkpt lat="44.57656600263111" lon="8.205279966779056"><ele>377.25</ele><time>2026-05-01T09:12:59.999Z</time></trkpt><trkpt lat="44.5764567460043" lon="8.205280504157761"><ele>379.0</ele><time>2026-05-01T09:13:00.999Z</time></trkpt><trkpt lat="44.57633659303085" lon="8.20535350566657"><ele>379.0</ele><time>2026-05-01T09:13:01.999Z</time></trkpt><trkpt lat="44.576205000194804" lon="8.20544880006825"><ele>379.0</ele><time>2026-05-01T09:13:02.999Z</time></trkpt><trkpt lat="44.57607235338295" lon="8.205528131948252"><ele>379.0</ele><time>2026-05-01T09:13:03.999Z</time></trkpt><trkpt lat="44.57593676759374" lon="8.205599244050326"><ele>379.0</ele><time>2026-05-01T09:13:04.999Z</time></trkpt><trkpt lat="44.57581102586819" lon="8.205680573411467"><ele>379.25</ele><time>2026-05-01T09:13:05.999Z</time></trkpt><trkpt lat="44.57569198638124" lon="8.205705343783826"><ele>379.5</ele><time>2026-05-01T09:13:06.999Z</time></trkpt><trkpt lat="44.57558552101937" lon="8.205660891512032"><ele>379.75</ele><time>2026-05-01T09:13:07.999Z</time></trkpt><trkpt lat="44.57548215052408" lon="8.205561975781075"><ele>380.0</ele><time>2026-05-01T09:13:08.999Z</time></trkpt><trkpt lat="44.575378868211025" lon="8.205450577565982"><ele>382.25</ele><time>2026-05-01T09:13:09.999Z</time></trkpt><trkpt lat="44.575286796887546" lon="8.205334393503911"><ele>384.5</ele><time>2026-05-01T09:13:10.999Z</time></trkpt><trkpt lat="44.575198878127765" lon="8.205248478288967"><ele>386.75</ele><time>2026-05-01T09:13:11.999Z</time></trkpt><trkpt lat="44.575096865576356" lon="8.205202275804309"><ele>389.0</ele><time>2026-05-01T09:13:12.999Z</time></trkpt><trkpt lat="44.574979305008924" lon="8.205193841832408"><ele>389.0</ele><time>2026-05-01T09:13:13.999Z</time></trkpt><trkpt lat="44.57485588596103" lon="8.205223130683972"><ele>389.0</ele><time>2026-05-01T09:13:14.999Z</time></trkpt><trkpt lat="44.57473222734339" lon="8.205280647164843"><ele>389.0</ele><time>2026-05-01T09:13:15.999Z</time></trkpt><trkpt lat="44.57461665491921" lon="8.205329752753894"><ele>389.0</ele><time>2026-05-01T09:13:16.999Z</time></trkpt><trkpt lat="44.57451698480701" lon="8.205361286201688"><ele>388.79999999999995</ele><time>2026-05-01T09:13:17.999Z</time></trkpt><trkpt lat="44.57443850466072" lon="8.205393299201729"><ele>388.59999999999997</ele><time>2026-05-01T09:13:18.999Z</time></trkpt><trkpt lat="44.57438076839767" lon="8.205463002081592"><ele>388.4</ele><time>2026-05-01T09:13:19.999Z</time></trkpt><trkpt lat="44.57435536317939" lon="8.205567315508816"><ele>388.2</ele><time>2026-05-01T09:13:20.999Z</time></trkpt><trkpt lat="44.57437836042455" lon="8.205698203036029"><ele>388.0</ele><time>2026-05-01T09:13:21.999Z</time></trkpt><trkpt lat="44.5744338641093" lon="8.205852801936851"><ele>390.0</ele><time>2026-05-01T09:13:22.999Z</time></trkpt><trkpt lat="44.57447033341218" lon="8.206049111665116"><ele>392.0</ele><time>2026-05-01T09:13:23.999Z</time></trkpt><trkpt lat="44.57453601130185" lon="8.20623756641375"><ele>394.0</ele><time>2026-05-01T09:13:24.999Z</time></trkpt><trkpt lat="44.574606322784085" lon="8.20643405907898"><ele>399.33333333333337</ele><time>2026-05-01T09:13:25.999Z</time></trkpt><trkpt lat="44.574677666497806" lon="8.20664791149543"><ele>404.66666666666663</ele><time>2026-05-01T09:13:26.999Z</time></trkpt><trkpt lat="44.57472290661969" lon="8.206858629265986"><ele>410.0</ele><time>2026-05-01T09:13:27.999Z</time></trkpt><trkpt lat="44.57474438588491" lon="8.207061431775559"><ele>410.0</ele><time>2026-05-01T09:13:28.999Z</time></trkpt><trkpt lat="44.57476248617326" lon="8.20725991849476"><ele>410.0</ele><time>2026-05-01T09:13:29.999Z</time></trkpt><trkpt lat="44.57478889704653" lon="8.20744324512961"><ele>410.0</ele><time>2026-05-01T09:13:30.999Z</time></trkpt><trkpt lat="44.57486806043652" lon="8.207614692949559"><ele>410.0</ele><time>2026-05-01T09:13:31.999Z</time></trkpt><trkpt lat="44.57497171581593" lon="8.207780982974398"><ele>409.25</ele><time>2026-05-01T09:13:32.999Z</time></trkpt><trkpt lat="44.57508428309622" lon="8.207950292464492"><ele>408.5</ele><time>2026-05-01T09:13:33.999Z</time></trkpt><trkpt lat="44.57518608500775" lon="8.208096427391943"><ele>407.75</ele><time>2026-05-01T09:13:34.999Z</time></trkpt><trkpt lat="44.57525952791982" lon="8.208243015323816"><ele>407.0</ele><time>2026-05-01T09:13:35.999Z</time></trkpt><trkpt lat="44.57528057904644" lon="8.208411499727662"><ele>407.0</ele><time>2026-05-01T09:13:36.999Z</time></trkpt><trkpt lat="44.575246375078606" lon="8.208560477108524"><ele>407.0</ele><time>2026-05-01T09:13:37.999Z</time></trkpt><trkpt lat="44.57521143065275" lon="8.208716735699545"><ele>407.0</ele><time>2026-05-01T09:13:38.999Z</time></trkpt><trkpt lat="44.57518155632485" lon="8.208858593708072"><ele>407.0</ele><time>2026-05-01T09:13:39.999Z</time></trkpt><trkpt lat="44.575168696909536" lon="8.209013091700655"><ele>407.0</ele><time>2026-05-01T09:13:40.999Z</time></trkpt><trkpt lat="44.57516871428535" lon="8.209175627110026"><ele>407.25</ele><time>2026-05-01T09:13:41.999Z</time></trkpt><trkpt lat="44.57518145025963" lon="8.209358815866452"><ele>407.5</ele><time>2026-05-01T09:13:42.999Z</time></trkpt><trkpt lat="44.57521347585313" lon="8.20953041760483"><ele>407.75</ele><time>2026-05-01T09:13:43.999Z</time></trkpt><trkpt lat="44.575217352951995" lon="8.209693731688564"><ele>408.0</ele><time>2026-05-01T09:13:44.999Z</time></trkpt><trkpt lat="44.57518287480862" lon="8.209833164307064"><ele>408.59999999999997</ele><time>2026-05-01T09:13:45.999Z</time></trkpt><trkpt lat="44.57513760884897" lon="8.209976824273383"><ele>409.2</ele><time>2026-05-01T09:13:46.999Z</time></trkpt><trkpt lat="44.5751087102397" lon="8.210120323595541"><ele>409.8</ele><time>2026-05-01T09:13:47.999Z</time></trkpt><trkpt lat="44.57507522198174" lon="8.210245755250124"><ele>410.4</ele><time>2026-05-01T09:13:48.999Z</time></trkpt><trkpt lat="44.57506067897882" lon="8.21037825692918"><ele>411.0</ele><time>2026-05-01T09:13:49.998Z</time></trkpt><trkpt lat="44.575121380438574" lon="8.210525392046758"><ele>410.5</ele><time>2026-05-01T09:13:50.999Z</time></trkpt><trkpt lat="44.575195633209724" lon="8.21067116512613"><ele>410.0</ele><time>2026-05-01T09:13:51.999Z</time></trkpt><trkpt lat="44.5752730374365" lon="8.210842401193135"><ele>409.5</ele><time>2026-05-01T09:13:52.999Z</time></trkpt><trkpt lat="44.57535279910539" lon="8.210989585225262"><ele>409.0</ele><time>2026-05-01T09:13:53.999Z</time></trkpt><trkpt lat="44.57542743559423" lon="8.211123101249957"><ele>415.79999999999995</ele><time>2026-05-01T09:13:54.999Z</time></trkpt><trkpt lat="44.575499979525155" lon="8.21124747633261"><ele>422.59999999999997</ele><time>2026-05-01T09:13:55.999Z</time></trkpt><trkpt lat="44.575574787703694" lon="8.211362062776905"><ele>429.4</ele><time>2026-05-01T09:13:56.999Z</time></trkpt><trkpt lat="44.575574430909654" lon="8.21151122845568"><ele>436.2</ele><time>2026-05-01T09:13:57.999Z</time></trkpt><trkpt lat="44.575556416540834" lon="8.211637848205658"><ele>443.0</ele><time>2026-05-01T09:13:58.999Z</time></trkpt><trkpt lat="44.57551010002451" lon="8.211756441198094"><ele>443.0</ele><time>2026-05-01T09:13:59.999Z</time></trkpt><trkpt lat="44.575422889322" lon="8.211841468378223"><ele>442.99999999999994</ele><time>2026-05-01T09:14:00.999Z</time></trkpt><trkpt lat="44.57533859131137" lon="8.21192068732114"><ele>442.99999999999994</ele><time>2026-05-01T09:14:01.999Z</time></trkpt><trkpt lat="44.57528582589513" lon="8.212015693120152"><ele>443.0</ele><time>2026-05-01T09:14:02.999Z</time></trkpt><trkpt lat="44.57525003022264" lon="8.212124246145049"><ele>443.0</ele><time>2026-05-01T09:14:03.999Z</time></trkpt><trkpt lat="44.5752564947146" lon="8.212279554111563"><ele>442.0</ele><time>2026-05-01T09:14:04.999Z</time></trkpt><trkpt lat="44.575309329430716" lon="8.212429367574886"><ele>441.0</ele><time>2026-05-01T09:14:05.999Z</time></trkpt><trkpt lat="44.57539883357365" lon="8.212559483230129"><ele>440.0</ele><time>2026-05-01T09:14:06.999Z</time></trkpt><trkpt lat="44.5755213859929" lon="8.212671127927681"><ele>439.0</ele><time>2026-05-01T09:14:07.999Z</time></trkpt><trkpt lat="44.575659772991045" lon="8.21275836992762"><ele>439.0</ele><time>2026-05-01T09:14:08.999Z</time></trkpt><trkpt lat="44.57577378017802" lon="8.212857032700352"><ele>439.0</ele><time>2026-05-01T09:14:09.999Z</time></trkpt><trkpt lat="44.575885994613934" lon="8.21295520443126"><ele>439.0</ele><time>2026-05-01T09:14:10.999Z</time></trkpt><trkpt lat="44.575976511404164" lon="8.213070494763011"><ele>439.0</ele><time>2026-05-01T09:14:12Z</time></trkpt><trkpt lat="44.57600132288583" lon="8.213221539393656"><ele>436.25</ele><time>2026-05-01T09:14:13Z</time></trkpt><trkpt lat="44.576036046346886" lon="8.21337690690959"><ele>433.5</ele><time>2026-05-01T09:14:14Z</time></trkpt><trkpt lat="44.57606421481615" lon="8.213542761882104"><ele>430.75</ele><time>2026-05-01T09:14:15Z</time></trkpt><trkpt lat="44.576091123524535" lon="8.213706112800672"><ele>428.0</ele><time>2026-05-01T09:14:16Z</time></trkpt><trkpt lat="44.57610781967063" lon="8.21386121341174"><ele>428.79999999999995</ele><time>2026-05-01T09:14:17Z</time></trkpt><trkpt lat="44.57607981455617" lon="8.213994288195337"><ele>429.59999999999997</ele><time>2026-05-01T09:14:18Z</time></trkpt><trkpt lat="44.576021176256326" lon="8.214110715652616"><ele>430.40000000000003</ele><time>2026-05-01T09:14:19Z</time></trkpt><trkpt lat="44.57592438289892" lon="8.214182780670715"><ele>431.20000000000005</ele><time>2026-05-01T09:14:20Z</time></trkpt><trkpt lat="44.57581930463672" lon="8.214214289717303"><ele>432.0</ele><time>2026-05-01T09:14:21Z</time></trkpt><trkpt lat="44.575725547588455" lon="8.214268893884839"><ele>432.0</ele><time>2026-05-01T09:14:22Z</time></trkpt><trkpt lat="44.5756356996093" lon="8.214309844697553"><ele>432.00000000000006</ele><time>2026-05-01T09:14:23Z</time></trkpt><trkpt lat="44.5755644727683" lon="8.214411932708602"><ele>432.00000000000006</ele><time>2026-05-01T09:14:24Z</time></trkpt><trkpt lat="44.575530541513395" lon="8.214552875792181"><ele>432.0</ele><time>2026-05-01T09:14:25Z</time></trkpt><trkpt lat="44.57555194227245" lon="8.214710746063924"><ele>432.0</ele><time>2026-05-01T09:14:26Z</time></trkpt><trkpt lat="44.5756211729948" lon="8.214862770394413"><ele>434.5</ele><time>2026-05-01T09:14:27Z</time></trkpt><trkpt lat="44.57567454932742" lon="8.215049161214575"><ele>437.0</ele><time>2026-05-01T09:14:28Z</time></trkpt><trkpt lat="44.575736083452306" lon="8.215232568762488"><ele>439.5</ele><time>2026-05-01T09:14:29Z</time></trkpt><trkpt lat="44.57579597014693" lon="8.215414303531775"><ele>442.0</ele><time>2026-05-01T09:14:30Z</time></trkpt><trkpt lat="44.575844084704194" lon="8.215584737788975"><ele>442.25</ele><time>2026-05-01T09:14:31Z</time></trkpt><trkpt lat="44.575864912706656" lon="8.215741899112137"><ele>442.5</ele><time>2026-05-01T09:14:32Z</time></trkpt><trkpt lat="44.575841449445846" lon="8.215886526979505"><ele>442.75</ele><time>2026-05-01T09:14:33Z</time></trkpt><trkpt lat="44.57579532575029" lon="8.216043576154295"><ele>443.0</ele><time>2026-05-01T09:14:34Z</time></trkpt><trkpt lat="44.57575695178454" lon="8.216232299755191"><ele>443.0</ele><time>2026-05-01T09:14:35Z</time></trkpt><trkpt lat="44.57570293460442" lon="8.216405912542458"><ele>443.0</ele><time>2026-05-01T09:14:36Z</time></trkpt><trkpt lat="44.57565912826383" lon="8.216567203223905"><ele>443.0</ele><time>2026-05-01T09:14:37Z</time></trkpt><trkpt lat="44.57561441514331" lon="8.216719377314867"><ele>443.0</ele><time>2026-05-01T09:14:38Z</time></trkpt><trkpt lat="44.575549044687136" lon="8.216841311480692"><ele>443.5</ele><time>2026-05-01T09:14:39Z</time></trkpt><trkpt lat="44.57545969015231" lon="8.216905689165591"><ele>444.0</ele><time>2026-05-01T09:14:40Z</time></trkpt><trkpt lat="44.57535100709448" lon="8.216859836767604"><ele>444.5</ele><time>2026-05-01T09:14:41Z</time></trkpt><trkpt lat="44.57523270493705" lon="8.216865613589635"><ele>445.0</ele><time>2026-05-01T09:14:42Z</time></trkpt><trkpt lat="44.575088420633094" lon="8.216848557180336"><ele>445.0</ele><time>2026-05-01T09:14:43Z</time></trkpt><trkpt lat="44.57492758021771" lon="8.216839087837897"><ele>445.0</ele><time>2026-05-01T09:14:44Z</time></trkpt><trkpt lat="44.5747687829139" lon="8.216828495196168"><ele>445.0</ele><time>2026-05-01T09:14:45Z</time></trkpt><trkpt lat="44.57461100666923" lon="8.216816050832994"><ele>444.5</ele><time>2026-05-01T09:14:46Z</time></trkpt><trkpt lat="44.57446210301608" lon="8.21680281955129"><ele>444.0</ele><time>2026-05-01T09:14:47Z</time></trkpt><trkpt lat="44.574332761259754" lon="8.216786013345638"><ele>443.5</ele><time>2026-05-01T09:14:48Z</time></trkpt><trkpt lat="44.57422244634593" lon="8.216779907793992"><ele>443.0</ele><time>2026-05-01T09:14:49Z</time></trkpt><trkpt lat="44.57412013105637" lon="8.216805803026498"><ele>443.0</ele><time>2026-05-01T09:14:50Z</time></trkpt><trkpt lat="44.57402187050269" lon="8.216897729052283"><ele>443.0</ele><time>2026-05-01T09:14:51Z</time></trkpt><trkpt lat="44.573928408767195" lon="8.21703030985284"><ele>443.0</ele><time>2026-05-01T09:14:52Z</time></trkpt><trkpt lat="44.5738309741053" lon="8.217158807675476"><ele>443.0</ele><time>2026-05-01T09:14:53Z</time></trkpt><trkpt lat="44.57372780282165" lon="8.217251971369484"><ele>441.2</ele><time>2026-05-01T09:14:54Z</time></trkpt><trkpt lat="44.57361765421078" lon="8.21729970688806"><ele>439.4</ele><time>2026-05-01T09:14:55Z</time></trkpt><trkpt lat="44.57349909833429" lon="8.217290916301957"><ele>437.59999999999997</ele><time>2026-05-01T09:14:56Z</time></trkpt><trkpt lat="44.5733872681309" lon="8.217269438806618"><ele>435.79999999999995</ele><time>2026-05-01T09:14:57Z</time></trkpt><trkpt lat="44.573292217866054" lon="8.217239253883617"><ele>434.0</ele><time>2026-05-01T09:14:58Z</time></trkpt><trkpt lat="44.57320028577427" lon="8.217273451354982"><ele>440.75</ele><time>2026-05-01T09:14:59Z</time></trkpt><trkpt lat="44.57311608906223" lon="8.217370064460924"><ele>447.5</ele><time>2026-05-01T09:15:00Z</time></trkpt><trkpt lat="44.57307607621512" lon="8.217549978394356"><ele>454.25</ele><time>2026-05-01T09:15:01Z</time></trkpt><trkpt lat="44.57299636895727" lon="8.217712567430924"><ele>461.0</ele><time>2026-05-01T09:15:02Z</time></trkpt><trkpt lat="44.57291746368719" lon="8.217860115101358"><ele>459.75</ele><time>2026-05-01T09:15:03Z</time></trkpt><trkpt lat="44.57280957547764" lon="8.217955242459526"><ele>458.5</ele><time>2026-05-01T09:15:04Z</time></trkpt><trkpt lat="44.572719840861254" lon="8.218069077903507"><ele>457.25</ele><time>2026-05-01T09:15:05Z</time></trkpt><trkpt lat="44.57264047190415" lon="8.218155926472077"><ele>456.0</ele><time>2026-05-01T09:15:06Z</time></trkpt><trkpt lat="44.57262469276204" lon="8.218298863192858"><ele>456.0</ele><time>2026-05-01T09:15:07Z</time></trkpt><trkpt lat="44.57269170055723" lon="8.218456033492654"><ele>456.0</ele><time>2026-05-01T09:15:08Z</time></trkpt><trkpt lat="44.57272347442466" lon="8.218632986681877"><ele>456.0</ele><time>2026-05-01T09:15:09Z</time></trkpt><trkpt lat="44.57277073178791" lon="8.21881192069084"><ele>456.0</ele><time>2026-05-01T09:15:10Z</time></trkpt><trkpt lat="44.57279979184615" lon="8.218979652445483"><ele>457.0</ele><time>2026-05-01T09:15:11Z</time></trkpt><trkpt lat="44.572792209410686" lon="8.219128478659604"><ele>458.0</ele><time>2026-05-01T09:15:12Z</time></trkpt><trkpt lat="44.57273087028919" lon="8.219257471824438"><ele>459.0</ele><time>2026-05-01T09:15:13Z</time></trkpt><trkpt lat="44.57263812174518" lon="8.219351872816222"><ele>460.0</ele><time>2026-05-01T09:15:14Z</time></trkpt><trkpt lat="44.572548109564345" lon="8.219470056390609"><ele>460.0</ele><time>2026-05-01T09:15:15Z</time></trkpt><trkpt lat="44.572483150179295" lon="8.219603645203803"><ele>460.0</ele><time>2026-05-01T09:15:16Z</time></trkpt><trkpt lat="44.572433426546276" lon="8.219739428205607"><ele>460.0</ele><time>2026-05-01T09:15:17Z</time></trkpt><trkpt lat="44.57241676965719" lon="8.219907962440471"><ele>460.0</ele><time>2026-05-01T09:15:18Z</time></trkpt><trkpt lat="44.572412018034214" lon="8.22011939963253"><ele>463.25</ele><time>2026-05-01T09:15:19Z</time></trkpt><trkpt lat="44.57241514598054" lon="8.220296403243754"><ele>466.5</ele><time>2026-05-01T09:15:20Z</time></trkpt><trkpt lat="44.57237868632818" lon="8.22044988640954"><ele>469.75</ele><time>2026-05-01T09:15:21Z</time></trkpt><trkpt lat="44.57229650066566" lon="8.220573737733332"><ele>473.0</ele><time>2026-05-01T09:15:22Z</time></trkpt><trkpt lat="44.57221003570147" lon="8.220678258761264"><ele>476.25</ele><time>2026-05-01T09:15:23Z</time></trkpt><trkpt lat="44.57213015356199" lon="8.220770460088843"><ele>479.5</ele><time>2026-05-01T09:15:24Z</time></trkpt><trkpt lat="44.572108839457826" lon="8.22093742283512"><ele>482.75</ele><time>2026-05-01T09:15:25Z</time></trkpt><trkpt lat="44.572159124674045" lon="8.221102445851994"><ele>486.0</ele><time>2026-05-01T09:15:26Z</time></trkpt><trkpt lat="44.5722323156284" lon="8.22123624511441"><ele>486.0</ele><time>2026-05-01T09:15:27Z</time></trkpt><trkpt lat="44.57229723042111" lon="8.2213553186045"><ele>486.0</ele><time>2026-05-01T09:15:28Z</time></trkpt><trkpt lat="44.57233006639351" lon="8.221536077184174"><ele>486.0</ele><time>2026-05-01T09:15:29Z</time></trkpt><trkpt lat="44.57232774603021" lon="8.221708609345992"><ele>486.0</ele><time>2026-05-01T09:15:30Z</time></trkpt><trkpt lat="44.572343556832024" lon="8.22188392571831"><ele>485.5</ele><time>2026-05-01T09:15:31Z</time></trkpt><trkpt lat="44.572372177637064" lon="8.222045123213238"><ele>485.0</ele><time>2026-05-01T09:15:32Z</time></trkpt><trkpt lat="44.572460391841375" lon="8.222174639177936"><ele>484.5</ele><time>2026-05-01T09:15:33Z</time></trkpt><trkpt lat="44.572569040197585" lon="8.22226196540155"><ele>484.0</ele><time>2026-05-01T09:15:34Z</time></trkpt><trkpt lat="44.57269780532229" lon="8.222317003612144"><ele>484.0</ele><time>2026-05-01T09:15:35Z</time></trkpt><trkpt lat="44.57281285502449" lon="8.22240320130928"><ele>484.0</ele><time>2026-05-01T09:15:36Z</time></trkpt><trkpt lat="44.57287734683696" lon="8.222520374172364"><ele>484.0</ele><time>2026-05-01T09:15:37Z</time></trkpt><trkpt lat="44.57288597260842" lon="8.222668864814612"><ele>484.0</ele><time>2026-05-01T09:15:38Z</time></trkpt><trkpt lat="44.5728611316812" lon="8.222809492050137"><ele>484.0</ele><time>2026-05-01T09:15:39Z</time></trkpt><trkpt lat="44.57277707727096" lon="8.222915793339784"><ele>484.0</ele><time>2026-05-01T09:15:40Z</time></trkpt><trkpt lat="44.57269731357865" lon="8.223042553895295"><ele>484.0</ele><time>2026-05-01T09:15:41Z</time></trkpt><trkpt lat="44.57261245467825" lon="8.22316076582104"><ele>484.0</ele><time>2026-05-01T09:15:42Z</time></trkpt><trkpt lat="44.57251293256175" lon="8.223286167766265"><ele>484.0</ele><time>2026-05-01T09:15:43Z</time></trkpt><trkpt lat="44.57241021131928" lon="8.223406596082619"><ele>486.75</ele><time>2026-05-01T09:15:44Z</time></trkpt><trkpt lat="44.57233153189293" lon="8.223518424832976"><ele>489.5</ele><time>2026-05-01T09:15:45Z</time></trkpt><trkpt lat="44.57227628214467" lon="8.223643854601121"><ele>492.25</ele><time>2026-05-01T09:15:46Z</time></trkpt><trkpt lat="44.572229458321786" lon="8.223806169041518"><ele>495.0</ele><time>2026-05-01T09:15:47Z</time></trkpt><trkpt lat="44.572219334599815" lon="8.224007707301121"><ele>500.25</ele><time>2026-05-01T09:15:48Z</time></trkpt><trkpt lat="44.57221785091022" lon="8.224209271535122"><ele>505.5</ele><time>2026-05-01T09:15:49Z</time></trkpt><trkpt lat="44.57218275826528" lon="8.224380088948815"><ele>510.75</ele><time>2026-05-01T09:15:50Z</time></trkpt><trkpt lat="44.57214418309948" lon="8.224537737445594"><ele>516.0</ele><time>2026-05-01T09:15:51Z</time></trkpt><trkpt lat="44.57207665298354" lon="8.224663386408293"><ele>515.75</ele><time>2026-05-01T09:15:52Z</time></trkpt><trkpt lat="44.57196094145916" lon="8.22469579418385"><ele>515.5</ele><time>2026-05-01T09:15:53Z</time></trkpt><trkpt lat="44.571860230035476" lon="8.22476926633972"><ele>515.25</ele><time>2026-05-01T09:15:54Z</time></trkpt><trkpt lat="44.571756403124525" lon="8.224849326607766"><ele>515.0</ele><time>2026-05-01T09:15:55Z</time></trkpt><trkpt lat="44.5716495652733" lon="8.224932873090276"><ele>515.0</ele><time>2026-05-01T09:15:56Z</time></trkpt><trkpt lat="44.571535994793344" lon="8.224989755962492"><ele>515.0</ele><time>2026-05-01T09:15:57Z</time></trkpt><trkpt lat="44.571412037014646" lon="8.225014239213062"><ele>515.0</ele><time>2026-05-01T09:15:58Z</time></trkpt><trkpt lat="44.57127952634129" lon="8.225037413142067"><ele>515.0</ele><time>2026-05-01T09:15:58.999Z</time></trkpt><trkpt lat="44.57114559247231" lon="8.22506648514038"><ele>513.5</ele><time>2026-05-01T09:15:59.999Z</time></trkpt><trkpt lat="44.57100649470862" lon="8.225094836120272"><ele>512.0</ele><time>2026-05-01T09:16:00.999Z</time></trkpt><trkpt lat="44.57086962997895" lon="8.22513126963522"><ele>510.5</ele><time>2026-05-01T09:16:01.999Z</time></trkpt><trkpt lat="44.570732331556535" lon="8.22517387756078"><ele>509.0</ele><time>2026-05-01T09:16:02.999Z</time></trkpt><trkpt lat="44.57059863133843" lon="8.225204007592904"><ele>509.0</ele><time>2026-05-01T09:16:03.999Z</time></trkpt><trkpt lat="44.570494630207854" lon="8.2252542077308"><ele>509.0</ele><time>2026-05-01T09:16:04.999Z</time></trkpt><trkpt lat="44.570405385400704" lon="8.225329416981715"><ele>509.0</ele><time>2026-05-01T09:16:05.999Z</time></trkpt><trkpt lat="44.570339131616485" lon="8.225454461759908"><ele>509.0</ele><time>2026-05-01T09:16:06.999Z</time></trkpt><trkpt lat="44.57030898462741" lon="8.225623605808671"><ele>509.0</ele><time>2026-05-01T09:16:07.999Z</time></trkpt><trkpt lat="44.57032199898104" lon="8.225820712325723"><ele>511.25</ele><time>2026-05-01T09:16:08.999Z</time></trkpt><trkpt lat="44.57033728746103" lon="8.226013417675809"><ele>513.5</ele><time>2026-05-01T09:16:09.999Z</time></trkpt><trkpt lat="44.57031443767561" lon="8.226211512724884"><ele>515.75</ele><time>2026-05-01T09:16:10.999Z</time></trkpt><trkpt lat="44.570290566588156" lon="8.226404888194411"><ele>518.0</ele><time>2026-05-01T09:16:11.999Z</time></trkpt><trkpt lat="44.57025820119213" lon="8.226593345359271"><ele>518.0</ele><time>2026-05-01T09:16:12.999Z</time></trkpt><trkpt lat="44.57020831463052" lon="8.226755822257351"><ele>518.0</ele><time>2026-05-01T09:16:13.999Z</time></trkpt><trkpt lat="44.57013976905421" lon="8.226893739621122"><ele>518.0</ele><time>2026-05-01T09:16:14.999Z</time></trkpt><trkpt lat="44.57005604113249" lon="8.227002865108323"><ele>518.0</ele><time>2026-05-01T09:16:15.999Z</time></trkpt><trkpt lat="44.56994941386485" lon="8.227044596888074"><ele>518.0</ele><time>2026-05-01T09:16:16.999Z</time></trkpt><trkpt lat="44.569832721808176" lon="8.227061776414413"><ele>518.0</ele><time>2026-05-01T09:16:18Z</time></trkpt><trkpt lat="44.56971199326557" lon="8.227069430707736"><ele>518.0</ele><time>2026-05-01T09:16:19Z</time></trkpt><trkpt lat="44.569603069952606" lon="8.22707423509799"><ele>518.0</ele><time>2026-05-01T09:16:20Z</time></trkpt><trkpt lat="44.56951126459579" lon="8.227105381736868"><ele>518.0</ele><time>2026-05-01T09:16:21Z</time></trkpt><trkpt lat="44.56942313238539" lon="8.227170138885368"><ele>518.0</ele><time>2026-05-01T09:16:22Z</time></trkpt><trkpt lat="44.56935051640423" lon="8.227308090323678"><ele>518.0</ele><time>2026-05-01T09:16:23Z</time></trkpt><trkpt lat="44.56927796952163" lon="8.227482447020568"><ele>518.0</ele><time>2026-05-01T09:16:24Z</time></trkpt><trkpt lat="44.56920603039894" lon="8.227622875359188"><ele>518.0</ele><time>2026-05-01T09:16:25Z</time></trkpt><trkpt lat="44.56914693597426" lon="8.227746523910882"><ele>518.0</ele><time>2026-05-01T09:16:26Z</time></trkpt><trkpt lat="44.56911111220254" lon="8.227866642051316"><ele>518.0</ele><time>2026-05-01T09:16:27Z</time></trkpt><trkpt lat="44.569146226152675" lon="8.228001722660924"><ele>518.0</ele><time>2026-05-01T09:16:28Z</time></trkpt><trkpt lat="44.56926343653996" lon="8.228097560254943"><ele>518.0</ele><time>2026-05-01T09:16:29Z</time></trkpt><trkpt lat="44.569381418326" lon="8.22818922140038"><ele>518.25</ele><time>2026-05-01T09:16:30Z</time></trkpt><trkpt lat="44.56949996256845" lon="8.228305330659934"><ele>518.5</ele><time>2026-05-01T09:16:31Z</time></trkpt><trkpt lat="44.569617527619386" lon="8.228423175297724"><ele>518.75</ele><time>2026-05-01T09:16:32Z</time></trkpt><trkpt lat="44.56971156992748" lon="8.22855385213697"><ele>519.0</ele><time>2026-05-01T09:16:33Z</time></trkpt><trkpt lat="44.56978353983063" lon="8.228714595483483"><ele>526.25</ele><time>2026-05-01T09:16:34Z</time></trkpt><trkpt lat="44.569854706757035" lon="8.228839153772249"><ele>533.5</ele><time>2026-05-01T09:16:35Z</time></trkpt><trkpt lat="44.5698022809455" lon="8.2290321568125"><ele>540.75</ele><time>2026-05-01T09:16:36Z</time></trkpt><trkpt lat="44.569766525374185" lon="8.229213212041362"><ele>548.0</ele><time>2026-05-01T09:16:37Z</time></trkpt><trkpt lat="44.569705339765434" lon="8.229396775970041"><ele>548.0</ele><time>2026-05-01T09:16:38Z</time></trkpt><trkpt lat="44.56962187513333" lon="8.22956495437844"><ele>548.0</ele><time>2026-05-01T09:16:39Z</time></trkpt><trkpt lat="44.569533758428534" lon="8.229726823690289"><ele>548.0</ele><time>2026-05-01T09:16:40Z</time></trkpt><trkpt lat="44.56946377387384" lon="8.229881773479434"><ele>548.0</ele><time>2026-05-01T09:16:41Z</time></trkpt><trkpt lat="44.56938398132403" lon="8.229994771358319"><ele>543.8</ele><time>2026-05-01T09:16:42Z</time></trkpt><trkpt lat="44.56930737543507" lon="8.230081630865858"><ele>539.5999999999999</ele><time>2026-05-01T09:16:43Z</time></trkpt><trkpt lat="44.5692551232165" lon="8.230185416761962"><ele>535.4000000000001</ele><time>2026-05-01T09:16:44Z</time></trkpt><trkpt lat="44.56924031441871" lon="8.23032551293601"><ele>531.2</ele><time>2026-05-01T09:16:45Z</time></trkpt><trkpt lat="44.56925180018908" lon="8.230477228011289"><ele>527.0</ele><time>2026-05-01T09:16:46Z</time></trkpt><trkpt lat="44.569339058890584" lon="8.230618112872827"><ele>527.0</ele><time>2026-05-01T09:16:47Z</time></trkpt><trkpt lat="44.56940279340156" lon="8.230771825594996"><ele>527.0</ele><time>2026-05-01T09:16:48Z</time></trkpt><trkpt lat="44.5695183415832" lon="8.230863953445928"><ele>527.0</ele><time>2026-05-01T09:16:49Z</time></trkpt><trkpt lat="44.56962997859179" lon="8.230961590792614"><ele>527.0</ele><time>2026-05-01T09:16:50Z</time></trkpt><trkpt lat="44.56970724816784" lon="8.231108172053535"><ele>531.0</ele><time>2026-05-01T09:16:51Z</time></trkpt><trkpt lat="44.56971758258471" lon="8.231258148936783"><ele>535.0</ele><time>2026-05-01T09:16:52Z</time></trkpt><trkpt lat="44.569762486103684" lon="8.231402228091246"><ele>539.0</ele><time>2026-05-01T09:16:53Z</time></trkpt><trkpt lat="44.56983007320815" lon="8.231514018382997"><ele>543.0</ele><time>2026-05-01T09:16:54Z</time></trkpt><trkpt lat="44.56996181332693" lon="8.231571045635404"><ele>543.0</ele><time>2026-05-01T09:16:55Z</time></trkpt><trkpt lat="44.57009305576051" lon="8.231630163810355"><ele>543.0</ele><time>2026-05-01T09:16:56Z</time></trkpt><trkpt lat="44.570228348864845" lon="8.231690510000812"><ele>543.0</ele><time>2026-05-01T09:16:57Z</time></trkpt><trkpt lat="44.57035662671646" lon="8.231744576939985"><ele>543.0</ele><time>2026-05-01T09:16:58Z</time></trkpt><trkpt lat="44.57047004869886" lon="8.231812455027121"><ele>546.25</ele><time>2026-05-01T09:16:59Z</time></trkpt><trkpt lat="44.57056070173904" lon="8.231919546076055"><ele>549.5</ele><time>2026-05-01T09:17:00Z</time></trkpt><trkpt lat="44.570650178528844" lon="8.232051897910083"><ele>552.75</ele><time>2026-05-01T09:17:01Z</time></trkpt><trkpt lat="44.57073333278483" lon="8.23219611070542"><ele>556.0</ele><time>2026-05-01T09:17:02Z</time></trkpt><trkpt lat="44.5708034740138" lon="8.232356259248558"><ele>556.0</ele><time>2026-05-01T09:17:03Z</time></trkpt><trkpt lat="44.57086230219223" lon="8.232535439114995"><ele>556.0</ele><time>2026-05-01T09:17:04Z</time></trkpt><trkpt lat="44.570821693999484" lon="8.232745473092168"><ele>556.0</ele><time>2026-05-01T09:17:05Z</time></trkpt><trkpt lat="44.570800934296535" lon="8.232957984595448"><ele>556.0</ele><time>2026-05-01T09:17:06Z</time></trkpt><trkpt lat="44.570776421174536" lon="8.233170535035148"><ele>558.25</ele><time>2026-05-01T09:17:07Z</time></trkpt><trkpt lat="44.57073876566031" lon="8.23337169509643"><ele>560.5</ele><time>2026-05-01T09:17:08Z</time></trkpt><trkpt lat="44.570690282799575" lon="8.233566017789812"><ele>562.75</ele><time>2026-05-01T09:17:09Z</time></trkpt><trkpt lat="44.57064882143396" lon="8.233773465714975"><ele>565.0</ele><time>2026-05-01T09:17:10Z</time></trkpt><trkpt lat="44.57057207738579" lon="8.233954643680672"><ele>568.25</ele><time>2026-05-01T09:17:11Z</time></trkpt><trkpt lat="44.57050640907875" lon="8.234136718345754"><ele>571.5</ele><time>2026-05-01T09:17:12Z</time></trkpt><trkpt lat="44.57044457502436" lon="8.23429891453144"><ele>574.75</ele><time>2026-05-01T09:17:13Z</time></trkpt><trkpt lat="44.57038480001953" lon="8.234450445926814"><ele>578.0</ele><time>2026-05-01T09:17:14Z</time></trkpt><trkpt lat="44.570327547253896" lon="8.234591319932019"><ele>573.25</ele><time>2026-05-01T09:17:15Z</time></trkpt><trkpt lat="44.57026699425111" lon="8.234727721022539"><ele>568.5</ele><time>2026-05-01T09:17:16Z</time></trkpt><trkpt lat="44.57021162714321" lon="8.234869591947033"><ele>563.75</ele><time>2026-05-01T09:17:17Z</time></trkpt><trkpt lat="44.57015346288998" lon="8.235006369021042"><ele>559.0</ele><time>2026-05-01T09:17:18Z</time></trkpt><trkpt lat="44.57011601946446" lon="8.235162922318192"><ele>559.0</ele><time>2026-05-01T09:17:19Z</time></trkpt><trkpt lat="44.57010860515016" lon="8.23533157043506"><ele>559.0</ele><time>2026-05-01T09:17:20Z</time></trkpt><trkpt lat="44.57013935149595" lon="8.235500862131582"><ele>559.0</ele><time>2026-05-01T09:17:21Z</time></trkpt><trkpt lat="44.57019462360864" lon="8.235671106027155"><ele>559.0</ele><time>2026-05-01T09:17:22Z</time></trkpt><trkpt lat="44.57024148522271" lon="8.235860576742935"><ele>559.5</ele><time>2026-05-01T09:17:23Z</time></trkpt><trkpt lat="44.57029904672671" lon="8.236032201853732"><ele>560.0</ele><time>2026-05-01T09:17:24Z</time></trkpt><trkpt lat="44.57034358188397" lon="8.236204493367575"><ele>560.5</ele><time>2026-05-01T09:17:25Z</time></trkpt><trkpt lat="44.570353399571445" lon="8.236370358710333"><ele>561.0</ele><time>2026-05-01T09:17:26Z</time></trkpt><trkpt lat="44.57030744517807" lon="8.236508739358309"><ele>563.25</ele><time>2026-05-01T09:17:27Z</time></trkpt><trkpt lat="44.57023451297814" lon="8.236633805206342"><ele>565.5</ele><time>2026-05-01T09:17:28Z</time></trkpt><trkpt lat="44.57012970480776" lon="8.236712498353668"><ele>567.75</ele><time>2026-05-01T09:17:29Z</time></trkpt><trkpt lat="44.56999768299327" lon="8.236781503152498"><ele>570.0</ele><time>2026-05-01T09:17:30Z</time></trkpt><trkpt lat="44.56984578569131" lon="8.236845425783688"><ele>570.0</ele><time>2026-05-01T09:17:31Z</time></trkpt><trkpt lat="44.56967892267526" lon="8.23693298300624"><ele>570.0</ele><time>2026-05-01T09:17:32Z</time></trkpt><trkpt lat="44.56950843341053" lon="8.23701298837477"><ele>570.0</ele><time>2026-05-01T09:17:33Z</time></trkpt><trkpt lat="44.569345418965526" lon="8.237095477433229"><ele>568.0</ele><time>2026-05-01T09:17:34Z</time></trkpt><trkpt lat="44.56918385203759" lon="8.23717754194439"><ele>566.0</ele><time>2026-05-01T09:17:35Z</time></trkpt><trkpt lat="44.56902756875702" lon="8.237256910065955"><ele>564.0</ele><time>2026-05-01T09:17:36Z</time></trkpt><trkpt lat="44.56887426820974" lon="8.237320623257423"><ele>564.75</ele><time>2026-05-01T09:17:37Z</time></trkpt><trkpt lat="44.56872386818552" lon="8.237351158243005"><ele>565.5</ele><time>2026-05-01T09:17:38Z</time></trkpt><trkpt lat="44.56857368174628" lon="8.237324418088912"><ele>566.25</ele><time>2026-05-01T09:17:39Z</time></trkpt><trkpt lat="44.56843120325893" lon="8.237279969591906"><ele>567.0</ele><time>2026-05-01T09:17:40Z</time></trkpt><trkpt lat="44.568291256514996" lon="8.23721171338206"><ele>567.0</ele><time>2026-05-01T09:17:41Z</time></trkpt><trkpt lat="44.568153743348255" lon="8.237155807090426"><ele>567.0</ele><time>2026-05-01T09:17:42Z</time></trkpt><trkpt lat="44.5680154293284" lon="8.237090574409727"><ele>567.0</ele><time>2026-05-01T09:17:43Z</time></trkpt><trkpt lat="44.56786781388395" lon="8.237036952881699"><ele>567.0</ele><time>2026-05-01T09:17:44Z</time></trkpt><trkpt lat="44.56771498667092" lon="8.236985330464128"><ele>571.0</ele><time>2026-05-01T09:17:45Z</time></trkpt><trkpt lat="44.56755959466589" lon="8.236933007770963"><ele>575.0</ele><time>2026-05-01T09:17:46Z</time></trkpt><trkpt lat="44.56740361360839" lon="8.236876654951875"><ele>579.0</ele><time>2026-05-01T09:17:47Z</time></trkpt><trkpt lat="44.56724939260977" lon="8.236818866136566"><ele>579.0</ele><time>2026-05-01T09:17:48Z</time></trkpt><trkpt lat="44.56709596639299" lon="8.236760929814267"><ele>579.0</ele><time>2026-05-01T09:17:49Z</time></trkpt><trkpt lat="44.566947084908264" lon="8.236695609145883"><ele>579.0</ele><time>2026-05-01T09:17:50Z</time></trkpt><trkpt lat="44.566807549388" lon="8.23662435503005"><ele>577.25</ele><time>2026-05-01T09:17:51Z</time></trkpt><trkpt lat="44.566679008541584" lon="8.236554327713995"><ele>575.5</ele><time>2026-05-01T09:17:52Z</time></trkpt><trkpt lat="44.566558764917836" lon="8.236487904439503"><ele>573.75</ele><time>2026-05-01T09:17:53Z</time></trkpt><trkpt lat="44.566453596185646" lon="8.236431381982934"><ele>572.0</ele><time>2026-05-01T09:17:54Z</time></trkpt><trkpt lat="44.566356914843844" lon="8.236376292665382"><ele>572.0</ele><time>2026-05-01T09:17:55Z</time></trkpt><trkpt lat="44.56626858447799" lon="8.236319281701052"><ele>572.0</ele><time>2026-05-01T09:17:56Z</time></trkpt><trkpt lat="44.56618680737265" lon="8.236258737194992"><ele>572.0</ele><time>2026-05-01T09:17:57Z</time></trkpt><trkpt lat="44.56611397870207" lon="8.236214971216258"><ele>572.0</ele><time>2026-05-01T09:17:58Z</time></trkpt><trkpt lat="44.56604579741758" lon="8.236221652756997"><ele>572.0</ele><time>2026-05-01T09:17:59Z</time></trkpt><trkpt lat="44.56598728821144" lon="8.23629465427993"><ele>572.0</ele><time>2026-05-01T09:18:00Z</time></trkpt><trkpt lat="44.56595260208848" lon="8.236403586217511"><ele>574.0</ele><time>2026-05-01T09:18:01Z</time></trkpt><trkpt lat="44.56601067284866" lon="8.236553819782568"><ele>576.0</ele><time>2026-05-01T09:18:02Z</time></trkpt><trkpt lat="44.56605492804219" lon="8.236712365822946"><ele>578.0</ele><time>2026-05-01T09:18:03Z</time></trkpt><trkpt lat="44.566115089508386" lon="8.236886555753223"><ele>580.0</ele><time>2026-05-01T09:18:04Z</time></trkpt><trkpt lat="44.5661766586529" lon="8.237072194706647"><ele>583.0</ele><time>2026-05-01T09:18:04.999Z</time></trkpt><trkpt lat="44.56624100848896" lon="8.237267775566597"><ele>586.0</ele><time>2026-05-01T09:18:05.999Z</time></trkpt><trkpt lat="44.56630425027625" lon="8.237467393897651"><ele>589.0</ele><time>2026-05-01T09:18:06.999Z</time></trkpt><trkpt lat="44.5663649734937" lon="8.237666452792418"><ele>591.0</ele><time>2026-05-01T09:18:07.999Z</time></trkpt><trkpt lat="44.5664136607585" lon="8.237867421207296"><ele>593.0</ele><time>2026-05-01T09:18:08.999Z</time></trkpt><trkpt lat="44.56644337626367" lon="8.238069982062983"><ele>595.0</ele><time>2026-05-01T09:18:09.999Z</time></trkpt><trkpt lat="44.566454515146106" lon="8.238270605727191"><ele>597.0</ele><time>2026-05-01T09:18:10.999Z</time></trkpt><trkpt lat="44.566442155828064" lon="8.238469110828811"><ele>599.0</ele><time>2026-05-01T09:18:11.999Z</time></trkpt><trkpt lat="44.566404412131426" lon="8.238666877031514"><ele>601.0</ele><time>2026-05-01T09:18:12.999Z</time></trkpt><trkpt lat="44.56635177670514" lon="8.238863829115253"><ele>603.0</ele><time>2026-05-01T09:18:13.999Z</time></trkpt><trkpt lat="44.566310700305415" lon="8.239074229997803"><ele>606.6666666666666</ele><time>2026-05-01T09:18:14.999Z</time></trkpt><trkpt lat="44.566262563836915" lon="8.239286540690227"><ele>610.3333333333333</ele><time>2026-05-01T09:18:15.999Z</time></trkpt><trkpt lat="44.56622610171092" lon="8.239512661609089"><ele>614.0</ele><time>2026-05-01T09:18:16.999Z</time></trkpt><trkpt lat="44.566188733027026" lon="8.23975371415103"><ele>604.0</ele><time>2026-05-01T09:18:17.999Z</time></trkpt><trkpt lat="44.56615401390156" lon="8.240000950718366"><ele>594.0</ele><time>2026-05-01T09:18:18.999Z</time></trkpt><trkpt lat="44.56610484428198" lon="8.240250885591585"><ele>584.0</ele><time>2026-05-01T09:18:19.999Z</time></trkpt><trkpt lat="44.56607010675661" lon="8.240498658373985"><ele>587.3333333333333</ele><time>2026-05-01T09:18:20.999Z</time></trkpt><trkpt lat="44.56605016771694" lon="8.240748145944588"><ele>590.6666666666666</ele><time>2026-05-01T09:18:21.999Z</time></trkpt><trkpt lat="44.566060730355005" lon="8.240998967763083"><ele>594.0</ele><time>2026-05-01T09:18:22.999Z</time></trkpt><trkpt lat="44.56605035683584" lon="8.241242253066584"><ele>597.6666666666666</ele><time>2026-05-01T09:18:24Z</time></trkpt><trkpt lat="44.56600143168704" lon="8.241473497362227"><ele>601.3333333333333</ele><time>2026-05-01T09:18:25Z</time></trkpt><trkpt lat="44.56595066260849" lon="8.241689037959016"><ele>605.0</ele><time>2026-05-01T09:18:26Z</time></trkpt><trkpt lat="44.565895203733746" lon="8.24189918088856"><ele>605.0</ele><time>2026-05-01T09:18:27Z</time></trkpt><trkpt lat="44.56585529408454" lon="8.242105715724914"><ele>605.0</ele><time>2026-05-01T09:18:28Z</time></trkpt><trkpt lat="44.565809284261405" lon="8.242289589714176"><ele>605.0</ele><time>2026-05-01T09:18:29Z</time></trkpt><trkpt lat="44.56575222369048" lon="8.242449964680148"><ele>605.0</ele><time>2026-05-01T09:18:30Z</time></trkpt><trkpt lat="44.56572042264411" lon="8.242605419314378"><ele>607.0</ele><time>2026-05-01T09:18:31Z</time></trkpt><trkpt lat="44.56568892473473" lon="8.242736421536883"><ele>609.0</ele><time>2026-05-01T09:18:32Z</time></trkpt><trkpt lat="44.56560278626074" lon="8.242817474507317"><ele>611.0</ele><time>2026-05-01T09:18:33Z</time></trkpt><trkpt lat="44.56548070593595" lon="8.242800140460536"><ele>613.0</ele><time>2026-05-01T09:18:34Z</time></trkpt><trkpt lat="44.56536891809435" lon="8.242739068177732"><ele>615.0</ele><time>2026-05-01T09:18:35Z</time></trkpt><trkpt lat="44.56524832066032" lon="8.242669384176162"><ele>615.0</ele><time>2026-05-01T09:18:36Z</time></trkpt><trkpt lat="44.56511644572886" lon="8.242594723513198"><ele>615.0</ele><time>2026-05-01T09:18:37Z</time></trkpt><trkpt lat="44.56497137838131" lon="8.242518216164594"><ele>615.0</ele><time>2026-05-01T09:18:38Z</time></trkpt><trkpt lat="44.56481792365707" lon="8.242441638512103"><ele>615.0</ele><time>2026-05-01T09:18:39Z</time></trkpt><trkpt lat="44.56467082503293" lon="8.242335484535351"><ele>615.0</ele><time>2026-05-01T09:18:40Z</time></trkpt><trkpt lat="44.564517823219056" lon="8.242273261125414"><ele>615.0</ele><time>2026-05-01T09:18:41Z</time></trkpt><trkpt lat="44.56437260105652" lon="8.242181836535549"><ele>612.3333333333334</ele><time>2026-05-01T09:18:42Z</time></trkpt><trkpt lat="44.56422887593805" lon="8.242099449069586"><ele>609.6666666666667</ele><time>2026-05-01T09:18:43Z</time></trkpt><trkpt lat="44.5640855991715" lon="8.242038971037726"><ele>607.0</ele><time>2026-05-01T09:18:44Z</time></trkpt><trkpt lat="44.56393841676648" lon="8.242001168602338"><ele>607.0</ele><time>2026-05-01T09:18:45Z</time></trkpt><trkpt lat="44.56375327079475" lon="8.241962341336661"><ele>607.0</ele><time>2026-05-01T09:18:46Z</time></trkpt><trkpt lat="44.56359147081716" lon="8.24194126005359"><ele>607.0</ele><time>2026-05-01T09:18:47Z</time></trkpt><trkpt lat="44.563420308772784" lon="8.24192260997944"><ele>609.6666666666667</ele><time>2026-05-01T09:18:48Z</time></trkpt><trkpt lat="44.56325518076367" lon="8.241935316952736"><ele>612.3333333333334</ele><time>2026-05-01T09:18:49Z</time></trkpt><trkpt lat="44.563097360477336" lon="8.241995600711975"><ele>615.0</ele><time>2026-05-01T09:18:50Z</time></trkpt><trkpt lat="44.562956594982666" lon="8.242089740141886"><ele>616.25</ele><time>2026-05-01T09:18:51Z</time></trkpt><trkpt lat="44.562823737063646" lon="8.242168334210156"><ele>617.5</ele><time>2026-05-01T09:18:52Z</time></trkpt><trkpt lat="44.562677742336376" lon="8.242122428993953"><ele>618.75</ele><time>2026-05-01T09:18:53Z</time></trkpt><trkpt lat="44.56254778802542" lon="8.242009632331223"><ele>620.0</ele><time>2026-05-01T09:18:54Z</time></trkpt><trkpt lat="44.56240208548334" lon="8.241911591356308"><ele>620.0</ele><time>2026-05-01T09:18:55Z</time></trkpt><trkpt lat="44.56226490006286" lon="8.241830314068523"><ele>620.0</ele><time>2026-05-01T09:18:56Z</time></trkpt><trkpt lat="44.56213194940772" lon="8.241766853337742"><ele>620.0</ele><time>2026-05-01T09:18:57Z</time></trkpt><trkpt lat="44.5619827740599" lon="8.241784835245518"><ele>620.0</ele><time>2026-05-01T09:18:58Z</time></trkpt><trkpt lat="44.561829980049914" lon="8.241838418459555"><ele>619.6666666666666</ele><time>2026-05-01T09:18:59Z</time></trkpt><trkpt lat="44.5616680775933" lon="8.241908896231152"><ele>619.3333333333334</ele><time>2026-05-01T09:19:00Z</time></trkpt><trkpt lat="44.561513071155694" lon="8.24203475949704"><ele>619.0</ele><time>2026-05-01T09:19:01Z</time></trkpt><trkpt lat="44.56135991256744" lon="8.242167131462347"><ele>619.0</ele><time>2026-05-01T09:19:02Z</time></trkpt><trkpt lat="44.56121143555915" lon="8.242297230529573"><ele>619.0</ele><time>2026-05-01T09:19:03Z</time></trkpt><trkpt lat="44.56108057402486" lon="8.242420050353665"><ele>619.0</ele><time>2026-05-01T09:19:04Z</time></trkpt><trkpt lat="44.56096309256339" lon="8.242522852884589"><ele>619.0</ele><time>2026-05-01T09:19:05Z</time></trkpt><trkpt lat="44.56087576171089" lon="8.242646347733858"><ele>619.0</ele><time>2026-05-01T09:19:06Z</time></trkpt><trkpt lat="44.560827133498" lon="8.242828753759214"><ele>619.0</ele><time>2026-05-01T09:19:07Z</time></trkpt><trkpt lat="44.5607987620431" lon="8.243058569672062"><ele>619.0</ele><time>2026-05-01T09:19:08Z</time></trkpt><trkpt lat="44.56075635671327" lon="8.243285688529376"><ele>626.0</ele><time>2026-05-01T09:19:09Z</time></trkpt><trkpt lat="44.560657301297894" lon="8.243481384659942"><ele>633.0</ele><time>2026-05-01T09:19:10Z</time></trkpt><trkpt lat="44.560561141495505" lon="8.243680065408569"><ele>640.0</ele><time>2026-05-01T09:19:11Z</time></trkpt><trkpt lat="44.560495115619815" lon="8.243893528818866"><ele>635.3333333333334</ele><time>2026-05-01T09:19:12Z</time></trkpt><trkpt lat="44.560444430164786" lon="8.244105921991688"><ele>630.6666666666666</ele><time>2026-05-01T09:19:13Z</time></trkpt><trkpt lat="44.56040233921428" lon="8.244325979779283"><ele>626.0</ele><time>2026-05-01T09:19:14Z</time></trkpt><trkpt lat="44.560315162909525" lon="8.244490960994785"><ele>626.0</ele><time>2026-05-01T09:19:15Z</time></trkpt><trkpt lat="44.560193751703125" lon="8.244604626836447"><ele>626.0</ele><time>2026-05-01T09:19:16Z</time></trkpt><trkpt lat="44.5600422795711" lon="8.244709624035126"><ele>626.0</ele><time>2026-05-01T09:19:17Z</time></trkpt><trkpt lat="44.559871082764474" lon="8.24482100224587"><ele>631.0</ele><time>2026-05-01T09:19:18Z</time></trkpt><trkpt lat="44.55970132803483" lon="8.244933773030835"><ele>636.0</ele><time>2026-05-01T09:19:19Z</time></trkpt><trkpt lat="44.559539454749704" lon="8.245050976195621"><ele>641.0</ele><time>2026-05-01T09:19:20Z</time></trkpt><trkpt lat="44.55939318034298" lon="8.245167012096323"><ele>641.0</ele><time>2026-05-01T09:19:21Z</time></trkpt><trkpt lat="44.559253898424316" lon="8.245251748439097"><ele>641.0</ele><time>2026-05-01T09:19:22Z</time></trkpt><trkpt lat="44.55912317667328" lon="8.245303585367456"><ele>641.0</ele><time>2026-05-01T09:19:23Z</time></trkpt><trkpt lat="44.559007533688984" lon="8.245358062268947"><ele>641.0</ele><time>2026-05-01T09:19:24Z</time></trkpt><trkpt lat="44.55890833609883" lon="8.245463924026701"><ele>647.6666666666666</ele><time>2026-05-01T09:19:25Z</time></trkpt><trkpt lat="44.558832206071486" lon="8.24564130289023"><ele>654.3333333333334</ele><time>2026-05-01T09:19:26Z</time></trkpt><trkpt lat="44.55880187439672" lon="8.2458794942099"><ele>661.0</ele><time>2026-05-01T09:19:27Z</time></trkpt><trkpt lat="44.55878959945333" lon="8.246082593309861"><ele>661.0</ele><time>2026-05-01T09:19:28Z</time></trkpt><trkpt lat="44.55880124040916" lon="8.246255695357643"><ele>661.0</ele><time>2026-05-01T09:19:29Z</time></trkpt><trkpt lat="44.55887679214287" lon="8.246401963804006"><ele>661.0</ele><time>2026-05-01T09:19:30Z</time></trkpt><trkpt lat="44.559001873332136" lon="8.2465095295397"><ele>661.0</ele><time>2026-05-01T09:19:31Z</time></trkpt><trkpt lat="44.55915456950344" lon="8.246602514636983"><ele>659.0</ele><time>2026-05-01T09:19:32Z</time></trkpt><trkpt lat="44.55929842837504" lon="8.246723277137429"><ele>657.0</ele><time>2026-05-01T09:19:33Z</time></trkpt><trkpt lat="44.559447947754784" lon="8.24682529222278"><ele>655.0</ele><time>2026-05-01T09:19:34Z</time></trkpt><trkpt lat="44.559602652791426" lon="8.246881290189709"><ele>660.5</ele><time>2026-05-01T09:19:35Z</time></trkpt><trkpt lat="44.55975545851463" lon="8.246915312564157"><ele>666.0</ele><time>2026-05-01T09:19:36Z</time></trkpt><trkpt lat="44.5598990132305" lon="8.246952854484114"><ele>671.5</ele><time>2026-05-01T09:19:37Z</time></trkpt><trkpt lat="44.56002623082688" lon="8.247004440082934"><ele>677.0</ele><time>2026-05-01T09:19:38Z</time></trkpt><trkpt lat="44.5601428897282" lon="8.247097527988817"><ele>677.0</ele><time>2026-05-01T09:19:39Z</time></trkpt><trkpt lat="44.5602680544956" lon="8.247213080096012"><ele>677.0</ele><time>2026-05-01T09:19:40Z</time></trkpt><trkpt lat="44.560388346085404" lon="8.247336232776137"><ele>677.0</ele><time>2026-05-01T09:19:41Z</time></trkpt><trkpt lat="44.56049515558877" lon="8.247466271352899"><ele>677.0</ele><time>2026-05-01T09:19:42Z</time></trkpt><trkpt lat="44.560571280782604" lon="8.247614390669282"><ele>676.5</ele><time>2026-05-01T09:19:43Z</time></trkpt><trkpt lat="44.560608841025235" lon="8.247793728800662"><ele>676.0</ele><time>2026-05-01T09:19:44Z</time></trkpt><trkpt lat="44.56059420141113" lon="8.247990650270541"><ele>675.5</ele><time>2026-05-01T09:19:45Z</time></trkpt><trkpt lat="44.560568958399436" lon="8.248173324851741"><ele>675.0</ele><time>2026-05-01T09:19:46Z</time></trkpt><trkpt lat="44.56058839348407" lon="8.248337116247459"><ele>671.5</ele><time>2026-05-01T09:19:47Z</time></trkpt><trkpt lat="44.56065291872858" lon="8.248486171644684"><ele>668.0</ele><time>2026-05-01T09:19:48Z</time></trkpt><trkpt lat="44.560758019808276" lon="8.248628701405869"><ele>664.5</ele><time>2026-05-01T09:19:49Z</time></trkpt><trkpt lat="44.56086186602625" lon="8.248782185841462"><ele>661.0</ele><time>2026-05-01T09:19:50Z</time></trkpt><trkpt lat="44.56098275621677" lon="8.248909977410708"><ele>664.0</ele><time>2026-05-01T09:19:51Z</time></trkpt><trkpt lat="44.561074198350354" lon="8.24905702058565"><ele>667.0</ele><time>2026-05-01T09:19:52Z</time></trkpt><trkpt lat="44.561153490167" lon="8.24917944805834"><ele>670.0</ele><time>2026-05-01T09:19:53Z</time></trkpt><trkpt lat="44.5611998846041" lon="8.249302567370153"><ele>673.0</ele><time>2026-05-01T09:19:54Z</time></trkpt><trkpt lat="44.56120087287889" lon="8.249427469566076"><ele>676.0</ele><time>2026-05-01T09:19:55Z</time></trkpt><trkpt lat="44.56113246957384" lon="8.249514846304164"><ele>668.75</ele><time>2026-05-01T09:19:56Z</time></trkpt><trkpt lat="44.56105402087012" lon="8.249614558018267"><ele>661.5</ele><time>2026-05-01T09:19:57Z</time></trkpt><trkpt lat="44.56096760110386" lon="8.249745679423105"><ele>654.25</ele><time>2026-05-01T09:19:58Z</time></trkpt><trkpt lat="44.560870594669844" lon="8.249888946836077"><ele>647.0</ele><time>2026-05-01T09:19:59Z</time></trkpt><trkpt lat="44.560769018734575" lon="8.250044958157439"><ele>647.0</ele><time>2026-05-01T09:20:00Z</time></trkpt><trkpt lat="44.56065497043" lon="8.250199605092249"><ele>647.0</ele><time>2026-05-01T09:20:01Z</time></trkpt><trkpt lat="44.56054311230204" lon="8.250369045114946"><ele>647.0</ele><time>2026-05-01T09:20:02Z</time></trkpt><trkpt lat="44.56040251146702" lon="8.250498678790066"><ele>646.0</ele><time>2026-05-01T09:20:03Z</time></trkpt><trkpt lat="44.56027331932369" lon="8.250620839373296"><ele>645.0</ele><time>2026-05-01T09:20:04Z</time></trkpt><trkpt lat="44.56011927390534" lon="8.250690979737799"><ele>644.0</ele><time>2026-05-01T09:20:05Z</time></trkpt><trkpt lat="44.55995851524364" lon="8.250734697982567"><ele>644.0</ele><time>2026-05-01T09:20:06Z</time></trkpt><trkpt lat="44.55979147963326" lon="8.250765696475339"><ele>644.0</ele><time>2026-05-01T09:20:07Z</time></trkpt><trkpt lat="44.559636180273536" lon="8.250798934674997"><ele>644.0</ele><time>2026-05-01T09:20:08Z</time></trkpt><trkpt lat="44.55948667436906" lon="8.250839774161747"><ele>639.75</ele><time>2026-05-01T09:20:09Z</time></trkpt><trkpt lat="44.55934809748873" lon="8.25088980885541"><ele>635.5</ele><time>2026-05-01T09:20:10Z</time></trkpt><trkpt lat="44.55922833228183" lon="8.250969697140219"><ele>631.25</ele><time>2026-05-01T09:20:11Z</time></trkpt><trkpt lat="44.55914272057097" lon="8.251104701043479"><ele>627.0</ele><time>2026-05-01T09:20:11.999Z</time></trkpt><trkpt lat="44.55909231298651" lon="8.251288257183175"><ele>630.6666666666666</ele><time>2026-05-01T09:20:12.999Z</time></trkpt><trkpt lat="44.55907941402307" lon="8.251501016001827"><ele>634.3333333333333</ele><time>2026-05-01T09:20:13.999Z</time></trkpt><trkpt lat="44.55908208973532" lon="8.25171912806935"><ele>638.0</ele><time>2026-05-01T09:20:14.999Z</time></trkpt><trkpt lat="44.55906771590776" lon="8.251937964154234"><ele>638.0</ele><time>2026-05-01T09:20:15.999Z</time></trkpt><trkpt lat="44.55901460727062" lon="8.2521578407522"><ele>638.0</ele><time>2026-05-01T09:20:16.999Z</time></trkpt><trkpt lat="44.55892405232275" lon="8.252358466929095"><ele>638.0</ele><time>2026-05-01T09:20:17.999Z</time></trkpt><trkpt lat="44.558871852693635" lon="8.252583303547883"><ele>640.0</ele><time>2026-05-01T09:20:18.999Z</time></trkpt><trkpt lat="44.5588097302985" lon="8.252786952788972"><ele>642.0</ele><time>2026-05-01T09:20:19.999Z</time></trkpt><trkpt lat="44.558731686966496" lon="8.252982833469755"><ele>644.0</ele><time>2026-05-01T09:20:20.999Z</time></trkpt><trkpt lat="44.558669341184626" lon="8.253180760684593"><ele>640.5</ele><time>2026-05-01T09:20:21.999Z</time></trkpt><trkpt lat="44.55862199896452" lon="8.253388827485432"><ele>637.0</ele><time>2026-05-01T09:20:22.999Z</time></trkpt><trkpt lat="44.558557533918176" lon="8.253573782101457"><ele>633.5</ele><time>2026-05-01T09:20:23.999Z</time></trkpt><trkpt lat="44.558505699673205" lon="8.253750718558711"><ele>630.0</ele><time>2026-05-01T09:20:24.999Z</time></trkpt><trkpt lat="44.558457124713286" lon="8.253893623862195"><ele>630.4</ele><time>2026-05-01T09:20:25.999Z</time></trkpt><trkpt lat="44.55842403052125" lon="8.254010435553916"><ele>630.8</ele><time>2026-05-01T09:20:26.999Z</time></trkpt><trkpt lat="44.55839330293033" lon="8.254109861644007"><ele>631.2</ele><time>2026-05-01T09:20:27.999Z</time></trkpt><trkpt lat="44.558435549392804" lon="8.254237366452967"><ele>631.6</ele><time>2026-05-01T09:20:28.999Z</time></trkpt><trkpt lat="44.55845715172677" lon="8.254389842679599"><ele>632.0</ele><time>2026-05-01T09:20:30.001Z</time></trkpt><trkpt lat="44.558488163442874" lon="8.254547755875887"><ele>632.0</ele><time>2026-05-01T09:20:31.001Z</time></trkpt><trkpt lat="44.558521302162944" lon="8.25471650002177"><ele>632.0</ele><time>2026-05-01T09:20:32.001Z</time></trkpt><trkpt lat="44.55855398518611" lon="8.25488766020758"><ele>632.0</ele><time>2026-05-01T09:20:33.001Z</time></trkpt><trkpt lat="44.558585071355026" lon="8.255051434715787"><ele>632.0</ele><time>2026-05-01T09:20:34.001Z</time></trkpt><trkpt lat="44.558603634183214" lon="8.255207386567667"><ele>631.2</ele><time>2026-05-01T09:20:35.001Z</time></trkpt><trkpt lat="44.55858875000008" lon="8.255354152853078"><ele>630.4000000000001</ele><time>2026-05-01T09:20:36.001Z</time></trkpt><trkpt lat="44.558537111731916" lon="8.25548198244318"><ele>629.5999999999999</ele><time>2026-05-01T09:20:37.001Z</time></trkpt><trkpt lat="44.55851533568994" lon="8.255608978556563"><ele>628.8</ele><time>2026-05-01T09:20:38.001Z</time></trkpt><trkpt lat="44.55851025620073" lon="8.255733964801017"><ele>628.0</ele><time>2026-05-01T09:20:39.001Z</time></trkpt><trkpt lat="44.55853878093035" lon="8.255876385919795"><ele>627.5</ele><time>2026-05-01T09:20:40.001Z</time></trkpt><trkpt lat="44.55858709976741" lon="8.256020694612353"><ele>627.0</ele><time>2026-05-01T09:20:41Z</time></trkpt><trkpt lat="44.558641132343084" lon="8.256168494310433"><ele>626.5</ele><time>2026-05-01T09:20:42.001Z</time></trkpt><trkpt lat="44.558679535587686" lon="8.256321405927434"><ele>626.0</ele><time>2026-05-01T09:20:43.001Z</time></trkpt><trkpt lat="44.558680798925835" lon="8.256483081712942"><ele>626.0</ele><time>2026-05-01T09:20:44Z</time></trkpt><trkpt lat="44.558632819969745" lon="8.25662606712811"><ele>626.0</ele><time>2026-05-01T09:20:45Z</time></trkpt><trkpt lat="44.558522464776956" lon="8.25670553312148"><ele>626.0</ele><time>2026-05-01T09:20:46Z</time></trkpt><trkpt lat="44.55841519660245" lon="8.256803125110698"><ele>626.0</ele><time>2026-05-01T09:20:47Z</time></trkpt><trkpt lat="44.55831161502019" lon="8.256914465354162"><ele>626.0</ele><time>2026-05-01T09:20:48Z</time></trkpt><trkpt lat="44.55820940246761" lon="8.257000332522459"><ele>626.0</ele><time>2026-05-01T09:20:49Z</time></trkpt><trkpt lat="44.55812806098429" lon="8.257109645853824"><ele>626.0</ele><time>2026-05-01T09:20:50Z</time></trkpt><trkpt lat="44.558072191187975" lon="8.257267039028433"><ele>626.0</ele><time>2026-05-01T09:20:51Z</time></trkpt><trkpt lat="44.558054609905945" lon="8.257470843042178"><ele>629.5</ele><time>2026-05-01T09:20:52Z</time></trkpt><trkpt lat="44.55804353060842" lon="8.257674862215556"><ele>633.0</ele><time>2026-05-01T09:20:53Z</time></trkpt><trkpt lat="44.55801057676117" lon="8.257862048624606"><ele>636.5</ele><time>2026-05-01T09:20:54Z</time></trkpt><trkpt lat="44.55799490697899" lon="8.258044763695416"><ele>640.0</ele><time>2026-05-01T09:20:55Z</time></trkpt><trkpt lat="44.5580040014468" lon="8.258231815394568"><ele>640.5</ele><time>2026-05-01T09:20:56Z</time></trkpt><trkpt lat="44.55802046471539" lon="8.258422243851625"><ele>641.0</ele><time>2026-05-01T09:20:57Z</time></trkpt><trkpt lat="44.558032555924186" lon="8.258607993041082"><ele>641.5</ele><time>2026-05-01T09:20:58Z</time></trkpt><trkpt lat="44.558055051987346" lon="8.258780902355204"><ele>642.0</ele><time>2026-05-01T09:20:59Z</time></trkpt><trkpt lat="44.558061053438905" lon="8.258941932114022"><ele>642.0</ele><time>2026-05-01T09:21:00Z</time></trkpt><trkpt lat="44.55804222497435" lon="8.259094850177167"><ele>642.0</ele><time>2026-05-01T09:21:01Z</time></trkpt><trkpt lat="44.5579945060177" lon="8.259223254599991"><ele>642.0</ele><time>2026-05-01T09:21:02Z</time></trkpt><trkpt lat="44.55793375113592" lon="8.259324985249656"><ele>642.0</ele><time>2026-05-01T09:21:03Z</time></trkpt><trkpt lat="44.557826976439344" lon="8.25932488085104"><ele>642.0</ele><time>2026-05-01T09:21:04Z</time></trkpt><trkpt lat="44.55773363021814" lon="8.259215030486187"><ele>639.5</ele><time>2026-05-01T09:21:05Z</time></trkpt><trkpt lat="44.55762969322573" lon="8.25911023970894"><ele>637.0</ele><time>2026-05-01T09:21:06Z</time></trkpt><trkpt lat="44.5575239974843" lon="8.258985937951548"><ele>634.5</ele><time>2026-05-01T09:21:07Z</time></trkpt><trkpt lat="44.55740236485793" lon="8.258867778733485"><ele>632.0</ele><time>2026-05-01T09:21:08Z</time></trkpt><trkpt lat="44.55727402206062" lon="8.25875985708028"><ele>627.5</ele><time>2026-05-01T09:21:09Z</time></trkpt><trkpt lat="44.55715253289158" lon="8.25865839919888"><ele>623.0</ele><time>2026-05-01T09:21:10Z</time></trkpt><trkpt lat="44.55703580463438" lon="8.258558152972208"><ele>618.5</ele><time>2026-05-01T09:21:11Z</time></trkpt><trkpt lat="44.55691913864376" lon="8.25846137732485"><ele>614.0</ele><time>2026-05-01T09:21:12Z</time></trkpt><trkpt lat="44.55680698665123" lon="8.258372837569286"><ele>614.0</ele><time>2026-05-01T09:21:13Z</time></trkpt><trkpt lat="44.55669980798204" lon="8.25828575725734"><ele>614.0</ele><time>2026-05-01T09:21:14Z</time></trkpt><trkpt lat="44.55659677390743" lon="8.258205660631294"><ele>614.0</ele><time>2026-05-01T09:21:15Z</time></trkpt><trkpt lat="44.556488772165984" lon="8.258158028394394"><ele>614.0</ele><time>2026-05-01T09:21:16Z</time></trkpt><trkpt lat="44.556360862056714" lon="8.258146489469567"><ele>614.0</ele><time>2026-05-01T09:21:17Z</time></trkpt><trkpt lat="44.55622211839434" lon="8.258171709461623"><ele>614.0</ele><time>2026-05-01T09:21:18Z</time></trkpt><trkpt lat="44.55607888629944" lon="8.258200472365278"><ele>614.0</ele><time>2026-05-01T09:21:19Z</time></trkpt><trkpt lat="44.55593705725531" lon="8.258220770616472"><ele>614.0</ele><time>2026-05-01T09:21:20Z</time></trkpt><trkpt lat="44.55580474108342" lon="8.258236932356802"><ele>616.0</ele><time>2026-05-01T09:21:21Z</time></trkpt><trkpt lat="44.555676498521166" lon="8.258250136511899"><ele>618.0</ele><time>2026-05-01T09:21:22Z</time></trkpt><trkpt lat="44.55554720739579" lon="8.25825769066729"><ele>620.0</ele><time>2026-05-01T09:21:23Z</time></trkpt><trkpt lat="44.555417349618054" lon="8.258249481079721"><ele>622.0</ele><time>2026-05-01T09:21:24Z</time></trkpt><trkpt lat="44.55528898216966" lon="8.258220562813856"><ele>622.0</ele><time>2026-05-01T09:21:25Z</time></trkpt><trkpt lat="44.55516582819103" lon="8.258178370501614"><ele>622.0</ele><time>2026-05-01T09:21:26Z</time></trkpt><trkpt lat="44.55505822899664" lon="8.258107247286844"><ele>622.0</ele><time>2026-05-01T09:21:27Z</time></trkpt><trkpt lat="44.55495332641501" lon="8.25804625018189"><ele>622.0</ele><time>2026-05-01T09:21:28Z</time></trkpt><trkpt lat="44.5548480392487" lon="8.257985260910663"><ele>612.75</ele><time>2026-05-01T09:21:29Z</time></trkpt><trkpt lat="44.55473230689478" lon="8.257956596739605"><ele>603.5</ele><time>2026-05-01T09:21:30Z</time></trkpt><trkpt lat="44.554624254700165" lon="8.257895501195927"><ele>594.25</ele><time>2026-05-01T09:21:31Z</time></trkpt><trkpt lat="44.55450723940894" lon="8.257868223308893"><ele>585.0</ele><time>2026-05-01T09:21:32Z</time></trkpt><trkpt lat="44.554393341780674" lon="8.257885171695722"><ele>585.0</ele><time>2026-05-01T09:21:33Z</time></trkpt><trkpt lat="44.554290451575895" lon="8.257926586507013"><ele>585.0</ele><time>2026-05-01T09:21:34Z</time></trkpt><trkpt lat="44.55421132679443" lon="8.258001520216954"><ele>585.0</ele><time>2026-05-01T09:21:35Z</time></trkpt><trkpt lat="44.55414970660109" lon="8.258118132563352"><ele>585.0</ele><time>2026-05-01T09:21:36Z</time></trkpt><trkpt lat="44.55411408309031" lon="8.258266005057704"><ele>585.0</ele><time>2026-05-01T09:21:37Z</time></trkpt><trkpt lat="44.5540745064991" lon="8.258435271289523"><ele>589.75</ele><time>2026-05-01T09:21:38Z</time></trkpt><trkpt lat="44.55406476537076" lon="8.258620625198366"><ele>594.5</ele><time>2026-05-01T09:21:39Z</time></trkpt><trkpt lat="44.554063953837215" lon="8.258792311527575"><ele>599.25</ele><time>2026-05-01T09:21:40Z</time></trkpt><trkpt lat="44.55406288492179" lon="8.258958696029548"><ele>604.0</ele><time>2026-05-01T09:21:41Z</time></trkpt><trkpt lat="44.55406191196484" lon="8.25911014425848"><ele>605.0</ele><time>2026-05-01T09:21:42Z</time></trkpt><trkpt lat="44.55406005384228" lon="8.259237929701953"><ele>606.0</ele><time>2026-05-01T09:21:43Z</time></trkpt><trkpt lat="44.55404326952983" lon="8.259361130423109"><ele>607.0</ele><time>2026-05-01T09:21:44Z</time></trkpt><trkpt lat="44.56786781388395" lon="8.237036952881699"><ele>597.6666666666667</ele><time>2026-05-01T09:17:44Z</time></trkpt><trkpt lat="44.56771498667092" lon="8.236985330464128"><ele>588.3333333333334</ele><time>2026-05-01T09:17:45Z</time></trkpt><trkpt lat="44.56755959466589" lon="8.236933007770963"><ele>579.0</ele><time>2026-05-01T09:17:46Z</time></trkpt><trkpt lat="44.56740361360839" lon="8.236876654951875"><ele>579.0</ele><time>2026-05-01T09:17:47Z</time></trkpt><trkpt lat="44.56724939260977" lon="8.236818866136566"><ele>579.0</ele><time>2026-05-01T09:17:48Z</time></trkpt><trkpt lat="44.56709596639299" lon="8.236760929814267"><ele>579.0</ele><time>2026-05-01T09:17:49Z</time></trkpt><trkpt lat="44.566947084908264" lon="8.236695609145883"><ele>577.25</ele><time>2026-05-01T09:17:50Z</time></trkpt><trkpt lat="44.566807549388" lon="8.23662435503005"><ele>575.5</ele><time>2026-05-01T09:17:51Z</time></trkpt><trkpt lat="44.566679008541584" lon="8.236554327713995"><ele>573.75</ele><time>2026-05-01T09:17:52Z</time></trkpt><trkpt lat="44.566558764917836" lon="8.236487904439503"><ele>572.0</ele><time>2026-05-01T09:17:53Z</time></trkpt><trkpt lat="44.566453596185646" lon="8.236431381982934"><ele>572.0</ele><time>2026-05-01T09:17:54Z</time></trkpt><trkpt lat="44.566356914843844" lon="8.236376292665382"><ele>572.0</ele><time>2026-05-01T09:17:55Z</time></trkpt><trkpt lat="44.56626858447799" lon="8.236319281701052"><ele>572.0</ele><time>2026-05-01T09:17:56Z</time></trkpt><trkpt lat="44.56618680737265" lon="8.236258737194992"><ele>572.0</ele><time>2026-05-01T09:17:57Z</time></trkpt><trkpt lat="44.56611397870207" lon="8.236214971216258"><ele>572.0</ele><time>2026-05-01T09:17:58Z</time></trkpt><trkpt lat="44.56604579741758" lon="8.236221652756997"><ele>572.0</ele><time>2026-05-01T09:17:59Z</time></trkpt><trkpt lat="44.56598728821144" lon="8.23629465427993"><ele>573.75</ele><time>2026-05-01T09:18:00Z</time></trkpt><trkpt lat="44.56595260208848" lon="8.236403586217511"><ele>575.5</ele><time>2026-05-01T09:18:01Z</time></trkpt><trkpt lat="44.56601067284866" lon="8.236553819782568"><ele>577.25</ele><time>2026-05-01T09:18:02Z</time></trkpt><trkpt lat="44.56605492804219" lon="8.236712365822946"><ele>579.0</ele><time>2026-05-01T09:18:03Z</time></trkpt><trkpt lat="44.566115089508386" lon="8.236886555753223"><ele>579.3333333333334</ele><time>2026-05-01T09:18:04Z</time></trkpt><trkpt lat="44.5661766586529" lon="8.237072194706647"><ele>579.6666666666667</ele><time>2026-05-01T09:18:04.999Z</time></trkpt><trkpt lat="44.56624100848896" lon="8.237267775566597"><ele>580.0</ele><time>2026-05-01T09:18:05.999Z</time></trkpt><trkpt lat="44.56630425027625" lon="8.237467393897651"><ele>585.6666666666667</ele><time>2026-05-01T09:18:06.999Z</time></trkpt><trkpt lat="44.5663649734937" lon="8.237666452792418"><ele>591.3333333333334</ele><time>2026-05-01T09:18:07.999Z</time></trkpt><trkpt lat="44.5664136607585" lon="8.237867421207296"><ele>597.0</ele><time>2026-05-01T09:18:08.999Z</time></trkpt><trkpt lat="44.56644337626367" lon="8.238069982062983"><ele>598.5</ele><time>2026-05-01T09:18:09.999Z</time></trkpt><trkpt lat="44.566454515146106" lon="8.238270605727191"><ele>600.0</ele><time>2026-05-01T09:18:10.999Z</time></trkpt><trkpt lat="44.566442155828064" lon="8.238469110828811"><ele>601.5</ele><time>2026-05-01T09:18:11.999Z</time></trkpt><trkpt lat="44.566404412131426" lon="8.238666877031514"><ele>603.0</ele><time>2026-05-01T09:18:12.999Z</time></trkpt><trkpt lat="44.56635177670514" lon="8.238863829115253"><ele>606.6666666666666</ele><time>2026-05-01T09:18:13.999Z</time></trkpt><trkpt lat="44.566310700305415" lon="8.239074229997803"><ele>610.3333333333333</ele><time>2026-05-01T09:18:14.999Z</time></trkpt><trkpt lat="44.566262563836915" lon="8.239286540690227"><ele>614.0</ele><time>2026-05-01T09:18:15.999Z</time></trkpt><trkpt lat="44.56622610171092" lon="8.239512661609089"><ele>604.0</ele><time>2026-05-01T09:18:16.999Z</time></trkpt><trkpt lat="44.566188733027026" lon="8.23975371415103"><ele>594.0</ele><time>2026-05-01T09:18:17.999Z</time></trkpt><trkpt lat="44.56615401390156" lon="8.240000950718366"><ele>584.0</ele><time>2026-05-01T09:18:18.999Z</time></trkpt><trkpt lat="44.56610484428198" lon="8.240250885591585"><ele>584.0</ele><time>2026-05-01T09:18:19.999Z</time></trkpt><trkpt lat="44.56607010675661" lon="8.240498658373985"><ele>584.0</ele><time>2026-05-01T09:18:20.999Z</time></trkpt><trkpt lat="44.56605016771694" lon="8.240748145944588"><ele>584.0</ele><time>2026-05-01T09:18:21.999Z</time></trkpt><trkpt lat="44.566060730355005" lon="8.240998967763083"><ele>587.3333333333333</ele><time>2026-05-01T09:18:22.999Z</time></trkpt><trkpt lat="44.56605035683584" lon="8.241242253066584"><ele>590.6666666666666</ele><time>2026-05-01T09:18:24Z</time></trkpt><trkpt lat="44.56600143168704" lon="8.241473497362227"><ele>594.0</ele><time>2026-05-01T09:18:25Z</time></trkpt><trkpt lat="44.56595066260849" lon="8.241689037959016"><ele>597.6666666666666</ele><time>2026-05-01T09:18:26Z</time></trkpt><trkpt lat="44.565895203733746" lon="8.24189918088856"><ele>601.3333333333333</ele><time>2026-05-01T09:18:27Z</time></trkpt><trkpt lat="44.56585529408454" lon="8.242105715724914"><ele>605.0</ele><time>2026-05-01T09:18:28Z</time></trkpt><trkpt lat="44.565809284261405" lon="8.242289589714176"><ele>608.2</ele><time>2026-05-01T09:18:29Z</time></trkpt><trkpt lat="44.56575222369048" lon="8.242449964680148"><ele>611.4</ele><time>2026-05-01T09:18:30Z</time></trkpt><trkpt lat="44.56572042264411" lon="8.242605419314378"><ele>614.6</ele><time>2026-05-01T09:18:31Z</time></trkpt><trkpt lat="44.56568892473473" lon="8.242736421536883"><ele>617.8</ele><time>2026-05-01T09:18:32Z</time></trkpt><trkpt lat="44.56560278626074" lon="8.242817474507317"><ele>621.0</ele><time>2026-05-01T09:18:33Z</time></trkpt><trkpt lat="44.56548070593595" lon="8.242800140460536"><ele>621.0</ele><time>2026-05-01T09:18:34Z</time></trkpt><trkpt lat="44.56536891809435" lon="8.242739068177732"><ele>621.0</ele><time>2026-05-01T09:18:35Z</time></trkpt><trkpt lat="44.56524832066032" lon="8.242669384176162"><ele>621.0</ele><time>2026-05-01T09:18:36Z</time></trkpt><trkpt lat="44.56511644572886" lon="8.242594723513198"><ele>621.0</ele><time>2026-05-01T09:18:37Z</time></trkpt><trkpt lat="44.56497137838131" lon="8.242518216164594"><ele>619.0</ele><time>2026-05-01T09:18:38Z</time></trkpt><trkpt lat="44.56481792365707" lon="8.242441638512103"><ele>617.0</ele><time>2026-05-01T09:18:39Z</time></trkpt><trkpt lat="44.56467082503293" lon="8.242335484535351"><ele>615.0</ele><time>2026-05-01T09:18:40Z</time></trkpt><trkpt lat="44.564517823219056" lon="8.242273261125414"><ele>612.3333333333334</ele><time>2026-05-01T09:18:41Z</time></trkpt><trkpt lat="44.56437260105652" lon="8.242181836535549"><ele>609.6666666666667</ele><time>2026-05-01T09:18:42Z</time></trkpt><trkpt lat="44.56422887593805" lon="8.242099449069586"><ele>607.0</ele><time>2026-05-01T09:18:43Z</time></trkpt><trkpt lat="44.5640855991715" lon="8.242038971037726"><ele>607.0</ele><time>2026-05-01T09:18:44Z</time></trkpt><trkpt lat="44.56393841676648" lon="8.242001168602338"><ele>607.0</ele><time>2026-05-01T09:18:45Z</time></trkpt><trkpt lat="44.56375327079475" lon="8.241962341336661"><ele>607.0</ele><time>2026-05-01T09:18:46Z</time></trkpt><trkpt lat="44.56359147081716" lon="8.24194126005359"><ele>609.6666666666667</ele><time>2026-05-01T09:18:47Z</time></trkpt><trkpt lat="44.563420308772784" lon="8.24192260997944"><ele>612.3333333333334</ele><time>2026-05-01T09:18:48Z</time></trkpt><trkpt lat="44.56325518076367" lon="8.241935316952736"><ele>615.0</ele><time>2026-05-01T09:18:49Z</time></trkpt><trkpt lat="44.563097360477336" lon="8.241995600711975"><ele>615.0</ele><time>2026-05-01T09:18:50Z</time></trkpt><trkpt lat="44.562956594982666" lon="8.242089740141886"><ele>615.0</ele><time>2026-05-01T09:18:51Z</time></trkpt><trkpt lat="44.562823737063646" lon="8.242168334210156"><ele>615.0</ele><time>2026-05-01T09:18:52Z</time></trkpt><trkpt lat="44.562677742336376" lon="8.242122428993953"><ele>616.6666666666666</ele><time>2026-05-01T09:18:53Z</time></trkpt><trkpt lat="44.56254778802542" lon="8.242009632331223"><ele>618.3333333333333</ele><time>2026-05-01T09:18:54Z</time></trkpt><trkpt lat="44.56240208548334" lon="8.241911591356308"><ele>620.0</ele><time>2026-05-01T09:18:55Z</time></trkpt><trkpt lat="44.56226490006286" lon="8.241830314068523"><ele>620.0</ele><time>2026-05-01T09:18:56Z</time></trkpt><trkpt lat="44.56213194940772" lon="8.241766853337742"><ele>620.0</ele><time>2026-05-01T09:18:57Z</time></trkpt><trkpt lat="44.5619827740599" lon="8.241784835245518"><ele>620.0</ele><time>2026-05-01T09:18:58Z</time></trkpt><trkpt lat="44.561829980049914" lon="8.241838418459555"><ele>620.0</ele><time>2026-05-01T09:18:59Z</time></trkpt><trkpt lat="44.5616680775933" lon="8.241908896231152"><ele>619.6666666666666</ele><time>2026-05-01T09:19:00Z</time></trkpt><trkpt lat="44.561513071155694" lon="8.24203475949704"><ele>619.3333333333334</ele><time>2026-05-01T09:19:01Z</time></trkpt><trkpt lat="44.56135991256744" lon="8.242167131462347"><ele>619.0</ele><time>2026-05-01T09:19:02Z</time></trkpt><trkpt lat="44.56121143555915" lon="8.242297230529573"><ele>619.0</ele><time>2026-05-01T09:19:03Z</time></trkpt><trkpt lat="44.56108057402486" lon="8.242420050353665"><ele>619.0</ele><time>2026-05-01T09:19:04Z</time></trkpt><trkpt lat="44.56096309256339" lon="8.242522852884589"><ele>619.0</ele><time>2026-05-01T09:19:05Z</time></trkpt><trkpt lat="44.56087576171089" lon="8.242646347733858"><ele>619.0</ele><time>2026-05-01T09:19:06Z</time></trkpt><trkpt lat="44.560827133498" lon="8.242828753759214"><ele>619.0</ele><time>2026-05-01T09:19:07Z</time></trkpt><trkpt lat="44.5607987620431" lon="8.243058569672062"><ele>619.0</ele><time>2026-05-01T09:19:08Z</time></trkpt><trkpt lat="44.56075635671327" lon="8.243285688529376"><ele>619.0</ele><time>2026-05-01T09:19:09Z</time></trkpt><trkpt lat="44.560657301297894" lon="8.243481384659942"><ele>626.0</ele><time>2026-05-01T09:19:10Z</time></trkpt><trkpt lat="44.560561141495505" lon="8.243680065408569"><ele>633.0</ele><time>2026-05-01T09:19:11Z</time></trkpt><trkpt lat="44.560495115619815" lon="8.243893528818866"><ele>640.0</ele><time>2026-05-01T09:19:12Z</time></trkpt><trkpt lat="44.560444430164786" lon="8.244105921991688"><ele>635.3333333333334</ele><time>2026-05-01T09:19:13Z</time></trkpt><trkpt lat="44.56040233921428" lon="8.244325979779283"><ele>630.6666666666666</ele><time>2026-05-01T09:19:14Z</time></trkpt><trkpt lat="44.560315162909525" lon="8.244490960994785"><ele>626.0</ele><time>2026-05-01T09:19:15Z</time></trkpt><trkpt lat="44.560193751703125" lon="8.244604626836447"><ele>626.0</ele><time>2026-05-01T09:19:16Z</time></trkpt><trkpt lat="44.5600422795711" lon="8.244709624035126"><ele>626.0</ele><time>2026-05-01T09:19:17Z</time></trkpt><trkpt lat="44.559871082764474" lon="8.24482100224587"><ele>626.0</ele><time>2026-05-01T09:19:18Z</time></trkpt><trkpt lat="44.55970132803483" lon="8.244933773030835"><ele>631.0</ele><time>2026-05-01T09:19:19Z</time></trkpt><trkpt lat="44.559539454749704" lon="8.245050976195621"><ele>636.0</ele><time>2026-05-01T09:19:20Z</time></trkpt><trkpt lat="44.55939318034298" lon="8.245167012096323"><ele>641.0</ele><time>2026-05-01T09:19:21Z</time></trkpt><trkpt lat="44.559253898424316" lon="8.245251748439097"><ele>641.0</ele><time>2026-05-01T09:19:22Z</time></trkpt><trkpt lat="44.55912317667328" lon="8.245303585367456"><ele>641.0</ele><time>2026-05-01T09:19:23Z</time></trkpt><trkpt lat="44.559007533688984" lon="8.245358062268947"><ele>641.0</ele><time>2026-05-01T09:19:24Z</time></trkpt><trkpt lat="44.55890833609883" lon="8.245463924026701"><ele>641.0</ele><time>2026-05-01T09:19:25Z</time></trkpt><trkpt lat="44.558832206071486" lon="8.24564130289023"><ele>646.0</ele><time>2026-05-01T09:19:26Z</time></trkpt><trkpt lat="44.55880187439672" lon="8.2458794942099"><ele>651.0</ele><time>2026-05-01T09:19:27Z</time></trkpt><trkpt lat="44.55878959945333" lon="8.246082593309861"><ele>656.0</ele><time>2026-05-01T09:19:28Z</time></trkpt><trkpt lat="44.55880124040916" lon="8.246255695357643"><ele>661.0</ele><time>2026-05-01T09:19:29Z</time></trkpt><trkpt lat="44.55887679214287" lon="8.246401963804006"><ele>659.0</ele><time>2026-05-01T09:19:30Z</time></trkpt><trkpt lat="44.559001873332136" lon="8.2465095295397"><ele>657.0</ele><time>2026-05-01T09:19:31Z</time></trkpt><trkpt lat="44.55915456950344" lon="8.246602514636983"><ele>655.0</ele><time>2026-05-01T09:19:32Z</time></trkpt><trkpt lat="44.55929842837504" lon="8.246723277137429"><ele>655.0</ele><time>2026-05-01T09:19:33Z</time></trkpt><trkpt lat="44.559447947754784" lon="8.24682529222278"><ele>655.0</ele><time>2026-05-01T09:19:34Z</time></trkpt><trkpt lat="44.559602652791426" lon="8.246881290189709"><ele>655.0</ele><time>2026-05-01T09:19:35Z</time></trkpt><trkpt lat="44.55975545851463" lon="8.246915312564157"><ele>660.5</ele><time>2026-05-01T09:19:36Z</time></trkpt><trkpt lat="44.5598990132305" lon="8.246952854484114"><ele>666.0</ele><time>2026-05-01T09:19:37Z</time></trkpt><trkpt lat="44.56002623082688" lon="8.247004440082934"><ele>671.5</ele><time>2026-05-01T09:19:38Z</time></trkpt><trkpt lat="44.5601428897282" lon="8.247097527988817"><ele>677.0</ele><time>2026-05-01T09:19:39Z</time></trkpt><trkpt lat="44.5602680544956" lon="8.247213080096012"><ele>676.5</ele><time>2026-05-01T09:19:40Z</time></trkpt><trkpt lat="44.560388346085404" lon="8.247336232776137"><ele>676.0</ele><time>2026-05-01T09:19:41Z</time></trkpt><trkpt lat="44.56049515558877" lon="8.247466271352899"><ele>675.5</ele><time>2026-05-01T09:19:42Z</time></trkpt><trkpt lat="44.560571280782604" lon="8.247614390669282"><ele>675.0</ele><time>2026-05-01T09:19:43Z</time></trkpt><trkpt lat="44.560608841025235" lon="8.247793728800662"><ele>675.0</ele><time>2026-05-01T09:19:44Z</time></trkpt><trkpt lat="44.56059420141113" lon="8.247990650270541"><ele>675.0</ele><time>2026-05-01T09:19:45Z</time></trkpt><trkpt lat="44.560568958399436" lon="8.248173324851741"><ele>675.0</ele><time>2026-05-01T09:19:46Z</time></trkpt><trkpt lat="44.56058839348407" lon="8.248337116247459"><ele>675.0</ele><time>2026-05-01T09:19:47Z</time></trkpt><trkpt lat="44.56065291872858" lon="8.248486171644684"><ele>671.5</ele><time>2026-05-01T09:19:48Z</time></trkpt><trkpt lat="44.560758019808276" lon="8.248628701405869"><ele>668.0</ele><time>2026-05-01T09:19:49Z</time></trkpt><trkpt lat="44.56086186602625" lon="8.248782185841462"><ele>664.5</ele><time>2026-05-01T09:19:50Z</time></trkpt><trkpt lat="44.56098275621677" lon="8.248909977410708"><ele>661.0</ele><time>2026-05-01T09:19:51Z</time></trkpt><trkpt lat="44.561074198350354" lon="8.24905702058565"><ele>664.0</ele><time>2026-05-01T09:19:52Z</time></trkpt><trkpt lat="44.561153490167" lon="8.24917944805834"><ele>667.0</ele><time>2026-05-01T09:19:53Z</time></trkpt><trkpt lat="44.5611998846041" lon="8.249302567370153"><ele>670.0</ele><time>2026-05-01T09:19:54Z</time></trkpt><trkpt lat="44.56120087287889" lon="8.249427469566076"><ele>673.0</ele><time>2026-05-01T09:19:55Z</time></trkpt><trkpt lat="44.56113246957384" lon="8.249514846304164"><ele>676.0</ele><time>2026-05-01T09:19:56Z</time></trkpt><trkpt lat="44.56105402087012" lon="8.249614558018267"><ele>668.75</ele><time>2026-05-01T09:19:57Z</time></trkpt><trkpt lat="44.56096760110386" lon="8.249745679423105"><ele>661.5</ele><time>2026-05-01T09:19:58Z</time></trkpt><trkpt lat="44.560870594669844" lon="8.249888946836077"><ele>654.25</ele><time>2026-05-01T09:19:59Z</time></trkpt><trkpt lat="44.560769018734575" lon="8.250044958157439"><ele>647.0</ele><time>2026-05-01T09:20:00Z</time></trkpt><trkpt lat="44.56065497043" lon="8.250199605092249"><ele>647.0</ele><time>2026-05-01T09:20:01Z</time></trkpt><trkpt lat="44.56054311230204" lon="8.250369045114946"><ele>647.0</ele><time>2026-05-01T09:20:02Z</time></trkpt><trkpt lat="44.56040251146702" lon="8.250498678790066"><ele>647.0</ele><time>2026-05-01T09:20:03Z</time></trkpt><trkpt lat="44.56027331932369" lon="8.250620839373296"><ele>646.0</ele><time>2026-05-01T09:20:04Z</time></trkpt><trkpt lat="44.56011927390534" lon="8.250690979737799"><ele>645.0</ele><time>2026-05-01T09:20:05Z</time></trkpt><trkpt lat="44.55995851524364" lon="8.250734697982567"><ele>644.0</ele><time>2026-05-01T09:20:06Z</time></trkpt><trkpt lat="44.55979147963326" lon="8.250765696475339"><ele>644.0</ele><time>2026-05-01T09:20:07Z</time></trkpt><trkpt lat="44.559636180273536" lon="8.250798934674997"><ele>644.0</ele><time>2026-05-01T09:20:08Z</time></trkpt><trkpt lat="44.55948667436906" lon="8.250839774161747"><ele>644.0</ele><time>2026-05-01T09:20:09Z</time></trkpt><trkpt lat="44.55934809748873" lon="8.25088980885541"><ele>642.5</ele><time>2026-05-01T09:20:10Z</time></trkpt><trkpt lat="44.55922833228183" lon="8.250969697140219"><ele>641.0</ele><time>2026-05-01T09:20:11Z</time></trkpt><trkpt lat="44.55914272057097" lon="8.251104701043479"><ele>639.5</ele><time>2026-05-01T09:20:11.999Z</time></trkpt><trkpt lat="44.55909231298651" lon="8.251288257183175"><ele>638.0</ele><time>2026-05-01T09:20:12.999Z</time></trkpt><trkpt lat="44.55907941402307" lon="8.251501016001827"><ele>638.0</ele><time>2026-05-01T09:20:13.999Z</time></trkpt><trkpt lat="44.55908208973532" lon="8.25171912806935"><ele>638.0</ele><time>2026-05-01T09:20:14.999Z</time></trkpt><trkpt lat="44.55906771590776" lon="8.251937964154234"><ele>638.0</ele><time>2026-05-01T09:20:15.999Z</time></trkpt><trkpt lat="44.55901460727062" lon="8.2521578407522"><ele>640.0</ele><time>2026-05-01T09:20:16.999Z</time></trkpt><trkpt lat="44.55892405232275" lon="8.252358466929095"><ele>642.0</ele><time>2026-05-01T09:20:17.999Z</time></trkpt><trkpt lat="44.558871852693635" lon="8.252583303547883"><ele>644.0</ele><time>2026-05-01T09:20:18.999Z</time></trkpt><trkpt lat="44.5588097302985" lon="8.252786952788972"><ele>644.0</ele><time>2026-05-01T09:20:19.999Z</time></trkpt><trkpt lat="44.558731686966496" lon="8.252982833469755"><ele>644.0</ele><time>2026-05-01T09:20:20.999Z</time></trkpt><trkpt lat="44.558669341184626" lon="8.253180760684593"><ele>644.0</ele><time>2026-05-01T09:20:21.999Z</time></trkpt><trkpt lat="44.55862199896452" lon="8.253388827485432"><ele>641.0</ele><time>2026-05-01T09:20:22.999Z</time></trkpt><trkpt lat="44.558557533918176" lon="8.253573782101457"><ele>638.0</ele><time>2026-05-01T09:20:23.999Z</time></trkpt><trkpt lat="44.558505699673205" lon="8.253750718558711"><ele>635.0</ele><time>2026-05-01T09:20:24.999Z</time></trkpt><trkpt lat="44.558457124713286" lon="8.253893623862195"><ele>632.0</ele><time>2026-05-01T09:20:25.999Z</time></trkpt><trkpt lat="44.55842403052125" lon="8.254010435553916"><ele>632.0</ele><time>2026-05-01T09:20:26.999Z</time></trkpt><trkpt lat="44.55839330293033" lon="8.254109861644007"><ele>632.0</ele><time>2026-05-01T09:20:27.999Z</time></trkpt><trkpt lat="44.558435549392804" lon="8.254237366452967"><ele>632.0</ele><time>2026-05-01T09:20:28.999Z</time></trkpt><trkpt lat="44.55845715172677" lon="8.254389842679599"><ele>632.0</ele><time>2026-05-01T09:20:30.001Z</time></trkpt><trkpt lat="44.558488163442874" lon="8.254547755875887"><ele>632.0</ele><time>2026-05-01T09:20:31.001Z</time></trkpt><trkpt lat="44.558521302162944" lon="8.25471650002177"><ele>631.0</ele><time>2026-05-01T09:20:32.001Z</time></trkpt><trkpt lat="44.55855398518611" lon="8.25488766020758"><ele>630.0</ele><time>2026-05-01T09:20:33.001Z</time></trkpt><trkpt lat="44.558585071355026" lon="8.255051434715787"><ele>629.0</ele><time>2026-05-01T09:20:34.001Z</time></trkpt><trkpt lat="44.558603634183214" lon="8.255207386567667"><ele>628.0</ele><time>2026-05-01T09:20:35.001Z</time></trkpt><trkpt lat="44.55858875000008" lon="8.255354152853078"><ele>628.0</ele><time>2026-05-01T09:20:36.001Z</time></trkpt><trkpt lat="44.558537111731916" lon="8.25548198244318"><ele>628.0</ele><time>2026-05-01T09:20:37.001Z</time></trkpt><trkpt lat="44.55851533568994" lon="8.255608978556563"><ele>628.0</ele><time>2026-05-01T09:20:38.001Z</time></trkpt><trkpt lat="44.55851025620073" lon="8.255733964801017"><ele>628.0</ele><time>2026-05-01T09:20:39.001Z</time></trkpt><trkpt lat="44.55853878093035" lon="8.255876385919795"><ele>628.0</ele><time>2026-05-01T09:20:40.001Z</time></trkpt><trkpt lat="44.55858709976741" lon="8.256020694612353"><ele>627.5</ele><time>2026-05-01T09:20:41Z</time></trkpt><trkpt lat="44.558641132343084" lon="8.256168494310433"><ele>627.0</ele><time>2026-05-01T09:20:42.001Z</time></trkpt><trkpt lat="44.558679535587686" lon="8.256321405927434"><ele>626.5</ele><time>2026-05-01T09:20:43.001Z</time></trkpt><trkpt lat="44.558680798925835" lon="8.256483081712942"><ele>626.0</ele><time>2026-05-01T09:20:44Z</time></trkpt><trkpt lat="44.558632819969745" lon="8.25662606712811"><ele>626.0</ele><time>2026-05-01T09:20:45Z</time></trkpt><trkpt lat="44.558522464776956" lon="8.25670553312148"><ele>626.0</ele><time>2026-05-01T09:20:46Z</time></trkpt><trkpt lat="44.55841519660245" lon="8.256803125110698"><ele>626.0</ele><time>2026-05-01T09:20:47Z</time></trkpt><trkpt lat="44.55831161502019" lon="8.256914465354162"><ele>626.0</ele><time>2026-05-01T09:20:48Z</time></trkpt><trkpt lat="44.55820940246761" lon="8.257000332522459"><ele>626.0</ele><time>2026-05-01T09:20:49Z</time></trkpt><trkpt lat="44.55812806098429" lon="8.257109645853824"><ele>626.0</ele><time>2026-05-01T09:20:50Z</time></trkpt><trkpt lat="44.558072191187975" lon="8.257267039028433"><ele>626.0</ele><time>2026-05-01T09:20:51Z</time></trkpt><trkpt lat="44.558054609905945" lon="8.257470843042178"><ele>626.0</ele><time>2026-05-01T09:20:52Z</time></trkpt><trkpt lat="44.55804353060842" lon="8.257674862215556"><ele>629.5</ele><time>2026-05-01T09:20:53Z</time></trkpt><trkpt lat="44.55801057676117" lon="8.257862048624606"><ele>633.0</ele><time>2026-05-01T09:20:54Z</time></trkpt><trkpt lat="44.55799490697899" lon="8.258044763695416"><ele>636.5</ele><time>2026-05-01T09:20:55Z</time></trkpt><trkpt lat="44.5580040014468" lon="8.258231815394568"><ele>640.0</ele><time>2026-05-01T09:20:56Z</time></trkpt><trkpt lat="44.55802046471539" lon="8.258422243851625"><ele>640.5</ele><time>2026-05-01T09:20:57Z</time></trkpt><trkpt lat="44.558032555924186" lon="8.258607993041082"><ele>641.0</ele><time>2026-05-01T09:20:58Z</time></trkpt><trkpt lat="44.558055051987346" lon="8.258780902355204"><ele>641.5</ele><time>2026-05-01T09:20:59Z</time></trkpt><trkpt lat="44.558061053438905" lon="8.258941932114022"><ele>642.0</ele><time>2026-05-01T09:21:00Z</time></trkpt><trkpt lat="44.55804222497435" lon="8.259094850177167"><ele>642.0</ele><time>2026-05-01T09:21:01Z</time></trkpt><trkpt lat="44.5579945060177" lon="8.259223254599991"><ele>642.0</ele><time>2026-05-01T09:21:02Z</time></trkpt><trkpt lat="44.55793375113592" lon="8.259324985249656"><ele>642.0</ele><time>2026-05-01T09:21:03Z</time></trkpt><trkpt lat="44.557826976439344" lon="8.25932488085104"><ele>642.0</ele><time>2026-05-01T09:21:04Z</time></trkpt><trkpt lat="44.55773363021814" lon="8.259215030486187"><ele>642.0</ele><time>2026-05-01T09:21:05Z</time></trkpt><trkpt lat="44.55762969322573" lon="8.25911023970894"><ele>639.5</ele><time>2026-05-01T09:21:06Z</time></trkpt><trkpt lat="44.5575239974843" lon="8.258985937951548"><ele>637.0</ele><time>2026-05-01T09:21:07Z</time></trkpt><trkpt lat="44.55740236485793" lon="8.258867778733485"><ele>634.5</ele><time>2026-05-01T09:21:08Z</time></trkpt><trkpt lat="44.55727402206062" lon="8.25875985708028"><ele>632.0</ele><time>2026-05-01T09:21:09Z</time></trkpt><trkpt lat="44.55715253289158" lon="8.25865839919888"><ele>627.5</ele><time>2026-05-01T09:21:10Z</time></trkpt><trkpt lat="44.55703580463438" lon="8.258558152972208"><ele>623.0</ele><time>2026-05-01T09:21:11Z</time></trkpt><trkpt lat="44.55691913864376" lon="8.25846137732485"><ele>618.5</ele><time>2026-05-01T09:21:12Z</time></trkpt><trkpt lat="44.55680698665123" lon="8.258372837569286"><ele>614.0</ele><time>2026-05-01T09:21:13Z</time></trkpt><trkpt lat="44.55669980798204" lon="8.25828575725734"><ele>614.0</ele><time>2026-05-01T09:21:14Z</time></trkpt><trkpt lat="44.55659677390743" lon="8.258205660631294"><ele>614.0</ele><time>2026-05-01T09:21:15Z</time></trkpt><trkpt lat="44.556488772165984" lon="8.258158028394394"><ele>614.0</ele><time>2026-05-01T09:21:16Z</time></trkpt><trkpt lat="44.556360862056714" lon="8.258146489469567"><ele>614.0</ele><time>2026-05-01T09:21:17Z</time></trkpt><trkpt lat="44.55622211839434" lon="8.258171709461623"><ele>616.0</ele><time>2026-05-01T09:21:18Z</time></trkpt><trkpt lat="44.55607888629944" lon="8.258200472365278"><ele>618.0</ele><time>2026-05-01T09:21:19Z</time></trkpt><trkpt lat="44.55593705725531" lon="8.258220770616472"><ele>620.0</ele><time>2026-05-01T09:21:20Z</time></trkpt><trkpt lat="44.55580474108342" lon="8.258236932356802"><ele>622.0</ele><time>2026-05-01T09:21:21Z</time></trkpt><trkpt lat="44.555676498521166" lon="8.258250136511899"><ele>622.0</ele><time>2026-05-01T09:21:22Z</time></trkpt><trkpt lat="44.55554720739579" lon="8.25825769066729"><ele>622.0</ele><time>2026-05-01T09:21:23Z</time></trkpt><trkpt lat="44.555417349618054" lon="8.258249481079721"><ele>622.0</ele><time>2026-05-01T09:21:24Z</time></trkpt><trkpt lat="44.55528898216966" lon="8.258220562813856"><ele>622.0</ele><time>2026-05-01T09:21:25Z</time></trkpt><trkpt lat="44.55516582819103" lon="8.258178370501614"><ele>612.25</ele><time>2026-05-01T09:21:26Z</time></trkpt><trkpt lat="44.55505822899664" lon="8.258107247286844"><ele>602.5</ele><time>2026-05-01T09:21:27Z</time></trkpt><trkpt lat="44.55495332641501" lon="8.25804625018189"><ele>592.75</ele><time>2026-05-01T09:21:28Z</time></trkpt><trkpt lat="44.5548480392487" lon="8.257985260910663"><ele>583.0</ele><time>2026-05-01T09:21:29Z</time></trkpt><trkpt lat="44.55473230689478" lon="8.257956596739605"><ele>583.0</ele><time>2026-05-01T09:21:30Z</time></trkpt><trkpt lat="44.554624254700165" lon="8.257895501195927"><ele>583.0</ele><time>2026-05-01T09:21:31Z</time></trkpt><trkpt lat="44.55450723940894" lon="8.257868223308893"><ele>583.0</ele><time>2026-05-01T09:21:32Z</time></trkpt><trkpt lat="44.554393341780674" lon="8.257885171695722"><ele>583.0</ele><time>2026-05-01T09:21:33Z</time></trkpt><trkpt lat="44.554290451575895" lon="8.257926586507013"><ele>583.4</ele><time>2026-05-01T09:21:34Z</time></trkpt><trkpt lat="44.55421132679443" lon="8.258001520216954"><ele>583.8</ele><time>2026-05-01T09:21:35Z</time></trkpt><trkpt lat="44.55414970660109" lon="8.258118132563352"><ele>584.2</ele><time>2026-05-01T09:21:36Z</time></trkpt><trkpt lat="44.55411408309031" lon="8.258266005057704"><ele>584.6</ele><time>2026-05-01T09:21:37Z</time></trkpt><trkpt lat="44.5540745064991" lon="8.258435271289523"><ele>585.0</ele><time>2026-05-01T09:21:38Z</time></trkpt><trkpt lat="44.55406476537076" lon="8.258620625198366"><ele>588.8</ele><time>2026-05-01T09:21:39Z</time></trkpt><trkpt lat="44.554063953837215" lon="8.258792311527575"><ele>592.6</ele><time>2026-05-01T09:21:40Z</time></trkpt><trkpt lat="44.55406288492179" lon="8.258958696029548"><ele>596.4</ele><time>2026-05-01T09:21:41Z</time></trkpt><trkpt lat="44.55406191196484" lon="8.25911014425848"><ele>600.2</ele><time>2026-05-01T09:21:42Z</time></trkpt><trkpt lat="44.55406005384228" lon="8.259237929701953"><ele>604.0</ele><time>2026-05-01T09:21:43Z</time></trkpt><trkpt lat="44.55404326952983" lon="8.259361130423109"><ele>604.5</ele><time>2026-05-01T09:21:44Z</time></trkpt><trkpt lat="44.55400617072409" lon="8.259479605979418"><ele>605.0</ele><time>2026-05-01T09:21:45Z</time></trkpt><trkpt lat="44.553961119055856" lon="8.25958652055531"><ele>605.5</ele><time>2026-05-01T09:21:46Z</time></trkpt><trkpt lat="44.5539170882255" lon="8.25968764568538"><ele>606.0</ele><time>2026-05-01T09:21:47Z</time></trkpt><trkpt lat="44.5538911756342" lon="8.259810168491539"><ele>606.5</ele><time>2026-05-01T09:21:48Z</time></trkpt><trkpt lat="44.55392620599613" lon="8.259929841391676"><ele>607.0</ele><time>2026-05-01T09:21:49Z</time></trkpt><trkpt lat="44.553957116038134" lon="8.260052671427326"><ele>605.8000000000001</ele><time>2026-05-01T09:21:50Z</time></trkpt><trkpt lat="44.553999266238755" lon="8.260169776486817"><ele>604.6</ele><time>2026-05-01T09:21:51Z</time></trkpt><trkpt lat="44.55406746921785" lon="8.260250171409702"><ele>603.4000000000001</ele><time>2026-05-01T09:21:52Z</time></trkpt><trkpt lat="44.55416325391924" lon="8.26034116411669"><ele>602.2</ele><time>2026-05-01T09:21:53Z</time></trkpt><trkpt lat="44.55427456821334" lon="8.260405132224001"><ele>601.0</ele><time>2026-05-01T09:21:54Z</time></trkpt><trkpt lat="44.55437802197283" lon="8.260485526911502"><ele>601.0</ele><time>2026-05-01T09:21:55Z</time></trkpt><trkpt lat="44.5544802212679" lon="8.260576818821919"><ele>601.0</ele><time>2026-05-01T09:21:56Z</time></trkpt><trkpt lat="44.554575102444524" lon="8.260699278288289"><ele>601.0</ele><time>2026-05-01T09:21:57Z</time></trkpt><trkpt lat="44.55465916079982" lon="8.260852321865386"><ele>601.0</ele><time>2026-05-01T09:21:58Z</time></trkpt><trkpt lat="44.55472539407679" lon="8.261031201323561"><ele>605.25</ele><time>2026-05-01T09:21:59Z</time></trkpt><trkpt lat="44.55474453016929" lon="8.26120434537601"><ele>609.5</ele><time>2026-05-01T09:22:00Z</time></trkpt><trkpt lat="44.5547645983606" lon="8.26140207661082"><ele>613.75</ele><time>2026-05-01T09:22:01Z</time></trkpt><trkpt lat="44.55479033003501" lon="8.261580847058818"><ele>618.0</ele><time>2026-05-01T09:22:02Z</time></trkpt><trkpt lat="44.554785491233744" lon="8.26174594005229"><ele>618.0</ele><time>2026-05-01T09:22:03Z</time></trkpt><trkpt lat="44.554791458547164" lon="8.261897689794928"><ele>618.0</ele><time>2026-05-01T09:22:04Z</time></trkpt><trkpt lat="44.554772366021986" lon="8.262043204440477"><ele>618.0</ele><time>2026-05-01T09:22:05Z</time></trkpt><trkpt lat="44.55470419267197" lon="8.262156997070875"><ele>618.0</ele><time>2026-05-01T09:22:06Z</time></trkpt><trkpt lat="44.55460166588158" lon="8.262197376319214"><ele>618.0</ele><time>2026-05-01T09:22:07Z</time></trkpt><trkpt lat="44.55447478353723" lon="8.26224993536304"><ele>614.6666666666666</ele><time>2026-05-01T09:22:08Z</time></trkpt><trkpt lat="44.554335397602856" lon="8.262295738445887"><ele>611.3333333333333</ele><time>2026-05-01T09:22:09Z</time></trkpt><trkpt lat="44.5541918667324" lon="8.262373434959498"><ele>608.0</ele><time>2026-05-01T09:22:10Z</time></trkpt><trkpt lat="44.55404548251244" lon="8.262446374229851"><ele>608.0</ele><time>2026-05-01T09:22:11Z</time></trkpt><trkpt lat="44.55390621126373" lon="8.26254477772507"><ele>608.0</ele><time>2026-05-01T09:22:12Z</time></trkpt><trkpt lat="44.553774167405166" lon="8.26263617569232"><ele>608.0</ele><time>2026-05-01T09:22:13Z</time></trkpt><trkpt lat="44.55363184255157" lon="8.26268337803283"><ele>608.0</ele><time>2026-05-01T09:22:14Z</time></trkpt><trkpt lat="44.553491390210866" lon="8.262703191273683"><ele>606.75</ele><time>2026-05-01T09:22:15Z</time></trkpt><trkpt lat="44.55335841742383" lon="8.262715476702317"><ele>605.5</ele><time>2026-05-01T09:22:16Z</time></trkpt><trkpt lat="44.55322673070135" lon="8.262775367142183"><ele>604.25</ele><time>2026-05-01T09:22:17Z</time></trkpt><trkpt lat="44.55309536528377" lon="8.262883340529285"><ele>603.0</ele><time>2026-05-01T09:22:18Z</time></trkpt><trkpt lat="44.552958012697076" lon="8.26302017775051"><ele>605.3333333333334</ele><time>2026-05-01T09:22:19Z</time></trkpt><trkpt lat="44.55281288357236" lon="8.263150388655033"><ele>607.6666666666667</ele><time>2026-05-01T09:22:19.999Z</time></trkpt><trkpt lat="44.552658942592075" lon="8.263265764361332"><ele>610.0</ele><time>2026-05-01T09:22:20.999Z</time></trkpt><trkpt lat="44.55250195110542" lon="8.263376547844473"><ele>610.0</ele><time>2026-05-01T09:22:21.999Z</time></trkpt><trkpt lat="44.55234293617776" lon="8.263476888904805"><ele>610.0</ele><time>2026-05-01T09:22:22.999Z</time></trkpt><trkpt lat="44.55218240797484" lon="8.263565349260146"><ele>610.0</ele><time>2026-05-01T09:22:23.999Z</time></trkpt><trkpt lat="44.55202092091762" lon="8.263643820039992"><ele>606.6666666666667</ele><time>2026-05-01T09:22:24.999Z</time></trkpt><trkpt lat="44.5518595226082" lon="8.263725700277119"><ele>603.3333333333334</ele><time>2026-05-01T09:22:25.999Z</time></trkpt><trkpt lat="44.551700616435696" lon="8.263809879981753"><ele>600.0</ele><time>2026-05-01T09:22:26.999Z</time></trkpt><trkpt lat="44.551545353853044" lon="8.263898475863167"><ele>605.6666666666666</ele><time>2026-05-01T09:22:27.999Z</time></trkpt><trkpt lat="44.55139902007257" lon="8.263978336611748"><ele>611.3333333333333</ele><time>2026-05-01T09:22:28.999Z</time></trkpt><trkpt lat="44.55125074441608" lon="8.264033874480791"><ele>617.0</ele><time>2026-05-01T09:22:29.999Z</time></trkpt><trkpt lat="44.55108898389371" lon="8.264035668035206"><ele>617.0</ele><time>2026-05-01T09:22:30.999Z</time></trkpt><trkpt lat="44.55092054662757" lon="8.264014956282518"><ele>617.0</ele><time>2026-05-01T09:22:31.999Z</time></trkpt><trkpt lat="44.550752902968036" lon="8.263988482022752"><ele>617.0</ele><time>2026-05-01T09:22:32.999Z</time></trkpt><trkpt lat="44.55058708362466" lon="8.2639709691819"><ele>617.0</ele><time>2026-05-01T09:22:33.999Z</time></trkpt><trkpt lat="44.55042773558503" lon="8.263956769727356"><ele>617.0</ele><time>2026-05-01T09:22:34.999Z</time></trkpt><trkpt lat="44.55026794850148" lon="8.263948112677495"><ele>617.0</ele><time>2026-05-01T09:22:36.001Z</time></trkpt><trkpt lat="44.55011427137295" lon="8.263940953808149"><ele>612.5</ele><time>2026-05-01T09:22:37.001Z</time></trkpt><trkpt lat="44.54996242045246" lon="8.263932827995067"><ele>608.0</ele><time>2026-05-01T09:22:38.001Z</time></trkpt><trkpt lat="44.54981749246715" lon="8.263900192793844"><ele>603.5</ele><time>2026-05-01T09:22:39.001Z</time></trkpt><trkpt lat="44.549677962338855" lon="8.263835642408113"><ele>599.0</ele><time>2026-05-01T09:22:40.001Z</time></trkpt><trkpt lat="44.54954218050859" lon="8.263740004819422"><ele>600.75</ele><time>2026-05-01T09:22:41.001Z</time></trkpt><trkpt lat="44.54942094659664" lon="8.263652461301362"><ele>602.5</ele><time>2026-05-01T09:22:42.001Z</time></trkpt><trkpt lat="44.54930624970763" lon="8.263588996234338"><ele>604.25</ele><time>2026-05-01T09:22:43.001Z</time></trkpt><trkpt lat="44.5491827680411" lon="8.263577613760475"><ele>606.0</ele><time>2026-05-01T09:22:44.001Z</time></trkpt><trkpt lat="44.54905431184596" lon="8.263614172573652"><ele>606.0</ele><time>2026-05-01T09:22:45.001Z</time></trkpt><trkpt lat="44.54893387583787" lon="8.263697804661556"><ele>606.0</ele><time>2026-05-01T09:22:46.001Z</time></trkpt><trkpt lat="44.54881329147892" lon="8.263816189164185"><ele>606.0</ele><time>2026-05-01T09:22:47.001Z</time></trkpt><trkpt lat="44.548711551238604" lon="8.263954257273946"><ele>606.0</ele><time>2026-05-01T09:22:48.001Z</time></trkpt><trkpt lat="44.548632239537646" lon="8.264130269934126"><ele>611.0</ele><time>2026-05-01T09:22:49.001Z</time></trkpt><trkpt lat="44.54856002577314" lon="8.264333115034834"><ele>616.0</ele><time>2026-05-01T09:22:50.001Z</time></trkpt><trkpt lat="44.548453934872164" lon="8.264503871930676"><ele>621.0</ele><time>2026-05-01T09:22:51.001Z</time></trkpt><trkpt lat="44.548328193256964" lon="8.264646263171064"><ele>625.0</ele><time>2026-05-01T09:22:52Z</time></trkpt><trkpt lat="44.54818590419395" lon="8.264794063751511"><ele>629.0</ele><time>2026-05-01T09:22:53Z</time></trkpt><trkpt lat="44.548035397759996" lon="8.264927938137673"><ele>633.0</ele><time>2026-05-01T09:22:54Z</time></trkpt><trkpt lat="44.54789073656954" lon="8.265072703843849"><ele>629.3333333333334</ele><time>2026-05-01T09:22:55Z</time></trkpt><trkpt lat="44.547747931937856" lon="8.265225501024116"><ele>625.6666666666667</ele><time>2026-05-01T09:22:56Z</time></trkpt><trkpt lat="44.5476090179453" lon="8.26537247320051"><ele>622.0</ele><time>2026-05-01T09:22:57Z</time></trkpt><trkpt lat="44.54747768925502" lon="8.265503960282132"><ele>625.3333333333334</ele><time>2026-05-01T09:22:58Z</time></trkpt><trkpt lat="44.547349001638" lon="8.26562984100428"><ele>628.6666666666666</ele><time>2026-05-01T09:22:59Z</time></trkpt><trkpt lat="44.54721969234222" lon="8.265749012954732"><ele>632.0</ele><time>2026-05-01T09:23:00Z</time></trkpt><trkpt lat="44.54707254100483" lon="8.265828107505126"><ele>631.3333333333333</ele><time>2026-05-01T09:23:01Z</time></trkpt><trkpt lat="44.54690963773324" lon="8.265836995582246"><ele>630.6666666666666</ele><time>2026-05-01T09:23:02Z</time></trkpt><trkpt lat="44.546741103650064" lon="8.26579371766468"><ele>630.0</ele><time>2026-05-01T09:23:03Z</time></trkpt><trkpt lat="44.546561265866956" lon="8.265731557375526"><ele>630.0</ele><time>2026-05-01T09:23:04Z</time></trkpt><trkpt lat="44.54638034611333" lon="8.265673071000768"><ele>630.0</ele><time>2026-05-01T09:23:05Z</time></trkpt><trkpt lat="44.54620035227765" lon="8.265624074185535"><ele>630.0</ele><time>2026-05-01T09:23:06Z</time></trkpt><trkpt lat="44.54602264563992" lon="8.26558371318539"><ele>630.3333333333334</ele><time>2026-05-01T09:23:07Z</time></trkpt><trkpt lat="44.54586166646742" lon="8.265544619628871"><ele>630.6666666666667</ele><time>2026-05-01T09:23:08Z</time></trkpt><trkpt lat="44.54571487966259" lon="8.265506266438406"><ele>631.0</ele><time>2026-05-01T09:23:09Z</time></trkpt><trkpt lat="44.54557952373587" lon="8.265477620564464"><ele>631.0</ele><time>2026-05-01T09:23:10Z</time></trkpt><trkpt lat="44.54543850390803" lon="8.265481234450933"><ele>631.0</ele><time>2026-05-01T09:23:11Z</time></trkpt><trkpt lat="44.545291261540555" lon="8.26554003666279"><ele>631.0</ele><time>2026-05-01T09:23:12Z</time></trkpt><trkpt lat="44.54514169532378" lon="8.265635741280292"><ele>633.25</ele><time>2026-05-01T09:23:13Z</time></trkpt><trkpt lat="44.545004205181996" lon="8.265728763837874"><ele>635.5</ele><time>2026-05-01T09:23:14Z</time></trkpt><trkpt lat="44.54488219528529" lon="8.265804582113049"><ele>637.75</ele><time>2026-05-01T09:23:15Z</time></trkpt><trkpt lat="44.544770289976974" lon="8.26587955426056"><ele>640.0</ele><time>2026-05-01T09:23:16Z</time></trkpt><trkpt lat="44.54468151130041" lon="8.265965348083352"><ele>640.0</ele><time>2026-05-01T09:23:17Z</time></trkpt><trkpt lat="44.54462128348784" lon="8.266083806421491"><ele>640.0</ele><time>2026-05-01T09:23:18Z</time></trkpt><trkpt lat="44.54458901503569" lon="8.266240489738827"><ele>640.0</ele><time>2026-05-01T09:23:19Z</time></trkpt><trkpt lat="44.544568584756085" lon="8.266414727291833"><ele>640.0</ele><time>2026-05-01T09:23:20Z</time></trkpt><trkpt lat="44.54452761684461" lon="8.266588361784923"><ele>636.75</ele><time>2026-05-01T09:23:21Z</time></trkpt><trkpt lat="44.54451478467857" lon="8.266769254630626"><ele>633.5</ele><time>2026-05-01T09:23:22Z</time></trkpt><trkpt lat="44.54448701913818" lon="8.266947725017088"><ele>630.25</ele><time>2026-05-01T09:23:23Z</time></trkpt><trkpt lat="44.54445817927116" lon="8.267119401185262"><ele>627.0</ele><time>2026-05-01T09:23:24Z</time></trkpt><trkpt lat="44.54442172078751" lon="8.267279056576895"><ele>626.0</ele><time>2026-05-01T09:23:25Z</time></trkpt><trkpt lat="44.54441716793738" lon="8.267440399041508"><ele>625.0</ele><time>2026-05-01T09:23:26Z</time></trkpt><trkpt lat="44.544416085763636" lon="8.26760416256942"><ele>624.0</ele><time>2026-05-01T09:23:27Z</time></trkpt><trkpt lat="44.544434371566815" lon="8.267784298691033"><ele>623.0</ele><time>2026-05-01T09:23:28Z</time></trkpt><trkpt lat="44.5444408223916" lon="8.267977255285185"><ele>624.25</ele><time>2026-05-01T09:23:29Z</time></trkpt><trkpt lat="44.54447461046496" lon="8.268176634415505"><ele>625.5</ele><time>2026-05-01T09:23:30Z</time></trkpt><trkpt lat="44.544455776871544" lon="8.26836761435017"><ele>626.75</ele><time>2026-05-01T09:23:31Z</time></trkpt><trkpt lat="44.54442389519692" lon="8.26855296344029"><ele>628.0</ele><time>2026-05-01T09:23:32Z</time></trkpt><trkpt lat="44.54437150185724" lon="8.268727724915108"><ele>628.0</ele><time>2026-05-01T09:23:33Z</time></trkpt><trkpt lat="44.54431153499365" lon="8.268892044480918"><ele>628.0</ele><time>2026-05-01T09:23:34Z</time></trkpt><trkpt lat="44.54419803307648" lon="8.268991100186454"><ele>628.0</ele><time>2026-05-01T09:23:35Z</time></trkpt><trkpt lat="44.54408575952662" lon="8.269091431004803"><ele>628.0</ele><time>2026-05-01T09:23:36Z</time></trkpt><trkpt lat="44.54398858727229" lon="8.26921489677792"><ele>624.5</ele><time>2026-05-01T09:23:37Z</time></trkpt><trkpt lat="44.54392377892344" lon="8.269383558893443"><ele>621.0</ele><time>2026-05-01T09:23:38Z</time></trkpt><trkpt lat="44.543871793506206" lon="8.269585534839125"><ele>617.5</ele><time>2026-05-01T09:23:39Z</time></trkpt><trkpt lat="44.54377526597124" lon="8.269749344717585"><ele>614.0</ele><time>2026-05-01T09:23:40Z</time></trkpt><trkpt lat="44.543696119670386" lon="8.269921846131362"><ele>614.0</ele><time>2026-05-01T09:23:41Z</time></trkpt><trkpt lat="44.54362645496108" lon="8.270098044749522"><ele>614.0</ele><time>2026-05-01T09:23:42Z</time></trkpt><trkpt lat="44.54353432152543" lon="8.270249933345928"><ele>614.0</ele><time>2026-05-01T09:23:43Z</time></trkpt><trkpt lat="44.54342800579839" lon="8.27037966350641"><ele>614.0</ele><time>2026-05-01T09:23:44Z</time></trkpt><trkpt lat="44.54333509497259" lon="8.270520953998275"><ele>616.0</ele><time>2026-05-01T09:23:45Z</time></trkpt><trkpt lat="44.543271499736086" lon="8.270709122841046"><ele>618.0</ele><time>2026-05-01T09:23:46Z</time></trkpt><trkpt lat="44.54324165431337" lon="8.270922893154626"><ele>620.0</ele><time>2026-05-01T09:23:47Z</time></trkpt><trkpt lat="44.54322896974252" lon="8.27112379782913"><ele>622.0</ele><time>2026-05-01T09:23:48Z</time></trkpt><trkpt lat="44.5432360393515" lon="8.271293205168924"><ele>622.0</ele><time>2026-05-01T09:23:49Z</time></trkpt><trkpt lat="44.5432774847905" lon="8.271423645302129"><ele>622.0</ele><time>2026-05-01T09:23:50Z</time></trkpt><trkpt lat="44.543403183811186" lon="8.271463921259876"><ele>622.0</ele><time>2026-05-01T09:23:51Z</time></trkpt><trkpt lat="44.54352638894371" lon="8.271458481652687"><ele>622.0</ele><time>2026-05-01T09:23:52Z</time></trkpt><trkpt lat="44.543660616752256" lon="8.271424111953984"><ele>621.5</ele><time>2026-05-01T09:23:53Z</time></trkpt><trkpt lat="44.543796369605225" lon="8.271405729863675"><ele>621.0</ele><time>2026-05-01T09:23:54Z</time></trkpt><trkpt lat="44.54394175280541" lon="8.27140923439214"><ele>620.5</ele><time>2026-05-01T09:23:55Z</time></trkpt><trkpt lat="44.54408920145027" lon="8.27145788424519"><ele>620.0</ele><time>2026-05-01T09:23:56Z</time></trkpt><trkpt lat="44.5442454115479" lon="8.271477807631255"><ele>620.0</ele><time>2026-05-01T09:23:57Z</time></trkpt><trkpt lat="44.54440040822251" lon="8.27150747058338"><ele>620.0</ele><time>2026-05-01T09:23:58Z</time></trkpt><trkpt lat="44.54455824629501" lon="8.271529129545817"><ele>620.0</ele><time>2026-05-01T09:23:59Z</time></trkpt><trkpt lat="44.54471159512013" lon="8.271560837434967"><ele>621.5</ele><time>2026-05-01T09:24:00Z</time></trkpt><trkpt lat="44.54485732686628" lon="8.27160992560196"><ele>623.0</ele><time>2026-05-01T09:24:01Z</time></trkpt><trkpt lat="44.54500034688524" lon="8.271662155693473"><ele>624.5</ele><time>2026-05-01T09:24:02Z</time></trkpt><trkpt lat="44.54514091022926" lon="8.271717270919481"><ele>626.0</ele><time>2026-05-01T09:24:03Z</time></trkpt><trkpt lat="44.54527434677441" lon="8.271788545623295"><ele>626.0</ele><time>2026-05-01T09:24:04Z</time></trkpt><trkpt lat="44.54537784186527" lon="8.271933071814983"><ele>626.0</ele><time>2026-05-01T09:24:05Z</time></trkpt><trkpt lat="44.545491133930696" lon="8.272046278898966"><ele>626.0</ele><time>2026-05-01T09:24:06Z</time></trkpt><trkpt lat="44.545598652373506" lon="8.272157764600287"><ele>626.0</ele><time>2026-05-01T09:24:07Z</time></trkpt><trkpt lat="44.54568894120784" lon="8.272271339255195"><ele>625.75</ele><time>2026-05-01T09:24:08Z</time></trkpt><trkpt lat="44.545753502706546" lon="8.272410580635912"><ele>625.5</ele><time>2026-05-01T09:24:09Z</time></trkpt><trkpt lat="44.54576208100287" lon="8.27257970330413"><ele>625.25</ele><time>2026-05-01T09:24:10Z</time></trkpt><trkpt lat="44.545788489662094" lon="8.272748247814764"><ele>625.0</ele><time>2026-05-01T09:24:11Z</time></trkpt><trkpt lat="44.54580159459374" lon="8.272910748881513"><ele>625.0</ele><time>2026-05-01T09:24:12Z</time></trkpt><trkpt lat="44.54586527896689" lon="8.27305854625184"><ele>625.0</ele><time>2026-05-01T09:24:13Z</time></trkpt><trkpt lat="44.54596373480042" lon="8.27318741542016"><ele>625.0</ele><time>2026-05-01T09:24:14Z</time></trkpt><trkpt lat="44.546062743252584" lon="8.27330505607754"><ele>625.0</ele><time>2026-05-01T09:24:15Z</time></trkpt><trkpt lat="44.54615726378317" lon="8.273418569599283"><ele>624.5</ele><time>2026-05-01T09:24:16Z</time></trkpt><trkpt lat="44.54625191870444" lon="8.273531077485972"><ele>624.0</ele><time>2026-05-01T09:24:17Z</time></trkpt><trkpt lat="44.5463329208803" lon="8.273669747137898"><ele>623.5</ele><time>2026-05-01T09:24:18Z</time></trkpt><trkpt lat="44.5463779966541" lon="8.273854219841414"><ele>623.0</ele><time>2026-05-01T09:24:19Z</time></trkpt><trkpt lat="44.54638650790449" lon="8.274055375047821"><ele>623.0</ele><time>2026-05-01T09:24:20Z</time></trkpt><trkpt lat="44.54643223184577" lon="8.274232655733888"><ele>623.0</ele><time>2026-05-01T09:24:21Z</time></trkpt><trkpt lat="44.54646330392628" lon="8.274413837098646"><ele>623.0</ele><time>2026-05-01T09:24:22Z</time></trkpt><trkpt lat="44.54649217710872" lon="8.274593449587488"><ele>623.0</ele><time>2026-05-01T09:24:22.999Z</time></trkpt><trkpt lat="44.54653311955882" lon="8.274766675679318"><ele>619.25</ele><time>2026-05-01T09:24:23.999Z</time></trkpt><trkpt lat="44.54660830463913" lon="8.274915391153293"><ele>615.5</ele><time>2026-05-01T09:24:24.999Z</time></trkpt><trkpt lat="44.54671495640418" lon="8.275026208776628"><ele>611.75</ele><time>2026-05-01T09:24:25.999Z</time></trkpt><trkpt lat="44.54681022991343" lon="8.275143498450005"><ele>608.0</ele><time>2026-05-01T09:24:26.999Z</time></trkpt><trkpt lat="44.54689236835032" lon="8.275274031720114"><ele>608.0</ele><time>2026-05-01T09:24:27.999Z</time></trkpt><trkpt lat="44.54689618669565" lon="8.275464107497495"><ele>608.0</ele><time>2026-05-01T09:24:28.999Z</time></trkpt><trkpt lat="44.54692688203779" lon="8.275656123880408"><ele>608.0</ele><time>2026-05-01T09:24:29.999Z</time></trkpt><trkpt lat="44.54695433933498" lon="8.275843696700345"><ele>608.0</ele><time>2026-05-01T09:24:30.999Z</time></trkpt><trkpt lat="44.54697082678306" lon="8.276031677077205"><ele>604.25</ele><time>2026-05-01T09:24:31.999Z</time></trkpt><trkpt lat="44.54696978608028" lon="8.276225801162793"><ele>600.5</ele><time>2026-05-01T09:24:32.999Z</time></trkpt><trkpt lat="44.5469726030717" lon="8.276425260803366"><ele>596.75</ele><time>2026-05-01T09:24:33.999Z</time></trkpt><trkpt lat="44.546963539472614" lon="8.27662591802171"><ele>593.0</ele><time>2026-05-01T09:24:34.999Z</time></trkpt><trkpt lat="44.5469337423535" lon="8.276818946418013"><ele>591.25</ele><time>2026-05-01T09:24:35.999Z</time></trkpt><trkpt lat="44.54688361245175" lon="8.277010128260061"><ele>589.5</ele><time>2026-05-01T09:24:36.999Z</time></trkpt><trkpt lat="44.54683579403754" lon="8.277202121650824"><ele>587.75</ele><time>2026-05-01T09:24:37.999Z</time></trkpt><trkpt lat="44.546795299981454" lon="8.277396299064847"><ele>586.0</ele><time>2026-05-01T09:24:38.999Z</time></trkpt><trkpt lat="44.54675881356678" lon="8.277589679506166"><ele>586.0</ele><time>2026-05-01T09:24:39.999Z</time></trkpt><trkpt lat="44.546722061338635" lon="8.277783153223254"><ele>586.0</ele><time>2026-05-01T09:24:40.999Z</time></trkpt><trkpt lat="44.5466780428646" lon="8.277978118638774"><ele>586.0</ele><time>2026-05-01T09:24:42.001Z</time></trkpt><trkpt lat="44.54663115211489" lon="8.278171731123411"><ele>586.0</ele><time>2026-05-01T09:24:43.001Z</time></trkpt><trkpt lat="44.54657907939364" lon="8.27836154181935"><ele>586.0</ele><time>2026-05-01T09:24:44.001Z</time></trkpt><trkpt lat="44.546539246220476" lon="8.278553165544395"><ele>586.0</ele><time>2026-05-01T09:24:45.001Z</time></trkpt><trkpt lat="44.54651806655171" lon="8.278727979267227"><ele>586.0</ele><time>2026-05-01T09:24:46.001Z</time></trkpt><trkpt lat="44.54651312141039" lon="8.278887329907729"><ele>586.0</ele><time>2026-05-01T09:24:47Z</time></trkpt><trkpt lat="44.54651698070778" lon="8.279044590376673"><ele>586.0</ele><time>2026-05-01T09:24:48.001Z</time></trkpt><trkpt lat="44.54652275529576" lon="8.279186859658294"><ele>586.0</ele><time>2026-05-01T09:24:49.001Z</time></trkpt><trkpt lat="44.54653186112042" lon="8.279311296807602"><ele>586.0</ele><time>2026-05-01T09:24:50Z</time></trkpt><trkpt lat="44.54651847576042" lon="8.279421916634456"><ele>586.0</ele><time>2026-05-01T09:24:51Z</time></trkpt><trkpt lat="44.546522824988216" lon="8.279521506693037"><ele>586.0</ele><time>2026-05-01T09:24:52Z</time></trkpt><trkpt lat="44.54646871410665" lon="8.279584764397857"><ele>586.0</ele><time>2026-05-01T09:24:53Z</time></trkpt><trkpt lat="44.54639802059235" lon="8.279556435681014"><ele>586.0</ele><time>2026-05-01T09:24:54Z</time></trkpt><trkpt lat="44.54637239608223" lon="8.2794595733454"><ele>586.0</ele><time>2026-05-01T09:24:55Z</time></trkpt><trkpt lat="44.54638461558337" lon="8.27933667074264"><ele>586.0</ele><time>2026-05-01T09:24:56Z</time></trkpt><trkpt lat="44.54638865848667" lon="8.279247407784231"><ele>586.0</ele><time>2026-05-01T09:24:57Z</time></trkpt><trkpt lat="44.54638513030798" lon="8.279128803777109"><ele>586.0</ele><time>2026-05-01T09:24:58Z</time></trkpt><trkpt lat="44.5463781365641" lon="8.278996324862524"><ele>586.0</ele><time>2026-05-01T09:24:59Z</time></trkpt><trkpt lat="44.54635615762356" lon="8.278859387443648"><ele>586.1666666666667</ele><time>2026-05-01T09:25:00Z</time></trkpt><trkpt lat="44.54633726160775" lon="8.278729027197366"><ele>586.3333333333334</ele><time>2026-05-01T09:25:01Z</time></trkpt><trkpt lat="44.54631633575283" lon="8.278605970292952"><ele>586.5</ele><time>2026-05-01T09:25:02Z</time></trkpt><trkpt lat="44.546316434987155" lon="8.278481392942794"><ele>586.6666666666666</ele><time>2026-05-01T09:25:03Z</time></trkpt><trkpt lat="44.54630947839003" lon="8.278365917384875"><ele>586.8333333333333</ele><time>2026-05-01T09:25:04Z</time></trkpt><trkpt lat="44.546276351758145" lon="8.278285468543903"><ele>587.0</ele><time>2026-05-01T09:25:05Z</time></trkpt><trkpt lat="44.54615498486945" lon="8.278235923319013"><ele>578.5</ele><time>2026-05-01T09:25:07Z</time></trkpt><trkpt lat="44.54608833458175" lon="8.278336195572152"><ele>570.0</ele><time>2026-05-01T09:25:08Z</time></trkpt><trkpt lat="44.546060955084116" lon="8.278493382375148"><ele>561.5</ele><time>2026-05-01T09:25:09Z</time></trkpt><trkpt lat="44.546072164869976" lon="8.278655558632515"><ele>553.0</ele><time>2026-05-01T09:25:10Z</time></trkpt><trkpt lat="44.546112036499785" lon="8.278814966605562"><ele>552.5</ele><time>2026-05-01T09:25:11Z</time></trkpt><trkpt lat="44.54616112690482" lon="8.278970954248814"><ele>552.0</ele><time>2026-05-01T09:25:12Z</time></trkpt><trkpt lat="44.54618778083008" lon="8.27913661633784"><ele>551.5</ele><time>2026-05-01T09:25:13Z</time></trkpt><trkpt lat="44.546192544612104" lon="8.279304948031287"><ele>551.0</ele><time>2026-05-01T09:25:14Z</time></trkpt><trkpt lat="44.5461947532283" lon="8.279474493692225"><ele>551.0</ele><time>2026-05-01T09:25:15Z</time></trkpt><trkpt lat="44.54618036954628" lon="8.279638761623445"><ele>551.0</ele><time>2026-05-01T09:25:16Z</time></trkpt><trkpt lat="44.5461512262162" lon="8.27981238719972"><ele>551.0</ele><time>2026-05-01T09:25:17Z</time></trkpt><trkpt lat="44.54611209007035" lon="8.279977568855397"><ele>551.0</ele><time>2026-05-01T09:25:18Z</time></trkpt><trkpt lat="44.546058206477035" lon="8.280131324695887"><ele>551.5</ele><time>2026-05-01T09:25:19Z</time></trkpt><trkpt lat="44.545998004994715" lon="8.280286407059101"><ele>552.0</ele><time>2026-05-01T09:25:20Z</time></trkpt><trkpt lat="44.54591625774507" lon="8.280399034024265"><ele>552.5</ele><time>2026-05-01T09:25:21Z</time></trkpt><trkpt lat="44.54581006601436" lon="8.280479584216478"><ele>553.0</ele><time>2026-05-01T09:25:22Z</time></trkpt><trkpt lat="44.54568770435911" lon="8.280533230553125"><ele>553.0</ele><time>2026-05-01T09:25:23Z</time></trkpt><trkpt lat="44.54557005158495" lon="8.280558310347773"><ele>553.0</ele><time>2026-05-01T09:25:24Z</time></trkpt><trkpt lat="44.54545202392806" lon="8.280596374460972"><ele>553.0</ele><time>2026-05-01T09:25:25Z</time></trkpt><trkpt lat="44.54533559370046" lon="8.280640487314312"><ele>553.0</ele><time>2026-05-01T09:25:26Z</time></trkpt><trkpt lat="44.54524087634869" lon="8.28074755551817"><ele>549.75</ele><time>2026-05-01T09:25:27Z</time></trkpt><trkpt lat="44.54515982923905" lon="8.280876062392764"><ele>546.5</ele><time>2026-05-01T09:25:28Z</time></trkpt><trkpt lat="44.5450814284612" lon="8.281001212522474"><ele>543.25</ele><time>2026-05-01T09:25:29Z</time></trkpt><trkpt lat="44.545021408934744" lon="8.281141454380288"><ele>540.0</ele><time>2026-05-01T09:25:30Z</time></trkpt><trkpt lat="44.54496042270608" lon="8.281281744063936"><ele>540.0</ele><time>2026-05-01T09:25:31Z</time></trkpt><trkpt lat="44.544898948909946" lon="8.2814182683617"><ele>540.0</ele><time>2026-05-01T09:25:32Z</time></trkpt><trkpt lat="44.54484198323589" lon="8.281551581528383"><ele>540.0</ele><time>2026-05-01T09:25:33Z</time></trkpt><trkpt lat="44.54480477478348" lon="8.281690461763764"><ele>540.0</ele><time>2026-05-01T09:25:34Z</time></trkpt><trkpt lat="44.54479987971494" lon="8.281842455372683"><ele>540.0</ele><time>2026-05-01T09:25:35Z</time></trkpt><trkpt lat="44.54484968874424" lon="8.281984183941235"><ele>540.6</ele><time>2026-05-01T09:25:36Z</time></trkpt><trkpt lat="44.5448994918494" lon="8.28212422762752"><ele>541.2</ele><time>2026-05-01T09:25:37Z</time></trkpt><trkpt lat="44.54493418611133" lon="8.282266671125184"><ele>541.8</ele><time>2026-05-01T09:25:38Z</time></trkpt><trkpt lat="44.54491753041" lon="8.282404752644407"><ele>542.4</ele><time>2026-05-01T09:25:39Z</time></trkpt><trkpt lat="44.544893872310794" lon="8.282539864564262"><ele>543.0</ele><time>2026-05-01T09:25:40Z</time></trkpt><trkpt lat="44.54486138006525" lon="8.282667588661582"><ele>543.0</ele><time>2026-05-01T09:25:41Z</time></trkpt><trkpt lat="44.54482347562505" lon="8.282791615277763"><ele>543.0</ele><time>2026-05-01T09:25:42Z</time></trkpt><trkpt lat="44.544774689241294" lon="8.282913296035407"><ele>543.0</ele><time>2026-05-01T09:25:43Z</time></trkpt><trkpt lat="44.54472271289668" lon="8.283054582859334"><ele>543.0</ele><time>2026-05-01T09:25:44Z</time></trkpt><trkpt lat="44.54460561850056" lon="8.283086053238009"><ele>543.0</ele><time>2026-05-01T09:25:45Z</time></trkpt><trkpt lat="44.544508046516874" lon="8.283136585952443"><ele>537.4</ele><time>2026-05-01T09:25:46Z</time></trkpt><trkpt lat="44.54443033514246" lon="8.283184105757853"><ele>531.8</ele><time>2026-05-01T09:25:47Z</time></trkpt><trkpt lat="44.54438621748005" lon="8.283290398017188"><ele>526.2</ele><time>2026-05-01T09:25:48Z</time></trkpt><trkpt lat="44.544372789002786" lon="8.283411959807836"><ele>520.6</ele><time>2026-05-01T09:25:49Z</time></trkpt><trkpt lat="44.54438921841677" lon="8.283546759082867"><ele>515.0</ele><time>2026-05-01T09:25:50Z</time></trkpt><trkpt lat="44.544404566562115" lon="8.283691520333628"><ele>515.0</ele><time>2026-05-01T09:25:51Z</time></trkpt><trkpt lat="44.544408022021564" lon="8.283836684479871"><ele>515.0</ele><time>2026-05-01T09:25:52Z</time></trkpt><trkpt lat="44.54434405629317" lon="8.283962626250137"><ele>515.0</ele><time>2026-05-01T09:25:53Z</time></trkpt><trkpt lat="44.544288258851076" lon="8.284113739483285"><ele>515.0</ele><time>2026-05-01T09:25:54Z</time></trkpt><trkpt lat="44.54425185570713" lon="8.284268838056654"><ele>514.4</ele><time>2026-05-01T09:25:55Z</time></trkpt><trkpt lat="44.54420721096192" lon="8.284417971115273"><ele>513.8</ele><time>2026-05-01T09:25:56Z</time></trkpt><trkpt lat="44.54419989761535" lon="8.284573407423197"><ele>513.2</ele><time>2026-05-01T09:25:57Z</time></trkpt><trkpt lat="44.54420673532819" lon="8.284720583165004"><ele>512.6</ele><time>2026-05-01T09:25:58Z</time></trkpt><trkpt lat="44.5442219294986" lon="8.284856112558348"><ele>512.0</ele><time>2026-05-01T09:25:59Z</time></trkpt><trkpt lat="44.544274622668084" lon="8.284983432067163"><ele>512.0</ele><time>2026-05-01T09:26:00Z</time></trkpt><trkpt lat="44.544349751330856" lon="8.285100160125205"><ele>512.0</ele><time>2026-05-01T09:26:01Z</time></trkpt><trkpt lat="44.54439594057284" lon="8.285249133577215"><ele>512.0</ele><time>2026-05-01T09:26:02Z</time></trkpt><trkpt lat="44.54444062057235" lon="8.285396981609251"><ele>512.0</ele><time>2026-05-01T09:26:03Z</time></trkpt><trkpt lat="44.544473174450424" lon="8.285550183074148"><ele>510.0</ele><time>2026-05-01T09:26:04Z</time></trkpt><trkpt lat="44.54445638775337" lon="8.285699130492226"><ele>508.00000000000006</ele><time>2026-05-01T09:26:05Z</time></trkpt><trkpt lat="44.544436804095135" lon="8.285862954421267"><ele>506.00000000000006</ele><time>2026-05-01T09:26:06Z</time></trkpt><trkpt lat="44.54440523027199" lon="8.286012043241008"><ele>504.0</ele><time>2026-05-01T09:26:07Z</time></trkpt><trkpt lat="44.54435080966925" lon="8.286144127161954"><ele>502.0</ele><time>2026-05-01T09:26:08Z</time></trkpt><trkpt lat="44.54428049794682" lon="8.28627375119487"><ele>502.0</ele><time>2026-05-01T09:26:09Z</time></trkpt><trkpt lat="44.544213839208034" lon="8.286411556491114"><ele>502.0</ele><time>2026-05-01T09:26:10Z</time></trkpt><trkpt lat="44.54414788352853" lon="8.286547127555007"><ele>502.0</ele><time>2026-05-01T09:26:11Z</time></trkpt><trkpt lat="44.544119688364525" lon="8.286710127246087"><ele>502.0</ele><time>2026-05-01T09:26:12Z</time></trkpt><trkpt lat="44.54412495862878" lon="8.286886961852172"><ele>502.5</ele><time>2026-05-01T09:26:13Z</time></trkpt><trkpt lat="44.54414408436955" lon="8.287062173472282"><ele>503.0</ele><time>2026-05-01T09:26:14Z</time></trkpt><trkpt lat="44.544169082000764" lon="8.287225682243983"><ele>503.5</ele><time>2026-05-01T09:26:15Z</time></trkpt><trkpt lat="44.54420941447856" lon="8.287386215335918"><ele>504.0</ele><time>2026-05-01T09:26:16Z</time></trkpt><trkpt lat="44.54423975198409" lon="8.287551908743175"><ele>502.0</ele><time>2026-05-01T09:26:17Z</time></trkpt><trkpt lat="44.54426668137785" lon="8.28771306391163"><ele>500.0</ele><time>2026-05-01T09:26:18Z</time></trkpt><trkpt lat="44.54427327883003" lon="8.287874913229084"><ele>498.0</ele><time>2026-05-01T09:26:19Z</time></trkpt><trkpt lat="44.54425251586901" lon="8.288039097820183"><ele>496.0</ele><time>2026-05-01T09:26:20Z</time></trkpt><trkpt lat="44.54421234053168" lon="8.28819407796269"><ele>495.0</ele><time>2026-05-01T09:26:21Z</time></trkpt><trkpt lat="44.54416735378241" lon="8.288341223065789"><ele>494.0</ele><time>2026-05-01T09:26:21.999Z</time></trkpt><trkpt lat="44.54409860122636" lon="8.288473985180715"><ele>493.0</ele><time>2026-05-01T09:26:22.999Z</time></trkpt><trkpt lat="44.5440114146413" lon="8.288596084581041"><ele>492.0</ele><time>2026-05-01T09:26:23.999Z</time></trkpt><trkpt lat="44.543935874288294" lon="8.288737553268142"><ele>492.0</ele><time>2026-05-01T09:26:24.999Z</time></trkpt><trkpt lat="44.543859424247074" lon="8.288862154424583"><ele>492.0</ele><time>2026-05-01T09:26:25.999Z</time></trkpt><trkpt lat="44.543794159708746" lon="8.288996655180028"><ele>492.0</ele><time>2026-05-01T09:26:26.999Z</time></trkpt><trkpt lat="44.54372445909015" lon="8.289129290939652"><ele>492.0</ele><time>2026-05-01T09:26:27.999Z</time></trkpt><trkpt lat="44.5436802901069" lon="8.289279370150727"><ele>488.25</ele><time>2026-05-01T09:26:28.999Z</time></trkpt><trkpt lat="44.543623198072076" lon="8.289419389547723"><ele>484.5</ele><time>2026-05-01T09:26:29.999Z</time></trkpt><trkpt lat="44.543586900476484" lon="8.28957240908434"><ele>480.75</ele><time>2026-05-01T09:26:30.999Z</time></trkpt><trkpt lat="44.54356187281202" lon="8.2897291067429"><ele>477.0</ele><time>2026-05-01T09:26:31.999Z</time></trkpt><trkpt lat="44.54353377928156" lon="8.289889669755057"><ele>477.0</ele><time>2026-05-01T09:26:32.999Z</time></trkpt><trkpt lat="44.54348952625083" lon="8.290038787311449"><ele>477.00000000000006</ele><time>2026-05-01T09:26:33.999Z</time></trkpt><trkpt lat="44.543411474732494" lon="8.290158074078553"><ele>477.00000000000006</ele><time>2026-05-01T09:26:34.999Z</time></trkpt><trkpt lat="44.543381792443014" lon="8.290295409233792"><ele>477.0</ele><time>2026-05-01T09:26:35.999Z</time></trkpt><trkpt lat="44.54336371550487" lon="8.290437465162265"><ele>477.0</ele><time>2026-05-01T09:26:36.999Z</time></trkpt><trkpt lat="44.543402249807485" lon="8.290593184757991"><ele>477.40000000000003</ele><time>2026-05-01T09:26:37.999Z</time></trkpt><trkpt lat="44.54347180798465" lon="8.290723772681881"><ele>477.80000000000007</ele><time>2026-05-01T09:26:38.999Z</time></trkpt><trkpt lat="44.54354015344008" lon="8.290820941224283"><ele>478.2</ele><time>2026-05-01T09:26:39.999Z</time></trkpt><trkpt lat="44.5435780899971" lon="8.290939505425527"><ele>478.6</ele><time>2026-05-01T09:26:40.999Z</time></trkpt><trkpt lat="44.54360761925608" lon="8.291063559697927"><ele>479.0</ele><time>2026-05-01T09:26:41.999Z</time></trkpt><trkpt lat="44.54359354894764" lon="8.291205595523452"><ele>479.0</ele><time>2026-05-01T09:26:42.999Z</time></trkpt><trkpt lat="44.543561526588206" lon="8.291357992265386"><ele>479.0</ele><time>2026-05-01T09:26:43.999Z</time></trkpt><trkpt lat="44.54356428066636" lon="8.291516909299677"><ele>479.0</ele><time>2026-05-01T09:26:44.999Z</time></trkpt><trkpt lat="44.54355783197867" lon="8.291663928394948"><ele>479.0</ele><time>2026-05-01T09:26:45.999Z</time></trkpt><trkpt lat="44.543547737053004" lon="8.291811699872957"><ele>479.0</ele><time>2026-05-01T09:26:46.999Z</time></trkpt><trkpt lat="44.543492983300276" lon="8.291938016082739"><ele>477.0</ele><time>2026-05-01T09:26:48Z</time></trkpt><trkpt lat="44.543466961970395" lon="8.292070421972078"><ele>475.0</ele><time>2026-05-01T09:26:49Z</time></trkpt><trkpt lat="44.54348252880925" lon="8.292237242214462"><ele>473.0</ele><time>2026-05-01T09:26:50Z</time></trkpt><trkpt lat="44.54352680566206" lon="8.292410538550284"><ele>471.0</ele><time>2026-05-01T09:26:51Z</time></trkpt><trkpt lat="44.543549085170966" lon="8.292578461445428"><ele>470.75</ele><time>2026-05-01T09:26:52Z</time></trkpt><trkpt lat="44.543527234924284" lon="8.292740243326826"><ele>470.5</ele><time>2026-05-01T09:26:53Z</time></trkpt><trkpt lat="44.54352994570672" lon="8.292914327905635"><ele>470.25</ele><time>2026-05-01T09:26:54Z</time></trkpt><trkpt lat="44.5435184263816" lon="8.29308055490503"><ele>470.0</ele><time>2026-05-01T09:26:55Z</time></trkpt><trkpt lat="44.543439011450786" lon="8.293219135807043"><ele>470.0</ele><time>2026-05-01T09:26:56Z</time></trkpt><trkpt lat="44.54338774037819" lon="8.293376206131864"><ele>470.0</ele><time>2026-05-01T09:26:57Z</time></trkpt><trkpt lat="44.54336451769979" lon="8.293547622234804"><ele>470.0</ele><time>2026-05-01T09:26:58Z</time></trkpt><trkpt lat="44.543325774931006" lon="8.29370841254207"><ele>470.0</ele><time>2026-05-01T09:26:59Z</time></trkpt><trkpt lat="44.543270482554554" lon="8.293850706617384"><ele>471.75</ele><time>2026-05-01T09:27:00Z</time></trkpt><trkpt lat="44.54322447572797" lon="8.294008802443521"><ele>473.5</ele><time>2026-05-01T09:27:01Z</time></trkpt><trkpt lat="44.543159158640336" lon="8.294148393251414"><ele>475.25</ele><time>2026-05-01T09:27:02Z</time></trkpt><trkpt lat="44.54306727399482" lon="8.294255106435022"><ele>477.0</ele><time>2026-05-01T09:27:03Z</time></trkpt><trkpt lat="44.54298312413266" lon="8.294383963932525"><ele>477.0</ele><time>2026-05-01T09:27:04Z</time></trkpt><trkpt lat="44.54290453255859" lon="8.294517610955161"><ele>477.0</ele><time>2026-05-01T09:27:05Z</time></trkpt><trkpt lat="44.542825304179395" lon="8.294642492916775"><ele>477.0</ele><time>2026-05-01T09:27:06Z</time></trkpt><trkpt lat="44.54274582148332" lon="8.294768338790732"><ele>477.0</ele><time>2026-05-01T09:27:07Z</time></trkpt><trkpt lat="44.54265963485355" lon="8.294894736049253"><ele>471.0</ele><time>2026-05-01T09:27:08Z</time></trkpt><trkpt lat="44.542589651968115" lon="8.295047187808041"><ele>465.0</ele><time>2026-05-01T09:27:09Z</time></trkpt><trkpt lat="44.54252426936059" lon="8.29520238534253"><ele>459.0</ele><time>2026-05-01T09:27:10Z</time></trkpt><trkpt lat="44.54247069658136" lon="8.295387427059383"><ele>453.0</ele><time>2026-05-01T09:27:11Z</time></trkpt><trkpt lat="44.54242893178503" lon="8.295577122906609"><ele>454.2</ele><time>2026-05-01T09:27:12Z</time></trkpt><trkpt lat="44.54240189076045" lon="8.295754540549037"><ele>455.4</ele><time>2026-05-01T09:27:13Z</time></trkpt><trkpt lat="44.54238678928177" lon="8.295894367722036"><ele>456.59999999999997</ele><time>2026-05-01T09:27:14Z</time></trkpt><trkpt lat="44.542381816967215" lon="8.296017608816163"><ele>457.79999999999995</ele><time>2026-05-01T09:27:15Z</time></trkpt><trkpt lat="44.54242453986786" lon="8.296129100121796"><ele>459.0</ele><time>2026-05-01T09:27:16Z</time></trkpt><trkpt lat="44.54250276029632" lon="8.296234409285676"><ele>459.0</ele><time>2026-05-01T09:27:17Z</time></trkpt><trkpt lat="44.54260684836255" lon="8.296330574882896"><ele>459.0</ele><time>2026-05-01T09:27:18Z</time></trkpt><trkpt lat="44.54272546795184" lon="8.296424015445643"><ele>459.0</ele><time>2026-05-01T09:27:19Z</time></trkpt><trkpt lat="44.5428357564289" lon="8.296538263977517"><ele>459.0</ele><time>2026-05-01T09:27:20Z</time></trkpt><trkpt lat="44.542943959670545" lon="8.296642897237982"><ele>459.25</ele><time>2026-05-01T09:27:21Z</time></trkpt><trkpt lat="44.54303916805278" lon="8.296764105111132"><ele>459.5</ele><time>2026-05-01T09:27:22Z</time></trkpt><trkpt lat="44.54311748284545" lon="8.296903148321318"><ele>459.75</ele><time>2026-05-01T09:27:23Z</time></trkpt><trkpt lat="44.543214147709534" lon="8.297031888409217"><ele>460.0</ele><time>2026-05-01T09:27:24Z</time></trkpt><trkpt lat="44.54329836114306" lon="8.297169979519738"><ele>454.25</ele><time>2026-05-01T09:27:25Z</time></trkpt><trkpt lat="44.54339606139539" lon="8.297294673911834"><ele>448.5</ele><time>2026-05-01T09:27:26Z</time></trkpt><trkpt lat="44.543505133630426" lon="8.297411410324578"><ele>442.75</ele><time>2026-05-01T09:27:27Z</time></trkpt><trkpt lat="44.54362247495983" lon="8.297515099584265"><ele>437.0</ele><time>2026-05-01T09:27:28Z</time></trkpt><trkpt lat="44.54374737342238" lon="8.29759808620594"><ele>437.0</ele><time>2026-05-01T09:27:29Z</time></trkpt><trkpt lat="44.543856773811285" lon="8.297690150788233"><ele>437.0</ele><time>2026-05-01T09:27:30Z</time></trkpt><trkpt lat="44.54394734634356" lon="8.29779176176971"><ele>437.0</ele><time>2026-05-01T09:27:31Z</time></trkpt><trkpt lat="44.54399128850812" lon="8.297922022145665"><ele>437.0</ele><time>2026-05-01T09:27:32Z</time></trkpt><trkpt lat="44.54408060505107" lon="8.297996884950562"><ele>437.0</ele><time>2026-05-01T09:27:33Z</time></trkpt><trkpt lat="44.544181527018814" lon="8.298052332631247"><ele>437.00000000000006</ele><time>2026-05-01T09:27:34Z</time></trkpt><trkpt lat="44.54429819317891" lon="8.298057919643565"><ele>437.00000000000006</ele><time>2026-05-01T09:27:35Z</time></trkpt><trkpt lat="44.54441655745176" lon="8.298060444729481"><ele>437.0</ele><time>2026-05-01T09:27:36Z</time></trkpt><trkpt lat="44.544518810059444" lon="8.298099400024928"><ele>437.0</ele><time>2026-05-01T09:27:37Z</time></trkpt><trkpt lat="44.544597749691654" lon="8.298129405134388"><ele>434.6</ele><time>2026-05-01T09:27:38Z</time></trkpt><trkpt lat="44.54463575165801" lon="8.298253447943228"><ele>432.20000000000005</ele><time>2026-05-01T09:27:40Z</time></trkpt><trkpt lat="44.54458484865892" lon="8.298319862862083"><ele>429.8</ele><time>2026-05-01T09:27:41Z</time></trkpt><trkpt lat="44.544503001692625" lon="8.298339300616638"><ele>427.4</ele><time>2026-05-01T09:27:42Z</time></trkpt><trkpt lat="44.54440128485158" lon="8.298324171333551"><ele>425.0</ele><time>2026-05-01T09:27:43Z</time></trkpt><trkpt lat="44.544296338211936" lon="8.298317953131594"><ele>425.0</ele><time>2026-05-01T09:27:44Z</time></trkpt><trkpt lat="44.54418384839577" lon="8.298326438301936"><ele>425.0</ele><time>2026-05-01T09:27:45Z</time></trkpt><trkpt lat="44.5440731117081" lon="8.298331962376006"><ele>425.0</ele><time>2026-05-01T09:27:46Z</time></trkpt><trkpt lat="44.54395996000238" lon="8.298333213979822"><ele>425.0</ele><time>2026-05-01T09:27:47Z</time></trkpt><trkpt lat="44.5438549543729" lon="8.298334576589639"><ele>425.0</ele><time>2026-05-01T09:27:48Z</time></trkpt><trkpt lat="44.543764610794625" lon="8.29833648131922"><ele>422.2</ele><time>2026-05-01T09:27:49Z</time></trkpt><trkpt lat="44.54368266614693" lon="8.298368389022274"><ele>419.4</ele><time>2026-05-01T09:27:50Z</time></trkpt><trkpt lat="44.54359733319347" lon="8.298438488281793"><ele>416.6</ele><time>2026-05-01T09:27:51Z</time></trkpt><trkpt lat="44.543554435486236" lon="8.298603202214975"><ele>413.8</ele><time>2026-05-01T09:27:52Z</time></trkpt><trkpt lat="44.543492684389676" lon="8.298759175267362"><ele>411.0</ele><time>2026-05-01T09:27:53Z</time></trkpt><trkpt lat="44.54343942057817" lon="8.298918522819383"><ele>409.5</ele><time>2026-05-01T09:27:54Z</time></trkpt><trkpt lat="44.54339972628074" lon="8.29908929996794"><ele>408.0</ele><time>2026-05-01T09:27:55Z</time></trkpt><trkpt lat="44.54333973175221" lon="8.299235143913348"><ele>406.5</ele><time>2026-05-01T09:27:56Z</time></trkpt><trkpt lat="44.54328844435032" lon="8.299379224879255"><ele>405.0</ele><time>2026-05-01T09:27:57Z</time></trkpt><trkpt lat="44.54322328473968" lon="8.299505842147065"><ele>405.0</ele><time>2026-05-01T09:27:58Z</time></trkpt><trkpt lat="44.5431505068617" lon="8.299616755062136"><ele>405.0</ele><time>2026-05-01T09:27:59Z</time></trkpt><trkpt lat="44.54307037320319" lon="8.29971133187219"><ele>405.0</ele><time>2026-05-01T09:28:00Z</time></trkpt><trkpt lat="44.54299831207678" lon="8.299815749668557"><ele>405.0</ele><time>2026-05-01T09:28:01Z</time></trkpt><trkpt lat="44.54293767253015" lon="8.299931505560822"><ele>405.0</ele><time>2026-05-01T09:28:02Z</time></trkpt><trkpt lat="44.54287701458973" lon="8.300045347428773"><ele>403.8</ele><time>2026-05-01T09:28:03Z</time></trkpt><trkpt lat="44.5428022222178" lon="8.300141319071841"><ele>402.6</ele><time>2026-05-01T09:28:04Z</time></trkpt><trkpt lat="44.54271013907866" lon="8.300198634340438"><ele>401.4</ele><time>2026-05-01T09:28:05Z</time></trkpt><trkpt lat="44.542633428687736" lon="8.300276982604368"><ele>400.2</ele><time>2026-05-01T09:28:06Z</time></trkpt><trkpt lat="44.54261739893226" lon="8.300418524536875"><ele>399.0</ele><time>2026-05-01T09:28:07Z</time></trkpt><trkpt lat="44.54265128452505" lon="8.300571989901147"><ele>400.6</ele><time>2026-05-01T09:28:08Z</time></trkpt><trkpt lat="44.542652962895694" lon="8.300706708652902"><ele>402.2</ele><time>2026-05-01T09:28:09Z</time></trkpt><trkpt lat="44.54264816616816" lon="8.300843985506482"><ele>403.8</ele><time>2026-05-01T09:28:10Z</time></trkpt><trkpt lat="44.54264735284179" lon="8.300986836513149"><ele>405.40000000000003</ele><time>2026-05-01T09:28:11Z</time></trkpt><trkpt lat="44.54263944987762" lon="8.30112090841512"><ele>407.0</ele><time>2026-05-01T09:28:12Z</time></trkpt><trkpt lat="44.54257629140159" lon="8.301238231057283"><ele>407.0</ele><time>2026-05-01T09:28:13Z</time></trkpt><trkpt lat="44.542468254772636" lon="8.301293464079714"><ele>407.0</ele><time>2026-05-01T09:28:14Z</time></trkpt><trkpt lat="44.542373248559244" lon="8.301383667108091"><ele>407.0</ele><time>2026-05-01T09:28:15Z</time></trkpt><trkpt lat="44.54227124776045" lon="8.30145781494175"><ele>407.0</ele><time>2026-05-01T09:28:16Z</time></trkpt><trkpt lat="44.54217507137105" lon="8.301543772497295"><ele>408.6</ele><time>2026-05-01T09:28:17Z</time></trkpt><trkpt lat="44.54209460795966" lon="8.30164681085548"><ele>410.20000000000005</ele><time>2026-05-01T09:28:18Z</time></trkpt><trkpt lat="44.542042431566855" lon="8.301734697034405"><ele>411.8</ele><time>2026-05-01T09:28:19Z</time></trkpt><trkpt lat="44.5420441528239" lon="8.301879042272835"><ele>413.4</ele><time>2026-05-01T09:28:20Z</time></trkpt><trkpt lat="44.54211595545398" lon="8.302004949478938"><ele>415.0</ele><time>2026-05-01T09:28:21Z</time></trkpt><trkpt lat="44.54213506298368" lon="8.30215301867208"><ele>415.6</ele><time>2026-05-01T09:28:22Z</time></trkpt><trkpt lat="44.5420777968328" lon="8.302289279736419"><ele>416.2</ele><time>2026-05-01T09:28:23Z</time></trkpt><trkpt lat="44.54203071881576" lon="8.302421724232202"><ele>416.79999999999995</ele><time>2026-05-01T09:28:23.999Z</time></trkpt><trkpt lat="44.54192654120688" lon="8.302462146886292"><ele>417.4</ele><time>2026-05-01T09:28:24.999Z</time></trkpt><trkpt lat="44.541834615095794" lon="8.302472620363236"><ele>418.0</ele><time>2026-05-01T09:28:25.999Z</time></trkpt><trkpt lat="44.54176197701592" lon="8.302553575729405"><ele>415.79999999999995</ele><time>2026-05-01T09:28:26.999Z</time></trkpt><trkpt lat="44.541710900075344" lon="8.302678816703033"><ele>413.6</ele><time>2026-05-01T09:28:27.999Z</time></trkpt><trkpt lat="44.541749233653086" lon="8.302830640407837"><ele>411.4</ele><time>2026-05-01T09:28:28.999Z</time></trkpt><trkpt lat="44.541748688503326" lon="8.302959704992618"><ele>409.20000000000005</ele><time>2026-05-01T09:28:29.999Z</time></trkpt><trkpt lat="44.54173939760452" lon="8.303078994527398"><ele>407.0</ele><time>2026-05-01T09:28:30.999Z</time></trkpt><trkpt lat="44.5416594646978" lon="8.303150275826601"><ele>407.0</ele><time>2026-05-01T09:28:31.999Z</time></trkpt><trkpt lat="44.54156314626265" lon="8.303143931806579"><ele>407.0</ele><time>2026-05-01T09:28:32.999Z</time></trkpt><trkpt lat="44.54146578822573" lon="8.303088842954912"><ele>407.0</ele><time>2026-05-01T09:28:33.999Z</time></trkpt><trkpt lat="44.54136120988893" lon="8.303058892337729"><ele>407.0</ele><time>2026-05-01T09:28:34.999Z</time></trkpt><trkpt lat="44.54124656934187" lon="8.303034765378868"><ele>407.0</ele><time>2026-05-01T09:28:35.999Z</time></trkpt><trkpt lat="44.54113948837406" lon="8.30300585419159"><ele>403.40000000000003</ele><time>2026-05-01T09:28:36.999Z</time></trkpt><trkpt lat="44.541033451424624" lon="8.30299599731504"><ele>399.8</ele><time>2026-05-01T09:28:37.999Z</time></trkpt><trkpt lat="44.54093427220212" lon="8.303055437135345"><ele>396.2</ele><time>2026-05-01T09:28:38.999Z</time></trkpt><trkpt lat="44.54085614401469" lon="8.303167024919594"><ele>392.6</ele><time>2026-05-01T09:28:39.999Z</time></trkpt><trkpt lat="44.54080157673359" lon="8.303297579083944"><ele>389.0</ele><time>2026-05-01T09:28:40.999Z</time></trkpt><trkpt lat="44.54075609575821" lon="8.303431559936364"><ele>389.0</ele><time>2026-05-01T09:28:41.999Z</time></trkpt><trkpt lat="44.54071779272412" lon="8.303571464482864"><ele>389.0</ele><time>2026-05-01T09:28:42.999Z</time></trkpt><trkpt lat="44.54066915190025" lon="8.303707162197494"><ele>389.0</ele><time>2026-05-01T09:28:43.999Z</time></trkpt><trkpt lat="44.5406398242615" lon="8.303844794428976"><ele>389.0</ele><time>2026-05-01T09:28:44.999Z</time></trkpt><trkpt lat="44.540550236742114" lon="8.303924446774847"><ele>389.0</ele><time>2026-05-01T09:28:45.999Z</time></trkpt><trkpt lat="44.54044197164852" lon="8.303942913519434"><ele>385.6</ele><time>2026-05-01T09:28:46.999Z</time></trkpt><trkpt lat="44.5403400335817" lon="8.303961665428847"><ele>382.2</ele><time>2026-05-01T09:28:47.999Z</time></trkpt><trkpt lat="44.54025058775325" lon="8.304031752202551"><ele>378.8</ele><time>2026-05-01T09:28:48.999Z</time></trkpt><trkpt lat="44.540208180865584" lon="8.304169388015504"><ele>375.40000000000003</ele><time>2026-05-01T09:28:49.999Z</time></trkpt><trkpt lat="44.54021124996636" lon="8.304320805793987"><ele>372.0</ele><time>2026-05-01T09:28:50.999Z</time></trkpt><trkpt lat="44.54020760160736" lon="8.304472703423338"><ele>372.0</ele><time>2026-05-01T09:28:51.999Z</time></trkpt><trkpt lat="44.540198999629695" lon="8.304617014469924"><ele>372.0</ele><time>2026-05-01T09:28:52.999Z</time></trkpt><trkpt lat="44.54019866029621" lon="8.304755124134651"><ele>372.0</ele><time>2026-05-01T09:28:54Z</time></trkpt><trkpt lat="44.54020769540966" lon="8.304896976889077"><ele>372.0</ele><time>2026-05-01T09:28:55Z</time></trkpt><trkpt lat="44.54018569569906" lon="8.305034378379364"><ele>372.0</ele><time>2026-05-01T09:28:56Z</time></trkpt><trkpt lat="44.54016707965346" lon="8.305165209992136"><ele>373.0</ele><time>2026-05-01T09:28:57Z</time></trkpt><trkpt lat="44.540143301097075" lon="8.305296118470642"><ele>374.0</ele><time>2026-05-01T09:28:58Z</time></trkpt><trkpt lat="44.540112646458134" lon="8.305420676860571"><ele>375.0</ele><time>2026-05-01T09:28:59Z</time></trkpt><trkpt lat="44.540085619121754" lon="8.305551549207664"><ele>376.0</ele><time>2026-05-01T09:29:00Z</time></trkpt><trkpt lat="44.54001021912672" lon="8.30564104071648"><ele>377.0</ele><time>2026-05-01T09:29:01Z</time></trkpt><trkpt lat="44.53990857680136" lon="8.30568369956985"><ele>377.8</ele><time>2026-05-01T09:29:02Z</time></trkpt><trkpt lat="44.539804832802965" lon="8.305697949091464"><ele>378.6</ele><time>2026-05-01T09:29:03Z</time></trkpt><trkpt lat="44.53969585577219" lon="8.305690778433314"><ele>379.40000000000003</ele><time>2026-05-01T09:29:04Z</time></trkpt><trkpt lat="44.53958906606802" lon="8.30565137188913"><ele>380.20000000000005</ele><time>2026-05-01T09:29:05Z</time></trkpt><trkpt lat="44.5394903779663" lon="8.305594994844327"><ele>381.0</ele><time>2026-05-01T09:29:06Z</time></trkpt><trkpt lat="44.53938868402644" lon="8.305543988180258"><ele>381.0</ele><time>2026-05-01T09:29:07Z</time></trkpt><trkpt lat="44.539283453976495" lon="8.305496090342876"><ele>381.0</ele><time>2026-05-01T09:29:08Z</time></trkpt><trkpt lat="44.539177933941474" lon="8.305445173468755"><ele>381.0</ele><time>2026-05-01T09:29:09Z</time></trkpt><trkpt lat="44.53906746009727" lon="8.305443461201856"><ele>381.0</ele><time>2026-05-01T09:29:10Z</time></trkpt><trkpt lat="44.5389660162706" lon="8.305506944435873"><ele>381.0</ele><time>2026-05-01T09:29:11Z</time></trkpt><trkpt lat="44.53890112960254" lon="8.305616884941758"><ele>381.0</ele><time>2026-05-01T09:29:12Z</time></trkpt><trkpt lat="44.53887728674612" lon="8.305763206685008"><ele>381.0</ele><time>2026-05-01T09:29:13Z</time></trkpt><trkpt lat="44.53888311718595" lon="8.305912199177024"><ele>381.0</ele><time>2026-05-01T09:29:14Z</time></trkpt><trkpt lat="44.5389232047885" lon="8.306044409071335"><ele>381.0</ele><time>2026-05-01T09:29:15Z</time></trkpt><trkpt lat="44.53894375578796" lon="8.306178544137202"><ele>381.0</ele><time>2026-05-01T09:29:16Z</time></trkpt><trkpt lat="44.5389402202291" lon="8.306308429615138"><ele>381.0</ele><time>2026-05-01T09:29:17Z</time></trkpt><trkpt lat="44.53884592054734" lon="8.30637610649136"><ele>381.0</ele><time>2026-05-01T09:29:18Z</time></trkpt><trkpt lat="44.53874860833132" lon="8.306419224577045"><ele>381.0</ele><time>2026-05-01T09:29:19Z</time></trkpt><trkpt lat="44.53866005349197" lon="8.306482134327554"><ele>381.0</ele><time>2026-05-01T09:29:20Z</time></trkpt><trkpt lat="44.53857743546625" lon="8.306546768782246"><ele>381.0</ele><time>2026-05-01T09:29:21Z</time></trkpt><trkpt lat="44.538531945442905" lon="8.306669069807212"><ele>376.6</ele><time>2026-05-01T09:29:22Z</time></trkpt><trkpt lat="44.538548381847" lon="8.30682265831899"><ele>372.20000000000005</ele><time>2026-05-01T09:29:23Z</time></trkpt><trkpt lat="44.53855709527767" lon="8.306968901177584"><ele>367.79999999999995</ele><time>2026-05-01T09:29:24Z</time></trkpt><trkpt lat="44.53852289940741" lon="8.30711024117136"><ele>363.4</ele><time>2026-05-01T09:29:25Z</time></trkpt><trkpt lat="44.5384484971715" lon="8.307236648891722"><ele>359.0</ele><time>2026-05-01T09:29:26Z</time></trkpt><trkpt lat="44.53836240262093" lon="8.307332625259644"><ele>359.0</ele><time>2026-05-01T09:29:27Z</time></trkpt><trkpt lat="44.53828938023066" lon="8.307433206142967"><ele>359.0</ele><time>2026-05-01T09:29:28Z</time></trkpt><trkpt lat="44.538212878370835" lon="8.30748761699679"><ele>359.0</ele><time>2026-05-01T09:29:29Z</time></trkpt><trkpt lat="44.53816365836521" lon="8.307586247231628"><ele>359.0</ele><time>2026-05-01T09:29:30Z</time></trkpt><trkpt lat="44.53812786211667" lon="8.30773159779991"><ele>359.0</ele><time>2026-05-01T09:29:31Z</time></trkpt><trkpt lat="44.5381650593479" lon="8.307903438909257"><ele>359.0</ele><time>2026-05-01T09:29:32Z</time></trkpt><trkpt lat="44.53817372932846" lon="8.3080724626024"><ele>359.0</ele><time>2026-05-01T09:29:33Z</time></trkpt><trkpt lat="44.53819376286681" lon="8.308238616182102"><ele>359.0</ele><time>2026-05-01T09:29:34Z</time></trkpt><trkpt lat="44.538254088187244" lon="8.308386844861582"><ele>359.0</ele><time>2026-05-01T09:29:35Z</time></trkpt><trkpt lat="44.53830531791339" lon="8.308523451853832"><ele>358.0</ele><time>2026-05-01T09:29:36Z</time></trkpt><trkpt lat="44.53833862259098" lon="8.308662549688242"><ele>357.0</ele><time>2026-05-01T09:29:37Z</time></trkpt><trkpt lat="44.53831710635925" lon="8.308816650099224"><ele>356.0</ele><time>2026-05-01T09:29:38Z</time></trkpt><trkpt lat="44.53825818537169" lon="8.308949072195855"><ele>355.0</ele><time>2026-05-01T09:29:39Z</time></trkpt><trkpt lat="44.538195259587965" lon="8.309080240293598"><ele>354.0</ele><time>2026-05-01T09:29:40Z</time></trkpt><trkpt lat="44.53812359877872" lon="8.309210920006878"><ele>353.25</ele><time>2026-05-01T09:29:41Z</time></trkpt><trkpt lat="44.538055435458176" lon="8.309344548052636"><ele>352.5</ele><time>2026-05-01T09:29:42Z</time></trkpt><trkpt lat="44.537966362829216" lon="8.309454156016708"><ele>351.75</ele><time>2026-05-01T09:29:43Z</time></trkpt><trkpt lat="44.53787314868714" lon="8.309558420824919"><ele>351.0</ele><time>2026-05-01T09:29:44Z</time></trkpt><trkpt lat="44.537771188135665" lon="8.309648767232678"><ele>350.6</ele><time>2026-05-01T09:29:45Z</time></trkpt><trkpt lat="44.53766449419578" lon="8.309695032242882"><ele>350.20000000000005</ele><time>2026-05-01T09:29:46Z</time></trkpt><trkpt lat="44.537572039505726" lon="8.309730811189374"><ele>349.79999999999995</ele><time>2026-05-01T09:29:47Z</time></trkpt><trkpt lat="44.537498507256636" lon="8.30982912103869"><ele>349.4</ele><time>2026-05-01T09:29:48Z</time></trkpt><trkpt lat="44.53745450335237" lon="8.309965099581992"><ele>349.0</ele><time>2026-05-01T09:29:49Z</time></trkpt><trkpt lat="44.53741847709299" lon="8.310086627093193"><ele>349.0</ele><time>2026-05-01T09:29:50Z</time></trkpt><trkpt lat="44.53733387483789" lon="8.310155093295563"><ele>349.0</ele><time>2026-05-01T09:29:51Z</time></trkpt><trkpt lat="44.53723213912217" lon="8.310176957586235"><ele>349.0</ele><time>2026-05-01T09:29:52Z</time></trkpt><trkpt lat="44.53713177284356" lon="8.310182356554105"><ele>349.0</ele><time>2026-05-01T09:29:53Z</time></trkpt><trkpt lat="44.53702756461942" lon="8.310191039750533"><ele>349.0</ele><time>2026-05-01T09:29:54Z</time></trkpt><trkpt lat="44.536934616775426" lon="8.310246163433666"><ele>344.79999999999995</ele><time>2026-05-01T09:29:55Z</time></trkpt><trkpt lat="44.53685749117747" lon="8.310328788185835"><ele>340.59999999999997</ele><time>2026-05-01T09:29:56Z</time></trkpt><trkpt lat="44.53680748752219" lon="8.310432730999072"><ele>336.4</ele><time>2026-05-01T09:29:57Z</time></trkpt><trkpt lat="44.5368605337395" lon="8.3105880871873"><ele>332.2</ele><time>2026-05-01T09:29:58Z</time></trkpt><trkpt lat="44.5369246744883" lon="8.310708556759026"><ele>328.0</ele><time>2026-05-01T09:29:59Z</time></trkpt><trkpt lat="44.53699388877446" lon="8.310832241639744"><ele>328.0</ele><time>2026-05-01T09:30:00Z</time></trkpt><trkpt lat="44.53702621375206" lon="8.310980122567301"><ele>328.0</ele><time>2026-05-01T09:30:01Z</time></trkpt><trkpt lat="44.5370592428346" lon="8.311133986794074"><ele>328.0</ele><time>2026-05-01T09:30:02Z</time></trkpt><trkpt lat="44.53708936702795" lon="8.31128659093408"><ele>328.0</ele><time>2026-05-01T09:30:03Z</time></trkpt><trkpt lat="44.537090997956675" lon="8.311427509956133"><ele>328.0</ele><time>2026-05-01T09:30:04Z</time></trkpt><trkpt lat="44.53702446940477" lon="8.311545452023722"><ele>327.0</ele><time>2026-05-01T09:30:05Z</time></trkpt><trkpt lat="44.536941513474794" lon="8.311634063701208"><ele>326.0</ele><time>2026-05-01T09:30:06Z</time></trkpt><trkpt lat="44.5368498546063" lon="8.311703527871114"><ele>325.0</ele><time>2026-05-01T09:30:07Z</time></trkpt><trkpt lat="44.53676019575761" lon="8.311766634201396"><ele>324.0</ele><time>2026-05-01T09:30:08Z</time></trkpt><trkpt lat="44.53668711132699" lon="8.31185930202754"><ele>323.0</ele><time>2026-05-01T09:30:09Z</time></trkpt><trkpt lat="44.536648702450954" lon="8.311992613614212"><ele>323.0</ele><time>2026-05-01T09:30:10Z</time></trkpt><trkpt lat="44.536631776410175" lon="8.31214087422285"><ele>323.0</ele><time>2026-05-01T09:30:11Z</time></trkpt><trkpt lat="44.53666499462199" lon="8.312290595896851"><ele>323.0</ele><time>2026-05-01T09:30:12Z</time></trkpt><trkpt lat="44.53676515689628" lon="8.312387191756233"><ele>323.0</ele><time>2026-05-01T09:30:13Z</time></trkpt><trkpt lat="44.536824354411564" lon="8.312512105710367"><ele>323.0</ele><time>2026-05-01T09:30:14Z</time></trkpt><trkpt lat="44.5368683739209" lon="8.312643838126364"><ele>323.2</ele><time>2026-05-01T09:30:15Z</time></trkpt><trkpt lat="44.53683820772114" lon="8.31277684276776"><ele>323.4</ele><time>2026-05-01T09:30:16Z</time></trkpt><trkpt lat="44.53680256568914" lon="8.312904358425154"><ele>323.59999999999997</ele><time>2026-05-01T09:30:17Z</time></trkpt><trkpt lat="44.53674086469197" lon="8.313016817830547"><ele>323.79999999999995</ele><time>2026-05-01T09:30:18Z</time></trkpt><trkpt lat="44.5366296412651" lon="8.313052041973616"><ele>324.0</ele><time>2026-05-01T09:30:19Z</time></trkpt><trkpt lat="44.5365555149114" lon="8.313102208956028"><ele>324.6</ele><time>2026-05-01T09:30:20Z</time></trkpt><trkpt lat="44.53648207089969" lon="8.313213946046533"><ele>325.2</ele><time>2026-05-01T09:30:21Z</time></trkpt><trkpt lat="44.53643099077598" lon="8.31334107286524"><ele>325.8</ele><time>2026-05-01T09:30:22Z</time></trkpt><trkpt lat="44.53643281327276" lon="8.313504638424503"><ele>326.40000000000003</ele><time>2026-05-01T09:30:22.999Z</time></trkpt><trkpt lat="44.53642303766462" lon="8.31365719142664"><ele>327.0</ele><time>2026-05-01T09:30:23.999Z</time></trkpt><trkpt lat="44.53633955022507" lon="8.313750112885435"><ele>327.0</ele><time>2026-05-01T09:30:24.999Z</time></trkpt><trkpt lat="44.53625044068259" lon="8.313818150010833"><ele>327.0</ele><time>2026-05-01T09:30:25.999Z</time></trkpt><trkpt lat="44.53619098332793" lon="8.313919850031555"><ele>327.0</ele><time>2026-05-01T09:30:26.999Z</time></trkpt><trkpt lat="44.5361637995012" lon="8.314060943153253"><ele>327.0</ele><time>2026-05-01T09:30:27.999Z</time></trkpt><trkpt lat="44.53620027545663" lon="8.314205366994184"><ele>327.0</ele><time>2026-05-01T09:30:28.999Z</time></trkpt><trkpt lat="44.536246092591284" lon="8.31432821455903"><ele>322.3333333333333</ele><time>2026-05-01T09:30:29.999Z</time></trkpt><trkpt lat="44.53621121715002" lon="8.314445845412305"><ele>317.6666666666667</ele><time>2026-05-01T09:30:30.999Z</time></trkpt><trkpt lat="44.53615433941824" lon="8.314526420361922"><ele>313.0</ele><time>2026-05-01T09:30:31.999Z</time></trkpt><trkpt lat="44.53608603075738" lon="8.314564764863885"><ele>308.33333333333337</ele><time>2026-05-01T09:30:32.999Z</time></trkpt><trkpt lat="44.536039768861905" lon="8.314631011161245"><ele>303.6666666666667</ele><time>2026-05-01T09:30:33.999Z</time></trkpt><trkpt lat="44.536005207305784" lon="8.31472018202131"><ele>299.0</ele><time>2026-05-01T09:30:34.999Z</time></trkpt><trkpt lat="44.53598173567389" lon="8.31481450903884"><ele>299.0</ele><time>2026-05-01T09:30:35.999Z</time></trkpt><trkpt lat="44.53599170916889" lon="8.31492123648415"><ele>299.0</ele><time>2026-05-01T09:30:36.999Z</time></trkpt><trkpt lat="44.536030855640526" lon="8.315017664572405"><ele>299.0</ele><time>2026-05-01T09:30:37.999Z</time></trkpt><trkpt lat="44.536110574871095" lon="8.31505884257389"><ele>299.0</ele><time>2026-05-01T09:30:38.999Z</time></trkpt><trkpt lat="44.53617533819546" lon="8.315112118831648"><ele>299.0</ele><time>2026-05-01T09:30:39.999Z</time></trkpt><trkpt lat="44.5362215475482" lon="8.315194676978647"><ele>299.0</ele><time>2026-05-01T09:30:40.999Z</time></trkpt><trkpt lat="44.536272984114014" lon="8.31528073366905"><ele>301.33333333333337</ele><time>2026-05-01T09:30:41.999Z</time></trkpt><trkpt lat="44.536315057179536" lon="8.315369518552043"><ele>303.6666666666667</ele><time>2026-05-01T09:30:42.999Z</time></trkpt><trkpt lat="44.536370677729344" lon="8.315453714461931"><ele>306.0</ele><time>2026-05-01T09:30:43.999Z</time></trkpt><trkpt lat="44.536459769588376" lon="8.315490238340997"><ele>308.3333333333333</ele><time>2026-05-01T09:30:44.999Z</time></trkpt><trkpt lat="44.536547920517215" lon="8.315515740829774"><ele>310.66666666666663</ele><time>2026-05-01T09:30:45.999Z</time></trkpt><trkpt lat="44.5366407059911" lon="8.3155305608028"><ele>313.0</ele><time>2026-05-01T09:30:46.999Z</time></trkpt><trkpt lat="44.536738766501394" lon="8.315552513433106"><ele>312.4</ele><time>2026-05-01T09:30:47.999Z</time></trkpt><trkpt lat="44.53683499452896" lon="8.315581818077526"><ele>311.8</ele><time>2026-05-01T09:30:48.999Z</time></trkpt><trkpt lat="44.53693124469323" lon="8.315616397301863"><ele>311.2</ele><time>2026-05-01T09:30:49.999Z</time></trkpt><trkpt lat="44.53702995963185" lon="8.31563622894768"><ele>310.6</ele><time>2026-05-01T09:30:50.999Z</time></trkpt><trkpt lat="44.537134300699044" lon="8.315620779915335"><ele>310.0</ele><time>2026-05-01T09:30:51.999Z</time></trkpt><trkpt lat="44.53724222000747" lon="8.315569814004164"><ele>310.0</ele><time>2026-05-01T09:30:52.999Z</time></trkpt><trkpt lat="44.5373430869055" lon="8.315496718536918"><ele>310.0</ele><time>2026-05-01T09:30:53.999Z</time></trkpt><trkpt lat="44.53743963108539" lon="8.315417914259118"><ele>310.0</ele><time>2026-05-01T09:30:54.999Z</time></trkpt><trkpt lat="44.537543820823146" lon="8.31537402900872"><ele>310.0</ele><time>2026-05-01T09:30:55.999Z</time></trkpt><trkpt lat="44.53764347067763" lon="8.31530455203724"><ele>310.0</ele><time>2026-05-01T09:30:56.999Z</time></trkpt><trkpt lat="44.53774994971029" lon="8.315256879686052"><ele>310.0</ele><time>2026-05-01T09:30:57.999Z</time></trkpt><trkpt lat="44.53785715571527" lon="8.315205108850282"><ele>310.0</ele><time>2026-05-01T09:30:58.999Z</time></trkpt><trkpt lat="44.53796194713993" lon="8.315173318324394"><ele>310.0</ele><time>2026-05-01T09:31:00Z</time></trkpt><trkpt lat="44.53805005635656" lon="8.315133841039865"><ele>310.0</ele><time>2026-05-01T09:31:01Z</time></trkpt><trkpt lat="44.5381188958903" lon="8.315056923357199"><ele>310.0</ele><time>2026-05-01T09:31:02Z</time></trkpt><trkpt lat="44.53818858351987" lon="8.314979096329342"><ele>305.6</ele><time>2026-05-01T09:31:03Z</time></trkpt><trkpt lat="44.53827684721415" lon="8.31493597887423"><ele>301.2</ele><time>2026-05-01T09:31:04Z</time></trkpt><trkpt lat="44.5383725039674" lon="8.314940768284108"><ele>296.8</ele><time>2026-05-01T09:31:05Z</time></trkpt><trkpt lat="44.53846223704295" lon="8.314933771328306"><ele>292.4</ele><time>2026-05-01T09:31:06Z</time></trkpt><trkpt lat="44.53852850299953" lon="8.314852845513334"><ele>288.0</ele><time>2026-05-01T09:31:07Z</time></trkpt><trkpt lat="44.538577503247424" lon="8.314739052773144"><ele>288.0</ele><time>2026-05-01T09:31:08Z</time></trkpt><trkpt lat="44.5386329001866" lon="8.31464992520884"><ele>288.0</ele><time>2026-05-01T09:31:09Z</time></trkpt><trkpt lat="44.538671810392856" lon="8.31457334025193"><ele>288.0</ele><time>2026-05-01T09:31:10Z</time></trkpt><trkpt lat="44.53875074027642" lon="8.314551595995997"><ele>288.0</ele><time>2026-05-01T09:31:12Z</time></trkpt><trkpt lat="44.53875599244938" lon="8.314734034733148"><ele>288.0</ele><time>2026-05-01T09:31:14Z</time></trkpt><trkpt lat="44.538681185417694" lon="8.314797074084456"><ele>288.0</ele><time>2026-05-01T09:31:15Z</time></trkpt><trkpt lat="44.53861934447429" lon="8.31487855568738"><ele>288.0</ele><time>2026-05-01T09:31:16Z</time></trkpt><trkpt lat="44.538559337074254" lon="8.314958318051868"><ele>288.0</ele><time>2026-05-01T09:31:17Z</time></trkpt><trkpt lat="44.53850743875993" lon="8.31504374707917"><ele>288.0</ele><time>2026-05-01T09:31:18Z</time></trkpt><trkpt lat="44.538434710163216" lon="8.315094116791895"><ele>288.0</ele><time>2026-05-01T09:31:19Z</time></trkpt><trkpt lat="44.538356992430465" lon="8.315121354539473"><ele>288.0</ele><time>2026-05-01T09:31:20Z</time></trkpt><trkpt lat="44.53827668770675" lon="8.3151593078245"><ele>288.0</ele><time>2026-05-01T09:31:21Z</time></trkpt><trkpt lat="44.53819619646144" lon="8.315225157216013"><ele>288.0</ele><time>2026-05-01T09:31:22Z</time></trkpt><trkpt lat="44.53811341987232" lon="8.315306126691542"><ele>288.0</ele><time>2026-05-01T09:31:23Z</time></trkpt><trkpt lat="44.53803878368509" lon="8.31539917423229"><ele>288.0</ele><time>2026-05-01T09:31:24Z</time></trkpt><trkpt lat="44.5379691175357" lon="8.315501480302725"><ele>288.0</ele><time>2026-05-01T09:31:25Z</time></trkpt><trkpt lat="44.53788978510427" lon="8.31559418509779"><ele>288.0</ele><time>2026-05-01T09:31:26Z</time></trkpt><trkpt lat="44.53779982772049" lon="8.31567822413623"><ele>286.6</ele><time>2026-05-01T09:31:27Z</time></trkpt><trkpt lat="44.53770685296352" lon="8.315752230683227"><ele>285.20000000000005</ele><time>2026-05-01T09:31:28Z</time></trkpt><trkpt lat="44.53761427315309" lon="8.31583168372413"><ele>283.8</ele><time>2026-05-01T09:31:29Z</time></trkpt><trkpt lat="44.537531828977805" lon="8.315928641463518"><ele>282.40000000000003</ele><time>2026-05-01T09:31:30Z</time></trkpt><trkpt lat="44.53745255312572" lon="8.316037161894998"><ele>281.0</ele><time>2026-05-01T09:31:31Z</time></trkpt><trkpt lat="44.53736046054198" lon="8.316131698744808"><ele>281.0</ele><time>2026-05-01T09:31:32Z</time></trkpt><trkpt lat="44.53726661610393" lon="8.31622342629037"><ele>281.0</ele><time>2026-05-01T09:31:33Z</time></trkpt><trkpt lat="44.537187302561236" lon="8.316347712262772"><ele>281.0</ele><time>2026-05-01T09:31:34Z</time></trkpt><trkpt lat="44.537115501753995" lon="8.316482389239743"><ele>281.0</ele><time>2026-05-01T09:31:35Z</time></trkpt><trkpt lat="44.537049139213245" lon="8.316621269737794"><ele>280.5</ele><time>2026-05-01T09:31:36Z</time></trkpt><trkpt lat="44.53699942620553" lon="8.316771011224656"><ele>280.0</ele><time>2026-05-01T09:31:37Z</time></trkpt><trkpt lat="44.536970546904335" lon="8.316932569786806"><ele>279.5</ele><time>2026-05-01T09:31:38Z</time></trkpt><trkpt lat="44.536948471385365" lon="8.317094435611722"><ele>279.0</ele><time>2026-05-01T09:31:39Z</time></trkpt><trkpt lat="44.536911273749865" lon="8.31725028182044"><ele>279.0</ele><time>2026-05-01T09:31:40Z</time></trkpt><trkpt lat="44.536868067097245" lon="8.317407600058178"><ele>279.0</ele><time>2026-05-01T09:31:41Z</time></trkpt><trkpt lat="44.536843943748565" lon="8.31757050712129"><ele>279.0</ele><time>2026-05-01T09:31:42Z</time></trkpt><trkpt lat="44.53684144165614" lon="8.317738785343218"><ele>279.0</ele><time>2026-05-01T09:31:43Z</time></trkpt><trkpt lat="44.5368382213885" lon="8.317905387274317"><ele>279.0</ele><time>2026-05-01T09:31:44Z</time></trkpt><trkpt lat="44.536792408557005" lon="8.31805839234482"><ele>279.0</ele><time>2026-05-01T09:31:45Z</time></trkpt><trkpt lat="44.536776177169436" lon="8.31822574998848"><ele>279.0</ele><time>2026-05-01T09:31:46Z</time></trkpt><trkpt lat="44.53675935152567" lon="8.318387767648943"><ele>279.0</ele><time>2026-05-01T09:31:47Z</time></trkpt><trkpt lat="44.53677089521805" lon="8.318550273042403"><ele>276.5</ele><time>2026-05-01T09:31:48Z</time></trkpt><trkpt lat="44.536792456030305" lon="8.31871049831721"><ele>274.0</ele><time>2026-05-01T09:31:49Z</time></trkpt><trkpt lat="44.5368029040931" lon="8.318872410509098"><ele>271.5</ele><time>2026-05-01T09:31:50Z</time></trkpt><trkpt lat="44.53680670522369" lon="8.319035466030797"><ele>269.0</ele><time>2026-05-01T09:31:51Z</time></trkpt><trkpt lat="44.53680637977737" lon="8.31919953350094"><ele>267.25</ele><time>2026-05-01T09:31:52Z</time></trkpt><trkpt lat="44.536797783822045" lon="8.31936420514598"><ele>265.5</ele><time>2026-05-01T09:31:53Z</time></trkpt><trkpt lat="44.53679313401526" lon="8.319525943232534"><ele>263.75</ele><time>2026-05-01T09:31:54Z</time></trkpt><trkpt lat="44.53678302494465" lon="8.319685971240016"><ele>262.0</ele><time>2026-05-01T09:31:55Z</time></trkpt><trkpt lat="44.53677105188565" lon="8.319847133742533"><ele>260.5</ele><time>2026-05-01T09:31:56Z</time></trkpt><trkpt lat="44.536754717349524" lon="8.320009380636419"><ele>259.0</ele><time>2026-05-01T09:31:57Z</time></trkpt><trkpt lat="44.536738323437696" lon="8.320173505358524"><ele>257.5</ele><time>2026-05-01T09:31:58Z</time></trkpt><trkpt lat="44.53672689690193" lon="8.320336299579562"><ele>256.0</ele><time>2026-05-01T09:31:59Z</time></trkpt><trkpt lat="44.53670947665612" lon="8.320499664941243"><ele>254.75</ele><time>2026-05-01T09:32:00Z</time></trkpt><trkpt lat="44.53669954049326" lon="8.320659425313316"><ele>253.5</ele><time>2026-05-01T09:32:01Z</time></trkpt><trkpt lat="44.53668169521012" lon="8.320818155528558"><ele>252.25</ele><time>2026-05-01T09:32:02Z</time></trkpt><trkpt lat="44.53667655424654" lon="8.320979042641854"><ele>251.0</ele><time>2026-05-01T09:32:03Z</time></trkpt><trkpt lat="44.53666321902092" lon="8.321141384145385"><ele>251.0</ele><time>2026-05-01T09:32:04Z</time></trkpt><trkpt lat="44.53665168621534" lon="8.321304219642222"><ele>251.0</ele><time>2026-05-01T09:32:05Z</time></trkpt><trkpt lat="44.536655089713335" lon="8.32146924237417"><ele>251.0</ele><time>2026-05-01T09:32:06Z</time></trkpt><trkpt lat="44.53666940898456" lon="8.321634076226566"><ele>251.0</ele><time>2026-05-01T09:32:07Z</time></trkpt><trkpt lat="44.53668820928489" lon="8.321800435237419"><ele>250.4</ele><time>2026-05-01T09:32:08Z</time></trkpt><trkpt lat="44.536709906799935" lon="8.321961289345044"><ele>249.8</ele><time>2026-05-01T09:32:09Z</time></trkpt><trkpt lat="44.53672852704391" lon="8.322115211213651"><ele>249.20000000000002</ele><time>2026-05-01T09:32:10Z</time></trkpt><trkpt lat="44.536743792766075" lon="8.3222521483397"><ele>248.60000000000002</ele><time>2026-05-01T09:32:11Z</time></trkpt><trkpt lat="44.53677049957488" lon="8.322358378116204"><ele>248.0</ele><time>2026-05-01T09:32:12Z</time></trkpt><trkpt lat="44.53680758666891" lon="8.32244210447072"><ele>247.50000000000003</ele><time>2026-05-01T09:32:13Z</time></trkpt><trkpt lat="44.53684940523948" lon="8.322578240247362"><ele>247.0</ele><time>2026-05-01T09:32:15Z</time></trkpt><trkpt lat="44.53685330759434" lon="8.32266884855025"><ele>246.5</ele><time>2026-05-01T09:32:17Z</time></trkpt><trkpt lat="44.53697329509492" lon="8.322662716471347"><ele>246.0</ele><time>2026-05-01T09:32:19Z</time></trkpt><trkpt lat="44.53704150165757" lon="8.322620965542932"><ele>245.50000000000003</ele><time>2026-05-01T09:32:20Z</time></trkpt><trkpt lat="44.5371162418418" lon="8.322584733857116"><ele>245.0</ele><time>2026-05-01T09:32:21Z</time></trkpt><trkpt lat="44.53720518274755" lon="8.322557012557887"><ele>241.75</ele><time>2026-05-01T09:32:21.999Z</time></trkpt><trkpt lat="44.53730537812833" lon="8.322550620479205"><ele>238.5</ele><time>2026-05-01T09:32:22.999Z</time></trkpt><trkpt lat="44.53741971137775" lon="8.322572280360935"><ele>235.25</ele><time>2026-05-01T09:32:23.999Z</time></trkpt><trkpt lat="44.53752883350213" lon="8.322620099248116"><ele>232.0</ele><time>2026-05-01T09:32:24.999Z</time></trkpt><trkpt lat="44.53764490331906" lon="8.322735076032334"><ele>232.0</ele><time>2026-05-01T09:32:25.999Z</time></trkpt><trkpt lat="44.537725398216324" lon="8.322906006749639"><ele>232.0</ele><time>2026-05-01T09:32:26.999Z</time></trkpt><trkpt lat="44.53782743756239" lon="8.323066851925798"><ele>232.0</ele><time>2026-05-01T09:32:27.999Z</time></trkpt><trkpt lat="44.537906793632125" lon="8.32324020213418"><ele>232.0</ele><time>2026-05-01T09:32:28.999Z</time></trkpt><trkpt lat="44.5379936015212" lon="8.32340998912332"><ele>231.25</ele><time>2026-05-01T09:32:29.999Z</time></trkpt><trkpt lat="44.53808105190566" lon="8.323572896100105"><ele>230.5</ele><time>2026-05-01T09:32:30.999Z</time></trkpt><trkpt lat="44.53816661070854" lon="8.323730751325071"><ele>229.75</ele><time>2026-05-01T09:32:31.999Z</time></trkpt><trkpt lat="44.53824418051693" lon="8.323885239014935"><ele>229.0</ele><time>2026-05-01T09:32:32.999Z</time></trkpt><trkpt lat="44.538317252364514" lon="8.324037218840584"><ele>230.5</ele><time>2026-05-01T09:32:33.999Z</time></trkpt><trkpt lat="44.53838988018695" lon="8.324182595307999"><ele>232.0</ele><time>2026-05-01T09:32:34.999Z</time></trkpt><trkpt lat="44.53846265469607" lon="8.32432001683497"><ele>233.5</ele><time>2026-05-01T09:32:35.999Z</time></trkpt><trkpt lat="44.53854415411479" lon="8.324445881151213"><ele>235.0</ele><time>2026-05-01T09:32:36.999Z</time></trkpt><trkpt lat="44.5386490086481" lon="8.324542564059458"><ele>235.5</ele><time>2026-05-01T09:32:37.999Z</time></trkpt><trkpt lat="44.53878040263779" lon="8.324584641718321"><ele>236.0</ele><time>2026-05-01T09:32:38.999Z</time></trkpt><trkpt lat="44.538916938899696" lon="8.324572612135844"><ele>236.5</ele><time>2026-05-01T09:32:39.999Z</time></trkpt><trkpt lat="44.53903740082601" lon="8.324537108651258"><ele>237.0</ele><time>2026-05-01T09:32:40.999Z</time></trkpt><trkpt lat="44.539148873666896" lon="8.324509211055291"><ele>237.0</ele><time>2026-05-01T09:32:41.999Z</time></trkpt><trkpt lat="44.539266151224865" lon="8.324488456328117"><ele>237.0</ele><time>2026-05-01T09:32:42.999Z</time></trkpt><trkpt lat="44.53939196213161" lon="8.324466521413136"><ele>237.0</ele><time>2026-05-01T09:32:43.999Z</time></trkpt><trkpt lat="44.539524449962336" lon="8.324449794675624"><ele>237.0</ele><time>2026-05-01T09:32:44.999Z</time></trkpt><trkpt lat="44.53965466745562" lon="8.32443973016245"><ele>237.25</ele><time>2026-05-01T09:32:45.999Z</time></trkpt><trkpt lat="44.539774581296484" lon="8.324453195732934"><ele>237.5</ele><time>2026-05-01T09:32:46.999Z</time></trkpt><trkpt lat="44.5398824844386" lon="8.324495514286967"><ele>237.75</ele><time>2026-05-01T09:32:47.999Z</time></trkpt><trkpt lat="44.539980180346106" lon="8.32456408118469"><ele>238.0</ele><time>2026-05-01T09:32:48.999Z</time></trkpt><trkpt lat="44.54006264896791" lon="8.324685000782692"><ele>239.66666666666666</ele><time>2026-05-01T09:32:49.999Z</time></trkpt><trkpt lat="44.54013366311656" lon="8.324826671215378"><ele>241.33333333333331</ele><time>2026-05-01T09:32:50.999Z</time></trkpt><trkpt lat="44.54019111748038" lon="8.325022793149154"><ele>243.0</ele><time>2026-05-01T09:32:51.999Z</time></trkpt><trkpt lat="44.540267944828344" lon="8.32526598884574"><ele>243.0</ele><time>2026-05-01T09:32:52.999Z</time></trkpt><trkpt lat="44.540349901745174" lon="8.325532354762712"><ele>243.0</ele><time>2026-05-01T09:32:53.999Z</time></trkpt><trkpt lat="44.540431131385446" lon="8.325786169892293"><ele>243.0</ele><time>2026-05-01T09:32:54.999Z</time></trkpt><trkpt lat="44.54051786893634" lon="8.326038788699197"><ele>244.0</ele><time>2026-05-01T09:32:55.999Z</time></trkpt><trkpt lat="44.54059835831663" lon="8.326287929310366"><ele>245.0</ele><time>2026-05-01T09:32:56.999Z</time></trkpt><trkpt lat="44.54067705785382" lon="8.326531887267137"><ele>246.0</ele><time>2026-05-01T09:32:57.999Z</time></trkpt><trkpt lat="44.540750941872794" lon="8.32677604567027"><ele>246.0</ele><time>2026-05-01T09:32:58.999Z</time></trkpt><trkpt lat="44.54082635629966" lon="8.327004626927511"><ele>246.0</ele><time>2026-05-01T09:32:59.999Z</time></trkpt><trkpt lat="44.54087555811046" lon="8.327200678626335"><ele>246.0</ele><time>2026-05-01T09:33:00.999Z</time></trkpt><trkpt lat="44.54092911820732" lon="8.327372915357774"><ele>248.66666666666669</ele><time>2026-05-01T09:33:01.999Z</time></trkpt><trkpt lat="44.541039781451325" lon="8.327729509722142"><ele>251.33333333333334</ele><time>2026-05-01T09:33:02.999Z</time></trkpt><trkpt lat="44.54108659604384" lon="8.327932752879443"><ele>254.0</ele><time>2026-05-01T09:33:03.999Z</time></trkpt><trkpt lat="44.541089015426024" lon="8.328132209659264"><ele>256.0</ele><time>2026-05-01T09:33:04.999Z</time></trkpt><trkpt lat="44.541050228598436" lon="8.328333897862468"><ele>258.0</ele><time>2026-05-01T09:33:06Z</time></trkpt><trkpt lat="44.541010417643136" lon="8.328569608642574"><ele>260.0</ele><time>2026-05-01T09:33:07Z</time></trkpt><trkpt lat="44.54099893823306" lon="8.328827599121958"><ele>261.6666666666667</ele><time>2026-05-01T09:33:08Z</time></trkpt><trkpt lat="44.540949091192104" lon="8.329080834307169"><ele>263.3333333333333</ele><time>2026-05-01T09:33:09Z</time></trkpt><trkpt lat="44.54091667296401" lon="8.329352306454913"><ele>265.0</ele><time>2026-05-01T09:33:10Z</time></trkpt><trkpt lat="44.54092724369904" lon="8.32964517152251"><ele>263.3333333333333</ele><time>2026-05-01T09:33:11Z</time></trkpt><trkpt lat="44.54096512789182" lon="8.329933269202506"><ele>261.6666666666667</ele><time>2026-05-01T09:33:12Z</time></trkpt><trkpt lat="44.54100359832387" lon="8.3302217084792"><ele>260.0</ele><time>2026-05-01T09:33:13Z</time></trkpt><trkpt lat="44.54103268668958" lon="8.330509130423682"><ele>258.33333333333337</ele><time>2026-05-01T09:33:14Z</time></trkpt><trkpt lat="44.541053156962654" lon="8.330790503796369"><ele>256.6666666666667</ele><time>2026-05-01T09:33:15Z</time></trkpt><trkpt lat="44.541075991550194" lon="8.331079606119594"><ele>255.0</ele><time>2026-05-01T09:33:16Z</time></trkpt><trkpt lat="44.541071938256835" lon="8.331364325080358"><ele>254.66666666666669</ele><time>2026-05-01T09:33:17Z</time></trkpt><trkpt lat="44.541066946639134" lon="8.3316529058479"><ele>254.33333333333334</ele><time>2026-05-01T09:33:18Z</time></trkpt><trkpt lat="44.54105518649456" lon="8.331936743504778"><ele>254.0</ele><time>2026-05-01T09:33:19Z</time></trkpt><trkpt lat="44.54104249222327" lon="8.332212593724536"><ele>254.33333333333334</ele><time>2026-05-01T09:33:20Z</time></trkpt><trkpt lat="44.54104830387284" lon="8.33248244957293"><ele>254.66666666666669</ele><time>2026-05-01T09:33:21Z</time></trkpt><trkpt lat="44.54105164700697" lon="8.332732007112472"><ele>255.0</ele><time>2026-05-01T09:33:22Z</time></trkpt><trkpt lat="44.54109924316083" lon="8.332974830148201"><ele>256.3333333333333</ele><time>2026-05-01T09:33:23Z</time></trkpt><trkpt lat="44.54119056666298" lon="8.33320963026139"><ele>257.66666666666663</ele><time>2026-05-01T09:33:24Z</time></trkpt><trkpt lat="44.54129126916663" lon="8.33344693540909"><ele>259.0</ele><time>2026-05-01T09:33:25Z</time></trkpt><trkpt lat="44.541375064303374" lon="8.333680985065966"><ele>254.0</ele><time>2026-05-01T09:33:26Z</time></trkpt><trkpt lat="44.54147392066959" lon="8.333914073719576"><ele>249.0</ele><time>2026-05-01T09:33:27Z</time></trkpt><trkpt lat="44.54155578242526" lon="8.334161021713207"><ele>244.0</ele><time>2026-05-01T09:33:28Z</time></trkpt><trkpt lat="44.54163674555688" lon="8.334395038715758"><ele>244.0</ele><time>2026-05-01T09:33:29Z</time></trkpt><trkpt lat="44.54172060536245" lon="8.33463751109424"><ele>244.0</ele><time>2026-05-01T09:33:30Z</time></trkpt><trkpt lat="44.54180383062889" lon="8.33487889815708"><ele>244.0</ele><time>2026-05-01T09:33:31Z</time></trkpt><trkpt lat="44.541885837437235" lon="8.335107073488025"><ele>243.0</ele><time>2026-05-01T09:33:32Z</time></trkpt><trkpt lat="44.54197546843119" lon="8.33534674975318"><ele>242.0</ele><time>2026-05-01T09:33:33Z</time></trkpt><trkpt lat="44.54206258180759" lon="8.335582052934182"><ele>241.0</ele><time>2026-05-01T09:33:34Z</time></trkpt><trkpt lat="44.54214598801908" lon="8.335813074418727"><ele>241.0</ele><time>2026-05-01T09:33:35Z</time></trkpt><trkpt lat="44.54222769570181" lon="8.3360415468198"><ele>241.0</ele><time>2026-05-01T09:33:36Z</time></trkpt><trkpt lat="44.54231152702828" lon="8.336271771668713"><ele>241.0</ele><time>2026-05-01T09:33:37Z</time></trkpt><trkpt lat="44.54239297321822" lon="8.336500941538684"><ele>242.66666666666666</ele><time>2026-05-01T09:33:38Z</time></trkpt><trkpt lat="44.54247052412588" lon="8.33672182377783"><ele>244.33333333333331</ele><time>2026-05-01T09:33:39Z</time></trkpt><trkpt lat="44.5425471021173" lon="8.336940266342628"><ele>246.0</ele><time>2026-05-01T09:33:40Z</time></trkpt><trkpt lat="44.54262423338545" lon="8.337163334705314"><ele>249.0</ele><time>2026-05-01T09:33:41Z</time></trkpt><trkpt lat="44.54269703524161" lon="8.337376676995532"><ele>252.0</ele><time>2026-05-01T09:33:42Z</time></trkpt><trkpt lat="44.54277072093593" lon="8.33758758830074"><ele>255.0</ele><time>2026-05-01T09:33:43Z</time></trkpt><trkpt lat="44.54284518979325" lon="8.337793423566618"><ele>250.33333333333331</ele><time>2026-05-01T09:33:44Z</time></trkpt><trkpt lat="44.542930106588216" lon="8.337982763461158"><ele>245.66666666666666</ele><time>2026-05-01T09:33:45Z</time></trkpt><trkpt lat="44.5430367805484" lon="8.338149238427308"><ele>241.0</ele><time>2026-05-01T09:33:46Z</time></trkpt><trkpt lat="44.54315849045671" lon="8.338289779051356"><ele>241.0</ele><time>2026-05-01T09:33:47Z</time></trkpt><trkpt lat="44.54329954923533" lon="8.33840395160779"><ele>241.0</ele><time>2026-05-01T09:33:48Z</time></trkpt><trkpt lat="44.54345905356898" lon="8.338484781652571"><ele>241.0</ele><time>2026-05-01T09:33:49Z</time></trkpt><trkpt lat="44.54362739698781" lon="8.338543287340842"><ele>239.33333333333331</ele><time>2026-05-01T09:33:50Z</time></trkpt><trkpt lat="44.543799410438076" lon="8.338605634214945"><ele>237.66666666666669</ele><time>2026-05-01T09:33:51Z</time></trkpt><trkpt lat="44.54396765840728" lon="8.338675814884704"><ele>236.0</ele><time>2026-05-01T09:33:52Z</time></trkpt><trkpt lat="44.54413941832786" lon="8.338745279460145"><ele>236.0</ele><time>2026-05-01T09:33:53Z</time></trkpt><trkpt lat="44.54430902957565" lon="8.338812700078991"><ele>236.0</ele><time>2026-05-01T09:33:54Z</time></trkpt><trkpt lat="44.54446875364201" lon="8.338875678564483"><ele>236.0</ele><time>2026-05-01T09:33:55Z</time></trkpt><trkpt lat="44.54462092434425" lon="8.338936102701783"><ele>237.0</ele><time>2026-05-01T09:33:56Z</time></trkpt><trkpt lat="44.54476537581827" lon="8.339014005842554"><ele>238.0</ele><time>2026-05-01T09:33:57Z</time></trkpt><trkpt lat="44.544875145236894" lon="8.339165160455943"><ele>239.0</ele><time>2026-05-01T09:33:58Z</time></trkpt><trkpt lat="44.544992949274224" lon="8.339302347735746"><ele>239.0</ele><time>2026-05-01T09:33:59Z</time></trkpt><trkpt lat="44.54509960347352" lon="8.33946907542695"><ele>239.0</ele><time>2026-05-01T09:34:00Z</time></trkpt><trkpt lat="44.545224711353804" lon="8.339617519242783"><ele>239.0</ele><time>2026-05-01T09:34:01Z</time></trkpt><trkpt lat="44.545361510179426" lon="8.3397301053625"><ele>242.0</ele><time>2026-05-01T09:34:02Z</time></trkpt><trkpt lat="44.545497819747915" lon="8.339807835720828"><ele>245.0</ele><time>2026-05-01T09:34:03Z</time></trkpt><trkpt lat="44.54562192179234" lon="8.339861867076134"><ele>248.0</ele><time>2026-05-01T09:34:04Z</time></trkpt><trkpt lat="44.54572691774678" lon="8.339912261556671"><ele>251.0</ele><time>2026-05-01T09:34:05Z</time></trkpt><trkpt lat="44.54581416342195" lon="8.33996780847012"><ele>251.0</ele><time>2026-05-01T09:34:06Z</time></trkpt><trkpt lat="44.54587966284939" lon="8.34001733636185"><ele>251.00000000000003</ele><time>2026-05-01T09:34:07Z</time></trkpt><trkpt lat="44.545959051539505" lon="8.340013538891158"><ele>251.00000000000003</ele><time>2026-05-01T09:34:09Z</time></trkpt><trkpt lat="44.54587330841977" lon="8.339892776902227"><ele>251.0</ele><time>2026-05-01T09:34:12Z</time></trkpt><trkpt lat="44.54577939064026" lon="8.339871822113347"><ele>251.0</ele><time>2026-05-01T09:34:13Z</time></trkpt><trkpt lat="44.54566675759562" lon="8.339825516765602"><ele>251.0</ele><time>2026-05-01T09:34:14Z</time></trkpt><trkpt lat="44.545536923306614" lon="8.339757594397758"><ele>251.0</ele><time>2026-05-01T09:34:15Z</time></trkpt><trkpt lat="44.54537876618767" lon="8.339673931684723"><ele>251.0</ele><time>2026-05-01T09:34:16Z</time></trkpt><trkpt lat="44.54522836031182" lon="8.339564226435334"><ele>248.0</ele><time>2026-05-01T09:34:17Z</time></trkpt><trkpt lat="44.54510172771878" lon="8.33941584698611"><ele>245.0</ele><time>2026-05-01T09:34:18Z</time></trkpt><trkpt lat="44.545004640201554" lon="8.339265171991729"><ele>242.0</ele><time>2026-05-01T09:34:19Z</time></trkpt><trkpt lat="44.54492092026782" lon="8.339126051177477"><ele>239.0</ele><time>2026-05-01T09:34:20Z</time></trkpt><trkpt lat="44.544837928306755" lon="8.33901655412633"><ele>239.00000000000003</ele><time>2026-05-01T09:34:21Z</time></trkpt><trkpt lat="44.54475308331594" lon="8.338953015904805"><ele>239.0</ele><time>2026-05-01T09:34:22Z</time></trkpt><trkpt lat="44.54468803658935" lon="8.33896270202423"><ele>239.0</ele><time>2026-05-01T09:34:23Z</time></trkpt><trkpt lat="44.54465369501204" lon="8.339095340827242"><ele>239.0</ele><time>2026-05-01T09:34:25Z</time></trkpt><trkpt lat="44.544666676842006" lon="8.339187514340782"><ele>239.00000000000003</ele><time>2026-05-01T09:34:26Z</time></trkpt><trkpt lat="44.544671491908375" lon="8.339318938731017"><ele>239.0</ele><time>2026-05-01T09:34:27Z</time></trkpt><trkpt lat="44.54466562554874" lon="8.33947000540644"><ele>239.0</ele><time>2026-05-01T09:34:28Z</time></trkpt><trkpt lat="44.54461734797882" lon="8.339656655766525"><ele>239.0</ele><time>2026-05-01T09:34:28.999Z</time></trkpt><trkpt lat="44.54459443446222" lon="8.33987070829631"><ele>239.0</ele><time>2026-05-01T09:34:29.999Z</time></trkpt><trkpt lat="44.54455859710706" lon="8.34007612334667"><ele>239.0</ele><time>2026-05-01T09:34:30.999Z</time></trkpt><trkpt lat="44.544515422331685" lon="8.340264795604627"><ele>239.0</ele><time>2026-05-01T09:34:31.999Z</time></trkpt><trkpt lat="44.544494844107625" lon="8.340448641142302"><ele>239.0</ele><time>2026-05-01T09:34:32.999Z</time></trkpt><trkpt lat="44.54447287601075" lon="8.340632414132966"><ele>239.0</ele><time>2026-05-01T09:34:33.999Z</time></trkpt><trkpt lat="44.544467673620375" lon="8.340818142678291"><ele>239.0</ele><time>2026-05-01T09:34:34.999Z</time></trkpt><trkpt lat="44.544459835192995" lon="8.3410012636352"><ele>240.0</ele><time>2026-05-01T09:34:35.999Z</time></trkpt><trkpt lat="44.544467757198724" lon="8.341178085413205"><ele>241.0</ele><time>2026-05-01T09:34:36.999Z</time></trkpt><trkpt lat="44.54449622573175" lon="8.341347577880985"><ele>242.0</ele><time>2026-05-01T09:34:37.999Z</time></trkpt><trkpt lat="44.54457675817119" lon="8.341511537436514"><ele>243.0</ele><time>2026-05-01T09:34:38.999Z</time></trkpt><trkpt lat="44.544601323071724" lon="8.341697682852189"><ele>249.5</ele><time>2026-05-01T09:34:39.999Z</time></trkpt><trkpt lat="44.54460646143927" lon="8.341878626229892"><ele>256.0</ele><time>2026-05-01T09:34:40.999Z</time></trkpt><trkpt lat="44.54460402570761" lon="8.342046465718456"><ele>262.5</ele><time>2026-05-01T09:34:41.999Z</time></trkpt><trkpt lat="44.54459675185068" lon="8.34219278342644"><ele>269.0</ele><time>2026-05-01T09:34:42.999Z</time></trkpt><trkpt lat="44.54456445515111" lon="8.342328738631188"><ele>263.75</ele><time>2026-05-01T09:34:43.999Z</time></trkpt><trkpt lat="44.544476390670994" lon="8.342430535233092"><ele>258.5</ele><time>2026-05-01T09:34:44.999Z</time></trkpt><trkpt lat="44.544371663731404" lon="8.342558828041438"><ele>253.25</ele><time>2026-05-01T09:34:45.999Z</time></trkpt><trkpt lat="44.54428985027279" lon="8.342693693936132"><ele>248.0</ele><time>2026-05-01T09:34:46.999Z</time></trkpt><trkpt lat="44.544225471359866" lon="8.342816066731794"><ele>248.0</ele><time>2026-05-01T09:34:47.999Z</time></trkpt><trkpt lat="44.54420841371519" lon="8.342958999202038"><ele>248.0</ele><time>2026-05-01T09:34:48.999Z</time></trkpt><trkpt lat="44.54423765606569" lon="8.343104528834113"><ele>248.0</ele><time>2026-05-01T09:34:49.999Z</time></trkpt><trkpt lat="44.544287050213484" lon="8.343244745110827"><ele>248.0</ele><time>2026-05-01T09:34:50.999Z</time></trkpt><trkpt lat="44.544342403374756" lon="8.343379516098656"><ele>248.0</ele><time>2026-05-01T09:34:51.999Z</time></trkpt><trkpt lat="44.54438544980742" lon="8.343486470205889"><ele>251.0</ele><time>2026-05-01T09:34:52.999Z</time></trkpt><trkpt lat="44.544422801711825" lon="8.343579275425109"><ele>254.0</ele><time>2026-05-01T09:34:53.999Z</time></trkpt><trkpt lat="44.544478915071515" lon="8.34372843384232"><ele>257.0</ele><time>2026-05-01T09:34:55.999Z</time></trkpt><trkpt lat="44.544524569066894" lon="8.343901237195201"><ele>260.0</ele><time>2026-05-01T09:34:57.999Z</time></trkpt><trkpt lat="44.54461983256036" lon="8.343992013273617"><ele>263.0</ele><time>2026-05-01T09:34:58.999Z</time></trkpt><trkpt lat="44.544688218792835" lon="8.344114189045602"><ele>267.0</ele><time>2026-05-01T09:34:59.999Z</time></trkpt><trkpt lat="44.544758252305435" lon="8.344239307756046"><ele>271.0</ele><time>2026-05-01T09:35:00.999Z</time></trkpt><trkpt lat="44.54482300643376" lon="8.344354995901597"><ele>275.0</ele><time>2026-05-01T09:35:01.999Z</time></trkpt><trkpt lat="44.544877342513644" lon="8.344460597074645"><ele>279.0</ele><time>2026-05-01T09:35:02.999Z</time></trkpt><trkpt lat="44.54492058780082" lon="8.344575853124121"><ele>283.0</ele><time>2026-05-01T09:35:03.999Z</time></trkpt><trkpt lat="44.544919201365865" lon="8.344709241227909"><ele>283.2</ele><time>2026-05-01T09:35:04.999Z</time></trkpt><trkpt lat="44.544918246827734" lon="8.344855130590958"><ele>283.4</ele><time>2026-05-01T09:35:05.999Z</time></trkpt><trkpt lat="44.54494864026911" lon="8.344996711641084"><ele>283.59999999999997</ele><time>2026-05-01T09:35:06.999Z</time></trkpt><trkpt lat="44.54501946286178" lon="8.34510866121402"><ele>283.8</ele><time>2026-05-01T09:35:07.999Z</time></trkpt><trkpt lat="44.54505828222325" lon="8.345232537066504"><ele>284.0</ele><time>2026-05-01T09:35:08.999Z</time></trkpt><trkpt lat="44.54510709801892" lon="8.345332623107625"><ele>284.0</ele><time>2026-05-01T09:35:09.999Z</time></trkpt><trkpt lat="44.545156036570006" lon="8.34543296086772"><ele>284.0</ele><time>2026-05-01T09:35:10.999Z</time></trkpt><trkpt lat="44.54520981071421" lon="8.345543212896821"><ele>284.0</ele><time>2026-05-01T09:35:12Z</time></trkpt><trkpt lat="44.545269410926004" lon="8.345667831273031"><ele>284.0</ele><time>2026-05-01T09:35:13Z</time></trkpt><trkpt lat="44.54533346895563" lon="8.345802940093497"><ele>284.0</ele><time>2026-05-01T09:35:14Z</time></trkpt><trkpt lat="44.54539709742073" lon="8.345944374973426"><ele>282.75</ele><time>2026-05-01T09:35:15Z</time></trkpt><trkpt lat="44.54545678225237" lon="8.346098857014493"><ele>281.5</ele><time>2026-05-01T09:35:16Z</time></trkpt><trkpt lat="44.54550100240526" lon="8.346252860611235"><ele>280.25</ele><time>2026-05-01T09:35:17Z</time></trkpt><trkpt lat="44.545542272642564" lon="8.346401214381956"><ele>279.0</ele><time>2026-05-01T09:35:18Z</time></trkpt><trkpt lat="44.5455849978102" lon="8.346554798218277"><ele>279.0</ele><time>2026-05-01T09:35:19Z</time></trkpt><trkpt lat="44.54562916489567" lon="8.346713565167013"><ele>279.0</ele><time>2026-05-01T09:35:20Z</time></trkpt><trkpt lat="44.54567319137669" lon="8.34687182681147"><ele>279.0</ele><time>2026-05-01T09:35:21Z</time></trkpt><trkpt lat="44.545718640660915" lon="8.347029206384518"><ele>279.0</ele><time>2026-05-01T09:35:22Z</time></trkpt><trkpt lat="44.54576277170082" lon="8.34717757074249"><ele>278.5</ele><time>2026-05-01T09:35:23Z</time></trkpt><trkpt lat="44.54582401144967" lon="8.347309479653156"><ele>278.0</ele><time>2026-05-01T09:35:24Z</time></trkpt><trkpt lat="44.545890293355065" lon="8.347438899168388"><ele>277.5</ele><time>2026-05-01T09:35:25Z</time></trkpt><trkpt lat="44.54598204473445" lon="8.347550739041159"><ele>277.0</ele><time>2026-05-01T09:35:26Z</time></trkpt><trkpt lat="44.54608804147858" lon="8.347666217158388"><ele>277.0</ele><time>2026-05-01T09:35:27Z</time></trkpt><trkpt lat="44.546179998063245" lon="8.347813579706914"><ele>277.0</ele><time>2026-05-01T09:35:28Z</time></trkpt><trkpt lat="44.546288408664495" lon="8.347955402284205"><ele>277.0</ele><time>2026-05-01T09:35:29Z</time></trkpt><trkpt lat="44.54639310249216" lon="8.348090398932408"><ele>277.0</ele><time>2026-05-01T09:35:30Z</time></trkpt><trkpt lat="44.546492712571506" lon="8.34821683396805"><ele>277.5</ele><time>2026-05-01T09:35:31Z</time></trkpt><trkpt lat="44.54659215620927" lon="8.3483430577019"><ele>278.0</ele><time>2026-05-01T09:35:32Z</time></trkpt><trkpt lat="44.54669120187399" lon="8.348468776329904"><ele>278.5</ele><time>2026-05-01T09:35:33Z</time></trkpt><trkpt lat="44.54679241832794" lon="8.348597250342912"><ele>279.0</ele><time>2026-05-01T09:35:34Z</time></trkpt><trkpt lat="44.54689161880505" lon="8.348723165434551"><ele>279.0</ele><time>2026-05-01T09:35:35Z</time></trkpt><trkpt lat="44.54698406870229" lon="8.348840512025307"><ele>279.0</ele><time>2026-05-01T09:35:36Z</time></trkpt><trkpt lat="44.54707548099335" lon="8.348958916647346"><ele>279.0</ele><time>2026-05-01T09:35:37Z</time></trkpt><trkpt lat="44.54717658244522" lon="8.349069476168394"><ele>279.0</ele><time>2026-05-01T09:35:38Z</time></trkpt><trkpt lat="44.54724204004496" lon="8.349225350217523"><ele>281.0</ele><time>2026-05-01T09:35:39Z</time></trkpt><trkpt lat="44.54726694170469" lon="8.349421404382696"><ele>283.0</ele><time>2026-05-01T09:35:40Z</time></trkpt><trkpt lat="44.54730269323382" lon="8.349607727985193"><ele>285.0</ele><time>2026-05-01T09:35:41Z</time></trkpt><trkpt lat="44.54735194501425" lon="8.349778697848658"><ele>287.0</ele><time>2026-05-01T09:35:42Z</time></trkpt><trkpt lat="44.547385282109154" lon="8.349942204525343"><ele>287.0</ele><time>2026-05-01T09:35:43Z</time></trkpt><trkpt lat="44.547427390772654" lon="8.350109218339949"><ele>287.0</ele><time>2026-05-01T09:35:44Z</time></trkpt><trkpt lat="44.54748971359101" lon="8.35026688191949"><ele>287.0</ele><time>2026-05-01T09:35:45Z</time></trkpt><trkpt lat="44.54757196513556" lon="8.350408173368717"><ele>287.0</ele><time>2026-05-01T09:35:46Z</time></trkpt><trkpt lat="44.5476669365048" lon="8.350530965938749"><ele>287.0</ele><time>2026-05-01T09:35:47Z</time></trkpt><trkpt lat="44.54775816249946" lon="8.350653936808229"><ele>287.0</ele><time>2026-05-01T09:35:48Z</time></trkpt><trkpt lat="44.54784952615061" lon="8.350769813382742"><ele>287.0</ele><time>2026-05-01T09:35:49Z</time></trkpt><trkpt lat="44.54794219188708" lon="8.350882884588392"><ele>287.0</ele><time>2026-05-01T09:35:50Z</time></trkpt><trkpt lat="44.548029587994805" lon="8.35102868551445"><ele>286.75</ele><time>2026-05-01T09:35:51Z</time></trkpt><trkpt lat="44.54812872226517" lon="8.351163166324216"><ele>286.5</ele><time>2026-05-01T09:35:52Z</time></trkpt><trkpt lat="44.54819982499157" lon="8.351272259686345"><ele>286.25</ele><time>2026-05-01T09:35:53Z</time></trkpt><trkpt lat="44.54829081444473" lon="8.35140793912732"><ele>286.0</ele><time>2026-05-01T09:35:54Z</time></trkpt><trkpt lat="44.54836431111341" lon="8.351553280071359"><ele>286.0</ele><time>2026-05-01T09:35:55Z</time></trkpt><trkpt lat="44.54841420505341" lon="8.35170935794353"><ele>286.0</ele><time>2026-05-01T09:35:56Z</time></trkpt><trkpt lat="44.54848201332558" lon="8.351838451526222"><ele>286.0</ele><time>2026-05-01T09:35:57Z</time></trkpt><trkpt lat="44.548569864500635" lon="8.351945792941109"><ele>286.0</ele><time>2026-05-01T09:35:58Z</time></trkpt><trkpt lat="44.54867275960072" lon="8.352064644203491"><ele>286.5</ele><time>2026-05-01T09:35:59Z</time></trkpt><trkpt lat="44.548778339392705" lon="8.352177386939832"><ele>287.0</ele><time>2026-05-01T09:36:00Z</time></trkpt><trkpt lat="44.54887987774087" lon="8.352291929473546"><ele>287.5</ele><time>2026-05-01T09:36:01Z</time></trkpt><trkpt lat="44.548963345175274" lon="8.352410475138367"><ele>288.0</ele><time>2026-05-01T09:36:02Z</time></trkpt><trkpt lat="44.54907002350234" lon="8.352493012393317"><ele>288.0</ele><time>2026-05-01T09:36:03Z</time></trkpt><trkpt lat="44.54917975036859" lon="8.352588624777184"><ele>288.0</ele><time>2026-05-01T09:36:04Z</time></trkpt><trkpt lat="44.54931078329654" lon="8.352663539279519"><ele>288.0</ele><time>2026-05-01T09:36:05Z</time></trkpt><trkpt lat="44.54945012697055" lon="8.352731648025784"><ele>288.0</ele><time>2026-05-01T09:36:06Z</time></trkpt><trkpt lat="44.5495899068719" lon="8.352802033850127"><ele>288.25</ele><time>2026-05-01T09:36:07Z</time></trkpt><trkpt lat="44.54972134383703" lon="8.352870725218292"><ele>288.5</ele><time>2026-05-01T09:36:08Z</time></trkpt><trkpt lat="44.54984077868025" lon="8.352953174598504"><ele>288.75</ele><time>2026-05-01T09:36:09Z</time></trkpt><trkpt lat="44.549947558804995" lon="8.35308074873926"><ele>289.0</ele><time>2026-05-01T09:36:10Z</time></trkpt><trkpt lat="44.55004956981471" lon="8.35319787655045"><ele>289.0</ele><time>2026-05-01T09:36:11Z</time></trkpt><trkpt lat="44.5501612846341" lon="8.353279073484797"><ele>289.0</ele><time>2026-05-01T09:36:12Z</time></trkpt><trkpt lat="44.5502630604355" lon="8.353366573425628"><ele>289.0</ele><time>2026-05-01T09:36:13Z</time></trkpt><trkpt lat="44.550359130347246" lon="8.353442893217947"><ele>289.0</ele><time>2026-05-01T09:36:14Z</time></trkpt><trkpt lat="44.55045793313449" lon="8.353513516679026"><ele>291.2</ele><time>2026-05-01T09:36:15Z</time></trkpt><trkpt lat="44.55054822655783" lon="8.353578650099587"><ele>293.4</ele><time>2026-05-01T09:36:16Z</time></trkpt><trkpt lat="44.55063335409851" lon="8.35363823613557"><ele>295.6</ele><time>2026-05-01T09:36:17Z</time></trkpt><trkpt lat="44.55071434996616" lon="8.353694324170077"><ele>297.8</ele><time>2026-05-01T09:36:18Z</time></trkpt><trkpt lat="44.55079436638193" lon="8.353759281021336"><ele>300.0</ele><time>2026-05-01T09:36:19Z</time></trkpt><trkpt lat="44.550871674997694" lon="8.353818532008301"><ele>300.0</ele><time>2026-05-01T09:36:20Z</time></trkpt><trkpt lat="44.55096248229427" lon="8.3538759058918"><ele>300.0</ele><time>2026-05-01T09:36:21Z</time></trkpt><trkpt lat="44.551069583579576" lon="8.353935269912581"><ele>300.0</ele><time>2026-05-01T09:36:22Z</time></trkpt><trkpt lat="44.551168614058476" lon="8.354004560432838"><ele>300.0</ele><time>2026-05-01T09:36:23Z</time></trkpt><trkpt lat="44.551248698975314" lon="8.354065277119798"><ele>300.0</ele><time>2026-05-01T09:36:24Z</time></trkpt><trkpt lat="44.55130662833568" lon="8.354142245509626"><ele>300.0</ele><time>2026-05-01T09:36:25Z</time></trkpt><trkpt lat="44.551346516766486" lon="8.354265633807172"><ele>300.0</ele><time>2026-05-01T09:36:26Z</time></trkpt><trkpt lat="44.551340716962734" lon="8.354442021349636"><ele>300.0</ele><time>2026-05-01T09:36:27Z</time></trkpt><trkpt lat="44.55135820640481" lon="8.354631971864904"><ele>300.0</ele><time>2026-05-01T09:36:28Z</time></trkpt><trkpt lat="44.5513864111168" lon="8.35481489862469"><ele>298.5</ele><time>2026-05-01T09:36:29Z</time></trkpt><trkpt lat="44.551403976883535" lon="8.35499440587883"><ele>297.0</ele><time>2026-05-01T09:36:30Z</time></trkpt><trkpt lat="44.55141938820917" lon="8.355153848305434"><ele>295.5</ele><time>2026-05-01T09:36:31Z</time></trkpt><trkpt lat="44.551444837852166" lon="8.355299187929386"><ele>294.0</ele><time>2026-05-01T09:36:32Z</time></trkpt><trkpt lat="44.551488168251" lon="8.355441687311192"><ele>294.75</ele><time>2026-05-01T09:36:32.999Z</time></trkpt><trkpt lat="44.55156185928917" lon="8.355567333655175"><ele>295.5</ele><time>2026-05-01T09:36:33.999Z</time></trkpt><trkpt lat="44.55166656312595" lon="8.355657034263974"><ele>296.25</ele><time>2026-05-01T09:36:34.999Z</time></trkpt><trkpt lat="44.55177726185017" lon="8.355730446599512"><ele>297.0</ele><time>2026-05-01T09:36:35.999Z</time></trkpt><trkpt lat="44.55185337414378" lon="8.355852166985857"><ele>297.0</ele><time>2026-05-01T09:36:36.999Z</time></trkpt><trkpt lat="44.551890629594006" lon="8.355996249580032"><ele>297.0</ele><time>2026-05-01T09:36:37.999Z</time></trkpt><trkpt lat="44.55191477764562" lon="8.356148158110763"><ele>297.0</ele><time>2026-05-01T09:36:38.999Z</time></trkpt><trkpt lat="44.55191151590881" lon="8.356298201861213"><ele>297.0</ele><time>2026-05-01T09:36:39.999Z</time></trkpt><trkpt lat="44.551895230948645" lon="8.356463321790862"><ele>297.0</ele><time>2026-05-01T09:36:40.999Z</time></trkpt><trkpt lat="44.55188774048163" lon="8.35663774007486"><ele>297.5</ele><time>2026-05-01T09:36:41.999Z</time></trkpt><trkpt lat="44.551868392742065" lon="8.356807502946122"><ele>298.0</ele><time>2026-05-01T09:36:42.999Z</time></trkpt><trkpt lat="44.551855296349075" lon="8.356970961011987"><ele>298.5</ele><time>2026-05-01T09:36:43.999Z</time></trkpt><trkpt lat="44.55184667667751" lon="8.357120794498618"><ele>299.0</ele><time>2026-05-01T09:36:44.999Z</time></trkpt><trkpt lat="44.55185747493678" lon="8.357270978323628"><ele>300.25</ele><time>2026-05-01T09:36:45.999Z</time></trkpt><trkpt lat="44.55189862973631" lon="8.357410792855525"><ele>301.5</ele><time>2026-05-01T09:36:46.999Z</time></trkpt><trkpt lat="44.55198160544881" lon="8.357530066169645"><ele>302.75</ele><time>2026-05-01T09:36:47.999Z</time></trkpt><trkpt lat="44.552084757737084" lon="8.357635631674173"><ele>304.0</ele><time>2026-05-01T09:36:48.999Z</time></trkpt><trkpt lat="44.55218607290872" lon="8.357768769812575"><ele>306.3333333333333</ele><time>2026-05-01T09:36:49.999Z</time></trkpt><trkpt lat="44.55229387657358" lon="8.357911071804994"><ele>308.6666666666667</ele><time>2026-05-01T09:36:50.999Z</time></trkpt><trkpt lat="44.552402707314315" lon="8.358055730729587"><ele>311.0</ele><time>2026-05-01T09:36:51.999Z</time></trkpt><trkpt lat="44.552515454104" lon="8.35821697384599"><ele>311.0</ele><time>2026-05-01T09:36:52.999Z</time></trkpt><trkpt lat="44.55263174318477" lon="8.358375415708926"><ele>311.0</ele><time>2026-05-01T09:36:53.999Z</time></trkpt><trkpt lat="44.55275447198652" lon="8.35852728011931"><ele>311.0</ele><time>2026-05-01T09:36:54.999Z</time></trkpt><trkpt lat="44.552874912683166" lon="8.358682229687803"><ele>313.6666666666667</ele><time>2026-05-01T09:36:55.999Z</time></trkpt><trkpt lat="44.552992513820215" lon="8.358837671858078"><ele>316.3333333333333</ele><time>2026-05-01T09:36:56.999Z</time></trkpt><trkpt lat="44.55311613878987" lon="8.358999273982127"><ele>319.0</ele><time>2026-05-01T09:36:57.999Z</time></trkpt><trkpt lat="44.55323708367505" lon="8.359156564828442"><ele>319.0</ele><time>2026-05-01T09:36:58.999Z</time></trkpt><trkpt lat="44.55335580535095" lon="8.359317800587954"><ele>319.0</ele><time>2026-05-01T09:36:59.999Z</time></trkpt><trkpt lat="44.55347115901445" lon="8.359476634656252"><ele>319.0</ele><time>2026-05-01T09:37:00.999Z</time></trkpt><trkpt lat="44.553589003456" lon="8.359631717117791"><ele>323.0</ele><time>2026-05-01T09:37:01.999Z</time></trkpt><trkpt lat="44.55370599247407" lon="8.359780988059574"><ele>327.0</ele><time>2026-05-01T09:37:02.999Z</time></trkpt><trkpt lat="44.553807078096376" lon="8.359947712612831"><ele>331.0</ele><time>2026-05-01T09:37:03.999Z</time></trkpt><trkpt lat="44.55391696805142" lon="8.360095384552162"><ele>331.0</ele><time>2026-05-01T09:37:04.999Z</time></trkpt><trkpt lat="44.55402603978637" lon="8.360242202918508"><ele>331.0</ele><time>2026-05-01T09:37:05.999Z</time></trkpt><trkpt lat="44.554142846725846" lon="8.36036863951629"><ele>331.0</ele><time>2026-05-01T09:37:06.999Z</time></trkpt><trkpt lat="44.55422744509491" lon="8.360517006958466"><ele>331.0</ele><time>2026-05-01T09:37:07.999Z</time></trkpt><trkpt lat="44.55432591880027" lon="8.360620490705756"><ele>331.5</ele><time>2026-05-01T09:37:08.999Z</time></trkpt><trkpt lat="44.554407344991354" lon="8.360739156975491"><ele>332.0</ele><time>2026-05-01T09:37:09.999Z</time></trkpt><trkpt lat="44.554495223686615" lon="8.360868854359033"><ele>332.5</ele><time>2026-05-01T09:37:10.999Z</time></trkpt><trkpt lat="44.55458413603685" lon="8.361006224731856"><ele>333.0</ele><time>2026-05-01T09:37:11.999Z</time></trkpt><trkpt lat="44.55467012788962" lon="8.361147464964237"><ele>334.5</ele><time>2026-05-01T09:37:12.999Z</time></trkpt><trkpt lat="44.55475558409505" lon="8.361284864369718"><ele>336.0</ele><time>2026-05-01T09:37:13.999Z</time></trkpt><trkpt lat="44.554851119880325" lon="8.361417898579337"><ele>337.5</ele><time>2026-05-01T09:37:14.999Z</time></trkpt><trkpt lat="44.554952938451564" lon="8.361542817822556"><ele>339.0</ele><time>2026-05-01T09:37:15.999Z</time></trkpt><trkpt lat="44.55506378567216" lon="8.361674952766469"><ele>339.0</ele><time>2026-05-01T09:37:16.999Z</time></trkpt><trkpt lat="44.55516845483743" lon="8.361813488567197"><ele>339.0</ele><time>2026-05-01T09:37:18Z</time></trkpt><trkpt lat="44.55527088783573" lon="8.361913128276278"><ele>339.0</ele><time>2026-05-01T09:37:19Z</time></trkpt><trkpt lat="44.55535484828852" lon="8.36201558492406"><ele>339.0</ele><time>2026-05-01T09:37:20Z</time></trkpt><trkpt lat="44.55543756346063" lon="8.362099776915187"><ele>341.2</ele><time>2026-05-01T09:37:21Z</time></trkpt><trkpt lat="44.55549554475787" lon="8.362196967402326"><ele>343.4</ele><time>2026-05-01T09:37:22Z</time></trkpt><trkpt lat="44.555505506219156" lon="8.362315508197453"><ele>345.6</ele><time>2026-05-01T09:37:23Z</time></trkpt><trkpt lat="44.555487741670916" lon="8.362443681637794"><ele>347.8</ele><time>2026-05-01T09:37:24Z</time></trkpt><trkpt lat="44.55541529607054" lon="8.362540010534435"><ele>350.0</ele><time>2026-05-01T09:37:25Z</time></trkpt><trkpt lat="44.555325992477826" lon="8.362569945823045"><ele>350.5</ele><time>2026-05-01T09:37:26Z</time></trkpt><trkpt lat="44.5552275699484" lon="8.362492254033624"><ele>351.0</ele><time>2026-05-01T09:37:27Z</time></trkpt><trkpt lat="44.555129757797324" lon="8.362383775544158"><ele>351.5</ele><time>2026-05-01T09:37:28Z</time></trkpt><trkpt lat="44.5550019251052" lon="8.362319331822015"><ele>352.0</ele><time>2026-05-01T09:37:29Z</time></trkpt><trkpt lat="44.55486286601934" lon="8.362280371209001"><ele>352.0</ele><time>2026-05-01T09:37:30Z</time></trkpt><trkpt lat="44.55471925478999" lon="8.362261330036747"><ele>352.0</ele><time>2026-05-01T09:37:31Z</time></trkpt><trkpt lat="44.55459024242212" lon="8.362224960022234"><ele>352.0</ele><time>2026-05-01T09:37:32Z</time></trkpt><trkpt lat="44.5545008687421" lon="8.362113784004107"><ele>352.0</ele><time>2026-05-01T09:37:33Z</time></trkpt><trkpt lat="44.55438606405173" lon="8.362000100369766"><ele>350.5</ele><time>2026-05-01T09:37:34Z</time></trkpt><trkpt lat="44.554256854231014" lon="8.361903636024822"><ele>349.0</ele><time>2026-05-01T09:37:35Z</time></trkpt><trkpt lat="44.55412845503233" lon="8.361831860014743"><ele>347.5</ele><time>2026-05-01T09:37:36Z</time></trkpt><trkpt lat="44.55400805365193" lon="8.361781048771538"><ele>346.0</ele><time>2026-05-01T09:37:37Z</time></trkpt><trkpt lat="44.553923662078624" lon="8.361695408960095"><ele>346.0</ele><time>2026-05-01T09:37:38Z</time></trkpt><trkpt lat="44.55383046892785" lon="8.361628080533642"><ele>346.0</ele><time>2026-05-01T09:37:39Z</time></trkpt><trkpt lat="44.55374499841418" lon="8.361608567489789"><ele>346.0</ele><time>2026-05-01T09:37:40Z</time></trkpt><trkpt lat="44.55366351633786" lon="8.361677495820963"><ele>346.0</ele><time>2026-05-01T09:37:41Z</time></trkpt><trkpt lat="44.553590719527925" lon="8.36180040545613"><ele>346.0</ele><time>2026-05-01T09:37:42Z</time></trkpt><trkpt lat="44.553498080101505" lon="8.361896904296268"><ele>347.6</ele><time>2026-05-01T09:37:43Z</time></trkpt><trkpt lat="44.55342739863132" lon="8.362015934644896"><ele>349.20000000000005</ele><time>2026-05-01T09:37:44Z</time></trkpt><trkpt lat="44.55336386400219" lon="8.3621223355722"><ele>350.79999999999995</ele><time>2026-05-01T09:37:45Z</time></trkpt><trkpt lat="44.55329508000441" lon="8.362207665967919"><ele>352.4</ele><time>2026-05-01T09:37:46Z</time></trkpt><trkpt lat="44.55320552299018" lon="8.362220997926297"><ele>354.0</ele><time>2026-05-01T09:37:47Z</time></trkpt><trkpt lat="44.55312389463668" lon="8.362144468539304"><ele>354.0</ele><time>2026-05-01T09:37:48Z</time></trkpt><trkpt lat="44.553073884413806" lon="8.362009019513302"><ele>354.0</ele><time>2026-05-01T09:37:49Z</time></trkpt><trkpt lat="44.55302835010415" lon="8.3618428366836"><ele>354.0</ele><time>2026-05-01T09:37:50Z</time></trkpt><trkpt lat="44.553007246722835" lon="8.361674744192849"><ele>354.0</ele><time>2026-05-01T09:37:51Z</time></trkpt><trkpt lat="44.552995384171034" lon="8.361516747902677"><ele>352.79999999999995</ele><time>2026-05-01T09:37:52Z</time></trkpt><trkpt lat="44.5529815708883" lon="8.361361477055565"><ele>351.59999999999997</ele><time>2026-05-01T09:37:53Z</time></trkpt><trkpt lat="44.55297695341974" lon="8.361228820724868"><ele>350.4</ele><time>2026-05-01T09:37:54Z</time></trkpt><trkpt lat="44.55295287999388" lon="8.36110733139772"><ele>349.2</ele><time>2026-05-01T09:37:55Z</time></trkpt><trkpt lat="44.55289916709672" lon="8.361004424284491"><ele>348.0</ele><time>2026-05-01T09:37:56Z</time></trkpt><trkpt lat="44.55282099204094" lon="8.360936528574278"><ele>348.0</ele><time>2026-05-01T09:37:57Z</time></trkpt><trkpt lat="44.552732063428806" lon="8.360907265351331"><ele>348.0</ele><time>2026-05-01T09:37:58Z</time></trkpt><trkpt lat="44.55264882436682" lon="8.360941992087236"><ele>348.0</ele><time>2026-05-01T09:37:59Z</time></trkpt><trkpt lat="44.55259299131761" lon="8.361032083289583"><ele>348.0</ele><time>2026-05-01T09:38:00Z</time></trkpt><trkpt lat="44.55256402602138" lon="8.361141375364875"><ele>348.0</ele><time>2026-05-01T09:38:01Z</time></trkpt><trkpt lat="44.55262852937013" lon="8.361294772379628"><ele>350.0</ele><time>2026-05-01T09:38:02Z</time></trkpt><trkpt lat="44.55268009580985" lon="8.361453525696685"><ele>352.0</ele><time>2026-05-01T09:38:03Z</time></trkpt><trkpt lat="44.552734333500155" lon="8.361619903316395"><ele>354.0</ele><time>2026-05-01T09:38:04Z</time></trkpt><trkpt lat="44.55275839551654" lon="8.361791812852799"><ele>356.0</ele><time>2026-05-01T09:38:05Z</time></trkpt><trkpt lat="44.55275058752552" lon="8.361969082177339"><ele>356.0</ele><time>2026-05-01T09:38:06Z</time></trkpt><trkpt lat="44.5527115278994" lon="8.36214290239561"><ele>356.0</ele><time>2026-05-01T09:38:07Z</time></trkpt><trkpt lat="44.5526688146085" lon="8.362318067219398"><ele>356.0</ele><time>2026-05-01T09:38:08Z</time></trkpt><trkpt lat="44.5526278367981" lon="8.362490706113592"><ele>356.0</ele><time>2026-05-01T09:38:09Z</time></trkpt><trkpt lat="44.55260594037827" lon="8.36265900062422"><ele>357.20000000000005</ele><time>2026-05-01T09:38:10Z</time></trkpt><trkpt lat="44.55260940091418" lon="8.362805492883979"><ele>358.40000000000003</ele><time>2026-05-01T09:38:11Z</time></trkpt><trkpt lat="44.55261499097526" lon="8.362922929545444"><ele>359.6</ele><time>2026-05-01T09:38:12Z</time></trkpt><trkpt lat="44.55264397679108" lon="8.363042404889384"><ele>360.8</ele><time>2026-05-01T09:38:13Z</time></trkpt><trkpt lat="44.552740075251805" lon="8.363153235717164"><ele>362.0</ele><time>2026-05-01T09:38:14Z</time></trkpt><trkpt lat="44.55282988137895" lon="8.363287087600057"><ele>368.0</ele><time>2026-05-01T09:38:15Z</time></trkpt><trkpt lat="44.55289355840462" lon="8.36344832442202"><ele>374.0</ele><time>2026-05-01T09:38:16Z</time></trkpt><trkpt lat="44.55290793225206" lon="8.36362708828587"><ele>380.0</ele><time>2026-05-01T09:38:17Z</time></trkpt><trkpt lat="44.55297068014897" lon="8.36377062529121"><ele>386.0</ele><time>2026-05-01T09:38:18Z</time></trkpt><trkpt lat="44.55300844571526" lon="8.363905361936974"><ele>388.6</ele><time>2026-05-01T09:38:19Z</time></trkpt><trkpt lat="44.55303488327847" lon="8.364033558641678"><ele>391.20000000000005</ele><time>2026-05-01T09:38:20Z</time></trkpt><trkpt lat="44.552985703922445" lon="8.36415422779142"><ele>393.79999999999995</ele><time>2026-05-01T09:38:21Z</time></trkpt><trkpt lat="44.55290074174155" lon="8.364260212115909"><ele>396.4</ele><time>2026-05-01T09:38:22Z</time></trkpt><trkpt lat="44.55282733342109" lon="8.364351233955288"><ele>399.0</ele><time>2026-05-01T09:38:23Z</time></trkpt><trkpt lat="44.55277477508786" lon="8.364426604957691"><ele>399.5</ele><time>2026-05-01T09:38:24Z</time></trkpt><trkpt lat="44.55277487086039" lon="8.364560380341477"><ele>400.0</ele><time>2026-05-01T09:38:25Z</time></trkpt><trkpt lat="44.55282045392864" lon="8.364726824115246"><ele>400.5</ele><time>2026-05-01T09:38:26Z</time></trkpt><trkpt lat="44.55289135254418" lon="8.364860590588558"><ele>401.0</ele><time>2026-05-01T09:38:27Z</time></trkpt><trkpt lat="44.55299090063537" lon="8.364965713814039"><ele>401.0</ele><time>2026-05-01T09:38:28Z</time></trkpt><trkpt lat="44.55305770698647" lon="8.365104437743513"><ele>401.0</ele><time>2026-05-01T09:38:29Z</time></trkpt><trkpt lat="44.55309793731885" lon="8.36525913698219"><ele>401.0</ele><time>2026-05-01T09:38:30Z</time></trkpt><trkpt lat="44.55313058236147" lon="8.36542822398634"><ele>401.0</ele><time>2026-05-01T09:38:31Z</time></trkpt><trkpt lat="44.55313577276265" lon="8.3655690489894"><ele>399.25</ele><time>2026-05-01T09:38:32Z</time></trkpt><trkpt lat="44.55312481140809" lon="8.365691252660291"><ele>397.5</ele><time>2026-05-01T09:38:32.999Z</time></trkpt><trkpt lat="44.553062236053854" lon="8.36579303089061"><ele>395.75</ele><time>2026-05-01T09:38:33.999Z</time></trkpt><trkpt lat="44.55296222466613" lon="8.365895357688004"><ele>394.0</ele><time>2026-05-01T09:38:34.999Z</time></trkpt><trkpt lat="44.552835986537524" lon="8.366007793977879"><ele>394.0</ele><time>2026-05-01T09:38:35.999Z</time></trkpt><trkpt lat="44.55268616820631" lon="8.366041282809174"><ele>394.0</ele><time>2026-05-01T09:38:36.999Z</time></trkpt><trkpt lat="44.552527280826354" lon="8.366074509341805"><ele>394.0</ele><time>2026-05-01T09:38:37.999Z</time></trkpt><trkpt lat="44.55236451557661" lon="8.366111004914627"><ele>394.0</ele><time>2026-05-01T09:38:38.999Z</time></trkpt><trkpt lat="44.5522141226514" lon="8.366188772274946"><ele>394.0</ele><time>2026-05-01T09:38:39.999Z</time></trkpt><trkpt lat="44.5520554355626" lon="8.366241491929351"><ele>394.0</ele><time>2026-05-01T09:38:40.999Z</time></trkpt><trkpt lat="44.551902105421696" lon="8.366281848396458"><ele>394.25</ele><time>2026-05-01T09:38:41.999Z</time></trkpt><trkpt lat="44.5517663924825" lon="8.366307884255603"><ele>394.5</ele><time>2026-05-01T09:38:42.999Z</time></trkpt><trkpt lat="44.551632840742926" lon="8.36633693884483"><ele>394.75</ele><time>2026-05-01T09:38:43.999Z</time></trkpt><trkpt lat="44.551497087089615" lon="8.36632511937638"><ele>395.0</ele><time>2026-05-01T09:38:44.999Z</time></trkpt><trkpt lat="44.55138433402061" lon="8.366252221981338"><ele>395.0</ele><time>2026-05-01T09:38:45.999Z</time></trkpt><trkpt lat="44.55126258158908" lon="8.36615495772866"><ele>395.0</ele><time>2026-05-01T09:38:46.999Z</time></trkpt><trkpt lat="44.55114514407631" lon="8.366047416885072"><ele>395.0</ele><time>2026-05-01T09:38:47.999Z</time></trkpt><trkpt lat="44.551034637351655" lon="8.365923851674523"><ele>395.0</ele><time>2026-05-01T09:38:48.999Z</time></trkpt><trkpt lat="44.550939402071386" lon="8.365791479275991"><ele>395.75</ele><time>2026-05-01T09:38:49.999Z</time></trkpt><trkpt lat="44.55084405873737" lon="8.365669414017248"><ele>396.5</ele><time>2026-05-01T09:38:50.999Z</time></trkpt><trkpt lat="44.55074972002011" lon="8.365539108425384"><ele>397.25</ele><time>2026-05-01T09:38:51.999Z</time></trkpt><trkpt lat="44.55065427872866" lon="8.36544866441829"><ele>398.0</ele><time>2026-05-01T09:38:52.999Z</time></trkpt><trkpt lat="44.550545066514395" lon="8.365398174368803"><ele>398.0</ele><time>2026-05-01T09:38:53.999Z</time></trkpt><trkpt lat="44.55043564508284" lon="8.365334987839708"><ele>398.0</ele><time>2026-05-01T09:38:54.999Z</time></trkpt><trkpt lat="44.55037340607795" lon="8.365178030771688"><ele>398.0</ele><time>2026-05-01T09:38:55.999Z</time></trkpt><trkpt lat="44.550323422646215" lon="8.365033988237231"><ele>398.0</ele><time>2026-05-01T09:38:56.999Z</time></trkpt><trkpt lat="44.55027257939371" lon="8.364926404469193"><ele>401.59999999999997</ele><time>2026-05-01T09:38:57.999Z</time></trkpt><trkpt lat="44.550208175100096" lon="8.364865359624662"><ele>405.2</ele><time>2026-05-01T09:38:58.999Z</time></trkpt><trkpt lat="44.55012118188035" lon="8.364876924154093"><ele>408.8</ele><time>2026-05-01T09:38:59.999Z</time></trkpt><trkpt lat="44.550048321240325" lon="8.364959416851145"><ele>412.4</ele><time>2026-05-01T09:39:00.999Z</time></trkpt><trkpt lat="44.54998549342639" lon="8.365083553220245"><ele>416.0</ele><time>2026-05-01T09:39:01.999Z</time></trkpt><trkpt lat="44.549913547367375" lon="8.36524223918235"><ele>416.0</ele><time>2026-05-01T09:39:02.999Z</time></trkpt><trkpt lat="44.549816006998896" lon="8.365413291227515"><ele>416.0</ele><time>2026-05-01T09:39:03.999Z</time></trkpt><trkpt lat="44.5497270559519" lon="8.365558454258297"><ele>416.0</ele><time>2026-05-01T09:39:04.999Z</time></trkpt><trkpt lat="44.54965026159925" lon="8.3656830799323"><ele>416.0</ele><time>2026-05-01T09:39:05.999Z</time></trkpt><trkpt lat="44.549597685010596" lon="8.3657977016479"><ele>417.5</ele><time>2026-05-01T09:39:06.999Z</time></trkpt><trkpt lat="44.549628022722366" lon="8.365926627902134"><ele>419.0</ele><time>2026-05-01T09:39:07.999Z</time></trkpt><trkpt lat="44.54971124047961" lon="8.366020827462055"><ele>420.5</ele><time>2026-05-01T09:39:08.999Z</time></trkpt><trkpt lat="44.54984161187326" lon="8.36606757631024"><ele>422.0</ele><time>2026-05-01T09:39:09.999Z</time></trkpt><trkpt lat="44.549947654512806" lon="8.366166481743585"><ele>422.0</ele><time>2026-05-01T09:39:10.999Z</time></trkpt><trkpt lat="44.550071261582666" lon="8.366268505002614"><ele>422.0</ele><time>2026-05-01T09:39:11.999Z</time></trkpt><trkpt lat="44.550203816258886" lon="8.366358562618194"><ele>422.0</ele><time>2026-05-01T09:39:12.999Z</time></trkpt><trkpt lat="44.55034229787891" lon="8.366436838569182"><ele>422.0</ele><time>2026-05-01T09:39:13.999Z</time></trkpt><trkpt lat="44.55047312673006" lon="8.366506066477212"><ele>423.25</ele><time>2026-05-01T09:39:14.999Z</time></trkpt><trkpt lat="44.550594407761395" lon="8.366570242018424"><ele>424.5</ele><time>2026-05-01T09:39:15.999Z</time></trkpt><trkpt lat="44.5507023286212" lon="8.366633134588387"><ele>425.75</ele><time>2026-05-01T09:39:16.999Z</time></trkpt><trkpt lat="44.55080198052289" lon="8.36670311810391"><ele>427.0</ele><time>2026-05-01T09:39:17.999Z</time></trkpt><trkpt lat="44.55088872688763" lon="8.366790875363186"><ele>427.0</ele><time>2026-05-01T09:39:18.999Z</time></trkpt><trkpt lat="44.55094322925747" lon="8.36690460348552"><ele>427.00000000000006</ele><time>2026-05-01T09:39:19.999Z</time></trkpt><trkpt lat="44.55095010448062" lon="8.367040466531412"><ele>427.00000000000006</ele><time>2026-05-01T09:39:20.999Z</time></trkpt><trkpt lat="44.55090815947771" lon="8.367177331808524"><ele>427.0</ele><time>2026-05-01T09:39:21.999Z</time></trkpt><trkpt lat="44.55086266807303" lon="8.367321781247755"><ele>427.0</ele><time>2026-05-01T09:39:22.999Z</time></trkpt><trkpt lat="44.55079818886109" lon="8.367428600219801"><ele>427.40000000000003</ele><time>2026-05-01T09:39:24Z</time></trkpt><trkpt lat="44.55071531669782" lon="8.367519850786394"><ele>427.80000000000007</ele><time>2026-05-01T09:39:25Z</time></trkpt><trkpt lat="44.55059225310176" lon="8.367508703790111"><ele>428.2</ele><time>2026-05-01T09:39:26Z</time></trkpt><trkpt lat="44.550482482264236" lon="8.367555294404042"><ele>428.6</ele><time>2026-05-01T09:39:27Z</time></trkpt><trkpt lat="44.5503813114412" lon="8.367594512493136"><ele>429.0</ele><time>2026-05-01T09:39:28Z</time></trkpt><trkpt lat="44.55030463356006" lon="8.367655394322028"><ele>429.0</ele><time>2026-05-01T09:39:29Z</time></trkpt><trkpt lat="44.55025175267555" lon="8.367741043948806"><ele>429.0</ele><time>2026-05-01T09:39:30Z</time></trkpt><trkpt lat="44.55026704118401" lon="8.367905883077396"><ele>429.0</ele><time>2026-05-01T09:39:31Z</time></trkpt><trkpt lat="44.55023577160615" lon="8.368034273425955"><ele>429.0</ele><time>2026-05-01T09:39:32Z</time></trkpt><trkpt lat="44.55017108110233" lon="8.368112629845855"><ele>429.0</ele><time>2026-05-01T09:39:33Z</time></trkpt><trkpt lat="44.55006550527529" lon="8.36812625255301"><ele>434.4</ele><time>2026-05-01T09:39:34Z</time></trkpt><trkpt lat="44.549956803606875" lon="8.368118117782624"><ele>439.79999999999995</ele><time>2026-05-01T09:39:35Z</time></trkpt><trkpt lat="44.54985023973603" lon="8.368093472097048"><ele>445.20000000000005</ele><time>2026-05-01T09:39:36Z</time></trkpt><trkpt lat="44.54975065988216" lon="8.368036566267207"><ele>450.6</ele><time>2026-05-01T09:39:37Z</time></trkpt><trkpt lat="44.5496687819416" lon="8.368045604350081"><ele>456.0</ele><time>2026-05-01T09:39:38Z</time></trkpt><trkpt lat="44.549599195997814" lon="8.36814002124981"><ele>456.4</ele><time>2026-05-01T09:39:39Z</time></trkpt><trkpt lat="44.54952355783034" lon="8.368222091283647"><ele>456.8</ele><time>2026-05-01T09:39:40Z</time></trkpt><trkpt lat="44.54942928421282" lon="8.368262165757265"><ele>457.19999999999993</ele><time>2026-05-01T09:39:41Z</time></trkpt><trkpt lat="44.54932113320599" lon="8.368203024657252"><ele>457.59999999999997</ele><time>2026-05-01T09:39:42Z</time></trkpt><trkpt lat="44.54922943736439" lon="8.368137846029919"><ele>458.0</ele><time>2026-05-01T09:39:43Z</time></trkpt><trkpt lat="44.549161748652" lon="8.368060342766896"><ele>458.0</ele><time>2026-05-01T09:39:44Z</time></trkpt><trkpt lat="44.5491129712158" lon="8.367979097133476"><ele>457.99999999999994</ele><time>2026-05-01T09:39:45Z</time></trkpt><trkpt lat="44.54903793161046" lon="8.36797437094527"><ele>457.99999999999994</ele><time>2026-05-01T09:39:46Z</time></trkpt><trkpt lat="44.54895313731615" lon="8.368055333511094"><ele>458.0</ele><time>2026-05-01T09:39:47Z</time></trkpt><trkpt lat="44.54886469854136" lon="8.36815783295747"><ele>458.0</ele><time>2026-05-01T09:39:48Z</time></trkpt><trkpt lat="44.54876133878694" lon="8.3681993244211"><ele>456.4</ele><time>2026-05-01T09:39:49Z</time></trkpt><trkpt lat="44.5486533582766" lon="8.368167897455516"><ele>454.79999999999995</ele><time>2026-05-01T09:39:50Z</time></trkpt><trkpt lat="44.54857437137072" lon="8.36813774429884"><ele>453.2</ele><time>2026-05-01T09:39:51Z</time></trkpt><trkpt lat="44.548502511555675" lon="8.368170882888831"><ele>451.6</ele><time>2026-05-01T09:39:52Z</time></trkpt><trkpt lat="44.54842626316134" lon="8.36827617176147"><ele>450.0</ele><time>2026-05-01T09:39:53Z</time></trkpt><trkpt lat="44.548363946851474" lon="8.368433333954252"><ele>450.0</ele><time>2026-05-01T09:39:54Z</time></trkpt><trkpt lat="44.54832777704839" lon="8.368599845633096"><ele>450.0</ele><time>2026-05-01T09:39:55Z</time></trkpt><trkpt lat="44.54829938294494" lon="8.368747211397917"><ele>450.0</ele><time>2026-05-01T09:39:56Z</time></trkpt><trkpt lat="44.548236156732045" lon="8.368838627262253"><ele>450.0</ele><time>2026-05-01T09:39:57Z</time></trkpt><trkpt lat="44.54816173399069" lon="8.368890496433053"><ele>450.0</ele><time>2026-05-01T09:39:58Z</time></trkpt><trkpt lat="44.54806722782134" lon="8.36891614067431"><ele>453.25</ele><time>2026-05-01T09:39:59Z</time></trkpt><trkpt lat="44.54797403070721" lon="8.368991307256527"><ele>456.5</ele><time>2026-05-01T09:40:00Z</time></trkpt><trkpt lat="44.54788729274715" lon="8.369101948835299"><ele>459.75</ele><time>2026-05-01T09:40:01Z</time></trkpt><trkpt lat="44.54780221234808" lon="8.369216001174806"><ele>463.0</ele><time>2026-05-01T09:40:02Z</time></trkpt><trkpt lat="44.54773274893732" lon="8.369335234771501"><ele>463.0</ele><time>2026-05-01T09:40:03Z</time></trkpt><trkpt lat="44.54766854090107" lon="8.369426349113299"><ele>462.99999999999994</ele><time>2026-05-01T09:40:04Z</time></trkpt><trkpt lat="44.547613006528486" lon="8.369514858237798"><ele>462.99999999999994</ele><time>2026-05-01T09:40:05Z</time></trkpt><trkpt lat="44.547604428832024" lon="8.369660157019323"><ele>463.0</ele><time>2026-05-01T09:40:06Z</time></trkpt><trkpt lat="44.547636990393656" lon="8.369804137358035"><ele>463.0</ele><time>2026-05-01T09:40:07Z</time></trkpt><trkpt lat="44.54770247627578" lon="8.369902689357643"><ele>463.5</ele><time>2026-05-01T09:40:08Z</time></trkpt><trkpt lat="44.54781939927897" lon="8.369929907728691"><ele>464.0</ele><time>2026-05-01T09:40:09Z</time></trkpt><trkpt lat="44.54794091762134" lon="8.369940146606984"><ele>464.5</ele><time>2026-05-01T09:40:10Z</time></trkpt><trkpt lat="44.54807412000462" lon="8.36991489214563"><ele>465.0</ele><time>2026-05-01T09:40:11Z</time></trkpt><trkpt lat="44.54820116611237" lon="8.369885190957529"><ele>465.0</ele><time>2026-05-01T09:40:12Z</time></trkpt><trkpt lat="44.54830081436962" lon="8.369853308369764"><ele>465.0</ele><time>2026-05-01T09:40:13Z</time></trkpt><trkpt lat="44.54837408570966" lon="8.369778409963546"><ele>465.0</ele><time>2026-05-01T09:40:14Z</time></trkpt><trkpt lat="44.54843707981298" lon="8.369652191046503"><ele>465.0</ele><time>2026-05-01T09:40:15Z</time></trkpt><trkpt lat="44.54853266149812" lon="8.369562402847691"><ele>465.0</ele><time>2026-05-01T09:40:16Z</time></trkpt><trkpt lat="44.54864451421369" lon="8.369552716692981"><ele>466.5</ele><time>2026-05-01T09:40:17Z</time></trkpt><trkpt lat="44.54876435144311" lon="8.369529045434092"><ele>468.0</ele><time>2026-05-01T09:40:18Z</time></trkpt><trkpt lat="44.54887424024893" lon="8.36946405100942"><ele>469.5</ele><time>2026-05-01T09:40:19Z</time></trkpt><trkpt lat="44.548971617913985" lon="8.36938629196375"><ele>471.0</ele><time>2026-05-01T09:40:20Z</time></trkpt><trkpt lat="44.54908132922677" lon="8.369360889903065"><ele>471.0</ele><time>2026-05-01T09:40:21Z</time></trkpt><trkpt lat="44.54918772377775" lon="8.369392284599598"><ele>471.0</ele><time>2026-05-01T09:40:22Z</time></trkpt><trkpt lat="44.54930508366983" lon="8.369380779198936"><ele>471.0</ele><time>2026-05-01T09:40:23Z</time></trkpt><trkpt lat="44.54942095201436" lon="8.36939128877974"><ele>471.0</ele><time>2026-05-01T09:40:24Z</time></trkpt><trkpt lat="44.549537246369795" lon="8.369368615991807"><ele>470.5</ele><time>2026-05-01T09:40:25Z</time></trkpt><trkpt lat="44.54965185750568" lon="8.369330910671103"><ele>470.0</ele><time>2026-05-01T09:40:26Z</time></trkpt><trkpt lat="44.54976020285033" lon="8.369291829644453"><ele>469.5</ele><time>2026-05-01T09:40:27Z</time></trkpt><trkpt lat="44.5498733541582" lon="8.36929605456947"><ele>469.0</ele><time>2026-05-01T09:40:28Z</time></trkpt><trkpt lat="44.54998491847105" lon="8.369320386337469"><ele>469.0</ele><time>2026-05-01T09:40:29Z</time></trkpt><trkpt lat="44.55010895780669" lon="8.369346541363338"><ele>469.0</ele><time>2026-05-01T09:40:30Z</time></trkpt><trkpt lat="44.55022693763501" lon="8.369371806850054"><ele>469.0</ele><time>2026-05-01T09:40:31Z</time></trkpt><trkpt lat="44.55034414181243" lon="8.36940567691409"><ele>469.0</ele><time>2026-05-01T09:40:32Z</time></trkpt><trkpt lat="44.55044503381713" lon="8.369476837758718"><ele>471.0</ele><time>2026-05-01T09:40:33Z</time></trkpt><trkpt lat="44.55051880257754" lon="8.36958874526052"><ele>473.0</ele><time>2026-05-01T09:40:34Z</time></trkpt><trkpt lat="44.550587483721685" lon="8.369721574127077"><ele>475.0</ele><time>2026-05-01T09:40:35Z</time></trkpt><trkpt lat="44.55064313521386" lon="8.369869046275264"><ele>477.0</ele><time>2026-05-01T09:40:36Z</time></trkpt><trkpt lat="44.55063765301035" lon="8.370020165833864"><ele>477.0</ele><time>2026-05-01T09:40:37Z</time></trkpt><trkpt lat="44.550585640397365" lon="8.370149237471535"><ele>477.00000000000006</ele><time>2026-05-01T09:40:38Z</time></trkpt><trkpt lat="44.550496027443145" lon="8.370233856129476"><ele>477.00000000000006</ele><time>2026-05-01T09:40:39Z</time></trkpt><trkpt lat="44.55043676775413" lon="8.37034699761338"><ele>477.0</ele><time>2026-05-01T09:40:40Z</time></trkpt><trkpt lat="44.550404919669646" lon="8.37046114963695"><ele>477.0</ele><time>2026-05-01T09:40:41Z</time></trkpt><trkpt lat="44.550420750900855" lon="8.370607199097634"><ele>477.0</ele><time>2026-05-01T09:40:41.999Z</time></trkpt><trkpt lat="44.55041001020745" lon="8.3707485361826"><ele>477.0</ele><time>2026-05-01T09:40:42.999Z</time></trkpt><trkpt lat="44.550341443256414" lon="8.37084639809205"><ele>477.0</ele><time>2026-05-01T09:40:43.999Z</time></trkpt><trkpt lat="44.55030599754263" lon="8.370962911824634"><ele>477.0</ele><time>2026-05-01T09:40:44.999Z</time></trkpt><trkpt lat="44.55029782274939" lon="8.371063805034558"><ele>477.0</ele><time>2026-05-01T09:40:45.999Z</time></trkpt><trkpt lat="44.550335126750674" lon="8.371169094834583"><ele>477.0</ele><time>2026-05-01T09:40:46.999Z</time></trkpt><trkpt lat="44.55046650959764" lon="8.371201702263011"><ele>477.0</ele><time>2026-05-01T09:40:47.999Z</time></trkpt><trkpt lat="44.55055974885808" lon="8.371280429654863"><ele>477.00000000000006</ele><time>2026-05-01T09:40:48.999Z</time></trkpt><trkpt lat="44.55063732266013" lon="8.371371894852611"><ele>477.00000000000006</ele><time>2026-05-01T09:40:49.999Z</time></trkpt><trkpt lat="44.55061823838047" lon="8.371540603124547"><ele>477.0</ele><time>2026-05-01T09:40:50.999Z</time></trkpt><trkpt lat="44.55057538024094" lon="8.371687244147665"><ele>477.0</ele><time>2026-05-01T09:40:51.999Z</time></trkpt><trkpt lat="44.550541605974225" lon="8.37184418055575"><ele>475.40000000000003</ele><time>2026-05-01T09:40:52.999Z</time></trkpt><trkpt lat="44.55050427576433" lon="8.371984813246844"><ele>473.80000000000007</ele><time>2026-05-01T09:40:53.999Z</time></trkpt><trkpt lat="44.55046497189874" lon="8.372113712326339"><ele>472.2</ele><time>2026-05-01T09:40:54.999Z</time></trkpt><trkpt lat="44.550415784494106" lon="8.372233777236469"><ele>470.6</ele><time>2026-05-01T09:40:55.999Z</time></trkpt><trkpt lat="44.55036920073016" lon="8.37233970499928"><ele>469.0</ele><time>2026-05-01T09:40:56.999Z</time></trkpt><trkpt lat="44.55033520428795" lon="8.372443657628189"><ele>467.4</ele><time>2026-05-01T09:40:57.999Z</time></trkpt><trkpt lat="44.55027443186742" lon="8.372510484032306"><ele>465.79999999999995</ele><time>2026-05-01T09:40:58.999Z</time></trkpt><trkpt lat="44.550251726385675" lon="8.372603248297706"><ele>464.20000000000005</ele><time>2026-05-01T09:40:59.999Z</time></trkpt><trkpt lat="44.550294032126686" lon="8.37272524233204"><ele>462.6</ele><time>2026-05-01T09:41:00.999Z</time></trkpt><trkpt lat="44.55039511755556" lon="8.372794048215814"><ele>461.0</ele><time>2026-05-01T09:41:01.999Z</time></trkpt><trkpt lat="44.55049206657007" lon="8.372799355474504"><ele>461.0</ele><time>2026-05-01T09:41:02.999Z</time></trkpt><trkpt lat="44.550584206759275" lon="8.372694484724606"><ele>461.0</ele><time>2026-05-01T09:41:03.999Z</time></trkpt><trkpt lat="44.550685301119664" lon="8.372637950949784"><ele>461.0</ele><time>2026-05-01T09:41:04.999Z</time></trkpt><trkpt lat="44.55078726059546" lon="8.37261786118998"><ele>461.0</ele><time>2026-05-01T09:41:05.999Z</time></trkpt><trkpt lat="44.55088223090224" lon="8.372592784922785"><ele>461.0</ele><time>2026-05-01T09:41:06.999Z</time></trkpt><trkpt lat="44.550970737221526" lon="8.372593203193045"><ele>461.0</ele><time>2026-05-01T09:41:07.999Z</time></trkpt><trkpt lat="44.551042242194534" lon="8.372528657981109"><ele>461.0</ele><time>2026-05-01T09:41:08.999Z</time></trkpt><trkpt lat="44.55108767647334" lon="8.372404926139332"><ele>461.0</ele><time>2026-05-01T09:41:09.999Z</time></trkpt><trkpt lat="44.55114951731047" lon="8.372297632893885"><ele>461.0</ele><time>2026-05-01T09:41:10.999Z</time></trkpt><trkpt lat="44.55120932117297" lon="8.37220168761415"><ele>461.0</ele><time>2026-05-01T09:41:11.999Z</time></trkpt><trkpt lat="44.551271762472254" lon="8.372105152984078"><ele>462.0</ele><time>2026-05-01T09:41:12.999Z</time></trkpt><trkpt lat="44.55137884745317" lon="8.372133700980646"><ele>463.0</ele><time>2026-05-01T09:41:13.999Z</time></trkpt><trkpt lat="44.551467630273244" lon="8.372102347065862"><ele>464.0</ele><time>2026-05-01T09:41:14.999Z</time></trkpt><trkpt lat="44.55154211543739" lon="8.372031272200509"><ele>465.0</ele><time>2026-05-01T09:41:15.999Z</time></trkpt><trkpt lat="44.551608575373756" lon="8.37192575124828"><ele>466.0</ele><time>2026-05-01T09:41:16.999Z</time></trkpt><trkpt lat="44.55166673668144" lon="8.371823189092918"><ele>466.00000000000006</ele><time>2026-05-01T09:41:17.999Z</time></trkpt><trkpt lat="44.55174296692386" lon="8.37174366464981"><ele>466.0</ele><time>2026-05-01T09:41:18.999Z</time></trkpt><trkpt lat="44.5518165899129" lon="8.371673204427632"><ele>466.0</ele><time>2026-05-01T09:41:19.999Z</time></trkpt><trkpt lat="44.55189608672302" lon="8.371666939548108"><ele>466.0</ele><time>2026-05-01T09:41:20.999Z</time></trkpt><trkpt lat="44.55195144014725" lon="8.371780667934193"><ele>466.00000000000006</ele><time>2026-05-01T09:41:21.999Z</time></trkpt><trkpt lat="44.55201920158536" lon="8.371855559825056"><ele>466.0</ele><time>2026-05-01T09:41:22.999Z</time></trkpt><trkpt lat="44.55209504581907" lon="8.371899820800449"><ele>465.50000000000006</ele><time>2026-05-01T09:41:23.999Z</time></trkpt><trkpt lat="44.55218382552648" lon="8.37187817611845"><ele>465.0</ele><time>2026-05-01T09:41:24.999Z</time></trkpt><trkpt lat="44.552268020977905" lon="8.371884783140656"><ele>464.5</ele><time>2026-05-01T09:41:25.999Z</time></trkpt><trkpt lat="44.55234862807563" lon="8.371880280455537"><ele>464.0</ele><time>2026-05-01T09:41:26.999Z</time></trkpt><trkpt lat="44.552435749008225" lon="8.37187684625562"><ele>463.50000000000006</ele><time>2026-05-01T09:41:27.999Z</time></trkpt><trkpt lat="44.552508182357364" lon="8.371953492992557"><ele>463.0</ele><time>2026-05-01T09:41:29Z</time></trkpt><trkpt lat="44.55253673959991" lon="8.372082185647896"><ele>461.2</ele><time>2026-05-01T09:41:30Z</time></trkpt><trkpt lat="44.552509325850856" lon="8.372222108525117"><ele>459.4</ele><time>2026-05-01T09:41:31Z</time></trkpt><trkpt lat="44.55247013190568" lon="8.372363837775143"><ele>457.59999999999997</ele><time>2026-05-01T09:41:32Z</time></trkpt><trkpt lat="44.55243692449052" lon="8.372501799920395"><ele>455.79999999999995</ele><time>2026-05-01T09:41:33Z</time></trkpt><trkpt lat="44.55239644790923" lon="8.37264261020092"><ele>454.0</ele><time>2026-05-01T09:41:34Z</time></trkpt><trkpt lat="44.552318540716726" lon="8.37276092996144"><ele>454.0</ele><time>2026-05-01T09:41:35Z</time></trkpt><trkpt lat="44.55225539936812" lon="8.37289556171875"><ele>454.0</ele><time>2026-05-01T09:41:36Z</time></trkpt><trkpt lat="44.55218391499292" lon="8.373032940607004"><ele>454.0</ele><time>2026-05-01T09:41:37Z</time></trkpt><trkpt lat="44.552146477733054" lon="8.37322260072335"><ele>454.0</ele><time>2026-05-01T09:41:39Z</time></trkpt><trkpt lat="44.552116940049665" lon="8.373347578037453"><ele>453.4</ele><time>2026-05-01T09:41:40Z</time></trkpt><trkpt lat="44.55209295900177" lon="8.373481574741575"><ele>452.79999999999995</ele><time>2026-05-01T09:41:41Z</time></trkpt><trkpt lat="44.55209698627436" lon="8.373630909669648"><ele>452.20000000000005</ele><time>2026-05-01T09:41:42Z</time></trkpt><trkpt lat="44.55211664235283" lon="8.373763697791862"><ele>451.6</ele><time>2026-05-01T09:41:43Z</time></trkpt><trkpt lat="44.55214014475203" lon="8.373888810235506"><ele>451.0</ele><time>2026-05-01T09:41:44Z</time></trkpt><trkpt lat="44.55220462069887" lon="8.373982581517108"><ele>447.8</ele><time>2026-05-01T09:41:45Z</time></trkpt><trkpt lat="44.5523032246765" lon="8.374022847484603"><ele>444.6</ele><time>2026-05-01T09:41:46Z</time></trkpt><trkpt lat="44.55241379170256" lon="8.374050883214503"><ele>441.4</ele><time>2026-05-01T09:41:47Z</time></trkpt><trkpt lat="44.552521925852396" lon="8.374112657946021"><ele>438.2</ele><time>2026-05-01T09:41:48Z</time></trkpt><trkpt lat="44.55262786412037" lon="8.374173999783935"><ele>435.0</ele><time>2026-05-01T09:41:49Z</time></trkpt><trkpt lat="44.55274384260001" lon="8.3742005996552"><ele>435.0</ele><time>2026-05-01T09:41:50Z</time></trkpt><trkpt lat="44.55285822289951" lon="8.374178842473174"><ele>435.0</ele><time>2026-05-01T09:41:51Z</time></trkpt><trkpt lat="44.55296491325012" lon="8.374126796697183"><ele>435.0</ele><time>2026-05-01T09:41:52Z</time></trkpt><trkpt lat="44.553063599705396" lon="8.374072488012489"><ele>435.0</ele><time>2026-05-01T09:41:53Z</time></trkpt><trkpt lat="44.553164345219905" lon="8.374030582141891"><ele>435.0</ele><time>2026-05-01T09:41:54Z</time></trkpt><trkpt lat="44.55326363272916" lon="8.374076700671099"><ele>435.5</ele><time>2026-05-01T09:41:55Z</time></trkpt><trkpt lat="44.55335869299474" lon="8.374153270532943"><ele>436.0</ele><time>2026-05-01T09:41:56Z</time></trkpt><trkpt lat="44.55342828924109" lon="8.374294262212977"><ele>436.5</ele><time>2026-05-01T09:41:57Z</time></trkpt><trkpt lat="44.553507770899635" lon="8.374419089624988"><ele>437.0</ele><time>2026-05-01T09:41:58Z</time></trkpt><trkpt lat="44.553579550326575" lon="8.374521592307838"><ele>436.99999999999994</ele><time>2026-05-01T09:41:59Z</time></trkpt><trkpt lat="44.55364099946586" lon="8.374616414284977"><ele>437.0</ele><time>2026-05-01T09:42:00Z</time></trkpt><trkpt lat="44.55370236033615" lon="8.374702657070115"><ele>437.0</ele><time>2026-05-01T09:42:01Z</time></trkpt><trkpt lat="44.55374837869228" lon="8.37478848884058"><ele>437.0</ele><time>2026-05-01T09:42:02Z</time></trkpt><trkpt lat="44.553760906590995" lon="8.374892231053023"><ele>436.99999999999994</ele><time>2026-05-01T09:42:03Z</time></trkpt><trkpt lat="44.55376485917017" lon="8.374994529530047"><ele>437.0</ele><time>2026-05-01T09:42:04Z</time></trkpt><trkpt lat="44.553748802235795" lon="8.375107827845575"><ele>431.8</ele><time>2026-05-01T09:42:05Z</time></trkpt><trkpt lat="44.55372905280855" lon="8.375235809119049"><ele>426.6</ele><time>2026-05-01T09:42:06Z</time></trkpt><trkpt lat="44.55372628495935" lon="8.375362026287654"><ele>421.40000000000003</ele><time>2026-05-01T09:42:07Z</time></trkpt><trkpt lat="44.55377837907225" lon="8.375484004600457"><ele>416.20000000000005</ele><time>2026-05-01T09:42:08Z</time></trkpt><trkpt lat="44.55380056119765" lon="8.375615231045876"><ele>411.0</ele><time>2026-05-01T09:42:09Z</time></trkpt><trkpt lat="44.55381937392307" lon="8.375738192183771"><ele>410.6</ele><time>2026-05-01T09:42:10Z</time></trkpt><trkpt lat="44.553832975861894" lon="8.375858095633918"><ele>410.20000000000005</ele><time>2026-05-01T09:42:11Z</time></trkpt><trkpt lat="44.553860694153784" lon="8.375977826223854"><ele>409.79999999999995</ele><time>2026-05-01T09:42:12Z</time></trkpt><trkpt lat="44.553857833951774" lon="8.376102438625598"><ele>409.4</ele><time>2026-05-01T09:42:13Z</time></trkpt><trkpt lat="44.55381511207703" lon="8.376231670871261"><ele>409.0</ele><time>2026-05-01T09:42:14Z</time></trkpt><trkpt lat="44.553799185040425" lon="8.376385609952868"><ele>411.5</ele><time>2026-05-01T09:42:15Z</time></trkpt><trkpt lat="44.553810147577124" lon="8.37657305107939"><ele>414.0</ele><time>2026-05-01T09:42:16Z</time></trkpt><trkpt lat="44.553788672730846" lon="8.376783199918684"><ele>416.5</ele><time>2026-05-01T09:42:17Z</time></trkpt><trkpt lat="44.553775309035075" lon="8.376971943687211"><ele>419.0</ele><time>2026-05-01T09:42:18Z</time></trkpt><trkpt lat="44.55373393100518" lon="8.377130106972267"><ele>422.0</ele><time>2026-05-01T09:42:19Z</time></trkpt><trkpt lat="44.553672262749025" lon="8.377276360689525"><ele>425.0</ele><time>2026-05-01T09:42:20Z</time></trkpt><trkpt lat="44.55359657388311" lon="8.377429873308119"><ele>428.0</ele><time>2026-05-01T09:42:21Z</time></trkpt><trkpt lat="44.55352542850421" lon="8.37760186302565"><ele>431.0</ele><time>2026-05-01T09:42:22Z</time></trkpt><trkpt lat="44.55346750418226" lon="8.377752121518697"><ele>431.0</ele><time>2026-05-01T09:42:23Z</time></trkpt><trkpt lat="44.55341352107486" lon="8.377891141587774"><ele>431.0</ele><time>2026-05-01T09:42:24Z</time></trkpt><trkpt lat="44.55335908653705" lon="8.378019268339791"><ele>431.0</ele><time>2026-05-01T09:42:25Z</time></trkpt><trkpt lat="44.55331594331992" lon="8.378144733130874"><ele>431.0</ele><time>2026-05-01T09:42:26Z</time></trkpt><trkpt lat="44.55328603563144" lon="8.378268481798624"><ele>431.0</ele><time>2026-05-01T09:42:27Z</time></trkpt><trkpt lat="44.55330225777902" lon="8.378426242173248"><ele>433.0</ele><time>2026-05-01T09:42:28Z</time></trkpt><trkpt lat="44.55335838816998" lon="8.378610632074098"><ele>435.0</ele><time>2026-05-01T09:42:29Z</time></trkpt><trkpt lat="44.553388558090774" lon="8.37879091995795"><ele>437.0</ele><time>2026-05-01T09:42:30Z</time></trkpt><trkpt lat="44.553438339285826" lon="8.37893924234"><ele>439.0</ele><time>2026-05-01T09:42:31Z</time></trkpt><trkpt lat="44.55347244399892" lon="8.37908290055146"><ele>439.0</ele><time>2026-05-01T09:42:32Z</time></trkpt><trkpt lat="44.5535449718342" lon="8.37923854276894"><ele>439.0</ele><time>2026-05-01T09:42:33Z</time></trkpt><trkpt lat="44.55364754032447" lon="8.379410789702492"><ele>439.0</ele><time>2026-05-01T09:42:34Z</time></trkpt><trkpt lat="44.553749598924675" lon="8.379574420360573"><ele>439.0</ele><time>2026-05-01T09:42:35Z</time></trkpt><trkpt lat="44.553836356406975" lon="8.37972888564394"><ele>444.5</ele><time>2026-05-01T09:42:36Z</time></trkpt><trkpt lat="44.55391298175912" lon="8.379873994062699"><ele>450.0</ele><time>2026-05-01T09:42:37Z</time></trkpt><trkpt lat="44.5539775471557" lon="8.38001189010462"><ele>455.5</ele><time>2026-05-01T09:42:38Z</time></trkpt><trkpt lat="44.55399150090894" lon="8.380180331874746"><ele>461.0</ele><time>2026-05-01T09:42:39Z</time></trkpt><trkpt lat="44.55399385319964" lon="8.380354061949644"><ele>461.0</ele><time>2026-05-01T09:42:40Z</time></trkpt><trkpt lat="44.553993168070996" lon="8.380516058005252"><ele>461.0</ele><time>2026-05-01T09:42:41Z</time></trkpt><trkpt lat="44.553985396765036" lon="8.380657927545563"><ele>461.0</ele><time>2026-05-01T09:42:42Z</time></trkpt><trkpt lat="44.5539651596117" lon="8.3807961740635"><ele>461.0</ele><time>2026-05-01T09:42:43Z</time></trkpt><trkpt lat="44.553880434697184" lon="8.3809042298286"><ele>461.0</ele><time>2026-05-01T09:42:44Z</time></trkpt><trkpt lat="44.553774490445846" lon="8.380982926146071"><ele>457.75</ele><time>2026-05-01T09:42:45Z</time></trkpt><trkpt lat="44.553648554810614" lon="8.380950794860526"><ele>454.5</ele><time>2026-05-01T09:42:45.999Z</time></trkpt><trkpt lat="44.55352666346363" lon="8.380978211951454"><ele>451.25</ele><time>2026-05-01T09:42:46.999Z</time></trkpt><trkpt lat="44.553418627213404" lon="8.381027770245641"><ele>448.0</ele><time>2026-05-01T09:42:47.999Z</time></trkpt><trkpt lat="44.55332168469913" lon="8.381085342526013"><ele>448.00000000000006</ele><time>2026-05-01T09:42:48.999Z</time></trkpt><trkpt lat="44.55323254175654" lon="8.381142730854227"><ele>448.0</ele><time>2026-05-01T09:42:49.999Z</time></trkpt><trkpt lat="44.55315289648556" lon="8.38121202655914"><ele>448.0</ele><time>2026-05-01T09:42:50.999Z</time></trkpt><trkpt lat="44.55309694712735" lon="8.381300613703655"><ele>448.0</ele><time>2026-05-01T09:42:51.999Z</time></trkpt><trkpt lat="44.55306719336375" lon="8.3813951362099"><ele>448.00000000000006</ele><time>2026-05-01T09:42:52.999Z</time></trkpt><trkpt lat="44.553095897790854" lon="8.381522604338334"><ele>448.0</ele><time>2026-05-01T09:42:53.999Z</time></trkpt><trkpt lat="44.553206197323554" lon="8.381621710007343"><ele>451.75</ele><time>2026-05-01T09:42:54.999Z</time></trkpt><trkpt lat="44.55331392519757" lon="8.38173395623775"><ele>455.5</ele><time>2026-05-01T09:42:55.999Z</time></trkpt><trkpt lat="44.553397496877594" lon="8.381886148496259"><ele>459.25</ele><time>2026-05-01T09:42:56.999Z</time></trkpt><trkpt lat="44.55346861805836" lon="8.38199683586007"><ele>463.0</ele><time>2026-05-01T09:42:57.999Z</time></trkpt><trkpt lat="44.553521129709075" lon="8.38209011622094"><ele>463.0</ele><time>2026-05-01T09:42:58.999Z</time></trkpt><trkpt lat="44.55357702310047" lon="8.382158715629853"><ele>462.99999999999994</ele><time>2026-05-01T09:42:59.999Z</time></trkpt><trkpt lat="44.55362396382747" lon="8.382249571116319"><ele>462.99999999999994</ele><time>2026-05-01T09:43:01.999Z</time></trkpt><trkpt lat="44.553739304877894" lon="8.382225930350318"><ele>463.0</ele><time>2026-05-01T09:43:03.999Z</time></trkpt><trkpt lat="44.55382428274008" lon="8.382180049246637"><ele>463.0</ele><time>2026-05-01T09:43:04.999Z</time></trkpt><trkpt lat="44.55392702746337" lon="8.382159532452956"><ele>463.2</ele><time>2026-05-01T09:43:05.999Z</time></trkpt><trkpt lat="44.554033388061576" lon="8.38211926411132"><ele>463.4</ele><time>2026-05-01T09:43:06.999Z</time></trkpt><trkpt lat="44.55412628649862" lon="8.382062682543305"><ele>463.59999999999997</ele><time>2026-05-01T09:43:07.999Z</time></trkpt><trkpt lat="44.55421923362636" lon="8.382043780567534"><ele>463.79999999999995</ele><time>2026-05-01T09:43:08.999Z</time></trkpt><trkpt lat="44.554299871266466" lon="8.381947206861382"><ele>464.0</ele><time>2026-05-01T09:43:09.999Z</time></trkpt><trkpt lat="44.554383995648024" lon="8.381841276199381"><ele>464.0</ele><time>2026-05-01T09:43:10.999Z</time></trkpt><trkpt lat="44.5544649464377" lon="8.381729644361032"><ele>464.0</ele><time>2026-05-01T09:43:11.999Z</time></trkpt><trkpt lat="44.55458789489467" lon="8.381730491913421"><ele>464.0</ele><time>2026-05-01T09:43:12.999Z</time></trkpt><trkpt lat="44.554696095028596" lon="8.381665651711565"><ele>464.0</ele><time>2026-05-01T09:43:13.999Z</time></trkpt><trkpt lat="44.55480984374715" lon="8.381623160381894"><ele>460.25</ele><time>2026-05-01T09:43:14.999Z</time></trkpt><trkpt lat="44.554934076840254" lon="8.381623512344833"><ele>456.5</ele><time>2026-05-01T09:43:15.999Z</time></trkpt><trkpt lat="44.55505253562842" lon="8.381597625172525"><ele>452.75</ele><time>2026-05-01T09:43:16.999Z</time></trkpt><trkpt lat="44.5551509932197" lon="8.381515374196367"><ele>449.0</ele><time>2026-05-01T09:43:17.999Z</time></trkpt><trkpt lat="44.55524121889905" lon="8.38145850404356"><ele>448.99999999999994</ele><time>2026-05-01T09:43:18.999Z</time></trkpt><trkpt lat="44.555330312934394" lon="8.381484591325744"><ele>449.0</ele><time>2026-05-01T09:43:19.999Z</time></trkpt><trkpt lat="44.55542316863761" lon="8.381489750831255"><ele>449.0</ele><time>2026-05-01T09:43:20.999Z</time></trkpt><trkpt lat="44.55548349217667" lon="8.38160293260204"><ele>449.0</ele><time>2026-05-01T09:43:21.999Z</time></trkpt><trkpt lat="44.55554009732793" lon="8.381682893501685"><ele>448.99999999999994</ele><time>2026-05-01T09:43:22.999Z</time></trkpt><trkpt lat="44.55560227872552" lon="8.381738392661656"><ele>449.0</ele><time>2026-05-01T09:43:23.999Z</time></trkpt><trkpt lat="44.555678637025125" lon="8.381773010171482"><ele>447.6</ele><time>2026-05-01T09:43:24.999Z</time></trkpt><trkpt lat="44.555767162974064" lon="8.38176151628519"><ele>446.2</ele><time>2026-05-01T09:43:25.999Z</time></trkpt><trkpt lat="44.555854837751" lon="8.381723447371709"><ele>444.80000000000007</ele><time>2026-05-01T09:43:26.999Z</time></trkpt><trkpt lat="44.55594082183584" lon="8.381676161130022"><ele>443.40000000000003</ele><time>2026-05-01T09:43:27.999Z</time></trkpt><trkpt lat="44.55603286017622" lon="8.381638133747584"><ele>442.0</ele><time>2026-05-01T09:43:28.999Z</time></trkpt><trkpt lat="44.55611639509729" lon="8.381567961231672"><ele>442.0</ele><time>2026-05-01T09:43:29.999Z</time></trkpt><trkpt lat="44.55620254275713" lon="8.381514647504288"><ele>442.00000000000006</ele><time>2026-05-01T09:43:30.999Z</time></trkpt><trkpt lat="44.55630395186466" lon="8.381582297937474"><ele>442.00000000000006</ele><time>2026-05-01T09:43:31.999Z</time></trkpt><trkpt lat="44.556407466032425" lon="8.381583070138474"><ele>442.0</ele><time>2026-05-01T09:43:32.999Z</time></trkpt><trkpt lat="44.55650305669098" lon="8.381558779201281"><ele>442.0</ele><time>2026-05-01T09:43:33.999Z</time></trkpt><trkpt lat="44.55659192476741" lon="8.381504201443212"><ele>438.8</ele><time>2026-05-01T09:43:35Z</time></trkpt><trkpt lat="44.55666150633984" lon="8.381421942974498"><ele>435.6</ele><time>2026-05-01T09:43:36Z</time></trkpt><trkpt lat="44.55670202076828" lon="8.381302187723458"><ele>432.40000000000003</ele><time>2026-05-01T09:43:37Z</time></trkpt><trkpt lat="44.55671271382994" lon="8.381166914260735"><ele>429.20000000000005</ele><time>2026-05-01T09:43:38Z</time></trkpt><trkpt lat="44.55674360612535" lon="8.381047075493436"><ele>426.0</ele><time>2026-05-01T09:43:39Z</time></trkpt><trkpt lat="44.55683950225105" lon="8.38101164962982"><ele>425.6</ele><time>2026-05-01T09:43:40Z</time></trkpt><trkpt lat="44.55692804159512" lon="8.380973804335953"><ele>425.20000000000005</ele><time>2026-05-01T09:43:41Z</time></trkpt><trkpt lat="44.557019040341025" lon="8.3809881580706"><ele>424.79999999999995</ele><time>2026-05-01T09:43:42Z</time></trkpt><trkpt lat="44.5571062070362" lon="8.381041692121451"><ele>424.4</ele><time>2026-05-01T09:43:43Z</time></trkpt><trkpt lat="44.55719784375747" lon="8.38111110174036"><ele>424.0</ele><time>2026-05-01T09:43:44Z</time></trkpt><trkpt lat="44.55728381299849" lon="8.381171947413709"><ele>423.83333333333337</ele><time>2026-05-01T09:43:45Z</time></trkpt><trkpt lat="44.557359760830806" lon="8.381236586326768"><ele>423.6666666666667</ele><time>2026-05-01T09:43:46Z</time></trkpt><trkpt lat="44.55744423249777" lon="8.3812678986367"><ele>423.5</ele><time>2026-05-01T09:43:47Z</time></trkpt><trkpt lat="44.55753362411828" lon="8.381285945254175"><ele>423.33333333333337</ele><time>2026-05-01T09:43:48Z</time></trkpt><trkpt lat="44.55761633142703" lon="8.381317111767975"><ele>423.1666666666667</ele><time>2026-05-01T09:43:49Z</time></trkpt><trkpt lat="44.55769210534133" lon="8.381363794122274"><ele>423.0</ele><time>2026-05-01T09:43:50Z</time></trkpt><trkpt lat="44.55775634292386" lon="8.381436434925178"><ele>423.0</ele><time>2026-05-01T09:43:51Z</time></trkpt><trkpt lat="44.55779531461815" lon="8.38155162153459"><ele>423.0</ele><time>2026-05-01T09:43:52Z</time></trkpt><trkpt lat="44.55785577707967" lon="8.381648271693265"><ele>423.0</ele><time>2026-05-01T09:43:53Z</time></trkpt><trkpt lat="44.55791045111441" lon="8.381755290472666"><ele>423.0</ele><time>2026-05-01T09:43:54Z</time></trkpt><trkpt lat="44.55797364043427" lon="8.38185660749833"><ele>423.0</ele><time>2026-05-01T09:43:55Z</time></trkpt><trkpt lat="44.55804387820268" lon="8.381950480877247"><ele>422.4</ele><time>2026-05-01T09:43:56Z</time></trkpt><trkpt lat="44.55811604459595" lon="8.38202415346482"><ele>421.79999999999995</ele><time>2026-05-01T09:43:57Z</time></trkpt><trkpt lat="44.558193604459085" lon="8.382082192101327"><ele>421.2</ele><time>2026-05-01T09:43:58Z</time></trkpt><trkpt lat="44.55826206499344" lon="8.382165155190503"><ele>420.6</ele><time>2026-05-01T09:43:59Z</time></trkpt><trkpt lat="44.55834900511552" lon="8.382206987248042"><ele>420.0</ele><time>2026-05-01T09:44:00Z</time></trkpt><trkpt lat="44.55845853786202" lon="8.382082848040573"><ele>417.6</ele><time>2026-05-01T09:44:01Z</time></trkpt><trkpt lat="44.55855601995192" lon="8.38209587012257"><ele>415.2</ele><time>2026-05-01T09:44:02Z</time></trkpt><trkpt lat="44.55865048492575" lon="8.382120824682351"><ele>412.79999999999995</ele><time>2026-05-01T09:44:03Z</time></trkpt><trkpt lat="44.55873468499461" lon="8.382202174385057"><ele>410.4</ele><time>2026-05-01T09:44:04Z</time></trkpt><trkpt lat="44.55883617331561" lon="8.382238228003107"><ele>408.0</ele><time>2026-05-01T09:44:05Z</time></trkpt><trkpt lat="44.55893144163211" lon="8.38229050203462"><ele>408.0</ele><time>2026-05-01T09:44:06Z</time></trkpt><trkpt lat="44.55903398665488" lon="8.382316324042666"><ele>408.0</ele><time>2026-05-01T09:44:07Z</time></trkpt><trkpt lat="44.55912200212667" lon="8.382377862749143"><ele>408.0</ele><time>2026-05-01T09:44:08Z</time></trkpt><trkpt lat="44.55920039417895" lon="8.382452455967604"><ele>408.0</ele><time>2026-05-01T09:44:09Z</time></trkpt><trkpt lat="44.55927521039333" lon="8.382541214356678"><ele>408.0</ele><time>2026-05-01T09:44:10Z</time></trkpt><trkpt lat="44.559292379207754" lon="8.382685810753701"><ele>408.0</ele><time>2026-05-01T09:44:11Z</time></trkpt><trkpt lat="44.55934787346427" lon="8.382802582679881"><ele>408.0</ele><time>2026-05-01T09:44:12Z</time></trkpt><trkpt lat="44.55938889129531" lon="8.382926103818226"><ele>408.0</ele><time>2026-05-01T09:44:13Z</time></trkpt><trkpt lat="44.55944356654643" lon="8.38303835592777"><ele>408.0</ele><time>2026-05-01T09:44:14Z</time></trkpt><trkpt lat="44.55950056594483" lon="8.383148650991828"><ele>408.0</ele><time>2026-05-01T09:44:15Z</time></trkpt><trkpt lat="44.559562597863824" lon="8.383258289557423"><ele>404.0</ele><time>2026-05-01T09:44:16Z</time></trkpt><trkpt lat="44.559625914235724" lon="8.38336369807389"><ele>400.0</ele><time>2026-05-01T09:44:17Z</time></trkpt><trkpt lat="44.55969296579432" lon="8.383459108204685"><ele>396.0</ele><time>2026-05-01T09:44:18Z</time></trkpt><trkpt lat="44.55976466110235" lon="8.383548418454692"><ele>392.0</ele><time>2026-05-01T09:44:19Z</time></trkpt><trkpt lat="44.55984269088934" lon="8.383628336416221"><ele>388.0</ele><time>2026-05-01T09:44:20Z</time></trkpt><trkpt lat="44.55992267287889" lon="8.383705707151732"><ele>388.0</ele><time>2026-05-01T09:44:21Z</time></trkpt><trkpt lat="44.560009191367904" lon="8.383782280754088"><ele>388.0</ele><time>2026-05-01T09:44:22Z</time></trkpt><trkpt lat="44.56010396526271" lon="8.383823594097409"><ele>388.0</ele><time>2026-05-01T09:44:23Z</time></trkpt><trkpt lat="44.56020324353465" lon="8.383839527466485"><ele>388.0</ele><time>2026-05-01T09:44:24Z</time></trkpt><trkpt lat="44.560299911872036" lon="8.383850296433437"><ele>388.0</ele><time>2026-05-01T09:44:25Z</time></trkpt><trkpt lat="44.56039656144246" lon="8.383877943928034"><ele>387.0</ele><time>2026-05-01T09:44:26Z</time></trkpt><trkpt lat="44.56049485277622" lon="8.383904924016703"><ele>386.0</ele><time>2026-05-01T09:44:27Z</time></trkpt><trkpt lat="44.560588446967216" lon="8.383934396986078"><ele>385.0</ele><time>2026-05-01T09:44:28Z</time></trkpt><trkpt lat="44.56068142183221" lon="8.383964704007132"><ele>384.0</ele><time>2026-05-01T09:44:29Z</time></trkpt><trkpt lat="44.5607720433331" lon="8.383993862831826"><ele>383.0</ele><time>2026-05-01T09:44:30Z</time></trkpt><trkpt lat="44.560861431363385" lon="8.384031633087707"><ele>383.0</ele><time>2026-05-01T09:44:31Z</time></trkpt><trkpt lat="44.560952698767444" lon="8.384095118017404"><ele>383.0</ele><time>2026-05-01T09:44:32Z</time></trkpt><trkpt lat="44.56103505451097" lon="8.384177727429874"><ele>383.0</ele><time>2026-05-01T09:44:33Z</time></trkpt><trkpt lat="44.561108495969115" lon="8.384262412246205"><ele>383.0</ele><time>2026-05-01T09:44:34Z</time></trkpt><trkpt lat="44.56116946436891" lon="8.384373890825518"><ele>383.0</ele><time>2026-05-01T09:44:35Z</time></trkpt><trkpt lat="44.5612414963701" lon="8.384466816804961"><ele>384.0</ele><time>2026-05-01T09:44:36Z</time></trkpt><trkpt lat="44.561292166054656" lon="8.38458851373067"><ele>385.0</ele><time>2026-05-01T09:44:37Z</time></trkpt><trkpt lat="44.56133903215033" lon="8.384711875799203"><ele>386.0</ele><time>2026-05-01T09:44:38Z</time></trkpt><trkpt lat="44.56140593275493" lon="8.384806601538912"><ele>387.0</ele><time>2026-05-01T09:44:39Z</time></trkpt><trkpt lat="44.56149649520699" lon="8.384885754323811"><ele>388.0</ele><time>2026-05-01T09:44:40Z</time></trkpt><trkpt lat="44.56160095991931" lon="8.384952939527098"><ele>388.0</ele><time>2026-05-01T09:44:41Z</time></trkpt><trkpt lat="44.561708437272785" lon="8.385024297061024"><ele>388.0</ele><time>2026-05-01T09:44:42Z</time></trkpt><trkpt lat="44.56182545069892" lon="8.385093069919213"><ele>388.0</ele><time>2026-05-01T09:44:43Z</time></trkpt><trkpt lat="44.56194590690298" lon="8.385136242299966"><ele>388.0</ele><time>2026-05-01T09:44:44Z</time></trkpt><trkpt lat="44.562063681618866" lon="8.385155520813921"><ele>389.0</ele><time>2026-05-01T09:44:45Z</time></trkpt><trkpt lat="44.56217203539067" lon="8.38517269253784"><ele>390.0</ele><time>2026-05-01T09:44:46Z</time></trkpt><trkpt lat="44.56227251914161" lon="8.385220659801421"><ele>391.0</ele><time>2026-05-01T09:44:47Z</time></trkpt><trkpt lat="44.56234948771224" lon="8.385308442450375"><ele>392.0</ele><time>2026-05-01T09:44:48Z</time></trkpt><trkpt lat="44.56238188415357" lon="8.385444714538725"><ele>393.0</ele><time>2026-05-01T09:44:49Z</time></trkpt><trkpt lat="44.56244241900176" lon="8.385582677131788"><ele>393.0</ele><time>2026-05-01T09:44:49.999Z</time></trkpt><trkpt lat="44.5625050979018" lon="8.385700164921616"><ele>393.0</ele><time>2026-05-01T09:44:50.999Z</time></trkpt><trkpt lat="44.56255575252246" lon="8.385813888760339"><ele>393.0</ele><time>2026-05-01T09:44:51.999Z</time></trkpt><trkpt lat="44.562623364305416" lon="8.385934850328567"><ele>393.0</ele><time>2026-05-01T09:44:52.999Z</time></trkpt><trkpt lat="44.56270852090746" lon="8.38606290175142"><ele>393.0</ele><time>2026-05-01T09:44:53.999Z</time></trkpt><trkpt lat="44.56283166432015" lon="8.386203053058495"><ele>394.5</ele><time>2026-05-01T09:44:54.999Z</time></trkpt><trkpt lat="44.56292459097666" lon="8.386324547571812"><ele>396.0</ele><time>2026-05-01T09:44:55.999Z</time></trkpt><trkpt lat="44.56299963094465" lon="8.386464941460826"><ele>397.5</ele><time>2026-05-01T09:44:56.999Z</time></trkpt><trkpt lat="44.56306648513957" lon="8.386556138691567"><ele>399.0</ele><time>2026-05-01T09:44:57.999Z</time></trkpt><trkpt lat="44.56318289795747" lon="8.386603823723554"><ele>399.0</ele><time>2026-05-01T09:44:58.999Z</time></trkpt><trkpt lat="44.56331050762016" lon="8.386644123769912"><ele>399.0</ele><time>2026-05-01T09:44:59.999Z</time></trkpt><trkpt lat="44.56340324572117" lon="8.386764291186365"><ele>399.0</ele><time>2026-05-01T09:45:00.999Z</time></trkpt><trkpt lat="44.56348148076431" lon="8.386867401171818"><ele>399.0</ele><time>2026-05-01T09:45:01.999Z</time></trkpt><trkpt lat="44.56356573404633" lon="8.38692124267327"><ele>399.0</ele><time>2026-05-01T09:45:02.999Z</time></trkpt><trkpt lat="44.56368378084545" lon="8.386964498005277"><ele>399.0</ele><time>2026-05-01T09:45:03.999Z</time></trkpt><trkpt lat="44.563819692510044" lon="8.38697006740341"><ele>399.0</ele><time>2026-05-01T09:45:04.999Z</time></trkpt><trkpt lat="44.56395241606818" lon="8.386982905424716"><ele>399.0</ele><time>2026-05-01T09:45:05.999Z</time></trkpt><trkpt lat="44.56406777286879" lon="8.387029876184629"><ele>398.6</ele><time>2026-05-01T09:45:06.999Z</time></trkpt><trkpt lat="44.564171522271934" lon="8.387096247691586"><ele>398.2</ele><time>2026-05-01T09:45:07.999Z</time></trkpt><trkpt lat="44.56427248476825" lon="8.387126358893193"><ele>397.8</ele><time>2026-05-01T09:45:08.999Z</time></trkpt><trkpt lat="44.56437959091884" lon="8.387096805928849"><ele>397.40000000000003</ele><time>2026-05-01T09:45:09.999Z</time></trkpt><trkpt lat="44.5644903959802" lon="8.38703205871682"><ele>397.0</ele><time>2026-05-01T09:45:10.999Z</time></trkpt><trkpt lat="44.56461606887455" lon="8.387025720059627"><ele>399.5</ele><time>2026-05-01T09:45:11.999Z</time></trkpt><trkpt lat="44.56473893520697" lon="8.387057296088482"><ele>402.0</ele><time>2026-05-01T09:45:12.999Z</time></trkpt><trkpt lat="44.56486852656157" lon="8.387083053433932"><ele>404.5</ele><time>2026-05-01T09:45:13.999Z</time></trkpt><trkpt lat="44.56499229261634" lon="8.387103926461746"><ele>407.0</ele><time>2026-05-01T09:45:14.999Z</time></trkpt><trkpt lat="44.565101966953996" lon="8.387121715328062"><ele>407.0</ele><time>2026-05-01T09:45:15.999Z</time></trkpt><trkpt lat="44.56521144355976" lon="8.387124821313048"><ele>407.0</ele><time>2026-05-01T09:45:16.999Z</time></trkpt><trkpt lat="44.565317789023155" lon="8.387175979617163"><ele>407.0</ele><time>2026-05-01T09:45:17.999Z</time></trkpt><trkpt lat="44.56540825312487" lon="8.387250209432723"><ele>407.0</ele><time>2026-05-01T09:45:18.999Z</time></trkpt><trkpt lat="44.56549319567851" lon="8.387328143711834"><ele>407.0</ele><time>2026-05-01T09:45:19.999Z</time></trkpt><trkpt lat="44.56557557116073" lon="8.38738894884769"><ele>409.0</ele><time>2026-05-01T09:45:20.999Z</time></trkpt><trkpt lat="44.565638852966316" lon="8.387446918243581"><ele>411.0</ele><time>2026-05-01T09:45:21.999Z</time></trkpt><trkpt lat="44.56570820958242" lon="8.387451205664311"><ele>413.0</ele><time>2026-05-01T09:45:22.999Z</time></trkpt><trkpt lat="44.5657859272367" lon="8.387405851171048"><ele>415.0</ele><time>2026-05-01T09:45:23.999Z</time></trkpt><trkpt lat="44.565888523120464" lon="8.387348824338025"><ele>417.0</ele><time>2026-05-01T09:45:24.999Z</time></trkpt><trkpt lat="44.56600543127412" lon="8.387318028550084"><ele>417.0</ele><time>2026-05-01T09:45:25.999Z</time></trkpt><trkpt lat="44.56612568843434" lon="8.387253171692338"><ele>417.0</ele><time>2026-05-01T09:45:26.999Z</time></trkpt><trkpt lat="44.56624331089046" lon="8.38715456518618"><ele>417.0</ele><time>2026-05-01T09:45:27.999Z</time></trkpt><trkpt lat="44.56636595904307" lon="8.387110595920811"><ele>417.0</ele><time>2026-05-01T09:45:28.999Z</time></trkpt><trkpt lat="44.56648023984731" lon="8.38709258222233"><ele>420.20000000000005</ele><time>2026-05-01T09:45:29.999Z</time></trkpt><trkpt lat="44.56659468123969" lon="8.387061067067851"><ele>423.4</ele><time>2026-05-01T09:45:30.999Z</time></trkpt><trkpt lat="44.566710185019936" lon="8.38706810818503"><ele>426.59999999999997</ele><time>2026-05-01T09:45:31.999Z</time></trkpt><trkpt lat="44.56681755784497" lon="8.387101413323515"><ele>429.79999999999995</ele><time>2026-05-01T09:45:32.999Z</time></trkpt><trkpt lat="44.566923178462595" lon="8.387079891857203"><ele>433.0</ele><time>2026-05-01T09:45:33.999Z</time></trkpt><trkpt lat="44.56702197939035" lon="8.387082377076556"><ele>433.2</ele><time>2026-05-01T09:45:34.999Z</time></trkpt><trkpt lat="44.56711426902938" lon="8.387134771089652"><ele>433.4</ele><time>2026-05-01T09:45:35.999Z</time></trkpt><trkpt lat="44.567218392652386" lon="8.387159696880541"><ele>433.59999999999997</ele><time>2026-05-01T09:45:36.999Z</time></trkpt><trkpt lat="44.56731819615093" lon="8.387207482623682"><ele>433.79999999999995</ele><time>2026-05-01T09:45:37.999Z</time></trkpt><trkpt lat="44.56742894791816" lon="8.387267315419608"><ele>434.0</ele><time>2026-05-01T09:45:38.999Z</time></trkpt><trkpt lat="44.56755111478664" lon="8.387350770066085"><ele>434.0</ele><time>2026-05-01T09:45:39.999Z</time></trkpt><trkpt lat="44.56767387166222" lon="8.387456688585383"><ele>434.0</ele><time>2026-05-01T09:45:41Z</time></trkpt><trkpt lat="44.567777858313484" lon="8.387599020076205"><ele>434.0</ele><time>2026-05-01T09:45:42Z</time></trkpt><trkpt lat="44.56787377140377" lon="8.38773676684649"><ele>434.0</ele><time>2026-05-01T09:45:43Z</time></trkpt><trkpt lat="44.567958347825844" lon="8.387865032512321"><ele>433.0</ele><time>2026-05-01T09:45:44Z</time></trkpt><trkpt lat="44.56804984298758" lon="8.38795962235527"><ele>432.0</ele><time>2026-05-01T09:45:45Z</time></trkpt><trkpt lat="44.56813124591694" lon="8.388061013426618"><ele>431.0</ele><time>2026-05-01T09:45:46Z</time></trkpt><trkpt lat="44.568179297079645" lon="8.388197174209175"><ele>430.0</ele><time>2026-05-01T09:45:47Z</time></trkpt><trkpt lat="44.56822265779693" lon="8.388340907561895"><ele>429.0</ele><time>2026-05-01T09:45:48Z</time></trkpt><trkpt lat="44.56825892214841" lon="8.38849159522565"><ele>432.4</ele><time>2026-05-01T09:45:49Z</time></trkpt><trkpt lat="44.56830353861861" lon="8.388633854662515"><ele>435.79999999999995</ele><time>2026-05-01T09:45:50Z</time></trkpt><trkpt lat="44.568333263065746" lon="8.38876642148864"><ele>439.20000000000005</ele><time>2026-05-01T09:45:51Z</time></trkpt><trkpt lat="44.568342669894946" lon="8.388896343018718"><ele>442.6</ele><time>2026-05-01T09:45:52Z</time></trkpt><trkpt lat="44.56838086723853" lon="8.389003306074342"><ele>446.0</ele><time>2026-05-01T09:45:53Z</time></trkpt><trkpt lat="44.568401292299235" lon="8.38910034776932"><ele>448.8</ele><time>2026-05-01T09:45:54Z</time></trkpt><trkpt lat="44.56844811193587" lon="8.389179445738655"><ele>451.6</ele><time>2026-05-01T09:45:55Z</time></trkpt><trkpt lat="44.56853249121373" lon="8.389228184818691"><ele>454.4</ele><time>2026-05-01T09:45:56Z</time></trkpt><trkpt lat="44.56863613946226" lon="8.389247134151695"><ele>457.2</ele><time>2026-05-01T09:45:57Z</time></trkpt><trkpt lat="44.568745481723056" lon="8.38926096766835"><ele>460.0</ele><time>2026-05-01T09:45:58Z</time></trkpt><trkpt lat="44.568862266140556" lon="8.389298430138725"><ele>461.0</ele><time>2026-05-01T09:45:59Z</time></trkpt><trkpt lat="44.568990298000934" lon="8.389257275217288"><ele>462.0</ele><time>2026-05-01T09:46:00Z</time></trkpt><trkpt lat="44.56911925626816" lon="8.389207320879725"><ele>463.0</ele><time>2026-05-01T09:46:01Z</time></trkpt><trkpt lat="44.56923935703574" lon="8.389121994309745"><ele>464.0</ele><time>2026-05-01T09:46:02Z</time></trkpt><trkpt lat="44.56933988039127" lon="8.389001631802573"><ele>464.0</ele><time>2026-05-01T09:46:03Z</time></trkpt><trkpt lat="44.56942841318317" lon="8.388871866291323"><ele>464.0</ele><time>2026-05-01T09:46:04Z</time></trkpt><trkpt lat="44.569532886695455" lon="8.388770000524067"><ele>464.0</ele><time>2026-05-01T09:46:05Z</time></trkpt><trkpt lat="44.56959979954497" lon="8.388621756917308"><ele>464.0</ele><time>2026-05-01T09:46:06Z</time></trkpt><trkpt lat="44.569652561675746" lon="8.388470707830894"><ele>465.0</ele><time>2026-05-01T09:46:07Z</time></trkpt><trkpt lat="44.56971710106815" lon="8.388347244735192"><ele>466.0</ele><time>2026-05-01T09:46:08Z</time></trkpt><trkpt lat="44.56980498208044" lon="8.38824590055585"><ele>467.0</ele><time>2026-05-01T09:46:09Z</time></trkpt><trkpt lat="44.569873057029525" lon="8.388104102488155"><ele>468.0</ele><time>2026-05-01T09:46:10Z</time></trkpt><trkpt lat="44.569935583022044" lon="8.387948102224986"><ele>464.5</ele><time>2026-05-01T09:46:11Z</time></trkpt><trkpt lat="44.569985195826696" lon="8.387783709660692"><ele>461.0</ele><time>2026-05-01T09:46:12Z</time></trkpt><trkpt lat="44.570061063193776" lon="8.38764484124449"><ele>457.5</ele><time>2026-05-01T09:46:13Z</time></trkpt><trkpt lat="44.57013245216725" lon="8.387504337686591"><ele>454.0</ele><time>2026-05-01T09:46:14Z</time></trkpt><trkpt lat="44.570208545654964" lon="8.387370057220883"><ele>454.0</ele><time>2026-05-01T09:46:15Z</time></trkpt><trkpt lat="44.57030334244382" lon="8.387261872610464"><ele>454.0</ele><time>2026-05-01T09:46:16Z</time></trkpt><trkpt lat="44.57041212365126" lon="8.387183323138238"><ele>454.0</ele><time>2026-05-01T09:46:17Z</time></trkpt><trkpt lat="44.57051685894819" lon="8.387090166943914"><ele>454.0</ele><time>2026-05-01T09:46:18Z</time></trkpt><trkpt lat="44.57062654158701" lon="8.387027694965022"><ele>458.25</ele><time>2026-05-01T09:46:19Z</time></trkpt><trkpt lat="44.570732029794534" lon="8.386950450364072"><ele>462.5</ele><time>2026-05-01T09:46:20Z</time></trkpt><trkpt lat="44.57081742759698" lon="8.386839800627403"><ele>466.75</ele><time>2026-05-01T09:46:21Z</time></trkpt><trkpt lat="44.57088672310923" lon="8.386700526026598"><ele>471.0</ele><time>2026-05-01T09:46:22Z</time></trkpt><trkpt lat="44.57094458788191" lon="8.386547726158113"><ele>471.0</ele><time>2026-05-01T09:46:23Z</time></trkpt><trkpt lat="44.57100973590536" lon="8.386391218845466"><ele>471.0</ele><time>2026-05-01T09:46:24Z</time></trkpt><trkpt lat="44.57107676789312" lon="8.386224916428528"><ele>471.0</ele><time>2026-05-01T09:46:25Z</time></trkpt><trkpt lat="44.57113101503" lon="8.3860648771449"><ele>471.0</ele><time>2026-05-01T09:46:26Z</time></trkpt><trkpt lat="44.57121401819849" lon="8.385945930040235"><ele>472.75</ele><time>2026-05-01T09:46:27Z</time></trkpt><trkpt lat="44.571289696076214" lon="8.385823146524721"><ele>474.5</ele><time>2026-05-01T09:46:28Z</time></trkpt><trkpt lat="44.57135000794032" lon="8.385684347720678"><ele>476.25</ele><time>2026-05-01T09:46:29Z</time></trkpt><trkpt lat="44.57141738890387" lon="8.385560792665256"><ele>478.0</ele><time>2026-05-01T09:46:30Z</time></trkpt><trkpt lat="44.571460679905485" lon="8.385414068949524"><ele>478.0</ele><time>2026-05-01T09:46:31Z</time></trkpt><trkpt lat="44.571486010936205" lon="8.385263117923989"><ele>477.99999999999994</ele><time>2026-05-01T09:46:32Z</time></trkpt><trkpt lat="44.57149305485927" lon="8.385109994825225"><ele>477.99999999999994</ele><time>2026-05-01T09:46:33Z</time></trkpt><trkpt lat="44.5715027172634" lon="8.38495622377346"><ele>478.0</ele><time>2026-05-01T09:46:34Z</time></trkpt><trkpt lat="44.571493836732216" lon="8.384803369817698"><ele>478.0</ele><time>2026-05-01T09:46:35Z</time></trkpt><trkpt lat="44.571489541606496" lon="8.384656143463667"><ele>475.0</ele><time>2026-05-01T09:46:36Z</time></trkpt><trkpt lat="44.57151671456803" lon="8.384524936260908"><ele>471.99999999999994</ele><time>2026-05-01T09:46:37Z</time></trkpt><trkpt lat="44.571561359210655" lon="8.3843952673627"><ele>468.99999999999994</ele><time>2026-05-01T09:46:38Z</time></trkpt><trkpt lat="44.5715955694309" lon="8.38425105435134"><ele>466.0</ele><time>2026-05-01T09:46:39Z</time></trkpt><trkpt lat="44.57165327378783" lon="8.384118142824258"><ele>463.0</ele><time>2026-05-01T09:46:40Z</time></trkpt><trkpt lat="44.5717165920171" lon="8.383984162548135"><ele>463.0</ele><time>2026-05-01T09:46:41Z</time></trkpt><trkpt lat="44.57179328662036" lon="8.383856995482617"><ele>463.0</ele><time>2026-05-01T09:46:42Z</time></trkpt><trkpt lat="44.571875344038645" lon="8.383733275802227"><ele>463.0</ele><time>2026-05-01T09:46:43Z</time></trkpt><trkpt lat="44.571928822126644" lon="8.383579526517977"><ele>463.0</ele><time>2026-05-01T09:46:44Z</time></trkpt><trkpt lat="44.57195463111397" lon="8.383406218882126"><ele>458.75</ele><time>2026-05-01T09:46:45Z</time></trkpt><trkpt lat="44.571963805091016" lon="8.383232527836158"><ele>454.5</ele><time>2026-05-01T09:46:46Z</time></trkpt><trkpt lat="44.57195939592602" lon="8.383061404526465"><ele>450.25</ele><time>2026-05-01T09:46:47Z</time></trkpt><trkpt lat="44.57195113327367" lon="8.382892167731043"><ele>446.0</ele><time>2026-05-01T09:46:48Z</time></trkpt><trkpt lat="44.57193292362619" lon="8.382724213204078"><ele>444.0</ele><time>2026-05-01T09:46:49Z</time></trkpt><trkpt lat="44.57190886707769" lon="8.382558889259192"><ele>442.0</ele><time>2026-05-01T09:46:50Z</time></trkpt><trkpt lat="44.5718838740244" lon="8.382405104695374"><ele>440.0</ele><time>2026-05-01T09:46:51Z</time></trkpt><trkpt lat="44.571903243752885" lon="8.382271559501973"><ele>438.0</ele><time>2026-05-01T09:46:52Z</time></trkpt><trkpt lat="44.57193680421931" lon="8.382153080137677"><ele>436.0</ele><time>2026-05-01T09:46:53Z</time></trkpt><trkpt lat="44.57200137883769" lon="8.382063823319758"><ele>437.20000000000005</ele><time>2026-05-01T09:46:53.999Z</time></trkpt><trkpt lat="44.572065170115735" lon="8.381967415751802"><ele>438.40000000000003</ele><time>2026-05-01T09:46:54.999Z</time></trkpt><trkpt lat="44.572149658415206" lon="8.38188417483805"><ele>439.6</ele><time>2026-05-01T09:46:55.999Z</time></trkpt><trkpt lat="44.572244587064844" lon="8.381799033397735"><ele>440.8</ele><time>2026-05-01T09:46:56.999Z</time></trkpt><trkpt lat="44.57235476821194" lon="8.381783551458012"><ele>442.0</ele><time>2026-05-01T09:46:57.999Z</time></trkpt><trkpt lat="44.57246009777877" lon="8.381788225674123"><ele>442.0</ele><time>2026-05-01T09:46:58.999Z</time></trkpt><trkpt lat="44.57256920512729" lon="8.381826111470348"><ele>442.00000000000006</ele><time>2026-05-01T09:46:59.999Z</time></trkpt><trkpt lat="44.57266843516137" lon="8.38189400698377"><ele>442.00000000000006</ele><time>2026-05-01T09:47:00.999Z</time></trkpt><trkpt lat="44.57274381192551" lon="8.381994682008495"><ele>442.0</ele><time>2026-05-01T09:47:01.999Z</time></trkpt><trkpt lat="44.57281354189822" lon="8.382105111514946"><ele>442.0</ele><time>2026-05-01T09:47:02.999Z</time></trkpt><trkpt lat="44.57290146087117" lon="8.382164509365365"><ele>444.25</ele><time>2026-05-01T09:47:03.999Z</time></trkpt><trkpt lat="44.57301772222104" lon="8.382183492825954"><ele>446.5</ele><time>2026-05-01T09:47:04.999Z</time></trkpt><trkpt lat="44.57314172005393" lon="8.38218946943393"><ele>448.75</ele><time>2026-05-01T09:47:05.999Z</time></trkpt><trkpt lat="44.573253691685665" lon="8.382227888210007"><ele>451.0</ele><time>2026-05-01T09:47:06.999Z</time></trkpt><trkpt lat="44.57337245711035" lon="8.38224579419072"><ele>451.0</ele><time>2026-05-01T09:47:07.999Z</time></trkpt><trkpt lat="44.57348952693318" lon="8.382232906576208"><ele>451.0</ele><time>2026-05-01T09:47:08.999Z</time></trkpt><trkpt lat="44.57360206405399" lon="8.382226312883907"><ele>451.0</ele><time>2026-05-01T09:47:09.999Z</time></trkpt><trkpt lat="44.57371073656512" lon="8.38219873812058"><ele>451.0</ele><time>2026-05-01T09:47:10.999Z</time></trkpt><trkpt lat="44.57381275890516" lon="8.38220545235809"><ele>451.0</ele><time>2026-05-01T09:47:11.999Z</time></trkpt><trkpt lat="44.573907257251044" lon="8.382238706717082"><ele>448.8</ele><time>2026-05-01T09:47:12.999Z</time></trkpt><trkpt lat="44.57400006902579" lon="8.382227073908824"><ele>446.6</ele><time>2026-05-01T09:47:13.999Z</time></trkpt><trkpt lat="44.57409491593146" lon="8.382229792920194"><ele>444.4</ele><time>2026-05-01T09:47:14.999Z</time></trkpt><trkpt lat="44.574193290166534" lon="8.3821125716927"><ele>442.2</ele><time>2026-05-01T09:47:15.999Z</time></trkpt><trkpt lat="44.574306409897666" lon="8.382058858371735"><ele>440.0</ele><time>2026-05-01T09:47:16.999Z</time></trkpt><trkpt lat="44.57441353665322" lon="8.382034789650783"><ele>438.0</ele><time>2026-05-01T09:47:17.999Z</time></trkpt><trkpt lat="44.57451936647442" lon="8.382038642510324"><ele>436.0</ele><time>2026-05-01T09:47:18.999Z</time></trkpt><trkpt lat="44.574628816791616" lon="8.382083252384119"><ele>434.0</ele><time>2026-05-01T09:47:19.999Z</time></trkpt><trkpt lat="44.57470194167943" lon="8.382206578430342"><ele>432.0</ele><time>2026-05-01T09:47:20.999Z</time></trkpt><trkpt lat="44.574746468516416" lon="8.382349549896812"><ele>430.0</ele><time>2026-05-01T09:47:21.999Z</time></trkpt><trkpt lat="44.574808138592346" lon="8.382484904312856"><ele>430.0</ele><time>2026-05-01T09:47:22.999Z</time></trkpt><trkpt lat="44.57490855864055" lon="8.382559896484631"><ele>430.0</ele><time>2026-05-01T09:47:23.999Z</time></trkpt><trkpt lat="44.57501086315078" lon="8.382601304350334"><ele>430.0</ele><time>2026-05-01T09:47:24.999Z</time></trkpt><trkpt lat="44.57510625701553" lon="8.38266752780864"><ele>430.0</ele><time>2026-05-01T09:47:25.999Z</time></trkpt><trkpt lat="44.57517804412273" lon="8.382795112167509"><ele>430.0</ele><time>2026-05-01T09:47:26.999Z</time></trkpt><trkpt lat="44.575271041913076" lon="8.382913534361087"><ele>430.75</ele><time>2026-05-01T09:47:27.999Z</time></trkpt><trkpt lat="44.57537758852254" lon="8.382997332692806"><ele>431.5</ele><time>2026-05-01T09:47:28.999Z</time></trkpt><trkpt lat="44.575483410864685" lon="8.383080280484503"><ele>432.25</ele><time>2026-05-01T09:47:29.999Z</time></trkpt><trkpt lat="44.57559676509067" lon="8.383125852688863"><ele>433.0</ele><time>2026-05-01T09:47:30.999Z</time></trkpt><trkpt lat="44.575710469437446" lon="8.383160874444743"><ele>433.0</ele><time>2026-05-01T09:47:31.999Z</time></trkpt><trkpt lat="44.575820382601734" lon="8.383194955673105"><ele>433.0</ele><time>2026-05-01T09:47:32.999Z</time></trkpt><trkpt lat="44.57593591759841" lon="8.383234230634246"><ele>433.0</ele><time>2026-05-01T09:47:33.999Z</time></trkpt><trkpt lat="44.57605551275666" lon="8.383281909268824"><ele>433.0</ele><time>2026-05-01T09:47:34.999Z</time></trkpt><trkpt lat="44.57617584182665" lon="8.383328288859799"><ele>430.5</ele><time>2026-05-01T09:47:35.999Z</time></trkpt><trkpt lat="44.57629973739588" lon="8.383351465288385"><ele>428.0</ele><time>2026-05-01T09:47:36.999Z</time></trkpt><trkpt lat="44.57641822809803" lon="8.383317239410998"><ele>425.5</ele><time>2026-05-01T09:47:37.999Z</time></trkpt><trkpt lat="44.576532816019956" lon="8.383305040183554"><ele>423.0</ele><time>2026-05-01T09:47:38.999Z</time></trkpt><trkpt lat="44.576647527777304" lon="8.383308830479269"><ele>423.0</ele><time>2026-05-01T09:47:39.999Z</time></trkpt><trkpt lat="44.57676872329033" lon="8.383324602049386"><ele>423.0</ele><time>2026-05-01T09:47:40.999Z</time></trkpt><trkpt lat="44.57690037132404" lon="8.383329873302879"><ele>423.0</ele><time>2026-05-01T09:47:41.999Z</time></trkpt><trkpt lat="44.57703511062703" lon="8.383307795146266"><ele>423.0</ele><time>2026-05-01T09:47:42.999Z</time></trkpt><trkpt lat="44.57715931034951" lon="8.38327883304709"><ele>425.75</ele><time>2026-05-01T09:47:43.999Z</time></trkpt><trkpt lat="44.57727982457207" lon="8.383282591316151"><ele>428.5</ele><time>2026-05-01T09:47:44.999Z</time></trkpt><trkpt lat="44.57739712101957" lon="8.383333046768822"><ele>431.25</ele><time>2026-05-01T09:47:45.999Z</time></trkpt><trkpt lat="44.577497694274435" lon="8.383424667651497"><ele>434.0</ele><time>2026-05-01T09:47:47Z</time></trkpt><trkpt lat="44.57759748974486" lon="8.38353855445354"><ele>434.0</ele><time>2026-05-01T09:47:48Z</time></trkpt><trkpt lat="44.577705971504265" lon="8.383630762692002"><ele>434.0</ele><time>2026-05-01T09:47:49Z</time></trkpt><trkpt lat="44.57781474383382" lon="8.383689400855923"><ele>434.0</ele><time>2026-05-01T09:47:50Z</time></trkpt><trkpt lat="44.577905995822036" lon="8.383727201623026"><ele>434.0</ele><time>2026-05-01T09:47:51Z</time></trkpt><trkpt lat="44.57796802916462" lon="8.38376066504448"><ele>434.0</ele><time>2026-05-01T09:47:52Z</time></trkpt><trkpt lat="44.57819961938525" lon="8.383920786710139"><ele>435.75</ele><time>2026-05-01T09:47:53Z</time></trkpt><trkpt lat="44.57831330930134" lon="8.384012532286757"><ele>437.5</ele><time>2026-05-01T09:47:54Z</time></trkpt><trkpt lat="44.57842241337473" lon="8.384091544837084"><ele>439.25</ele><time>2026-05-01T09:47:55Z</time></trkpt><trkpt lat="44.578537666743344" lon="8.3841392427098"><ele>441.0</ele><time>2026-05-01T09:47:56Z</time></trkpt><trkpt lat="44.57866125690016" lon="8.384155393014256"><ele>443.20000000000005</ele><time>2026-05-01T09:47:57Z</time></trkpt><trkpt lat="44.57876875000244" lon="8.384223955255289"><ele>445.40000000000003</ele><time>2026-05-01T09:47:58Z</time></trkpt><trkpt lat="44.578854937219006" lon="8.384326067825977"><ele>447.6</ele><time>2026-05-01T09:47:59Z</time></trkpt><trkpt lat="44.578891810176856" lon="8.384469552475606"><ele>449.8</ele><time>2026-05-01T09:48:00Z</time></trkpt><trkpt lat="44.578959337973934" lon="8.38456138605231"><ele>452.0</ele><time>2026-05-01T09:48:01Z</time></trkpt><trkpt lat="44.579014617428925" lon="8.384637296258285"><ele>452.0</ele><time>2026-05-01T09:48:02Z</time></trkpt><trkpt lat="44.57910261854175" lon="8.384632160524916"><ele>452.00000000000006</ele><time>2026-05-01T09:48:03Z</time></trkpt><trkpt lat="44.57919340887726" lon="8.384556056471551"><ele>452.00000000000006</ele><time>2026-05-01T09:48:04Z</time></trkpt><trkpt lat="44.57926422407356" lon="8.384439158966309"><ele>452.0</ele><time>2026-05-01T09:48:05Z</time></trkpt><trkpt lat="44.57930890586339" lon="8.384294718823886"><ele>452.0</ele><time>2026-05-01T09:48:06Z</time></trkpt><trkpt lat="44.579323742168185" lon="8.384126119718548"><ele>452.0</ele><time>2026-05-01T09:48:07Z</time></trkpt><trkpt lat="44.57936094716672" lon="8.383958183730357"><ele>452.0</ele><time>2026-05-01T09:48:08Z</time></trkpt><trkpt lat="44.57948830624182" lon="8.383874780911936"><ele>452.0</ele><time>2026-05-01T09:48:09Z</time></trkpt><trkpt lat="44.57958069377421" lon="8.383748926252409"><ele>452.0</ele><time>2026-05-01T09:48:10Z</time></trkpt><trkpt lat="44.579645852298164" lon="8.38360508337577"><ele>452.25</ele><time>2026-05-01T09:48:11Z</time></trkpt><trkpt lat="44.57972256608216" lon="8.383484247274605"><ele>452.5</ele><time>2026-05-01T09:48:12Z</time></trkpt><trkpt lat="44.57983139145126" lon="8.383426797208758"><ele>452.75</ele><time>2026-05-01T09:48:13Z</time></trkpt><trkpt lat="44.579950896291514" lon="8.383415113565786"><ele>453.0</ele><time>2026-05-01T09:48:14Z</time></trkpt><trkpt lat="44.58007877023689" lon="8.38337629877053"><ele>453.0</ele><time>2026-05-01T09:48:15Z</time></trkpt><trkpt lat="44.58018233349065" lon="8.383295088293389"><ele>452.99999999999994</ele><time>2026-05-01T09:48:16Z</time></trkpt><trkpt lat="44.580279351005665" lon="8.383225192696099"><ele>452.99999999999994</ele><time>2026-05-01T09:48:17Z</time></trkpt><trkpt lat="44.58037189029471" lon="8.383158546334839"><ele>453.0</ele><time>2026-05-01T09:48:18Z</time></trkpt><trkpt lat="44.58046456248094" lon="8.38312677264449"><ele>453.0</ele><time>2026-05-01T09:48:19Z</time></trkpt><trkpt lat="44.58055369994962" lon="8.383101651046655"><ele>454.0</ele><time>2026-05-01T09:48:20Z</time></trkpt><trkpt lat="44.580628834554375" lon="8.383211677054948"><ele>455.0</ele><time>2026-05-01T09:48:21Z</time></trkpt><trkpt lat="44.58074699610867" lon="8.383297407144264"><ele>456.0</ele><time>2026-05-01T09:48:22Z</time></trkpt><trkpt lat="44.58087968349056" lon="8.383352833844048"><ele>457.0</ele><time>2026-05-01T09:48:23Z</time></trkpt><trkpt lat="44.58101879001452" lon="8.383418912866684"><ele>457.0</ele><time>2026-05-01T09:48:24Z</time></trkpt><trkpt lat="44.58116126546056" lon="8.383492087392678"><ele>457.0</ele><time>2026-05-01T09:48:25Z</time></trkpt><trkpt lat="44.58130698558644" lon="8.383570559050852"><ele>457.0</ele><time>2026-05-01T09:48:26Z</time></trkpt><trkpt lat="44.58144313511344" lon="8.383645305441647"><ele>457.0</ele><time>2026-05-01T09:48:27Z</time></trkpt><trkpt lat="44.58157530800761" lon="8.383692609040764"><ele>457.0</ele><time>2026-05-01T09:48:28Z</time></trkpt><trkpt lat="44.581698294553654" lon="8.383683503814446"><ele>457.0</ele><time>2026-05-01T09:48:29Z</time></trkpt><trkpt lat="44.58181477418038" lon="8.38364807242628"><ele>457.0</ele><time>2026-05-01T09:48:30Z</time></trkpt><trkpt lat="44.58192265183265" lon="8.383668042848422"><ele>455.0</ele><time>2026-05-01T09:48:31Z</time></trkpt><trkpt lat="44.58202127076852" lon="8.383730672899915"><ele>453.0</ele><time>2026-05-01T09:48:32Z</time></trkpt><trkpt lat="44.582126961225434" lon="8.383805124317306"><ele>451.0</ele><time>2026-05-01T09:48:33Z</time></trkpt><trkpt lat="44.58217152175513" lon="8.383967282189497"><ele>449.0</ele><time>2026-05-01T09:48:34Z</time></trkpt><trkpt lat="44.58223291425359" lon="8.384106683227811"><ele>453.25</ele><time>2026-05-01T09:48:35Z</time></trkpt><trkpt lat="44.582279537474335" lon="8.384232849170532"><ele>457.5</ele><time>2026-05-01T09:48:36Z</time></trkpt><trkpt lat="44.58237537703099" lon="8.384317077107328"><ele>461.75</ele><time>2026-05-01T09:48:37Z</time></trkpt><trkpt lat="44.582506947492256" lon="8.384334405307982"><ele>466.0</ele><time>2026-05-01T09:48:38Z</time></trkpt><trkpt lat="44.58262138743179" lon="8.384373787576022"><ele>466.0</ele><time>2026-05-01T09:48:39Z</time></trkpt><trkpt lat="44.58272936658187" lon="8.384402916552641"><ele>466.0</ele><time>2026-05-01T09:48:40Z</time></trkpt><trkpt lat="44.58282963755318" lon="8.384396191625623"><ele>466.0</ele><time>2026-05-01T09:48:41Z</time></trkpt><trkpt lat="44.582899171144035" lon="8.38428361298314"><ele>466.0</ele><time>2026-05-01T09:48:42Z</time></trkpt><trkpt lat="44.58293123908617" lon="8.384127117083128"><ele>466.0</ele><time>2026-05-01T09:48:43Z</time></trkpt><trkpt lat="44.58300891047648" lon="8.384012154978404"><ele>466.5</ele><time>2026-05-01T09:48:44Z</time></trkpt><trkpt lat="44.58309814049741" lon="8.383929679885052"><ele>467.0</ele><time>2026-05-01T09:48:45Z</time></trkpt><trkpt lat="44.58319952246882" lon="8.38385525239929"><ele>467.5</ele><time>2026-05-01T09:48:46Z</time></trkpt><trkpt lat="44.5832976221724" lon="8.383763803396976"><ele>468.0</ele><time>2026-05-01T09:48:47Z</time></trkpt><trkpt lat="44.58340689214293" lon="8.383703124167369"><ele>465.25</ele><time>2026-05-01T09:48:48Z</time></trkpt><trkpt lat="44.58351793054097" lon="8.383637444155056"><ele>462.5</ele><time>2026-05-01T09:48:49Z</time></trkpt><trkpt lat="44.5836264262293" lon="8.383567681101843"><ele>459.75</ele><time>2026-05-01T09:48:50Z</time></trkpt><trkpt lat="44.5837309105429" lon="8.383488725687055"><ele>457.0</ele><time>2026-05-01T09:48:51Z</time></trkpt><trkpt lat="44.583831652577" lon="8.383396852607104"><ele>457.0</ele><time>2026-05-01T09:48:52Z</time></trkpt><trkpt lat="44.58393656448874" lon="8.383309568158637"><ele>457.0</ele><time>2026-05-01T09:48:53Z</time></trkpt><trkpt lat="44.58403477007645" lon="8.38321199033281"><ele>457.0</ele><time>2026-05-01T09:48:54Z</time></trkpt><trkpt lat="44.58415504215702" lon="8.383158719834212"><ele>457.0</ele><time>2026-05-01T09:48:55Z</time></trkpt><trkpt lat="44.58427467533696" lon="8.383130200358032"><ele>457.0</ele><time>2026-05-01T09:48:55.999Z</time></trkpt><trkpt lat="44.58439276227569" lon="8.383130513031785"><ele>457.0</ele><time>2026-05-01T09:48:56.999Z</time></trkpt><trkpt lat="44.58451128806721" lon="8.38311085626726"><ele>457.0</ele><time>2026-05-01T09:48:57.999Z</time></trkpt><trkpt lat="44.58462585308126" lon="8.38311089287658"><ele>457.0</ele><time>2026-05-01T09:48:58.999Z</time></trkpt><trkpt lat="44.584738874831245" lon="8.383077735924932"><ele>452.75</ele><time>2026-05-01T09:48:59.999Z</time></trkpt><trkpt lat="44.58485085530641" lon="8.382997326968615"><ele>448.5</ele><time>2026-05-01T09:49:00.999Z</time></trkpt><trkpt lat="44.58496376667628" lon="8.382878106809095"><ele>444.25</ele><time>2026-05-01T09:49:01.999Z</time></trkpt><trkpt lat="44.58507120379285" lon="8.382739998031525"><ele>440.0</ele><time>2026-05-01T09:49:02.999Z</time></trkpt><trkpt lat="44.58516933189555" lon="8.382603785897842"><ele>440.0</ele><time>2026-05-01T09:49:03.999Z</time></trkpt><trkpt lat="44.58526503366648" lon="8.38246937460181"><ele>440.0</ele><time>2026-05-01T09:49:04.999Z</time></trkpt><trkpt lat="44.585355324182274" lon="8.382345873246951"><ele>440.0</ele><time>2026-05-01T09:49:05.999Z</time></trkpt><trkpt lat="44.58545888863796" lon="8.382271136375442"><ele>440.0</ele><time>2026-05-01T09:49:06.999Z</time></trkpt><trkpt lat="44.5855571726184" lon="8.382217436268737"><ele>439.75</ele><time>2026-05-01T09:49:07.999Z</time></trkpt><trkpt lat="44.585664508893736" lon="8.382182655110137"><ele>439.5</ele><time>2026-05-01T09:49:08.999Z</time></trkpt><trkpt lat="44.585778593658176" lon="8.382135789034495"><ele>439.25</ele><time>2026-05-01T09:49:09.999Z</time></trkpt><trkpt lat="44.58589929877468" lon="8.382103360180418"><ele>439.0</ele><time>2026-05-01T09:49:10.999Z</time></trkpt><trkpt lat="44.58602148638788" lon="8.3820571777616"><ele>437.75</ele><time>2026-05-01T09:49:11.999Z</time></trkpt><trkpt lat="44.586143068521835" lon="8.382008941686554"><ele>436.5</ele><time>2026-05-01T09:49:12.999Z</time></trkpt><trkpt lat="44.58626304361439" lon="8.381961098063902"><ele>435.25</ele><time>2026-05-01T09:49:13.999Z</time></trkpt><trkpt lat="44.58638799447811" lon="8.381913066456729"><ele>434.0</ele><time>2026-05-01T09:49:14.999Z</time></trkpt><trkpt lat="44.58651051942221" lon="8.381866851815964"><ele>431.75</ele><time>2026-05-01T09:49:15.999Z</time></trkpt><trkpt lat="44.58663287878896" lon="8.381849947576109"><ele>429.5</ele><time>2026-05-01T09:49:16.999Z</time></trkpt><trkpt lat="44.58675327313901" lon="8.381851624888544"><ele>427.25</ele><time>2026-05-01T09:49:17.999Z</time></trkpt><trkpt lat="44.58687383415614" lon="8.38188030641813"><ele>425.0</ele><time>2026-05-01T09:49:18.999Z</time></trkpt><trkpt lat="44.586998372679936" lon="8.381890062502611"><ele>422.75</ele><time>2026-05-01T09:49:19.999Z</time></trkpt><trkpt lat="44.587120422895154" lon="8.381914634090668"><ele>420.5</ele><time>2026-05-01T09:49:20.999Z</time></trkpt><trkpt lat="44.58724213339958" lon="8.381917688992393"><ele>418.25</ele><time>2026-05-01T09:49:21.999Z</time></trkpt><trkpt lat="44.58736151212812" lon="8.381903896752457"><ele>416.0</ele><time>2026-05-01T09:49:22.999Z</time></trkpt><trkpt lat="44.587473654860034" lon="8.38186098411298"><ele>416.0</ele><time>2026-05-01T09:49:23.999Z</time></trkpt><trkpt lat="44.58758133952916" lon="8.381795446704176"><ele>416.0</ele><time>2026-05-01T09:49:24.999Z</time></trkpt><trkpt lat="44.587691744089874" lon="8.381715790782899"><ele>416.0</ele><time>2026-05-01T09:49:25.999Z</time></trkpt><trkpt lat="44.587798734406874" lon="8.381637286748486"><ele>416.0</ele><time>2026-05-01T09:49:26.999Z</time></trkpt><trkpt lat="44.58790679155187" lon="8.381566226276501"><ele>416.5</ele><time>2026-05-01T09:49:27.999Z</time></trkpt><trkpt lat="44.58801500809295" lon="8.381496975619035"><ele>417.0</ele><time>2026-05-01T09:49:28.999Z</time></trkpt><trkpt lat="44.588126430152755" lon="8.381460978025078"><ele>417.5</ele><time>2026-05-01T09:49:29.999Z</time></trkpt><trkpt lat="44.588230647721446" lon="8.38140276665514"><ele>418.0</ele><time>2026-05-01T09:49:30.999Z</time></trkpt><trkpt lat="44.58833629125592" lon="8.381362878384628"><ele>418.0</ele><time>2026-05-01T09:49:31.999Z</time></trkpt><trkpt lat="44.58844321621056" lon="8.381324102040939"><ele>418.0</ele><time>2026-05-01T09:49:32.999Z</time></trkpt><trkpt lat="44.58855421349312" lon="8.381324995043176"><ele>418.0</ele><time>2026-05-01T09:49:33.999Z</time></trkpt><trkpt lat="44.58866505203549" lon="8.381358366346657"><ele>418.0</ele><time>2026-05-01T09:49:34.999Z</time></trkpt><trkpt lat="44.58878366391924" lon="8.381411233000312"><ele>419.0</ele><time>2026-05-01T09:49:35.999Z</time></trkpt><trkpt lat="44.58890248870088" lon="8.381438169529421"><ele>420.0</ele><time>2026-05-01T09:49:36.999Z</time></trkpt><trkpt lat="44.58900877382153" lon="8.381475709692781"><ele>421.0</ele><time>2026-05-01T09:49:37.999Z</time></trkpt><trkpt lat="44.589117781368394" lon="8.381484028116047"><ele>422.0</ele><time>2026-05-01T09:49:38.999Z</time></trkpt><trkpt lat="44.58923377873792" lon="8.381462482970766"><ele>422.0</ele><time>2026-05-01T09:49:39.999Z</time></trkpt><trkpt lat="44.589354184095285" lon="8.381413689136135"><ele>422.0</ele><time>2026-05-01T09:49:40.999Z</time></trkpt><trkpt lat="44.589474143438096" lon="8.381343944983087"><ele>422.0</ele><time>2026-05-01T09:49:41.999Z</time></trkpt><trkpt lat="44.5895898379761" lon="8.381291038807868"><ele>422.0</ele><time>2026-05-01T09:49:42.999Z</time></trkpt><trkpt lat="44.589704696150335" lon="8.381243337837413"><ele>423.25</ele><time>2026-05-01T09:49:43.999Z</time></trkpt><trkpt lat="44.5898147059449" lon="8.381188324870731"><ele>424.5</ele><time>2026-05-01T09:49:44.999Z</time></trkpt><trkpt lat="44.58992937185655" lon="8.381089464869218"><ele>425.75</ele><time>2026-05-01T09:49:45.999Z</time></trkpt><trkpt lat="44.59003354237206" lon="8.380961150202307"><ele>427.0</ele><time>2026-05-01T09:49:46.999Z</time></trkpt><trkpt lat="44.590127696603304" lon="8.380837981780475"><ele>427.0</ele><time>2026-05-01T09:49:47.999Z</time></trkpt><trkpt lat="44.59022156438684" lon="8.380740767687518"><ele>427.0</ele><time>2026-05-01T09:49:48.999Z</time></trkpt><trkpt lat="44.590334945380356" lon="8.38069891436086"><ele>427.0</ele><time>2026-05-01T09:49:49.999Z</time></trkpt><trkpt lat="44.59044840269244" lon="8.380625608811995"><ele>427.0</ele><time>2026-05-01T09:49:50.999Z</time></trkpt><trkpt lat="44.590561358856824" lon="8.380588183801141"><ele>430.20000000000005</ele><time>2026-05-01T09:49:52Z</time></trkpt><trkpt lat="44.59065137792381" lon="8.380551250901505"><ele>433.40000000000003</ele><time>2026-05-01T09:49:53Z</time></trkpt><trkpt lat="44.59072757927677" lon="8.380486996366507"><ele>436.59999999999997</ele><time>2026-05-01T09:49:54Z</time></trkpt><trkpt lat="44.590795478329945" lon="8.380373332576015"><ele>439.79999999999995</ele><time>2026-05-01T09:49:55Z</time></trkpt><trkpt lat="44.59083871660874" lon="8.380247289125203"><ele>443.0</ele><time>2026-05-01T09:49:56Z</time></trkpt><trkpt lat="44.59084811695231" lon="8.380116815398912"><ele>443.79999999999995</ele><time>2026-05-01T09:49:57Z</time></trkpt><trkpt lat="44.59085191257471" lon="8.379956649728932"><ele>444.59999999999997</ele><time>2026-05-01T09:49:58Z</time></trkpt><trkpt lat="44.59088955925636" lon="8.379794220499743"><ele>445.40000000000003</ele><time>2026-05-01T09:49:59Z</time></trkpt><trkpt lat="44.590892043982905" lon="8.379647823897807"><ele>446.20000000000005</ele><time>2026-05-01T09:50:00Z</time></trkpt><trkpt lat="44.59090394761877" lon="8.379525153239808"><ele>447.0</ele><time>2026-05-01T09:50:01Z</time></trkpt><trkpt lat="44.59090432307099" lon="8.379410938493203"><ele>447.0</ele><time>2026-05-01T09:50:02Z</time></trkpt><trkpt lat="44.59091872500765" lon="8.379312072104817"><ele>447.00000000000006</ele><time>2026-05-01T09:50:03Z</time></trkpt><trkpt lat="44.59092247896965" lon="8.379219916052365"><ele>447.00000000000006</ele><time>2026-05-01T09:50:04Z</time></trkpt><trkpt lat="44.590957831975764" lon="8.3790520315213"><ele>447.0</ele><time>2026-05-01T09:50:06Z</time></trkpt><trkpt lat="44.5910636814732" lon="8.379004408997082"><ele>447.0</ele><time>2026-05-01T09:50:07Z</time></trkpt><trkpt lat="44.59115317069767" lon="8.37885863867748"><ele>456.33333333333337</ele><time>2026-05-01T09:50:08Z</time></trkpt><trkpt lat="44.591260314398006" lon="8.378689342537303"><ele>465.6666666666667</ele><time>2026-05-01T09:50:09Z</time></trkpt><trkpt lat="44.591358052599766" lon="8.378491782129219"><ele>475.0</ele><time>2026-05-01T09:50:10Z</time></trkpt><trkpt lat="44.591463544256904" lon="8.378292952207401"><ele>475.0</ele><time>2026-05-01T09:50:11Z</time></trkpt><trkpt lat="44.59157052701488" lon="8.378105906251022"><ele>475.0</ele><time>2026-05-01T09:50:12Z</time></trkpt><trkpt lat="44.59167368415195" lon="8.37792777567927"><ele>475.0</ele><time>2026-05-01T09:50:13Z</time></trkpt><trkpt lat="44.59176957902188" lon="8.37775133483713"><ele>477.0</ele><time>2026-05-01T09:50:14Z</time></trkpt><trkpt lat="44.59185555633327" lon="8.377573998535786"><ele>479.0</ele><time>2026-05-01T09:50:15Z</time></trkpt><trkpt lat="44.591935832026216" lon="8.377404226659863"><ele>481.0</ele><time>2026-05-01T09:50:16Z</time></trkpt><trkpt lat="44.59201260598831" lon="8.377232241122151"><ele>483.0</ele><time>2026-05-01T09:50:17Z</time></trkpt><trkpt lat="44.59208398669248" lon="8.377049568241318"><ele>483.0</ele><time>2026-05-01T09:50:18Z</time></trkpt><trkpt lat="44.59213917641875" lon="8.376861806680358"><ele>483.0</ele><time>2026-05-01T09:50:19Z</time></trkpt><trkpt lat="44.592172778425" lon="8.376680449413406"><ele>483.0</ele><time>2026-05-01T09:50:20Z</time></trkpt><trkpt lat="44.59219614499308" lon="8.376514788879598"><ele>483.0</ele><time>2026-05-01T09:50:21Z</time></trkpt><trkpt lat="44.59223655245407" lon="8.376347818100777"><ele>478.5</ele><time>2026-05-01T09:50:22Z</time></trkpt><trkpt lat="44.592328282592945" lon="8.37621768204255"><ele>474.0</ele><time>2026-05-01T09:50:23Z</time></trkpt><trkpt lat="44.592433378474425" lon="8.376125506490496"><ele>469.5</ele><time>2026-05-01T09:50:24Z</time></trkpt><trkpt lat="44.59255701349164" lon="8.376088964529158"><ele>465.0</ele><time>2026-05-01T09:50:25Z</time></trkpt><trkpt lat="44.592701124822085" lon="8.376101153397501"><ele>469.33333333333337</ele><time>2026-05-01T09:50:26Z</time></trkpt><trkpt lat="44.59286240592024" lon="8.376098839119706"><ele>473.6666666666667</ele><time>2026-05-01T09:50:27Z</time></trkpt><trkpt lat="44.59302257278477" lon="8.37609394096881"><ele>478.0</ele><time>2026-05-01T09:50:28Z</time></trkpt><trkpt lat="44.5931865873949" lon="8.37604742946022"><ele>478.0</ele><time>2026-05-01T09:50:29Z</time></trkpt><trkpt lat="44.59335147378539" lon="8.375980451998455"><ele>478.0</ele><time>2026-05-01T09:50:30Z</time></trkpt><trkpt lat="44.593500150657306" lon="8.375889158545036"><ele>478.0</ele><time>2026-05-01T09:50:31Z</time></trkpt><trkpt lat="44.593651376525436" lon="8.375802083715516"><ele>475.33333333333337</ele><time>2026-05-01T09:50:32Z</time></trkpt><trkpt lat="44.59379318775785" lon="8.375715459983775"><ele>472.66666666666663</ele><time>2026-05-01T09:50:33Z</time></trkpt><trkpt lat="44.59392933181441" lon="8.375619370279889"><ele>470.0</ele><time>2026-05-01T09:50:34Z</time></trkpt><trkpt lat="44.594054352905125" lon="8.37550654442269"><ele>470.0</ele><time>2026-05-01T09:50:35Z</time></trkpt><trkpt lat="44.59415203922252" lon="8.375392923470962"><ele>470.0</ele><time>2026-05-01T09:50:36Z</time></trkpt><trkpt lat="44.59423952686286" lon="8.37529452571777"><ele>470.0</ele><time>2026-05-01T09:50:37Z</time></trkpt><trkpt lat="44.594321524012415" lon="8.375208999012486"><ele>470.0</ele><time>2026-05-01T09:50:38Z</time></trkpt><trkpt lat="44.5943963294591" lon="8.375130471726493"><ele>470.0</ele><time>2026-05-01T09:50:39Z</time></trkpt><trkpt lat="44.5944625480301" lon="8.375074963538886"><ele>470.0</ele><time>2026-05-01T09:50:40Z</time></trkpt><trkpt lat="44.59453785402039" lon="8.375117030035902"><ele>470.0</ele><time>2026-05-01T09:50:41Z</time></trkpt><trkpt lat="44.594562552820996" lon="8.375236660759485"><ele>470.0</ele><time>2026-05-01T09:50:42Z</time></trkpt><trkpt lat="44.59457534354456" lon="8.375344045014046"><ele>470.0</ele><time>2026-05-01T09:50:43Z</time></trkpt><trkpt lat="44.59447056201204" lon="8.375423150867409"><ele>470.0</ele><time>2026-05-01T09:50:44Z</time></trkpt><trkpt lat="44.594397981376474" lon="8.375525191471208"><ele>475.25</ele><time>2026-05-01T09:50:45Z</time></trkpt><trkpt lat="44.594320078234574" lon="8.375678585155324"><ele>480.5</ele><time>2026-05-01T09:50:46Z</time></trkpt><trkpt lat="44.59426353262633" lon="8.375850486992098"><ele>485.75</ele><time>2026-05-01T09:50:47Z</time></trkpt><trkpt lat="44.594231094610144" lon="8.376068443507526"><ele>491.0</ele><time>2026-05-01T09:50:48Z</time></trkpt><trkpt lat="44.5942261864347" lon="8.376300997936228"><ele>494.66666666666663</ele><time>2026-05-01T09:50:49Z</time></trkpt><trkpt lat="44.594229356132026" lon="8.37652587561487"><ele>498.33333333333337</ele><time>2026-05-01T09:50:50Z</time></trkpt><trkpt lat="44.59423162251352" lon="8.376757068733513"><ele>502.0</ele><time>2026-05-01T09:50:51Z</time></trkpt><trkpt lat="44.594231217898134" lon="8.376975309914624"><ele>505.25</ele><time>2026-05-01T09:50:52Z</time></trkpt><trkpt lat="44.59422995144299" lon="8.377188924497466"><ele>508.5</ele><time>2026-05-01T09:50:53Z</time></trkpt><trkpt lat="44.59423860423955" lon="8.377392229512814"><ele>511.75</ele><time>2026-05-01T09:50:54Z</time></trkpt><trkpt lat="44.59427028690337" lon="8.377583129518424"><ele>515.0</ele><time>2026-05-01T09:50:55Z</time></trkpt><trkpt lat="44.59431759102752" lon="8.377767908163129"><ele>515.0</ele><time>2026-05-01T09:50:56Z</time></trkpt><trkpt lat="44.59436920797761" lon="8.377938244591869"><ele>515.0</ele><time>2026-05-01T09:50:57Z</time></trkpt><trkpt lat="44.59441379260881" lon="8.378090114850373"><ele>515.0</ele><time>2026-05-01T09:50:58Z</time></trkpt><trkpt lat="44.59446966624506" lon="8.378180391011005"><ele>515.0</ele><time>2026-05-01T09:50:59Z</time></trkpt><trkpt lat="44.594588260110335" lon="8.378260181952676"><ele>511.25</ele><time>2026-05-01T09:51:00.999Z</time></trkpt><trkpt lat="44.59466640484325" lon="8.378314878979419"><ele>507.5</ele><time>2026-05-01T09:51:01.999Z</time></trkpt><trkpt lat="44.594741171328934" lon="8.378429008105497"><ele>503.75</ele><time>2026-05-01T09:51:02.999Z</time></trkpt><trkpt lat="44.59483125566567" lon="8.37858082928194"><ele>500.0</ele><time>2026-05-01T09:51:03.999Z</time></trkpt><trkpt lat="44.59493394302979" lon="8.378745553317627"><ele>502.75</ele><time>2026-05-01T09:51:04.999Z</time></trkpt><trkpt lat="44.59505183929619" lon="8.378899949574208"><ele>505.5</ele><time>2026-05-01T09:51:05.999Z</time></trkpt><trkpt lat="44.59514533589969" lon="8.37903989579093"><ele>508.25</ele><time>2026-05-01T09:51:06.999Z</time></trkpt><trkpt lat="44.59522137334452" lon="8.379192380270025"><ele>511.0</ele><time>2026-05-01T09:51:07.999Z</time></trkpt><trkpt lat="44.59530954393694" lon="8.37932977085452"><ele>508.5</ele><time>2026-05-01T09:51:08.999Z</time></trkpt><trkpt lat="44.59540434605694" lon="8.379444920775974"><ele>506.0</ele><time>2026-05-01T09:51:09.999Z</time></trkpt><trkpt lat="44.59548612399427" lon="8.379571981059877"><ele>503.5</ele><time>2026-05-01T09:51:10.999Z</time></trkpt><trkpt lat="44.59557002356256" lon="8.379687648769826"><ele>501.0</ele><time>2026-05-01T09:51:11.999Z</time></trkpt><trkpt lat="44.595656943262554" lon="8.379775549861256"><ele>501.0</ele><time>2026-05-01T09:51:12.999Z</time></trkpt><trkpt lat="44.595747696909136" lon="8.379848715342105"><ele>501.0</ele><time>2026-05-01T09:51:13.999Z</time></trkpt><trkpt lat="44.595836574993335" lon="8.379941394591587"><ele>501.0</ele><time>2026-05-01T09:51:14.999Z</time></trkpt><trkpt lat="44.59594579948562" lon="8.380027069336403"><ele>501.0</ele><time>2026-05-01T09:51:15.999Z</time></trkpt><trkpt lat="44.596071349348314" lon="8.38011895282157"><ele>495.0</ele><time>2026-05-01T09:51:16.999Z</time></trkpt><trkpt lat="44.5962143231334" lon="8.380199726579498"><ele>489.0</ele><time>2026-05-01T09:51:17.999Z</time></trkpt><trkpt lat="44.596344206677614" lon="8.38029953387056"><ele>483.0</ele><time>2026-05-01T09:51:18.999Z</time></trkpt><trkpt lat="44.5964775035351" lon="8.380388939119689"><ele>483.0</ele><time>2026-05-01T09:51:19.999Z</time></trkpt><trkpt lat="44.59660752431845" lon="8.380484285951768"><ele>483.0</ele><time>2026-05-01T09:51:20.999Z</time></trkpt><trkpt lat="44.59673729672702" lon="8.380584434160742"><ele>483.0</ele><time>2026-05-01T09:51:21.999Z</time></trkpt><trkpt lat="44.596863930813235" lon="8.380687471048896"><ele>483.0</ele><time>2026-05-01T09:51:22.999Z</time></trkpt><trkpt lat="44.59699100595788" lon="8.380798367477949"><ele>480.0</ele><time>2026-05-01T09:51:23.999Z</time></trkpt><trkpt lat="44.59712488202489" lon="8.380911112797774"><ele>477.0</ele><time>2026-05-01T09:51:24.999Z</time></trkpt><trkpt lat="44.597262044421825" lon="8.381022333521887"><ele>474.0</ele><time>2026-05-01T09:51:25.999Z</time></trkpt><trkpt lat="44.59739840067877" lon="8.38113565768519"><ele>474.0</ele><time>2026-05-01T09:51:26.999Z</time></trkpt><trkpt lat="44.59754170630327" lon="8.381242563309565"><ele>474.0</ele><time>2026-05-01T09:51:27.999Z</time></trkpt><trkpt lat="44.59768786742573" lon="8.38135800705968"><ele>474.0</ele><time>2026-05-01T09:51:28.999Z</time></trkpt><trkpt lat="44.597837644000876" lon="8.381464880633077"><ele>479.33333333333337</ele><time>2026-05-01T09:51:29.999Z</time></trkpt><trkpt lat="44.59798743775685" lon="8.381549397754592"><ele>484.6666666666667</ele><time>2026-05-01T09:51:30.999Z</time></trkpt><trkpt lat="44.59814322470897" lon="8.381616736725467"><ele>490.0</ele><time>2026-05-01T09:51:31.999Z</time></trkpt><trkpt lat="44.598288702827205" lon="8.381662696232137"><ele>490.0</ele><time>2026-05-01T09:51:32.999Z</time></trkpt><trkpt lat="44.59842091693508" lon="8.3817059629944"><ele>490.0</ele><time>2026-05-01T09:51:33.999Z</time></trkpt><trkpt lat="44.59853933761891" lon="8.381748622191427"><ele>490.0</ele><time>2026-05-01T09:51:34.999Z</time></trkpt><trkpt lat="44.598646794464734" lon="8.381769480654528"><ele>490.0</ele><time>2026-05-01T09:51:35.999Z</time></trkpt><trkpt lat="44.59876588038765" lon="8.381720137545015"><ele>491.75</ele><time>2026-05-01T09:51:36.999Z</time></trkpt><trkpt lat="44.59889584727663" lon="8.38165153305584"><ele>493.5</ele><time>2026-05-01T09:51:37.999Z</time></trkpt><trkpt lat="44.59903113537476" lon="8.381622895053953"><ele>495.25</ele><time>2026-05-01T09:51:38.999Z</time></trkpt><trkpt lat="44.59917460408282" lon="8.381625136454838"><ele>497.0</ele><time>2026-05-01T09:51:39.999Z</time></trkpt><trkpt lat="44.59931867086859" lon="8.38166547724899"><ele>497.0</ele><time>2026-05-01T09:51:40.999Z</time></trkpt><trkpt lat="44.59945615937547" lon="8.381676635020803"><ele>497.0</ele><time>2026-05-01T09:51:41.999Z</time></trkpt><trkpt lat="44.59959614057835" lon="8.381676812211431"><ele>497.0</ele><time>2026-05-01T09:51:42.999Z</time></trkpt><trkpt lat="44.59973820620174" lon="8.381620351897743"><ele>497.0</ele><time>2026-05-01T09:51:43.999Z</time></trkpt><trkpt lat="44.599887532128946" lon="8.381598519560088"><ele>497.75</ele><time>2026-05-01T09:51:44.999Z</time></trkpt><trkpt lat="44.60002350725398" lon="8.381593601781184"><ele>498.5</ele><time>2026-05-01T09:51:45.999Z</time></trkpt><trkpt lat="44.600151778791485" lon="8.381568237992445"><ele>499.25</ele><time>2026-05-01T09:51:46.999Z</time></trkpt><trkpt lat="44.60026677105556" lon="8.381544703697555"><ele>500.0</ele><time>2026-05-01T09:51:47.999Z</time></trkpt><trkpt lat="44.60037702661523" lon="8.381541976730523"><ele>500.0</ele><time>2026-05-01T09:51:48.999Z</time></trkpt><trkpt lat="44.60047584970479" lon="8.381551774282093"><ele>500.0</ele><time>2026-05-01T09:51:49.999Z</time></trkpt><trkpt lat="44.60055206577564" lon="8.381634891322474"><ele>500.0</ele><time>2026-05-01T09:51:50.999Z</time></trkpt><trkpt lat="44.60058412154373" lon="8.381789834705986"><ele>500.0</ele><time>2026-05-01T09:51:51.999Z</time></trkpt><trkpt lat="44.60060734495014" lon="8.381979947276786"><ele>500.0</ele><time>2026-05-01T09:51:52.999Z</time></trkpt><trkpt lat="44.60065339995624" lon="8.382183445639477"><ele>504.0</ele><time>2026-05-01T09:51:53.999Z</time></trkpt><trkpt lat="44.600687379579895" lon="8.382396254966743"><ele>508.0</ele><time>2026-05-01T09:51:54.999Z</time></trkpt><trkpt lat="44.600723594227546" lon="8.382600267150638"><ele>512.0</ele><time>2026-05-01T09:51:55.999Z</time></trkpt><trkpt lat="44.60076610548933" lon="8.382797584464436"><ele>512.0</ele><time>2026-05-01T09:51:56.999Z</time></trkpt><trkpt lat="44.60080698982275" lon="8.382992307973199"><ele>512.0</ele><time>2026-05-01T09:51:58Z</time></trkpt><trkpt lat="44.60084093853713" lon="8.383169377387647"><ele>512.0</ele><time>2026-05-01T09:51:59Z</time></trkpt><trkpt lat="44.600877774605145" lon="8.383314865041411"><ele>512.0</ele><time>2026-05-01T09:52:00Z</time></trkpt><trkpt lat="44.60095177361657" lon="8.383442507015031"><ele>512.6</ele><time>2026-05-01T09:52:01Z</time></trkpt><trkpt lat="44.60104693457584" lon="8.38355155903454"><ele>513.2</ele><time>2026-05-01T09:52:02Z</time></trkpt><trkpt lat="44.60113346233008" lon="8.383662071261513"><ele>513.8</ele><time>2026-05-01T09:52:03Z</time></trkpt><trkpt lat="44.60116725554214" lon="8.383800284058013"><ele>514.4</ele><time>2026-05-01T09:52:04Z</time></trkpt><trkpt lat="44.60121412344507" lon="8.383887025495769"><ele>515.0</ele><time>2026-05-01T09:52:05Z</time></trkpt><trkpt lat="44.601271771657764" lon="8.38396864219449"><ele>515.0</ele><time>2026-05-01T09:52:06Z</time></trkpt><trkpt lat="44.601373453975576" lon="8.383989100986227"><ele>515.0</ele><time>2026-05-01T09:52:07Z</time></trkpt><trkpt lat="44.60148366614028" lon="8.38392506081244"><ele>515.0</ele><time>2026-05-01T09:52:08Z</time></trkpt><trkpt lat="44.601583938440136" lon="8.383812677076243"><ele>515.0</ele><time>2026-05-01T09:52:09Z</time></trkpt><trkpt lat="44.60167030011698" lon="8.383709777791735"><ele>515.0</ele><time>2026-05-01T09:52:10Z</time></trkpt><trkpt lat="44.60175876505267" lon="8.38366816868408"><ele>515.0</ele><time>2026-05-01T09:52:11Z</time></trkpt><trkpt lat="44.601842000658195" lon="8.383685572421435"><ele>515.0</ele><time>2026-05-01T09:52:12Z</time></trkpt><trkpt lat="44.60189593353572" lon="8.383811522379755"><ele>515.0</ele><time>2026-05-01T09:52:13Z</time></trkpt><trkpt lat="44.601970633603436" lon="8.383903643403128"><ele>515.0</ele><time>2026-05-01T09:52:14Z</time></trkpt><trkpt lat="44.60204158517545" lon="8.38399961552468"><ele>519.25</ele><time>2026-05-01T09:52:15Z</time></trkpt><trkpt lat="44.602150091176966" lon="8.384027108922842"><ele>523.5</ele><time>2026-05-01T09:52:16Z</time></trkpt><trkpt lat="44.602275708580265" lon="8.384004616197036"><ele>527.75</ele><time>2026-05-01T09:52:17Z</time></trkpt><trkpt lat="44.6024027735767" lon="8.383989693479501"><ele>532.0</ele><time>2026-05-01T09:52:18Z</time></trkpt><trkpt lat="44.60251159275546" lon="8.384005380064673"><ele>532.0</ele><time>2026-05-01T09:52:19Z</time></trkpt><trkpt lat="44.60259734323936" lon="8.384027142055396"><ele>532.0</ele><time>2026-05-01T09:52:20Z</time></trkpt><trkpt lat="44.60265414477519" lon="8.384095079017879"><ele>532.0</ele><time>2026-05-01T09:52:21Z</time></trkpt><trkpt lat="44.60265239936049" lon="8.384229006978437"><ele>532.0</ele><time>2026-05-01T09:52:22Z</time></trkpt><trkpt lat="44.60267235011161" lon="8.384384082529044"><ele>532.0</ele><time>2026-05-01T09:52:23Z</time></trkpt><trkpt lat="44.602697455196854" lon="8.38454921964925"><ele>532.8000000000001</ele><time>2026-05-01T09:52:24Z</time></trkpt><trkpt lat="44.60272816808746" lon="8.384718656807582"><ele>533.6</ele><time>2026-05-01T09:52:25Z</time></trkpt><trkpt lat="44.60277299235619" lon="8.384861680032353"><ele>534.4000000000001</ele><time>2026-05-01T09:52:26Z</time></trkpt><trkpt lat="44.60282223253551" lon="8.384974901511674"><ele>535.2</ele><time>2026-05-01T09:52:27Z</time></trkpt><trkpt lat="44.60289638965998" lon="8.385036920205657"><ele>536.0</ele><time>2026-05-01T09:52:28Z</time></trkpt><trkpt lat="44.60299178305099" lon="8.385023545351164"><ele>536.0</ele><time>2026-05-01T09:52:29Z</time></trkpt><trkpt lat="44.60309396190249" lon="8.384945785944062"><ele>536.0</ele><time>2026-05-01T09:52:30Z</time></trkpt><trkpt lat="44.60322098373391" lon="8.384899348034255"><ele>536.0</ele><time>2026-05-01T09:52:31Z</time></trkpt><trkpt lat="44.603360517215314" lon="8.384872574413484"><ele>536.0</ele><time>2026-05-01T09:52:32Z</time></trkpt><trkpt lat="44.60351573144527" lon="8.384872288787541"><ele>536.0</ele><time>2026-05-01T09:52:33Z</time></trkpt><trkpt lat="44.60365680824825" lon="8.384914745076403"><ele>536.0</ele><time>2026-05-01T09:52:34Z</time></trkpt><trkpt lat="44.603789021733874" lon="8.384951557019697"><ele>536.0</ele><time>2026-05-01T09:52:35Z</time></trkpt><trkpt lat="44.60391124218846" lon="8.384939559956997"><ele>536.0</ele><time>2026-05-01T09:52:36Z</time></trkpt><trkpt lat="44.60402891506722" lon="8.384948698407639"><ele>538.25</ele><time>2026-05-01T09:52:37Z</time></trkpt><trkpt lat="44.60413526858435" lon="8.38503716696775"><ele>540.5</ele><time>2026-05-01T09:52:38Z</time></trkpt><trkpt lat="44.60423109027287" lon="8.385171966390695"><ele>542.75</ele><time>2026-05-01T09:52:39Z</time></trkpt><trkpt lat="44.60433640614844" lon="8.3853151691892"><ele>545.0</ele><time>2026-05-01T09:52:40Z</time></trkpt><trkpt lat="44.604419036449094" lon="8.385464603160681"><ele>544.75</ele><time>2026-05-01T09:52:41Z</time></trkpt><trkpt lat="44.60448432630901" lon="8.385608256061115"><ele>544.5</ele><time>2026-05-01T09:52:42Z</time></trkpt><trkpt lat="44.60454089685399" lon="8.385760958250716"><ele>544.25</ele><time>2026-05-01T09:52:43Z</time></trkpt><trkpt lat="44.6045930230024" lon="8.38590432917563"><ele>544.0</ele><time>2026-05-01T09:52:44Z</time></trkpt><trkpt lat="44.604654360751866" lon="8.386031408006179"><ele>544.0</ele><time>2026-05-01T09:52:45Z</time></trkpt><trkpt lat="44.60474152020338" lon="8.386124432637743"><ele>544.0</ele><time>2026-05-01T09:52:46Z</time></trkpt><trkpt lat="44.60487239072612" lon="8.386163237796591"><ele>544.0</ele><time>2026-05-01T09:52:47Z</time></trkpt><trkpt lat="44.60502803304189" lon="8.386167438451523"><ele>544.0</ele><time>2026-05-01T09:52:48Z</time></trkpt><trkpt lat="44.605179035452515" lon="8.386183909300744"><ele>544.0</ele><time>2026-05-01T09:52:49Z</time></trkpt><trkpt lat="44.60531569996393" lon="8.386275964044058"><ele>544.0</ele><time>2026-05-01T09:52:50Z</time></trkpt><trkpt lat="44.605443908660185" lon="8.386407362532205"><ele>544.0</ele><time>2026-05-01T09:52:51Z</time></trkpt><trkpt lat="44.60558866241364" lon="8.38655503515025"><ele>541.3333333333334</ele><time>2026-05-01T09:52:52Z</time></trkpt><trkpt lat="44.605716668846824" lon="8.386703371947966"><ele>538.6666666666666</ele><time>2026-05-01T09:52:53Z</time></trkpt><trkpt lat="44.60584101781281" lon="8.3868192090423"><ele>536.0</ele><time>2026-05-01T09:52:54Z</time></trkpt><trkpt lat="44.60595609936794" lon="8.386925830564913"><ele>536.0</ele><time>2026-05-01T09:52:55Z</time></trkpt><trkpt lat="44.606058856771014" lon="8.387021793632519"><ele>536.0</ele><time>2026-05-01T09:52:56Z</time></trkpt><trkpt lat="44.60612460597791" lon="8.387160572509275"><ele>536.0</ele><time>2026-05-01T09:52:57Z</time></trkpt><trkpt lat="44.60617731152746" lon="8.387299576151879"><ele>536.0</ele><time>2026-05-01T09:52:58Z</time></trkpt><trkpt lat="44.60619725978101" lon="8.387455728022342"><ele>535.8</ele><time>2026-05-01T09:52:59Z</time></trkpt><trkpt lat="44.606185326850245" lon="8.387628790725742"><ele>535.6</ele><time>2026-05-01T09:53:00Z</time></trkpt><trkpt lat="44.606171679797306" lon="8.387797716441904"><ele>535.4</ele><time>2026-05-01T09:53:01Z</time></trkpt><trkpt lat="44.60614728391167" lon="8.387933788719947"><ele>535.2</ele><time>2026-05-01T09:53:02Z</time></trkpt><trkpt lat="44.606130319760744" lon="8.388049947848222"><ele>535.0</ele><time>2026-05-01T09:53:03Z</time></trkpt><trkpt lat="44.60612722741355" lon="8.388157465137244"><ele>535.25</ele><time>2026-05-01T09:53:04Z</time></trkpt><trkpt lat="44.60617514688533" lon="8.38826412053165"><ele>535.5</ele><time>2026-05-01T09:53:05Z</time></trkpt><trkpt lat="44.606298774772874" lon="8.388366186668902"><ele>535.75</ele><time>2026-05-01T09:53:05.999Z</time></trkpt><trkpt lat="44.606452803536364" lon="8.388455426737195"><ele>536.0</ele><time>2026-05-01T09:53:06.999Z</time></trkpt><trkpt lat="44.606604210952696" lon="8.388565150975865"><ele>536.0</ele><time>2026-05-01T09:53:07.999Z</time></trkpt><trkpt lat="44.60674279011158" lon="8.388684887089882"><ele>536.0</ele><time>2026-05-01T09:53:08.999Z</time></trkpt><trkpt lat="44.60688088252521" lon="8.3887998142545"><ele>536.0</ele><time>2026-05-01T09:53:09.999Z</time></trkpt><trkpt lat="44.607010807932426" lon="8.388904175739322"><ele>534.5</ele><time>2026-05-01T09:53:10.999Z</time></trkpt><trkpt lat="44.60713818451537" lon="8.388999795046738"><ele>533.0</ele><time>2026-05-01T09:53:11.999Z</time></trkpt><trkpt lat="44.60727282986974" lon="8.38906585037356"><ele>531.5</ele><time>2026-05-01T09:53:12.999Z</time></trkpt><trkpt lat="44.60740571504311" lon="8.389086534241123"><ele>530.0</ele><time>2026-05-01T09:53:13.999Z</time></trkpt><trkpt lat="44.60750777206383" lon="8.38906924778102"><ele>530.0</ele><time>2026-05-01T09:53:14.999Z</time></trkpt><trkpt lat="44.607595899968565" lon="8.389082101475125"><ele>530.0</ele><time>2026-05-01T09:53:15.999Z</time></trkpt><trkpt lat="44.60768604418643" lon="8.38912225059545"><ele>530.0</ele><time>2026-05-01T09:53:16.999Z</time></trkpt><trkpt lat="44.60775584213479" lon="8.389275374708873"><ele>530.0</ele><time>2026-05-01T09:53:17.999Z</time></trkpt><trkpt lat="44.607808407001826" lon="8.38945513556285"><ele>528.5</ele><time>2026-05-01T09:53:18.999Z</time></trkpt><trkpt lat="44.6079086144469" lon="8.389584713668444"><ele>527.0</ele><time>2026-05-01T09:53:19.999Z</time></trkpt><trkpt lat="44.608048252944656" lon="8.389688522981245"><ele>525.5</ele><time>2026-05-01T09:53:20.999Z</time></trkpt><trkpt lat="44.60817662471256" lon="8.38977217885867"><ele>524.0</ele><time>2026-05-01T09:53:21.999Z</time></trkpt><trkpt lat="44.60828561635945" lon="8.389849086995946"><ele>524.0</ele><time>2026-05-01T09:53:22.999Z</time></trkpt><trkpt lat="44.60837385006204" lon="8.389921379118128"><ele>524.0</ele><time>2026-05-01T09:53:23.999Z</time></trkpt><trkpt lat="44.60848619010767" lon="8.389984519490683"><ele>524.0</ele><time>2026-05-01T09:53:24.999Z</time></trkpt><trkpt lat="44.60864045979634" lon="8.38999890475096"><ele>524.0</ele><time>2026-05-01T09:53:25.999Z</time></trkpt><trkpt lat="44.60878336102689" lon="8.390026426810755"><ele>523.6666666666666</ele><time>2026-05-01T09:53:26.999Z</time></trkpt><trkpt lat="44.60900276367433" lon="8.390110606711561"><ele>523.3333333333334</ele><time>2026-05-01T09:53:27.999Z</time></trkpt><trkpt lat="44.609179855779225" lon="8.39015688109929"><ele>523.0</ele><time>2026-05-01T09:53:28.999Z</time></trkpt><trkpt lat="44.60933496026294" lon="8.390214537820212"><ele>523.0</ele><time>2026-05-01T09:53:29.999Z</time></trkpt><trkpt lat="44.60949092003065" lon="8.390271169723732"><ele>523.0</ele><time>2026-05-01T09:53:30.999Z</time></trkpt><trkpt lat="44.6096425117731" lon="8.390326911648524"><ele>523.0</ele><time>2026-05-01T09:53:31.999Z</time></trkpt><trkpt lat="44.609782464878805" lon="8.390373322914371"><ele>522.0</ele><time>2026-05-01T09:53:32.999Z</time></trkpt><trkpt lat="44.60992437029812" lon="8.390425505005858"><ele>521.0</ele><time>2026-05-01T09:53:33.999Z</time></trkpt><trkpt lat="44.610054832613386" lon="8.390494160809506"><ele>520.0</ele><time>2026-05-01T09:53:34.999Z</time></trkpt><trkpt lat="44.61017477225437" lon="8.390568517916106"><ele>519.0</ele><time>2026-05-01T09:53:35.999Z</time></trkpt><trkpt lat="44.61030108997455" lon="8.390618965967331"><ele>516.5</ele><time>2026-05-01T09:53:36.999Z</time></trkpt><trkpt lat="44.610425461391266" lon="8.390615150172318"><ele>514.0</ele><time>2026-05-01T09:53:37.999Z</time></trkpt><trkpt lat="44.61055484210249" lon="8.390550346445302"><ele>511.5</ele><time>2026-05-01T09:53:38.999Z</time></trkpt><trkpt lat="44.610698986971066" lon="8.390454608744127"><ele>509.0</ele><time>2026-05-01T09:53:39.999Z</time></trkpt><trkpt lat="44.610845079856276" lon="8.390372757759868"><ele>509.0</ele><time>2026-05-01T09:53:40.999Z</time></trkpt><trkpt lat="44.61099021723592" lon="8.390303783201263"><ele>509.0</ele><time>2026-05-01T09:53:41.999Z</time></trkpt><trkpt lat="44.61113991349298" lon="8.39024008237182"><ele>509.0</ele><time>2026-05-01T09:53:42.999Z</time></trkpt><trkpt lat="44.61128866653073" lon="8.390178800122035"><ele>509.25</ele><time>2026-05-01T09:53:43.999Z</time></trkpt><trkpt lat="44.611433383334735" lon="8.39011993192097"><ele>509.5</ele><time>2026-05-01T09:53:44.999Z</time></trkpt><trkpt lat="44.611582672000395" lon="8.390114591331123"><ele>509.75</ele><time>2026-05-01T09:53:45.999Z</time></trkpt><trkpt lat="44.61171388421741" lon="8.390163947826005"><ele>510.0</ele><time>2026-05-01T09:53:46.999Z</time></trkpt><trkpt lat="44.61184496512073" lon="8.39019835470491"><ele>510.0</ele><time>2026-05-01T09:53:47.999Z</time></trkpt><trkpt lat="44.611963892326244" lon="8.390214053272183"><ele>510.0</ele><time>2026-05-01T09:53:48.999Z</time></trkpt><trkpt lat="44.61207572573347" lon="8.390253349812975"><ele>510.0</ele><time>2026-05-01T09:53:49.999Z</time></trkpt><trkpt lat="44.6121887269271" lon="8.390237774701331"><ele>510.0</ele><time>2026-05-01T09:53:50.999Z</time></trkpt><trkpt lat="44.61230112853361" lon="8.390181330369673"><ele>508.5</ele><time>2026-05-01T09:53:51.999Z</time></trkpt><trkpt lat="44.61240648246881" lon="8.390072942596268"><ele>507.0</ele><time>2026-05-01T09:53:52.999Z</time></trkpt><trkpt lat="44.61250101343117" lon="8.389941040413952"><ele>505.5</ele><time>2026-05-01T09:53:53.999Z</time></trkpt><trkpt lat="44.61260371439563" lon="8.389842500670108"><ele>504.0</ele><time>2026-05-01T09:53:54.999Z</time></trkpt><trkpt lat="44.6126996360222" lon="8.389744132265678"><ele>503.0</ele><time>2026-05-01T09:53:55.999Z</time></trkpt><trkpt lat="44.61279652817528" lon="8.389668868474486"><ele>502.0</ele><time>2026-05-01T09:53:56.999Z</time></trkpt><trkpt lat="44.612908537376335" lon="8.389613744576131"><ele>501.0</ele><time>2026-05-01T09:53:57.999Z</time></trkpt><trkpt lat="44.613038880525295" lon="8.389575616547644"><ele>500.0</ele><time>2026-05-01T09:53:58.999Z</time></trkpt><trkpt lat="44.61316567197068" lon="8.389532991743733"><ele>497.75</ele><time>2026-05-01T09:53:59.999Z</time></trkpt><trkpt lat="44.613284367144075" lon="8.389514322227193"><ele>495.5</ele><time>2026-05-01T09:54:00.999Z</time></trkpt><trkpt lat="44.61340044189526" lon="8.389504054721545"><ele>493.25</ele><time>2026-05-01T09:54:01.999Z</time></trkpt><trkpt lat="44.61351644691615" lon="8.389512804234444"><ele>491.0</ele><time>2026-05-01T09:54:02.999Z</time></trkpt><trkpt lat="44.61362997264518" lon="8.389497155114832"><ele>489.75</ele><time>2026-05-01T09:54:04Z</time></trkpt><trkpt lat="44.61373866448139" lon="8.389556163777225"><ele>488.5</ele><time>2026-05-01T09:54:05Z</time></trkpt><trkpt lat="44.61384738859772" lon="8.389614914387268"><ele>487.25</ele><time>2026-05-01T09:54:06Z</time></trkpt><trkpt lat="44.61395549447985" lon="8.38967850046918"><ele>486.0</ele><time>2026-05-01T09:54:07Z</time></trkpt><trkpt lat="44.61407062551449" lon="8.389717371714239"><ele>486.0</ele><time>2026-05-01T09:54:08Z</time></trkpt><trkpt lat="44.61418364929468" lon="8.389746234384075"><ele>486.0</ele><time>2026-05-01T09:54:09Z</time></trkpt><trkpt lat="44.61430880463705" lon="8.389715456549997"><ele>486.0</ele><time>2026-05-01T09:54:10Z</time></trkpt><trkpt lat="44.61442198298346" lon="8.38962462335157"><ele>486.0</ele><time>2026-05-01T09:54:11Z</time></trkpt><trkpt lat="44.61453564984669" lon="8.389487718700819"><ele>485.0</ele><time>2026-05-01T09:54:12Z</time></trkpt><trkpt lat="44.61467219706777" lon="8.389358815071079"><ele>484.0</ele><time>2026-05-01T09:54:13Z</time></trkpt><trkpt lat="44.61478800894415" lon="8.38918831438785"><ele>483.0</ele><time>2026-05-01T09:54:14Z</time></trkpt><trkpt lat="44.61490170801425" lon="8.389036298768005"><ele>483.0</ele><time>2026-05-01T09:54:15Z</time></trkpt><trkpt lat="44.61503438832179" lon="8.388926578332248"><ele>483.0</ele><time>2026-05-01T09:54:16Z</time></trkpt><trkpt lat="44.61517783778493" lon="8.38884868822829"><ele>483.0</ele><time>2026-05-01T09:54:17Z</time></trkpt><trkpt lat="44.61532495996833" lon="8.388774761601583"><ele>484.5</ele><time>2026-05-01T09:54:18Z</time></trkpt><trkpt lat="44.61546295681478" lon="8.388684582007008"><ele>486.0</ele><time>2026-05-01T09:54:19Z</time></trkpt><trkpt lat="44.61560685142345" lon="8.388647556106958"><ele>487.5</ele><time>2026-05-01T09:54:20Z</time></trkpt><trkpt lat="44.61575050968312" lon="8.388611037004159"><ele>489.0</ele><time>2026-05-01T09:54:21Z</time></trkpt><trkpt lat="44.6158967714315" lon="8.388598865449945"><ele>489.0</ele><time>2026-05-01T09:54:22Z</time></trkpt><trkpt lat="44.616035874853594" lon="8.388572836992093"><ele>489.0</ele><time>2026-05-01T09:54:23Z</time></trkpt><trkpt lat="44.616161376753304" lon="8.388589933359427"><ele>489.0</ele><time>2026-05-01T09:54:24Z</time></trkpt><trkpt lat="44.61626984159709" lon="8.388625155888601"><ele>489.0</ele><time>2026-05-01T09:54:25Z</time></trkpt><trkpt lat="44.616369815945085" lon="8.38866947870024"><ele>491.0</ele><time>2026-05-01T09:54:26Z</time></trkpt><trkpt lat="44.61646769413791" lon="8.388692654006892"><ele>493.0</ele><time>2026-05-01T09:54:27Z</time></trkpt><trkpt lat="44.61658249509944" lon="8.38865534180858"><ele>495.0</ele><time>2026-05-01T09:54:28Z</time></trkpt><trkpt lat="44.61670935406269" lon="8.388537398838231"><ele>497.0</ele><time>2026-05-01T09:54:29Z</time></trkpt><trkpt lat="44.616827217878196" lon="8.388393679119138"><ele>497.0</ele><time>2026-05-01T09:54:30Z</time></trkpt><trkpt lat="44.616957644726035" lon="8.3883181595384"><ele>497.0</ele><time>2026-05-01T09:54:31Z</time></trkpt><trkpt lat="44.61709614097939" lon="8.388284067786621"><ele>497.0</ele><time>2026-05-01T09:54:32Z</time></trkpt><trkpt lat="44.61724476269931" lon="8.388308852205427"><ele>497.0</ele><time>2026-05-01T09:54:33Z</time></trkpt><trkpt lat="44.617403824764246" lon="8.388353882093545"><ele>496.0</ele><time>2026-05-01T09:54:34Z</time></trkpt><trkpt lat="44.61756073118932" lon="8.388385861639811"><ele>495.0</ele><time>2026-05-01T09:54:35Z</time></trkpt><trkpt lat="44.617707096358004" lon="8.388432496200277"><ele>494.0</ele><time>2026-05-01T09:54:36Z</time></trkpt><trkpt lat="44.61785883390481" lon="8.388463357255002"><ele>492.3333333333333</ele><time>2026-05-01T09:54:37Z</time></trkpt><trkpt lat="44.618020149351224" lon="8.388475942926602"><ele>490.66666666666663</ele><time>2026-05-01T09:54:38Z</time></trkpt><trkpt lat="44.61818762267724" lon="8.388469774971112"><ele>489.0</ele><time>2026-05-01T09:54:39Z</time></trkpt><trkpt lat="44.618359192218406" lon="8.388492927877397"><ele>489.0</ele><time>2026-05-01T09:54:40Z</time></trkpt><trkpt lat="44.61852603012058" lon="8.38853801951701"><ele>489.0</ele><time>2026-05-01T09:54:41Z</time></trkpt><trkpt lat="44.61867795058685" lon="8.388599617957519"><ele>489.0</ele><time>2026-05-01T09:54:42Z</time></trkpt><trkpt lat="44.61882243626837" lon="8.388658714850429"><ele>488.5</ele><time>2026-05-01T09:54:43Z</time></trkpt><trkpt lat="44.618948710352996" lon="8.388726078099117"><ele>488.0</ele><time>2026-05-01T09:54:44Z</time></trkpt><trkpt lat="44.61905428033531" lon="8.388825236741097"><ele>487.5</ele><time>2026-05-01T09:54:45Z</time></trkpt><trkpt lat="44.619140313916795" lon="8.388962514245549"><ele>487.0</ele><time>2026-05-01T09:54:46Z</time></trkpt><trkpt lat="44.619215479504255" lon="8.389106951719702"><ele>489.0</ele><time>2026-05-01T09:54:47Z</time></trkpt><trkpt lat="44.619270264934585" lon="8.389266661837802"><ele>491.0</ele><time>2026-05-01T09:54:48Z</time></trkpt><trkpt lat="44.61933868169235" lon="8.389450502020976"><ele>493.0</ele><time>2026-05-01T09:54:49Z</time></trkpt><trkpt lat="44.619408542461834" lon="8.389647541719539"><ele>495.0</ele><time>2026-05-01T09:54:50Z</time></trkpt><trkpt lat="44.61951193536359" lon="8.389811788637672"><ele>500.0</ele><time>2026-05-01T09:54:51Z</time></trkpt><trkpt lat="44.619588357782014" lon="8.38997325666381"><ele>505.0</ele><time>2026-05-01T09:54:52Z</time></trkpt><trkpt lat="44.61964626295341" lon="8.390125684513286"><ele>510.0</ele><time>2026-05-01T09:54:53Z</time></trkpt><trkpt lat="44.61971945980675" lon="8.390239785270975"><ele>515.0</ele><time>2026-05-01T09:54:54Z</time></trkpt><trkpt lat="44.61982416345299" lon="8.390324492841447"><ele>515.0</ele><time>2026-05-01T09:54:55Z</time></trkpt><trkpt lat="44.619938709307846" lon="8.390404127613005"><ele>515.0</ele><time>2026-05-01T09:54:56Z</time></trkpt><trkpt lat="44.62003101027538" lon="8.390499432203454"><ele>515.0</ele><time>2026-05-01T09:54:57Z</time></trkpt><trkpt lat="44.620111569372845" lon="8.390557530001956"><ele>515.0</ele><time>2026-05-01T09:54:58Z</time></trkpt><trkpt lat="44.62018795762673" lon="8.390619781668528"><ele>515.0</ele><time>2026-05-01T09:54:59Z</time></trkpt><trkpt lat="44.62031036812806" lon="8.390596383250163"><ele>512.0</ele><time>2026-05-01T09:55:00Z</time></trkpt><trkpt lat="44.6204441728371" lon="8.390569070261547"><ele>509.0</ele><time>2026-05-01T09:55:01Z</time></trkpt><trkpt lat="44.62058441995143" lon="8.39061099510873"><ele>506.0</ele><time>2026-05-01T09:55:02Z</time></trkpt><trkpt lat="44.62072253732082" lon="8.390696365992843"><ele>503.0</ele><time>2026-05-01T09:55:03Z</time></trkpt><trkpt lat="44.62086123973826" lon="8.390795135467753"><ele>503.0</ele><time>2026-05-01T09:55:04Z</time></trkpt><trkpt lat="44.62099132534349" lon="8.390888653230684"><ele>503.0</ele><time>2026-05-01T09:55:05Z</time></trkpt><trkpt lat="44.621115012796544" lon="8.390981726874074"><ele>503.0</ele><time>2026-05-01T09:55:06Z</time></trkpt><trkpt lat="44.621237546046366" lon="8.391058699437464"><ele>503.0</ele><time>2026-05-01T09:55:07Z</time></trkpt><trkpt lat="44.621344072403815" lon="8.391158056858803"><ele>502.75</ele><time>2026-05-01T09:55:08Z</time></trkpt><trkpt lat="44.62145116932991" lon="8.39125559430748"><ele>502.5</ele><time>2026-05-01T09:55:09Z</time></trkpt><trkpt lat="44.62156616010326" lon="8.391355235301418"><ele>502.25</ele><time>2026-05-01T09:55:10Z</time></trkpt><trkpt lat="44.621691128250184" lon="8.391466239142536"><ele>502.0</ele><time>2026-05-01T09:55:11Z</time></trkpt><trkpt lat="44.621791129898135" lon="8.391621189669559"><ele>501.33333333333337</ele><time>2026-05-01T09:55:12Z</time></trkpt><trkpt lat="44.62190237104437" lon="8.391773829336218"><ele>500.66666666666663</ele><time>2026-05-01T09:55:13Z</time></trkpt><trkpt lat="44.62200081682177" lon="8.391935127911179"><ele>500.0</ele><time>2026-05-01T09:55:14Z</time></trkpt><trkpt lat="44.622112638748746" lon="8.392085397141841"><ele>499.0</ele><time>2026-05-01T09:55:15Z</time></trkpt><trkpt lat="44.62222672191946" lon="8.392237077817974"><ele>498.0</ele><time>2026-05-01T09:55:16Z</time></trkpt><trkpt lat="44.62233492270566" lon="8.39238892184821"><ele>497.0</ele><time>2026-05-01T09:55:17Z</time></trkpt><trkpt lat="44.62244343139078" lon="8.392548126609118"><ele>497.0</ele><time>2026-05-01T09:55:17.999Z</time></trkpt><trkpt lat="44.62254661548328" lon="8.392710133295235"><ele>497.0</ele><time>2026-05-01T09:55:18.999Z</time></trkpt><trkpt lat="44.62264596689259" lon="8.39286459515376"><ele>497.0</ele><time>2026-05-01T09:55:19.999Z</time></trkpt><trkpt lat="44.622742514614245" lon="8.393016160654655"><ele>497.0</ele><time>2026-05-01T09:55:20.999Z</time></trkpt><trkpt lat="44.62283753162905" lon="8.3931724124068"><ele>496.20000000000005</ele><time>2026-05-01T09:55:21.999Z</time></trkpt><trkpt lat="44.622916309728055" lon="8.393332580324046"><ele>495.40000000000003</ele><time>2026-05-01T09:55:22.999Z</time></trkpt><trkpt lat="44.622969864422046" lon="8.393479250578247"><ele>494.59999999999997</ele><time>2026-05-01T09:55:23.999Z</time></trkpt><trkpt lat="44.62300487176977" lon="8.393602272887662"><ele>493.79999999999995</ele><time>2026-05-01T09:55:24.999Z</time></trkpt><trkpt lat="44.62302956703076" lon="8.393684797447222"><ele>493.0</ele><time>2026-05-01T09:55:25.999Z</time></trkpt><trkpt lat="44.623076027309345" lon="8.393807920083256"><ele>493.79999999999995</ele><time>2026-05-01T09:55:27.999Z</time></trkpt><trkpt lat="44.623115748027615" lon="8.393921239503086"><ele>494.59999999999997</ele><time>2026-05-01T09:55:28.999Z</time></trkpt><trkpt lat="44.623165011938546" lon="8.394064429574705"><ele>495.40000000000003</ele><time>2026-05-01T09:55:29.999Z</time></trkpt><trkpt lat="44.62321918375154" lon="8.394208106807628"><ele>496.20000000000005</ele><time>2026-05-01T09:55:30.999Z</time></trkpt><trkpt lat="44.62329695094196" lon="8.394325048221345"><ele>497.0</ele><time>2026-05-01T09:55:31.999Z</time></trkpt><trkpt lat="44.62339995159289" lon="8.39439654725205"><ele>497.0</ele><time>2026-05-01T09:55:32.999Z</time></trkpt><trkpt lat="44.6235117126846" lon="8.394450283034036"><ele>497.0</ele><time>2026-05-01T09:55:33.999Z</time></trkpt><trkpt lat="44.623665713391155" lon="8.394531362841049"><ele>497.0</ele><time>2026-05-01T09:55:34.999Z</time></trkpt><trkpt lat="44.62381528402159" lon="8.394303025649467"><ele>499.0</ele><time>2026-05-01T09:55:35.999Z</time></trkpt><trkpt lat="44.623978829577794" lon="8.394239884241978"><ele>501.0</ele><time>2026-05-01T09:55:36.999Z</time></trkpt><trkpt lat="44.62413994492342" lon="8.394187257356561"><ele>503.0</ele><time>2026-05-01T09:55:37.999Z</time></trkpt><trkpt lat="44.624290132556496" lon="8.394142209297142"><ele>503.0</ele><time>2026-05-01T09:55:38.999Z</time></trkpt><trkpt lat="44.62442578578255" lon="8.394095617733923"><ele>503.0</ele><time>2026-05-01T09:55:39.999Z</time></trkpt><trkpt lat="44.62454770446895" lon="8.394089440679744"><ele>503.0</ele><time>2026-05-01T09:55:40.999Z</time></trkpt><trkpt lat="44.62465814322139" lon="8.394099885111693"><ele>503.0</ele><time>2026-05-01T09:55:41.999Z</time></trkpt><trkpt lat="44.62477840673211" lon="8.394094018561285"><ele>506.75</ele><time>2026-05-01T09:55:42.999Z</time></trkpt><trkpt lat="44.6249120014487" lon="8.39408442845956"><ele>510.5</ele><time>2026-05-01T09:55:43.999Z</time></trkpt><trkpt lat="44.62503976028988" lon="8.394030032515836"><ele>514.25</ele><time>2026-05-01T09:55:44.999Z</time></trkpt><trkpt lat="44.62517686590562" lon="8.393938454045614"><ele>518.0</ele><time>2026-05-01T09:55:45.999Z</time></trkpt><trkpt lat="44.62531952333798" lon="8.39386779173381"><ele>520.0</ele><time>2026-05-01T09:55:46.999Z</time></trkpt><trkpt lat="44.62544221032551" lon="8.393802945444193"><ele>522.0</ele><time>2026-05-01T09:55:47.999Z</time></trkpt><trkpt lat="44.625545549361206" lon="8.393756777080904"><ele>524.0</ele><time>2026-05-01T09:55:48.999Z</time></trkpt><trkpt lat="44.625636258000064" lon="8.393749102190867"><ele>526.0</ele><time>2026-05-01T09:55:49.999Z</time></trkpt><trkpt lat="44.62573285211852" lon="8.393790710042285"><ele>528.0</ele><time>2026-05-01T09:55:50.999Z</time></trkpt><trkpt lat="44.625847579020075" lon="8.393878705917974"><ele>528.0</ele><time>2026-05-01T09:55:51.999Z</time></trkpt><trkpt lat="44.62598027818867" lon="8.393959158980975"><ele>528.0</ele><time>2026-05-01T09:55:52.999Z</time></trkpt><trkpt lat="44.626115995378726" lon="8.393960047672204"><ele>528.0</ele><time>2026-05-01T09:55:53.999Z</time></trkpt><trkpt lat="44.62624667660664" lon="8.393944529910305"><ele>528.0</ele><time>2026-05-01T09:55:54.999Z</time></trkpt><trkpt lat="44.62637221166331" lon="8.393990650894112"><ele>526.75</ele><time>2026-05-01T09:55:55.999Z</time></trkpt><trkpt lat="44.62649319893592" lon="8.39405427681669"><ele>525.5</ele><time>2026-05-01T09:55:56.999Z</time></trkpt><trkpt lat="44.62661737035612" lon="8.394108609376206"><ele>524.25</ele><time>2026-05-01T09:55:57.999Z</time></trkpt><trkpt lat="44.62674266013338" lon="8.39410482380146"><ele>523.0</ele><time>2026-05-01T09:55:58.999Z</time></trkpt><trkpt lat="44.626863610138244" lon="8.394099555363233"><ele>523.0</ele><time>2026-05-01T09:55:59.999Z</time></trkpt><trkpt lat="44.62696993686607" lon="8.394136851539315"><ele>523.0</ele><time>2026-05-01T09:56:00.999Z</time></trkpt><trkpt lat="44.62707658598538" lon="8.39418488602424"><ele>523.0</ele><time>2026-05-01T09:56:01.999Z</time></trkpt><trkpt lat="44.627203203716235" lon="8.394236268002992"><ele>523.0</ele><time>2026-05-01T09:56:02.999Z</time></trkpt><trkpt lat="44.62734145659342" lon="8.39436156910743"><ele>518.0</ele><time>2026-05-01T09:56:03.999Z</time></trkpt><trkpt lat="44.6275037358573" lon="8.3944703185526"><ele>513.0</ele><time>2026-05-01T09:56:04.999Z</time></trkpt><trkpt lat="44.627667835698304" lon="8.394540978672252"><ele>508.0</ele><time>2026-05-01T09:56:05.999Z</time></trkpt><trkpt lat="44.627825251815466" lon="8.39461027541043"><ele>506.6666666666667</ele><time>2026-05-01T09:56:06.999Z</time></trkpt><trkpt lat="44.62797910525927" lon="8.394669637201014"><ele>505.33333333333337</ele><time>2026-05-01T09:56:07.999Z</time></trkpt><trkpt lat="44.62813431851512" lon="8.394731187922407"><ele>504.0</ele><time>2026-05-01T09:56:08.999Z</time></trkpt><trkpt lat="44.62828615529873" lon="8.394778699292525"><ele>504.0</ele><time>2026-05-01T09:56:10Z</time></trkpt><trkpt lat="44.628434916648025" lon="8.394797601767383"><ele>504.0</ele><time>2026-05-01T09:56:11Z</time></trkpt><trkpt lat="44.628578109140435" lon="8.394777553361585"><ele>504.0</ele><time>2026-05-01T09:56:12Z</time></trkpt><trkpt lat="44.62871501029305" lon="8.394736345895918"><ele>504.0</ele><time>2026-05-01T09:56:13Z</time></trkpt><trkpt lat="44.6288449239027" lon="8.394681162930679"><ele>500.0</ele><time>2026-05-01T09:56:14Z</time></trkpt><trkpt lat="44.62896605993131" lon="8.394632483322477"><ele>496.0</ele><time>2026-05-01T09:56:15Z</time></trkpt><trkpt lat="44.62909874782859" lon="8.39459527800973"><ele>492.0</ele><time>2026-05-01T09:56:16Z</time></trkpt><trkpt lat="44.629227226055825" lon="8.394582611062122"><ele>488.0</ele><time>2026-05-01T09:56:17Z</time></trkpt><trkpt lat="44.629351760156624" lon="8.3945977075022"><ele>488.5</ele><time>2026-05-01T09:56:18Z</time></trkpt><trkpt lat="44.629491073060606" lon="8.394633001378052"><ele>489.0</ele><time>2026-05-01T09:56:19Z</time></trkpt><trkpt lat="44.62962279232969" lon="8.394642683774181"><ele>489.5</ele><time>2026-05-01T09:56:20Z</time></trkpt><trkpt lat="44.629752292870954" lon="8.394655607599253"><ele>490.0</ele><time>2026-05-01T09:56:21Z</time></trkpt><trkpt lat="44.62987535350852" lon="8.394690451449884"><ele>490.0</ele><time>2026-05-01T09:56:22Z</time></trkpt><trkpt lat="44.62999646247435" lon="8.394699691104545"><ele>490.0</ele><time>2026-05-01T09:56:23Z</time></trkpt><trkpt lat="44.63010255296836" lon="8.394709715929235"><ele>490.0</ele><time>2026-05-01T09:56:24Z</time></trkpt><trkpt lat="44.630195317007136" lon="8.394734458288575"><ele>490.0</ele><time>2026-05-01T09:56:25Z</time></trkpt><trkpt lat="44.63027556905975" lon="8.394774013028426"><ele>490.0</ele><time>2026-05-01T09:56:26Z</time></trkpt><trkpt lat="44.63031843697835" lon="8.394891047452663"><ele>490.0</ele><time>2026-05-01T09:56:27Z</time></trkpt><trkpt lat="44.63031288353335" lon="8.395031891305397"><ele>490.0</ele><time>2026-05-01T09:56:28Z</time></trkpt><trkpt lat="44.63030341528309" lon="8.395174185587598"><ele>490.0</ele><time>2026-05-01T09:56:29Z</time></trkpt><trkpt lat="44.63030126223894" lon="8.395295170678553"><ele>490.0</ele><time>2026-05-01T09:56:30Z</time></trkpt><trkpt lat="44.630349654294925" lon="8.395394883025963"><ele>490.0</ele><time>2026-05-01T09:56:31Z</time></trkpt><trkpt lat="44.630425631395475" lon="8.39545114060427"><ele>488.25</ele><time>2026-05-01T09:56:32Z</time></trkpt><trkpt lat="44.63052883805467" lon="8.395420476126844"><ele>486.5</ele><time>2026-05-01T09:56:33Z</time></trkpt><trkpt lat="44.63061891385713" lon="8.39528607720303"><ele>484.75</ele><time>2026-05-01T09:56:34Z</time></trkpt><trkpt lat="44.63069288570897" lon="8.39510666524084"><ele>483.0</ele><time>2026-05-01T09:56:35Z</time></trkpt><trkpt lat="44.63076269205417" lon="8.394944337688358"><ele>483.0</ele><time>2026-05-01T09:56:36Z</time></trkpt><trkpt lat="44.63081134870468" lon="8.394802840254075"><ele>482.99999999999994</ele><time>2026-05-01T09:56:37Z</time></trkpt><trkpt lat="44.63083187170321" lon="8.394651819759487"><ele>482.99999999999994</ele><time>2026-05-01T09:56:38Z</time></trkpt><trkpt lat="44.63081770884338" lon="8.394509471743502"><ele>483.0</ele><time>2026-05-01T09:56:39Z</time></trkpt><trkpt lat="44.6307850790835" lon="8.394377800473016"><ele>483.0</ele><time>2026-05-01T09:56:40Z</time></trkpt><trkpt lat="44.6307597532958" lon="8.394248323174077"><ele>481.5</ele><time>2026-05-01T09:56:41Z</time></trkpt><trkpt lat="44.63076095845991" lon="8.39412742844261"><ele>480.0</ele><time>2026-05-01T09:56:42Z</time></trkpt><trkpt lat="44.63077094001939" lon="8.394012016043073"><ele>478.5</ele><time>2026-05-01T09:56:43Z</time></trkpt><trkpt lat="44.63084417419684" lon="8.393940509440476"><ele>477.0</ele><time>2026-05-01T09:56:44Z</time></trkpt><trkpt lat="44.63093065866565" lon="8.393912462128023"><ele>475.5</ele><time>2026-05-01T09:56:45Z</time></trkpt><trkpt lat="44.63100835103081" lon="8.39399170874102"><ele>474.0</ele><time>2026-05-01T09:56:46Z</time></trkpt><trkpt lat="44.63107491339196" lon="8.394084408284103"><ele>474.0</ele><time>2026-05-01T09:56:47Z</time></trkpt><trkpt lat="44.63108684666726" lon="8.394224585621554"><ele>474.0</ele><time>2026-05-01T09:56:48Z</time></trkpt><trkpt lat="44.631122679022326" lon="8.394373405672281"><ele>474.0</ele><time>2026-05-01T09:56:49Z</time></trkpt><trkpt lat="44.63117301247766" lon="8.39449696034887"><ele>474.0</ele><time>2026-05-01T09:56:50Z</time></trkpt><trkpt lat="44.63121384785006" lon="8.394611925542677"><ele>474.0</ele><time>2026-05-01T09:56:51Z</time></trkpt><trkpt lat="44.63126673495825" lon="8.39472144325464"><ele>471.79999999999995</ele><time>2026-05-01T09:56:52Z</time></trkpt><trkpt lat="44.63132723474684" lon="8.394818897336204"><ele>469.59999999999997</ele><time>2026-05-01T09:56:53Z</time></trkpt><trkpt lat="44.63137260942706" lon="8.394930340144073"><ele>467.4</ele><time>2026-05-01T09:56:54Z</time></trkpt><trkpt lat="44.63142944952695" lon="8.395026989443512"><ele>465.2</ele><time>2026-05-01T09:56:55Z</time></trkpt><trkpt lat="44.63149823859981" lon="8.395112114619227"><ele>463.0</ele><time>2026-05-01T09:56:56Z</time></trkpt><trkpt lat="44.63155321415201" lon="8.39521598329166"><ele>463.0</ele><time>2026-05-01T09:56:57Z</time></trkpt><trkpt lat="44.63161051173123" lon="8.395325346317621"><ele>462.99999999999994</ele><time>2026-05-01T09:56:58Z</time></trkpt><trkpt lat="44.631655676793045" lon="8.3954608624815"><ele>462.99999999999994</ele><time>2026-05-01T09:56:59Z</time></trkpt><trkpt lat="44.6317054416138" lon="8.39560210532767"><ele>463.0</ele><time>2026-05-01T09:57:00Z</time></trkpt><trkpt lat="44.6317397818159" lon="8.39574567055967"><ele>463.0</ele><time>2026-05-01T09:57:01Z</time></trkpt><trkpt lat="44.63177373205983" lon="8.39591509659877"><ele>463.5</ele><time>2026-05-01T09:57:02Z</time></trkpt><trkpt lat="44.631809865194434" lon="8.39608983586489"><ele>464.0</ele><time>2026-05-01T09:57:03Z</time></trkpt><trkpt lat="44.63185890433114" lon="8.39624836706679"><ele>464.5</ele><time>2026-05-01T09:57:04Z</time></trkpt><trkpt lat="44.631891513520664" lon="8.396416514377977"><ele>465.0</ele><time>2026-05-01T09:57:05Z</time></trkpt><trkpt lat="44.6319269712764" lon="8.39657530000323"><ele>465.0</ele><time>2026-05-01T09:57:06Z</time></trkpt><trkpt lat="44.6319584401806" lon="8.39673319785158"><ele>465.0</ele><time>2026-05-01T09:57:07Z</time></trkpt><trkpt lat="44.63198524949995" lon="8.39688369093692"><ele>465.0</ele><time>2026-05-01T09:57:08Z</time></trkpt><trkpt lat="44.63201170839014" lon="8.396996343943664"><ele>465.0</ele><time>2026-05-01T09:57:09Z</time></trkpt><trkpt lat="44.63203085706908" lon="8.397112329700594"><ele>465.0</ele><time>2026-05-01T09:57:10Z</time></trkpt><trkpt lat="44.63204155032311" lon="8.397202415758143"><ele>460.75</ele><time>2026-05-01T09:57:11Z</time></trkpt><trkpt lat="44.63208369875253" lon="8.397286631884949"><ele>456.5</ele><time>2026-05-01T09:57:12Z</time></trkpt><trkpt lat="44.63232127415675" lon="8.397357662546257"><ele>452.25</ele><time>2026-05-01T09:57:14Z</time></trkpt><trkpt lat="44.632419655155694" lon="8.397306235937851"><ele>448.0</ele><time>2026-05-01T09:57:15Z</time></trkpt><trkpt lat="44.632511550679126" lon="8.397261472653085"><ele>448.0</ele><time>2026-05-01T09:57:16Z</time></trkpt><trkpt lat="44.63260228032603" lon="8.397223490773007"><ele>447.99999999999994</ele><time>2026-05-01T09:57:17Z</time></trkpt><trkpt lat="44.632694159921726" lon="8.397194069262685"><ele>447.99999999999994</ele><time>2026-05-01T09:57:18Z</time></trkpt><trkpt lat="44.63277471635632" lon="8.397134194919182"><ele>448.0</ele><time>2026-05-01T09:57:19Z</time></trkpt><trkpt lat="44.63282976012767" lon="8.397009734913544"><ele>448.0</ele><time>2026-05-01T09:57:20Z</time></trkpt><trkpt lat="44.63283862052475" lon="8.396853654550448"><ele>448.5</ele><time>2026-05-01T09:57:21Z</time></trkpt><trkpt lat="44.63280619107347" lon="8.396687153094451"><ele>449.0</ele><time>2026-05-01T09:57:22Z</time></trkpt><trkpt lat="44.632758898218555" lon="8.396521681130324"><ele>449.5</ele><time>2026-05-01T09:57:22.999Z</time></trkpt><trkpt lat="44.63270401366286" lon="8.396336823651495"><ele>450.0</ele><time>2026-05-01T09:57:23.999Z</time></trkpt><trkpt lat="44.63265439427291" lon="8.396144987413368"><ele>450.0</ele><time>2026-05-01T09:57:24.999Z</time></trkpt><trkpt lat="44.63260353700681" lon="8.395955241925035"><ele>450.0</ele><time>2026-05-01T09:57:25.999Z</time></trkpt><trkpt lat="44.632557839814034" lon="8.395772850773144"><ele>450.0</ele><time>2026-05-01T09:57:26.999Z</time></trkpt><trkpt lat="44.63251300895043" lon="8.395606782761615"><ele>450.0</ele><time>2026-05-01T09:57:27.999Z</time></trkpt><trkpt lat="44.63247057333831" lon="8.395438866218365"><ele>447.5</ele><time>2026-05-01T09:57:28.999Z</time></trkpt><trkpt lat="44.632431342916504" lon="8.395274862353052"><ele>445.0</ele><time>2026-05-01T09:57:29.999Z</time></trkpt><trkpt lat="44.63239958902655" lon="8.395112727931021"><ele>442.5</ele><time>2026-05-01T09:57:30.999Z</time></trkpt><trkpt lat="44.63239970982335" lon="8.39492829642605"><ele>440.0</ele><time>2026-05-01T09:57:31.999Z</time></trkpt><trkpt lat="44.63239474482115" lon="8.394745970183376"><ele>438.0</ele><time>2026-05-01T09:57:32.999Z</time></trkpt><trkpt lat="44.632392138901395" lon="8.394571570549816"><ele>436.0</ele><time>2026-05-01T09:57:33.999Z</time></trkpt><trkpt lat="44.63238181896218" lon="8.394398445769347"><ele>434.0</ele><time>2026-05-01T09:57:34.999Z</time></trkpt><trkpt lat="44.632381070721124" lon="8.394214648541151"><ele>432.0</ele><time>2026-05-01T09:57:35.999Z</time></trkpt><trkpt lat="44.632380872943024" lon="8.394035859454368"><ele>432.0</ele><time>2026-05-01T09:57:36.999Z</time></trkpt><trkpt lat="44.63238159761739" lon="8.393866818502442"><ele>432.0</ele><time>2026-05-01T09:57:37.999Z</time></trkpt><trkpt lat="44.63238423873678" lon="8.393695256890073"><ele>432.0</ele><time>2026-05-01T09:57:38.999Z</time></trkpt><trkpt lat="44.63238174768745" lon="8.393524200267915"><ele>432.0</ele><time>2026-05-01T09:57:39.999Z</time></trkpt><trkpt lat="44.632369875661254" lon="8.393359511440181"><ele>430.75</ele><time>2026-05-01T09:57:40.999Z</time></trkpt><trkpt lat="44.632341979934125" lon="8.393186179422866"><ele>429.5</ele><time>2026-05-01T09:57:41.999Z</time></trkpt><trkpt lat="44.63230300989536" lon="8.393016486309385"><ele>428.25</ele><time>2026-05-01T09:57:42.999Z</time></trkpt><trkpt lat="44.63225244884561" lon="8.39285901082268"><ele>427.0</ele><time>2026-05-01T09:57:43.999Z</time></trkpt><trkpt lat="44.63217867615221" lon="8.392720553477872"><ele>427.6666666666667</ele><time>2026-05-01T09:57:44.999Z</time></trkpt><trkpt lat="44.632106557160114" lon="8.392595209294605"><ele>428.33333333333337</ele><time>2026-05-01T09:57:45.999Z</time></trkpt><trkpt lat="44.63204117587222" lon="8.392495709459943"><ele>429.0</ele><time>2026-05-01T09:57:46.999Z</time></trkpt><trkpt lat="44.63201010951862" lon="8.392391479019585"><ele>429.66666666666663</ele><time>2026-05-01T09:57:47.999Z</time></trkpt><trkpt lat="44.63197207742279" lon="8.392298479917377"><ele>430.3333333333333</ele><time>2026-05-01T09:57:48.999Z</time></trkpt><trkpt lat="44.631955259695616" lon="8.392192567856066"><ele>431.0</ele><time>2026-05-01T09:57:49.999Z</time></trkpt><trkpt lat="44.6319984347249" lon="8.392105845659716"><ele>428.99999999999994</ele><time>2026-05-01T09:57:50.999Z</time></trkpt><trkpt lat="44.63206472510591" lon="8.3920787955577"><ele>427.0</ele><time>2026-05-01T09:57:51.999Z</time></trkpt><trkpt lat="44.63212820691295" lon="8.392086031634989"><ele>425.0</ele><time>2026-05-01T09:57:52.999Z</time></trkpt><trkpt lat="44.63219152182779" lon="8.392157119611591"><ele>423.0</ele><time>2026-05-01T09:57:53.999Z</time></trkpt><trkpt lat="44.63224619857904" lon="8.392282184275057"><ele>420.99999999999994</ele><time>2026-05-01T09:57:54.999Z</time></trkpt><trkpt lat="44.63231355213403" lon="8.392426995188535"><ele>419.0</ele><time>2026-05-01T09:57:55.999Z</time></trkpt><trkpt lat="44.632388760826665" lon="8.392548176605127"><ele>419.0</ele><time>2026-05-01T09:57:56.999Z</time></trkpt><trkpt lat="44.63246133323304" lon="8.392666133416311"><ele>419.0</ele><time>2026-05-01T09:57:57.999Z</time></trkpt><trkpt lat="44.63254299382205" lon="8.392782951158656"><ele>419.0</ele><time>2026-05-01T09:57:58.999Z</time></trkpt><trkpt lat="44.63263460497656" lon="8.392898596351825"><ele>419.0</ele><time>2026-05-01T09:57:59.999Z</time></trkpt><trkpt lat="44.63273750679175" lon="8.393014038311822"><ele>415.25</ele><time>2026-05-01T09:58:00.999Z</time></trkpt><trkpt lat="44.632816028291124" lon="8.39316084862394"><ele>411.5</ele><time>2026-05-01T09:58:01.999Z</time></trkpt><trkpt lat="44.63287581737336" lon="8.393311536052742"><ele>407.75</ele><time>2026-05-01T09:58:02.999Z</time></trkpt><trkpt lat="44.632944652623486" lon="8.393477909736648"><ele>404.0</ele><time>2026-05-01T09:58:03.999Z</time></trkpt><trkpt lat="44.63303512173358" lon="8.393633353166795"><ele>404.0</ele><time>2026-05-01T09:58:04.999Z</time></trkpt><trkpt lat="44.633134261011406" lon="8.39378429704992"><ele>404.0</ele><time>2026-05-01T09:58:05.999Z</time></trkpt><trkpt lat="44.633226096189524" lon="8.393946778977789"><ele>404.0</ele><time>2026-05-01T09:58:06.999Z</time></trkpt><trkpt lat="44.63332599712935" lon="8.394094237471402"><ele>404.0</ele><time>2026-05-01T09:58:07.999Z</time></trkpt><trkpt lat="44.63342504359658" lon="8.39425119605855"><ele>405.5</ele><time>2026-05-01T09:58:08.999Z</time></trkpt><trkpt lat="44.63352464079787" lon="8.394413609720567"><ele>407.0</ele><time>2026-05-01T09:58:09.999Z</time></trkpt><trkpt lat="44.63362043584752" lon="8.394569823405215"><ele>408.5</ele><time>2026-05-01T09:58:10.999Z</time></trkpt><trkpt lat="44.63371816197426" lon="8.394729185787833"><ele>410.0</ele><time>2026-05-01T09:58:11.999Z</time></trkpt><trkpt lat="44.63381375967753" lon="8.394885077481673"><ele>406.5</ele><time>2026-05-01T09:58:12.999Z</time></trkpt><trkpt lat="44.63391239022356" lon="8.395043093750854"><ele>403.0</ele><time>2026-05-01T09:58:13.999Z</time></trkpt><trkpt lat="44.63401070874491" lon="8.395198031666492"><ele>399.5</ele><time>2026-05-01T09:58:14.999Z</time></trkpt><trkpt lat="44.63411479387216" lon="8.39532892228597"><ele>396.0</ele><time>2026-05-01T09:58:16Z</time></trkpt><trkpt lat="44.63419490001826" lon="8.395458431166817"><ele>397.8</ele><time>2026-05-01T09:58:17Z</time></trkpt><trkpt lat="44.63427414217406" lon="8.395589967087611"><ele>399.6</ele><time>2026-05-01T09:58:18Z</time></trkpt><trkpt lat="44.63434214799298" lon="8.39571149487248"><ele>401.4</ele><time>2026-05-01T09:58:19Z</time></trkpt><trkpt lat="44.63440114362454" lon="8.395828629694563"><ele>403.2</ele><time>2026-05-01T09:58:20Z</time></trkpt><trkpt lat="44.63445261558681" lon="8.395947231877436"><ele>405.0</ele><time>2026-05-01T09:58:21Z</time></trkpt><trkpt lat="44.634495644827794" lon="8.396066393568983"><ele>401.4</ele><time>2026-05-01T09:58:22Z</time></trkpt><trkpt lat="44.63453484322746" lon="8.39617313796281"><ele>397.8</ele><time>2026-05-01T09:58:23Z</time></trkpt><trkpt lat="44.63458453108194" lon="8.396263669453338"><ele>394.20000000000005</ele><time>2026-05-01T09:58:24Z</time></trkpt><trkpt lat="44.63468361726538" lon="8.396281860119107"><ele>390.6</ele><time>2026-05-01T09:58:25Z</time></trkpt><trkpt lat="44.634778019289506" lon="8.396191845717526"><ele>387.0</ele><time>2026-05-01T09:58:26Z</time></trkpt><trkpt lat="44.63482896306113" lon="8.396050731757411"><ele>387.0</ele><time>2026-05-01T09:58:27Z</time></trkpt><trkpt lat="44.634824716924584" lon="8.395887034089474"><ele>387.0</ele><time>2026-05-01T09:58:28Z</time></trkpt><trkpt lat="44.63477810078239" lon="8.39573549675491"><ele>387.0</ele><time>2026-05-01T09:58:29Z</time></trkpt><trkpt lat="44.6347643698108" lon="8.395568074734323"><ele>387.0</ele><time>2026-05-01T09:58:30Z</time></trkpt><trkpt lat="44.63474265447036" lon="8.39542126435957"><ele>386.0</ele><time>2026-05-01T09:58:31Z</time></trkpt><trkpt lat="44.63473856772294" lon="8.395260323945141"><ele>385.0</ele><time>2026-05-01T09:58:32Z</time></trkpt><trkpt lat="44.634728821187586" lon="8.39509211876449"><ele>384.0</ele><time>2026-05-01T09:58:33Z</time></trkpt><trkpt lat="44.634723325252544" lon="8.39492458252641"><ele>383.0</ele><time>2026-05-01T09:58:34Z</time></trkpt><trkpt lat="44.63472178491187" lon="8.394766462755609"><ele>382.59999999999997</ele><time>2026-05-01T09:58:35Z</time></trkpt><trkpt lat="44.63471829326223" lon="8.394612403879805"><ele>382.2</ele><time>2026-05-01T09:58:36Z</time></trkpt><trkpt lat="44.63471712942334" lon="8.39445778914839"><ele>381.8</ele><time>2026-05-01T09:58:37Z</time></trkpt><trkpt lat="44.634716623334256" lon="8.394306777921251"><ele>381.4</ele><time>2026-05-01T09:58:38Z</time></trkpt><trkpt lat="44.63471445063215" lon="8.394160024760684"><ele>381.0</ele><time>2026-05-01T09:58:39Z</time></trkpt><trkpt lat="44.63471184876924" lon="8.39401525415881"><ele>381.0</ele><time>2026-05-01T09:58:40Z</time></trkpt><trkpt lat="44.63470352539006" lon="8.393870943163089"><ele>381.0</ele><time>2026-05-01T09:58:41Z</time></trkpt><trkpt lat="44.63467366463199" lon="8.393726248486184"><ele>381.0</ele><time>2026-05-01T09:58:42Z</time></trkpt><trkpt lat="44.634617600936686" lon="8.393594010800753"><ele>381.0</ele><time>2026-05-01T09:58:43Z</time></trkpt><trkpt lat="44.63455235132938" lon="8.393484660248502"><ele>381.0</ele><time>2026-05-01T09:58:44Z</time></trkpt><trkpt lat="44.63450708339286" lon="8.393372026779694"><ele>380.20000000000005</ele><time>2026-05-01T09:58:45Z</time></trkpt><trkpt lat="44.634468171684475" lon="8.393273494470833"><ele>379.40000000000003</ele><time>2026-05-01T09:58:46Z</time></trkpt><trkpt lat="44.63444612824128" lon="8.393173602007737"><ele>378.6</ele><time>2026-05-01T09:58:47Z</time></trkpt><trkpt lat="44.63450182611351" lon="8.393077908072254"><ele>377.8</ele><time>2026-05-01T09:58:48Z</time></trkpt><trkpt lat="44.634604185989545" lon="8.393053855829622"><ele>377.0</ele><time>2026-05-01T09:58:49Z</time></trkpt><trkpt lat="44.63470020885039" lon="8.393156974867413"><ele>377.0</ele><time>2026-05-01T09:58:50Z</time></trkpt><trkpt lat="44.634817849732954" lon="8.393215326799494"><ele>377.0</ele><time>2026-05-01T09:58:51Z</time></trkpt><trkpt lat="44.63492301589057" lon="8.39329314196898"><ele>377.0</ele><time>2026-05-01T09:58:52Z</time></trkpt><trkpt lat="44.63503727250921" lon="8.393344964150819"><ele>377.0</ele><time>2026-05-01T09:58:53Z</time></trkpt><trkpt lat="44.63514614206135" lon="8.393406540765836"><ele>377.0</ele><time>2026-05-01T09:58:54Z</time></trkpt><trkpt lat="44.63525445868032" lon="8.393462545080379"><ele>377.0</ele><time>2026-05-01T09:58:55Z</time></trkpt><trkpt lat="44.63536647148878" lon="8.393518320560144"><ele>377.0</ele><time>2026-05-01T09:58:56Z</time></trkpt><trkpt lat="44.63545885137343" lon="8.393617501660806"><ele>377.0</ele><time>2026-05-01T09:58:57Z</time></trkpt><trkpt lat="44.635552345748614" lon="8.393715188333973"><ele>374.75</ele><time>2026-05-01T09:58:58Z</time></trkpt><trkpt lat="44.63558757756498" lon="8.393892654482343"><ele>372.5</ele><time>2026-05-01T09:58:59Z</time></trkpt><trkpt lat="44.63562455510779" lon="8.39407392792272"><ele>370.25</ele><time>2026-05-01T09:59:00Z</time></trkpt><trkpt lat="44.63565317672146" lon="8.394247375605646"><ele>368.0</ele><time>2026-05-01T09:59:01Z</time></trkpt><trkpt lat="44.63565740165748" lon="8.394411862070204"><ele>368.0</ele><time>2026-05-01T09:59:02Z</time></trkpt><trkpt lat="44.63562457218131" lon="8.394565712003784"><ele>368.0</ele><time>2026-05-01T09:59:03Z</time></trkpt><trkpt lat="44.635604429538176" lon="8.394730139262277"><ele>368.0</ele><time>2026-05-01T09:59:04Z</time></trkpt><trkpt lat="44.63556460385236" lon="8.394883564902269"><ele>368.0</ele><time>2026-05-01T09:59:05Z</time></trkpt><trkpt lat="44.63552997326585" lon="8.395023759279615"><ele>367.0</ele><time>2026-05-01T09:59:06Z</time></trkpt><trkpt lat="44.63549842343848" lon="8.395145911330557"><ele>366.0</ele><time>2026-05-01T09:59:07Z</time></trkpt><trkpt lat="44.63548471102506" lon="8.395263997840656"><ele>365.0</ele><time>2026-05-01T09:59:08Z</time></trkpt><trkpt lat="44.63551752899749" lon="8.395378857031536"><ele>364.0</ele><time>2026-05-01T09:59:09Z</time></trkpt><trkpt lat="44.63560290660501" lon="8.395475372853289"><ele>363.0</ele><time>2026-05-01T09:59:10Z</time></trkpt><trkpt lat="44.63571972866182" lon="8.395522883032257"><ele>366.0</ele><time>2026-05-01T09:59:11Z</time></trkpt><trkpt lat="44.63584221532782" lon="8.39554102388069"><ele>369.0</ele><time>2026-05-01T09:59:12Z</time></trkpt><trkpt lat="44.63595646445023" lon="8.395556241565657"><ele>372.0</ele><time>2026-05-01T09:59:13Z</time></trkpt><trkpt lat="44.636074470393" lon="8.39556627518126"><ele>375.0</ele><time>2026-05-01T09:59:14Z</time></trkpt><trkpt lat="44.636201907506276" lon="8.395539388221414"><ele>368.0</ele><time>2026-05-01T09:59:15Z</time></trkpt><trkpt lat="44.636353627642634" lon="8.395499299387746"><ele>361.0</ele><time>2026-05-01T09:59:16Z</time></trkpt><trkpt lat="44.63650621398665" lon="8.39543701291534"><ele>354.0</ele><time>2026-05-01T09:59:17Z</time></trkpt><trkpt lat="44.636653117315944" lon="8.395374866142637"><ele>354.0</ele><time>2026-05-01T09:59:18Z</time></trkpt><trkpt lat="44.63680248451812" lon="8.395326163981737"><ele>354.0</ele><time>2026-05-01T09:59:19Z</time></trkpt><trkpt lat="44.6369555564137" lon="8.395292234269085"><ele>354.0</ele><time>2026-05-01T09:59:20Z</time></trkpt><trkpt lat="44.63710010417733" lon="8.395250044218452"><ele>353.0</ele><time>2026-05-01T09:59:21Z</time></trkpt><trkpt lat="44.63724414051982" lon="8.395223915498907"><ele>352.0</ele><time>2026-05-01T09:59:22Z</time></trkpt><trkpt lat="44.6373811998558" lon="8.395194380561144"><ele>351.0</ele><time>2026-05-01T09:59:23Z</time></trkpt><trkpt lat="44.637508273781265" lon="8.395196427025876"><ele>350.0</ele><time>2026-05-01T09:59:24Z</time></trkpt><trkpt lat="44.63761313253412" lon="8.395155768524452"><ele>350.0</ele><time>2026-05-01T09:59:25Z</time></trkpt><trkpt lat="44.63770527573005" lon="8.39514480561337"><ele>350.0</ele><time>2026-05-01T09:59:26Z</time></trkpt><trkpt lat="44.63779295367721" lon="8.395160647881761"><ele>350.0</ele><time>2026-05-01T09:59:27Z</time></trkpt><trkpt lat="44.637874657222255" lon="8.395237978883676"><ele>350.0</ele><time>2026-05-01T09:59:27.999Z</time></trkpt><trkpt lat="44.63793637606068" lon="8.39537366553776"><ele>350.0</ele><time>2026-05-01T09:59:28.999Z</time></trkpt><trkpt lat="44.63791948661068" lon="8.3955360562959"><ele>347.4</ele><time>2026-05-01T09:59:29.999Z</time></trkpt><trkpt lat="44.63788040424997" lon="8.395686126000513"><ele>344.8</ele><time>2026-05-01T09:59:30.999Z</time></trkpt><trkpt lat="44.6378358540706" lon="8.395824620465469"><ele>342.20000000000005</ele><time>2026-05-01T09:59:31.999Z</time></trkpt><trkpt lat="44.63780511353909" lon="8.395954093956899"><ele>339.6</ele><time>2026-05-01T09:59:32.999Z</time></trkpt><trkpt lat="44.63781840650793" lon="8.396109101902814"><ele>337.0</ele><time>2026-05-01T09:59:33.999Z</time></trkpt><trkpt lat="44.63789592911963" lon="8.396250562628342"><ele>339.0</ele><time>2026-05-01T09:59:34.999Z</time></trkpt><trkpt lat="44.63798788239034" lon="8.39639983802451"><ele>341.0</ele><time>2026-05-01T09:59:35.999Z</time></trkpt><trkpt lat="44.63807220659222" lon="8.396590086005775"><ele>343.0</ele><time>2026-05-01T09:59:36.999Z</time></trkpt><trkpt lat="44.63815993420887" lon="8.396749542406326"><ele>345.0</ele><time>2026-05-01T09:59:37.999Z</time></trkpt><trkpt lat="44.638233600348705" lon="8.396898484495846"><ele>345.0</ele><time>2026-05-01T09:59:38.999Z</time></trkpt><trkpt lat="44.638315009323485" lon="8.397021891250068"><ele>345.0</ele><time>2026-05-01T09:59:39.999Z</time></trkpt><trkpt lat="44.63839578230898" lon="8.397144734545025"><ele>345.0</ele><time>2026-05-01T09:59:40.999Z</time></trkpt><trkpt lat="44.638470963748205" lon="8.397279857229035"><ele>345.0</ele><time>2026-05-01T09:59:41.999Z</time></trkpt><trkpt lat="44.638550923164054" lon="8.397413521269689"><ele>344.25</ele><time>2026-05-01T09:59:42.999Z</time></trkpt><trkpt lat="44.63862584694509" lon="8.397540538567997"><ele>343.5</ele><time>2026-05-01T09:59:43.999Z</time></trkpt><trkpt lat="44.63871284395351" lon="8.397648899475465"><ele>342.75</ele><time>2026-05-01T09:59:44.999Z</time></trkpt><trkpt lat="44.63883315712868" lon="8.397699582833626"><ele>342.0</ele><time>2026-05-01T09:59:45.999Z</time></trkpt><trkpt lat="44.63898700242053" lon="8.397699166556643"><ele>342.0</ele><time>2026-05-01T09:59:46.999Z</time></trkpt><trkpt lat="44.63914139692125" lon="8.397672475991833"><ele>342.0</ele><time>2026-05-01T09:59:47.999Z</time></trkpt><trkpt lat="44.63927625585749" lon="8.397678753210025"><ele>342.0</ele><time>2026-05-01T09:59:48.999Z</time></trkpt><trkpt lat="44.639431689145205" lon="8.397670174102558"><ele>342.0</ele><time>2026-05-01T09:59:49.999Z</time></trkpt><trkpt lat="44.639584083628044" lon="8.39766220879567"><ele>340.75</ele><time>2026-05-01T09:59:50.999Z</time></trkpt><trkpt lat="44.6397287732948" lon="8.39765627087083"><ele>339.5</ele><time>2026-05-01T09:59:51.999Z</time></trkpt><trkpt lat="44.63986713147076" lon="8.397650592780264"><ele>338.25</ele><time>2026-05-01T09:59:52.999Z</time></trkpt><trkpt lat="44.63999824168355" lon="8.397645212139402"><ele>337.0</ele><time>2026-05-01T09:59:53.999Z</time></trkpt><trkpt lat="44.640118269081334" lon="8.397636660566947"><ele>337.0</ele><time>2026-05-01T09:59:54.999Z</time></trkpt><trkpt lat="44.64023119212531" lon="8.3976003070952"><ele>337.0</ele><time>2026-05-01T09:59:55.999Z</time></trkpt><trkpt lat="44.640340097243374" lon="8.397578858259479"><ele>337.0</ele><time>2026-05-01T09:59:56.999Z</time></trkpt><trkpt lat="44.640442006093245" lon="8.397553783213656"><ele>337.0</ele><time>2026-05-01T09:59:57.999Z</time></trkpt><trkpt lat="44.64053223249141" lon="8.39748477499799"><ele>337.0</ele><time>2026-05-01T09:59:58.999Z</time></trkpt><trkpt lat="44.640613999077964" lon="8.39741193560716"><ele>335.6</ele><time>2026-05-01T09:59:59.999Z</time></trkpt><trkpt lat="44.64069249248139" lon="8.397348621261504"><ele>334.20000000000005</ele><time>2026-05-01T10:00:00.999Z</time></trkpt><trkpt lat="44.64076930792858" lon="8.397310924765643"><ele>332.8</ele><time>2026-05-01T10:00:01.999Z</time></trkpt><trkpt lat="44.64086118423255" lon="8.397351588977111"><ele>331.4</ele><time>2026-05-01T10:00:02.999Z</time></trkpt><trkpt lat="44.64093474916731" lon="8.397458934198285"><ele>330.0</ele><time>2026-05-01T10:00:03.999Z</time></trkpt><trkpt lat="44.6409620595616" lon="8.397616644444385"><ele>330.0</ele><time>2026-05-01T10:00:04.999Z</time></trkpt><trkpt lat="44.64100895267887" lon="8.397780146804308"><ele>330.0</ele><time>2026-05-01T10:00:05.999Z</time></trkpt><trkpt lat="44.641047245333986" lon="8.397964251687773"><ele>330.0</ele><time>2026-05-01T10:00:06.999Z</time></trkpt><trkpt lat="44.64108756812437" lon="8.398170210823318"><ele>330.0</ele><time>2026-05-01T10:00:07.999Z</time></trkpt><trkpt lat="44.64112038845156" lon="8.398385765070373"><ele>326.6666666666667</ele><time>2026-05-01T10:00:08.999Z</time></trkpt><trkpt lat="44.641160930649775" lon="8.398601208472535"><ele>323.33333333333337</ele><time>2026-05-01T10:00:09.999Z</time></trkpt><trkpt lat="44.64120298321944" lon="8.39881801458377"><ele>320.0</ele><time>2026-05-01T10:00:10.999Z</time></trkpt><trkpt lat="44.641244674339035" lon="8.399048630584"><ele>320.0</ele><time>2026-05-01T10:00:11.999Z</time></trkpt><trkpt lat="44.64131108637128" lon="8.399283372708155"><ele>320.0</ele><time>2026-05-01T10:00:13.999Z</time></trkpt><trkpt lat="44.641353739616" lon="8.399469529436361"><ele>320.0</ele><time>2026-05-01T10:00:14.999Z</time></trkpt><trkpt lat="44.64139432717708" lon="8.399649192123986"><ele>320.25</ele><time>2026-05-01T10:00:15.999Z</time></trkpt><trkpt lat="44.64143122035673" lon="8.399823177045409"><ele>320.5</ele><time>2026-05-01T10:00:16.999Z</time></trkpt><trkpt lat="44.64143589320398" lon="8.399986652093908"><ele>320.75</ele><time>2026-05-01T10:00:17.999Z</time></trkpt><trkpt lat="44.64144021995391" lon="8.400140247541897"><ele>321.0</ele><time>2026-05-01T10:00:18.999Z</time></trkpt><trkpt lat="44.64146393251769" lon="8.400291677426473"><ele>321.0</ele><time>2026-05-01T10:00:19.999Z</time></trkpt><trkpt lat="44.6414745386721" lon="8.400438639510492"><ele>321.0</ele><time>2026-05-01T10:00:20.999Z</time></trkpt><trkpt lat="44.64153788779031" lon="8.400557045077779"><ele>321.0</ele><time>2026-05-01T10:00:22Z</time></trkpt><trkpt lat="44.64164896287632" lon="8.400621901742271"><ele>321.0</ele><time>2026-05-01T10:00:23Z</time></trkpt><trkpt lat="44.64178084150549" lon="8.400628409686709"><ele>322.25</ele><time>2026-05-01T10:00:24Z</time></trkpt><trkpt lat="44.64189902342934" lon="8.400633203058458"><ele>323.5</ele><time>2026-05-01T10:00:25Z</time></trkpt><trkpt lat="44.64201600067025" lon="8.400646088436071"><ele>324.75</ele><time>2026-05-01T10:00:26Z</time></trkpt><trkpt lat="44.642128844266594" lon="8.400667196629819"><ele>326.0</ele><time>2026-05-01T10:00:27Z</time></trkpt><trkpt lat="44.6422461735688" lon="8.400670236082258"><ele>326.0</ele><time>2026-05-01T10:00:28Z</time></trkpt><trkpt lat="44.642362380356225" lon="8.400639720046046"><ele>326.0</ele><time>2026-05-01T10:00:29Z</time></trkpt><trkpt lat="44.64247889716651" lon="8.400596260493883"><ele>326.0</ele><time>2026-05-01T10:00:30Z</time></trkpt><trkpt lat="44.64260021954821" lon="8.40055579467872"><ele>326.0</ele><time>2026-05-01T10:00:31Z</time></trkpt><trkpt lat="44.642719248139116" lon="8.400528845508314"><ele>320.75</ele><time>2026-05-01T10:00:32Z</time></trkpt><trkpt lat="44.64284324626013" lon="8.400491161637872"><ele>315.5</ele><time>2026-05-01T10:00:33Z</time></trkpt><trkpt lat="44.64297291728184" lon="8.400445582151697"><ele>310.25</ele><time>2026-05-01T10:00:34Z</time></trkpt><trkpt lat="44.64309964721715" lon="8.400400772586503"><ele>305.0</ele><time>2026-05-01T10:00:35Z</time></trkpt><trkpt lat="44.643219157523916" lon="8.400350863985407"><ele>305.0</ele><time>2026-05-01T10:00:36Z</time></trkpt><trkpt lat="44.643324955737924" lon="8.400272300380157"><ele>305.0</ele><time>2026-05-01T10:00:37Z</time></trkpt><trkpt lat="44.64342629698805" lon="8.4001739240901"><ele>305.0</ele><time>2026-05-01T10:00:38Z</time></trkpt><trkpt lat="44.64353563456871" lon="8.400082504585919"><ele>305.0</ele><time>2026-05-01T10:00:39Z</time></trkpt><trkpt lat="44.643652367227475" lon="8.399977971013575"><ele>304.5</ele><time>2026-05-01T10:00:40Z</time></trkpt><trkpt lat="44.6437757530775" lon="8.399882111677083"><ele>304.0</ele><time>2026-05-01T10:00:41Z</time></trkpt><trkpt lat="44.64390432964092" lon="8.399787240180606"><ele>303.5</ele><time>2026-05-01T10:00:42Z</time></trkpt><trkpt lat="44.6440356074103" lon="8.399730454835078"><ele>303.0</ele><time>2026-05-01T10:00:43Z</time></trkpt><trkpt lat="44.644157945504844" lon="8.399637123696555"><ele>298.75</ele><time>2026-05-01T10:00:44Z</time></trkpt><trkpt lat="44.64428794952732" lon="8.399559809511421"><ele>294.5</ele><time>2026-05-01T10:00:45Z</time></trkpt><trkpt lat="44.64441712098989" lon="8.399484092833733"><ele>290.25</ele><time>2026-05-01T10:00:46Z</time></trkpt><trkpt lat="44.64453291444601" lon="8.399418814184715"><ele>286.0</ele><time>2026-05-01T10:00:47Z</time></trkpt><trkpt lat="44.6446291895821" lon="8.39937699919035"><ele>285.8</ele><time>2026-05-01T10:00:48Z</time></trkpt><trkpt lat="44.64471669118198" lon="8.39937581834289"><ele>285.6</ele><time>2026-05-01T10:00:49Z</time></trkpt><trkpt lat="44.644787874994826" lon="8.399439601503182"><ele>285.4</ele><time>2026-05-01T10:00:50Z</time></trkpt><trkpt lat="44.644817278658905" lon="8.399570595954355"><ele>285.2</ele><time>2026-05-01T10:00:51Z</time></trkpt><trkpt lat="44.64477498970374" lon="8.399727567045003"><ele>285.0</ele><time>2026-05-01T10:00:52Z</time></trkpt><trkpt lat="44.64470934976653" lon="8.399886761148151"><ele>285.0</ele><time>2026-05-01T10:00:53Z</time></trkpt><trkpt lat="44.64466726598848" lon="8.4000751875139"><ele>285.0</ele><time>2026-05-01T10:00:54Z</time></trkpt><trkpt lat="44.644630538079326" lon="8.400262760008745"><ele>285.0</ele><time>2026-05-01T10:00:55Z</time></trkpt><trkpt lat="44.64460667371161" lon="8.400447266917"><ele>285.0</ele><time>2026-05-01T10:00:56Z</time></trkpt><trkpt lat="44.64458804445067" lon="8.400632461759587"><ele>284.75</ele><time>2026-05-01T10:00:57Z</time></trkpt><trkpt lat="44.64456143568715" lon="8.40080807455717"><ele>284.5</ele><time>2026-05-01T10:00:58Z</time></trkpt><trkpt lat="44.64454622433337" lon="8.400975997010113"><ele>284.25</ele><time>2026-05-01T10:00:59Z</time></trkpt><trkpt lat="44.64456479478647" lon="8.40114232666672"><ele>284.0</ele><time>2026-05-01T10:01:00Z</time></trkpt><trkpt lat="44.64462611750566" lon="8.40129953933494"><ele>286.0</ele><time>2026-05-01T10:01:01Z</time></trkpt><trkpt lat="44.644723953953026" lon="8.40142549486455"><ele>288.0</ele><time>2026-05-01T10:01:02Z</time></trkpt><trkpt lat="44.644840828624574" lon="8.40151839400681"><ele>290.0</ele><time>2026-05-01T10:01:03Z</time></trkpt><trkpt lat="44.64494247080054" lon="8.40161824629644"><ele>292.0</ele><time>2026-05-01T10:01:04Z</time></trkpt><trkpt lat="44.645034112372244" lon="8.401724152111267"><ele>292.0</ele><time>2026-05-01T10:01:05Z</time></trkpt><trkpt lat="44.64512524531706" lon="8.40183661867942"><ele>292.0</ele><time>2026-05-01T10:01:06Z</time></trkpt><trkpt lat="44.6452141595107" lon="8.401950332844043"><ele>292.0</ele><time>2026-05-01T10:01:07Z</time></trkpt><trkpt lat="44.645303077432985" lon="8.402065785364407"><ele>292.0</ele><time>2026-05-01T10:01:08Z</time></trkpt><trkpt lat="44.64538744254109" lon="8.402180144577764"><ele>286.4</ele><time>2026-05-01T10:01:09Z</time></trkpt><trkpt lat="44.64546753904413" lon="8.402281060128963"><ele>280.79999999999995</ele><time>2026-05-01T10:01:10Z</time></trkpt><trkpt lat="44.64550611861093" lon="8.402406892578174"><ele>275.2</ele><time>2026-05-01T10:01:11Z</time></trkpt><trkpt lat="44.64550743284114" lon="8.402556193540361"><ele>269.59999999999997</ele><time>2026-05-01T10:01:12Z</time></trkpt><trkpt lat="44.645452044553" lon="8.402698188276872"><ele>264.0</ele><time>2026-05-01T10:01:13Z</time></trkpt><trkpt lat="44.64533083418861" lon="8.402769409494086"><ele>268.5</ele><time>2026-05-01T10:01:14Z</time></trkpt><trkpt lat="44.64523672836088" lon="8.402882843030625"><ele>273.0</ele><time>2026-05-01T10:01:15Z</time></trkpt><trkpt lat="44.645152263148844" lon="8.40298871487952"><ele>277.5</ele><time>2026-05-01T10:01:16Z</time></trkpt><trkpt lat="44.64509768189313" lon="8.403132589752682"><ele>282.0</ele><time>2026-05-01T10:01:17Z</time></trkpt><trkpt lat="44.64505919734476" lon="8.403294697705565"><ele>282.0</ele><time>2026-05-01T10:01:18Z</time></trkpt><trkpt lat="44.64502599090059" lon="8.40346030425082"><ele>282.0</ele><time>2026-05-01T10:01:19Z</time></trkpt><trkpt lat="44.64499296654881" lon="8.40361664863611"><ele>282.0</ele><time>2026-05-01T10:01:20Z</time></trkpt><trkpt lat="44.64495864965142" lon="8.403769191466694"><ele>282.0</ele><time>2026-05-01T10:01:21Z</time></trkpt><trkpt lat="44.64491697004548" lon="8.403915105286785"><ele>279.5</ele><time>2026-05-01T10:01:22Z</time></trkpt><trkpt lat="44.644878470411115" lon="8.404064851558356"><ele>277.0</ele><time>2026-05-01T10:01:23Z</time></trkpt><trkpt lat="44.644846992130006" lon="8.404220788709798"><ele>274.5</ele><time>2026-05-01T10:01:24Z</time></trkpt><trkpt lat="44.644834570665786" lon="8.404382532277083"><ele>272.0</ele><time>2026-05-01T10:01:25Z</time></trkpt><trkpt lat="44.64486213219463" lon="8.404547172433269"><ele>271.5</ele><time>2026-05-01T10:01:26Z</time></trkpt><trkpt lat="44.6449204911855" lon="8.404696018941546"><ele>271.0</ele><time>2026-05-01T10:01:27Z</time></trkpt><trkpt lat="44.645003076375886" lon="8.40481855588515"><ele>270.5</ele><time>2026-05-01T10:01:28Z</time></trkpt><trkpt lat="44.64510322567331" lon="8.404904637865572"><ele>270.0</ele><time>2026-05-01T10:01:29Z</time></trkpt><trkpt lat="44.64520744447302" lon="8.404974401689937"><ele>270.0</ele><time>2026-05-01T10:01:30Z</time></trkpt><trkpt lat="44.645292064943185" lon="8.405079107047657"><ele>270.0</ele><time>2026-05-01T10:01:31Z</time></trkpt><trkpt lat="44.645365572077445" lon="8.405193546018936"><ele>270.0</ele><time>2026-05-01T10:01:31.999Z</time></trkpt><trkpt lat="44.64543422770182" lon="8.40532471623343"><ele>270.0</ele><time>2026-05-01T10:01:32.999Z</time></trkpt><trkpt lat="44.645497808420224" lon="8.4054612780458"><ele>266.75</ele><time>2026-05-01T10:01:33.999Z</time></trkpt><trkpt lat="44.645569957761396" lon="8.405591765446681"><ele>263.5</ele><time>2026-05-01T10:01:34.999Z</time></trkpt><trkpt lat="44.64563539213629" lon="8.40573160566659"><ele>260.25</ele><time>2026-05-01T10:01:35.999Z</time></trkpt><trkpt lat="44.64570277381322" lon="8.405875072746582"><ele>257.0</ele><time>2026-05-01T10:01:36.999Z</time></trkpt><trkpt lat="44.645772911203856" lon="8.40601218516677"><ele>257.0</ele><time>2026-05-01T10:01:37.999Z</time></trkpt><trkpt lat="44.645842656542115" lon="8.406142957936986"><ele>257.0</ele><time>2026-05-01T10:01:38.999Z</time></trkpt><trkpt lat="44.64590645544268" lon="8.406251360521999"><ele>257.0</ele><time>2026-05-01T10:01:39.999Z</time></trkpt><trkpt lat="44.64596332828264" lon="8.406336121460159"><ele>257.0</ele><time>2026-05-01T10:01:40.999Z</time></trkpt><trkpt lat="44.646024002247614" lon="8.406397255382718"><ele>257.0</ele><time>2026-05-01T10:01:41.999Z</time></trkpt><trkpt lat="44.64609927806203" lon="8.406403575670696"><ele>257.0</ele><time>2026-05-01T10:01:42.999Z</time></trkpt><trkpt lat="44.64617804487424" lon="8.406374458378192"><ele>257.0</ele><time>2026-05-01T10:01:43.999Z</time></trkpt><trkpt lat="44.64623264125367" lon="8.406244444417256"><ele>257.0</ele><time>2026-05-01T10:01:44.999Z</time></trkpt><trkpt lat="44.646200646459306" lon="8.406087802642789"><ele>257.0</ele><time>2026-05-01T10:01:45.999Z</time></trkpt><trkpt lat="44.64612780799189" lon="8.405956004113396"><ele>257.0</ele><time>2026-05-01T10:01:46.999Z</time></trkpt><trkpt lat="44.646042799262865" lon="8.40583580317606"><ele>257.0</ele><time>2026-05-01T10:01:47.999Z</time></trkpt><trkpt lat="44.64596878094719" lon="8.405712878937708"><ele>257.0</ele><time>2026-05-01T10:01:48.999Z</time></trkpt><trkpt lat="44.645919846230676" lon="8.405570420517016"><ele>257.0</ele><time>2026-05-01T10:01:49.999Z</time></trkpt><trkpt lat="44.64592691028972" lon="8.405405236084057"><ele>257.0</ele><time>2026-05-01T10:01:50.999Z</time></trkpt><trkpt lat="44.64590832662636" lon="8.405246973055897"><ele>254.75</ele><time>2026-05-01T10:01:51.999Z</time></trkpt><trkpt lat="44.64589906645266" lon="8.405089754368435"><ele>252.5</ele><time>2026-05-01T10:01:52.999Z</time></trkpt><trkpt lat="44.645881501373935" lon="8.40493226729505"><ele>250.25</ele><time>2026-05-01T10:01:53.999Z</time></trkpt><trkpt lat="44.64584252557603" lon="8.404777986689034"><ele>248.0</ele><time>2026-05-01T10:01:54.999Z</time></trkpt><trkpt lat="44.645790144984424" lon="8.404637239625618"><ele>247.83333333333334</ele><time>2026-05-01T10:01:55.999Z</time></trkpt><trkpt lat="44.645736996662066" lon="8.404508807863149"><ele>247.66666666666669</ele><time>2026-05-01T10:01:56.999Z</time></trkpt><trkpt lat="44.64569345526573" lon="8.4043914205381"><ele>247.5</ele><time>2026-05-01T10:01:57.999Z</time></trkpt><trkpt lat="44.64568341420565" lon="8.404286867416406"><ele>247.33333333333331</ele><time>2026-05-01T10:01:58.999Z</time></trkpt><trkpt lat="44.645689538328206" lon="8.404197318766485"><ele>247.16666666666666</ele><time>2026-05-01T10:01:59.999Z</time></trkpt><trkpt lat="44.64576423255132" lon="8.404135232483213"><ele>247.0</ele><time>2026-05-01T10:02:00.999Z</time></trkpt><trkpt lat="44.64586138954023" lon="8.404165030370779"><ele>247.0</ele><time>2026-05-01T10:02:01.999Z</time></trkpt><trkpt lat="44.64591287710778" lon="8.404312136884998"><ele>247.0</ele><time>2026-05-01T10:02:02.999Z</time></trkpt><trkpt lat="44.645951226647135" lon="8.404449597877019"><ele>247.0</ele><time>2026-05-01T10:02:03.999Z</time></trkpt><trkpt lat="44.645996792503524" lon="8.404595271003313"><ele>247.0</ele><time>2026-05-01T10:02:04.999Z</time></trkpt><trkpt lat="44.646065543654096" lon="8.40472703989845"><ele>241.25</ele><time>2026-05-01T10:02:05.999Z</time></trkpt><trkpt lat="44.64612906294284" lon="8.404868144463302"><ele>235.5</ele><time>2026-05-01T10:02:06.999Z</time></trkpt><trkpt lat="44.646198630082424" lon="8.40499729470593"><ele>229.75</ele><time>2026-05-01T10:02:07.999Z</time></trkpt><trkpt lat="44.646276409106655" lon="8.405119306479184"><ele>224.0</ele><time>2026-05-01T10:02:08.999Z</time></trkpt><trkpt lat="44.64634164741804" lon="8.405241326087184"><ele>224.0</ele><time>2026-05-01T10:02:09.999Z</time></trkpt><trkpt lat="44.646394562782305" lon="8.405343805500989"><ele>223.99999999999997</ele><time>2026-05-01T10:02:10.999Z</time></trkpt><trkpt lat="44.646443958632005" lon="8.405410519294277"><ele>223.99999999999997</ele><time>2026-05-01T10:02:11.999Z</time></trkpt><trkpt lat="44.646573318646034" lon="8.405436038850395"><ele>224.0</ele><time>2026-05-01T10:02:13.999Z</time></trkpt><trkpt lat="44.64663243858327" lon="8.405341795300714"><ele>224.0</ele><time>2026-05-01T10:02:14.999Z</time></trkpt><trkpt lat="44.64663776437793" lon="8.40520966561458"><ele>224.0</ele><time>2026-05-01T10:02:15.999Z</time></trkpt><trkpt lat="44.646594980788535" lon="8.405082715968044"><ele>224.0</ele><time>2026-05-01T10:02:16.999Z</time></trkpt><trkpt lat="44.646533685298095" lon="8.404949606881694"><ele>224.0</ele><time>2026-05-01T10:02:17.999Z</time></trkpt><trkpt lat="44.64647145388324" lon="8.404810502909756"><ele>224.0</ele><time>2026-05-01T10:02:18.999Z</time></trkpt><trkpt lat="44.64643098917394" lon="8.404636634616192"><ele>224.0</ele><time>2026-05-01T10:02:19.999Z</time></trkpt><trkpt lat="44.646402111934826" lon="8.404467258553405"><ele>224.0</ele><time>2026-05-01T10:02:20.999Z</time></trkpt><trkpt lat="44.646367496160174" lon="8.40430672846033"><ele>224.0</ele><time>2026-05-01T10:02:21.999Z</time></trkpt><trkpt lat="44.646346863911965" lon="8.404155625239536"><ele>224.0</ele><time>2026-05-01T10:02:22.999Z</time></trkpt><trkpt lat="44.64631951093366" lon="8.404014336118482"><ele>224.0</ele><time>2026-05-01T10:02:23.999Z</time></trkpt><trkpt lat="44.646308201508276" lon="8.403883133179345"><ele>223.99999999999997</ele><time>2026-05-01T10:02:24.999Z</time></trkpt><trkpt lat="44.646348670622785" lon="8.40376364343988"><ele>223.99999999999997</ele><time>2026-05-01T10:02:25.999Z</time></trkpt><trkpt lat="44.64644505947748" lon="8.403694872826476"><ele>224.0</ele><time>2026-05-01T10:02:26.999Z</time></trkpt><trkpt lat="44.64654823820226" lon="8.403743247037445"><ele>224.0</ele><time>2026-05-01T10:02:28Z</time></trkpt><trkpt lat="44.64663528467286" lon="8.403847328229542"><ele>224.0</ele><time>2026-05-01T10:02:29Z</time></trkpt><trkpt lat="44.64669766781461" lon="8.404008255056032"><ele>224.0</ele><time>2026-05-01T10:02:30Z</time></trkpt><trkpt lat="44.64678844523546" lon="8.40414749451122"><ele>224.0</ele><time>2026-05-01T10:02:31Z</time></trkpt><trkpt lat="44.64686028590693" lon="8.404290080669295"><ele>224.0</ele><time>2026-05-01T10:02:32Z</time></trkpt><trkpt lat="44.646933857616126" lon="8.404423403583172"><ele>220.5</ele><time>2026-05-01T10:02:33Z</time></trkpt><trkpt lat="44.64700649749286" lon="8.404558694970598"><ele>217.0</ele><time>2026-05-01T10:02:34Z</time></trkpt><trkpt lat="44.64708036737605" lon="8.404705242609756"><ele>213.5</ele><time>2026-05-01T10:02:35Z</time></trkpt><trkpt lat="44.64715806453595" lon="8.404857009896332"><ele>210.0</ele><time>2026-05-01T10:02:36Z</time></trkpt><trkpt lat="44.64724032810608" lon="8.405007875500415"><ele>209.5</ele><time>2026-05-01T10:02:37Z</time></trkpt><trkpt lat="44.647324741312524" lon="8.405162718415841"><ele>209.0</ele><time>2026-05-01T10:02:38Z</time></trkpt><trkpt lat="44.64741284948171" lon="8.405317855507564"><ele>208.5</ele><time>2026-05-01T10:02:39Z</time></trkpt><trkpt lat="44.64750263632536" lon="8.405471956306643"><ele>208.0</ele><time>2026-05-01T10:02:40Z</time></trkpt><trkpt lat="44.647594622850576" lon="8.405624551715476"><ele>207.5</ele><time>2026-05-01T10:02:41Z</time></trkpt><trkpt lat="44.64768664282633" lon="8.405778021504"><ele>207.0</ele><time>2026-05-01T10:02:42Z</time></trkpt><trkpt lat="44.647767213340856" lon="8.40594089630349"><ele>206.5</ele><time>2026-05-01T10:02:43Z</time></trkpt><trkpt lat="44.64783930294821" lon="8.406110427450223"><ele>206.0</ele><time>2026-05-01T10:02:44Z</time></trkpt><trkpt lat="44.64790749791035" lon="8.406287461748795"><ele>204.0</ele><time>2026-05-01T10:02:45Z</time></trkpt><trkpt lat="44.6479725840118" lon="8.40646896602546"><ele>202.0</ele><time>2026-05-01T10:02:46Z</time></trkpt><trkpt lat="44.64803719486758" lon="8.406646789929162"><ele>200.0</ele><time>2026-05-01T10:02:47Z</time></trkpt><trkpt lat="44.64809891932933" lon="8.406819279431799"><ele>198.0</ele><time>2026-05-01T10:02:48Z</time></trkpt><trkpt lat="44.64815786500626" lon="8.406987811508396"><ele>198.0</ele><time>2026-05-01T10:02:49Z</time></trkpt><trkpt lat="44.64820407870587" lon="8.4071687218765"><ele>198.0</ele><time>2026-05-01T10:02:50Z</time></trkpt><trkpt lat="44.64822344735219" lon="8.40735493165534"><ele>198.0</ele><time>2026-05-01T10:02:51Z</time></trkpt><trkpt lat="44.648235322506565" lon="8.40755043534699"><ele>198.0</ele><time>2026-05-01T10:02:52Z</time></trkpt><trkpt lat="44.64825101412039" lon="8.407748445102401"><ele>198.0</ele><time>2026-05-01T10:02:53Z</time></trkpt><trkpt lat="44.64827264439234" lon="8.40794223345731"><ele>198.0</ele><time>2026-05-01T10:02:54Z</time></trkpt><trkpt lat="44.648292855873756" lon="8.40813126351122"><ele>198.0</ele><time>2026-05-01T10:02:55Z</time></trkpt><trkpt lat="44.64830417447626" lon="8.408328418269237"><ele>198.0</ele><time>2026-05-01T10:02:56Z</time></trkpt><trkpt lat="44.6482946982391" lon="8.408524563820603"><ele>198.0</ele><time>2026-05-01T10:02:57Z</time></trkpt><trkpt lat="44.64826031871109" lon="8.408716337603476"><ele>198.0</ele><time>2026-05-01T10:02:58Z</time></trkpt><trkpt lat="44.648223448038905" lon="8.408903723083649"><ele>198.0</ele><time>2026-05-01T10:02:59Z</time></trkpt><trkpt lat="44.6481980326828" lon="8.409095673365506"><ele>198.0</ele><time>2026-05-01T10:03:00Z</time></trkpt><trkpt lat="44.648187545244156" lon="8.409291904217778"><ele>196.5</ele><time>2026-05-01T10:03:01Z</time></trkpt><trkpt lat="44.64818204541821" lon="8.409498471559635"><ele>195.0</ele><time>2026-05-01T10:03:02Z</time></trkpt><trkpt lat="44.64815609727657" lon="8.40970551752562"><ele>193.5</ele><time>2026-05-01T10:03:03Z</time></trkpt><trkpt lat="44.64814673978357" lon="8.40991724359503"><ele>192.0</ele><time>2026-05-01T10:03:04Z</time></trkpt><trkpt lat="44.64815005103487" lon="8.4101341568286"><ele>190.66666666666666</ele><time>2026-05-01T10:03:05Z</time></trkpt><trkpt lat="44.64813992290062" lon="8.410342460631202"><ele>189.33333333333331</ele><time>2026-05-01T10:03:06Z</time></trkpt><trkpt lat="44.648132355034576" lon="8.410560987180823"><ele>188.0</ele><time>2026-05-01T10:03:07Z</time></trkpt><trkpt lat="44.648104717177716" lon="8.41077599329077"><ele>187.0</ele><time>2026-05-01T10:03:08Z</time></trkpt><trkpt lat="44.64810770410313" lon="8.410982606084405"><ele>186.0</ele><time>2026-05-01T10:03:09Z</time></trkpt><trkpt lat="44.64809658455145" lon="8.41118173942787"><ele>185.0</ele><time>2026-05-01T10:03:10Z</time></trkpt><trkpt lat="44.64808703969021" lon="8.411365775346828"><ele>184.0</ele><time>2026-05-01T10:03:11Z</time></trkpt><trkpt lat="44.648077118901824" lon="8.411546132082478"><ele>183.75</ele><time>2026-05-01T10:03:12Z</time></trkpt><trkpt lat="44.64805985538254" lon="8.411780717224264"><ele>183.5</ele><time>2026-05-01T10:03:13Z</time></trkpt><trkpt lat="44.64805026683632" lon="8.411974646105218"><ele>183.25</ele><time>2026-05-01T10:03:14Z</time></trkpt><trkpt lat="44.6480402086789" lon="8.412169690025513"><ele>183.0</ele><time>2026-05-01T10:03:15Z</time></trkpt><trkpt lat="44.648028017352864" lon="8.412365626463917"><ele>182.75</ele><time>2026-05-01T10:03:16Z</time></trkpt><trkpt lat="44.64800736463714" lon="8.412566827595276"><ele>182.5</ele><time>2026-05-01T10:03:17Z</time></trkpt><trkpt lat="44.647974716525816" lon="8.41276574365004"><ele>182.25</ele><time>2026-05-01T10:03:18Z</time></trkpt><trkpt lat="44.64793185148521" lon="8.412968765562653"><ele>182.0</ele><time>2026-05-01T10:03:19Z</time></trkpt><trkpt lat="44.647885410072256" lon="8.413191186544466"><ele>181.0</ele><time>2026-05-01T10:03:20Z</time></trkpt><trkpt lat="44.64784248114589" lon="8.413430504378075"><ele>180.0</ele><time>2026-05-01T10:03:21Z</time></trkpt><trkpt lat="44.647796812455695" lon="8.413675569177666"><ele>179.0</ele><time>2026-05-01T10:03:22Z</time></trkpt><trkpt lat="44.64774500730821" lon="8.413926189925133"><ele>178.33333333333331</ele><time>2026-05-01T10:03:23Z</time></trkpt><trkpt lat="44.64769348393052" lon="8.41418806708125"><ele>177.66666666666666</ele><time>2026-05-01T10:03:24Z</time></trkpt><trkpt lat="44.647641893193054" lon="8.414456055017986"><ele>177.0</ele><time>2026-05-01T10:03:25Z</time></trkpt><trkpt lat="44.64758888874459" lon="8.414723005236256"><ele>177.0</ele><time>2026-05-01T10:03:26Z</time></trkpt><trkpt lat="44.64754032388228" lon="8.414986235690293"><ele>177.0</ele><time>2026-05-01T10:03:27Z</time></trkpt><trkpt lat="44.64749306389971" lon="8.415245892709658"><ele>177.0</ele><time>2026-05-01T10:03:28Z</time></trkpt><trkpt lat="44.64744387728169" lon="8.4155058064485"><ele>177.33333333333334</ele><time>2026-05-01T10:03:29Z</time></trkpt><trkpt lat="44.64739417721329" lon="8.415759828560866"><ele>177.66666666666669</ele><time>2026-05-01T10:03:30Z</time></trkpt><trkpt lat="44.64734667157981" lon="8.416007608977113"><ele>178.0</ele><time>2026-05-01T10:03:31Z</time></trkpt><trkpt lat="44.64729408004856" lon="8.416258402324127"><ele>177.66666666666669</ele><time>2026-05-01T10:03:32Z</time></trkpt><trkpt lat="44.64724637381223" lon="8.416508996849407"><ele>177.33333333333334</ele><time>2026-05-01T10:03:33Z</time></trkpt><trkpt lat="44.647197219572675" lon="8.416759297198912"><ele>177.0</ele><time>2026-05-01T10:03:33.999Z</time></trkpt><trkpt lat="44.64714862365642" lon="8.417016511673264"><ele>175.33333333333334</ele><time>2026-05-01T10:03:34.999Z</time></trkpt><trkpt lat="44.647100846924495" lon="8.417268739507733"><ele>173.66666666666669</ele><time>2026-05-01T10:03:35.999Z</time></trkpt><trkpt lat="44.64705416982116" lon="8.417515401421783"><ele>172.0</ele><time>2026-05-01T10:03:36.999Z</time></trkpt><trkpt lat="44.64701045440959" lon="8.417753491732958"><ele>172.66666666666669</ele><time>2026-05-01T10:03:37.999Z</time></trkpt><trkpt lat="44.64695326930036" lon="8.417978171564563"><ele>173.33333333333334</ele><time>2026-05-01T10:03:38.999Z</time></trkpt><trkpt lat="44.64690890340385" lon="8.418206675839723"><ele>174.0</ele><time>2026-05-01T10:03:39.999Z</time></trkpt><trkpt lat="44.64687935746019" lon="8.418436610141628"><ele>172.66666666666666</ele><time>2026-05-01T10:03:40.999Z</time></trkpt><trkpt lat="44.64683362065522" lon="8.418656963935419"><ele>171.33333333333331</ele><time>2026-05-01T10:03:41.999Z</time></trkpt><trkpt lat="44.64678947598179" lon="8.418869854683443"><ele>170.0</ele><time>2026-05-01T10:03:42.999Z</time></trkpt><trkpt lat="44.64674581575406" lon="8.419077495105897"><ele>169.75</ele><time>2026-05-01T10:03:43.999Z</time></trkpt><trkpt lat="44.64669638833765" lon="8.419276471647601"><ele>169.5</ele><time>2026-05-01T10:03:44.999Z</time></trkpt><trkpt lat="44.646634207126304" lon="8.41947066895562"><ele>169.25</ele><time>2026-05-01T10:03:45.999Z</time></trkpt><trkpt lat="44.64655743993426" lon="8.41964821677322"><ele>169.0</ele><time>2026-05-01T10:03:46.999Z</time></trkpt><trkpt lat="44.646470030225196" lon="8.41981718093892"><ele>168.0</ele><time>2026-05-01T10:03:47.999Z</time></trkpt><trkpt lat="44.6463642012526" lon="8.419962107519"><ele>167.0</ele><time>2026-05-01T10:03:48.999Z</time></trkpt><trkpt lat="44.64627256192107" lon="8.420137447855943"><ele>166.0</ele><time>2026-05-01T10:03:49.999Z</time></trkpt><trkpt lat="44.64616806782704" lon="8.420295155458252"><ele>165.33333333333334</ele><time>2026-05-01T10:03:50.999Z</time></trkpt><trkpt lat="44.64606114047052" lon="8.420457817229542"><ele>164.66666666666666</ele><time>2026-05-01T10:03:51.999Z</time></trkpt><trkpt lat="44.6459552409337" lon="8.420609209297453"><ele>164.0</ele><time>2026-05-01T10:03:52.999Z</time></trkpt><trkpt lat="44.6458526145647" lon="8.42075994409733"><ele>164.0</ele><time>2026-05-01T10:03:53.999Z</time></trkpt><trkpt lat="44.64574898256386" lon="8.42090543831588"><ele>164.0</ele><time>2026-05-01T10:03:54.999Z</time></trkpt><trkpt lat="44.645640687928484" lon="8.42105623375159"><ele>164.0</ele><time>2026-05-01T10:03:55.999Z</time></trkpt><trkpt lat="44.645533284515295" lon="8.421213073102473"><ele>164.66666666666666</ele><time>2026-05-01T10:03:56.999Z</time></trkpt><trkpt lat="44.6454267123274" lon="8.421382586615266"><ele>165.33333333333334</ele><time>2026-05-01T10:03:57.999Z</time></trkpt><trkpt lat="44.645318092494705" lon="8.421555655864724"><ele>166.0</ele><time>2026-05-01T10:03:58.999Z</time></trkpt><trkpt lat="44.64524714499681" lon="8.421768246744973"><ele>166.0</ele><time>2026-05-01T10:03:59.999Z</time></trkpt><trkpt lat="44.64519151142028" lon="8.421991338974339"><ele>166.0</ele><time>2026-05-01T10:04:00.999Z</time></trkpt><trkpt lat="44.645163342853365" lon="8.422215701994975"><ele>166.0</ele><time>2026-05-01T10:04:01.999Z</time></trkpt><trkpt lat="44.64514744724527" lon="8.422449911793873"><ele>166.0</ele><time>2026-05-01T10:04:02.999Z</time></trkpt><trkpt lat="44.64512314115185" lon="8.422672402229722"><ele>166.0</ele><time>2026-05-01T10:04:03.999Z</time></trkpt><trkpt lat="44.64509859179781" lon="8.422887307396136"><ele>166.0</ele><time>2026-05-01T10:04:04.999Z</time></trkpt><trkpt lat="44.645054735442656" lon="8.423086474473779"><ele>167.5</ele><time>2026-05-01T10:04:05.999Z</time></trkpt><trkpt lat="44.6450194682361" lon="8.423266112390204"><ele>169.0</ele><time>2026-05-01T10:04:06.999Z</time></trkpt><trkpt lat="44.64498329309379" lon="8.423414598406469"><ele>170.5</ele><time>2026-05-01T10:04:07.999Z</time></trkpt><trkpt lat="44.644871423434864" lon="8.423464100989033"><ele>172.0</ele><time>2026-05-01T10:04:08.999Z</time></trkpt><trkpt lat="44.64476141576698" lon="8.423454819133507"><ele>172.0</ele><time>2026-05-01T10:04:09.999Z</time></trkpt><trkpt lat="44.64463771487724" lon="8.423417791577899"><ele>172.0</ele><time>2026-05-01T10:04:10.999Z</time></trkpt><trkpt lat="44.64449591616751" lon="8.423393402672671"><ele>172.0</ele><time>2026-05-01T10:04:11.999Z</time></trkpt><trkpt lat="44.644358595238614" lon="8.423393450837628"><ele>172.0</ele><time>2026-05-01T10:04:12.999Z</time></trkpt><trkpt lat="44.64423762591457" lon="8.423335430187258"><ele>171.0</ele><time>2026-05-01T10:04:13.999Z</time></trkpt><trkpt lat="44.64413682999158" lon="8.423249430661258"><ele>170.0</ele><time>2026-05-01T10:04:14.999Z</time></trkpt><trkpt lat="44.64406944656002" lon="8.42312485301646"><ele>169.0</ele><time>2026-05-01T10:04:15.999Z</time></trkpt><trkpt lat="44.64399292584389" lon="8.42301668201134"><ele>168.0</ele><time>2026-05-01T10:04:16.999Z</time></trkpt><trkpt lat="44.64392621728619" lon="8.422932392438522"><ele>167.0</ele><time>2026-05-01T10:04:17.999Z</time></trkpt><trkpt lat="44.64382823388325" lon="8.422887996222014"><ele>167.0</ele><time>2026-05-01T10:04:18.999Z</time></trkpt><trkpt lat="44.643706149214324" lon="8.422888947052588"><ele>167.0</ele><time>2026-05-01T10:04:19.999Z</time></trkpt><trkpt lat="44.643587882632865" lon="8.422923765962992"><ele>167.0</ele><time>2026-05-01T10:04:20.999Z</time></trkpt><trkpt lat="44.64347493963416" lon="8.42298404381023"><ele>167.0</ele><time>2026-05-01T10:04:21.999Z</time></trkpt><trkpt lat="44.64337639032147" lon="8.423036520923983"><ele>169.33333333333331</ele><time>2026-05-01T10:04:22.999Z</time></trkpt><trkpt lat="44.64328738353871" lon="8.423088529974338"><ele>171.66666666666666</ele><time>2026-05-01T10:04:23.999Z</time></trkpt><trkpt lat="44.643210369834435" lon="8.423144858289845"><ele>174.0</ele><time>2026-05-01T10:04:24.999Z</time></trkpt><trkpt lat="44.64314893621428" lon="8.42321430667576"><ele>176.33333333333334</ele><time>2026-05-01T10:04:25.999Z</time></trkpt><trkpt lat="44.64310444708245" lon="8.423305426985296"><ele>178.66666666666669</ele><time>2026-05-01T10:04:26.999Z</time></trkpt><trkpt lat="44.64308028654552" lon="8.42340969870727"><ele>181.0</ele><time>2026-05-01T10:04:27.999Z</time></trkpt><trkpt lat="44.6430629304932" lon="8.423494929289935"><ele>181.0</ele><time>2026-05-01T10:04:28.999Z</time></trkpt><trkpt lat="44.64303472412445" lon="8.423600080627306"><ele>181.0</ele><time>2026-05-01T10:04:30.999Z</time></trkpt><trkpt lat="44.643017684666326" lon="8.42369410372685"><ele>181.0</ele><time>2026-05-01T10:04:40Z</time></trkpt><trkpt lat="44.64315231546862" lon="8.42371554364193"><ele>181.0</ele><time>2026-05-01T10:04:41Z</time></trkpt><trkpt lat="44.64327410941375" lon="8.42369781298221"><ele>181.0</ele><time>2026-05-01T10:04:42Z</time></trkpt><trkpt lat="44.64339361069947" lon="8.423690700818822"><ele>181.0</ele><time>2026-05-01T10:04:43Z</time></trkpt><trkpt lat="44.64353760769988" lon="8.423698541229742"><ele>181.0</ele><time>2026-05-01T10:04:44Z</time></trkpt><trkpt lat="44.643686410065555" lon="8.423711302340559"><ele>181.0</ele><time>2026-05-01T10:04:45Z</time></trkpt><trkpt lat="44.64383563288218" lon="8.423719475119189"><ele>181.0</ele><time>2026-05-01T10:04:46Z</time></trkpt><trkpt lat="44.6439823310557" lon="8.423729031676315"><ele>180.0</ele><time>2026-05-01T10:04:47Z</time></trkpt><trkpt lat="44.644128761616656" lon="8.423737291054845"><ele>179.0</ele><time>2026-05-01T10:04:48Z</time></trkpt><trkpt lat="44.64427817262389" lon="8.423783096263413"><ele>178.0</ele><time>2026-05-01T10:04:49Z</time></trkpt><trkpt lat="44.64443164316639" lon="8.423793364557683"><ele>181.2</ele><time>2026-05-01T10:04:50Z</time></trkpt><trkpt lat="44.64457382662074" lon="8.423826291864529"><ele>184.4</ele><time>2026-05-01T10:04:51Z</time></trkpt><trkpt lat="44.6446948346818" lon="8.423859846175288"><ele>187.6</ele><time>2026-05-01T10:04:52Z</time></trkpt><trkpt lat="44.64478608176396" lon="8.423897703091251"><ele>190.79999999999998</ele><time>2026-05-01T10:04:53Z</time></trkpt><trkpt lat="44.644859723653546" lon="8.423920177946426"><ele>194.0</ele><time>2026-05-01T10:04:54Z</time></trkpt><trkpt lat="44.6449677129741" lon="8.423957623636602"><ele>194.00000000000003</ele><time>2026-05-01T10:04:56Z</time></trkpt><trkpt lat="44.6450322564496" lon="8.423983225122134"><ele>194.0</ele><time>2026-05-01T10:04:59Z</time></trkpt><trkpt lat="44.64508908640008" lon="8.424027238538704"><ele>194.0</ele><time>2026-05-01T10:06:02.999Z</time></trkpt><trkpt lat="44.64520278982344" lon="8.424079858818805"><ele>194.0</ele><time>2026-05-01T10:06:04.999Z</time></trkpt><trkpt lat="44.64527282318661" lon="8.424115739913962"><ele>194.00000000000003</ele><time>2026-05-01T10:06:05.999Z</time></trkpt><trkpt lat="44.6453464796919" lon="8.424153477298576"><ele>194.0</ele><time>2026-05-01T10:06:06.999Z</time></trkpt><trkpt lat="44.64543346191048" lon="8.424198953872603"><ele>192.00000000000003</ele><time>2026-05-01T10:06:07.999Z</time></trkpt><trkpt lat="44.6453635475087" lon="8.424162221870992"><ele>190.0</ele><time>2026-05-01T10:06:08.999Z</time></trkpt><trkpt lat="44.64543162314204" lon="8.424197910450191"><ele>188.0</ele><time>2026-05-01T10:06:09.999Z</time></trkpt><trkpt lat="44.645507484226854" lon="8.424240957555988"><ele>186.0</ele><time>2026-05-01T10:06:10.999Z</time></trkpt><trkpt lat="44.64559397759956" lon="8.424290037919334"><ele>184.0</ele><time>2026-05-01T10:06:11.999Z</time></trkpt><trkpt lat="44.64568293717113" lon="8.424340517718871"><ele>182.0</ele><time>2026-05-01T10:06:12.999Z</time></trkpt><trkpt lat="44.64577348753141" lon="8.424391900200737"><ele>182.0</ele><time>2026-05-01T10:06:13.999Z</time></trkpt><trkpt lat="44.64586585781427" lon="8.424441621536172"><ele>182.0</ele><time>2026-05-01T10:06:14.999Z</time></trkpt><trkpt lat="44.64596343941346" lon="8.424467066935188"><ele>182.0</ele><time>2026-05-01T10:06:15.999Z</time></trkpt><trkpt lat="44.64605827773533" lon="8.424527059391513"><ele>182.0</ele><time>2026-05-01T10:06:16.999Z</time></trkpt><trkpt lat="44.64617489701655" lon="8.424578761123756"><ele>182.0</ele><time>2026-05-01T10:06:17.999Z</time></trkpt><trkpt lat="44.64629597050074" lon="8.424616987856703"><ele>184.5</ele><time>2026-05-01T10:06:18.999Z</time></trkpt><trkpt lat="44.646424342615916" lon="8.42464779605267"><ele>187.0</ele><time>2026-05-01T10:06:19.999Z</time></trkpt><trkpt lat="44.64655888786879" lon="8.42467889184035"><ele>189.5</ele><time>2026-05-01T10:06:20.999Z</time></trkpt><trkpt lat="44.64668521257537" lon="8.424718297926866"><ele>192.0</ele><time>2026-05-01T10:06:21.999Z</time></trkpt><trkpt lat="44.64681319653237" lon="8.424741765272834"><ele>192.0</ele><time>2026-05-01T10:06:22.999Z</time></trkpt><trkpt lat="44.64693893024429" lon="8.424754308372496"><ele>192.0</ele><time>2026-05-01T10:06:23.999Z</time></trkpt><trkpt lat="44.64706933398934" lon="8.42477273780118"><ele>192.0</ele><time>2026-05-01T10:06:24.999Z</time></trkpt><trkpt lat="44.647198066352885" lon="8.424801850093742"><ele>192.0</ele><time>2026-05-01T10:06:25.999Z</time></trkpt><trkpt lat="44.64732877601045" lon="8.424828051453163"><ele>192.0</ele><time>2026-05-01T10:06:26.999Z</time></trkpt><trkpt lat="44.64745930957981" lon="8.424843711745083"><ele>192.0</ele><time>2026-05-01T10:06:27.999Z</time></trkpt><trkpt lat="44.64759623175895" lon="8.424870990427962"><ele>192.0</ele><time>2026-05-01T10:06:28.999Z</time></trkpt><trkpt lat="44.647729479935194" lon="8.424890177364137"><ele>192.0</ele><time>2026-05-01T10:06:29.999Z</time></trkpt><trkpt lat="44.64786755162811" lon="8.424908560155611"><ele>192.0</ele><time>2026-05-01T10:06:30.999Z</time></trkpt><trkpt lat="44.64800858209062" lon="8.424919396417799"><ele>192.0</ele><time>2026-05-01T10:06:31.999Z</time></trkpt><trkpt lat="44.648144542023225" lon="8.424930753537783"><ele>192.0</ele><time>2026-05-01T10:06:32.999Z</time></trkpt><trkpt lat="44.64828598550799" lon="8.424926996067116"><ele>192.0</ele><time>2026-05-01T10:06:33.999Z</time></trkpt><trkpt lat="44.64842963502175" lon="8.424923138128536"><ele>192.0</ele><time>2026-05-01T10:06:34.999Z</time></trkpt><trkpt lat="44.64857496811874" lon="8.424913617657426"><ele>192.0</ele><time>2026-05-01T10:06:35.999Z</time></trkpt><trkpt lat="44.648709343121865" lon="8.424900744548477"><ele>192.0</ele><time>2026-05-01T10:06:36.999Z</time></trkpt><trkpt lat="44.64883599218875" lon="8.424885760910811"><ele>192.0</ele><time>2026-05-01T10:06:37.999Z</time></trkpt><trkpt lat="44.648962709849464" lon="8.424872602703088"><ele>191.5</ele><time>2026-05-01T10:06:38.999Z</time></trkpt><trkpt lat="44.649092483639414" lon="8.424859894692203"><ele>191.0</ele><time>2026-05-01T10:06:40Z</time></trkpt><trkpt lat="44.64922347847938" lon="8.424857931699636"><ele>190.5</ele><time>2026-05-01T10:06:41Z</time></trkpt><trkpt lat="44.64935988137816" lon="8.424876735839003"><ele>190.0</ele><time>2026-05-01T10:06:42Z</time></trkpt><trkpt lat="44.64949517643982" lon="8.424918051411726"><ele>188.25</ele><time>2026-05-01T10:06:43Z</time></trkpt><trkpt lat="44.64963013289907" lon="8.424988339356176"><ele>186.5</ele><time>2026-05-01T10:06:44Z</time></trkpt><trkpt lat="44.649761546573956" lon="8.425085822618815"><ele>184.75</ele><time>2026-05-01T10:06:45Z</time></trkpt><trkpt lat="44.649884229237315" lon="8.425214175005959"><ele>183.0</ele><time>2026-05-01T10:06:46Z</time></trkpt><trkpt lat="44.64999288498479" lon="8.425369222032936"><ele>182.33333333333334</ele><time>2026-05-01T10:06:47Z</time></trkpt><trkpt lat="44.65009271195891" lon="8.425527485059371"><ele>181.66666666666669</ele><time>2026-05-01T10:06:48Z</time></trkpt><trkpt lat="44.65020153109767" lon="8.42568238374692"><ele>181.0</ele><time>2026-05-01T10:06:49Z</time></trkpt><trkpt lat="44.65031576558464" lon="8.425882824555929"><ele>181.0</ele><time>2026-05-01T10:06:50Z</time></trkpt><trkpt lat="44.65044683357585" lon="8.426079215337966"><ele>181.0</ele><time>2026-05-01T10:06:51Z</time></trkpt><trkpt lat="44.65057860080017" lon="8.426251283198619"><ele>181.0</ele><time>2026-05-01T10:06:52Z</time></trkpt><trkpt lat="44.65070710912289" lon="8.426432728191235"><ele>179.66666666666669</ele><time>2026-05-01T10:06:53Z</time></trkpt><trkpt lat="44.650851708174166" lon="8.426601139986678"><ele>178.33333333333334</ele><time>2026-05-01T10:06:54Z</time></trkpt><trkpt lat="44.651007942466116" lon="8.426772415089673"><ele>177.0</ele><time>2026-05-01T10:06:55Z</time></trkpt><trkpt lat="44.65117162321489" lon="8.426936515435088"><ele>177.0</ele><time>2026-05-01T10:06:56Z</time></trkpt><trkpt lat="44.65134578539999" lon="8.427102290318238"><ele>177.0</ele><time>2026-05-01T10:06:57Z</time></trkpt><trkpt lat="44.65152624690323" lon="8.427256860032328"><ele>177.0</ele><time>2026-05-01T10:06:58Z</time></trkpt><trkpt lat="44.651712535060064" lon="8.427396225249007"><ele>178.33333333333334</ele><time>2026-05-01T10:06:59Z</time></trkpt><trkpt lat="44.651893448747145" lon="8.427524851585273"><ele>179.66666666666669</ele><time>2026-05-01T10:07:00Z</time></trkpt><trkpt lat="44.65207188111215" lon="8.42764854673556"><ele>181.0</ele><time>2026-05-01T10:07:01Z</time></trkpt><trkpt lat="44.65224385209157" lon="8.427771122738777"><ele>181.0</ele><time>2026-05-01T10:07:02Z</time></trkpt><trkpt lat="44.652410710749834" lon="8.427900252200004"><ele>181.0</ele><time>2026-05-01T10:07:03Z</time></trkpt><trkpt lat="44.65257280489092" lon="8.428041951329462"><ele>181.0</ele><time>2026-05-01T10:07:04Z</time></trkpt><trkpt lat="44.6527205442068" lon="8.428197607805796"><ele>180.66666666666669</ele><time>2026-05-01T10:07:05Z</time></trkpt><trkpt lat="44.652855816922916" lon="8.428380603643461"><ele>180.33333333333334</ele><time>2026-05-01T10:07:06Z</time></trkpt><trkpt lat="44.652980273939924" lon="8.428579711470693"><ele>180.0</ele><time>2026-05-01T10:07:07Z</time></trkpt><trkpt lat="44.65308819404608" lon="8.428786722058764"><ele>181.0</ele><time>2026-05-01T10:07:08Z</time></trkpt><trkpt lat="44.653185423006505" lon="8.428995169925107"><ele>182.0</ele><time>2026-05-01T10:07:09Z</time></trkpt><trkpt lat="44.653274943124785" lon="8.429209178390623"><ele>183.0</ele><time>2026-05-01T10:07:10Z</time></trkpt><trkpt lat="44.65335518335002" lon="8.429438611338856"><ele>182.66666666666666</ele><time>2026-05-01T10:07:11Z</time></trkpt><trkpt lat="44.6534319329653" lon="8.429681461080373"><ele>182.33333333333331</ele><time>2026-05-01T10:07:12Z</time></trkpt><trkpt lat="44.65351087343113" lon="8.429920739773221"><ele>182.0</ele><time>2026-05-01T10:07:13Z</time></trkpt><trkpt lat="44.653592707407064" lon="8.43016082502893"><ele>181.66666666666666</ele><time>2026-05-01T10:07:14Z</time></trkpt><trkpt lat="44.65367505633117" lon="8.43040536359524"><ele>181.33333333333334</ele><time>2026-05-01T10:07:15Z</time></trkpt><trkpt lat="44.653758271414404" lon="8.430658882591558"><ele>181.0</ele><time>2026-05-01T10:07:16Z</time></trkpt><trkpt lat="44.65384472647783" lon="8.430909353841928"><ele>181.0</ele><time>2026-05-01T10:07:17Z</time></trkpt><trkpt lat="44.653935844419316" lon="8.431162823994221"><ele>181.0</ele><time>2026-05-01T10:07:18Z</time></trkpt><trkpt lat="44.65403073835719" lon="8.431416029548314"><ele>181.0</ele><time>2026-05-01T10:07:19Z</time></trkpt><trkpt lat="44.65413047985402" lon="8.431668427307276"><ele>180.66666666666669</ele><time>2026-05-01T10:07:20Z</time></trkpt><trkpt lat="44.65423962430464" lon="8.431915585328747"><ele>180.33333333333334</ele><time>2026-05-01T10:07:21Z</time></trkpt><trkpt lat="44.654353034772576" lon="8.432157974424536"><ele>180.0</ele><time>2026-05-01T10:07:22Z</time></trkpt><trkpt lat="44.65446924224701" lon="8.432400013808579"><ele>180.0</ele><time>2026-05-01T10:07:23Z</time></trkpt><trkpt lat="44.654591597657074" lon="8.432651256597321"><ele>180.0</ele><time>2026-05-01T10:07:24Z</time></trkpt><trkpt lat="44.65470614173811" lon="8.43290122525118"><ele>180.0</ele><time>2026-05-01T10:07:25Z</time></trkpt><trkpt lat="44.654811402393584" lon="8.433155885258424"><ele>181.33333333333334</ele><time>2026-05-01T10:07:26Z</time></trkpt><trkpt lat="44.654913864033155" lon="8.433400099356874"><ele>182.66666666666669</ele><time>2026-05-01T10:07:27Z</time></trkpt><trkpt lat="44.65501861236525" lon="8.433634155623274"><ele>184.0</ele><time>2026-05-01T10:07:28Z</time></trkpt><trkpt lat="44.655122376981524" lon="8.433859685854095"><ele>184.33333333333334</ele><time>2026-05-01T10:07:29Z</time></trkpt><trkpt lat="44.65522201108646" lon="8.434076255995924"><ele>184.66666666666666</ele><time>2026-05-01T10:07:30Z</time></trkpt><trkpt lat="44.655322450275385" lon="8.434286733383342"><ele>185.0</ele><time>2026-05-01T10:07:31Z</time></trkpt><trkpt lat="44.65541752133531" lon="8.43448971668032"><ele>186.33333333333331</ele><time>2026-05-01T10:07:32Z</time></trkpt><trkpt lat="44.65551343058683" lon="8.434679200003224"><ele>187.66666666666666</ele><time>2026-05-01T10:07:33Z</time></trkpt><trkpt lat="44.65563088701278" lon="8.43486503037662"><ele>189.0</ele><time>2026-05-01T10:07:34Z</time></trkpt><trkpt lat="44.6557808566593" lon="8.435033175764568"><ele>189.0</ele><time>2026-05-01T10:07:35Z</time></trkpt><trkpt lat="44.655934530558596" lon="8.435187603900834"><ele>189.0</ele><time>2026-05-01T10:07:36Z</time></trkpt><trkpt lat="44.656077326877075" lon="8.43535074929964"><ele>189.0</ele><time>2026-05-01T10:07:37Z</time></trkpt><trkpt lat="44.65621243951936" lon="8.43550938527185"><ele>189.0</ele><time>2026-05-01T10:07:38Z</time></trkpt><trkpt lat="44.656347286203335" lon="8.435661644872473"><ele>189.0</ele><time>2026-05-01T10:07:39Z</time></trkpt><trkpt lat="44.656474500660735" lon="8.435809332821018"><ele>189.0</ele><time>2026-05-01T10:07:40Z</time></trkpt><trkpt lat="44.656588935378096" lon="8.435957831714516"><ele>189.0</ele><time>2026-05-01T10:07:41Z</time></trkpt><trkpt lat="44.65668707448117" lon="8.436116126274818"><ele>189.0</ele><time>2026-05-01T10:07:42Z</time></trkpt><trkpt lat="44.65676416073473" lon="8.436300696357483"><ele>189.0</ele><time>2026-05-01T10:07:43Z</time></trkpt><trkpt lat="44.65682605486456" lon="8.436521673750267"><ele>189.0</ele><time>2026-05-01T10:07:44Z</time></trkpt><trkpt lat="44.656876633941444" lon="8.436766771827449"><ele>189.0</ele><time>2026-05-01T10:07:44.999Z</time></trkpt><trkpt lat="44.656919521826914" lon="8.437012236050784"><ele>189.0</ele><time>2026-05-01T10:07:45.999Z</time></trkpt><trkpt lat="44.65694877925236" lon="8.437245436150725"><ele>187.33333333333334</ele><time>2026-05-01T10:07:46.999Z</time></trkpt><trkpt lat="44.65696765691973" lon="8.437474050040143"><ele>185.66666666666669</ele><time>2026-05-01T10:07:47.999Z</time></trkpt><trkpt lat="44.6569693101196" lon="8.43769633385576"><ele>184.0</ele><time>2026-05-01T10:07:48.999Z</time></trkpt><trkpt lat="44.65696139492723" lon="8.4379142922762"><ele>185.66666666666669</ele><time>2026-05-01T10:07:49.999Z</time></trkpt><trkpt lat="44.656949214958054" lon="8.438126815715398"><ele>187.33333333333334</ele><time>2026-05-01T10:07:50.999Z</time></trkpt><trkpt lat="44.6569427659853" lon="8.438336265818881"><ele>189.0</ele><time>2026-05-01T10:07:51.999Z</time></trkpt><trkpt lat="44.65695185834455" lon="8.438546463210072"><ele>189.33333333333334</ele><time>2026-05-01T10:07:52.999Z</time></trkpt><trkpt lat="44.656986855408746" lon="8.438753446924473"><ele>189.66666666666669</ele><time>2026-05-01T10:07:53.999Z</time></trkpt><trkpt lat="44.65706759896519" lon="8.438934195307079"><ele>190.0</ele><time>2026-05-01T10:07:54.999Z</time></trkpt><trkpt lat="44.65720230030665" lon="8.439059362473017"><ele>190.0</ele><time>2026-05-01T10:07:55.999Z</time></trkpt><trkpt lat="44.65736905363513" lon="8.439124879316648"><ele>190.0</ele><time>2026-05-01T10:07:56.999Z</time></trkpt><trkpt lat="44.657559231640974" lon="8.439114487725773"><ele>190.0</ele><time>2026-05-01T10:07:57.999Z</time></trkpt><trkpt lat="44.65773252353933" lon="8.439113182141362"><ele>187.33333333333334</ele><time>2026-05-01T10:07:58.999Z</time></trkpt><trkpt lat="44.65788100106002" lon="8.439193659047401"><ele>184.66666666666666</ele><time>2026-05-01T10:07:59.999Z</time></trkpt><trkpt lat="44.65802595095474" lon="8.439277159995669"><ele>182.0</ele><time>2026-05-01T10:08:00.999Z</time></trkpt><trkpt lat="44.65815914383315" lon="8.439412224787121"><ele>182.0</ele><time>2026-05-01T10:08:01.999Z</time></trkpt><trkpt lat="44.658276093382526" lon="8.439598072752363"><ele>182.0</ele><time>2026-05-01T10:08:02.999Z</time></trkpt><trkpt lat="44.65841262662818" lon="8.439785855764667"><ele>182.0</ele><time>2026-05-01T10:08:03.999Z</time></trkpt><trkpt lat="44.658553010543145" lon="8.440006214809914"><ele>183.0</ele><time>2026-05-01T10:08:04.999Z</time></trkpt><trkpt lat="44.65869072907994" lon="8.44021741839797"><ele>184.0</ele><time>2026-05-01T10:08:05.999Z</time></trkpt><trkpt lat="44.65881778960352" lon="8.440429311351856"><ele>185.0</ele><time>2026-05-01T10:08:06.999Z</time></trkpt><trkpt lat="44.65893921047556" lon="8.440643988642027"><ele>185.0</ele><time>2026-05-01T10:08:07.999Z</time></trkpt><trkpt lat="44.65905776002015" lon="8.440850587552248"><ele>185.0</ele><time>2026-05-01T10:08:08.999Z</time></trkpt><trkpt lat="44.65918132969039" lon="8.441054755398754"><ele>185.0</ele><time>2026-05-01T10:08:09.999Z</time></trkpt><trkpt lat="44.65930491410107" lon="8.441263833402818"><ele>187.33333333333331</ele><time>2026-05-01T10:08:10.999Z</time></trkpt><trkpt lat="44.65942142657567" lon="8.441477594590364"><ele>189.66666666666666</ele><time>2026-05-01T10:08:11.999Z</time></trkpt><trkpt lat="44.6595338025971" lon="8.44169908151642"><ele>192.0</ele><time>2026-05-01T10:08:12.999Z</time></trkpt><trkpt lat="44.659636004186076" lon="8.441931455941813"><ele>189.33333333333334</ele><time>2026-05-01T10:08:13.999Z</time></trkpt><trkpt lat="44.65973308173696" lon="8.442164872876868"><ele>186.66666666666669</ele><time>2026-05-01T10:08:14.999Z</time></trkpt><trkpt lat="44.65984778763949" lon="8.44238541616772"><ele>184.0</ele><time>2026-05-01T10:08:15.999Z</time></trkpt><trkpt lat="44.65997867294861" lon="8.442583281435184"><ele>184.0</ele><time>2026-05-01T10:08:16.999Z</time></trkpt><trkpt lat="44.66011929242826" lon="8.442767389726177"><ele>184.0</ele><time>2026-05-01T10:08:17.999Z</time></trkpt><trkpt lat="44.66025789601786" lon="8.442942633785636"><ele>184.0</ele><time>2026-05-01T10:08:18.999Z</time></trkpt><trkpt lat="44.660389885501424" lon="8.443124261614576"><ele>182.66666666666669</ele><time>2026-05-01T10:08:19.999Z</time></trkpt><trkpt lat="44.660527459091405" lon="8.443292084787325"><ele>181.33333333333334</ele><time>2026-05-01T10:08:20.999Z</time></trkpt><trkpt lat="44.660662376714804" lon="8.44342556029855"><ele>180.0</ele><time>2026-05-01T10:08:21.999Z</time></trkpt><trkpt lat="44.66079938924949" lon="8.443547233664981"><ele>180.0</ele><time>2026-05-01T10:08:22.999Z</time></trkpt><trkpt lat="44.66092734001882" lon="8.443679384602111"><ele>180.0</ele><time>2026-05-01T10:08:23.999Z</time></trkpt><trkpt lat="44.66104893220498" lon="8.44383285214933"><ele>180.0</ele><time>2026-05-01T10:08:24.999Z</time></trkpt><trkpt lat="44.661168851090714" lon="8.443996653550462"><ele>179.0</ele><time>2026-05-01T10:08:25.999Z</time></trkpt><trkpt lat="44.66128594647088" lon="8.444164854657972"><ele>178.0</ele><time>2026-05-01T10:08:26.999Z</time></trkpt><trkpt lat="44.66139588801869" lon="8.444339302930391"><ele>177.0</ele><time>2026-05-01T10:08:27.999Z</time></trkpt><trkpt lat="44.66150041548553" lon="8.444526686632743"><ele>178.33333333333334</ele><time>2026-05-01T10:08:28.999Z</time></trkpt><trkpt lat="44.661595547540905" lon="8.444735724083602"><ele>179.66666666666669</ele><time>2026-05-01T10:08:29.999Z</time></trkpt><trkpt lat="44.66165970376221" lon="8.444979843521873"><ele>181.0</ele><time>2026-05-01T10:08:30.999Z</time></trkpt><trkpt lat="44.6617255196694" lon="8.445219427031876"><ele>181.0</ele><time>2026-05-01T10:08:31.999Z</time></trkpt><trkpt lat="44.66182104418684" lon="8.445427637565272"><ele>181.0</ele><time>2026-05-01T10:08:32.999Z</time></trkpt><trkpt lat="44.66194040874772" lon="8.445600835517883"><ele>181.0</ele><time>2026-05-01T10:08:33.999Z</time></trkpt><trkpt lat="44.66206900431889" lon="8.445744161437327"><ele>179.0</ele><time>2026-05-01T10:08:34.999Z</time></trkpt><trkpt lat="44.66219840425465" lon="8.445884779903906"><ele>177.0</ele><time>2026-05-01T10:08:35.999Z</time></trkpt><trkpt lat="44.66230515588525" lon="8.446038710848416"><ele>175.0</ele><time>2026-05-01T10:08:36.999Z</time></trkpt><trkpt lat="44.662367367615765" lon="8.446244431334113"><ele>177.0</ele><time>2026-05-01T10:08:37.999Z</time></trkpt><trkpt lat="44.66241272919978" lon="8.446462605796816"><ele>179.0</ele><time>2026-05-01T10:08:38.999Z</time></trkpt><trkpt lat="44.66242624396274" lon="8.446702093934105"><ele>181.0</ele><time>2026-05-01T10:08:39.999Z</time></trkpt><trkpt lat="44.66243025413811" lon="8.446937375647673"><ele>181.66666666666669</ele><time>2026-05-01T10:08:40.999Z</time></trkpt><trkpt lat="44.66246109345146" lon="8.447165555594141"><ele>182.33333333333334</ele><time>2026-05-01T10:08:41.999Z</time></trkpt><trkpt lat="44.66256575963872" lon="8.44736482478566"><ele>183.0</ele><time>2026-05-01T10:08:42.999Z</time></trkpt><trkpt lat="44.66268340127984" lon="8.447575280511831"><ele>183.0</ele><time>2026-05-01T10:08:43.999Z</time></trkpt><trkpt lat="44.66277609115868" lon="8.44779281908223"><ele>183.0</ele><time>2026-05-01T10:08:44.999Z</time></trkpt><trkpt lat="44.66283781952775" lon="8.448020320805702"><ele>183.0</ele><time>2026-05-01T10:08:46Z</time></trkpt><trkpt lat="44.66288673784042" lon="8.448257495623489"><ele>174.0</ele><time>2026-05-01T10:08:47Z</time></trkpt><trkpt lat="44.6629225366309" lon="8.448485801740235"><ele>165.0</ele><time>2026-05-01T10:08:48Z</time></trkpt><trkpt lat="44.66293333573631" lon="8.448717226814713"><ele>156.0</ele><time>2026-05-01T10:08:49Z</time></trkpt><trkpt lat="44.6629033982785" lon="8.448957599558389"><ele>156.0</ele><time>2026-05-01T10:08:50Z</time></trkpt><trkpt lat="44.66284583007252" lon="8.449171677748438"><ele>156.0</ele><time>2026-05-01T10:08:51Z</time></trkpt><trkpt lat="44.662820762234084" lon="8.449369972921817"><ele>156.0</ele><time>2026-05-01T10:08:52Z</time></trkpt><trkpt lat="44.66283299033781" lon="8.44956841488794"><ele>156.0</ele><time>2026-05-01T10:08:53Z</time></trkpt><trkpt lat="44.662899188294105" lon="8.449757331923507"><ele>157.0</ele><time>2026-05-01T10:08:54Z</time></trkpt><trkpt lat="44.66301734718888" lon="8.449942016375925"><ele>158.0</ele><time>2026-05-01T10:08:55Z</time></trkpt><trkpt lat="44.66313819407254" lon="8.45015013522501"><ele>159.0</ele><time>2026-05-01T10:08:56Z</time></trkpt><trkpt lat="44.6632616305619" lon="8.450369621787654"><ele>163.66666666666666</ele><time>2026-05-01T10:08:57Z</time></trkpt><trkpt lat="44.66338519954471" lon="8.450597609449185"><ele>168.33333333333331</ele><time>2026-05-01T10:08:58Z</time></trkpt><trkpt lat="44.663517135541866" lon="8.450832634767792"><ele>173.0</ele><time>2026-05-01T10:08:59Z</time></trkpt><trkpt lat="44.66358048908256" lon="8.450874220452256"><ele>166.33333333333331</ele><time>2026-05-01T10:09:00Z</time></trkpt><trkpt lat="44.663698420503" lon="8.451067917814434"><ele>159.66666666666666</ele><time>2026-05-01T10:09:01Z</time></trkpt><trkpt lat="44.66379597119845" lon="8.451273561297475"><ele>153.0</ele><time>2026-05-01T10:09:02Z</time></trkpt><trkpt lat="44.66385523705582" lon="8.451504736691184"><ele>152.66666666666666</ele><time>2026-05-01T10:09:03Z</time></trkpt><trkpt lat="44.66389050143431" lon="8.45174738907181"><ele>152.33333333333331</ele><time>2026-05-01T10:09:04Z</time></trkpt><trkpt lat="44.663902152214185" lon="8.452022528596357"><ele>152.0</ele><time>2026-05-01T10:09:05Z</time></trkpt><trkpt lat="44.66392612774244" lon="8.452287620481599"><ele>152.66666666666666</ele><time>2026-05-01T10:09:06Z</time></trkpt><trkpt lat="44.66397651469818" lon="8.45254157789854"><ele>153.33333333333334</ele><time>2026-05-01T10:09:07Z</time></trkpt><trkpt lat="44.66399945624115" lon="8.45280029897579"><ele>154.0</ele><time>2026-05-01T10:09:08Z</time></trkpt><trkpt lat="44.66405016136397" lon="8.453045539083957"><ele>155.66666666666669</ele><time>2026-05-01T10:09:09Z</time></trkpt><trkpt lat="44.66407545740507" lon="8.453282577004597"><ele>157.33333333333334</ele><time>2026-05-01T10:09:10Z</time></trkpt><trkpt lat="44.664101350438166" lon="8.453502911090732"><ele>159.0</ele><time>2026-05-01T10:09:11Z</time></trkpt><trkpt lat="44.664113595434685" lon="8.453713463676257"><ele>160.25</ele><time>2026-05-01T10:09:12Z</time></trkpt><trkpt lat="44.66409053771794" lon="8.453916920409725"><ele>161.5</ele><time>2026-05-01T10:09:13Z</time></trkpt><trkpt lat="44.664067745749655" lon="8.454113747071652"><ele>162.75</ele><time>2026-05-01T10:09:14Z</time></trkpt><trkpt lat="44.66405999835978" lon="8.454298720001496"><ele>164.0</ele><time>2026-05-01T10:09:15Z</time></trkpt><trkpt lat="44.664070554780544" lon="8.454474880791144"><ele>164.0</ele><time>2026-05-01T10:09:16Z</time></trkpt><trkpt lat="44.66409681990189" lon="8.454639350854972"><ele>164.0</ele><time>2026-05-01T10:09:17Z</time></trkpt><trkpt lat="44.664154032365225" lon="8.454789625187903"><ele>164.0</ele><time>2026-05-01T10:09:18Z</time></trkpt><trkpt lat="44.66419805330292" lon="8.454948669440011"><ele>164.0</ele><time>2026-05-01T10:09:19Z</time></trkpt><trkpt lat="44.66418219466281" lon="8.455133474328372"><ele>164.0</ele><time>2026-05-01T10:09:20Z</time></trkpt><trkpt lat="44.6641530486033" lon="8.455339735438068"><ele>164.0</ele><time>2026-05-01T10:09:21Z</time></trkpt><trkpt lat="44.66411756934988" lon="8.455559618985633"><ele>164.0</ele><time>2026-05-01T10:09:22Z</time></trkpt><trkpt lat="44.664086154394894" lon="8.45578068619625"><ele>164.33333333333331</ele><time>2026-05-01T10:09:23Z</time></trkpt><trkpt lat="44.66407693359798" lon="8.45600615122253"><ele>164.66666666666666</ele><time>2026-05-01T10:09:24Z</time></trkpt><trkpt lat="44.66406970494011" lon="8.456232375214034"><ele>165.0</ele><time>2026-05-01T10:09:25Z</time></trkpt><trkpt lat="44.664070318020194" lon="8.456463796519216"><ele>165.66666666666666</ele><time>2026-05-01T10:09:26Z</time></trkpt><trkpt lat="44.66408502147694" lon="8.45670055336042"><ele>166.33333333333331</ele><time>2026-05-01T10:09:27Z</time></trkpt><trkpt lat="44.66412579434317" lon="8.456938616036068"><ele>167.0</ele><time>2026-05-01T10:09:28Z</time></trkpt><trkpt lat="44.66417687084927" lon="8.457176143609871"><ele>165.66666666666666</ele><time>2026-05-01T10:09:29Z</time></trkpt><trkpt lat="44.66423356464685" lon="8.457419010878285"><ele>164.33333333333334</ele><time>2026-05-01T10:09:30Z</time></trkpt><trkpt lat="44.664289237095836" lon="8.45765916677845"><ele>163.0</ele><time>2026-05-01T10:09:31Z</time></trkpt><trkpt lat="44.66433672140258" lon="8.45790201317966"><ele>164.33333333333334</ele><time>2026-05-01T10:09:32Z</time></trkpt><trkpt lat="44.66437530645774" lon="8.458137316895082"><ele>165.66666666666666</ele><time>2026-05-01T10:09:33Z</time></trkpt><trkpt lat="44.66437595252711" lon="8.458368587215496"><ele>167.0</ele><time>2026-05-01T10:09:34Z</time></trkpt><trkpt lat="44.66436542382921" lon="8.45859800683601"><ele>168.0</ele><time>2026-05-01T10:09:35Z</time></trkpt><trkpt lat="44.664338018357554" lon="8.458820431924178"><ele>169.0</ele><time>2026-05-01T10:09:36Z</time></trkpt><trkpt lat="44.66429998880182" lon="8.459039489781198"><ele>170.0</ele><time>2026-05-01T10:09:37Z</time></trkpt><trkpt lat="44.664252187031984" lon="8.459265540944678"><ele>170.0</ele><time>2026-05-01T10:09:38Z</time></trkpt><trkpt lat="44.664197490851166" lon="8.45949237823798"><ele>170.0</ele><time>2026-05-01T10:09:39Z</time></trkpt><trkpt lat="44.66414141470301" lon="8.459718324578537"><ele>170.0</ele><time>2026-05-01T10:09:40Z</time></trkpt><trkpt lat="44.66407929282838" lon="8.459940761994583"><ele>168.33333333333331</ele><time>2026-05-01T10:09:40.999Z</time></trkpt><trkpt lat="44.664013106346246" lon="8.46016078484072"><ele>166.66666666666666</ele><time>2026-05-01T10:09:41.999Z</time></trkpt><trkpt lat="44.66397507475643" lon="8.46039432178284"><ele>165.0</ele><time>2026-05-01T10:09:42.999Z</time></trkpt><trkpt lat="44.66392614113766" lon="8.46061796648436"><ele>164.0</ele><time>2026-05-01T10:09:43.999Z</time></trkpt><trkpt lat="44.663907890420504" lon="8.460855294028182"><ele>163.0</ele><time>2026-05-01T10:09:44.999Z</time></trkpt><trkpt lat="44.66391471989513" lon="8.461093905128534"><ele>162.0</ele><time>2026-05-01T10:09:45.999Z</time></trkpt><trkpt lat="44.66394527680506" lon="8.461331004805384"><ele>160.33333333333334</ele><time>2026-05-01T10:09:46.999Z</time></trkpt><trkpt lat="44.663954845870116" lon="8.461561132605446"><ele>158.66666666666669</ele><time>2026-05-01T10:09:47.999Z</time></trkpt><trkpt lat="44.663928439532924" lon="8.461794507116053"><ele>157.0</ele><time>2026-05-01T10:09:48.999Z</time></trkpt><trkpt lat="44.66391759325994" lon="8.462035135806603"><ele>157.66666666666669</ele><time>2026-05-01T10:09:49.999Z</time></trkpt><trkpt lat="44.66388067354471" lon="8.462280275355228"><ele>158.33333333333334</ele><time>2026-05-01T10:09:50.999Z</time></trkpt><trkpt lat="44.663848004655534" lon="8.462517476446148"><ele>159.0</ele><time>2026-05-01T10:09:51.999Z</time></trkpt><trkpt lat="44.663814580918036" lon="8.462761670600981"><ele>157.66666666666666</ele><time>2026-05-01T10:09:52.999Z</time></trkpt><trkpt lat="44.66378403776159" lon="8.463002268510927"><ele>156.33333333333331</ele><time>2026-05-01T10:09:53.999Z</time></trkpt><trkpt lat="44.66372188782685" lon="8.463230676211289"><ele>155.0</ele><time>2026-05-01T10:09:54.999Z</time></trkpt><trkpt lat="44.663677932293176" lon="8.463476314039365"><ele>158.66666666666666</ele><time>2026-05-01T10:09:55.999Z</time></trkpt><trkpt lat="44.663604436166246" lon="8.463707497119058"><ele>162.33333333333334</ele><time>2026-05-01T10:09:56.999Z</time></trkpt><trkpt lat="44.66353265791582" lon="8.463932634744495"><ele>166.0</ele><time>2026-05-01T10:09:57.999Z</time></trkpt><trkpt lat="44.663467810248385" lon="8.46415253053229"><ele>166.0</ele><time>2026-05-01T10:09:58.999Z</time></trkpt><trkpt lat="44.663402019477495" lon="8.464382684328013"><ele>166.0</ele><time>2026-05-01T10:09:59.999Z</time></trkpt><trkpt lat="44.66335457811437" lon="8.464637434732033"><ele>166.0</ele><time>2026-05-01T10:10:00.999Z</time></trkpt><trkpt lat="44.66333019572915" lon="8.464916978828413"><ele>165.33333333333334</ele><time>2026-05-01T10:10:01.999Z</time></trkpt><trkpt lat="44.66332512532261" lon="8.465196647980823"><ele>164.66666666666666</ele><time>2026-05-01T10:10:02.999Z</time></trkpt><trkpt lat="44.66332256671416" lon="8.465477294586261"><ele>164.0</ele><time>2026-05-01T10:10:03.999Z</time></trkpt><trkpt lat="44.663315779002936" lon="8.465751045725924"><ele>163.0</ele><time>2026-05-01T10:10:04.999Z</time></trkpt><trkpt lat="44.66330717868061" lon="8.466021230549055"><ele>162.0</ele><time>2026-05-01T10:10:05.999Z</time></trkpt><trkpt lat="44.66329949677283" lon="8.466292600983138"><ele>161.0</ele><time>2026-05-01T10:10:06.999Z</time></trkpt><trkpt lat="44.66329080990058" lon="8.466557177592119"><ele>159.66666666666666</ele><time>2026-05-01T10:10:07.999Z</time></trkpt><trkpt lat="44.66328141121725" lon="8.466810508500954"><ele>158.33333333333334</ele><time>2026-05-01T10:10:08.999Z</time></trkpt><trkpt lat="44.66327230097617" lon="8.467058795174065"><ele>157.0</ele><time>2026-05-01T10:10:09.999Z</time></trkpt><trkpt lat="44.66326182206893" lon="8.467297547440412"><ele>157.0</ele><time>2026-05-01T10:10:10.999Z</time></trkpt><trkpt lat="44.663255034230836" lon="8.467526283852855"><ele>157.0</ele><time>2026-05-01T10:10:11.999Z</time></trkpt><trkpt lat="44.663247702886736" lon="8.467731143143602"><ele>157.0</ele><time>2026-05-01T10:10:12.999Z</time></trkpt><trkpt lat="44.66323945256356" lon="8.467922039239204"><ele>157.0</ele><time>2026-05-01T10:10:13.999Z</time></trkpt><trkpt lat="44.66323545020205" lon="8.468103651890178"><ele>157.0</ele><time>2026-05-01T10:10:14.999Z</time></trkpt><trkpt lat="44.66324441135263" lon="8.468277849579833"><ele>157.0</ele><time>2026-05-01T10:10:15.999Z</time></trkpt><trkpt lat="44.66328675307459" lon="8.468439938757294"><ele>157.0</ele><time>2026-05-01T10:10:16.999Z</time></trkpt><trkpt lat="44.663365457082236" lon="8.468560871773562"><ele>157.0</ele><time>2026-05-01T10:10:17.999Z</time></trkpt><trkpt lat="44.663459071973435" lon="8.46864108806694"><ele>157.0</ele><time>2026-05-01T10:10:18.999Z</time></trkpt><trkpt lat="44.66354462986881" lon="8.46867631134871"><ele>157.0</ele><time>2026-05-01T10:10:19.999Z</time></trkpt><trkpt lat="44.663609159446814" lon="8.468692742603697"><ele>157.0</ele><time>2026-05-01T10:10:20.999Z</time></trkpt><trkpt lat="44.663699675197535" lon="8.468735876154051"><ele>157.0</ele><time>2026-05-01T10:10:22.999Z</time></trkpt><trkpt lat="44.66382618928949" lon="8.468786072870573"><ele>157.0</ele><time>2026-05-01T10:10:24.999Z</time></trkpt><trkpt lat="44.663902636780655" lon="8.468755072029499"><ele>156.5</ele><time>2026-05-01T10:10:25.999Z</time></trkpt><trkpt lat="44.66397837006194" lon="8.468709386670623"><ele>156.0</ele><time>2026-05-01T10:10:26.999Z</time></trkpt><trkpt lat="44.664051839929755" lon="8.468684556109437"><ele>155.5</ele><time>2026-05-01T10:10:27.999Z</time></trkpt><trkpt lat="44.664130371361615" lon="8.468679379671217"><ele>155.0</ele><time>2026-05-01T10:10:28.999Z</time></trkpt><trkpt lat="44.66420372953341" lon="8.468692544415187"><ele>154.5</ele><time>2026-05-01T10:10:29.999Z</time></trkpt><trkpt lat="44.6642744033807" lon="8.468696986696877"><ele>154.0</ele><time>2026-05-01T10:10:30.999Z</time></trkpt><trkpt lat="44.66434633801631" lon="8.468696072193044"><ele>154.0</ele><time>2026-05-01T10:10:31.999Z</time></trkpt><trkpt lat="44.66442443937765" lon="8.468695758748193"><ele>154.0</ele><time>2026-05-01T10:10:32.999Z</time></trkpt><trkpt lat="44.664501757155136" lon="8.468696884978744"><ele>154.0</ele><time>2026-05-01T10:10:33.999Z</time></trkpt><trkpt lat="44.66457798155503" lon="8.468703090212747"><ele>154.0</ele><time>2026-05-01T10:10:34.999Z</time></trkpt><trkpt lat="44.66464937081892" lon="8.46869937800514"><ele>154.0</ele><time>2026-05-01T10:10:35.999Z</time></trkpt><trkpt lat="44.66471673187306" lon="8.468700025880029"><ele>154.0</ele><time>2026-05-01T10:10:36.999Z</time></trkpt><trkpt lat="44.66478389675236" lon="8.468700527429213"><ele>154.0</ele><time>2026-05-01T10:10:37.999Z</time></trkpt><trkpt lat="44.66485431590363" lon="8.468698223181601"><ele>154.0</ele><time>2026-05-01T10:10:38.999Z</time></trkpt><trkpt lat="44.66492828309537" lon="8.468701661122513"><ele>154.0</ele><time>2026-05-01T10:10:39.999Z</time></trkpt><trkpt lat="44.66499934185887" lon="8.468702363091689"><ele>154.0</ele><time>2026-05-01T10:10:40.999Z</time></trkpt><trkpt lat="44.66506247582066" lon="8.468716163135193"><ele>154.0</ele><time>2026-05-01T10:10:41.999Z</time></trkpt><trkpt lat="44.66515302048473" lon="8.468813764861101"><ele>154.0</ele><time>2026-05-01T10:10:43.999Z</time></trkpt><trkpt lat="44.665206760841016" lon="8.468932374166977"><ele>154.0</ele><time>2026-05-01T10:10:45.999Z</time></trkpt><trkpt lat="44.66528190324393" lon="8.468935274172182"><ele>153.2</ele><time>2026-05-01T10:10:47.999Z</time></trkpt><trkpt lat="44.66533588308312" lon="8.46882566640047"><ele>152.4</ele><time>2026-05-01T10:10:49.999Z</time></trkpt><trkpt lat="44.66538767471968" lon="8.46873630707444"><ele>151.6</ele><time>2026-05-01T10:10:52Z</time></trkpt><trkpt lat="44.665498744743616" lon="8.468706565457666"><ele>150.8</ele><time>2026-05-01T10:10:54Z</time></trkpt><trkpt lat="44.66563006101106" lon="8.468716652255146"><ele>150.0</ele><time>2026-05-01T10:10:56Z</time></trkpt><trkpt lat="44.66570483789129" lon="8.468717147384506"><ele>149.83333333333334</ele><time>2026-05-01T10:10:57Z</time></trkpt><trkpt lat="44.665780777644294" lon="8.468714922317158"><ele>149.66666666666666</ele><time>2026-05-01T10:10:58Z</time></trkpt><trkpt lat="44.66585710249187" lon="8.468716373361962"><ele>149.5</ele><time>2026-05-01T10:10:59Z</time></trkpt><trkpt lat="44.66593886995022" lon="8.46871459257651"><ele>149.33333333333331</ele><time>2026-05-01T10:11:00Z</time></trkpt><trkpt lat="44.666018944011384" lon="8.468711548498607"><ele>149.16666666666666</ele><time>2026-05-01T10:11:01Z</time></trkpt><trkpt lat="44.666101377797936" lon="8.468714160749283"><ele>149.0</ele><time>2026-05-01T10:11:02Z</time></trkpt><trkpt lat="44.666179549174714" lon="8.4687202884381"><ele>148.0</ele><time>2026-05-01T10:11:03Z</time></trkpt><trkpt lat="44.66626007017811" lon="8.468717405073736"><ele>147.0</ele><time>2026-05-01T10:11:04Z</time></trkpt><trkpt lat="44.666333443019944" lon="8.468717222648431"><ele>146.0</ele><time>2026-05-01T10:11:05Z</time></trkpt><trkpt lat="44.666404057258575" lon="8.468717319897687"><ele>145.0</ele><time>2026-05-01T10:11:06Z</time></trkpt><trkpt lat="44.666476589984114" lon="8.468716582794688"><ele>144.0</ele><time>2026-05-01T10:11:07Z</time></trkpt><trkpt lat="44.66655044292915" lon="8.468716998425043"><ele>143.0</ele><time>2026-05-01T10:11:08Z</time></trkpt><trkpt lat="44.66662297902808" lon="8.468724162526179"><ele>142.0</ele><time>2026-05-01T10:11:09Z</time></trkpt><trkpt lat="44.6666992442291" lon="8.468726427372841"><ele>142.0</ele><time>2026-05-01T10:11:10Z</time></trkpt><trkpt lat="44.66677282849826" lon="8.468725150696235"><ele>142.0</ele><time>2026-05-01T10:11:11Z</time></trkpt><trkpt lat="44.666846046531184" lon="8.468723247229951"><ele>142.0</ele><time>2026-05-01T10:11:12Z</time></trkpt><trkpt lat="44.666915740382755" lon="8.46872109718506"><ele>142.0</ele><time>2026-05-01T10:11:13Z</time></trkpt><trkpt lat="44.66698187222833" lon="8.46872313302069"><ele>142.0</ele><time>2026-05-01T10:11:14Z</time></trkpt><trkpt lat="44.667045340986284" lon="8.468722933967571"><ele>142.0</ele><time>2026-05-01T10:11:15Z</time></trkpt><trkpt lat="44.66716045656906" lon="8.46872130194946"><ele>143.33333333333334</ele><time>2026-05-01T10:11:17Z</time></trkpt><trkpt lat="44.667245932549335" lon="8.468721974750322"><ele>144.66666666666669</ele><time>2026-05-01T10:11:19Z</time></trkpt><trkpt lat="44.66731143375048" lon="8.46872664928837"><ele>146.0</ele><time>2026-05-01T10:11:24Z</time></trkpt><trkpt lat="44.667438416410306" lon="8.468771801306948"><ele>147.33333333333334</ele><time>2026-05-01T10:11:26Z</time></trkpt><trkpt lat="44.66751849667979" lon="8.468775332212372"><ele>148.66666666666666</ele><time>2026-05-01T10:11:27Z</time></trkpt><trkpt lat="44.66759713374614" lon="8.468750985580808"><ele>150.0</ele><time>2026-05-01T10:11:28Z</time></trkpt><trkpt lat="44.66768068914106" lon="8.468726970398611"><ele>150.0</ele><time>2026-05-01T10:11:29Z</time></trkpt><trkpt lat="44.66775850257588" lon="8.46871788656446"><ele>150.0</ele><time>2026-05-01T10:11:30Z</time></trkpt><trkpt lat="44.66783495665682" lon="8.468724649489756"><ele>150.0</ele><time>2026-05-01T10:11:31Z</time></trkpt><trkpt lat="44.66790992789507" lon="8.46872880164224"><ele>150.0</ele><time>2026-05-01T10:11:32Z</time></trkpt><trkpt lat="44.667989575145114" lon="8.468729409693804"><ele>150.0</ele><time>2026-05-01T10:11:33Z</time></trkpt><trkpt lat="44.6680693759389" lon="8.468730688278487"><ele>150.0</ele><time>2026-05-01T10:11:34Z</time></trkpt><trkpt lat="44.66814513705439" lon="8.468726017601243"><ele>150.5</ele><time>2026-05-01T10:11:35Z</time></trkpt><trkpt lat="44.66822596553847" lon="8.468728550788851"><ele>151.0</ele><time>2026-05-01T10:11:36Z</time></trkpt><trkpt lat="44.66830282683451" lon="8.468732042226437"><ele>151.5</ele><time>2026-05-01T10:11:37Z</time></trkpt><trkpt lat="44.66839080326167" lon="8.4687299182989"><ele>152.0</ele><time>2026-05-01T10:11:38Z</time></trkpt><trkpt lat="44.6684801083271" lon="8.468732357270007"><ele>152.5</ele><time>2026-05-01T10:11:39Z</time></trkpt><trkpt lat="44.66856723019328" lon="8.46872836751225"><ele>153.0</ele><time>2026-05-01T10:11:40Z</time></trkpt><trkpt lat="44.66865512280938" lon="8.468729609830387"><ele>153.83333333333334</ele><time>2026-05-01T10:11:41Z</time></trkpt><trkpt lat="44.668739615497856" lon="8.468735363809932"><ele>154.66666666666666</ele><time>2026-05-01T10:11:42Z</time></trkpt><trkpt lat="44.66881346850423" lon="8.468737611515346"><ele>155.5</ele><time>2026-05-01T10:11:43Z</time></trkpt><trkpt lat="44.66888761608005" lon="8.468736604372003"><ele>156.33333333333331</ele><time>2026-05-01T10:11:44Z</time></trkpt><trkpt lat="44.66896109923898" lon="8.468737646007783"><ele>157.16666666666666</ele><time>2026-05-01T10:11:45Z</time></trkpt><trkpt lat="44.669039784671604" lon="8.468736202915876"><ele>158.0</ele><time>2026-05-01T10:11:45.999Z</time></trkpt><trkpt lat="44.66912230038088" lon="8.468738265022287"><ele>158.00000000000003</ele><time>2026-05-01T10:11:46.999Z</time></trkpt><trkpt lat="44.66920022042111" lon="8.468739957834817"><ele>158.0</ele><time>2026-05-01T10:11:47.999Z</time></trkpt><trkpt lat="44.669273927331815" lon="8.4687406319066"><ele>158.0</ele><time>2026-05-01T10:11:48.999Z</time></trkpt><trkpt lat="44.66934574845719" lon="8.468741104410489"><ele>158.0</ele><time>2026-05-01T10:11:49.999Z</time></trkpt><trkpt lat="44.66941080220521" lon="8.46873145766007"><ele>158.0</ele><time>2026-05-01T10:11:50.999Z</time></trkpt><trkpt lat="44.669481428517535" lon="8.46874043829726"><ele>158.00000000000003</ele><time>2026-05-01T10:11:51.999Z</time></trkpt><trkpt lat="44.66956553213775" lon="8.468736539153774"><ele>158.0</ele><time>2026-05-01T10:11:52.999Z</time></trkpt><trkpt lat="44.669654860751564" lon="8.468731303526216"><ele>159.0</ele><time>2026-05-01T10:11:53.999Z</time></trkpt><trkpt lat="44.66976567223328" lon="8.468721089607758"><ele>160.0</ele><time>2026-05-01T10:11:54.999Z</time></trkpt><trkpt lat="44.669884491386604" lon="8.468721560717043"><ele>161.0</ele><time>2026-05-01T10:11:55.999Z</time></trkpt><trkpt lat="44.670004288645465" lon="8.468732760467596"><ele>162.0</ele><time>2026-05-01T10:11:56.999Z</time></trkpt><trkpt lat="44.67012426823813" lon="8.46874718839056"><ele>162.0</ele><time>2026-05-01T10:11:57.999Z</time></trkpt><trkpt lat="44.670236377407974" lon="8.468744454644115"><ele>162.0</ele><time>2026-05-01T10:11:58.999Z</time></trkpt><trkpt lat="44.67033919466525" lon="8.468747688091996"><ele>162.0</ele><time>2026-05-01T10:11:59.999Z</time></trkpt><trkpt lat="44.67044240282778" lon="8.46875904461082"><ele>162.0</ele><time>2026-05-01T10:12:00.999Z</time></trkpt><trkpt lat="44.670539524808454" lon="8.46875710360575"><ele>162.0</ele><time>2026-05-01T10:12:01.999Z</time></trkpt><trkpt lat="44.67063194646618" lon="8.4687474809769"><ele>162.8</ele><time>2026-05-01T10:12:02.999Z</time></trkpt><trkpt lat="44.67072420422354" lon="8.46875496145035"><ele>163.6</ele><time>2026-05-01T10:12:03.999Z</time></trkpt><trkpt lat="44.6708099884155" lon="8.468752562465765"><ele>164.4</ele><time>2026-05-01T10:12:04.999Z</time></trkpt><trkpt lat="44.670890839212944" lon="8.468752538147335"><ele>165.20000000000002</ele><time>2026-05-01T10:12:05.999Z</time></trkpt><trkpt lat="44.67096885594478" lon="8.468752433337992"><ele>166.0</ele><time>2026-05-01T10:12:06.999Z</time></trkpt><trkpt lat="44.671106637861186" lon="8.468753734963093"><ele>165.83333333333334</ele><time>2026-05-01T10:12:08.999Z</time></trkpt><trkpt lat="44.67122530462503" lon="8.468754329127485"><ele>165.66666666666669</ele><time>2026-05-01T10:12:10.999Z</time></trkpt><trkpt lat="44.671289004754776" lon="8.468739842505308"><ele>165.5</ele><time>2026-05-01T10:12:11.999Z</time></trkpt><trkpt lat="44.67139549875391" lon="8.46872880209481"><ele>165.33333333333334</ele><time>2026-05-01T10:12:13.999Z</time></trkpt><trkpt lat="44.671479284076376" lon="8.46872887321382"><ele>165.16666666666666</ele><time>2026-05-01T10:12:15.999Z</time></trkpt><trkpt lat="44.67154447430429" lon="8.468733562080454"><ele>165.0</ele><time>2026-05-01T10:12:22.999Z</time></trkpt><trkpt lat="44.67162715016315" lon="8.468733621869273"><ele>165.0</ele><time>2026-05-01T10:12:24.999Z</time></trkpt><trkpt lat="44.67172094569463" lon="8.468749429697308"><ele>165.0</ele><time>2026-05-01T10:12:26.999Z</time></trkpt><trkpt lat="44.67182636180862" lon="8.468731262886582"><ele>165.0</ele><time>2026-05-01T10:12:28.999Z</time></trkpt><trkpt lat="44.671954910894556" lon="8.46872954490107"><ele>165.0</ele><time>2026-05-01T10:12:30.999Z</time></trkpt><trkpt lat="44.672018367552894" lon="8.468733092916166"><ele>165.0</ele><time>2026-05-01T10:12:31.999Z</time></trkpt><trkpt lat="44.6720880257759" lon="8.46874883509549"><ele>164.6</ele><time>2026-05-01T10:12:32.999Z</time></trkpt><trkpt lat="44.672166687832515" lon="8.468739831695288"><ele>164.2</ele><time>2026-05-01T10:12:33.999Z</time></trkpt><trkpt lat="44.672256314883384" lon="8.468750605271818"><ele>163.8</ele><time>2026-05-01T10:12:35.999Z</time></trkpt><trkpt lat="44.67235088649748" lon="8.468771838687879"><ele>163.4</ele><time>2026-05-01T10:12:37.999Z</time></trkpt><trkpt lat="44.672341930765555" lon="8.468533903991636"><ele>163.0</ele><time>2026-05-01T10:12:44.999Z</time></trkpt><trkpt lat="44.67234562175062" lon="8.46840295854036"><ele>163.0</ele><time>2026-05-01T10:12:45.999Z</time></trkpt><trkpt lat="44.67236269174152" lon="8.468261985236818"><ele>163.0</ele><time>2026-05-01T10:12:46.999Z</time></trkpt><trkpt lat="44.672381472116335" lon="8.46810742720198"><ele>163.0</ele><time>2026-05-01T10:12:47.999Z</time></trkpt><trkpt lat="44.67241277016498" lon="8.467935446404814"><ele>163.0</ele><time>2026-05-01T10:12:48.999Z</time></trkpt><trkpt lat="44.67244541373766" lon="8.467754078313297"><ele>163.0</ele><time>2026-05-01T10:12:49.999Z</time></trkpt><trkpt lat="44.672484434240424" lon="8.467596392549353"><ele>163.0</ele><time>2026-05-01T10:12:50.999Z</time></trkpt><trkpt lat="44.67251293528121" lon="8.467453407179894"><ele>163.0</ele><time>2026-05-01T10:12:51.999Z</time></trkpt><trkpt lat="44.67254632962326" lon="8.46731866265272"><ele>163.0</ele><time>2026-05-01T10:12:52.999Z</time></trkpt><trkpt lat="44.67258154422997" lon="8.467201811636457"><ele>163.0</ele><time>2026-05-01T10:12:53.999Z</time></trkpt><trkpt lat="44.672617729307696" lon="8.46708789681116"><ele>163.33333333333334</ele><time>2026-05-01T10:12:54.999Z</time></trkpt><trkpt lat="44.672653761976036" lon="8.46696940236185"><ele>163.66666666666669</ele><time>2026-05-01T10:12:55.999Z</time></trkpt><trkpt lat="44.67268827615126" lon="8.466854925199392"><ele>164.0</ele><time>2026-05-01T10:12:56.999Z</time></trkpt><trkpt lat="44.67272509508204" lon="8.466748754216614"><ele>164.33333333333334</ele><time>2026-05-01T10:12:58Z</time></trkpt><trkpt lat="44.6727654545811" lon="8.466647343776529"><ele>164.66666666666666</ele><time>2026-05-01T10:12:59Z</time></trkpt><trkpt lat="44.6728136010569" lon="8.466553191100441"><ele>165.0</ele><time>2026-05-01T10:13:00Z</time></trkpt><trkpt lat="44.67285771571777" lon="8.466449024433562"><ele>164.6</ele><time>2026-05-01T10:13:01Z</time></trkpt><trkpt lat="44.672905018826604" lon="8.466339028412602"><ele>164.2</ele><time>2026-05-01T10:13:02Z</time></trkpt><trkpt lat="44.67296018088171" lon="8.466247004536408"><ele>163.8</ele><time>2026-05-01T10:13:03Z</time></trkpt><trkpt lat="44.67302944437325" lon="8.466166344443076"><ele>163.4</ele><time>2026-05-01T10:13:04Z</time></trkpt><trkpt lat="44.67311475756566" lon="8.466117502407318"><ele>163.0</ele><time>2026-05-01T10:13:05Z</time></trkpt><trkpt lat="44.67321431087546" lon="8.466111953262649"><ele>163.0</ele><time>2026-05-01T10:13:06Z</time></trkpt><trkpt lat="44.67330236666831" lon="8.466128604139735"><ele>163.0</ele><time>2026-05-01T10:13:07Z</time></trkpt><trkpt lat="44.673369962853236" lon="8.466140121972554"><ele>163.0</ele><time>2026-05-01T10:13:08Z</time></trkpt><trkpt lat="44.673474601546914" lon="8.466163681963902"><ele>163.0</ele><time>2026-05-01T10:13:10Z</time></trkpt><trkpt lat="44.67357632231644" lon="8.466190380505873"><ele>163.0</ele><time>2026-05-01T10:13:12Z</time></trkpt><trkpt lat="44.673675000496026" lon="8.466214904299875"><ele>163.4</ele><time>2026-05-01T10:13:14Z</time></trkpt><trkpt lat="44.67377163677696" lon="8.46624248704066"><ele>163.8</ele><time>2026-05-01T10:13:16Z</time></trkpt><trkpt lat="44.673873656858795" lon="8.466292624183057"><ele>164.2</ele><time>2026-05-01T10:13:18Z</time></trkpt><trkpt lat="44.67395963257461" lon="8.466362804589524"><ele>164.6</ele><time>2026-05-01T10:13:20Z</time></trkpt><trkpt lat="44.67404699022079" lon="8.46639294720057"><ele>165.0</ele><time>2026-05-01T10:13:22Z</time></trkpt><trkpt lat="44.674142705320016" lon="8.466344081343191"><ele>164.6</ele><time>2026-05-01T10:13:24Z</time></trkpt><trkpt lat="44.674242427957005" lon="8.466384194395356"><ele>164.2</ele><time>2026-05-01T10:13:26Z</time></trkpt><trkpt lat="44.674304217583014" lon="8.46642475067895"><ele>163.8</ele><time>2026-05-01T10:13:27Z</time></trkpt><trkpt lat="44.674403573601886" lon="8.466418930269644"><ele>163.4</ele><time>2026-05-01T10:13:28Z</time></trkpt><trkpt lat="44.67452881846636" lon="8.466434648771756"><ele>163.0</ele><time>2026-05-01T10:13:29Z</time></trkpt><trkpt lat="44.67465430686547" lon="8.466480985355124"><ele>163.0</ele><time>2026-05-01T10:13:30Z</time></trkpt><trkpt lat="44.67475895570857" lon="8.466516507670136"><ele>163.0</ele><time>2026-05-01T10:13:31Z</time></trkpt><trkpt lat="44.674844253836994" lon="8.466545286211286"><ele>163.0</ele><time>2026-05-01T10:13:32Z</time></trkpt><trkpt lat="44.67491550676918" lon="8.466564696065198"><ele>163.0</ele><time>2026-05-01T10:13:33Z</time></trkpt><trkpt lat="44.675013718236464" lon="8.466604274765375"><ele>163.0</ele><time>2026-05-01T10:13:35Z</time></trkpt><trkpt lat="44.67509313823646" lon="8.466701455283397"><ele>163.0</ele><time>2026-05-01T10:13:37Z</time></trkpt><trkpt lat="44.67516086953926" lon="8.466795251128387"><ele>163.0</ele><time>2026-05-01T10:13:39Z</time></trkpt><trkpt lat="44.67522422785467" lon="8.466791079683363"><ele>163.0</ele><time>2026-05-01T10:13:40Z</time></trkpt><trkpt lat="44.67529954719679" lon="8.46677780852173"><ele>163.0</ele><time>2026-05-01T10:13:41Z</time></trkpt><trkpt lat="44.67537549490253" lon="8.466790956135736"><ele>163.0</ele><time>2026-05-01T10:13:42Z</time></trkpt><trkpt lat="44.67545607172831" lon="8.466813919812187"><ele>163.0</ele><time>2026-05-01T10:13:43Z</time></trkpt><trkpt lat="44.675541829951406" lon="8.46683777052563"><ele>163.33333333333334</ele><time>2026-05-01T10:13:44Z</time></trkpt><trkpt lat="44.675623237250015" lon="8.466856326920183"><ele>163.66666666666669</ele><time>2026-05-01T10:13:45Z</time></trkpt><trkpt lat="44.67569722648284" lon="8.466869243198849"><ele>164.0</ele><time>2026-05-01T10:13:46Z</time></trkpt><trkpt lat="44.67576483594938" lon="8.466887809032864"><ele>164.33333333333334</ele><time>2026-05-01T10:13:47Z</time></trkpt><trkpt lat="44.67587428723862" lon="8.46691382207504"><ele>164.66666666666666</ele><time>2026-05-01T10:13:49Z</time></trkpt><trkpt lat="44.675978685717084" lon="8.466957024013233"><ele>165.0</ele><time>2026-05-01T10:13:51Z</time></trkpt><trkpt lat="44.67606170161101" lon="8.466979391703699"><ele>165.0</ele><time>2026-05-01T10:13:53Z</time></trkpt><trkpt lat="44.67614081601746" lon="8.467012099311981"><ele>165.0</ele><time>2026-05-01T10:13:59.999Z</time></trkpt><trkpt lat="44.67622363899812" lon="8.467027132920304"><ele>165.0</ele><time>2026-05-01T10:14:02.999Z</time></trkpt><trkpt lat="44.676330860047464" lon="8.46707738651006"><ele>165.0</ele><time>2026-05-01T10:14:04.999Z</time></trkpt><trkpt lat="44.676398099065565" lon="8.46711147974367"><ele>165.0</ele><time>2026-05-01T10:14:06.999Z</time></trkpt><trkpt lat="44.67650661211067" lon="8.467133975907016"><ele>165.0</ele><time>2026-05-01T10:14:10.999Z</time></trkpt><trkpt lat="44.67662537600113" lon="8.467146077359311"><ele>165.0</ele><time>2026-05-01T10:14:12.999Z</time></trkpt><trkpt lat="44.6767454329036" lon="8.467176045850595"><ele>165.0</ele><time>2026-05-01T10:14:14.999Z</time></trkpt><trkpt lat="44.67681610684594" lon="8.467199524086297"><ele>165.0</ele><time>2026-05-01T10:14:15.999Z</time></trkpt><trkpt lat="44.67694025732071" lon="8.467238262735313"><ele>165.0</ele><time>2026-05-01T10:14:17.999Z</time></trkpt><trkpt lat="44.67703195566773" lon="8.46727744513346"><ele>165.0</ele><time>2026-05-01T10:14:19.999Z</time></trkpt><trkpt lat="44.67710277972609" lon="8.467423906347605"><ele>165.0</ele><time>2026-05-01T10:14:21.999Z</time></trkpt><trkpt lat="44.67711439995265" lon="8.467535298873548"><ele>165.0</ele><time>2026-05-01T10:14:22.999Z</time></trkpt><trkpt lat="44.67709579011416" lon="8.467707680947784"><ele>165.0</ele><time>2026-05-01T10:14:23.999Z</time></trkpt><trkpt lat="44.677073729955175" lon="8.46791900175723"><ele>165.0</ele><time>2026-05-01T10:14:24.999Z</time></trkpt><trkpt lat="44.67705262800297" lon="8.46809621175996"><ele>165.0</ele><time>2026-05-01T10:14:25.999Z</time></trkpt><trkpt lat="44.677037691727186" lon="8.468235633737965"><ele>165.0</ele><time>2026-05-01T10:14:26.999Z</time></trkpt><trkpt lat="44.67702233321158" lon="8.468354973024091"><ele>165.0</ele><time>2026-05-01T10:14:27.999Z</time></trkpt><trkpt lat="44.677010087552766" lon="8.468461587212376"><ele>165.0</ele><time>2026-05-01T10:14:28.999Z</time></trkpt><trkpt lat="44.67700040705127" lon="8.468553293775214"><ele>165.0</ele><time>2026-05-01T10:14:29.999Z</time></trkpt><trkpt lat="44.67698670892595" lon="8.46864818775156"><ele>165.0</ele><time>2026-05-01T10:14:30.999Z</time></trkpt><trkpt lat="44.67697302260088" lon="8.468758741223933"><ele>165.0</ele><time>2026-05-01T10:14:31.999Z</time></trkpt><trkpt lat="44.67694937327393" lon="8.468881409769285"><ele>165.0</ele><time>2026-05-01T10:14:32.999Z</time></trkpt><trkpt lat="44.67693443169536" lon="8.469001931213834"><ele>165.0</ele><time>2026-05-01T10:14:33.999Z</time></trkpt><trkpt lat="44.676919468361426" lon="8.469114098394723"><ele>165.0</ele><time>2026-05-01T10:14:34.999Z</time></trkpt><trkpt lat="44.67690461246828" lon="8.469219202029855"><ele>165.00000000000003</ele><time>2026-05-01T10:14:35.999Z</time></trkpt><trkpt lat="44.67689191457831" lon="8.469318645332098"><ele>165.0</ele><time>2026-05-01T10:14:36.999Z</time></trkpt><trkpt lat="44.676878280790774" lon="8.469413894477189"><ele>165.0</ele><time>2026-05-01T10:14:37.999Z</time></trkpt><trkpt lat="44.67686521252582" lon="8.469512142803413"><ele>165.0</ele><time>2026-05-01T10:14:38.999Z</time></trkpt><trkpt lat="44.67685080912443" lon="8.469607794755053"><ele>165.0</ele><time>2026-05-01T10:14:39.999Z</time></trkpt><trkpt lat="44.676823664840136" lon="8.469692056214319"><ele>165.00000000000003</ele><time>2026-05-01T10:14:40.999Z</time></trkpt><trkpt lat="44.67680304808543" lon="8.469820386996929"><ele>165.0</ele><time>2026-05-01T10:14:42.999Z</time></trkpt><trkpt lat="44.67680265596989" lon="8.469919508201803"><ele>165.4</ele><time>2026-05-01T10:14:44.999Z</time></trkpt><trkpt lat="44.676785009022886" lon="8.470027941032003"><ele>165.8</ele><time>2026-05-01T10:14:46.999Z</time></trkpt><trkpt lat="44.67675971945151" lon="8.47015549278986"><ele>166.2</ele><time>2026-05-01T10:14:48.999Z</time></trkpt><trkpt lat="44.676734180221366" lon="8.470283004590682"><ele>166.6</ele><time>2026-05-01T10:14:50.999Z</time></trkpt><trkpt lat="44.676701155569845" lon="8.470415082561361"><ele>167.0</ele><time>2026-05-01T10:14:52.999Z</time></trkpt><trkpt lat="44.676674700283826" lon="8.470541824534008"><ele>167.0</ele><time>2026-05-01T10:14:54.999Z</time></trkpt><trkpt lat="44.67665192495811" lon="8.470637998095153"><ele>167.0</ele><time>2026-05-01T10:14:56.999Z</time></trkpt><trkpt lat="44.67661854253991" lon="8.470717481221119"><ele>167.0</ele><time>2026-05-01T10:14:58.999Z</time></trkpt><trkpt lat="44.67656602240496" lon="8.470789141216576"><ele>167.0</ele><time>2026-05-01T10:15:00.999Z</time></trkpt><trkpt lat="44.67649238041165" lon="8.47090552671531"><ele>167.0</ele><time>2026-05-01T10:15:02.999Z</time></trkpt><trkpt lat="44.676442088611296" lon="8.471023748345283"><ele>167.0</ele><time>2026-05-01T10:15:04Z</time></trkpt><trkpt lat="44.67637752887979" lon="8.471171334793647"><ele>167.25</ele><time>2026-05-01T10:15:05Z</time></trkpt><trkpt lat="44.67629840335629" lon="8.471319030708944"><ele>167.5</ele><time>2026-05-01T10:15:06Z</time></trkpt><trkpt lat="44.67620356673412" lon="8.471489388643205"><ele>167.75</ele><time>2026-05-01T10:15:07Z</time></trkpt><trkpt lat="44.67611801465947" lon="8.471646475777447"><ele>168.0</ele><time>2026-05-01T10:15:08Z</time></trkpt><trkpt lat="44.67604277001767" lon="8.471788066102818"><ele>169.0</ele><time>2026-05-01T10:15:09Z</time></trkpt><trkpt lat="44.6759755233095" lon="8.471920246751038"><ele>170.0</ele><time>2026-05-01T10:15:10Z</time></trkpt><trkpt lat="44.67584780198902" lon="8.472144437188607"><ele>171.0</ele><time>2026-05-01T10:15:11Z</time></trkpt><trkpt lat="44.675764119197716" lon="8.472306307524383"><ele>171.66666666666666</ele><time>2026-05-01T10:15:12Z</time></trkpt><trkpt lat="44.67567501373283" lon="8.472474601455154"><ele>172.33333333333331</ele><time>2026-05-01T10:15:13Z</time></trkpt><trkpt lat="44.67557938045576" lon="8.472659947533154"><ele>173.0</ele><time>2026-05-01T10:15:14Z</time></trkpt><trkpt lat="44.67547318286456" lon="8.472884742711999"><ele>173.75</ele><time>2026-05-01T10:15:15Z</time></trkpt><trkpt lat="44.67536647786191" lon="8.47305756392435"><ele>174.5</ele><time>2026-05-01T10:15:16Z</time></trkpt><trkpt lat="44.675278801298795" lon="8.473194709219147"><ele>175.25</ele><time>2026-05-01T10:15:17Z</time></trkpt><trkpt lat="44.67521043941297" lon="8.473314039331616"><ele>176.0</ele><time>2026-05-01T10:15:18Z</time></trkpt><trkpt lat="44.675157008759584" lon="8.473420170477441"><ele>177.0</ele><time>2026-05-01T10:15:19Z</time></trkpt><trkpt lat="44.675114194516475" lon="8.47351182498116"><ele>178.0</ele><time>2026-05-01T10:15:20Z</time></trkpt><trkpt lat="44.67509359309472" lon="8.473612811368495"><ele>179.0</ele><time>2026-05-01T10:15:21Z</time></trkpt><trkpt lat="44.675120601982975" lon="8.473737913238107"><ele>180.0</ele><time>2026-05-01T10:15:22Z</time></trkpt><trkpt lat="44.67514988003175" lon="8.473865518896467"><ele>181.0</ele><time>2026-05-01T10:15:23Z</time></trkpt><trkpt lat="44.675117375111746" lon="8.473997183851267"><ele>182.0</ele><time>2026-05-01T10:15:24Z</time></trkpt><trkpt lat="44.67503042926914" lon="8.474117134882986"><ele>182.0</ele><time>2026-05-01T10:15:25Z</time></trkpt><trkpt lat="44.674944997368655" lon="8.474250562948008"><ele>182.0</ele><time>2026-05-01T10:15:26Z</time></trkpt><trkpt lat="44.67484880882514" lon="8.4743806421323"><ele>182.0</ele><time>2026-05-01T10:15:27Z</time></trkpt><trkpt lat="44.674766406073104" lon="8.474512824791468"><ele>182.0</ele><time>2026-05-01T10:15:28Z</time></trkpt><trkpt lat="44.67466631696727" lon="8.474614493350307"><ele>182.25</ele><time>2026-05-01T10:15:29Z</time></trkpt><trkpt lat="44.67457685573747" lon="8.474723207622562"><ele>182.5</ele><time>2026-05-01T10:15:30Z</time></trkpt><trkpt lat="44.67448802232154" lon="8.47483216297648"><ele>182.75</ele><time>2026-05-01T10:15:31Z</time></trkpt><trkpt lat="44.674407812465255" lon="8.474948626909056"><ele>183.0</ele><time>2026-05-01T10:15:32Z</time></trkpt><trkpt lat="44.674314084809595" lon="8.475056623297743"><ele>181.5</ele><time>2026-05-01T10:15:33Z</time></trkpt><trkpt lat="44.67422641517978" lon="8.47516113524707"><ele>180.0</ele><time>2026-05-01T10:15:34Z</time></trkpt><trkpt lat="44.6741367312527" lon="8.475269682932035"><ele>178.5</ele><time>2026-05-01T10:15:35Z</time></trkpt><trkpt lat="44.67404624359507" lon="8.475365976304433"><ele>177.0</ele><time>2026-05-01T10:15:36Z</time></trkpt><trkpt lat="44.67395551665143" lon="8.475450244576171"><ele>177.0</ele><time>2026-05-01T10:15:37Z</time></trkpt><trkpt lat="44.67387681606353" lon="8.475567771926451"><ele>177.0</ele><time>2026-05-01T10:15:38Z</time></trkpt><trkpt lat="44.67378382608492" lon="8.475664857181052"><ele>177.0</ele><time>2026-05-01T10:15:39Z</time></trkpt><trkpt lat="44.67369361398697" lon="8.475762927845679"><ele>177.0</ele><time>2026-05-01T10:15:40Z</time></trkpt><trkpt lat="44.6736168790611" lon="8.475886226671227"><ele>174.75</ele><time>2026-05-01T10:15:41Z</time></trkpt><trkpt lat="44.67354789444912" lon="8.476014845310436"><ele>172.5</ele><time>2026-05-01T10:15:42Z</time></trkpt><trkpt lat="44.67349253109508" lon="8.476164405984088"><ele>170.25</ele><time>2026-05-01T10:15:43Z</time></trkpt><trkpt lat="44.67343892407998" lon="8.476299155890349"><ele>168.0</ele><time>2026-05-01T10:15:44Z</time></trkpt><trkpt lat="44.67338853333626" lon="8.476433485742284"><ele>167.60000000000002</ele><time>2026-05-01T10:15:45Z</time></trkpt><trkpt lat="44.67333755447961" lon="8.476562365740676"><ele>167.20000000000002</ele><time>2026-05-01T10:15:46Z</time></trkpt><trkpt lat="44.67328572775886" lon="8.476685813610501"><ele>166.8</ele><time>2026-05-01T10:15:47Z</time></trkpt><trkpt lat="44.67323814403114" lon="8.476793429328527"><ele>166.4</ele><time>2026-05-01T10:15:48Z</time></trkpt><trkpt lat="44.67319857430457" lon="8.476876528189726"><ele>166.0</ele><time>2026-05-01T10:15:49Z</time></trkpt><trkpt lat="44.67312855589784" lon="8.476976672966451"><ele>166.0</ele><time>2026-05-01T10:15:51Z</time></trkpt><trkpt lat="44.6730664547019" lon="8.477081449644993"><ele>166.0</ele><time>2026-05-01T10:15:53Z</time></trkpt><trkpt lat="44.673030057065475" lon="8.477163806367008"><ele>166.0</ele><time>2026-05-01T10:15:54Z</time></trkpt><trkpt lat="44.67298663134497" lon="8.477266078815951"><ele>166.0</ele><time>2026-05-01T10:15:55Z</time></trkpt><trkpt lat="44.67299061855558" lon="8.477420265521959"><ele>166.0</ele><time>2026-05-01T10:15:56Z</time></trkpt><trkpt lat="44.67298369995679" lon="8.477580841907102"><ele>167.0</ele><time>2026-05-01T10:15:57Z</time></trkpt><trkpt lat="44.6729754410631" lon="8.477752871385048"><ele>168.0</ele><time>2026-05-01T10:15:58Z</time></trkpt><trkpt lat="44.67297868445234" lon="8.477932285605798"><ele>169.0</ele><time>2026-05-01T10:15:59Z</time></trkpt><trkpt lat="44.67298757722822" lon="8.478116798604692"><ele>170.0</ele><time>2026-05-01T10:15:59.999Z</time></trkpt><trkpt lat="44.67299726076518" lon="8.478309309628248"><ele>170.66666666666666</ele><time>2026-05-01T10:16:00.999Z</time></trkpt><trkpt lat="44.67300469431585" lon="8.478515053616395"><ele>171.33333333333334</ele><time>2026-05-01T10:16:01.999Z</time></trkpt><trkpt lat="44.6730192910949" lon="8.478731056310608"><ele>172.0</ele><time>2026-05-01T10:16:02.999Z</time></trkpt><trkpt lat="44.6730513316077" lon="8.478955825905471"><ele>170.66666666666669</ele><time>2026-05-01T10:16:03.999Z</time></trkpt><trkpt lat="44.67310985854388" lon="8.479203008574572"><ele>169.33333333333334</ele><time>2026-05-01T10:16:04.999Z</time></trkpt><trkpt lat="44.67319208901132" lon="8.479454127539427"><ele>168.0</ele><time>2026-05-01T10:16:05.999Z</time></trkpt><trkpt lat="44.673293653155596" lon="8.479687068034943"><ele>166.0</ele><time>2026-05-01T10:16:06.999Z</time></trkpt><trkpt lat="44.67342327560265" lon="8.479897688979129"><ele>164.0</ele><time>2026-05-01T10:16:07.999Z</time></trkpt><trkpt lat="44.67355284960857" lon="8.480091781140649"><ele>162.0</ele><time>2026-05-01T10:16:08.999Z</time></trkpt><trkpt lat="44.67367034849675" lon="8.480277360936448"><ele>162.33333333333334</ele><time>2026-05-01T10:16:09.999Z</time></trkpt><trkpt lat="44.673788620109804" lon="8.480459596487036"><ele>162.66666666666669</ele><time>2026-05-01T10:16:10.999Z</time></trkpt><trkpt lat="44.673924674610824" lon="8.480636785827077"><ele>163.0</ele><time>2026-05-01T10:16:11.999Z</time></trkpt><trkpt lat="44.674076344808384" lon="8.48079622602948"><ele>163.0</ele><time>2026-05-01T10:16:12.999Z</time></trkpt><trkpt lat="44.67423703012192" lon="8.480942006412336"><ele>163.0</ele><time>2026-05-01T10:16:13.999Z</time></trkpt><trkpt lat="44.67439855994865" lon="8.481084181385485"><ele>163.0</ele><time>2026-05-01T10:16:14.999Z</time></trkpt><trkpt lat="44.674557676542264" lon="8.481228529180365"><ele>162.33333333333334</ele><time>2026-05-01T10:16:15.999Z</time></trkpt><trkpt lat="44.67471241169427" lon="8.481374540479969"><ele>161.66666666666666</ele><time>2026-05-01T10:16:16.999Z</time></trkpt><trkpt lat="44.67485868248146" lon="8.481516925761515"><ele>161.0</ele><time>2026-05-01T10:16:17.999Z</time></trkpt><trkpt lat="44.674998212918894" lon="8.481651071187231"><ele>161.0</ele><time>2026-05-01T10:16:18.999Z</time></trkpt><trkpt lat="44.67514155476061" lon="8.481784332285127"><ele>161.0</ele><time>2026-05-01T10:16:19.999Z</time></trkpt><trkpt lat="44.675287340395194" lon="8.481911345704221"><ele>161.0</ele><time>2026-05-01T10:16:20.999Z</time></trkpt><trkpt lat="44.675441611644935" lon="8.48202280266707"><ele>159.66666666666666</ele><time>2026-05-01T10:16:21.999Z</time></trkpt><trkpt lat="44.67559966027211" lon="8.482117442324247"><ele>158.33333333333334</ele><time>2026-05-01T10:16:22.999Z</time></trkpt><trkpt lat="44.675764918277814" lon="8.482202372351153"><ele>157.0</ele><time>2026-05-01T10:16:23.999Z</time></trkpt><trkpt lat="44.67593507808492" lon="8.482282903289326"><ele>160.0</ele><time>2026-05-01T10:16:24.999Z</time></trkpt><trkpt lat="44.676105332246216" lon="8.482370579972331"><ele>163.0</ele><time>2026-05-01T10:16:25.999Z</time></trkpt><trkpt lat="44.67627697709687" lon="8.482455013389039"><ele>166.0</ele><time>2026-05-01T10:16:26.999Z</time></trkpt><trkpt lat="44.67645838333116" lon="8.482519691076826"><ele>166.0</ele><time>2026-05-01T10:16:27.999Z</time></trkpt><trkpt lat="44.67664303131252" lon="8.482565557832263"><ele>166.0</ele><time>2026-05-01T10:16:28.999Z</time></trkpt><trkpt lat="44.676828319273845" lon="8.482605145164644"><ele>166.0</ele><time>2026-05-01T10:16:29.999Z</time></trkpt><trkpt lat="44.67701439588429" lon="8.482637845877333"><ele>168.33333333333334</ele><time>2026-05-01T10:16:30.999Z</time></trkpt><trkpt lat="44.67720487349509" lon="8.482671870504456"><ele>170.66666666666666</ele><time>2026-05-01T10:16:31.999Z</time></trkpt><trkpt lat="44.67739617215871" lon="8.482714671519416"><ele>173.0</ele><time>2026-05-01T10:16:32.999Z</time></trkpt><trkpt lat="44.67758892824299" lon="8.482759391612287"><ele>172.0</ele><time>2026-05-01T10:16:33.999Z</time></trkpt><trkpt lat="44.677783075086055" lon="8.482801340164029"><ele>171.0</ele><time>2026-05-01T10:16:34.999Z</time></trkpt><trkpt lat="44.67796907018647" lon="8.482843916785727"><ele>170.0</ele><time>2026-05-01T10:16:35.999Z</time></trkpt><trkpt lat="44.67815491140465" lon="8.48289222963142"><ele>167.33333333333331</ele><time>2026-05-01T10:16:36.999Z</time></trkpt><trkpt lat="44.67834017633852" lon="8.482968781727774"><ele>164.66666666666666</ele><time>2026-05-01T10:16:37.999Z</time></trkpt><trkpt lat="44.67852221767087" lon="8.483085975775"><ele>162.0</ele><time>2026-05-01T10:16:38.999Z</time></trkpt><trkpt lat="44.67870061848519" lon="8.483224956677434"><ele>162.0</ele><time>2026-05-01T10:16:39.999Z</time></trkpt><trkpt lat="44.678882280638874" lon="8.483364320567379"><ele>162.0</ele><time>2026-05-01T10:16:40.999Z</time></trkpt><trkpt lat="44.67906213848777" lon="8.483500454636918"><ele>162.0</ele><time>2026-05-01T10:16:41.999Z</time></trkpt><trkpt lat="44.67923804163623" lon="8.483642184918267"><ele>164.33333333333334</ele><time>2026-05-01T10:16:42.999Z</time></trkpt><trkpt lat="44.679411992469106" lon="8.483794341885508"><ele>166.66666666666669</ele><time>2026-05-01T10:16:43.999Z</time></trkpt><trkpt lat="44.679581816740466" lon="8.483963038142141"><ele>169.0</ele><time>2026-05-01T10:16:44.999Z</time></trkpt><trkpt lat="44.67974241537159" lon="8.48414625099766"><ele>169.0</ele><time>2026-05-01T10:16:45.999Z</time></trkpt><trkpt lat="44.679898686124375" lon="8.484341705572895"><ele>169.0</ele><time>2026-05-01T10:16:46.999Z</time></trkpt><trkpt lat="44.68004630346905" lon="8.484549716888012"><ele>169.0</ele><time>2026-05-01T10:16:47.999Z</time></trkpt><trkpt lat="44.68018039265648" lon="8.484779922514925"><ele>168.0</ele><time>2026-05-01T10:16:48.999Z</time></trkpt><trkpt lat="44.680302120460105" lon="8.48502001798925"><ele>167.0</ele><time>2026-05-01T10:16:49.999Z</time></trkpt><trkpt lat="44.68041923217874" lon="8.485268845574966"><ele>166.0</ele><time>2026-05-01T10:16:50.999Z</time></trkpt><trkpt lat="44.680537152387174" lon="8.485510848777155"><ele>166.0</ele><time>2026-05-01T10:16:51.999Z</time></trkpt><trkpt lat="44.68064524839272" lon="8.485776084386075"><ele>166.0</ele><time>2026-05-01T10:16:52.999Z</time></trkpt><trkpt lat="44.68072132721148" lon="8.486074474303562"><ele>166.0</ele><time>2026-05-01T10:16:53.999Z</time></trkpt><trkpt lat="44.680778891687254" lon="8.48639947944618"><ele>165.0</ele><time>2026-05-01T10:16:54.999Z</time></trkpt><trkpt lat="44.680841187720766" lon="8.486702278044092"><ele>164.0</ele><time>2026-05-01T10:16:55.999Z</time></trkpt><trkpt lat="44.68090627709934" lon="8.486977667270176"><ele>163.0</ele><time>2026-05-01T10:16:56.999Z</time></trkpt><trkpt lat="44.68096335740573" lon="8.487237369860482"><ele>161.66666666666669</ele><time>2026-05-01T10:16:57.999Z</time></trkpt><trkpt lat="44.680996901966324" lon="8.487500172146577"><ele>160.33333333333334</ele><time>2026-05-01T10:16:58.999Z</time></trkpt><trkpt lat="44.68099782924507" lon="8.487754685153092"><ele>159.0</ele><time>2026-05-01T10:16:59.999Z</time></trkpt><trkpt lat="44.680972201207894" lon="8.488017152026941"><ele>158.66666666666666</ele><time>2026-05-01T10:17:00.999Z</time></trkpt><trkpt lat="44.68094427086426" lon="8.488281172448042"><ele>158.33333333333331</ele><time>2026-05-01T10:17:01.999Z</time></trkpt><trkpt lat="44.6809172761911" lon="8.488535785149288"><ele>158.0</ele><time>2026-05-01T10:17:02.999Z</time></trkpt><trkpt lat="44.6808939715059" lon="8.488792785122596"><ele>158.0</ele><time>2026-05-01T10:17:03.999Z</time></trkpt><trkpt lat="44.68087019077499" lon="8.489047876927946"><ele>158.0</ele><time>2026-05-01T10:17:04.999Z</time></trkpt><trkpt lat="44.680843747089654" lon="8.489304840238722"><ele>158.0</ele><time>2026-05-01T10:17:05.999Z</time></trkpt><trkpt lat="44.68078060556638" lon="8.489546694675289"><ele>160.66666666666666</ele><time>2026-05-01T10:17:06.999Z</time></trkpt><trkpt lat="44.68070794607422" lon="8.489775007269289"><ele>163.33333333333334</ele><time>2026-05-01T10:17:07.999Z</time></trkpt><trkpt lat="44.68063621509324" lon="8.489999890483517"><ele>166.0</ele><time>2026-05-01T10:17:08.999Z</time></trkpt><trkpt lat="44.680552822587536" lon="8.490218526704847"><ele>167.66666666666669</ele><time>2026-05-01T10:17:10Z</time></trkpt><trkpt lat="44.680487238676925" lon="8.490443469955538"><ele>169.33333333333334</ele><time>2026-05-01T10:17:11Z</time></trkpt><trkpt lat="44.68043854563741" lon="8.490677351964152"><ele>171.0</ele><time>2026-05-01T10:17:12Z</time></trkpt><trkpt lat="44.680397086334324" lon="8.490919400762326"><ele>171.0</ele><time>2026-05-01T10:17:13Z</time></trkpt><trkpt lat="44.680364741282865" lon="8.491169150055862"><ele>171.0</ele><time>2026-05-01T10:17:14Z</time></trkpt><trkpt lat="44.68032293211333" lon="8.491420760385342"><ele>171.0</ele><time>2026-05-01T10:17:15Z</time></trkpt><trkpt lat="44.68027888661334" lon="8.49167787631667"><ele>164.66666666666666</ele><time>2026-05-01T10:17:16Z</time></trkpt><trkpt lat="44.68023843655584" lon="8.491938775049833"><ele>158.33333333333331</ele><time>2026-05-01T10:17:17Z</time></trkpt><trkpt lat="44.68019245988158" lon="8.492202463733491"><ele>152.0</ele><time>2026-05-01T10:17:18Z</time></trkpt><trkpt lat="44.680150057004525" lon="8.49244989717541"><ele>152.0</ele><time>2026-05-01T10:17:19Z</time></trkpt><trkpt lat="44.68010775598551" lon="8.492688065308162"><ele>152.0</ele><time>2026-05-01T10:17:20Z</time></trkpt><trkpt lat="44.68006686964467" lon="8.492922341703235"><ele>152.0</ele><time>2026-05-01T10:17:21Z</time></trkpt><trkpt lat="44.68003128560172" lon="8.49315862463734"><ele>152.66666666666666</ele><time>2026-05-01T10:17:22Z</time></trkpt><trkpt lat="44.67999439549645" lon="8.493393459913227"><ele>153.33333333333334</ele><time>2026-05-01T10:17:23Z</time></trkpt><trkpt lat="44.679957272537145" lon="8.493627046623052"><ele>154.0</ele><time>2026-05-01T10:17:24Z</time></trkpt><trkpt lat="44.67993108383489" lon="8.493854133103484"><ele>155.0</ele><time>2026-05-01T10:17:25Z</time></trkpt><trkpt lat="44.6799270660815" lon="8.494082359041352"><ele>156.0</ele><time>2026-05-01T10:17:26Z</time></trkpt><trkpt lat="44.67994686258911" lon="8.494317358455772"><ele>157.0</ele><time>2026-05-01T10:17:27Z</time></trkpt><trkpt lat="44.679977461775515" lon="8.494541385414122"><ele>158.0</ele><time>2026-05-01T10:17:28Z</time></trkpt><trkpt lat="44.680009988663045" lon="8.49475419082409"><ele>159.0</ele><time>2026-05-01T10:17:29Z</time></trkpt><trkpt lat="44.68003840140162" lon="8.494959280842691"><ele>160.0</ele><time>2026-05-01T10:17:30Z</time></trkpt><trkpt lat="44.68006424132773" lon="8.495157386351183"><ele>161.0</ele><time>2026-05-01T10:17:31Z</time></trkpt><trkpt lat="44.68008971184141" lon="8.49534724913754"><ele>161.25</ele><time>2026-05-01T10:17:32Z</time></trkpt><trkpt lat="44.68011903849283" lon="8.495529531891616"><ele>161.5</ele><time>2026-05-01T10:17:33Z</time></trkpt><trkpt lat="44.68014817727648" lon="8.495695220676364"><ele>161.75</ele><time>2026-05-01T10:17:34Z</time></trkpt><trkpt lat="44.6801802695371" lon="8.495837173199726"><ele>162.0</ele><time>2026-05-01T10:17:35Z</time></trkpt><trkpt lat="44.68021835401805" lon="8.495961131346444"><ele>162.0</ele><time>2026-05-01T10:17:36Z</time></trkpt><trkpt lat="44.680260042307935" lon="8.49606318119191"><ele>162.0</ele><time>2026-05-01T10:17:37Z</time></trkpt><trkpt lat="44.68029570479726" lon="8.496176414854677"><ele>162.0</ele><time>2026-05-01T10:17:38Z</time></trkpt><trkpt lat="44.6802953709351" lon="8.496322210737425"><ele>162.0</ele><time>2026-05-01T10:17:39Z</time></trkpt><trkpt lat="44.68028222453822" lon="8.496502871749676"><ele>162.0</ele><time>2026-05-01T10:17:40Z</time></trkpt><trkpt lat="44.680287230134304" lon="8.496697494919937"><ele>162.0</ele><time>2026-05-01T10:17:41Z</time></trkpt><trkpt lat="44.680305896094474" lon="8.496903350759675"><ele>162.0</ele><time>2026-05-01T10:17:42Z</time></trkpt><trkpt lat="44.68032967768331" lon="8.497106925982356"><ele>162.0</ele><time>2026-05-01T10:17:43Z</time></trkpt><trkpt lat="44.6803600599487" lon="8.49731348400598"><ele>162.0</ele><time>2026-05-01T10:17:44Z</time></trkpt><trkpt lat="44.680396622727365" lon="8.497521638940237"><ele>162.0</ele><time>2026-05-01T10:17:45Z</time></trkpt><trkpt lat="44.680449297189774" lon="8.497731134024571"><ele>162.0</ele><time>2026-05-01T10:17:46Z</time></trkpt><trkpt lat="44.68050476246125" lon="8.49794330594384"><ele>162.0</ele><time>2026-05-01T10:17:47Z</time></trkpt><trkpt lat="44.680561720726445" lon="8.498166790084728"><ele>162.0</ele><time>2026-05-01T10:17:48Z</time></trkpt><trkpt lat="44.680618611343434" lon="8.49839985608084"><ele>162.0</ele><time>2026-05-01T10:17:49Z</time></trkpt><trkpt lat="44.68067732513265" lon="8.498644775733078"><ele>162.0</ele><time>2026-05-01T10:17:50Z</time></trkpt><trkpt lat="44.680742499089696" lon="8.498894756778169"><ele>161.33333333333334</ele><time>2026-05-01T10:17:51Z</time></trkpt><trkpt lat="44.680809165380076" lon="8.499151596873595"><ele>160.66666666666669</ele><time>2026-05-01T10:17:52Z</time></trkpt><trkpt lat="44.68087354338221" lon="8.49940589955173"><ele>160.0</ele><time>2026-05-01T10:17:53Z</time></trkpt><trkpt lat="44.680945058330906" lon="8.49966400461631"><ele>160.0</ele><time>2026-05-01T10:17:54Z</time></trkpt><trkpt lat="44.68101067697656" lon="8.499910290745493"><ele>160.0</ele><time>2026-05-01T10:17:55Z</time></trkpt><trkpt lat="44.68108200638452" lon="8.500167083015087"><ele>160.0</ele><time>2026-05-01T10:17:56Z</time></trkpt><trkpt lat="44.68114229445146" lon="8.500417668423273"><ele>161.33333333333334</ele><time>2026-05-01T10:17:57Z</time></trkpt><trkpt lat="44.68119915827602" lon="8.500670425748037"><ele>162.66666666666666</ele><time>2026-05-01T10:17:58Z</time></trkpt><trkpt lat="44.68125778276346" lon="8.500910934055435"><ele>164.0</ele><time>2026-05-01T10:17:59Z</time></trkpt><trkpt lat="44.68132050798649" lon="8.50114287787274"><ele>163.33333333333331</ele><time>2026-05-01T10:18:00Z</time></trkpt><trkpt lat="44.681382706322715" lon="8.501369498772572"><ele>162.66666666666666</ele><time>2026-05-01T10:18:01Z</time></trkpt><trkpt lat="44.681441392176" lon="8.501592741056575"><ele>162.0</ele><time>2026-05-01T10:18:02Z</time></trkpt><trkpt lat="44.68149932369076" lon="8.501810134659603"><ele>162.0</ele><time>2026-05-01T10:18:03Z</time></trkpt><trkpt lat="44.681551669615914" lon="8.502013273158441"><ele>162.0</ele><time>2026-05-01T10:18:04Z</time></trkpt><trkpt lat="44.68160299832045" lon="8.502205193443812"><ele>162.0</ele><time>2026-05-01T10:18:05Z</time></trkpt><trkpt lat="44.681657058881086" lon="8.502395846441114"><ele>162.0</ele><time>2026-05-01T10:18:06Z</time></trkpt><trkpt lat="44.68171367567145" lon="8.502604809861557"><ele>160.75</ele><time>2026-05-01T10:18:07Z</time></trkpt><trkpt lat="44.68177144092438" lon="8.502824593935681"><ele>159.5</ele><time>2026-05-01T10:18:08Z</time></trkpt><trkpt lat="44.68181852616312" lon="8.503006723230726"><ele>158.25</ele><time>2026-05-01T10:18:09Z</time></trkpt><trkpt lat="44.68185993043244" lon="8.503189001535455"><ele>157.0</ele><time>2026-05-01T10:18:10Z</time></trkpt><trkpt lat="44.68187881943393" lon="8.503374711636415"><ele>155.75</ele><time>2026-05-01T10:18:11Z</time></trkpt><trkpt lat="44.681855765658405" lon="8.503560941346363"><ele>154.5</ele><time>2026-05-01T10:18:11.999Z</time></trkpt><trkpt lat="44.68182748453191" lon="8.503719481935837"><ele>153.25</ele><time>2026-05-01T10:18:12.999Z</time></trkpt><trkpt lat="44.68184882456553" lon="8.503860695075579"><ele>152.0</ele><time>2026-05-01T10:18:13.999Z</time></trkpt><trkpt lat="44.68191373252399" lon="8.503978703180417"><ele>152.25</ele><time>2026-05-01T10:18:14.999Z</time></trkpt><trkpt lat="44.68200265680442" lon="8.504066155336764"><ele>152.5</ele><time>2026-05-01T10:18:15.999Z</time></trkpt><trkpt lat="44.6820980679834" lon="8.504140741336329"><ele>152.75</ele><time>2026-05-01T10:18:16.999Z</time></trkpt><trkpt lat="44.68216865872551" lon="8.504303053987709"><ele>153.0</ele><time>2026-05-01T10:18:17.999Z</time></trkpt><trkpt lat="44.68220961675899" lon="8.50451244121078"><ele>153.33333333333334</ele><time>2026-05-01T10:18:18.999Z</time></trkpt><trkpt lat="44.68227773406253" lon="8.504770839995953"><ele>153.66666666666669</ele><time>2026-05-01T10:18:19.999Z</time></trkpt><trkpt lat="44.682354933536175" lon="8.505049475678614"><ele>154.0</ele><time>2026-05-01T10:18:20.999Z</time></trkpt><trkpt lat="44.68241850767245" lon="8.50531304373876"><ele>153.66666666666669</ele><time>2026-05-01T10:18:21.999Z</time></trkpt><trkpt lat="44.68248592764195" lon="8.505592419509885"><ele>153.33333333333334</ele><time>2026-05-01T10:18:22.999Z</time></trkpt><trkpt lat="44.68255626610236" lon="8.505874987730227"><ele>153.0</ele><time>2026-05-01T10:18:23.999Z</time></trkpt><trkpt lat="44.682626702674156" lon="8.50615753277485"><ele>153.0</ele><time>2026-05-01T10:18:24.999Z</time></trkpt><trkpt lat="44.68269745732387" lon="8.506438968329139"><ele>153.0</ele><time>2026-05-01T10:18:25.999Z</time></trkpt><trkpt lat="44.68277272020763" lon="8.506730360684141"><ele>153.0</ele><time>2026-05-01T10:18:26.999Z</time></trkpt><trkpt lat="44.68285153140209" lon="8.507023140684996"><ele>152.33333333333334</ele><time>2026-05-01T10:18:27.999Z</time></trkpt><trkpt lat="44.68293021655342" lon="8.507315968528951"><ele>151.66666666666669</ele><time>2026-05-01T10:18:28.999Z</time></trkpt><trkpt lat="44.68299374085985" lon="8.50755752555276"><ele>151.0</ele><time>2026-05-01T10:18:29.999Z</time></trkpt><trkpt lat="44.68306985620253" lon="8.507834390947576"><ele>150.66666666666669</ele><time>2026-05-01T10:18:30.999Z</time></trkpt><trkpt lat="44.68314459107686" lon="8.508112897145285"><ele>150.33333333333334</ele><time>2026-05-01T10:18:31.999Z</time></trkpt><trkpt lat="44.683216972190124" lon="8.50839340873132"><ele>150.0</ele><time>2026-05-01T10:18:32.999Z</time></trkpt><trkpt lat="44.68328978426149" lon="8.508673429838387"><ele>150.0</ele><time>2026-05-01T10:18:33.999Z</time></trkpt><trkpt lat="44.683363694881415" lon="8.508953344405667"><ele>150.0</ele><time>2026-05-01T10:18:34.999Z</time></trkpt><trkpt lat="44.683438680251875" lon="8.50923326825024"><ele>150.0</ele><time>2026-05-01T10:18:35.999Z</time></trkpt><trkpt lat="44.683512561975576" lon="8.509513510170347"><ele>150.0</ele><time>2026-05-01T10:18:36.999Z</time></trkpt><trkpt lat="44.68358200340744" lon="8.50979482862928"><ele>150.0</ele><time>2026-05-01T10:18:37.999Z</time></trkpt><trkpt lat="44.68363846612" lon="8.51007317372086"><ele>150.0</ele><time>2026-05-01T10:18:38.999Z</time></trkpt><trkpt lat="44.683675277767115" lon="8.510362095186919"><ele>151.33333333333334</ele><time>2026-05-01T10:18:39.999Z</time></trkpt><trkpt lat="44.6836880476208" lon="8.510667689126127"><ele>152.66666666666669</ele><time>2026-05-01T10:18:40.999Z</time></trkpt><trkpt lat="44.68368272714635" lon="8.510962481284539"><ele>154.0</ele><time>2026-05-01T10:18:41.999Z</time></trkpt><trkpt lat="44.68367653739513" lon="8.511255233776629"><ele>154.0</ele><time>2026-05-01T10:18:42.999Z</time></trkpt><trkpt lat="44.683703612461315" lon="8.511347365590268"><ele>154.0</ele><time>2026-05-01T10:18:43.999Z</time></trkpt><trkpt lat="44.6836963979169" lon="8.511517976466164"><ele>154.0</ele><time>2026-05-01T10:18:44.999Z</time></trkpt><trkpt lat="44.68368280805995" lon="8.511673310092181"><ele>154.0</ele><time>2026-05-01T10:18:45.999Z</time></trkpt><trkpt lat="44.683654570636214" lon="8.511824955666295"><ele>154.0</ele><time>2026-05-01T10:18:46.999Z</time></trkpt><trkpt lat="44.68358320006936" lon="8.511938445682368"><ele>152.4</ele><time>2026-05-01T10:18:47.999Z</time></trkpt><trkpt lat="44.68348673505714" lon="8.512020999180011"><ele>150.8</ele><time>2026-05-01T10:18:48.999Z</time></trkpt><trkpt lat="44.68341976153952" lon="8.512129510638344"><ele>149.2</ele><time>2026-05-01T10:18:49.999Z</time></trkpt><trkpt lat="44.68339912165498" lon="8.512274455061972"><ele>147.6</ele><time>2026-05-01T10:18:50.999Z</time></trkpt><trkpt lat="44.68342400541508" lon="8.512419221572143"><ele>146.0</ele><time>2026-05-01T10:18:51.999Z</time></trkpt><trkpt lat="44.683488140442805" lon="8.512525802839448"><ele>146.0</ele><time>2026-05-01T10:18:52.999Z</time></trkpt><trkpt lat="44.683578082571" lon="8.512596086497863"><ele>146.0</ele><time>2026-05-01T10:18:53.999Z</time></trkpt><trkpt lat="44.6836853890867" lon="8.512613690596938"><ele>146.0</ele><time>2026-05-01T10:18:54.999Z</time></trkpt><trkpt lat="44.683782746805996" lon="8.51257317098195"><ele>146.0</ele><time>2026-05-01T10:18:55.999Z</time></trkpt><trkpt lat="44.68387118649705" lon="8.512495548703447"><ele>146.0</ele><time>2026-05-01T10:18:56.999Z</time></trkpt><trkpt lat="44.68394095088381" lon="8.512409246318509"><ele>147.4</ele><time>2026-05-01T10:18:57.999Z</time></trkpt><trkpt lat="44.684000099241224" lon="8.512314771715397"><ele>148.8</ele><time>2026-05-01T10:18:58.999Z</time></trkpt><trkpt lat="44.68403024070107" lon="8.512188788115859"><ele>150.20000000000002</ele><time>2026-05-01T10:18:59.999Z</time></trkpt><trkpt lat="44.68417563197646" lon="8.512236033548009"><ele>151.6</ele><time>2026-05-01T10:19:00.999Z</time></trkpt><trkpt lat="44.68427788438439" lon="8.512272243810827"><ele>153.0</ele><time>2026-05-01T10:19:01.999Z</time></trkpt><trkpt lat="44.684317481825595" lon="8.51242976412713"><ele>153.0</ele><time>2026-05-01T10:19:02.999Z</time></trkpt><trkpt lat="44.68431711607361" lon="8.512605765211946"><ele>153.0</ele><time>2026-05-01T10:19:03.999Z</time></trkpt><trkpt lat="44.68438851557104" lon="8.512823087985794"><ele>153.0</ele><time>2026-05-01T10:19:04.999Z</time></trkpt><trkpt lat="44.684444899690384" lon="8.513094604621465"><ele>156.0</ele><time>2026-05-01T10:19:05.999Z</time></trkpt><trkpt lat="44.68451608711367" lon="8.513351060763071"><ele>159.0</ele><time>2026-05-01T10:19:06.999Z</time></trkpt><trkpt lat="44.68457869529778" lon="8.51359907299087"><ele>162.0</ele><time>2026-05-01T10:19:07.999Z</time></trkpt><trkpt lat="44.684631774092715" lon="8.513823456106703"><ele>162.0</ele><time>2026-05-01T10:19:08.999Z</time></trkpt><trkpt lat="44.68470006186714" lon="8.5140456577995"><ele>162.0</ele><time>2026-05-01T10:19:09.999Z</time></trkpt><trkpt lat="44.684800753934425" lon="8.514283883405321"><ele>162.0</ele><time>2026-05-01T10:19:10.999Z</time></trkpt><trkpt lat="44.68494452886245" lon="8.514529193076335"><ele>161.5</ele><time>2026-05-01T10:19:11.999Z</time></trkpt><trkpt lat="44.685123229348285" lon="8.514770638924938"><ele>161.0</ele><time>2026-05-01T10:19:12.999Z</time></trkpt><trkpt lat="44.685323158651975" lon="8.515004254788"><ele>161.0</ele><time>2026-05-01T10:19:13.999Z</time></trkpt><trkpt lat="44.68552980712574" lon="8.515241818526558"><ele>161.0</ele><time>2026-05-01T10:19:15Z</time></trkpt><trkpt lat="44.68572784120093" lon="8.515476666290185"><ele>161.0</ele><time>2026-05-01T10:19:16Z</time></trkpt><trkpt lat="44.68592552654943" lon="8.51570808377297"><ele>161.0</ele><time>2026-05-01T10:19:17Z</time></trkpt><trkpt lat="44.68611830985368" lon="8.515939213407963"><ele>160.5</ele><time>2026-05-01T10:19:18Z</time></trkpt><trkpt lat="44.686309457989914" lon="8.516170651753745"><ele>160.0</ele><time>2026-05-01T10:19:19Z</time></trkpt><trkpt lat="44.686499759698535" lon="8.516398206076671"><ele>160.0</ele><time>2026-05-01T10:19:20Z</time></trkpt><trkpt lat="44.686683819259194" lon="8.516622419244566"><ele>160.0</ele><time>2026-05-01T10:19:21Z</time></trkpt><trkpt lat="44.68685157797516" lon="8.516844462480467"><ele>160.66666666666669</ele><time>2026-05-01T10:19:22Z</time></trkpt><trkpt lat="44.687008382821524" lon="8.517063071248943"><ele>161.33333333333334</ele><time>2026-05-01T10:19:23Z</time></trkpt><trkpt lat="44.687153191984834" lon="8.517272668046354"><ele>162.0</ele><time>2026-05-01T10:19:24Z</time></trkpt><trkpt lat="44.68729325328156" lon="8.517476499301734"><ele>162.0</ele><time>2026-05-01T10:19:25Z</time></trkpt><trkpt lat="44.68742844133508" lon="8.51766142690844"><ele>162.0</ele><time>2026-05-01T10:19:26Z</time></trkpt><trkpt lat="44.6875589854243" lon="8.51783732702865"><ele>162.0</ele><time>2026-05-01T10:19:27Z</time></trkpt><trkpt lat="44.687684344414045" lon="8.518008401498268"><ele>163.0</ele><time>2026-05-01T10:19:28Z</time></trkpt><trkpt lat="44.68780517610175" lon="8.518179442097704"><ele>164.0</ele><time>2026-05-01T10:19:29Z</time></trkpt><trkpt lat="44.687921295584374" lon="8.518345704430457"><ele>165.0</ele><time>2026-05-01T10:19:30Z</time></trkpt><trkpt lat="44.6880373207222" lon="8.518513277362604"><ele>165.0</ele><time>2026-05-01T10:19:31Z</time></trkpt><trkpt lat="44.68815885599563" lon="8.518679968623513"><ele>165.0</ele><time>2026-05-01T10:19:32Z</time></trkpt><trkpt lat="44.68828391981129" lon="8.518844487489147"><ele>165.0</ele><time>2026-05-01T10:19:33Z</time></trkpt><trkpt lat="44.68840769922669" lon="8.51900520469272"><ele>164.0</ele><time>2026-05-01T10:19:34Z</time></trkpt><trkpt lat="44.68853050011332" lon="8.519164864804722"><ele>163.0</ele><time>2026-05-01T10:19:35Z</time></trkpt><trkpt lat="44.68865271937469" lon="8.51932846305322"><ele>162.0</ele><time>2026-05-01T10:19:36Z</time></trkpt><trkpt lat="44.68877409473501" lon="8.519497547498322"><ele>161.33333333333334</ele><time>2026-05-01T10:19:37Z</time></trkpt><trkpt lat="44.688897361342384" lon="8.519671644702342"><ele>160.66666666666669</ele><time>2026-05-01T10:19:38Z</time></trkpt><trkpt lat="44.68902045423975" lon="8.519845402943167"><ele>160.0</ele><time>2026-05-01T10:19:39Z</time></trkpt><trkpt lat="44.689147242868216" lon="8.520020833648822"><ele>160.0</ele><time>2026-05-01T10:19:40Z</time></trkpt><trkpt lat="44.68927617448933" lon="8.52019506608934"><ele>160.0</ele><time>2026-05-01T10:19:41Z</time></trkpt><trkpt lat="44.68940822926747" lon="8.520371200144384"><ele>160.0</ele><time>2026-05-01T10:19:42Z</time></trkpt><trkpt lat="44.689541068766204" lon="8.52055061602629"><ele>159.0</ele><time>2026-05-01T10:19:43Z</time></trkpt><trkpt lat="44.689652231198934" lon="8.520704121553658"><ele>158.0</ele><time>2026-05-01T10:19:44Z</time></trkpt><trkpt lat="44.68972042396891" lon="8.52080518499693"><ele>157.0</ele><time>2026-05-01T10:19:45Z</time></trkpt><trkpt lat="44.68980271187619" lon="8.520861030645326"><ele>156.0</ele><time>2026-05-01T10:19:47Z</time></trkpt><trkpt lat="44.689842053184975" lon="8.52078185920126"><ele>155.0</ele><time>2026-05-01T10:19:49Z</time></trkpt><trkpt lat="44.689888429270745" lon="8.52070585070738"><ele>155.0</ele><time>2026-05-01T10:19:51Z</time></trkpt><trkpt lat="44.690007398013336" lon="8.520686860677632"><ele>155.0</ele><time>2026-05-01T10:19:53Z</time></trkpt><trkpt lat="44.69008521426395" lon="8.520677552047598"><ele>155.0</ele><time>2026-05-01T10:19:54Z</time></trkpt><trkpt lat="44.69017484995506" lon="8.520670901795494"><ele>155.0</ele><time>2026-05-01T10:19:55Z</time></trkpt><trkpt lat="44.6902701475612" lon="8.520665666965117"><ele>155.0</ele><time>2026-05-01T10:19:56Z</time></trkpt><trkpt lat="44.69037506046884" lon="8.52066033624424"><ele>155.25</ele><time>2026-05-01T10:19:57Z</time></trkpt><trkpt lat="44.690489977237185" lon="8.520636677965513"><ele>155.5</ele><time>2026-05-01T10:19:58Z</time></trkpt><trkpt lat="44.690611691608844" lon="8.52063564898892"><ele>155.75</ele><time>2026-05-01T10:19:59Z</time></trkpt><trkpt lat="44.690747789034965" lon="8.520633948141416"><ele>156.0</ele><time>2026-05-01T10:20:00Z</time></trkpt><trkpt lat="44.69089856178754" lon="8.520624761618484"><ele>156.0</ele><time>2026-05-01T10:20:01Z</time></trkpt><trkpt lat="44.69105988143662" lon="8.520606739485478"><ele>156.0</ele><time>2026-05-01T10:20:02Z</time></trkpt><trkpt lat="44.691220365089336" lon="8.520592679156268"><ele>156.0</ele><time>2026-05-01T10:20:03Z</time></trkpt><trkpt lat="44.69138027929894" lon="8.520583329890277"><ele>159.66666666666666</ele><time>2026-05-01T10:20:04Z</time></trkpt><trkpt lat="44.69153856309761" lon="8.520595597057085"><ele>163.33333333333331</ele><time>2026-05-01T10:20:05Z</time></trkpt><trkpt lat="44.69169587141865" lon="8.520564952731906"><ele>167.0</ele><time>2026-05-01T10:20:06Z</time></trkpt><trkpt lat="44.69185012590557" lon="8.520559012005444"><ele>170.66666666666666</ele><time>2026-05-01T10:20:07Z</time></trkpt><trkpt lat="44.69200439999898" lon="8.520555265560658"><ele>174.33333333333334</ele><time>2026-05-01T10:20:08Z</time></trkpt><trkpt lat="44.69215508327429" lon="8.520548446785083"><ele>178.0</ele><time>2026-05-01T10:20:09Z</time></trkpt><trkpt lat="44.692301753464754" lon="8.520531222295919"><ele>178.0</ele><time>2026-05-01T10:20:10Z</time></trkpt><trkpt lat="44.692444914822836" lon="8.520517930500583"><ele>178.0</ele><time>2026-05-01T10:20:11Z</time></trkpt><trkpt lat="44.692587927610454" lon="8.52051160087981"><ele>178.0</ele><time>2026-05-01T10:20:12Z</time></trkpt><trkpt lat="44.692724381492056" lon="8.52050687840361"><ele>178.0</ele><time>2026-05-01T10:20:13Z</time></trkpt><trkpt lat="44.69285504883691" lon="8.520503860601197"><ele>178.25</ele><time>2026-05-01T10:20:14Z</time></trkpt><trkpt lat="44.69298236438476" lon="8.520520029237314"><ele>178.5</ele><time>2026-05-01T10:20:15Z</time></trkpt><trkpt lat="44.69311126330945" lon="8.520556394742979"><ele>178.75</ele><time>2026-05-01T10:20:16Z</time></trkpt><trkpt lat="44.69324360424786" lon="8.520597307070998"><ele>179.0</ele><time>2026-05-01T10:20:17Z</time></trkpt><trkpt lat="44.69337808361623" lon="8.520631439326475"><ele>179.0</ele><time>2026-05-01T10:20:18Z</time></trkpt><trkpt lat="44.69351577454237" lon="8.520670485030514"><ele>179.0</ele><time>2026-05-01T10:20:19Z</time></trkpt><trkpt lat="44.69365221638594" lon="8.52071805455154"><ele>179.0</ele><time>2026-05-01T10:20:20Z</time></trkpt><trkpt lat="44.69378666852508" lon="8.520761698283545"><ele>179.0</ele><time>2026-05-01T10:20:21Z</time></trkpt><trkpt lat="44.69391047921669" lon="8.520805447548904"><ele>180.0</ele><time>2026-05-01T10:20:21.999Z</time></trkpt><trkpt lat="44.694043511666166" lon="8.520839385991932"><ele>181.0</ele><time>2026-05-01T10:20:22.999Z</time></trkpt><trkpt lat="44.69416613097636" lon="8.520877350096658"><ele>182.0</ele><time>2026-05-01T10:20:23.999Z</time></trkpt><trkpt lat="44.69429198258144" lon="8.520909976209534"><ele>183.0</ele><time>2026-05-01T10:20:24.999Z</time></trkpt><trkpt lat="44.694415144084154" lon="8.52094798759952"><ele>183.0</ele><time>2026-05-01T10:20:25.999Z</time></trkpt><trkpt lat="44.6945351926418" lon="8.520997301746617"><ele>183.0</ele><time>2026-05-01T10:20:26.999Z</time></trkpt><trkpt lat="44.694650938504864" lon="8.521050929896058"><ele>183.0</ele><time>2026-05-01T10:20:27.999Z</time></trkpt><trkpt lat="44.69476455746301" lon="8.52110290347494"><ele>183.0</ele><time>2026-05-01T10:20:28.999Z</time></trkpt><trkpt lat="44.694870214624146" lon="8.521151458735584"><ele>183.0</ele><time>2026-05-01T10:20:29.999Z</time></trkpt><trkpt lat="44.694974165014074" lon="8.521189248828541"><ele>183.0</ele><time>2026-05-01T10:20:30.999Z</time></trkpt><trkpt lat="44.69507189820475" lon="8.521219262790876"><ele>183.0</ele><time>2026-05-01T10:20:31.999Z</time></trkpt><trkpt lat="44.69516673082966" lon="8.521245566254319"><ele>183.0</ele><time>2026-05-01T10:20:32.999Z</time></trkpt><trkpt lat="44.695260539350635" lon="8.521260023274573"><ele>183.0</ele><time>2026-05-01T10:20:33.999Z</time></trkpt><trkpt lat="44.69537221585179" lon="8.521298116474268"><ele>182.8</ele><time>2026-05-01T10:20:34.999Z</time></trkpt><trkpt lat="44.695472734049424" lon="8.521344507225296"><ele>182.60000000000002</ele><time>2026-05-01T10:20:35.999Z</time></trkpt><trkpt lat="44.69555867602822" lon="8.521395054033672"><ele>182.39999999999998</ele><time>2026-05-01T10:20:36.999Z</time></trkpt><trkpt lat="44.69563498670314" lon="8.521448796138463"><ele>182.2</ele><time>2026-05-01T10:20:37.999Z</time></trkpt><trkpt lat="44.69571854077299" lon="8.521502217234314"><ele>182.0</ele><time>2026-05-01T10:20:38.999Z</time></trkpt><trkpt lat="44.6958143333057" lon="8.521553585861213"><ele>182.0</ele><time>2026-05-01T10:20:39.999Z</time></trkpt><trkpt lat="44.69590877914536" lon="8.521565416098296"><ele>182.0</ele><time>2026-05-01T10:20:40.999Z</time></trkpt><trkpt lat="44.695991343767794" lon="8.52158992429099"><ele>182.0</ele><time>2026-05-01T10:20:41.999Z</time></trkpt><trkpt lat="44.696081377739375" lon="8.5216297900456"><ele>182.0</ele><time>2026-05-01T10:20:42.999Z</time></trkpt><trkpt lat="44.696170691828584" lon="8.521682448698046"><ele>182.0</ele><time>2026-05-01T10:20:43.999Z</time></trkpt><trkpt lat="44.69624974966653" lon="8.521706487373365"><ele>182.2</ele><time>2026-05-01T10:20:44.999Z</time></trkpt><trkpt lat="44.69633421110757" lon="8.521731851216549"><ele>182.39999999999998</ele><time>2026-05-01T10:20:45.999Z</time></trkpt><trkpt lat="44.69641209077318" lon="8.52177086812785"><ele>182.60000000000002</ele><time>2026-05-01T10:20:46.999Z</time></trkpt><trkpt lat="44.69649311656373" lon="8.521812252792854"><ele>182.8</ele><time>2026-05-01T10:20:47.999Z</time></trkpt><trkpt lat="44.69658673357567" lon="8.521849917446872"><ele>183.0</ele><time>2026-05-01T10:20:48.999Z</time></trkpt><trkpt lat="44.696680681939554" lon="8.521894831291558"><ele>183.0</ele><time>2026-05-01T10:20:49.999Z</time></trkpt><trkpt lat="44.69677507867419" lon="8.521918885348857"><ele>183.0</ele><time>2026-05-01T10:20:50.999Z</time></trkpt><trkpt lat="44.69687121410657" lon="8.521944849246829"><ele>183.0</ele><time>2026-05-01T10:20:51.999Z</time></trkpt><trkpt lat="44.69695614759907" lon="8.521978661206623"><ele>183.0</ele><time>2026-05-01T10:20:52.999Z</time></trkpt><trkpt lat="44.69704283191086" lon="8.522010768187828"><ele>183.0</ele><time>2026-05-01T10:20:53.999Z</time></trkpt><trkpt lat="44.6971285716713" lon="8.522033205664089"><ele>181.83333333333334</ele><time>2026-05-01T10:20:54.999Z</time></trkpt><trkpt lat="44.69721559587893" lon="8.522054486088775"><ele>180.66666666666666</ele><time>2026-05-01T10:20:55.999Z</time></trkpt><trkpt lat="44.697291002829544" lon="8.522119613299147"><ele>179.5</ele><time>2026-05-01T10:20:56.999Z</time></trkpt><trkpt lat="44.69737131926154" lon="8.522156283426769"><ele>178.33333333333331</ele><time>2026-05-01T10:20:57.999Z</time></trkpt><trkpt lat="44.6974519656262" lon="8.522197901839887"><ele>177.16666666666666</ele><time>2026-05-01T10:20:58.999Z</time></trkpt><trkpt lat="44.69753462679144" lon="8.522225419193415"><ele>176.0</ele><time>2026-05-01T10:20:59.999Z</time></trkpt><trkpt lat="44.697598690425366" lon="8.522270293431788"><ele>175.20000000000002</ele><time>2026-05-01T10:21:00.999Z</time></trkpt><trkpt lat="44.697672093244044" lon="8.522289592652674"><ele>174.4</ele><time>2026-05-01T10:21:01.999Z</time></trkpt><trkpt lat="44.69779196795801" lon="8.522328258216772"><ele>173.6</ele><time>2026-05-01T10:21:03.999Z</time></trkpt><trkpt lat="44.69791564696842" lon="8.522321461084395"><ele>172.8</ele><time>2026-05-01T10:21:05.999Z</time></trkpt><trkpt lat="44.69803008871099" lon="8.522316957559"><ele>172.0</ele><time>2026-05-01T10:21:07.999Z</time></trkpt><trkpt lat="44.698151063075244" lon="8.522296352654905"><ele>171.5</ele><time>2026-05-01T10:21:09.999Z</time></trkpt><trkpt lat="44.69821708618827" lon="8.522300191839365"><ele>171.0</ele><time>2026-05-01T10:21:10.999Z</time></trkpt><trkpt lat="44.69828608965791" lon="8.522311550188428"><ele>170.5</ele><time>2026-05-01T10:21:11.999Z</time></trkpt><trkpt lat="44.698344606799694" lon="8.52234931091008"><ele>170.0</ele><time>2026-05-01T10:21:12.999Z</time></trkpt><trkpt lat="44.69843180940055" lon="8.522426522201954"><ele>169.5</ele><time>2026-05-01T10:21:14.999Z</time></trkpt><trkpt lat="44.698469868047916" lon="8.522527987932474"><ele>169.0</ele><time>2026-05-01T10:21:16.999Z</time></trkpt><trkpt lat="44.698558419751826" lon="8.522605851340645"><ele>167.0</ele><time>2026-05-01T10:21:18.999Z</time></trkpt><trkpt lat="44.69866916714225" lon="8.522660702866888"><ele>165.0</ele><time>2026-05-01T10:21:21Z</time></trkpt><trkpt lat="44.69873399201843" lon="8.522699884899092"><ele>163.0</ele><time>2026-05-01T10:21:22Z</time></trkpt><trkpt lat="44.6987998164873" lon="8.522743985553543"><ele>161.0</ele><time>2026-05-01T10:21:23Z</time></trkpt><trkpt lat="44.69886513098688" lon="8.522792867572049"><ele>159.0</ele><time>2026-05-01T10:21:24Z</time></trkpt><trkpt lat="44.69893412956382" lon="8.52283745064872"><ele>157.0</ele><time>2026-05-01T10:21:25Z</time></trkpt><trkpt lat="44.69900194119113" lon="8.52288105178703"><ele>155.14285714285714</ele><time>2026-05-01T10:21:26Z</time></trkpt><trkpt lat="44.69907263055714" lon="8.522928425748127"><ele>153.28571428571428</ele><time>2026-05-01T10:21:27Z</time></trkpt><trkpt lat="44.699145444759104" lon="8.522965365024545"><ele>151.42857142857144</ele><time>2026-05-01T10:21:28Z</time></trkpt><trkpt lat="44.69921564912893" lon="8.523013246539623"><ele>149.57142857142856</ele><time>2026-05-01T10:21:29Z</time></trkpt><trkpt lat="44.699284969928854" lon="8.523048648340414"><ele>147.71428571428572</ele><time>2026-05-01T10:21:30Z</time></trkpt><trkpt lat="44.69935393474688" lon="8.523081783721626"><ele>145.85714285714286</ele><time>2026-05-01T10:21:31Z</time></trkpt><trkpt lat="44.69942042429928" lon="8.523092689677563"><ele>144.0</ele><time>2026-05-01T10:21:32Z</time></trkpt><trkpt lat="44.69953583453212" lon="8.523120500999083"><ele>144.0</ele><time>2026-05-01T10:21:34Z</time></trkpt><trkpt lat="44.69965202599593" lon="8.523140332547133"><ele>144.0</ele><time>2026-05-01T10:21:36Z</time></trkpt><trkpt lat="44.69975951698154" lon="8.52315276126062"><ele>144.0</ele><time>2026-05-01T10:21:38Z</time></trkpt><trkpt lat="44.69983167865409" lon="8.523161105005705"><ele>144.0</ele><time>2026-05-01T10:21:40Z</time></trkpt><trkpt lat="44.69984652225445" lon="8.522914546295516"><ele>144.0</ele><time>2026-05-01T10:21:42Z</time></trkpt><trkpt lat="44.69991422013664" lon="8.52298569569077"><ele>144.0</ele><time>2026-05-01T10:27:43.999Z</time></trkpt><trkpt lat="44.69981688143341" lon="8.523013386644752"><ele>144.0</ele><time>2026-05-01T10:27:44.999Z</time></trkpt><trkpt lat="44.69988484305434" lon="8.523039386873021"><ele>144.0</ele><time>2026-05-01T10:28:42.999Z</time></trkpt><trkpt lat="44.699925504492974" lon="8.523136033793943"><ele>144.0</ele><time>2026-05-01T10:28:44.999Z</time></trkpt><trkpt lat="44.69989901430717" lon="8.523222773126298"><ele>144.0</ele><time>2026-05-01T10:28:47.999Z</time></trkpt><trkpt lat="44.69998160180957" lon="8.5233485463225"><ele>144.0</ele><time>2026-05-01T10:28:50.999Z</time></trkpt><trkpt lat="44.70006504583671" lon="8.523381583358283"><ele>144.0</ele><time>2026-05-01T10:28:51.999Z</time></trkpt><trkpt lat="44.700155392252995" lon="8.523435245650854"><ele>144.0</ele><time>2026-05-01T10:28:52.999Z</time></trkpt><trkpt lat="44.70024874609864" lon="8.523496263649804"><ele>144.0</ele><time>2026-05-01T10:28:53.999Z</time></trkpt><trkpt lat="44.700333059969864" lon="8.523549611653404"><ele>144.0</ele><time>2026-05-01T10:28:54.999Z</time></trkpt><trkpt lat="44.70040452441954" lon="8.52359941712386"><ele>144.33333333333334</ele><time>2026-05-01T10:28:55.999Z</time></trkpt><trkpt lat="44.7004621611283" lon="8.523643327454556"><ele>144.66666666666666</ele><time>2026-05-01T10:28:56.999Z</time></trkpt><trkpt lat="44.70053997089645" lon="8.523706179165593"><ele>145.0</ele><time>2026-05-01T10:28:58.999Z</time></trkpt><trkpt lat="44.70062644227029" lon="8.523803512911611"><ele>145.33333333333331</ele><time>2026-05-01T10:29:01.999Z</time></trkpt><trkpt lat="44.70067588012006" lon="8.523879575060224"><ele>145.66666666666666</ele><time>2026-05-01T10:29:02.999Z</time></trkpt><trkpt lat="44.700730720078376" lon="8.523967190725658"><ele>146.0</ele><time>2026-05-01T10:29:03.999Z</time></trkpt><trkpt lat="44.70078000898275" lon="8.524066613026879"><ele>146.0</ele><time>2026-05-01T10:29:04.999Z</time></trkpt><trkpt lat="44.700826257348496" lon="8.524177399900461"><ele>146.0</ele><time>2026-05-01T10:29:05.999Z</time></trkpt><trkpt lat="44.700868632988296" lon="8.524313819058314"><ele>146.0</ele><time>2026-05-01T10:29:06.999Z</time></trkpt><trkpt lat="44.70090441052948" lon="8.52448038673112"><ele>146.0</ele><time>2026-05-01T10:29:07.999Z</time></trkpt><trkpt lat="44.70093550610344" lon="8.524652328157769"><ele>146.0</ele><time>2026-05-01T10:29:08.999Z</time></trkpt><trkpt lat="44.70097929768605" lon="8.524826534478835"><ele>145.25</ele><time>2026-05-01T10:29:09.999Z</time></trkpt><trkpt lat="44.70103317031944" lon="8.525001977001681"><ele>144.5</ele><time>2026-05-01T10:29:10.999Z</time></trkpt><trkpt lat="44.70108459486919" lon="8.52518017574535"><ele>143.75</ele><time>2026-05-01T10:29:11.999Z</time></trkpt><trkpt lat="44.70113121067724" lon="8.525360087278688"><ele>143.0</ele><time>2026-05-01T10:29:12.999Z</time></trkpt><trkpt lat="44.70118788493242" lon="8.52553410607137"><ele>144.6</ele><time>2026-05-01T10:29:13.999Z</time></trkpt><trkpt lat="44.70125539915879" lon="8.525668594467914"><ele>146.20000000000002</ele><time>2026-05-01T10:29:14.999Z</time></trkpt><trkpt lat="44.701338943190066" lon="8.525778478011867"><ele>147.8</ele><time>2026-05-01T10:29:15.999Z</time></trkpt><trkpt lat="44.701426612986914" lon="8.525861494467867"><ele>149.4</ele><time>2026-05-01T10:29:16.999Z</time></trkpt><trkpt lat="44.701516290771885" lon="8.525922005489585"><ele>151.0</ele><time>2026-05-01T10:29:17.999Z</time></trkpt><trkpt lat="44.70159841498217" lon="8.525974657221496"><ele>151.0</ele><time>2026-05-01T10:29:18.999Z</time></trkpt><trkpt lat="44.70166183281603" lon="8.526023129429536"><ele>151.0</ele><time>2026-05-01T10:29:19.999Z</time></trkpt><trkpt lat="44.701726586314166" lon="8.52609509442054"><ele>151.0</ele><time>2026-05-01T10:29:21.999Z</time></trkpt><trkpt lat="44.701787130864446" lon="8.526133870236281"><ele>151.0</ele><time>2026-05-01T10:29:23.999Z</time></trkpt><trkpt lat="44.70167644231207" lon="8.525982135292722"><ele>151.0</ele><time>2026-05-01T10:29:28.999Z</time></trkpt><trkpt lat="44.70160503403056" lon="8.525947092419955"><ele>151.0</ele><time>2026-05-01T10:29:29.999Z</time></trkpt><trkpt lat="44.70153004687015" lon="8.525898429913166"><ele>151.0</ele><time>2026-05-01T10:29:30.999Z</time></trkpt><trkpt lat="44.70145322307966" lon="8.525841924277328"><ele>151.0</ele><time>2026-05-01T10:29:31.999Z</time></trkpt><trkpt lat="44.70137477509121" lon="8.525770394994918"><ele>151.0</ele><time>2026-05-01T10:29:32.999Z</time></trkpt><trkpt lat="44.701302313996074" lon="8.525685751780777"><ele>151.0</ele><time>2026-05-01T10:29:33.999Z</time></trkpt><trkpt lat="44.7012374955912" lon="8.52558193246646"><ele>151.0</ele><time>2026-05-01T10:29:34.999Z</time></trkpt><trkpt lat="44.70118989983305" lon="8.525460544132455"><ele>151.0</ele><time>2026-05-01T10:29:35.999Z</time></trkpt><trkpt lat="44.7011468045695" lon="8.525339129600455"><ele>151.0</ele><time>2026-05-01T10:29:36.999Z</time></trkpt><trkpt lat="44.70111055610639" lon="8.525224950562107"><ele>151.0</ele><time>2026-05-01T10:29:37.999Z</time></trkpt><trkpt lat="44.70108092516027" lon="8.525117562410161"><ele>151.0</ele><time>2026-05-01T10:29:38.999Z</time></trkpt><trkpt lat="44.70105117174431" lon="8.525017133856307"><ele>151.0</ele><time>2026-05-01T10:29:39.999Z</time></trkpt><trkpt lat="44.7010254032759" lon="8.524922306540697"><ele>150.16666666666669</ele><time>2026-05-01T10:29:40.999Z</time></trkpt><trkpt lat="44.70100310704726" lon="8.524834798051344"><ele>149.33333333333334</ele><time>2026-05-01T10:29:41.999Z</time></trkpt><trkpt lat="44.70096919859631" lon="8.524681347556308"><ele>148.5</ele><time>2026-05-01T10:29:43.999Z</time></trkpt><trkpt lat="44.70093734622428" lon="8.524563706407122"><ele>147.66666666666666</ele><time>2026-05-01T10:29:45.999Z</time></trkpt><trkpt lat="44.70091538524065" lon="8.524470241011812"><ele>146.83333333333331</ele><time>2026-05-01T10:29:48.999Z</time></trkpt><trkpt lat="44.700879517707826" lon="8.524345766801229"><ele>146.0</ele><time>2026-05-01T10:30:06.999Z</time></trkpt><trkpt lat="44.70085644009472" lon="8.524255633092128"><ele>146.0</ele><time>2026-05-01T10:30:07.999Z</time></trkpt><trkpt lat="44.70081836758958" lon="8.524109856773942"><ele>146.0</ele><time>2026-05-01T10:30:09.999Z</time></trkpt><trkpt lat="44.70078393925511" lon="8.523987471533472"><ele>146.0</ele><time>2026-05-01T10:30:11.999Z</time></trkpt><trkpt lat="44.700660723736014" lon="8.523890927596026"><ele>146.0</ele><time>2026-05-01T10:30:13.999Z</time></trkpt><trkpt lat="44.70056314190629" lon="8.523990830988971"><ele>146.0</ele><time>2026-05-01T10:30:14.999Z</time></trkpt><trkpt lat="44.70070391562168" lon="8.524199287198554"><ele>146.0</ele><time>2026-05-01T10:30:15.999Z</time></trkpt><trkpt lat="44.7007291310782" lon="8.524295100319033"><ele>146.0</ele><time>2026-05-01T10:30:16.999Z</time></trkpt><trkpt lat="44.70075800726255" lon="8.524416631457433"><ele>146.0</ele><time>2026-05-01T10:30:17.999Z</time></trkpt><trkpt lat="44.700780700724785" lon="8.524556373775509"><ele>145.25</ele><time>2026-05-01T10:30:18.999Z</time></trkpt><trkpt lat="44.700798222017674" lon="8.524721710284922"><ele>144.5</ele><time>2026-05-01T10:30:19.999Z</time></trkpt><trkpt lat="44.70081399400173" lon="8.524897813965026"><ele>143.75</ele><time>2026-05-01T10:30:20.999Z</time></trkpt><trkpt lat="44.70082238334497" lon="8.525088641826061"><ele>143.0</ele><time>2026-05-01T10:30:21.999Z</time></trkpt><trkpt lat="44.70082974432903" lon="8.525277838587094"><ele>141.5</ele><time>2026-05-01T10:30:22.999Z</time></trkpt><trkpt lat="44.70083090613213" lon="8.525456831356637"><ele>140.0</ele><time>2026-05-01T10:30:23.999Z</time></trkpt><trkpt lat="44.700834481441255" lon="8.525634325274405"><ele>138.5</ele><time>2026-05-01T10:30:24.999Z</time></trkpt><trkpt lat="44.7008384391134" lon="8.525806229594286"><ele>137.0</ele><time>2026-05-01T10:30:25.999Z</time></trkpt><trkpt lat="44.70083537645941" lon="8.525976348637377"><ele>137.0</ele><time>2026-05-01T10:30:26.999Z</time></trkpt><trkpt lat="44.700833263287656" lon="8.526151593185011"><ele>137.0</ele><time>2026-05-01T10:30:27.999Z</time></trkpt><trkpt lat="44.70083692525733" lon="8.526323419283802"><ele>137.0</ele><time>2026-05-01T10:30:28.999Z</time></trkpt><trkpt lat="44.70083809195703" lon="8.526497341668914"><ele>137.0</ele><time>2026-05-01T10:30:29.999Z</time></trkpt><trkpt lat="44.70084048287142" lon="8.52667159835369"><ele>136.5</ele><time>2026-05-01T10:30:30.999Z</time></trkpt><trkpt lat="44.7008446984516" lon="8.526842036294843"><ele>136.0</ele><time>2026-05-01T10:30:31.999Z</time></trkpt><trkpt lat="44.70085242246616" lon="8.527005114473068"><ele>135.5</ele><time>2026-05-01T10:30:32.999Z</time></trkpt><trkpt lat="44.70086274420106" lon="8.527163713052499"><ele>135.0</ele><time>2026-05-01T10:30:33.999Z</time></trkpt><trkpt lat="44.70087756236717" lon="8.527321955098692"><ele>135.0</ele><time>2026-05-01T10:30:34.999Z</time></trkpt><trkpt lat="44.70088069264904" lon="8.527487128260649"><ele>135.0</ele><time>2026-05-01T10:30:35.999Z</time></trkpt><trkpt lat="44.700901939507546" lon="8.527655447033087"><ele>135.0</ele><time>2026-05-01T10:30:36.999Z</time></trkpt><trkpt lat="44.700940000496246" lon="8.527824309247338"><ele>135.0</ele><time>2026-05-01T10:30:37.999Z</time></trkpt><trkpt lat="44.700947843640925" lon="8.528000590837776"><ele>133.25</ele><time>2026-05-01T10:30:38.999Z</time></trkpt><trkpt lat="44.700974687453105" lon="8.528191623433262"><ele>131.5</ele><time>2026-05-01T10:30:39.999Z</time></trkpt><trkpt lat="44.70100349862454" lon="8.528392958421154"><ele>129.75</ele><time>2026-05-01T10:30:40.999Z</time></trkpt><trkpt lat="44.70104019068235" lon="8.528604329499759"><ele>128.0</ele><time>2026-05-01T10:30:41.999Z</time></trkpt><trkpt lat="44.70107261307706" lon="8.528823765765482"><ele>127.33333333333333</ele><time>2026-05-01T10:30:42.999Z</time></trkpt><trkpt lat="44.70110308935165" lon="8.529046969479529"><ele>126.66666666666666</ele><time>2026-05-01T10:30:43.999Z</time></trkpt><trkpt lat="44.70113127449032" lon="8.529277091613572"><ele>126.0</ele><time>2026-05-01T10:30:44.999Z</time></trkpt><trkpt lat="44.70116495683063" lon="8.529511103471386"><ele>126.0</ele><time>2026-05-01T10:30:45.999Z</time></trkpt><trkpt lat="44.70119527216873" lon="8.529752949223548"><ele>126.0</ele><time>2026-05-01T10:30:46.999Z</time></trkpt><trkpt lat="44.70122130393712" lon="8.52999396867361"><ele>126.0</ele><time>2026-05-01T10:30:47.999Z</time></trkpt><trkpt lat="44.701249005924" lon="8.530239850012952"><ele>126.0</ele><time>2026-05-01T10:30:48.999Z</time></trkpt><trkpt lat="44.70127795043611" lon="8.530485947524951"><ele>126.0</ele><time>2026-05-01T10:30:49.999Z</time></trkpt><trkpt lat="44.70130602907557" lon="8.530734739068183"><ele>126.0</ele><time>2026-05-01T10:30:50.999Z</time></trkpt><trkpt lat="44.70133568531082" lon="8.530984059680078"><ele>126.33333333333334</ele><time>2026-05-01T10:30:51.999Z</time></trkpt><trkpt lat="44.701363760153505" lon="8.531234531370822"><ele>126.66666666666667</ele><time>2026-05-01T10:30:52.999Z</time></trkpt><trkpt lat="44.701390111410355" lon="8.53148497002925"><ele>127.0</ele><time>2026-05-01T10:30:53.999Z</time></trkpt><trkpt lat="44.701416537301036" lon="8.531736761094589"><ele>127.0</ele><time>2026-05-01T10:30:54.999Z</time></trkpt><trkpt lat="44.701441873004086" lon="8.531986559811632"><ele>127.0</ele><time>2026-05-01T10:30:55.999Z</time></trkpt><trkpt lat="44.701467111327176" lon="8.532239002396421"><ele>127.0</ele><time>2026-05-01T10:30:56.999Z</time></trkpt><trkpt lat="44.70148566645678" lon="8.532492750063165"><ele>127.33333333333334</ele><time>2026-05-01T10:30:57.999Z</time></trkpt><trkpt lat="44.7014986968524" lon="8.532746277214097"><ele>127.66666666666666</ele><time>2026-05-01T10:30:58.999Z</time></trkpt><trkpt lat="44.701504328045914" lon="8.532995509768357"><ele>128.0</ele><time>2026-05-01T10:30:59.999Z</time></trkpt><trkpt lat="44.70149781546294" lon="8.533228087371869"><ele>128.0</ele><time>2026-05-01T10:31:00.999Z</time></trkpt><trkpt lat="44.70149143544872" lon="8.533457916765045"><ele>128.0</ele><time>2026-05-01T10:31:01.999Z</time></trkpt><trkpt lat="44.70148666954729" lon="8.533681344275786"><ele>128.0</ele><time>2026-05-01T10:31:02.999Z</time></trkpt><trkpt lat="44.701481705259816" lon="8.53389623158549"><ele>128.0</ele><time>2026-05-01T10:31:03.999Z</time></trkpt><trkpt lat="44.70147979175627" lon="8.53410228640188"><ele>128.0</ele><time>2026-05-01T10:31:04.999Z</time></trkpt><trkpt lat="44.70147903316753" lon="8.534295178144308"><ele>128.0</ele><time>2026-05-01T10:31:05.999Z</time></trkpt><trkpt lat="44.701477644436565" lon="8.534459658327117"><ele>128.0</ele><time>2026-05-01T10:31:06.999Z</time></trkpt><trkpt lat="44.70146774971085" lon="8.53458408574613"><ele>127.60000000000001</ele><time>2026-05-01T10:31:07.999Z</time></trkpt><trkpt lat="44.70144607598071" lon="8.534681350612182"><ele>127.20000000000002</ele><time>2026-05-01T10:31:08.999Z</time></trkpt><trkpt lat="44.70138418271888" lon="8.53478713928217"><ele>126.8</ele><time>2026-05-01T10:31:10.999Z</time></trkpt><trkpt lat="44.70129258436218" lon="8.534895828242954"><ele>126.4</ele><time>2026-05-01T10:31:12.999Z</time></trkpt><trkpt lat="44.70122802180881" lon="8.534970734159693"><ele>126.0</ele><time>2026-05-01T10:31:13.999Z</time></trkpt><trkpt lat="44.70116741779184" lon="8.535073061622242"><ele>126.0</ele><time>2026-05-01T10:31:14.999Z</time></trkpt><trkpt lat="44.70113279458366" lon="8.535222519384115"><ele>126.0</ele><time>2026-05-01T10:31:15.999Z</time></trkpt><trkpt lat="44.70112856071504" lon="8.535395161185829"><ele>126.0</ele><time>2026-05-01T10:31:16.999Z</time></trkpt><trkpt lat="44.70117703393362" lon="8.535565128526265"><ele>126.0</ele><time>2026-05-01T10:31:17.999Z</time></trkpt><trkpt lat="44.701250383731654" lon="8.53569338002322"><ele>126.25</ele><time>2026-05-01T10:31:18.999Z</time></trkpt><trkpt lat="44.701356051297324" lon="8.53578298571177"><ele>126.5</ele><time>2026-05-01T10:31:19.999Z</time></trkpt><trkpt lat="44.701468515376106" lon="8.535812004700347"><ele>126.75</ele><time>2026-05-01T10:31:20.999Z</time></trkpt><trkpt lat="44.70153867763496" lon="8.535821427218472"><ele>127.0</ele><time>2026-05-01T10:31:21.999Z</time></trkpt><trkpt lat="44.701489998992024" lon="8.536181107675075"><ele>126.75</ele><time>2026-05-01T10:31:22.999Z</time></trkpt><trkpt lat="44.701496716143396" lon="8.536362944672332"><ele>126.5</ele><time>2026-05-01T10:31:23.999Z</time></trkpt><trkpt lat="44.70149011881034" lon="8.536579419892606"><ele>126.25</ele><time>2026-05-01T10:31:24.999Z</time></trkpt><trkpt lat="44.7014970846474" lon="8.53680143890184"><ele>126.0</ele><time>2026-05-01T10:31:25.999Z</time></trkpt><trkpt lat="44.70150302673103" lon="8.537026285335568"><ele>124.33333333333334</ele><time>2026-05-01T10:31:26.999Z</time></trkpt><trkpt lat="44.7015065521976" lon="8.537267844653947"><ele>122.66666666666667</ele><time>2026-05-01T10:31:27.999Z</time></trkpt><trkpt lat="44.70151445074131" lon="8.537512288798148"><ele>121.0</ele><time>2026-05-01T10:31:28.999Z</time></trkpt><trkpt lat="44.70152029618713" lon="8.537775859564873"><ele>121.33333333333334</ele><time>2026-05-01T10:31:29.999Z</time></trkpt><trkpt lat="44.7015253943789" lon="8.538044662934425"><ele>121.66666666666666</ele><time>2026-05-01T10:31:30.999Z</time></trkpt><trkpt lat="44.70153333653988" lon="8.538232007500374"><ele>122.0</ele><time>2026-05-01T10:31:31.999Z</time></trkpt><trkpt lat="44.70153660508177" lon="8.538474180827745"><ele>122.0</ele><time>2026-05-01T10:31:32.999Z</time></trkpt><trkpt lat="44.70153922525647" lon="8.538705270205172"><ele>122.0</ele><time>2026-05-01T10:31:33.999Z</time></trkpt><trkpt lat="44.70154182666238" lon="8.538921107397293"><ele>122.0</ele><time>2026-05-01T10:31:34.999Z</time></trkpt><trkpt lat="44.70155904905029" lon="8.539117843128109"><ele>124.33333333333333</ele><time>2026-05-01T10:31:35.999Z</time></trkpt><trkpt lat="44.70160565451694" lon="8.539309090684212"><ele>126.66666666666666</ele><time>2026-05-01T10:31:36.999Z</time></trkpt><trkpt lat="44.701704802104" lon="8.539490340598503"><ele>129.0</ele><time>2026-05-01T10:31:37.998Z</time></trkpt><trkpt lat="44.70184209634027" lon="8.539656092969187"><ele>128.0</ele><time>2026-05-01T10:31:38.998Z</time></trkpt><trkpt lat="44.701978167765226" lon="8.539816886024573"><ele>127.0</ele><time>2026-05-01T10:31:39.998Z</time></trkpt><trkpt lat="44.70211451261979" lon="8.539979117345585"><ele>126.0</ele><time>2026-05-01T10:31:40.998Z</time></trkpt><trkpt lat="44.7022497708389" lon="8.540141387554783"><ele>126.0</ele><time>2026-05-01T10:31:41.998Z</time></trkpt><trkpt lat="44.70238171644866" lon="8.540304357158577"><ele>126.0</ele><time>2026-05-01T10:31:42.998Z</time></trkpt><trkpt lat="44.70250732401271" lon="8.540462561224652"><ele>126.0</ele><time>2026-05-01T10:31:43.998Z</time></trkpt><trkpt lat="44.70262960757997" lon="8.540616590601129"><ele>126.33333333333334</ele><time>2026-05-01T10:31:44.998Z</time></trkpt><trkpt lat="44.70275902108073" lon="8.540770377652489"><ele>126.66666666666667</ele><time>2026-05-01T10:31:45.999Z</time></trkpt><trkpt lat="44.70288632234722" lon="8.540933388295286"><ele>127.0</ele><time>2026-05-01T10:31:46.999Z</time></trkpt><trkpt lat="44.70300974254292" lon="8.5411013704932"><ele>128.0</ele><time>2026-05-01T10:31:47.999Z</time></trkpt><trkpt lat="44.70309636514958" lon="8.541314113603695"><ele>129.0</ele><time>2026-05-01T10:31:48.999Z</time></trkpt><trkpt lat="44.70319056683632" lon="8.541516225586621"><ele>130.0</ele><time>2026-05-01T10:31:49.999Z</time></trkpt><trkpt lat="44.70326965813578" lon="8.541739024343826"><ele>130.0</ele><time>2026-05-01T10:31:50.999Z</time></trkpt><trkpt lat="44.70335715981961" lon="8.541964546698448"><ele>130.0</ele><time>2026-05-01T10:31:51.999Z</time></trkpt><trkpt lat="44.703439390095916" lon="8.542194182140001"><ele>130.0</ele><time>2026-05-01T10:31:52.999Z</time></trkpt><trkpt lat="44.70350782484464" lon="8.542434841697304"><ele>130.33333333333334</ele><time>2026-05-01T10:31:53.999Z</time></trkpt><trkpt lat="44.70356983624863" lon="8.542680541283517"><ele>130.66666666666666</ele><time>2026-05-01T10:31:54.999Z</time></trkpt><trkpt lat="44.703628319190784" lon="8.54291833911489"><ele>131.0</ele><time>2026-05-01T10:31:55.999Z</time></trkpt><trkpt lat="44.70368267457635" lon="8.54314350490439"><ele>131.25</ele><time>2026-05-01T10:31:56.999Z</time></trkpt><trkpt lat="44.70373210947475" lon="8.543356682874922"><ele>131.5</ele><time>2026-05-01T10:31:57.999Z</time></trkpt><trkpt lat="44.70378094776568" lon="8.543549609612354"><ele>131.75</ele><time>2026-05-01T10:31:58.999Z</time></trkpt><trkpt lat="44.70382637831366" lon="8.543716431685079"><ele>132.0</ele><time>2026-05-01T10:31:59.999Z</time></trkpt><trkpt lat="44.70390851701657" lon="8.54387831021378"><ele>132.0</ele><time>2026-05-01T10:32:00.999Z</time></trkpt><trkpt lat="44.70400092366723" lon="8.544027376148259"><ele>132.0</ele><time>2026-05-01T10:32:01.999Z</time></trkpt><trkpt lat="44.70403215328924" lon="8.54420687142665"><ele>132.0</ele><time>2026-05-01T10:32:02.999Z</time></trkpt><trkpt lat="44.70401867381591" lon="8.544362850438896"><ele>132.0</ele><time>2026-05-01T10:32:03.999Z</time></trkpt><trkpt lat="44.70396419331967" lon="8.544505131486366"><ele>133.0</ele><time>2026-05-01T10:32:04.999Z</time></trkpt><trkpt lat="44.70396429127122" lon="8.544630516430939"><ele>134.0</ele><time>2026-05-01T10:32:05.999Z</time></trkpt><trkpt lat="44.70402497503941" lon="8.544754023125089"><ele>135.0</ele><time>2026-05-01T10:32:06.999Z</time></trkpt><trkpt lat="44.70411153174357" lon="8.544900392616823"><ele>136.0</ele><time>2026-05-01T10:32:07.999Z</time></trkpt><trkpt lat="44.704173326165915" lon="8.545089285237824"><ele>136.0</ele><time>2026-05-01T10:32:08.999Z</time></trkpt><trkpt lat="44.70426330374774" lon="8.545279783068581"><ele>136.0</ele><time>2026-05-01T10:32:09.999Z</time></trkpt><trkpt lat="44.70437103962662" lon="8.545488021529486"><ele>136.0</ele><time>2026-05-01T10:32:10.999Z</time></trkpt><trkpt lat="44.70444002508972" lon="8.54572747499694"><ele>136.0</ele><time>2026-05-01T10:32:11.999Z</time></trkpt><trkpt lat="44.704514540328915" lon="8.545980699210746"><ele>136.0</ele><time>2026-05-01T10:32:12.999Z</time></trkpt><trkpt lat="44.704600337004145" lon="8.546235051924922"><ele>136.0</ele><time>2026-05-01T10:32:13.999Z</time></trkpt><trkpt lat="44.70468411660802" lon="8.546492064672924"><ele>136.0</ele><time>2026-05-01T10:32:14.999Z</time></trkpt><trkpt lat="44.704770274114836" lon="8.546752613794222"><ele>136.0</ele><time>2026-05-01T10:32:15.999Z</time></trkpt><trkpt lat="44.70485702693043" lon="8.547019062037794"><ele>136.0</ele><time>2026-05-01T10:32:16.999Z</time></trkpt><trkpt lat="44.70494389588444" lon="8.547287485430125"><ele>137.0</ele><time>2026-05-01T10:32:17.999Z</time></trkpt><trkpt lat="44.70502874980325" lon="8.547560775448337"><ele>138.0</ele><time>2026-05-01T10:32:18.999Z</time></trkpt><trkpt lat="44.70511687150042" lon="8.54783050350918"><ele>139.0</ele><time>2026-05-01T10:32:19.999Z</time></trkpt><trkpt lat="44.7052081842576" lon="8.54809551209345"><ele>139.0</ele><time>2026-05-01T10:32:20.999Z</time></trkpt><trkpt lat="44.70529958318017" lon="8.54835680445414"><ele>139.0</ele><time>2026-05-01T10:32:21.999Z</time></trkpt><trkpt lat="44.70538826908636" lon="8.548610228944101"><ele>139.0</ele><time>2026-05-01T10:32:22.999Z</time></trkpt><trkpt lat="44.70547623095567" lon="8.548865628648041"><ele>139.0</ele><time>2026-05-01T10:32:23.999Z</time></trkpt><trkpt lat="44.70556083324301" lon="8.549118967089113"><ele>139.0</ele><time>2026-05-01T10:32:24.999Z</time></trkpt><trkpt lat="44.70564505351692" lon="8.549371670091219"><ele>139.0</ele><time>2026-05-01T10:32:25.999Z</time></trkpt><trkpt lat="44.705733578145704" lon="8.549619334702994"><ele>139.0</ele><time>2026-05-01T10:32:26.999Z</time></trkpt><trkpt lat="44.705821070065895" lon="8.549865895455131"><ele>139.0</ele><time>2026-05-01T10:32:27.999Z</time></trkpt><trkpt lat="44.70590747807258" lon="8.550110700910452"><ele>139.0</ele><time>2026-05-01T10:32:28.999Z</time></trkpt><trkpt lat="44.70599700024663" lon="8.550353139743528"><ele>138.66666666666669</ele><time>2026-05-01T10:32:29.999Z</time></trkpt><trkpt lat="44.70608699499423" lon="8.550592632363822"><ele>138.33333333333334</ele><time>2026-05-01T10:32:30.999Z</time></trkpt><trkpt lat="44.70617619603098" lon="8.550830237973608"><ele>138.0</ele><time>2026-05-01T10:32:31.999Z</time></trkpt><trkpt lat="44.706269004572974" lon="8.551067728712077"><ele>138.33333333333334</ele><time>2026-05-01T10:32:32.999Z</time></trkpt><trkpt lat="44.706359352577515" lon="8.55130433631555"><ele>138.66666666666669</ele><time>2026-05-01T10:32:33.999Z</time></trkpt><trkpt lat="44.7064421396961" lon="8.551536802667114"><ele>139.0</ele><time>2026-05-01T10:32:34.999Z</time></trkpt><trkpt lat="44.70652020436553" lon="8.551772890990174"><ele>139.0</ele><time>2026-05-01T10:32:35.999Z</time></trkpt><trkpt lat="44.70658094148393" lon="8.552016755076197"><ele>139.0</ele><time>2026-05-01T10:32:36.999Z</time></trkpt><trkpt lat="44.706623347317546" lon="8.552278778051464"><ele>139.0</ele><time>2026-05-01T10:32:37.999Z</time></trkpt><trkpt lat="44.706646039287726" lon="8.552548079440513"><ele>140.33333333333334</ele><time>2026-05-01T10:32:38.999Z</time></trkpt><trkpt lat="44.706668667966035" lon="8.552809149123927"><ele>141.66666666666666</ele><time>2026-05-01T10:32:39.999Z</time></trkpt><trkpt lat="44.70669775365855" lon="8.553068546236238"><ele>143.0</ele><time>2026-05-01T10:32:40.999Z</time></trkpt><trkpt lat="44.70672997105998" lon="8.553327467913"><ele>144.33333333333331</ele><time>2026-05-01T10:32:41.999Z</time></trkpt><trkpt lat="44.70676279597091" lon="8.553584895582238"><ele>145.66666666666666</ele><time>2026-05-01T10:32:42.999Z</time></trkpt><trkpt lat="44.70679561753049" lon="8.553841645489669"><ele>147.0</ele><time>2026-05-01T10:32:43.999Z</time></trkpt><trkpt lat="44.70683026904213" lon="8.554102935306613"><ele>147.66666666666666</ele><time>2026-05-01T10:32:44.999Z</time></trkpt><trkpt lat="44.70686244970937" lon="8.554362248481837"><ele>148.33333333333331</ele><time>2026-05-01T10:32:45.999Z</time></trkpt><trkpt lat="44.70689881822013" lon="8.554638504712978"><ele>149.0</ele><time>2026-05-01T10:32:46.999Z</time></trkpt><trkpt lat="44.70693847389121" lon="8.554959835131772"><ele>149.0</ele><time>2026-05-01T10:32:47.999Z</time></trkpt><trkpt lat="44.70697914174216" lon="8.555304418738467"><ele>149.0</ele><time>2026-05-01T10:32:48.999Z</time></trkpt><trkpt lat="44.70701415077886" lon="8.555609294225166"><ele>149.25</ele><time>2026-05-01T10:32:49.999Z</time></trkpt><trkpt lat="44.70704992468789" lon="8.555846975610775"><ele>149.5</ele><time>2026-05-01T10:32:50.999Z</time></trkpt><trkpt lat="44.70709010035195" lon="8.556045993969496"><ele>149.75</ele><time>2026-05-01T10:32:51.999Z</time></trkpt><trkpt lat="44.70712799086083" lon="8.556216753665943"><ele>150.0</ele><time>2026-05-01T10:32:52.999Z</time></trkpt><trkpt lat="44.707169669297166" lon="8.55637938137404"><ele>150.25</ele><time>2026-05-01T10:32:53.999Z</time></trkpt><trkpt lat="44.7072232936269" lon="8.556540162577805"><ele>150.5</ele><time>2026-05-01T10:32:54.999Z</time></trkpt><trkpt lat="44.707290861023935" lon="8.556703310754092"><ele>150.75</ele><time>2026-05-01T10:32:55.999Z</time></trkpt><trkpt lat="44.7073635062358" lon="8.556859784138984"><ele>151.0</ele><time>2026-05-01T10:32:56.999Z</time></trkpt><trkpt lat="44.707434371941936" lon="8.557019272380309"><ele>151.75</ele><time>2026-05-01T10:32:57.999Z</time></trkpt><trkpt lat="44.70749892801141" lon="8.557181793140792"><ele>152.5</ele><time>2026-05-01T10:32:58.999Z</time></trkpt><trkpt lat="44.7075593406576" lon="8.55733466592633"><ele>153.25</ele><time>2026-05-01T10:32:59.999Z</time></trkpt><trkpt lat="44.70761776778698" lon="8.557477913925823"><ele>154.0</ele><time>2026-05-01T10:33:00.999Z</time></trkpt><trkpt lat="44.70767899978422" lon="8.557620256351228"><ele>153.2</ele><time>2026-05-01T10:33:01.999Z</time></trkpt><trkpt lat="44.70774595791439" lon="8.55775664241633"><ele>152.4</ele><time>2026-05-01T10:33:02.999Z</time></trkpt><trkpt lat="44.70781890170684" lon="8.557876700395417"><ele>151.6</ele><time>2026-05-01T10:33:03.999Z</time></trkpt><trkpt lat="44.70790205023294" lon="8.557974167686252"><ele>150.8</ele><time>2026-05-01T10:33:04.999Z</time></trkpt><trkpt lat="44.707991377513224" lon="8.558033161274052"><ele>150.0</ele><time>2026-05-01T10:33:05.999Z</time></trkpt><trkpt lat="44.70807718695445" lon="8.558059368246214"><ele>150.0</ele><time>2026-05-01T10:33:06.999Z</time></trkpt><trkpt lat="44.708156697136566" lon="8.55808199725058"><ele>150.0</ele><time>2026-05-01T10:33:07.999Z</time></trkpt><trkpt lat="44.708232365124815" lon="8.558117854016615"><ele>150.0</ele><time>2026-05-01T10:33:08.999Z</time></trkpt><trkpt lat="44.70829536023148" lon="8.558143203627"><ele>150.0</ele><time>2026-05-01T10:33:09.999Z</time></trkpt><trkpt lat="44.70831793192265" lon="8.558348889827757"><ele>150.0</ele><time>2026-05-01T10:33:11.999Z</time></trkpt><trkpt lat="44.70829383848625" lon="8.558459534416475"><ele>150.0</ele><time>2026-05-01T10:33:12.999Z</time></trkpt><trkpt lat="44.70826046387558" lon="8.558608434104693"><ele>150.0</ele><time>2026-05-01T10:33:13.999Z</time></trkpt><trkpt lat="44.70822598668257" lon="8.55875185953998"><ele>150.0</ele><time>2026-05-01T10:33:14.999Z</time></trkpt><trkpt lat="44.70816182876096" lon="8.559005313568095"><ele>150.0</ele><time>2026-05-01T10:33:15.999Z</time></trkpt><trkpt lat="44.70809292617574" lon="8.559251421906637"><ele>149.66666666666666</ele><time>2026-05-01T10:33:16.999Z</time></trkpt><trkpt lat="44.708011841777974" lon="8.55948536936124"><ele>149.33333333333331</ele><time>2026-05-01T10:33:17.999Z</time></trkpt><trkpt lat="44.707949188980535" lon="8.559690549877347"><ele>149.0</ele><time>2026-05-01T10:33:19.999Z</time></trkpt><trkpt lat="44.70790452429789" lon="8.559833988075647"><ele>148.75</ele><time>2026-05-01T10:33:20.999Z</time></trkpt><trkpt lat="44.707861884628166" lon="8.559977337450357"><ele>148.5</ele><time>2026-05-01T10:33:21.999Z</time></trkpt><trkpt lat="44.70783825079563" lon="8.560134818128699"><ele>148.25</ele><time>2026-05-01T10:33:22.999Z</time></trkpt><trkpt lat="44.70780895173842" lon="8.560300012430467"><ele>148.0</ele><time>2026-05-01T10:33:23.999Z</time></trkpt><trkpt lat="44.707795941863196" lon="8.560466429108805"><ele>148.0</ele><time>2026-05-01T10:33:24.999Z</time></trkpt><trkpt lat="44.707782798032966" lon="8.56065179053042"><ele>148.0</ele><time>2026-05-01T10:33:25.999Z</time></trkpt><trkpt lat="44.70777346475167" lon="8.560854315170136"><ele>148.0</ele><time>2026-05-01T10:33:26.999Z</time></trkpt><trkpt lat="44.70776668814953" lon="8.56105117954763"><ele>148.0</ele><time>2026-05-01T10:33:27.999Z</time></trkpt><trkpt lat="44.707756098674366" lon="8.561251533568484"><ele>149.0</ele><time>2026-05-01T10:33:28.999Z</time></trkpt><trkpt lat="44.70773678705379" lon="8.56145459465896"><ele>150.0</ele><time>2026-05-01T10:33:29.999Z</time></trkpt><trkpt lat="44.70769145624103" lon="8.561656133131049"><ele>151.0</ele><time>2026-05-01T10:33:30.999Z</time></trkpt><trkpt lat="44.70764795919098" lon="8.561858257137995"><ele>152.0</ele><time>2026-05-01T10:33:31.999Z</time></trkpt><trkpt lat="44.70759446421496" lon="8.56206191160748"><ele>152.0</ele><time>2026-05-01T10:33:32.999Z</time></trkpt><trkpt lat="44.70755452494001" lon="8.562268735146679"><ele>152.0</ele><time>2026-05-01T10:33:33.999Z</time></trkpt><trkpt lat="44.70750204966662" lon="8.56250142995333"><ele>152.0</ele><time>2026-05-01T10:33:34.999Z</time></trkpt><trkpt lat="44.70745175712499" lon="8.562750215020374"><ele>152.0</ele><time>2026-05-01T10:33:35.999Z</time></trkpt><trkpt lat="44.70740336867496" lon="8.56297289550278"><ele>152.0</ele><time>2026-05-01T10:33:36.999Z</time></trkpt><trkpt lat="44.70736952129785" lon="8.563195216995942"><ele>152.0</ele><time>2026-05-01T10:33:37.999Z</time></trkpt><trkpt lat="44.70734179988684" lon="8.563408226155127"><ele>152.0</ele><time>2026-05-01T10:33:38.999Z</time></trkpt><trkpt lat="44.707313555529026" lon="8.563613053378365"><ele>152.0</ele><time>2026-05-01T10:33:39.999Z</time></trkpt><trkpt lat="44.70729656271604" lon="8.56379984117857"><ele>152.0</ele><time>2026-05-01T10:33:40.999Z</time></trkpt><trkpt lat="44.70727115538429" lon="8.56398994215547"><ele>152.0</ele><time>2026-05-01T10:33:41.999Z</time></trkpt><trkpt lat="44.707247392668116" lon="8.564174387143684"><ele>152.0</ele><time>2026-05-01T10:33:42.999Z</time></trkpt><trkpt lat="44.707219395430435" lon="8.564353166204553"><ele>152.0</ele><time>2026-05-01T10:33:43.999Z</time></trkpt><trkpt lat="44.707182995372364" lon="8.564529059778678"><ele>152.0</ele><time>2026-05-01T10:33:44.999Z</time></trkpt><trkpt lat="44.707101854790366" lon="8.564688452403379"><ele>152.0</ele><time>2026-05-01T10:33:45.999Z</time></trkpt><trkpt lat="44.70700874881144" lon="8.56485683801602"><ele>152.25</ele><time>2026-05-01T10:33:46.999Z</time></trkpt><trkpt lat="44.7069158323579" lon="8.565038063236605"><ele>152.5</ele><time>2026-05-01T10:33:47.999Z</time></trkpt><trkpt lat="44.706819332906065" lon="8.565184453656475"><ele>152.75</ele><time>2026-05-01T10:33:48.999Z</time></trkpt><trkpt lat="44.70673306095804" lon="8.565327012836152"><ele>153.0</ele><time>2026-05-01T10:33:49.999Z</time></trkpt><trkpt lat="44.70665818093054" lon="8.56545472276537"><ele>152.6</ele><time>2026-05-01T10:33:50.999Z</time></trkpt><trkpt lat="44.706587453087266" lon="8.56556047480881"><ele>152.20000000000002</ele><time>2026-05-01T10:33:51.999Z</time></trkpt><trkpt lat="44.70652034901942" lon="8.565633300690276"><ele>151.8</ele><time>2026-05-01T10:33:52.999Z</time></trkpt><trkpt lat="44.70647525136808" lon="8.56569955337845"><ele>151.4</ele><time>2026-05-01T10:33:53.999Z</time></trkpt><trkpt lat="44.70652989740442" lon="8.565862396269447"><ele>151.0</ele><time>2026-05-01T10:33:54.999Z</time></trkpt><trkpt lat="44.70655365769605" lon="8.566007983419984"><ele>151.0</ele><time>2026-05-01T10:33:55.999Z</time></trkpt><trkpt lat="44.70656360635306" lon="8.56619191793845"><ele>151.0</ele><time>2026-05-01T10:33:56.999Z</time></trkpt><trkpt lat="44.706605901278714" lon="8.566392999753072"><ele>151.0</ele><time>2026-05-01T10:33:57.999Z</time></trkpt><trkpt lat="44.70662899749368" lon="8.566625455616139"><ele>151.0</ele><time>2026-05-01T10:33:58.999Z</time></trkpt><trkpt lat="44.706659763316786" lon="8.566853506448824"><ele>150.0</ele><time>2026-05-01T10:33:59.999Z</time></trkpt><trkpt lat="44.70668480797592" lon="8.567084615417572"><ele>149.0</ele><time>2026-05-01T10:34:00.999Z</time></trkpt><trkpt lat="44.70671204582266" lon="8.56730616078154"><ele>148.0</ele><time>2026-05-01T10:34:01.999Z</time></trkpt><trkpt lat="44.70672616172665" lon="8.567524056679419"><ele>148.0</ele><time>2026-05-01T10:34:02.999Z</time></trkpt><trkpt lat="44.70675269791093" lon="8.567730838675455"><ele>148.0</ele><time>2026-05-01T10:34:03.999Z</time></trkpt><trkpt lat="44.70677333077655" lon="8.567935990942333"><ele>148.0</ele><time>2026-05-01T10:34:04.999Z</time></trkpt><trkpt lat="44.70677651850454" lon="8.568132870857706"><ele>148.0</ele><time>2026-05-01T10:34:05.999Z</time></trkpt><trkpt lat="44.70674830509339" lon="8.568333081771504"><ele>148.25</ele><time>2026-05-01T10:34:06.999Z</time></trkpt><trkpt lat="44.70669409232888" lon="8.568519079050565"><ele>148.5</ele><time>2026-05-01T10:34:07.999Z</time></trkpt><trkpt lat="44.70660724222012" lon="8.568682498721811"><ele>148.75</ele><time>2026-05-01T10:34:08.999Z</time></trkpt><trkpt lat="44.706513198216825" lon="8.568840589147635"><ele>149.0</ele><time>2026-05-01T10:34:09.999Z</time></trkpt><trkpt lat="44.706372909592226" lon="8.568922196875258"><ele>149.33333333333331</ele><time>2026-05-01T10:34:10.999Z</time></trkpt><trkpt lat="44.706251605012675" lon="8.569051202625266"><ele>149.66666666666666</ele><time>2026-05-01T10:34:11.999Z</time></trkpt><trkpt lat="44.70612057805791" lon="8.569156195182183"><ele>150.0</ele><time>2026-05-01T10:34:12.999Z</time></trkpt><trkpt lat="44.705994242291844" lon="8.569268483269044"><ele>150.0</ele><time>2026-05-01T10:34:13.999Z</time></trkpt><trkpt lat="44.705872181431666" lon="8.56938235607147"><ele>150.0</ele><time>2026-05-01T10:34:14.999Z</time></trkpt><trkpt lat="44.70574870367249" lon="8.569491851213039"><ele>150.0</ele><time>2026-05-01T10:34:15.999Z</time></trkpt><trkpt lat="44.70563963736274" lon="8.569605044653716"><ele>150.0</ele><time>2026-05-01T10:34:17Z</time></trkpt><trkpt lat="44.70554379313093" lon="8.569736010184192"><ele>150.25</ele><time>2026-05-01T10:34:18Z</time></trkpt><trkpt lat="44.70546508469526" lon="8.569889951548284"><ele>150.5</ele><time>2026-05-01T10:34:19Z</time></trkpt><trkpt lat="44.70537996510843" lon="8.570043153824315"><ele>150.75</ele><time>2026-05-01T10:34:20Z</time></trkpt><trkpt lat="44.70529797189422" lon="8.57018469662875"><ele>151.0</ele><time>2026-05-01T10:34:21Z</time></trkpt><trkpt lat="44.705222794576294" lon="8.570327980059172"><ele>151.0</ele><time>2026-05-01T10:34:22Z</time></trkpt><trkpt lat="44.7051446222092" lon="8.570459466650403"><ele>151.0</ele><time>2026-05-01T10:34:23Z</time></trkpt><trkpt lat="44.70505920280069" lon="8.570590199795936"><ele>151.0</ele><time>2026-05-01T10:34:24Z</time></trkpt><trkpt lat="44.70497783663103" lon="8.57072969006187"><ele>151.0</ele><time>2026-05-01T10:34:25Z</time></trkpt><trkpt lat="44.704893613239406" lon="8.570864588159242"><ele>151.0</ele><time>2026-05-01T10:34:26Z</time></trkpt><trkpt lat="44.70481643960945" lon="8.570990992074545"><ele>151.0</ele><time>2026-05-01T10:34:27Z</time></trkpt><trkpt lat="44.7047551593477" lon="8.571118301578386"><ele>151.0</ele><time>2026-05-01T10:34:28Z</time></trkpt><trkpt lat="44.70471231083662" lon="8.571253357323277"><ele>151.0</ele><time>2026-05-01T10:34:29Z</time></trkpt><trkpt lat="44.7047104486054" lon="8.571401299773335"><ele>151.0</ele><time>2026-05-01T10:34:30Z</time></trkpt><trkpt lat="44.70476562671312" lon="8.57156219287948"><ele>151.25</ele><time>2026-05-01T10:34:31Z</time></trkpt><trkpt lat="44.704844166442406" lon="8.571720754930897"><ele>151.5</ele><time>2026-05-01T10:34:32Z</time></trkpt><trkpt lat="44.70493299861672" lon="8.57187755064383"><ele>151.75</ele><time>2026-05-01T10:34:33Z</time></trkpt><trkpt lat="44.70499847806024" lon="8.572057535472549"><ele>152.0</ele><time>2026-05-01T10:34:34Z</time></trkpt><trkpt lat="44.705082665669764" lon="8.572217311262385"><ele>152.25</ele><time>2026-05-01T10:34:35Z</time></trkpt><trkpt lat="44.705158591673445" lon="8.57238818449875"><ele>152.5</ele><time>2026-05-01T10:34:36Z</time></trkpt><trkpt lat="44.70522790458811" lon="8.572565627563577"><ele>152.75</ele><time>2026-05-01T10:34:37Z</time></trkpt><trkpt lat="44.70529416218587" lon="8.572742107557213"><ele>153.0</ele><time>2026-05-01T10:34:38Z</time></trkpt><trkpt lat="44.70535150188994" lon="8.572909309436008"><ele>154.25</ele><time>2026-05-01T10:34:39Z</time></trkpt><trkpt lat="44.70538649707565" lon="8.57308140898736"><ele>155.5</ele><time>2026-05-01T10:34:40Z</time></trkpt><trkpt lat="44.70542987342621" lon="8.573240783899495"><ele>156.75</ele><time>2026-05-01T10:34:41Z</time></trkpt><trkpt lat="44.70547223616395" lon="8.57339639773571"><ele>158.0</ele><time>2026-05-01T10:34:42Z</time></trkpt><trkpt lat="44.70552881142449" lon="8.573541312356879"><ele>158.0</ele><time>2026-05-01T10:34:43Z</time></trkpt><trkpt lat="44.70556696114451" lon="8.573700131084877"><ele>158.0</ele><time>2026-05-01T10:34:44Z</time></trkpt><trkpt lat="44.70561366192271" lon="8.573856780621451"><ele>158.0</ele><time>2026-05-01T10:34:45Z</time></trkpt><trkpt lat="44.70565408805006" lon="8.574019804199278"><ele>158.0</ele><time>2026-05-01T10:34:46Z</time></trkpt><trkpt lat="44.70567440471589" lon="8.574169586648603"><ele>158.0</ele><time>2026-05-01T10:34:47Z</time></trkpt><trkpt lat="44.70569589436878" lon="8.574283695749893"><ele>158.0</ele><time>2026-05-01T10:34:48Z</time></trkpt><trkpt lat="44.705715101427764" lon="8.574387941670972"><ele>158.0</ele><time>2026-05-01T10:34:49Z</time></trkpt><trkpt lat="44.70573353513477" lon="8.574487990245618"><ele>158.0</ele><time>2026-05-01T10:34:50Z</time></trkpt><trkpt lat="44.70575166311181" lon="8.574592243806734"><ele>158.0</ele><time>2026-05-01T10:34:51Z</time></trkpt><trkpt lat="44.705770431601586" lon="8.574702017658062"><ele>158.0</ele><time>2026-05-01T10:34:52Z</time></trkpt><trkpt lat="44.70579649038294" lon="8.574808658008877"><ele>158.20000000000002</ele><time>2026-05-01T10:34:53Z</time></trkpt><trkpt lat="44.705821056314676" lon="8.57491869458335"><ele>158.4</ele><time>2026-05-01T10:34:54Z</time></trkpt><trkpt lat="44.705848337941" lon="8.575035999539235"><ele>158.60000000000002</ele><time>2026-05-01T10:34:55Z</time></trkpt><trkpt lat="44.70588076404236" lon="8.575164299829671"><ele>158.8</ele><time>2026-05-01T10:34:56Z</time></trkpt><trkpt lat="44.70590810917094" lon="8.575305743039205"><ele>159.0</ele><time>2026-05-01T10:34:57Z</time></trkpt><trkpt lat="44.70590410777265" lon="8.57546376553418"><ele>159.75</ele><time>2026-05-01T10:34:58Z</time></trkpt><trkpt lat="44.70590968609944" lon="8.575634005603723"><ele>160.5</ele><time>2026-05-01T10:34:59Z</time></trkpt><trkpt lat="44.70593278255325" lon="8.575803736141195"><ele>161.25</ele><time>2026-05-01T10:35:00Z</time></trkpt><trkpt lat="44.70593453267915" lon="8.575966086076193"><ele>162.0</ele><time>2026-05-01T10:35:01Z</time></trkpt><trkpt lat="44.70593462316274" lon="8.576119643004454"><ele>162.25</ele><time>2026-05-01T10:35:02Z</time></trkpt><trkpt lat="44.705933535988684" lon="8.576274755289012"><ele>162.5</ele><time>2026-05-01T10:35:03Z</time></trkpt><trkpt lat="44.70592290456102" lon="8.576439495664255"><ele>162.75</ele><time>2026-05-01T10:35:04Z</time></trkpt><trkpt lat="44.70590276599636" lon="8.576604560703677"><ele>163.0</ele><time>2026-05-01T10:35:05Z</time></trkpt><trkpt lat="44.705873534360634" lon="8.576771073933562"><ele>163.0</ele><time>2026-05-01T10:35:06Z</time></trkpt><trkpt lat="44.70583790932487" lon="8.576935195233455"><ele>163.0</ele><time>2026-05-01T10:35:07Z</time></trkpt><trkpt lat="44.70580178613628" lon="8.577091048100364"><ele>163.0</ele><time>2026-05-01T10:35:08Z</time></trkpt><trkpt lat="44.705753561040886" lon="8.577218223278365"><ele>163.0</ele><time>2026-05-01T10:35:09Z</time></trkpt><trkpt lat="44.70572005642765" lon="8.577340445124065"><ele>163.0</ele><time>2026-05-01T10:35:10Z</time></trkpt><trkpt lat="44.705688315036646" lon="8.577456234917188"><ele>163.16666666666669</ele><time>2026-05-01T10:35:11Z</time></trkpt><trkpt lat="44.7056554560528" lon="8.577576101572781"><ele>163.33333333333334</ele><time>2026-05-01T10:35:12Z</time></trkpt><trkpt lat="44.705625376192074" lon="8.577692422568358"><ele>163.5</ele><time>2026-05-01T10:35:13Z</time></trkpt><trkpt lat="44.705608623915985" lon="8.577816810183474"><ele>163.66666666666666</ele><time>2026-05-01T10:35:14Z</time></trkpt><trkpt lat="44.70558094895353" lon="8.577923407011022"><ele>163.83333333333331</ele><time>2026-05-01T10:35:15Z</time></trkpt><trkpt lat="44.70555836612143" lon="8.578044487689562"><ele>164.0</ele><time>2026-05-01T10:35:16Z</time></trkpt><trkpt lat="44.70553090967667" lon="8.57817614990695"><ele>164.79999999999998</ele><time>2026-05-01T10:35:17Z</time></trkpt><trkpt lat="44.70550454345831" lon="8.578311418227452"><ele>165.6</ele><time>2026-05-01T10:35:18Z</time></trkpt><trkpt lat="44.70547750766352" lon="8.578446386309034"><ele>166.4</ele><time>2026-05-01T10:35:19Z</time></trkpt><trkpt lat="44.70544707393706" lon="8.578584786754575"><ele>167.2</ele><time>2026-05-01T10:35:20Z</time></trkpt><trkpt lat="44.70538571526228" lon="8.578701706029294"><ele>168.0</ele><time>2026-05-01T10:35:21Z</time></trkpt><trkpt lat="44.705321205353414" lon="8.57881329678962"><ele>167.8</ele><time>2026-05-01T10:35:22Z</time></trkpt><trkpt lat="44.705256227210626" lon="8.578927823531734"><ele>167.60000000000002</ele><time>2026-05-01T10:35:23Z</time></trkpt><trkpt lat="44.705197332299946" lon="8.579053651987572"><ele>167.39999999999998</ele><time>2026-05-01T10:35:24Z</time></trkpt><trkpt lat="44.705136348536854" lon="8.57917179603848"><ele>167.2</ele><time>2026-05-01T10:35:25Z</time></trkpt><trkpt lat="44.705070892535765" lon="8.57929032336379"><ele>167.0</ele><time>2026-05-01T10:35:26Z</time></trkpt><trkpt lat="44.70500576130556" lon="8.579413623534178"><ele>168.0</ele><time>2026-05-01T10:35:27Z</time></trkpt><trkpt lat="44.70493959493488" lon="8.579535574663728"><ele>169.0</ele><time>2026-05-01T10:35:28Z</time></trkpt><trkpt lat="44.70487410147917" lon="8.579646480954015"><ele>170.0</ele><time>2026-05-01T10:35:29Z</time></trkpt><trkpt lat="44.704805426868155" lon="8.579751190632045"><ele>171.0</ele><time>2026-05-01T10:35:30Z</time></trkpt><trkpt lat="44.704759451825524" lon="8.579882043486345"><ele>172.0</ele><time>2026-05-01T10:35:31Z</time></trkpt><trkpt lat="44.70471149539706" lon="8.580003344855012"><ele>172.0</ele><time>2026-05-01T10:35:32Z</time></trkpt><trkpt lat="44.704674532208394" lon="8.58009603060793"><ele>172.0</ele><time>2026-05-01T10:35:33Z</time></trkpt><trkpt lat="44.70464181785757" lon="8.580183473497762"><ele>172.0</ele><time>2026-05-01T10:35:34Z</time></trkpt><trkpt lat="44.70459623219792" lon="8.580311550931984"><ele>172.0</ele><time>2026-05-01T10:35:36Z</time></trkpt><trkpt lat="44.70456185287077" lon="8.580387116075007"><ele>172.0</ele><time>2026-05-01T10:35:38Z</time></trkpt><trkpt lat="44.704520671938994" lon="8.580457526413731"><ele>172.0</ele><time>2026-05-01T10:35:41Z</time></trkpt><trkpt lat="44.70446487572312" lon="8.580526806234618"><ele>172.0</ele><time>2026-05-01T10:35:54Z</time></trkpt><trkpt lat="44.7044041626017" lon="8.580571825652191"><ele>172.0</ele><time>2026-05-01T10:35:56Z</time></trkpt><trkpt lat="44.70433771453569" lon="8.580633303446007"><ele>172.0</ele><time>2026-05-01T10:35:59Z</time></trkpt><trkpt lat="44.70426556642195" lon="8.580683896926908"><ele>172.0</ele><time>2026-05-01T10:36:02Z</time></trkpt><trkpt lat="44.704199290211236" lon="8.580757921161606"><ele>172.0</ele><time>2026-05-01T10:36:06Z</time></trkpt><trkpt lat="44.70412859889556" lon="8.580819581540336"><ele>172.0</ele><time>2026-05-01T10:36:18Z</time></trkpt><trkpt lat="44.70407164016781" lon="8.580870928564064"><ele>172.0</ele><time>2026-05-01T10:36:20Z</time></trkpt><trkpt lat="44.70401307708712" lon="8.580928224412412"><ele>172.0</ele><time>2026-05-01T10:36:23Z</time></trkpt><trkpt lat="44.703937974959075" lon="8.581012046264863"><ele>172.0</ele><time>2026-05-01T10:36:30Z</time></trkpt><trkpt lat="44.70387500306972" lon="8.58110270590781"><ele>172.0</ele><time>2026-05-01T10:36:32Z</time></trkpt><trkpt lat="44.70381819912884" lon="8.581165725490784"><ele>172.0</ele><time>2026-05-01T10:36:41Z</time></trkpt><trkpt lat="44.70374719718531" lon="8.581242130187393"><ele>172.0</ele><time>2026-05-01T10:36:43Z</time></trkpt><trkpt lat="44.70366639078489" lon="8.581268186075397"><ele>173.0</ele><time>2026-05-01T10:36:45Z</time></trkpt><trkpt lat="44.703577364109094" lon="8.581305507252432"><ele>174.0</ele><time>2026-05-01T10:36:47Z</time></trkpt><trkpt lat="44.70349376416043" lon="8.581337777795861"><ele>175.0</ele><time>2026-05-01T10:36:49Z</time></trkpt><trkpt lat="44.70342455891098" lon="8.581364491819166"><ele>176.0</ele><time>2026-05-01T10:36:51Z</time></trkpt><trkpt lat="44.703332235222035" lon="8.581397957951962"><ele>177.0</ele><time>2026-05-01T10:36:53Z</time></trkpt><trkpt lat="44.70322061583259" lon="8.581437459139806"><ele>177.0</ele><time>2026-05-01T10:36:55Z</time></trkpt><trkpt lat="44.70315632224437" lon="8.58147687756276"><ele>177.0</ele><time>2026-05-01T10:36:56Z</time></trkpt><trkpt lat="44.70307409265084" lon="8.581499087445426"><ele>177.0</ele><time>2026-05-01T10:36:57Z</time></trkpt><trkpt lat="44.702988915505095" lon="8.58152864342329"><ele>177.0</ele><time>2026-05-01T10:36:58Z</time></trkpt><trkpt lat="44.70289982251176" lon="8.581561271238213"><ele>177.0</ele><time>2026-05-01T10:36:59Z</time></trkpt><trkpt lat="44.702803494073294" lon="8.581603745015967"><ele>177.0</ele><time>2026-05-01T10:37:00Z</time></trkpt><trkpt lat="44.70270406113323" lon="8.581649289243531"><ele>176.39999999999998</ele><time>2026-05-01T10:37:01Z</time></trkpt><trkpt lat="44.70260418135999" lon="8.58170433386803"><ele>175.79999999999998</ele><time>2026-05-01T10:37:02Z</time></trkpt><trkpt lat="44.70250550906333" lon="8.58175545049447"><ele>175.2</ele><time>2026-05-01T10:37:03Z</time></trkpt><trkpt lat="44.70240599707918" lon="8.581797860983167"><ele>174.6</ele><time>2026-05-01T10:37:04Z</time></trkpt><trkpt lat="44.70230922963977" lon="8.581829390404598"><ele>174.0</ele><time>2026-05-01T10:37:05Z</time></trkpt><trkpt lat="44.70221903014113" lon="8.581854440796835"><ele>174.0</ele><time>2026-05-01T10:37:06Z</time></trkpt><trkpt lat="44.70213241191656" lon="8.581885182933735"><ele>174.0</ele><time>2026-05-01T10:37:07Z</time></trkpt><trkpt lat="44.702044708905625" lon="8.581931553825385"><ele>174.0</ele><time>2026-05-01T10:37:08Z</time></trkpt><trkpt lat="44.701952533797815" lon="8.58199837447933"><ele>174.0</ele><time>2026-05-01T10:37:09Z</time></trkpt><trkpt lat="44.701853720127104" lon="8.582070666992278"><ele>174.0</ele><time>2026-05-01T10:37:10Z</time></trkpt><trkpt lat="44.701755337726105" lon="8.58214777653861"><ele>175.0</ele><time>2026-05-01T10:37:11Z</time></trkpt><trkpt lat="44.701654407438006" lon="8.582230725867234"><ele>176.0</ele><time>2026-05-01T10:37:12Z</time></trkpt><trkpt lat="44.70155230089446" lon="8.582307414084363"><ele>177.0</ele><time>2026-05-01T10:37:13Z</time></trkpt><trkpt lat="44.701454394987415" lon="8.582369092366603"><ele>178.0</ele><time>2026-05-01T10:37:14Z</time></trkpt><trkpt lat="44.701360762580926" lon="8.582425481978756"><ele>179.0</ele><time>2026-05-01T10:37:15Z</time></trkpt><trkpt lat="44.70127184186327" lon="8.58248186628952"><ele>179.0</ele><time>2026-05-01T10:37:16Z</time></trkpt><trkpt lat="44.701185001377134" lon="8.582533632101056"><ele>179.0</ele><time>2026-05-01T10:37:17Z</time></trkpt><trkpt lat="44.701095766138565" lon="8.582584851883912"><ele>179.0</ele><time>2026-05-01T10:37:18Z</time></trkpt><trkpt lat="44.70100951839399" lon="8.582648890947272"><ele>179.0</ele><time>2026-05-01T10:37:19Z</time></trkpt><trkpt lat="44.700919885580724" lon="8.582728399432817"><ele>179.0</ele><time>2026-05-01T10:37:20Z</time></trkpt><trkpt lat="44.70082971467692" lon="8.58281710671167"><ele>179.0</ele><time>2026-05-01T10:37:21Z</time></trkpt><trkpt lat="44.700738740301475" lon="8.582905258660084"><ele>179.0</ele><time>2026-05-01T10:37:22Z</time></trkpt><trkpt lat="44.700656664856304" lon="8.582981250868718"><ele>179.0</ele><time>2026-05-01T10:37:23Z</time></trkpt><trkpt lat="44.70058703518082" lon="8.583046113499494"><ele>179.0</ele><time>2026-05-01T10:37:24Z</time></trkpt><trkpt lat="44.700530724210616" lon="8.583144976662647"><ele>179.0</ele><time>2026-05-01T10:37:25Z</time></trkpt><trkpt lat="44.700494447130936" lon="8.583279094176739"><ele>179.0</ele><time>2026-05-01T10:37:26Z</time></trkpt><trkpt lat="44.70049590701594" lon="8.583441091960463"><ele>179.0</ele><time>2026-05-01T10:37:27Z</time></trkpt><trkpt lat="44.70051224256974" lon="8.58361289359386"><ele>179.0</ele><time>2026-05-01T10:37:28Z</time></trkpt><trkpt lat="44.700543167937134" lon="8.583763617729277"><ele>179.0</ele><time>2026-05-01T10:37:29Z</time></trkpt><trkpt lat="44.70058119701676" lon="8.583890521301555"><ele>179.0</ele><time>2026-05-01T10:37:30Z</time></trkpt><trkpt lat="44.70064980475168" lon="8.5840101305891"><ele>180.0</ele><time>2026-05-01T10:37:31Z</time></trkpt><trkpt lat="44.700769997481" lon="8.584123149181693"><ele>181.0</ele><time>2026-05-01T10:37:32Z</time></trkpt><trkpt lat="44.70088809682618" lon="8.58422708494869"><ele>182.0</ele><time>2026-05-01T10:37:33Z</time></trkpt><trkpt lat="44.7009985346196" lon="8.58427581842537"><ele>183.0</ele><time>2026-05-01T10:37:34Z</time></trkpt><trkpt lat="44.70107809184949" lon="8.584334489652122"><ele>185.4</ele><time>2026-05-01T10:37:35Z</time></trkpt><trkpt lat="44.70114377127374" lon="8.584421892375214"><ele>187.8</ele><time>2026-05-01T10:37:36Z</time></trkpt><trkpt lat="44.70118946107248" lon="8.584551410814344"><ele>190.2</ele><time>2026-05-01T10:37:37Z</time></trkpt><trkpt lat="44.70119790155043" lon="8.584704191092854"><ele>192.6</ele><time>2026-05-01T10:37:38Z</time></trkpt><trkpt lat="44.701209228456776" lon="8.584888782403482"><ele>195.0</ele><time>2026-05-01T10:37:39Z</time></trkpt><trkpt lat="44.70122582436505" lon="8.585073651500762"><ele>196.0</ele><time>2026-05-01T10:37:40Z</time></trkpt><trkpt lat="44.7012416790769" lon="8.585256595975634"><ele>197.0</ele><time>2026-05-01T10:37:41Z</time></trkpt><trkpt lat="44.701295116764214" lon="8.585407692092582"><ele>198.0</ele><time>2026-05-01T10:37:42Z</time></trkpt><trkpt lat="44.701347598345336" lon="8.585556055245597"><ele>199.0</ele><time>2026-05-01T10:37:43Z</time></trkpt><trkpt lat="44.70143566043218" lon="8.585677503194736"><ele>199.25</ele><time>2026-05-01T10:37:44Z</time></trkpt><trkpt lat="44.70153053180314" lon="8.585787357064245"><ele>199.5</ele><time>2026-05-01T10:37:45Z</time></trkpt><trkpt lat="44.70162078504889" lon="8.585887493994285"><ele>199.75</ele><time>2026-05-01T10:37:46Z</time></trkpt><trkpt lat="44.70167665364823" lon="8.586025627727428"><ele>200.0</ele><time>2026-05-01T10:37:47Z</time></trkpt><trkpt lat="44.701700515660235" lon="8.58617286751671"><ele>200.75</ele><time>2026-05-01T10:37:48Z</time></trkpt><trkpt lat="44.70167767705787" lon="8.586317842486439"><ele>201.5</ele><time>2026-05-01T10:37:49Z</time></trkpt><trkpt lat="44.70163031527404" lon="8.58645582825249"><ele>202.25</ele><time>2026-05-01T10:37:50Z</time></trkpt><trkpt lat="44.70155798390066" lon="8.586572182904662"><ele>203.0</ele><time>2026-05-01T10:37:51Z</time></trkpt><trkpt lat="44.70143649937849" lon="8.586645017137348"><ele>203.0</ele><time>2026-05-01T10:37:52Z</time></trkpt><trkpt lat="44.701314357639056" lon="8.586696636352427"><ele>203.0</ele><time>2026-05-01T10:37:53Z</time></trkpt><trkpt lat="44.701184536699" lon="8.586757609298484"><ele>203.0</ele><time>2026-05-01T10:37:54Z</time></trkpt><trkpt lat="44.70102718623504" lon="8.586784512275413"><ele>203.0</ele><time>2026-05-01T10:37:55Z</time></trkpt><trkpt lat="44.70086469548557" lon="8.586763718399139"><ele>203.66666666666669</ele><time>2026-05-01T10:37:56.001Z</time></trkpt><trkpt lat="44.70070479528909" lon="8.586726214750444"><ele>204.33333333333331</ele><time>2026-05-01T10:37:57.001Z</time></trkpt><trkpt lat="44.700539914839894" lon="8.586692485948971"><ele>205.0</ele><time>2026-05-01T10:37:59.001Z</time></trkpt><trkpt lat="44.70040442420929" lon="8.586643161889752"><ele>205.0</ele><time>2026-05-01T10:38:00.001Z</time></trkpt><trkpt lat="44.70026641342576" lon="8.586588784706173"><ele>205.0</ele><time>2026-05-01T10:38:01.001Z</time></trkpt><trkpt lat="44.70013136326363" lon="8.58654213546436"><ele>205.0</ele><time>2026-05-01T10:38:02.001Z</time></trkpt><trkpt lat="44.70001005464023" lon="8.586501399611118"><ele>205.0</ele><time>2026-05-01T10:38:03.001Z</time></trkpt><trkpt lat="44.699891600274945" lon="8.586470031508982"><ele>206.4</ele><time>2026-05-01T10:38:04.001Z</time></trkpt><trkpt lat="44.69978058457149" lon="8.58643345331454"><ele>207.8</ele><time>2026-05-01T10:38:05.001Z</time></trkpt><trkpt lat="44.69967508006311" lon="8.586408758211563"><ele>209.2</ele><time>2026-05-01T10:38:06.001Z</time></trkpt><trkpt lat="44.69958222553217" lon="8.586377130193487"><ele>210.6</ele><time>2026-05-01T10:38:07.001Z</time></trkpt><trkpt lat="44.69951925582459" lon="8.586298838999811"><ele>212.0</ele><time>2026-05-01T10:38:08.001Z</time></trkpt><trkpt lat="44.6994488865343" lon="8.586231585175637"><ele>215.0</ele><time>2026-05-01T10:38:09.001Z</time></trkpt><trkpt lat="44.69938599453688" lon="8.586186398978834"><ele>218.0</ele><time>2026-05-01T10:38:10.001Z</time></trkpt><trkpt lat="44.69928975741552" lon="8.586183057736182"><ele>221.0</ele><time>2026-05-01T10:38:12.001Z</time></trkpt><trkpt lat="44.69925495509127" lon="8.586311641594119"><ele>224.0</ele><time>2026-05-01T10:38:13.001Z</time></trkpt><trkpt lat="44.69923718940697" lon="8.586448441276048"><ele>227.0</ele><time>2026-05-01T10:38:14.001Z</time></trkpt><trkpt lat="44.69921230464032" lon="8.586585436839231"><ele>227.0</ele><time>2026-05-01T10:38:15.001Z</time></trkpt><trkpt lat="44.699228620787885" lon="8.58673120572121"><ele>227.0</ele><time>2026-05-01T10:38:16.001Z</time></trkpt><trkpt lat="44.699297464974194" lon="8.586859739598317"><ele>227.0</ele><time>2026-05-01T10:38:17.001Z</time></trkpt><trkpt lat="44.699351234312985" lon="8.586972986012768"><ele>227.0</ele><time>2026-05-01T10:38:18.001Z</time></trkpt><trkpt lat="44.69932627079231" lon="8.587076160627404"><ele>227.0</ele><time>2026-05-01T10:38:19.001Z</time></trkpt><trkpt lat="44.69919094155203" lon="8.587073968450476"><ele>227.0</ele><time>2026-05-01T10:38:21.001Z</time></trkpt><trkpt lat="44.699096785353916" lon="8.587003241735411"><ele>227.0</ele><time>2026-05-01T10:38:22.001Z</time></trkpt><trkpt lat="44.698993572827995" lon="8.586984603223653"><ele>227.0</ele><time>2026-05-01T10:38:23.001Z</time></trkpt><trkpt lat="44.698896301407" lon="8.5870119941974"><ele>227.0</ele><time>2026-05-01T10:38:24.001Z</time></trkpt><trkpt lat="44.69882505020247" lon="8.587104532908093"><ele>227.0</ele><time>2026-05-01T10:38:25.001Z</time></trkpt><trkpt lat="44.69879713769003" lon="8.58723028198257"><ele>228.0</ele><time>2026-05-01T10:38:26.001Z</time></trkpt><trkpt lat="44.69879795284309" lon="8.587366736570274"><ele>229.0</ele><time>2026-05-01T10:38:27.001Z</time></trkpt><trkpt lat="44.698877022242684" lon="8.587489820683741"><ele>230.0</ele><time>2026-05-01T10:38:28.001Z</time></trkpt><trkpt lat="44.698984536211505" lon="8.587551542154712"><ele>231.0</ele><time>2026-05-01T10:38:29.001Z</time></trkpt><trkpt lat="44.699056924593776" lon="8.587641623809827"><ele>232.0</ele><time>2026-05-01T10:38:30.001Z</time></trkpt><trkpt lat="44.699016072926675" lon="8.587767163740635"><ele>232.0</ele><time>2026-05-01T10:38:31.001Z</time></trkpt><trkpt lat="44.6989743910182" lon="8.587849586755613"><ele>232.0</ele><time>2026-05-01T10:38:32.001Z</time></trkpt><trkpt lat="44.69890641605918" lon="8.587907623822673"><ele>232.0</ele><time>2026-05-01T10:38:33.001Z</time></trkpt><trkpt lat="44.69882268917952" lon="8.587890457810296"><ele>232.0</ele><time>2026-05-01T10:38:34.001Z</time></trkpt><trkpt lat="44.69874821901365" lon="8.587811895712322"><ele>232.0</ele><time>2026-05-01T10:38:35.001Z</time></trkpt><trkpt lat="44.69867753442746" lon="8.587670599491467"><ele>232.0</ele><time>2026-05-01T10:38:36.001Z</time></trkpt><trkpt lat="44.69858715898699" lon="8.58753951073272"><ele>232.0</ele><time>2026-05-01T10:38:37.001Z</time></trkpt><trkpt lat="44.698518359848514" lon="8.58743022639403"><ele>232.0</ele><time>2026-05-01T10:38:38.001Z</time></trkpt><trkpt lat="44.69844292260305" lon="8.587382516300972"><ele>232.0</ele><time>2026-05-01T10:38:39.001Z</time></trkpt><trkpt lat="44.698349961885874" lon="8.58742272971921"><ele>232.0</ele><time>2026-05-01T10:38:40.001Z</time></trkpt><trkpt lat="44.69826248352868" lon="8.587513282838131"><ele>235.0</ele><time>2026-05-01T10:38:41.001Z</time></trkpt><trkpt lat="44.6982179462203" lon="8.587659735267215"><ele>238.0</ele><time>2026-05-01T10:38:42.001Z</time></trkpt><trkpt lat="44.698219468012454" lon="8.58779930418494"><ele>241.0</ele><time>2026-05-01T10:38:43.001Z</time></trkpt><trkpt lat="44.69828455370112" lon="8.587949484602252"><ele>244.0</ele><time>2026-05-01T10:38:44.001Z</time></trkpt><trkpt lat="44.69834108249567" lon="8.588166687351855"><ele>245.66666666666666</ele><time>2026-05-01T10:38:45.001Z</time></trkpt><trkpt lat="44.69841599347756" lon="8.58840621249371"><ele>247.33333333333331</ele><time>2026-05-01T10:38:46.001Z</time></trkpt><trkpt lat="44.6984873398534" lon="8.588631334922464"><ele>249.0</ele><time>2026-05-01T10:38:47.001Z</time></trkpt><trkpt lat="44.698546346757034" lon="8.588817522006114"><ele>250.25</ele><time>2026-05-01T10:38:48.001Z</time></trkpt><trkpt lat="44.698598533989006" lon="8.588985661236265"><ele>251.5</ele><time>2026-05-01T10:38:49.001Z</time></trkpt><trkpt lat="44.698659958234174" lon="8.589147020779743"><ele>252.75</ele><time>2026-05-01T10:38:50.001Z</time></trkpt><trkpt lat="44.69870994681626" lon="8.589303845780574"><ele>254.0</ele><time>2026-05-01T10:38:51.001Z</time></trkpt><trkpt lat="44.69878351043719" lon="8.589425804652134"><ele>255.75</ele><time>2026-05-01T10:38:52.001Z</time></trkpt><trkpt lat="44.698874755715686" lon="8.589517188384633"><ele>257.5</ele><time>2026-05-01T10:38:53.001Z</time></trkpt><trkpt lat="44.69896758997637" lon="8.589590399949369"><ele>259.25</ele><time>2026-05-01T10:38:54.001Z</time></trkpt><trkpt lat="44.69908035370669" lon="8.589630189304499"><ele>261.0</ele><time>2026-05-01T10:38:55.001Z</time></trkpt><trkpt lat="44.699229476117885" lon="8.58962799556343"><ele>261.0</ele><time>2026-05-01T10:38:56.001Z</time></trkpt><trkpt lat="44.69939809950551" lon="8.589597433034545"><ele>261.0</ele><time>2026-05-01T10:38:57.001Z</time></trkpt><trkpt lat="44.69953590014986" lon="8.589634704271095"><ele>261.0</ele><time>2026-05-01T10:38:58Z</time></trkpt><trkpt lat="44.69966417317916" lon="8.589665039338897"><ele>261.0</ele><time>2026-05-01T10:38:59Z</time></trkpt><trkpt lat="44.69978544940704" lon="8.589689729451552"><ele>262.0</ele><time>2026-05-01T10:39:00Z</time></trkpt><trkpt lat="44.699871767685515" lon="8.589765808846693"><ele>263.0</ele><time>2026-05-01T10:39:01Z</time></trkpt><trkpt lat="44.699937783056704" lon="8.589833277016899"><ele>264.0</ele><time>2026-05-01T10:39:02Z</time></trkpt><trkpt lat="44.69997435029187" lon="8.589937076144317"><ele>265.0</ele><time>2026-05-01T10:39:03Z</time></trkpt><trkpt lat="44.69997393100616" lon="8.590077835444491"><ele>266.0</ele><time>2026-05-01T10:39:04Z</time></trkpt><trkpt lat="44.699955127175876" lon="8.590234315303544"><ele>267.25</ele><time>2026-05-01T10:39:05Z</time></trkpt><trkpt lat="44.699898709669014" lon="8.590389509616905"><ele>268.5</ele><time>2026-05-01T10:39:06Z</time></trkpt><trkpt lat="44.69981712284897" lon="8.5905350529872"><ele>269.75</ele><time>2026-05-01T10:39:07Z</time></trkpt><trkpt lat="44.69977369356468" lon="8.59071238300779"><ele>271.0</ele><time>2026-05-01T10:39:08Z</time></trkpt><trkpt lat="44.69974402698842" lon="8.590921178577096"><ele>271.0</ele><time>2026-05-01T10:39:09Z</time></trkpt><trkpt lat="44.69973676308314" lon="8.591139991129806"><ele>271.0</ele><time>2026-05-01T10:39:10Z</time></trkpt><trkpt lat="44.69969594593359" lon="8.591336434396975"><ele>271.0</ele><time>2026-05-01T10:39:11Z</time></trkpt><trkpt lat="44.69962406181684" lon="8.591500594809016"><ele>271.0</ele><time>2026-05-01T10:39:12Z</time></trkpt><trkpt lat="44.699528535561036" lon="8.591655270338462"><ele>271.0</ele><time>2026-05-01T10:39:13Z</time></trkpt><trkpt lat="44.699425188996365" lon="8.591822287987704"><ele>271.0</ele><time>2026-05-01T10:39:14Z</time></trkpt><trkpt lat="44.699298232991616" lon="8.591969887850615"><ele>271.0</ele><time>2026-05-01T10:39:15Z</time></trkpt><trkpt lat="44.699141070993" lon="8.59208309227148"><ele>273.75</ele><time>2026-05-01T10:39:16Z</time></trkpt><trkpt lat="44.69898562743223" lon="8.592177764224385"><ele>276.5</ele><time>2026-05-01T10:39:17Z</time></trkpt><trkpt lat="44.69886059887044" lon="8.592283305047545"><ele>279.25</ele><time>2026-05-01T10:39:18Z</time></trkpt><trkpt lat="44.69874615693918" lon="8.592378048182658"><ele>282.0</ele><time>2026-05-01T10:39:19Z</time></trkpt><trkpt lat="44.69867635516592" lon="8.59253647777764"><ele>282.0</ele><time>2026-05-01T10:39:20Z</time></trkpt><trkpt lat="44.698610912278" lon="8.592739355475686"><ele>282.0</ele><time>2026-05-01T10:39:21Z</time></trkpt><trkpt lat="44.69854232243089" lon="8.592982481001588"><ele>282.0</ele><time>2026-05-01T10:39:22Z</time></trkpt><trkpt lat="44.698448994468166" lon="8.593244601902038"><ele>281.0</ele><time>2026-05-01T10:39:23Z</time></trkpt><trkpt lat="44.698363714424964" lon="8.593521087476557"><ele>280.0</ele><time>2026-05-01T10:39:24Z</time></trkpt><trkpt lat="44.698274215026025" lon="8.593792064308978"><ele>279.0</ele><time>2026-05-01T10:39:25Z</time></trkpt><trkpt lat="44.69818445165521" lon="8.594052047675877"><ele>279.0</ele><time>2026-05-01T10:39:26Z</time></trkpt><trkpt lat="44.69809901545682" lon="8.594304086280086"><ele>279.0</ele><time>2026-05-01T10:39:27Z</time></trkpt><trkpt lat="44.698016968231215" lon="8.59454733118576"><ele>279.0</ele><time>2026-05-01T10:39:28Z</time></trkpt><trkpt lat="44.69792749043295" lon="8.594772474049886"><ele>278.0</ele><time>2026-05-01T10:39:29Z</time></trkpt><trkpt lat="44.69783066651454" lon="8.594985500384057"><ele>277.0</ele><time>2026-05-01T10:39:30Z</time></trkpt><trkpt lat="44.697732196163415" lon="8.59519057028355"><ele>276.0</ele><time>2026-05-01T10:39:31Z</time></trkpt><trkpt lat="44.69764296167726" lon="8.595400176516788"><ele>280.0</ele><time>2026-05-01T10:39:32Z</time></trkpt><trkpt lat="44.697522574803024" lon="8.595565017823377"><ele>284.0</ele><time>2026-05-01T10:39:33Z</time></trkpt><trkpt lat="44.6974316124421" lon="8.595744452630925"><ele>288.0</ele><time>2026-05-01T10:39:34Z</time></trkpt><trkpt lat="44.697346752575626" lon="8.595913155413099"><ele>288.0</ele><time>2026-05-01T10:39:35Z</time></trkpt><trkpt lat="44.697245585816496" lon="8.596054724741505"><ele>288.0</ele><time>2026-05-01T10:39:36Z</time></trkpt><trkpt lat="44.69714121264359" lon="8.596207173467523"><ele>288.0</ele><time>2026-05-01T10:39:37Z</time></trkpt><trkpt lat="44.697044399933034" lon="8.59637816753438"><ele>288.0</ele><time>2026-05-01T10:39:38Z</time></trkpt><trkpt lat="44.69693502187641" lon="8.596541388355739"><ele>285.3333333333333</ele><time>2026-05-01T10:39:39Z</time></trkpt><trkpt lat="44.69680237981725" lon="8.596681094489407"><ele>282.66666666666663</ele><time>2026-05-01T10:39:40Z</time></trkpt><trkpt lat="44.696673321074464" lon="8.596827420842962"><ele>280.0</ele><time>2026-05-01T10:39:41Z</time></trkpt><trkpt lat="44.69654899169444" lon="8.59698806252915"><ele>282.0</ele><time>2026-05-01T10:39:42Z</time></trkpt><trkpt lat="44.6964040601975" lon="8.597092667893433"><ele>284.0</ele><time>2026-05-01T10:39:43Z</time></trkpt><trkpt lat="44.69625503786433" lon="8.597135600764211"><ele>286.0</ele><time>2026-05-01T10:39:44Z</time></trkpt><trkpt lat="44.696103024007314" lon="8.597114194944412"><ele>287.0</ele><time>2026-05-01T10:39:45Z</time></trkpt><trkpt lat="44.69594421981464" lon="8.597107871684877"><ele>288.0</ele><time>2026-05-01T10:39:46Z</time></trkpt><trkpt lat="44.69579005135574" lon="8.597123051744171"><ele>289.0</ele><time>2026-05-01T10:39:47Z</time></trkpt><trkpt lat="44.69564070730803" lon="8.59712588210438"><ele>289.0</ele><time>2026-05-01T10:39:48Z</time></trkpt><trkpt lat="44.69549067789235" lon="8.597166218555541"><ele>289.0</ele><time>2026-05-01T10:39:49Z</time></trkpt><trkpt lat="44.695337765207086" lon="8.597229739599882"><ele>289.0</ele><time>2026-05-01T10:39:50Z</time></trkpt><trkpt lat="44.69518412113846" lon="8.597285666178168"><ele>289.0</ele><time>2026-05-01T10:39:51Z</time></trkpt><trkpt lat="44.69503227835032" lon="8.597338307591139"><ele>289.0</ele><time>2026-05-01T10:39:52Z</time></trkpt><trkpt lat="44.694884389909845" lon="8.597391389684063"><ele>289.0</ele><time>2026-05-01T10:39:53Z</time></trkpt><trkpt lat="44.69473582286713" lon="8.597451471657786"><ele>289.0</ele><time>2026-05-01T10:39:54Z</time></trkpt><trkpt lat="44.694587392535915" lon="8.59752728271124"><ele>289.0</ele><time>2026-05-01T10:39:55Z</time></trkpt><trkpt lat="44.69444019007581" lon="8.597608916017844"><ele>289.0</ele><time>2026-05-01T10:39:56Z</time></trkpt><trkpt lat="44.694291672387415" lon="8.597693105083533"><ele>288.0</ele><time>2026-05-01T10:39:57Z</time></trkpt><trkpt lat="44.694153215492925" lon="8.597777826836365"><ele>287.0</ele><time>2026-05-01T10:39:58Z</time></trkpt><trkpt lat="44.69401929806191" lon="8.597855507953794"><ele>286.0</ele><time>2026-05-01T10:39:59Z</time></trkpt><trkpt lat="44.69388407209448" lon="8.597876195445721"><ele>285.0</ele><time>2026-05-01T10:40:00Z</time></trkpt><trkpt lat="44.69375975348023" lon="8.597916569326216"><ele>286.0</ele><time>2026-05-01T10:40:01Z</time></trkpt><trkpt lat="44.69364244193031" lon="8.597910370049139"><ele>287.0</ele><time>2026-05-01T10:40:02.001Z</time></trkpt><trkpt lat="44.693541947415724" lon="8.597901156519347"><ele>288.0</ele><time>2026-05-01T10:40:03.001Z</time></trkpt><trkpt lat="44.69347221346622" lon="8.597899896896472"><ele>289.0</ele><time>2026-05-01T10:40:04.001Z</time></trkpt><trkpt lat="44.69340413022604" lon="8.59788179003087"><ele>290.0</ele><time>2026-05-01T10:40:06.001Z</time></trkpt><trkpt lat="44.69339257069412" lon="8.598041491528416"><ele>290.0</ele><time>2026-05-01T10:40:07.001Z</time></trkpt><trkpt lat="44.69337266077565" lon="8.5981694720899"><ele>290.0</ele><time>2026-05-01T10:40:08.001Z</time></trkpt><trkpt lat="44.69336905296375" lon="8.598317134061444"><ele>290.0</ele><time>2026-05-01T10:40:09.001Z</time></trkpt><trkpt lat="44.69343825103519" lon="8.598482430778285"><ele>290.0</ele><time>2026-05-01T10:40:10.001Z</time></trkpt><trkpt lat="44.693524438958555" lon="8.59864772841807"><ele>294.0</ele><time>2026-05-01T10:40:11.001Z</time></trkpt><trkpt lat="44.69359934282571" lon="8.598841345349946"><ele>298.0</ele><time>2026-05-01T10:40:12.001Z</time></trkpt><trkpt lat="44.6936986693207" lon="8.599067005808179"><ele>302.0</ele><time>2026-05-01T10:40:13.001Z</time></trkpt><trkpt lat="44.693825841922674" lon="8.599321168545607"><ele>302.0</ele><time>2026-05-01T10:40:14.001Z</time></trkpt><trkpt lat="44.693941026906955" lon="8.599587503026168"><ele>302.0</ele><time>2026-05-01T10:40:15.001Z</time></trkpt><trkpt lat="44.694034469471134" lon="8.599809210389763"><ele>302.0</ele><time>2026-05-01T10:40:16.001Z</time></trkpt><trkpt lat="44.69411130036072" lon="8.600001725478233"><ele>302.0</ele><time>2026-05-01T10:40:17.001Z</time></trkpt><trkpt lat="44.694178323972885" lon="8.600180210242913"><ele>302.0</ele><time>2026-05-01T10:40:18.001Z</time></trkpt><trkpt lat="44.694239762085964" lon="8.600330190513978"><ele>302.0</ele><time>2026-05-01T10:40:19.001Z</time></trkpt><trkpt lat="44.69430802969636" lon="8.600467142078921"><ele>302.0</ele><time>2026-05-01T10:40:20.001Z</time></trkpt><trkpt lat="44.69440020900498" lon="8.600582889031523"><ele>300.25</ele><time>2026-05-01T10:40:21.001Z</time></trkpt><trkpt lat="44.69450407675748" lon="8.600644955384379"><ele>298.5</ele><time>2026-05-01T10:40:22.001Z</time></trkpt><trkpt lat="44.6946249556175" lon="8.600642687559173"><ele>296.75</ele><time>2026-05-01T10:40:23.001Z</time></trkpt><trkpt lat="44.694760785023085" lon="8.600599534802432"><ele>295.0</ele><time>2026-05-01T10:40:24.001Z</time></trkpt><trkpt lat="44.694900511013145" lon="8.600531153788292"><ele>295.0</ele><time>2026-05-01T10:40:25.001Z</time></trkpt><trkpt lat="44.695027321910494" lon="8.600523492069781"><ele>295.0</ele><time>2026-05-01T10:40:26.001Z</time></trkpt><trkpt lat="44.695144467307436" lon="8.600498411402716"><ele>295.0</ele><time>2026-05-01T10:40:27.001Z</time></trkpt><trkpt lat="44.69526471560812" lon="8.600524437112085"><ele>295.0</ele><time>2026-05-01T10:40:28.001Z</time></trkpt><trkpt lat="44.695377487153486" lon="8.600622909373385"><ele>297.3333333333333</ele><time>2026-05-01T10:40:29.001Z</time></trkpt><trkpt lat="44.69551870390268" lon="8.600718376219595"><ele>299.6666666666667</ele><time>2026-05-01T10:40:30.001Z</time></trkpt><trkpt lat="44.69566274311962" lon="8.60084345810758"><ele>302.0</ele><time>2026-05-01T10:40:31.001Z</time></trkpt><trkpt lat="44.69579880346272" lon="8.600964067786089"><ele>302.0</ele><time>2026-05-01T10:40:32.001Z</time></trkpt><trkpt lat="44.69592240348318" lon="8.601075312524245"><ele>302.0</ele><time>2026-05-01T10:40:33.001Z</time></trkpt><trkpt lat="44.696043267755684" lon="8.601190794934046"><ele>302.0</ele><time>2026-05-01T10:40:34.001Z</time></trkpt><trkpt lat="44.69616175769164" lon="8.601315115246784"><ele>302.0</ele><time>2026-05-01T10:40:35.001Z</time></trkpt><trkpt lat="44.696264806986164" lon="8.601448004678183"><ele>303.5</ele><time>2026-05-01T10:40:36.001Z</time></trkpt><trkpt lat="44.69636127146026" lon="8.601581712244105"><ele>305.0</ele><time>2026-05-01T10:40:37.001Z</time></trkpt><trkpt lat="44.6964567286799" lon="8.601712555969394"><ele>306.5</ele><time>2026-05-01T10:40:38.001Z</time></trkpt><trkpt lat="44.696546050626765" lon="8.601848331525169"><ele>308.0</ele><time>2026-05-01T10:40:39.001Z</time></trkpt><trkpt lat="44.69659949074825" lon="8.602018654392248"><ele>308.25</ele><time>2026-05-01T10:40:40.001Z</time></trkpt><trkpt lat="44.69656830548028" lon="8.602235480460555"><ele>308.5</ele><time>2026-05-01T10:40:41.001Z</time></trkpt><trkpt lat="44.69659764278376" lon="8.602404322805453"><ele>308.75</ele><time>2026-05-01T10:40:42.001Z</time></trkpt><trkpt lat="44.696597970737045" lon="8.602581742756026"><ele>309.0</ele><time>2026-05-01T10:40:43.001Z</time></trkpt><trkpt lat="44.69660115907735" lon="8.602741696843788"><ele>309.0</ele><time>2026-05-01T10:40:44.001Z</time></trkpt><trkpt lat="44.696616481368714" lon="8.602887143191795"><ele>309.0</ele><time>2026-05-01T10:40:45.001Z</time></trkpt><trkpt lat="44.69665756982653" lon="8.603035771355124"><ele>309.0</ele><time>2026-05-01T10:40:46.001Z</time></trkpt><trkpt lat="44.696730238949684" lon="8.603173303665447"><ele>309.0</ele><time>2026-05-01T10:40:47.001Z</time></trkpt><trkpt lat="44.696818880454884" lon="8.603290303831852"><ele>309.0</ele><time>2026-05-01T10:40:48.001Z</time></trkpt><trkpt lat="44.69691748749753" lon="8.603380428949702"><ele>309.0</ele><time>2026-05-01T10:40:49.001Z</time></trkpt><trkpt lat="44.69701022988718" lon="8.603459615152115"><ele>309.0</ele><time>2026-05-01T10:40:50.001Z</time></trkpt><trkpt lat="44.69708862895548" lon="8.603553303747324"><ele>309.0</ele><time>2026-05-01T10:40:51.001Z</time></trkpt><trkpt lat="44.69713878529318" lon="8.60369012136841"><ele>309.0</ele><time>2026-05-01T10:40:52.001Z</time></trkpt><trkpt lat="44.69709895301686" lon="8.603860536758138"><ele>308.75</ele><time>2026-05-01T10:40:53.001Z</time></trkpt><trkpt lat="44.69706924811646" lon="8.604025055172464"><ele>308.5</ele><time>2026-05-01T10:40:54.001Z</time></trkpt><trkpt lat="44.69704137971334" lon="8.604210346556666"><ele>308.25</ele><time>2026-05-01T10:40:55.001Z</time></trkpt><trkpt lat="44.69699085344812" lon="8.604380101388427"><ele>308.0</ele><time>2026-05-01T10:40:56.001Z</time></trkpt><trkpt lat="44.696941117236406" lon="8.60455973983386"><ele>307.75</ele><time>2026-05-01T10:40:57.001Z</time></trkpt><trkpt lat="44.696890704021605" lon="8.604738448060855"><ele>307.5</ele><time>2026-05-01T10:40:58.001Z</time></trkpt><trkpt lat="44.69683120070316" lon="8.604924299622988"><ele>307.25</ele><time>2026-05-01T10:40:59.001Z</time></trkpt><trkpt lat="44.69676991588219" lon="8.60511624661707"><ele>307.0</ele><time>2026-05-01T10:41:00.001Z</time></trkpt><trkpt lat="44.69670383413528" lon="8.605269697782559"><ele>308.25</ele><time>2026-05-01T10:41:01.001Z</time></trkpt><trkpt lat="44.69665327991055" lon="8.60545390355448"><ele>309.5</ele><time>2026-05-01T10:41:02Z</time></trkpt><trkpt lat="44.696593184807575" lon="8.605631461486508"><ele>310.75</ele><time>2026-05-01T10:41:03Z</time></trkpt><trkpt lat="44.69653874808313" lon="8.605810483590666"><ele>312.0</ele><time>2026-05-01T10:41:04Z</time></trkpt><trkpt lat="44.696483836762674" lon="8.605993258378655"><ele>311.5</ele><time>2026-05-01T10:41:05Z</time></trkpt><trkpt lat="44.696436245166055" lon="8.60618612186002"><ele>311.0</ele><time>2026-05-01T10:41:06Z</time></trkpt><trkpt lat="44.69639054136887" lon="8.606380119625037"><ele>310.5</ele><time>2026-05-01T10:41:07Z</time></trkpt><trkpt lat="44.696324564762634" lon="8.606576686418588"><ele>310.0</ele><time>2026-05-01T10:41:08Z</time></trkpt><trkpt lat="44.6962727720517" lon="8.606784943105334"><ele>310.0</ele><time>2026-05-01T10:41:09Z</time></trkpt><trkpt lat="44.6962213579541" lon="8.606991676989235"><ele>310.0</ele><time>2026-05-01T10:41:10Z</time></trkpt><trkpt lat="44.69617150642889" lon="8.607190057555185"><ele>310.0</ele><time>2026-05-01T10:41:11Z</time></trkpt><trkpt lat="44.69612260651207" lon="8.607385066735745"><ele>311.25</ele><time>2026-05-01T10:41:12Z</time></trkpt><trkpt lat="44.69607633384874" lon="8.607581213025204"><ele>312.5</ele><time>2026-05-01T10:41:13Z</time></trkpt><trkpt lat="44.69604886360537" lon="8.607773808838093"><ele>313.75</ele><time>2026-05-01T10:41:14Z</time></trkpt><trkpt lat="44.69601846117653" lon="8.607960976530316"><ele>315.0</ele><time>2026-05-01T10:41:15Z</time></trkpt><trkpt lat="44.69599410441246" lon="8.608146158983761"><ele>315.0</ele><time>2026-05-01T10:41:16Z</time></trkpt><trkpt lat="44.69596110919853" lon="8.608324630826932"><ele>315.0</ele><time>2026-05-01T10:41:17Z</time></trkpt><trkpt lat="44.69595643438758" lon="8.608512761390683"><ele>315.0</ele><time>2026-05-01T10:41:18Z</time></trkpt><trkpt lat="44.695944207273925" lon="8.608700878576037"><ele>315.0</ele><time>2026-05-01T10:41:19Z</time></trkpt><trkpt lat="44.695940330256896" lon="8.608891326115197"><ele>315.75</ele><time>2026-05-01T10:41:20Z</time></trkpt><trkpt lat="44.69594809227415" lon="8.609083959721561"><ele>316.5</ele><time>2026-05-01T10:41:21Z</time></trkpt><trkpt lat="44.69596258255778" lon="8.609276945284286"><ele>317.25</ele><time>2026-05-01T10:41:22Z</time></trkpt><trkpt lat="44.6959848986404" lon="8.609467702295351"><ele>318.0</ele><time>2026-05-01T10:41:23Z</time></trkpt><trkpt lat="44.696001043806724" lon="8.609646458661297"><ele>318.0</ele><time>2026-05-01T10:41:24Z</time></trkpt><trkpt lat="44.69602341367738" lon="8.609821121474587"><ele>318.0</ele><time>2026-05-01T10:41:25Z</time></trkpt><trkpt lat="44.696042671020386" lon="8.609990132870173"><ele>318.0</ele><time>2026-05-01T10:41:26Z</time></trkpt><trkpt lat="44.69606403619207" lon="8.610161901536442"><ele>318.0</ele><time>2026-05-01T10:41:27Z</time></trkpt><trkpt lat="44.69608952270588" lon="8.610345085439363"><ele>316.75</ele><time>2026-05-01T10:41:28Z</time></trkpt><trkpt lat="44.69612348176716" lon="8.610526298736879"><ele>315.5</ele><time>2026-05-01T10:41:29Z</time></trkpt><trkpt lat="44.6961611488884" lon="8.610699673923103"><ele>314.25</ele><time>2026-05-01T10:41:30Z</time></trkpt><trkpt lat="44.69619818052709" lon="8.610880730836554"><ele>313.0</ele><time>2026-05-01T10:41:31Z</time></trkpt><trkpt lat="44.696241503189086" lon="8.611056567557396"><ele>313.0</ele><time>2026-05-01T10:41:32Z</time></trkpt><trkpt lat="44.6962871544966" lon="8.611228631842858"><ele>313.0</ele><time>2026-05-01T10:41:33Z</time></trkpt><trkpt lat="44.696329787666464" lon="8.611393428196637"><ele>313.0</ele><time>2026-05-01T10:41:34Z</time></trkpt><trkpt lat="44.69637904002121" lon="8.611549467153381"><ele>313.0</ele><time>2026-05-01T10:41:35Z</time></trkpt><trkpt lat="44.69644069400327" lon="8.611703846771938"><ele>313.0</ele><time>2026-05-01T10:41:36Z</time></trkpt><trkpt lat="44.6965007516395" lon="8.61186381458208"><ele>313.0</ele><time>2026-05-01T10:41:37Z</time></trkpt><trkpt lat="44.696558620891345" lon="8.61202561239253"><ele>313.0</ele><time>2026-05-01T10:41:38Z</time></trkpt><trkpt lat="44.696612106457536" lon="8.612174630004203"><ele>313.0</ele><time>2026-05-01T10:41:39Z</time></trkpt><trkpt lat="44.69667546040385" lon="8.61232161906744"><ele>312.75</ele><time>2026-05-01T10:41:40Z</time></trkpt><trkpt lat="44.696737848189215" lon="8.61245927449941"><ele>312.5</ele><time>2026-05-01T10:41:41Z</time></trkpt><trkpt lat="44.696802354263525" lon="8.612589479047807"><ele>312.25</ele><time>2026-05-01T10:41:42Z</time></trkpt><trkpt lat="44.69686869069026" lon="8.612714954118005"><ele>312.0</ele><time>2026-05-01T10:41:43Z</time></trkpt><trkpt lat="44.696899203148966" lon="8.612863206902361"><ele>311.4</ele><time>2026-05-01T10:41:44Z</time></trkpt><trkpt lat="44.69695442389235" lon="8.61298642883122"><ele>310.79999999999995</ele><time>2026-05-01T10:41:45Z</time></trkpt><trkpt lat="44.697019282077484" lon="8.613100005914598"><ele>310.2</ele><time>2026-05-01T10:41:46Z</time></trkpt><trkpt lat="44.6971124038371" lon="8.613196620043883"><ele>309.59999999999997</ele><time>2026-05-01T10:41:47Z</time></trkpt><trkpt lat="44.69722401443782" lon="8.613280642611441"><ele>309.0</ele><time>2026-05-01T10:41:48Z</time></trkpt><trkpt lat="44.697338786827146" lon="8.613371575335037"><ele>309.0</ele><time>2026-05-01T10:41:49Z</time></trkpt><trkpt lat="44.697458425120416" lon="8.61347170925179"><ele>309.0</ele><time>2026-05-01T10:41:50Z</time></trkpt><trkpt lat="44.69757576646475" lon="8.613577483162409"><ele>309.0</ele><time>2026-05-01T10:41:51Z</time></trkpt><trkpt lat="44.697691645894444" lon="8.613676015474011"><ele>309.0</ele><time>2026-05-01T10:41:52Z</time></trkpt><trkpt lat="44.69781379133201" lon="8.613751808503723"><ele>307.25</ele><time>2026-05-01T10:41:53Z</time></trkpt><trkpt lat="44.697938340494375" lon="8.61381406351792"><ele>305.5</ele><time>2026-05-01T10:41:54Z</time></trkpt><trkpt lat="44.698067796319805" lon="8.613873707009562"><ele>303.75</ele><time>2026-05-01T10:41:55Z</time></trkpt><trkpt lat="44.69820001506189" lon="8.613932603368038"><ele>302.0</ele><time>2026-05-01T10:41:56Z</time></trkpt><trkpt lat="44.698339799396265" lon="8.61398697907237"><ele>302.0</ele><time>2026-05-01T10:41:57Z</time></trkpt><trkpt lat="44.698483084138566" lon="8.614052479282808"><ele>302.0</ele><time>2026-05-01T10:41:58Z</time></trkpt><trkpt lat="44.69862844976953" lon="8.61412273741398"><ele>302.0</ele><time>2026-05-01T10:41:59Z</time></trkpt><trkpt lat="44.698769114453235" lon="8.614188007510059"><ele>301.25</ele><time>2026-05-01T10:42:00Z</time></trkpt><trkpt lat="44.698910618612814" lon="8.614250551578527"><ele>300.5</ele><time>2026-05-01T10:42:01Z</time></trkpt><trkpt lat="44.699051636076454" lon="8.614310009397915"><ele>299.75</ele><time>2026-05-01T10:42:02Z</time></trkpt><trkpt lat="44.699188243328685" lon="8.614371286697455"><ele>299.0</ele><time>2026-05-01T10:42:03Z</time></trkpt><trkpt lat="44.69932043411667" lon="8.614433161727641"><ele>298.0</ele><time>2026-05-01T10:42:04Z</time></trkpt><trkpt lat="44.69943951733375" lon="8.614488691650637"><ele>297.0</ele><time>2026-05-01T10:42:05Z</time></trkpt><trkpt lat="44.69955408796108" lon="8.614546637339245"><ele>296.0</ele><time>2026-05-01T10:42:06Z</time></trkpt><trkpt lat="44.69965750635134" lon="8.614623400283278"><ele>295.0</ele><time>2026-05-01T10:42:07Z</time></trkpt><trkpt lat="44.69971944912454" lon="8.61474264424739"><ele>295.0</ele><time>2026-05-01T10:42:08.001Z</time></trkpt><trkpt lat="44.69976659713168" lon="8.614890466531415"><ele>295.0</ele><time>2026-05-01T10:42:09.001Z</time></trkpt><trkpt lat="44.699773611450475" lon="8.615074167865295"><ele>295.0</ele><time>2026-05-01T10:42:10.001Z</time></trkpt><trkpt lat="44.69978949912258" lon="8.61530306710974"><ele>295.0</ele><time>2026-05-01T10:42:11.001Z</time></trkpt><trkpt lat="44.699812398226804" lon="8.615534674977658"><ele>293.66666666666663</ele><time>2026-05-01T10:42:12.001Z</time></trkpt><trkpt lat="44.699821658780046" lon="8.61577054349201"><ele>292.3333333333333</ele><time>2026-05-01T10:42:13.001Z</time></trkpt><trkpt lat="44.69983654366306" lon="8.615994617368639"><ele>291.0</ele><time>2026-05-01T10:42:14.001Z</time></trkpt><trkpt lat="44.69984885862112" lon="8.616210823130647"><ele>290.0</ele><time>2026-05-01T10:42:15.001Z</time></trkpt><trkpt lat="44.69986068983427" lon="8.616419472228463"><ele>289.0</ele><time>2026-05-01T10:42:16.001Z</time></trkpt><trkpt lat="44.699875766183986" lon="8.61662475254404"><ele>288.0</ele><time>2026-05-01T10:42:17.001Z</time></trkpt><trkpt lat="44.69989036143472" lon="8.616825859211762"><ele>287.0</ele><time>2026-05-01T10:42:18.001Z</time></trkpt><trkpt lat="44.699879488554295" lon="8.617028891375316"><ele>287.0</ele><time>2026-05-01T10:42:19.001Z</time></trkpt><trkpt lat="44.69987198732819" lon="8.617222849484"><ele>287.0</ele><time>2026-05-01T10:42:20.001Z</time></trkpt><trkpt lat="44.699840481679516" lon="8.617413155733743"><ele>287.0</ele><time>2026-05-01T10:42:21.001Z</time></trkpt><trkpt lat="44.69980141569494" lon="8.617598865102588"><ele>287.0</ele><time>2026-05-01T10:42:22.001Z</time></trkpt><trkpt lat="44.69974726350256" lon="8.61777262342133"><ele>286.75</ele><time>2026-05-01T10:42:23.001Z</time></trkpt><trkpt lat="44.699684215445494" lon="8.617947334384983"><ele>286.5</ele><time>2026-05-01T10:42:24.001Z</time></trkpt><trkpt lat="44.699624313958275" lon="8.618119035292203"><ele>286.25</ele><time>2026-05-01T10:42:25.001Z</time></trkpt><trkpt lat="44.699579038938836" lon="8.618301176479179"><ele>286.0</ele><time>2026-05-01T10:42:26.001Z</time></trkpt><trkpt lat="44.69951632189024" lon="8.618471979285014"><ele>286.0</ele><time>2026-05-01T10:42:27.001Z</time></trkpt><trkpt lat="44.69945450173548" lon="8.618645608775333"><ele>286.0</ele><time>2026-05-01T10:42:28.001Z</time></trkpt><trkpt lat="44.69939429102266" lon="8.618818916818471"><ele>286.0</ele><time>2026-05-01T10:42:29.001Z</time></trkpt><trkpt lat="44.699341426752945" lon="8.618996593439167"><ele>286.0</ele><time>2026-05-01T10:42:30.001Z</time></trkpt><trkpt lat="44.699299713685186" lon="8.619175397809459"><ele>282.5</ele><time>2026-05-01T10:42:31.001Z</time></trkpt><trkpt lat="44.69926844295694" lon="8.619360346773721"><ele>279.0</ele><time>2026-05-01T10:42:32Z</time></trkpt><trkpt lat="44.69924118854221" lon="8.619544871659606"><ele>275.5</ele><time>2026-05-01T10:42:33Z</time></trkpt><trkpt lat="44.699215449586134" lon="8.619729376571478"><ele>272.0</ele><time>2026-05-01T10:42:34Z</time></trkpt><trkpt lat="44.69919418110795" lon="8.619914717485265"><ele>271.25</ele><time>2026-05-01T10:42:35Z</time></trkpt><trkpt lat="44.69917993630235" lon="8.620098542161672"><ele>270.5</ele><time>2026-05-01T10:42:36Z</time></trkpt><trkpt lat="44.69918128647831" lon="8.62028297290183"><ele>269.75</ele><time>2026-05-01T10:42:37Z</time></trkpt><trkpt lat="44.699222944423106" lon="8.62045880335572"><ele>269.0</ele><time>2026-05-01T10:42:38Z</time></trkpt><trkpt lat="44.69929662015608" lon="8.620607145120504"><ele>269.25</ele><time>2026-05-01T10:42:39Z</time></trkpt><trkpt lat="44.69938979701695" lon="8.620738713460488"><ele>269.5</ele><time>2026-05-01T10:42:40Z</time></trkpt><trkpt lat="44.69946024296593" lon="8.620892902625387"><ele>269.75</ele><time>2026-05-01T10:42:41Z</time></trkpt><trkpt lat="44.69953921965555" lon="8.621031038385924"><ele>270.0</ele><time>2026-05-01T10:42:42Z</time></trkpt><trkpt lat="44.69960800073474" lon="8.621177365226774"><ele>269.5</ele><time>2026-05-01T10:42:43Z</time></trkpt><trkpt lat="44.69963535211227" lon="8.621343985214471"><ele>269.0</ele><time>2026-05-01T10:42:44Z</time></trkpt><trkpt lat="44.69957720127634" lon="8.62149173224596"><ele>268.5</ele><time>2026-05-01T10:42:45Z</time></trkpt><trkpt lat="44.699489794287004" lon="8.621597303028484"><ele>268.0</ele><time>2026-05-01T10:42:46Z</time></trkpt><trkpt lat="44.69940933469673" lon="8.621720487458635"><ele>266.0</ele><time>2026-05-01T10:42:47Z</time></trkpt><trkpt lat="44.69934359467395" lon="8.621857032829626"><ele>264.0</ele><time>2026-05-01T10:42:48Z</time></trkpt><trkpt lat="44.699267237024856" lon="8.621977069828585"><ele>262.0</ele><time>2026-05-01T10:42:49Z</time></trkpt><trkpt lat="44.699211572141856" lon="8.622120631842687"><ele>260.0</ele><time>2026-05-01T10:42:50Z</time></trkpt><trkpt lat="44.69920106501383" lon="8.622282127335868"><ele>260.75</ele><time>2026-05-01T10:42:51Z</time></trkpt><trkpt lat="44.699247284739194" lon="8.622441175076013"><ele>261.5</ele><time>2026-05-01T10:42:52Z</time></trkpt><trkpt lat="44.699337363876296" lon="8.622587521171228"><ele>262.25</ele><time>2026-05-01T10:42:53Z</time></trkpt><trkpt lat="44.69943484651644" lon="8.622718130837498"><ele>263.0</ele><time>2026-05-01T10:42:54Z</time></trkpt><trkpt lat="44.69953517057438" lon="8.622827469521763"><ele>260.75</ele><time>2026-05-01T10:42:55Z</time></trkpt><trkpt lat="44.699629606502306" lon="8.622934283724899"><ele>258.5</ele><time>2026-05-01T10:42:56Z</time></trkpt><trkpt lat="44.699720512941006" lon="8.623044548173512"><ele>256.25</ele><time>2026-05-01T10:42:57Z</time></trkpt><trkpt lat="44.6997914307254" lon="8.623177697104788"><ele>254.0</ele><time>2026-05-01T10:42:58Z</time></trkpt><trkpt lat="44.69979200410911" lon="8.623347997443986"><ele>254.0</ele><time>2026-05-01T10:42:59Z</time></trkpt><trkpt lat="44.69979315588257" lon="8.623510020898859"><ele>254.0</ele><time>2026-05-01T10:43:00Z</time></trkpt><trkpt lat="44.69967076374927" lon="8.62359350401261"><ele>254.0</ele><time>2026-05-01T10:43:01Z</time></trkpt><trkpt lat="44.69957258600104" lon="8.623692281148575"><ele>254.0</ele><time>2026-05-01T10:43:02Z</time></trkpt><trkpt lat="44.699467159969096" lon="8.623806356186348"><ele>251.0</ele><time>2026-05-01T10:43:03Z</time></trkpt><trkpt lat="44.699363676344326" lon="8.623952716406107"><ele>248.0</ele><time>2026-05-01T10:43:04Z</time></trkpt><trkpt lat="44.69925712360316" lon="8.624118577030684"><ele>245.0</ele><time>2026-05-01T10:43:05Z</time></trkpt><trkpt lat="44.69916153539913" lon="8.624325145162013"><ele>245.0</ele><time>2026-05-01T10:43:06Z</time></trkpt><trkpt lat="44.699074616357585" lon="8.624543688791567"><ele>245.0</ele><time>2026-05-01T10:43:07Z</time></trkpt><trkpt lat="44.698990631126016" lon="8.624765389988914"><ele>245.0</ele><time>2026-05-01T10:43:08Z</time></trkpt><trkpt lat="44.698914943620736" lon="8.624979092275119"><ele>245.0</ele><time>2026-05-01T10:43:09Z</time></trkpt><trkpt lat="44.69886324591209" lon="8.625203571760068"><ele>245.0</ele><time>2026-05-01T10:43:10Z</time></trkpt><trkpt lat="44.69882770949886" lon="8.625450013448392"><ele>245.0</ele><time>2026-05-01T10:43:11Z</time></trkpt><trkpt lat="44.69879649709447" lon="8.625691988281035"><ele>244.33333333333334</ele><time>2026-05-01T10:43:12Z</time></trkpt><trkpt lat="44.698745946974704" lon="8.62592492846099"><ele>243.66666666666669</ele><time>2026-05-01T10:43:13Z</time></trkpt><trkpt lat="44.69871099590349" lon="8.626151361665956"><ele>243.0</ele><time>2026-05-01T10:43:14Z</time></trkpt><trkpt lat="44.69867783473244" lon="8.626368155881542"><ele>243.0</ele><time>2026-05-01T10:43:15Z</time></trkpt><trkpt lat="44.69864491936837" lon="8.626570317201885"><ele>243.0</ele><time>2026-05-01T10:43:16Z</time></trkpt><trkpt lat="44.69862444319453" lon="8.626772730842722"><ele>243.0</ele><time>2026-05-01T10:43:17Z</time></trkpt><trkpt lat="44.69859526607634" lon="8.626962616480526"><ele>243.0</ele><time>2026-05-01T10:43:18Z</time></trkpt><trkpt lat="44.69857661059121" lon="8.627169734676528"><ele>243.33333333333331</ele><time>2026-05-01T10:43:19Z</time></trkpt><trkpt lat="44.69858322829155" lon="8.627392949511988"><ele>243.66666666666666</ele><time>2026-05-01T10:43:20Z</time></trkpt><trkpt lat="44.6986458715787" lon="8.627620671142239"><ele>244.0</ele><time>2026-05-01T10:43:21Z</time></trkpt><trkpt lat="44.69875525625001" lon="8.627829185464917"><ele>244.0</ele><time>2026-05-01T10:43:22Z</time></trkpt><trkpt lat="44.698878614317984" lon="8.628014962580727"><ele>244.0</ele><time>2026-05-01T10:43:23Z</time></trkpt><trkpt lat="44.69900116221934" lon="8.628197532924723"><ele>244.0</ele><time>2026-05-01T10:43:24Z</time></trkpt><trkpt lat="44.699108140776694" lon="8.628378011056338"><ele>244.0</ele><time>2026-05-01T10:43:25Z</time></trkpt><trkpt lat="44.69920179547756" lon="8.628542879485206"><ele>244.0</ele><time>2026-05-01T10:43:26Z</time></trkpt><trkpt lat="44.69929926012253" lon="8.628709260553983"><ele>244.0</ele><time>2026-05-01T10:43:27Z</time></trkpt><trkpt lat="44.69940898458627" lon="8.628833135658278"><ele>244.0</ele><time>2026-05-01T10:43:28Z</time></trkpt><trkpt lat="44.6995324534639" lon="8.628924042254187"><ele>245.2</ele><time>2026-05-01T10:43:29Z</time></trkpt><trkpt lat="44.699656997687725" lon="8.6289814868022"><ele>246.39999999999998</ele><time>2026-05-01T10:43:30Z</time></trkpt><trkpt lat="44.699771623359624" lon="8.629004570093013"><ele>247.6</ele><time>2026-05-01T10:43:31Z</time></trkpt><trkpt lat="44.69986151517541" lon="8.629057259773488"><ele>248.8</ele><time>2026-05-01T10:43:32Z</time></trkpt><trkpt lat="44.69994254674809" lon="8.62912409425071"><ele>250.0</ele><time>2026-05-01T10:43:33Z</time></trkpt><trkpt lat="44.7000011094803" lon="8.629218310343438"><ele>249.99999999999997</ele><time>2026-05-01T10:43:34Z</time></trkpt><trkpt lat="44.70002258305092" lon="8.629328969502605"><ele>250.0</ele><time>2026-05-01T10:43:35Z</time></trkpt><trkpt lat="44.70003064673372" lon="8.629439109606135"><ele>250.0</ele><time>2026-05-01T10:43:37Z</time></trkpt><trkpt lat="44.70004504255743" lon="8.62955899792041"><ele>250.0</ele><time>2026-05-01T10:43:44Z</time></trkpt><trkpt lat="44.70005713909298" lon="8.62965393386412"><ele>249.99999999999997</ele><time>2026-05-01T10:43:45Z</time></trkpt><trkpt lat="44.700044992353014" lon="8.629764904932431"><ele>250.0</ele><time>2026-05-01T10:43:46Z</time></trkpt><trkpt lat="44.70002685485124" lon="8.629906503573835"><ele>250.0</ele><time>2026-05-01T10:43:47Z</time></trkpt><trkpt lat="44.700010943491144" lon="8.630058407622176"><ele>250.0</ele><time>2026-05-01T10:43:48Z</time></trkpt><trkpt lat="44.69999661801979" lon="8.630211192528789"><ele>250.0</ele><time>2026-05-01T10:43:49Z</time></trkpt><trkpt lat="44.69997999840783" lon="8.630379653349333"><ele>250.0</ele><time>2026-05-01T10:43:50Z</time></trkpt><trkpt lat="44.699963273092905" lon="8.630544143362108"><ele>250.0</ele><time>2026-05-01T10:43:51Z</time></trkpt><trkpt lat="44.69992914717484" lon="8.630882622845757"><ele>250.0</ele><time>2026-05-01T10:43:52Z</time></trkpt><trkpt lat="44.69990755569732" lon="8.631084700388724"><ele>250.0</ele><time>2026-05-01T10:43:53Z</time></trkpt><trkpt lat="44.69989197486005" lon="8.631282864725248"><ele>249.25</ele><time>2026-05-01T10:43:54Z</time></trkpt><trkpt lat="44.69987452974773" lon="8.631471750002651"><ele>248.5</ele><time>2026-05-01T10:43:55Z</time></trkpt><trkpt lat="44.69985680077666" lon="8.63166099116739"><ele>247.75</ele><time>2026-05-01T10:43:56Z</time></trkpt><trkpt lat="44.699837050781525" lon="8.631845413912263"><ele>247.0</ele><time>2026-05-01T10:43:57Z</time></trkpt><trkpt lat="44.69979279341715" lon="8.632009983827448"><ele>247.0</ele><time>2026-05-01T10:43:58Z</time></trkpt><trkpt lat="44.69974789250788" lon="8.632146890170379"><ele>247.0</ele><time>2026-05-01T10:43:59Z</time></trkpt><trkpt lat="44.69968036553201" lon="8.632304865316568"><ele>247.0</ele><time>2026-05-01T10:44:00Z</time></trkpt><trkpt lat="44.69959695578945" lon="8.632480357377602"><ele>247.0</ele><time>2026-05-01T10:44:01Z</time></trkpt><trkpt lat="44.699504909160964" lon="8.632675495343987"><ele>249.0</ele><time>2026-05-01T10:44:02Z</time></trkpt><trkpt lat="44.699416664489405" lon="8.632903989310634"><ele>251.0</ele><time>2026-05-01T10:44:03Z</time></trkpt><trkpt lat="44.69932800487845" lon="8.633099412285464"><ele>253.0</ele><time>2026-05-01T10:44:04Z</time></trkpt><trkpt lat="44.69926145693108" lon="8.633277596742593"><ele>253.0</ele><time>2026-05-01T10:44:05Z</time></trkpt><trkpt lat="44.699187645981944" lon="8.633449521260975"><ele>253.0</ele><time>2026-05-01T10:44:06Z</time></trkpt><trkpt lat="44.69912466630685" lon="8.633624270803391"><ele>253.0</ele><time>2026-05-01T10:44:07Z</time></trkpt><trkpt lat="44.69906777076838" lon="8.633781008549319"><ele>253.0</ele><time>2026-05-01T10:44:08Z</time></trkpt><trkpt lat="44.69901332633123" lon="8.63391673990076"><ele>253.4</ele><time>2026-05-01T10:44:09Z</time></trkpt><trkpt lat="44.69896942491395" lon="8.634038798402896"><ele>253.8</ele><time>2026-05-01T10:44:10Z</time></trkpt><trkpt lat="44.69896786921075" lon="8.63415666529464"><ele>254.2</ele><time>2026-05-01T10:44:11Z</time></trkpt><trkpt lat="44.69903126360242" lon="8.634269498907006"><ele>254.6</ele><time>2026-05-01T10:44:12Z</time></trkpt><trkpt lat="44.69916328506198" lon="8.634328108533508"><ele>255.0</ele><time>2026-05-01T10:44:13Z</time></trkpt><trkpt lat="44.69930069139841" lon="8.634423904007424"><ele>254.75</ele><time>2026-05-01T10:44:14Z</time></trkpt><trkpt lat="44.69936281811278" lon="8.634549788078314"><ele>254.5</ele><time>2026-05-01T10:44:15Z</time></trkpt><trkpt lat="44.69934202731223" lon="8.634732681521621"><ele>254.25</ele><time>2026-05-01T10:44:16Z</time></trkpt><trkpt lat="44.699244110921256" lon="8.634901747800496"><ele>254.0</ele><time>2026-05-01T10:44:17Z</time></trkpt><trkpt lat="44.69918891128238" lon="8.635123618851509"><ele>253.66666666666669</ele><time>2026-05-01T10:44:18Z</time></trkpt><trkpt lat="44.699133828046065" lon="8.635379363723214"><ele>253.33333333333331</ele><time>2026-05-01T10:44:19Z</time></trkpt><trkpt lat="44.69905824041791" lon="8.635646621945517"><ele>253.0</ele><time>2026-05-01T10:44:20Z</time></trkpt><trkpt lat="44.69899213682415" lon="8.635911197559906"><ele>253.0</ele><time>2026-05-01T10:44:21Z</time></trkpt><trkpt lat="44.69896382661567" lon="8.636174122556511"><ele>253.0</ele><time>2026-05-01T10:44:22Z</time></trkpt><trkpt lat="44.69891011504511" lon="8.636413792274142"><ele>253.0</ele><time>2026-05-01T10:44:23Z</time></trkpt><trkpt lat="44.69885842259135" lon="8.636644155949377"><ele>253.0</ele><time>2026-05-01T10:44:24Z</time></trkpt><trkpt lat="44.69880847038502" lon="8.636872082900776"><ele>253.0</ele><time>2026-05-01T10:44:25Z</time></trkpt><trkpt lat="44.698761536637555" lon="8.637095903921672"><ele>253.0</ele><time>2026-05-01T10:44:26Z</time></trkpt><trkpt lat="44.6987141608382" lon="8.63731695192267"><ele>252.0</ele><time>2026-05-01T10:44:27Z</time></trkpt><trkpt lat="44.698666032262174" lon="8.637538049314884"><ele>251.0</ele><time>2026-05-01T10:44:28Z</time></trkpt><trkpt lat="44.698627621193836" lon="8.637755595472433"><ele>250.0</ele><time>2026-05-01T10:44:29Z</time></trkpt><trkpt lat="44.69860253778718" lon="8.637971600456643"><ele>249.66666666666666</ele><time>2026-05-01T10:44:30Z</time></trkpt><trkpt lat="44.69860044050959" lon="8.638192523589483"><ele>249.33333333333331</ele><time>2026-05-01T10:44:31Z</time></trkpt><trkpt lat="44.69862459261524" lon="8.638414702594638"><ele>249.0</ele><time>2026-05-01T10:44:32Z</time></trkpt><trkpt lat="44.698664810789715" lon="8.638628851957288"><ele>248.33333333333331</ele><time>2026-05-01T10:44:33Z</time></trkpt><trkpt lat="44.6987255626694" lon="8.63882777310924"><ele>247.66666666666666</ele><time>2026-05-01T10:44:34Z</time></trkpt><trkpt lat="44.69879863926598" lon="8.63902551730075"><ele>247.0</ele><time>2026-05-01T10:44:35Z</time></trkpt><trkpt lat="44.69888230793001" lon="8.639217990194405"><ele>247.0</ele><time>2026-05-01T10:44:36Z</time></trkpt><trkpt lat="44.6989531078318" lon="8.639421825166188"><ele>247.0</ele><time>2026-05-01T10:44:37Z</time></trkpt><trkpt lat="44.699036120511714" lon="8.639613104948593"><ele>247.0</ele><time>2026-05-01T10:44:38Z</time></trkpt><trkpt lat="44.699117879472254" lon="8.639801495905367"><ele>247.0</ele><time>2026-05-01T10:44:39Z</time></trkpt><trkpt lat="44.69921118893589" lon="8.639978851844544"><ele>247.0</ele><time>2026-05-01T10:44:40Z</time></trkpt><trkpt lat="44.69929221521645" lon="8.640169713855153"><ele>247.0</ele><time>2026-05-01T10:44:41Z</time></trkpt><trkpt lat="44.69937102315134" lon="8.640354045002283"><ele>244.33333333333331</ele><time>2026-05-01T10:44:42Z</time></trkpt><trkpt lat="44.69946058689455" lon="8.640521319366997"><ele>241.66666666666669</ele><time>2026-05-01T10:44:43Z</time></trkpt><trkpt lat="44.69957697467019" lon="8.640658962735195"><ele>239.0</ele><time>2026-05-01T10:44:44Z</time></trkpt><trkpt lat="44.69970621524048" lon="8.640772439258116"><ele>239.0</ele><time>2026-05-01T10:44:45Z</time></trkpt><trkpt lat="44.69984964826574" lon="8.640849258111567"><ele>239.0</ele><time>2026-05-01T10:44:46Z</time></trkpt><trkpt lat="44.69999566360519" lon="8.640905876535351"><ele>239.0</ele><time>2026-05-01T10:44:47Z</time></trkpt><trkpt lat="44.70013965244002" lon="8.640952777735018"><ele>237.5</ele><time>2026-05-01T10:44:48Z</time></trkpt><trkpt lat="44.700269193730115" lon="8.641021157557898"><ele>236.0</ele><time>2026-05-01T10:44:49Z</time></trkpt><trkpt lat="44.70038350336199" lon="8.641114528948021"><ele>234.5</ele><time>2026-05-01T10:44:50Z</time></trkpt><trkpt lat="44.700480413730155" lon="8.64123170290271"><ele>233.0</ele><time>2026-05-01T10:44:51Z</time></trkpt><trkpt lat="44.7005395432119" lon="8.641389842473755"><ele>232.5</ele><time>2026-05-01T10:44:52Z</time></trkpt><trkpt lat="44.70059792860002" lon="8.641536889246511"><ele>232.0</ele><time>2026-05-01T10:44:53Z</time></trkpt><trkpt lat="44.70059808585905" lon="8.641707272076903"><ele>231.5</ele><time>2026-05-01T10:44:54Z</time></trkpt><trkpt lat="44.70059109542315" lon="8.641862474493674"><ele>231.0</ele><time>2026-05-01T10:44:55Z</time></trkpt><trkpt lat="44.70056697573666" lon="8.642013119619946"><ele>231.0</ele><time>2026-05-01T10:44:56Z</time></trkpt><trkpt lat="44.70051740950146" lon="8.642146758083085"><ele>231.0</ele><time>2026-05-01T10:44:57Z</time></trkpt><trkpt lat="44.70045416694654" lon="8.642275858262423"><ele>231.0</ele><time>2026-05-01T10:44:58Z</time></trkpt><trkpt lat="44.700368929538016" lon="8.64238228483243"><ele>231.0</ele><time>2026-05-01T10:44:59Z</time></trkpt><trkpt lat="44.700267162231874" lon="8.642477888340558"><ele>231.33333333333331</ele><time>2026-05-01T10:45:00Z</time></trkpt><trkpt lat="44.70014583707883" lon="8.642564298382363"><ele>231.66666666666666</ele><time>2026-05-01T10:45:01Z</time></trkpt><trkpt lat="44.70000664336285" lon="8.642672712154397"><ele>232.0</ele><time>2026-05-01T10:45:02Z</time></trkpt><trkpt lat="44.699855755222096" lon="8.642780092094023"><ele>230.66666666666666</ele><time>2026-05-01T10:45:03Z</time></trkpt><trkpt lat="44.69970948977698" lon="8.642878062352152"><ele>229.33333333333331</ele><time>2026-05-01T10:45:04Z</time></trkpt><trkpt lat="44.699573410258196" lon="8.642981116092043"><ele>228.0</ele><time>2026-05-01T10:45:05Z</time></trkpt><trkpt lat="44.69944807324928" lon="8.643097609291718"><ele>228.0</ele><time>2026-05-01T10:45:06Z</time></trkpt><trkpt lat="44.699340156942846" lon="8.643241262986598"><ele>228.0</ele><time>2026-05-01T10:45:07Z</time></trkpt><trkpt lat="44.69925542076395" lon="8.643404963398375"><ele>228.0</ele><time>2026-05-01T10:45:08Z</time></trkpt><trkpt lat="44.69918873875698" lon="8.643585788349206"><ele>228.0</ele><time>2026-05-01T10:45:09Z</time></trkpt><trkpt lat="44.69914353303024" lon="8.643788765998003"><ele>227.0</ele><time>2026-05-01T10:45:10Z</time></trkpt><trkpt lat="44.69912305396864" lon="8.644015621005144"><ele>226.0</ele><time>2026-05-01T10:45:11Z</time></trkpt><trkpt lat="44.69912633043975" lon="8.644246021570916"><ele>225.0</ele><time>2026-05-01T10:45:12Z</time></trkpt><trkpt lat="44.69914423517841" lon="8.644477531212138"><ele>224.33333333333331</ele><time>2026-05-01T10:45:13Z</time></trkpt><trkpt lat="44.699155740110015" lon="8.644704773152004"><ele>223.66666666666666</ele><time>2026-05-01T10:45:14Z</time></trkpt><trkpt lat="44.69916125551626" lon="8.644919501787824"><ele>223.0</ele><time>2026-05-01T10:45:15Z</time></trkpt><trkpt lat="44.699166421869485" lon="8.645126566426415"><ele>221.75</ele><time>2026-05-01T10:45:16Z</time></trkpt><trkpt lat="44.699169755285276" lon="8.645330039095345"><ele>220.5</ele><time>2026-05-01T10:45:17Z</time></trkpt><trkpt lat="44.69917769585654" lon="8.64553054801876"><ele>219.25</ele><time>2026-05-01T10:45:18Z</time></trkpt><trkpt lat="44.69918505039716" lon="8.645729043938491"><ele>218.0</ele><time>2026-05-01T10:45:19Z</time></trkpt><trkpt lat="44.699194050779724" lon="8.64590413658559"><ele>218.00000000000003</ele><time>2026-05-01T10:45:20Z</time></trkpt><trkpt lat="44.69920573221523" lon="8.646064310225286"><ele>218.0</ele><time>2026-05-01T10:45:21Z</time></trkpt><trkpt lat="44.69921925810122" lon="8.646194789255716"><ele>218.0</ele><time>2026-05-01T10:45:22Z</time></trkpt><trkpt lat="44.69923171756216" lon="8.6463055581568"><ele>218.0</ele><time>2026-05-01T10:45:23Z</time></trkpt><trkpt lat="44.6992353826106" lon="8.646396672500947"><ele>218.00000000000003</ele><time>2026-05-01T10:45:24Z</time></trkpt><trkpt lat="44.69925078713656" lon="8.646482954116356"><ele>218.0</ele><time>2026-05-01T10:45:25Z</time></trkpt><trkpt lat="44.69919661820952" lon="8.646550607889882"><ele>218.0</ele><time>2026-05-01T10:45:26Z</time></trkpt><trkpt lat="44.699108767771314" lon="8.646575622503029"><ele>218.0</ele><time>2026-05-01T10:45:27Z</time></trkpt><trkpt lat="44.69898821456552" lon="8.646531308843153"><ele>218.0</ele><time>2026-05-01T10:45:28Z</time></trkpt><trkpt lat="44.698843134748444" lon="8.646515124033142"><ele>218.0</ele><time>2026-05-01T10:45:29Z</time></trkpt><trkpt lat="44.698706741629515" lon="8.646501932522536"><ele>218.0</ele><time>2026-05-01T10:45:30Z</time></trkpt><trkpt lat="44.69858788496778" lon="8.646449023488735"><ele>218.0</ele><time>2026-05-01T10:45:31Z</time></trkpt><trkpt lat="44.69848075833134" lon="8.646402385866857"><ele>218.0</ele><time>2026-05-01T10:45:32Z</time></trkpt><trkpt lat="44.698371142444586" lon="8.646370430386177"><ele>218.0</ele><time>2026-05-01T10:45:33Z</time></trkpt><trkpt lat="44.69826906518971" lon="8.64629643936182"><ele>217.75</ele><time>2026-05-01T10:45:34Z</time></trkpt><trkpt lat="44.69815635572445" lon="8.646273924672233"><ele>217.5</ele><time>2026-05-01T10:45:35Z</time></trkpt><trkpt lat="44.698045597148734" lon="8.646271562371101"><ele>217.25</ele><time>2026-05-01T10:45:36Z</time></trkpt><trkpt lat="44.69793081768892" lon="8.646302558697771"><ele>217.0</ele><time>2026-05-01T10:45:37Z</time></trkpt><trkpt lat="44.69781937890176" lon="8.646326877897202"><ele>216.0</ele><time>2026-05-01T10:45:38Z</time></trkpt><trkpt lat="44.69770958148027" lon="8.646334850558484"><ele>215.0</ele><time>2026-05-01T10:45:39Z</time></trkpt><trkpt lat="44.69759446156091" lon="8.646310802888406"><ele>214.0</ele><time>2026-05-01T10:45:40Z</time></trkpt><trkpt lat="44.697480871373216" lon="8.646211210963228"><ele>213.0</ele><time>2026-05-01T10:45:41Z</time></trkpt><trkpt lat="44.69735481614228" lon="8.646138572925627"><ele>213.5</ele><time>2026-05-01T10:45:42Z</time></trkpt><trkpt lat="44.69723856658513" lon="8.646044565349714"><ele>214.0</ele><time>2026-05-01T10:45:43Z</time></trkpt><trkpt lat="44.69712622683725" lon="8.645954666765938"><ele>214.5</ele><time>2026-05-01T10:45:44Z</time></trkpt><trkpt lat="44.69701708915976" lon="8.645867002689625"><ele>215.0</ele><time>2026-05-01T10:45:45Z</time></trkpt><trkpt lat="44.69691333138843" lon="8.645805174356672"><ele>212.75</ele><time>2026-05-01T10:45:46Z</time></trkpt><trkpt lat="44.69680971986781" lon="8.645822755910775"><ele>210.5</ele><time>2026-05-01T10:45:47Z</time></trkpt><trkpt lat="44.696703294051154" lon="8.645904363626896"><ele>208.25</ele><time>2026-05-01T10:45:48Z</time></trkpt><trkpt lat="44.696592270643194" lon="8.646019944171064"><ele>206.0</ele><time>2026-05-01T10:45:49Z</time></trkpt><trkpt lat="44.696464793595105" lon="8.646055888833875"><ele>206.0</ele><time>2026-05-01T10:45:50Z</time></trkpt><trkpt lat="44.6963478848054" lon="8.646061259972567"><ele>206.0</ele><time>2026-05-01T10:45:51Z</time></trkpt><trkpt lat="44.696224294479386" lon="8.646086449415652"><ele>206.0</ele><time>2026-05-01T10:45:52Z</time></trkpt><trkpt lat="44.69610408162847" lon="8.646123221129221"><ele>206.0</ele><time>2026-05-01T10:45:53Z</time></trkpt><trkpt lat="44.69599499530387" lon="8.646233411340873"><ele>204.0</ele><time>2026-05-01T10:45:54Z</time></trkpt><trkpt lat="44.695898586963" lon="8.646372830725742"><ele>202.0</ele><time>2026-05-01T10:45:55Z</time></trkpt><trkpt lat="44.695801076880365" lon="8.64651708868598"><ele>200.0</ele><time>2026-05-01T10:45:56Z</time></trkpt><trkpt lat="44.695690331677035" lon="8.646612829382866"><ele>198.0</ele><time>2026-05-01T10:45:57Z</time></trkpt><trkpt lat="44.69558877337438" lon="8.646637723768883"><ele>198.0</ele><time>2026-05-01T10:45:58Z</time></trkpt><trkpt lat="44.695472999899344" lon="8.646585447396134"><ele>198.0</ele><time>2026-05-01T10:45:59Z</time></trkpt><trkpt lat="44.69533999394525" lon="8.646590697882871"><ele>198.0</ele><time>2026-05-01T10:46:00Z</time></trkpt><trkpt lat="44.6952030321264" lon="8.646614312650126"><ele>198.0</ele><time>2026-05-01T10:46:01Z</time></trkpt><trkpt lat="44.69507477031554" lon="8.646579293523043"><ele>196.4</ele><time>2026-05-01T10:46:02Z</time></trkpt><trkpt lat="44.694949585240444" lon="8.64655928578024"><ele>194.8</ele><time>2026-05-01T10:46:03Z</time></trkpt><trkpt lat="44.69484468193713" lon="8.646518033163012"><ele>193.2</ele><time>2026-05-01T10:46:04Z</time></trkpt><trkpt lat="44.69476101900414" lon="8.646524371670477"><ele>191.6</ele><time>2026-05-01T10:46:05Z</time></trkpt><trkpt lat="44.69469174900556" lon="8.646581102741266"><ele>190.0</ele><time>2026-05-01T10:46:06Z</time></trkpt><trkpt lat="44.69468382809073" lon="8.646753493184418"><ele>190.0</ele><time>2026-05-01T10:46:07Z</time></trkpt><trkpt lat="44.69477676023698" lon="8.646910577574774"><ele>190.0</ele><time>2026-05-01T10:46:08Z</time></trkpt><trkpt lat="44.69487460829146" lon="8.64702586147142"><ele>190.0</ele><time>2026-05-01T10:46:09Z</time></trkpt><trkpt lat="44.694983702179194" lon="8.647129730895637"><ele>190.0</ele><time>2026-05-01T10:46:10Z</time></trkpt><trkpt lat="44.69504361877951" lon="8.647272758712532"><ele>189.2</ele><time>2026-05-01T10:46:11Z</time></trkpt><trkpt lat="44.695091301939705" lon="8.647393323873029"><ele>188.4</ele><time>2026-05-01T10:46:12Z</time></trkpt><trkpt lat="44.695022794125265" lon="8.647512293723718"><ele>187.60000000000002</ele><time>2026-05-01T10:46:13Z</time></trkpt><trkpt lat="44.69493229270909" lon="8.64756108629927"><ele>186.8</ele><time>2026-05-01T10:46:14Z</time></trkpt><trkpt lat="44.69483740296057" lon="8.64765133080515"><ele>186.0</ele><time>2026-05-01T10:46:15Z</time></trkpt><trkpt lat="44.69473461780154" lon="8.647771959586024"><ele>185.5</ele><time>2026-05-01T10:46:16Z</time></trkpt><trkpt lat="44.6946634330977" lon="8.647931854207869"><ele>185.0</ele><time>2026-05-01T10:46:17Z</time></trkpt><trkpt lat="44.694654131683876" lon="8.648146849733905"><ele>184.5</ele><time>2026-05-01T10:46:18Z</time></trkpt><trkpt lat="44.694658152693435" lon="8.648352822346393"><ele>184.0</ele><time>2026-05-01T10:46:19Z</time></trkpt><trkpt lat="44.69465815269434" lon="8.648565797051967"><ele>183.75</ele><time>2026-05-01T10:46:20Z</time></trkpt><trkpt lat="44.694658152696256" lon="8.648773917104497"><ele>183.5</ele><time>2026-05-01T10:46:21Z</time></trkpt><trkpt lat="44.69465716873346" lon="8.648983273737695"><ele>183.25</ele><time>2026-05-01T10:46:22Z</time></trkpt><trkpt lat="44.69465617541505" lon="8.649192265942478"><ele>183.0</ele><time>2026-05-01T10:46:23Z</time></trkpt><trkpt lat="44.694655430606886" lon="8.649398743957121"><ele>183.0</ele><time>2026-05-01T10:46:24Z</time></trkpt><trkpt lat="44.69465065535899" lon="8.649589057807244"><ele>183.0</ele><time>2026-05-01T10:46:25Z</time></trkpt><trkpt lat="44.69463723173686" lon="8.649784380900261"><ele>183.0</ele><time>2026-05-01T10:46:26Z</time></trkpt><trkpt lat="44.69459303210468" lon="8.649964230003986"><ele>183.0</ele><time>2026-05-01T10:46:27Z</time></trkpt><trkpt lat="44.69452215661962" lon="8.65014003281592"><ele>183.33333333333334</ele><time>2026-05-01T10:46:28Z</time></trkpt><trkpt lat="44.694448336242175" lon="8.650334665289465"><ele>183.66666666666669</ele><time>2026-05-01T10:46:29Z</time></trkpt><trkpt lat="44.69435707423066" lon="8.650521514652489"><ele>184.0</ele><time>2026-05-01T10:46:30Z</time></trkpt><trkpt lat="44.6942559883116" lon="8.65069500499227"><ele>188.33333333333334</ele><time>2026-05-01T10:46:31Z</time></trkpt><trkpt lat="44.69416756330115" lon="8.65088207820134"><ele>192.66666666666669</ele><time>2026-05-01T10:46:32Z</time></trkpt><trkpt lat="44.69408200599906" lon="8.651062354758539"><ele>197.0</ele><time>2026-05-01T10:46:33Z</time></trkpt><trkpt lat="44.694002599554544" lon="8.65122538846913"><ele>197.0</ele><time>2026-05-01T10:46:34Z</time></trkpt><trkpt lat="44.69394069845305" lon="8.651384723751923"><ele>197.0</ele><time>2026-05-01T10:46:35Z</time></trkpt><trkpt lat="44.693840681107105" lon="8.651506090183666"><ele>197.0</ele><time>2026-05-01T10:46:36Z</time></trkpt><trkpt lat="44.69370968642444" lon="8.651595985998494"><ele>197.0</ele><time>2026-05-01T10:46:37Z</time></trkpt><trkpt lat="44.69355265464101" lon="8.651687803150928"><ele>198.33333333333334</ele><time>2026-05-01T10:46:38Z</time></trkpt><trkpt lat="44.69339427291572" lon="8.651819271090831"><ele>199.66666666666669</ele><time>2026-05-01T10:46:39Z</time></trkpt><trkpt lat="44.69323068496748" lon="8.651939520002308"><ele>201.0</ele><time>2026-05-01T10:46:40Z</time></trkpt><trkpt lat="44.69313324105295" lon="8.6520580416451"><ele>201.0</ele><time>2026-05-01T10:46:41Z</time></trkpt><trkpt lat="44.69299535972561" lon="8.652152643387806"><ele>201.0</ele><time>2026-05-01T10:46:42Z</time></trkpt><trkpt lat="44.69286641593297" lon="8.652252268091594"><ele>201.0</ele><time>2026-05-01T10:46:43Z</time></trkpt><trkpt lat="44.692741882057135" lon="8.652321898438714"><ele>201.0</ele><time>2026-05-01T10:46:44Z</time></trkpt><trkpt lat="44.69261357324825" lon="8.652372520060867"><ele>201.25</ele><time>2026-05-01T10:46:45Z</time></trkpt><trkpt lat="44.6924811390994" lon="8.652404426590545"><ele>201.5</ele><time>2026-05-01T10:46:46Z</time></trkpt><trkpt lat="44.69234308533076" lon="8.652424055494242"><ele>201.75</ele><time>2026-05-01T10:46:47Z</time></trkpt><trkpt lat="44.69220928628829" lon="8.652462539355279"><ele>202.0</ele><time>2026-05-01T10:46:48Z</time></trkpt><trkpt lat="44.692070728083294" lon="8.652453414682055"><ele>202.0</ele><time>2026-05-01T10:46:49Z</time></trkpt><trkpt lat="44.691931626545994" lon="8.652452898652108"><ele>202.0</ele><time>2026-05-01T10:46:50Z</time></trkpt><trkpt lat="44.69179003069704" lon="8.652453041350487"><ele>202.0</ele><time>2026-05-01T10:46:51Z</time></trkpt><trkpt lat="44.69165142660157" lon="8.65245475890374"><ele>202.0</ele><time>2026-05-01T10:46:52Z</time></trkpt><trkpt lat="44.69152293886908" lon="8.652452459585579"><ele>203.0</ele><time>2026-05-01T10:46:53Z</time></trkpt><trkpt lat="44.6914128175176" lon="8.652451782795685"><ele>204.0</ele><time>2026-05-01T10:46:54Z</time></trkpt><trkpt lat="44.6913201617803" lon="8.65244765266319"><ele>205.0</ele><time>2026-05-01T10:46:55Z</time></trkpt><trkpt lat="44.691243475823946" lon="8.652446130539534"><ele>206.0</ele><time>2026-05-01T10:46:56Z</time></trkpt><trkpt lat="44.691164396546164" lon="8.65244751447581"><ele>207.0</ele><time>2026-05-01T10:46:58Z</time></trkpt><trkpt lat="44.69116943148957" lon="8.652691303749608"><ele>206.25</ele><time>2026-05-01T10:47:02Z</time></trkpt><trkpt lat="44.69121080350317" lon="8.652789549160653"><ele>205.5</ele><time>2026-05-01T10:47:03Z</time></trkpt><trkpt lat="44.691261053100476" lon="8.65291528083506"><ele>204.75</ele><time>2026-05-01T10:47:04Z</time></trkpt><trkpt lat="44.691323458169464" lon="8.653089953246555"><ele>204.0</ele><time>2026-05-01T10:47:05Z</time></trkpt><trkpt lat="44.6913879213089" lon="8.653293749972999"><ele>204.0</ele><time>2026-05-01T10:47:06Z</time></trkpt><trkpt lat="44.69143552412161" lon="8.653530391989214"><ele>204.0</ele><time>2026-05-01T10:47:07Z</time></trkpt><trkpt lat="44.691459220060985" lon="8.653774099419136"><ele>204.0</ele><time>2026-05-01T10:47:08Z</time></trkpt><trkpt lat="44.691469980811284" lon="8.65403449314594"><ele>203.66666666666669</ele><time>2026-05-01T10:47:09Z</time></trkpt><trkpt lat="44.69146556514364" lon="8.654296202793008"><ele>203.33333333333334</ele><time>2026-05-01T10:47:10Z</time></trkpt><trkpt lat="44.69146308742383" lon="8.654538464878314"><ele>203.0</ele><time>2026-05-01T10:47:11Z</time></trkpt><trkpt lat="44.69146033168454" lon="8.654761357832063"><ele>201.66666666666669</ele><time>2026-05-01T10:47:12Z</time></trkpt><trkpt lat="44.691466904630445" lon="8.654977072857859"><ele>200.33333333333331</ele><time>2026-05-01T10:47:13Z</time></trkpt><trkpt lat="44.6914560544693" lon="8.655189618261746"><ele>199.0</ele><time>2026-05-01T10:47:14Z</time></trkpt><trkpt lat="44.69142807392804" lon="8.655395439241156"><ele>197.5</ele><time>2026-05-01T10:47:15Z</time></trkpt><trkpt lat="44.691406308465986" lon="8.655600445643396"><ele>196.0</ele><time>2026-05-01T10:47:16Z</time></trkpt><trkpt lat="44.691380576561336" lon="8.65580193343992"><ele>194.5</ele><time>2026-05-01T10:47:17Z</time></trkpt><trkpt lat="44.69134886542131" lon="8.656002814722402"><ele>193.0</ele><time>2026-05-01T10:47:18Z</time></trkpt><trkpt lat="44.69131799133121" lon="8.656202087472677"><ele>191.75</ele><time>2026-05-01T10:47:19Z</time></trkpt><trkpt lat="44.69128788444569" lon="8.656402020561982"><ele>190.5</ele><time>2026-05-01T10:47:20Z</time></trkpt><trkpt lat="44.69125843930473" lon="8.656597010375702"><ele>189.25</ele><time>2026-05-01T10:47:21Z</time></trkpt><trkpt lat="44.69123795180352" lon="8.6567900093875"><ele>188.0</ele><time>2026-05-01T10:47:22Z</time></trkpt><trkpt lat="44.69121108211008" lon="8.656979249256473"><ele>189.0</ele><time>2026-05-01T10:47:23Z</time></trkpt><trkpt lat="44.69118224673347" lon="8.657162801979355"><ele>190.0</ele><time>2026-05-01T10:47:24Z</time></trkpt><trkpt lat="44.691153568162115" lon="8.657345222857266"><ele>191.0</ele><time>2026-05-01T10:47:25Z</time></trkpt><trkpt lat="44.69112657225842" lon="8.657520945354182"><ele>192.0</ele><time>2026-05-01T10:47:26Z</time></trkpt><trkpt lat="44.69107806659615" lon="8.657692878039134"><ele>190.25</ele><time>2026-05-01T10:47:27Z</time></trkpt><trkpt lat="44.69103793807875" lon="8.657871559920425"><ele>188.5</ele><time>2026-05-01T10:47:28Z</time></trkpt><trkpt lat="44.690999455605116" lon="8.658038124764754"><ele>186.75</ele><time>2026-05-01T10:47:29Z</time></trkpt><trkpt lat="44.690957859995756" lon="8.658213185661854"><ele>185.0</ele><time>2026-05-01T10:47:30Z</time></trkpt><trkpt lat="44.69093271400423" lon="8.658389762569561"><ele>185.0</ele><time>2026-05-01T10:47:31Z</time></trkpt><trkpt lat="44.69088056888876" lon="8.658554153830863"><ele>185.0</ele><time>2026-05-01T10:47:32Z</time></trkpt><trkpt lat="44.69084416461924" lon="8.658722812180557"><ele>185.0</ele><time>2026-05-01T10:47:33Z</time></trkpt><trkpt lat="44.69077162268771" lon="8.658867230190575"><ele>185.0</ele><time>2026-05-01T10:47:34Z</time></trkpt><trkpt lat="44.69070166388541" lon="8.659006739986324"><ele>184.25</ele><time>2026-05-01T10:47:35Z</time></trkpt><trkpt lat="44.69063792490461" lon="8.659153877396019"><ele>183.5</ele><time>2026-05-01T10:47:36Z</time></trkpt><trkpt lat="44.6905584313425" lon="8.65928573504992"><ele>182.75</ele><time>2026-05-01T10:47:37Z</time></trkpt><trkpt lat="44.69048269030684" lon="8.659420376369358"><ele>182.0</ele><time>2026-05-01T10:47:38Z</time></trkpt><trkpt lat="44.69040729451401" lon="8.659553363933336"><ele>181.25</ele><time>2026-05-01T10:47:39Z</time></trkpt><trkpt lat="44.6903305433147" lon="8.659685903162162"><ele>180.5</ele><time>2026-05-01T10:47:40Z</time></trkpt><trkpt lat="44.6902551745159" lon="8.659820181789513"><ele>179.75</ele><time>2026-05-01T10:47:41Z</time></trkpt><trkpt lat="44.690180743128096" lon="8.659951769592231"><ele>179.0</ele><time>2026-05-01T10:47:42Z</time></trkpt><trkpt lat="44.69010667187222" lon="8.660085164145318"><ele>179.0</ele><time>2026-05-01T10:47:43Z</time></trkpt><trkpt lat="44.690049699561065" lon="8.660232938046281"><ele>179.0</ele><time>2026-05-01T10:47:44Z</time></trkpt><trkpt lat="44.690007561100956" lon="8.660389413257484"><ele>179.0</ele><time>2026-05-01T10:47:45Z</time></trkpt><trkpt lat="44.68997787095773" lon="8.660553195678494"><ele>179.0</ele><time>2026-05-01T10:47:46Z</time></trkpt><trkpt lat="44.68995005948272" lon="8.660717040889523"><ele>177.75</ele><time>2026-05-01T10:47:47Z</time></trkpt><trkpt lat="44.689897392247644" lon="8.660869209231421"><ele>176.5</ele><time>2026-05-01T10:47:48Z</time></trkpt><trkpt lat="44.68985410691651" lon="8.661029695994438"><ele>175.25</ele><time>2026-05-01T10:47:49Z</time></trkpt><trkpt lat="44.68980995378538" lon="8.66119252634367"><ele>174.0</ele><time>2026-05-01T10:47:50Z</time></trkpt><trkpt lat="44.6897798423936" lon="8.661361998580055"><ele>173.0</ele><time>2026-05-01T10:47:51Z</time></trkpt><trkpt lat="44.68973536205934" lon="8.661523669974136"><ele>172.0</ele><time>2026-05-01T10:47:52Z</time></trkpt><trkpt lat="44.689677532343225" lon="8.661679578458676"><ele>171.0</ele><time>2026-05-01T10:47:53Z</time></trkpt><trkpt lat="44.68964825129837" lon="8.66184772996452"><ele>170.0</ele><time>2026-05-01T10:47:54Z</time></trkpt><trkpt lat="44.689600491606534" lon="8.662006208450947"><ele>169.25</ele><time>2026-05-01T10:47:55Z</time></trkpt><trkpt lat="44.689553016369835" lon="8.662162732117975"><ele>168.5</ele><time>2026-05-01T10:47:56Z</time></trkpt><trkpt lat="44.68950523592569" lon="8.662318681956327"><ele>167.75</ele><time>2026-05-01T10:47:57Z</time></trkpt><trkpt lat="44.689461906308324" lon="8.662479649755282"><ele>167.0</ele><time>2026-05-01T10:47:58Z</time></trkpt><trkpt lat="44.68942126710639" lon="8.662636442418943"><ele>167.0</ele><time>2026-05-01T10:47:59Z</time></trkpt><trkpt lat="44.68938407032053" lon="8.662780666875195"><ele>167.0</ele><time>2026-05-01T10:48:00Z</time></trkpt><trkpt lat="44.689347662793246" lon="8.66291010769254"><ele>167.0</ele><time>2026-05-01T10:48:01Z</time></trkpt><trkpt lat="44.68931526815604" lon="8.663026615133882"><ele>167.0</ele><time>2026-05-01T10:48:01.999Z</time></trkpt><trkpt lat="44.6892893406772" lon="8.663115754323504"><ele>167.0</ele><time>2026-05-01T10:48:02.999Z</time></trkpt><trkpt lat="44.689260549720714" lon="8.663212406908208"><ele>167.0</ele><time>2026-05-01T10:48:04.999Z</time></trkpt><trkpt lat="44.68925222887341" lon="8.663307543614328"><ele>166.39999999999998</ele><time>2026-05-01T10:48:13.999Z</time></trkpt><trkpt lat="44.68937316837804" lon="8.663366606087576"><ele>165.79999999999998</ele><time>2026-05-01T10:48:14.999Z</time></trkpt><trkpt lat="44.68947599115194" lon="8.66334657870733"><ele>165.2</ele><time>2026-05-01T10:48:15.999Z</time></trkpt><trkpt lat="44.689564060624015" lon="8.6633305798299"><ele>164.6</ele><time>2026-05-01T10:48:16.999Z</time></trkpt><trkpt lat="44.689685071409606" lon="8.663331626110653"><ele>164.0</ele><time>2026-05-01T10:48:17.999Z</time></trkpt><trkpt lat="44.68981506050196" lon="8.663327506424809"><ele>163.75</ele><time>2026-05-01T10:48:18.999Z</time></trkpt><trkpt lat="44.68995251821409" lon="8.663316165279305"><ele>163.5</ele><time>2026-05-01T10:48:19.999Z</time></trkpt><trkpt lat="44.69008516777115" lon="8.66330963535993"><ele>163.25</ele><time>2026-05-01T10:48:20.999Z</time></trkpt><trkpt lat="44.69019789658001" lon="8.663307741582402"><ele>163.0</ele><time>2026-05-01T10:48:21.999Z</time></trkpt><trkpt lat="44.69028771455495" lon="8.66330131729396"><ele>163.0</ele><time>2026-05-01T10:48:22.999Z</time></trkpt><trkpt lat="44.690388656121016" lon="8.663361262922225"><ele>163.0</ele><time>2026-05-01T10:48:25Z</time></trkpt><trkpt lat="44.69041042149135" lon="8.6635529331415"><ele>163.0</ele><time>2026-05-01T10:48:27Z</time></trkpt><trkpt lat="44.690410474485084" lon="8.663691361605338"><ele>163.0</ele><time>2026-05-01T10:48:28Z</time></trkpt><trkpt lat="44.69041532959603" lon="8.663837958217476"><ele>162.5</ele><time>2026-05-01T10:48:29Z</time></trkpt><trkpt lat="44.69042296121997" lon="8.663996740295762"><ele>162.0</ele><time>2026-05-01T10:48:30Z</time></trkpt><trkpt lat="44.69042535313001" lon="8.66416414019101"><ele>161.5</ele><time>2026-05-01T10:48:31Z</time></trkpt><trkpt lat="44.69042294161158" lon="8.664328523515584"><ele>161.0</ele><time>2026-05-01T10:48:32Z</time></trkpt><trkpt lat="44.690404082900564" lon="8.664494178573793"><ele>160.5</ele><time>2026-05-01T10:48:33Z</time></trkpt><trkpt lat="44.690377673661274" lon="8.66466077505925"><ele>160.0</ele><time>2026-05-01T10:48:34Z</time></trkpt><trkpt lat="44.69035783593642" lon="8.664830823667286"><ele>159.5</ele><time>2026-05-01T10:48:35Z</time></trkpt><trkpt lat="44.690332170963146" lon="8.664992880411274"><ele>159.0</ele><time>2026-05-01T10:48:36Z</time></trkpt><trkpt lat="44.69030193988856" lon="8.665146273073216"><ele>159.0</ele><time>2026-05-01T10:48:37Z</time></trkpt><trkpt lat="44.69027879036594" lon="8.6652967863814"><ele>159.0</ele><time>2026-05-01T10:48:38Z</time></trkpt><trkpt lat="44.69025586573225" lon="8.665446271557174"><ele>159.0</ele><time>2026-05-01T10:48:39Z</time></trkpt><trkpt lat="44.69023096369675" lon="8.665595119904271"><ele>159.0</ele><time>2026-05-01T10:48:40Z</time></trkpt><trkpt lat="44.69019962101894" lon="8.665738161374154"><ele>159.0</ele><time>2026-05-01T10:48:41Z</time></trkpt><trkpt lat="44.690151078617895" lon="8.665868566852616"><ele>159.0</ele><time>2026-05-01T10:48:42Z</time></trkpt><trkpt lat="44.690077913653965" lon="8.665970911945966"><ele>159.0</ele><time>2026-05-01T10:48:43Z</time></trkpt><trkpt lat="44.68996057871937" lon="8.66600278126393"><ele>159.0</ele><time>2026-05-01T10:48:44Z</time></trkpt><trkpt lat="44.68983398674586" lon="8.665997892822613"><ele>159.0</ele><time>2026-05-01T10:48:45Z</time></trkpt><trkpt lat="44.6896893868257" lon="8.665975708189091"><ele>159.0</ele><time>2026-05-01T10:48:46Z</time></trkpt><trkpt lat="44.6895448647867" lon="8.665896951270918"><ele>159.0</ele><time>2026-05-01T10:48:47Z</time></trkpt><trkpt lat="44.68939863066001" lon="8.665820343247201"><ele>159.0</ele><time>2026-05-01T10:48:48Z</time></trkpt><trkpt lat="44.689258725915536" lon="8.66575470470419"><ele>158.5</ele><time>2026-05-01T10:48:49Z</time></trkpt><trkpt lat="44.68912093523079" lon="8.665695705239937"><ele>158.0</ele><time>2026-05-01T10:48:50Z</time></trkpt><trkpt lat="44.688987311697424" lon="8.66564219700595"><ele>157.5</ele><time>2026-05-01T10:48:51Z</time></trkpt><trkpt lat="44.68885545289184" lon="8.665589379534325"><ele>157.0</ele><time>2026-05-01T10:48:52Z</time></trkpt><trkpt lat="44.68872278828225" lon="8.665530608749338"><ele>155.5</ele><time>2026-05-01T10:48:53Z</time></trkpt><trkpt lat="44.68859127220896" lon="8.665461410590353"><ele>154.0</ele><time>2026-05-01T10:48:54Z</time></trkpt><trkpt lat="44.68845928400007" lon="8.665395568565453"><ele>152.5</ele><time>2026-05-01T10:48:55Z</time></trkpt><trkpt lat="44.68832532627689" lon="8.665343180009929"><ele>151.0</ele><time>2026-05-01T10:48:56Z</time></trkpt><trkpt lat="44.68819222469847" lon="8.665299640087282"><ele>151.0</ele><time>2026-05-01T10:48:57Z</time></trkpt><trkpt lat="44.68805601019105" lon="8.665289549573506"><ele>151.0</ele><time>2026-05-01T10:48:58Z</time></trkpt><trkpt lat="44.687928566344745" lon="8.66533258764785"><ele>151.0</ele><time>2026-05-01T10:48:59Z</time></trkpt><trkpt lat="44.68782896230663" lon="8.665433635823586"><ele>151.0</ele><time>2026-05-01T10:49:00Z</time></trkpt><trkpt lat="44.687764266534984" lon="8.665578845636402"><ele>150.5</ele><time>2026-05-01T10:49:01Z</time></trkpt><trkpt lat="44.68771998511794" lon="8.665759571764465"><ele>150.0</ele><time>2026-05-01T10:49:02Z</time></trkpt><trkpt lat="44.6876803202483" lon="8.665961439420384"><ele>149.5</ele><time>2026-05-01T10:49:03Z</time></trkpt><trkpt lat="44.687623768365924" lon="8.666164629614226"><ele>149.0</ele><time>2026-05-01T10:49:04Z</time></trkpt><trkpt lat="44.68756397129904" lon="8.666371743965795"><ele>147.66666666666666</ele><time>2026-05-01T10:49:05Z</time></trkpt><trkpt lat="44.68750852281268" lon="8.666576033811387"><ele>146.33333333333334</ele><time>2026-05-01T10:49:06Z</time></trkpt><trkpt lat="44.68745427092321" lon="8.666769399407388"><ele>145.0</ele><time>2026-05-01T10:49:07Z</time></trkpt><trkpt lat="44.687398783927954" lon="8.666963153824469"><ele>144.5</ele><time>2026-05-01T10:49:08Z</time></trkpt><trkpt lat="44.68734605664623" lon="8.667155699373145"><ele>144.0</ele><time>2026-05-01T10:49:09Z</time></trkpt><trkpt lat="44.68729904150406" lon="8.667351749361996"><ele>143.5</ele><time>2026-05-01T10:49:10Z</time></trkpt><trkpt lat="44.68724692925277" lon="8.667551211345394"><ele>143.0</ele><time>2026-05-01T10:49:11Z</time></trkpt><trkpt lat="44.68719029553029" lon="8.66774736401911"><ele>143.5</ele><time>2026-05-01T10:49:12Z</time></trkpt><trkpt lat="44.68713688012553" lon="8.667935656996946"><ele>144.0</ele><time>2026-05-01T10:49:13Z</time></trkpt><trkpt lat="44.68709107696829" lon="8.668100740845079"><ele>144.5</ele><time>2026-05-01T10:49:14Z</time></trkpt><trkpt lat="44.68705629636775" lon="8.668238846733823"><ele>145.0</ele><time>2026-05-01T10:49:15Z</time></trkpt><trkpt lat="44.68700710079608" lon="8.668350212134925"><ele>145.0</ele><time>2026-05-01T10:49:16Z</time></trkpt><trkpt lat="44.68695757243919" lon="8.668457401249235"><ele>145.0</ele><time>2026-05-01T10:49:17Z</time></trkpt><trkpt lat="44.68703579687744" lon="8.668659410485892"><ele>145.0</ele><time>2026-05-01T10:49:18Z</time></trkpt><trkpt lat="44.68708287297246" lon="8.668827314245744"><ele>145.0</ele><time>2026-05-01T10:49:19Z</time></trkpt><trkpt lat="44.68713715329049" lon="8.668990673919449"><ele>145.75</ele><time>2026-05-01T10:49:20Z</time></trkpt><trkpt lat="44.687175788548345" lon="8.669155655451066"><ele>146.5</ele><time>2026-05-01T10:49:21Z</time></trkpt><trkpt lat="44.68719895721978" lon="8.66932056197058"><ele>147.25</ele><time>2026-05-01T10:49:22Z</time></trkpt><trkpt lat="44.687186282538164" lon="8.669478966963679"><ele>148.0</ele><time>2026-05-01T10:49:23Z</time></trkpt><trkpt lat="44.687196158410984" lon="8.669630161380702"><ele>148.20000000000002</ele><time>2026-05-01T10:49:24Z</time></trkpt><trkpt lat="44.68716218087837" lon="8.669772477775913"><ele>148.4</ele><time>2026-05-01T10:49:25Z</time></trkpt><trkpt lat="44.68713284144933" lon="8.669910472728333"><ele>148.60000000000002</ele><time>2026-05-01T10:49:26Z</time></trkpt><trkpt lat="44.68710481642549" lon="8.670049598004432"><ele>148.8</ele><time>2026-05-01T10:49:27Z</time></trkpt><trkpt lat="44.687059044890695" lon="8.670177253723702"><ele>149.0</ele><time>2026-05-01T10:49:28Z</time></trkpt><trkpt lat="44.68701490733771" lon="8.670301677788524"><ele>150.0</ele><time>2026-05-01T10:49:29Z</time></trkpt><trkpt lat="44.68696879225396" lon="8.67042212574547"><ele>151.0</ele><time>2026-05-01T10:49:30Z</time></trkpt><trkpt lat="44.686916608976915" lon="8.67053016174091"><ele>152.0</ele><time>2026-05-01T10:49:31Z</time></trkpt><trkpt lat="44.686864989099796" lon="8.67061594433054"><ele>153.0</ele><time>2026-05-01T10:49:32Z</time></trkpt><trkpt lat="44.686776232004455" lon="8.670724340186101"><ele>154.0</ele><time>2026-05-01T10:49:34Z</time></trkpt><trkpt lat="44.68672655492072" lon="8.670781457522438"><ele>154.85714285714286</ele><time>2026-05-01T10:49:35Z</time></trkpt><trkpt lat="44.68666948802875" lon="8.67083597428934"><ele>155.71428571428572</ele><time>2026-05-01T10:49:36Z</time></trkpt><trkpt lat="44.686619114746414" lon="8.670897049661798"><ele>156.57142857142856</ele><time>2026-05-01T10:49:37Z</time></trkpt><trkpt lat="44.6865332440725" lon="8.670905712455937"><ele>157.42857142857144</ele><time>2026-05-01T10:49:38Z</time></trkpt><trkpt lat="44.68647902577986" lon="8.670965260287872"><ele>158.28571428571428</ele><time>2026-05-01T10:49:39Z</time></trkpt><trkpt lat="44.686467794362294" lon="8.67106580373101"><ele>159.14285714285714</ele><time>2026-05-01T10:49:40Z</time></trkpt><trkpt lat="44.68650694923707" lon="8.671162731076583"><ele>160.0</ele><time>2026-05-01T10:49:41Z</time></trkpt><trkpt lat="44.686596316701355" lon="8.671242738834245"><ele>161.66666666666669</ele><time>2026-05-01T10:49:42Z</time></trkpt><trkpt lat="44.686709737102426" lon="8.671348845763807"><ele>163.33333333333334</ele><time>2026-05-01T10:49:43Z</time></trkpt><trkpt lat="44.68681159418286" lon="8.671502980053198"><ele>165.0</ele><time>2026-05-01T10:49:44Z</time></trkpt><trkpt lat="44.68691824336436" lon="8.671695014573782"><ele>165.0</ele><time>2026-05-01T10:49:45Z</time></trkpt><trkpt lat="44.68704548891591" lon="8.671889915198083"><ele>165.0</ele><time>2026-05-01T10:49:46Z</time></trkpt><trkpt lat="44.687172653219754" lon="8.672081795377222"><ele>165.0</ele><time>2026-05-01T10:49:47Z</time></trkpt><trkpt lat="44.68729484141295" lon="8.672271682368939"><ele>165.0</ele><time>2026-05-01T10:49:48Z</time></trkpt><trkpt lat="44.687408595930755" lon="8.672449690026708"><ele>165.0</ele><time>2026-05-01T10:49:49Z</time></trkpt><trkpt lat="44.68751646732245" lon="8.672619656673806"><ele>165.0</ele><time>2026-05-01T10:49:50Z</time></trkpt><trkpt lat="44.687621659079596" lon="8.67278983449572"><ele>165.33333333333334</ele><time>2026-05-01T10:49:51Z</time></trkpt><trkpt lat="44.687721768294544" lon="8.672958526735094"><ele>165.66666666666669</ele><time>2026-05-01T10:49:52Z</time></trkpt><trkpt lat="44.687812158047855" lon="8.67313617762448"><ele>166.0</ele><time>2026-05-01T10:49:53Z</time></trkpt><trkpt lat="44.68790082342082" lon="8.673321649606946"><ele>166.0</ele><time>2026-05-01T10:49:54Z</time></trkpt><trkpt lat="44.687973988290565" lon="8.673457831034588"><ele>166.0</ele><time>2026-05-01T10:49:55Z</time></trkpt><trkpt lat="44.68802953754503" lon="8.673642065841243"><ele>166.0</ele><time>2026-05-01T10:49:55.999Z</time></trkpt><trkpt lat="44.68806788051986" lon="8.6738370659046"><ele>166.0</ele><time>2026-05-01T10:49:56.999Z</time></trkpt><trkpt lat="44.68809542835808" lon="8.67403411023312"><ele>166.33333333333334</ele><time>2026-05-01T10:49:57.999Z</time></trkpt><trkpt lat="44.68811947711812" lon="8.674245999299165"><ele>166.66666666666666</ele><time>2026-05-01T10:49:58.999Z</time></trkpt><trkpt lat="44.68814146664314" lon="8.674461827344832"><ele>167.0</ele><time>2026-05-01T10:49:59.999Z</time></trkpt><trkpt lat="44.68816784314233" lon="8.674680261705332"><ele>168.0</ele><time>2026-05-01T10:50:00.999Z</time></trkpt><trkpt lat="44.688202460134605" lon="8.674903525751743"><ele>169.0</ele><time>2026-05-01T10:50:01.999Z</time></trkpt><trkpt lat="44.68823106431934" lon="8.675122226732928"><ele>170.0</ele><time>2026-05-01T10:50:02.999Z</time></trkpt><trkpt lat="44.688259272444775" lon="8.675333473951714"><ele>170.0</ele><time>2026-05-01T10:50:03.999Z</time></trkpt><trkpt lat="44.6882865560496" lon="8.67554071592024"><ele>170.0</ele><time>2026-05-01T10:50:04.999Z</time></trkpt><trkpt lat="44.6883172487937" lon="8.675741701374253"><ele>170.0</ele><time>2026-05-01T10:50:05.999Z</time></trkpt><trkpt lat="44.68834629878014" lon="8.67594213747783"><ele>170.0</ele><time>2026-05-01T10:50:06.999Z</time></trkpt><trkpt lat="44.68837380364287" lon="8.676137552152353"><ele>170.0</ele><time>2026-05-01T10:50:07.999Z</time></trkpt><trkpt lat="44.688399985695256" lon="8.67632388930616"><ele>170.0</ele><time>2026-05-01T10:50:08.999Z</time></trkpt><trkpt lat="44.68842332741996" lon="8.676497200265104"><ele>170.0</ele><time>2026-05-01T10:50:09.999Z</time></trkpt><trkpt lat="44.688444703842094" lon="8.676657243826808"><ele>170.0</ele><time>2026-05-01T10:50:10.999Z</time></trkpt><trkpt lat="44.688461855310045" lon="8.67681289060514"><ele>170.2</ele><time>2026-05-01T10:50:11.999Z</time></trkpt><trkpt lat="44.68847419150505" lon="8.6769508937128"><ele>170.4</ele><time>2026-05-01T10:50:12.999Z</time></trkpt><trkpt lat="44.688473378820994" lon="8.677079978624963"><ele>170.60000000000002</ele><time>2026-05-01T10:50:13.999Z</time></trkpt><trkpt lat="44.688447709449505" lon="8.677208434759036"><ele>170.8</ele><time>2026-05-01T10:50:14.999Z</time></trkpt><trkpt lat="44.688453435338815" lon="8.677321436503515"><ele>171.0</ele><time>2026-05-01T10:50:15.999Z</time></trkpt><trkpt lat="44.68844877667586" lon="8.677468948640799"><ele>171.0</ele><time>2026-05-01T10:50:16.999Z</time></trkpt><trkpt lat="44.68851376927491" lon="8.677608749698752"><ele>171.0</ele><time>2026-05-01T10:50:17.999Z</time></trkpt><trkpt lat="44.68856723324267" lon="8.67774755741312"><ele>171.0</ele><time>2026-05-01T10:50:18.999Z</time></trkpt><trkpt lat="44.68860052046756" lon="8.677879617100112"><ele>171.0</ele><time>2026-05-01T10:50:19.999Z</time></trkpt><trkpt lat="44.68863175525548" lon="8.678014890018606"><ele>171.0</ele><time>2026-05-01T10:50:20.999Z</time></trkpt><trkpt lat="44.688670105726345" lon="8.678139406010919"><ele>170.75</ele><time>2026-05-01T10:50:21.999Z</time></trkpt><trkpt lat="44.68873055162432" lon="8.678225178880929"><ele>170.5</ele><time>2026-05-01T10:50:22.999Z</time></trkpt><trkpt lat="44.6889155810906" lon="8.678319882640189"><ele>170.25</ele><time>2026-05-01T10:50:24.999Z</time></trkpt><trkpt lat="44.688996813156095" lon="8.678445786068202"><ele>170.0</ele><time>2026-05-01T10:50:25.999Z</time></trkpt><trkpt lat="44.68908049248159" lon="8.678586436872415"><ele>170.0</ele><time>2026-05-01T10:50:26.999Z</time></trkpt><trkpt lat="44.68918107245331" lon="8.678726540922757"><ele>170.0</ele><time>2026-05-01T10:50:27.999Z</time></trkpt><trkpt lat="44.68928890883843" lon="8.678859714861058"><ele>170.0</ele><time>2026-05-01T10:50:28.999Z</time></trkpt><trkpt lat="44.68940923624465" lon="8.6789984505402"><ele>170.0</ele><time>2026-05-01T10:50:30Z</time></trkpt><trkpt lat="44.68953114664439" lon="8.679138874751889"><ele>169.33333333333331</ele><time>2026-05-01T10:50:31Z</time></trkpt><trkpt lat="44.689661233035814" lon="8.679274763159878"><ele>168.66666666666666</ele><time>2026-05-01T10:50:32Z</time></trkpt><trkpt lat="44.68980057864263" lon="8.679399963836733"><ele>168.0</ele><time>2026-05-01T10:50:33Z</time></trkpt><trkpt lat="44.689944725089546" lon="8.679509870633783"><ele>168.0</ele><time>2026-05-01T10:50:34Z</time></trkpt><trkpt lat="44.690086898700635" lon="8.67961194226686"><ele>168.0</ele><time>2026-05-01T10:50:35Z</time></trkpt><trkpt lat="44.69023174804993" lon="8.67971419429364"><ele>168.0</ele><time>2026-05-01T10:50:36Z</time></trkpt><trkpt lat="44.690386366135584" lon="8.679812155843795"><ele>167.33333333333334</ele><time>2026-05-01T10:50:37Z</time></trkpt><trkpt lat="44.69055148101601" lon="8.679914513732799"><ele>166.66666666666669</ele><time>2026-05-01T10:50:38Z</time></trkpt><trkpt lat="44.69072530375634" lon="8.68001407227218"><ele>166.0</ele><time>2026-05-01T10:50:39Z</time></trkpt><trkpt lat="44.69089747810261" lon="8.680091843630501"><ele>166.0</ele><time>2026-05-01T10:50:40Z</time></trkpt><trkpt lat="44.691079247472075" lon="8.680169084869153"><ele>166.0</ele><time>2026-05-01T10:50:41Z</time></trkpt><trkpt lat="44.691259277474366" lon="8.680248975546863"><ele>166.0</ele><time>2026-05-01T10:50:42Z</time></trkpt><trkpt lat="44.69144233049061" lon="8.680328720825958"><ele>164.33333333333334</ele><time>2026-05-01T10:50:43Z</time></trkpt><trkpt lat="44.69162772673276" lon="8.680403662305688"><ele>162.66666666666666</ele><time>2026-05-01T10:50:44Z</time></trkpt><trkpt lat="44.69180959801694" lon="8.680479941022053"><ele>161.0</ele><time>2026-05-01T10:50:45Z</time></trkpt><trkpt lat="44.69199384485563" lon="8.680558562437662"><ele>161.0</ele><time>2026-05-01T10:50:46Z</time></trkpt><trkpt lat="44.69217925966694" lon="8.680639281272997"><ele>161.0</ele><time>2026-05-01T10:50:47Z</time></trkpt><trkpt lat="44.692367121942354" lon="8.680716502116542"><ele>161.0</ele><time>2026-05-01T10:50:48Z</time></trkpt><trkpt lat="44.69255064190158" lon="8.680797183071588"><ele>161.0</ele><time>2026-05-01T10:50:49Z</time></trkpt><trkpt lat="44.69273325978312" lon="8.680873781450037"><ele>161.0</ele><time>2026-05-01T10:50:50Z</time></trkpt><trkpt lat="44.69291610157305" lon="8.680950583200456"><ele>161.0</ele><time>2026-05-01T10:50:51Z</time></trkpt><trkpt lat="44.69310216958238" lon="8.681022042099132"><ele>161.33333333333331</ele><time>2026-05-01T10:50:52Z</time></trkpt><trkpt lat="44.693284147896726" lon="8.6811040232228"><ele>161.66666666666666</ele><time>2026-05-01T10:50:53Z</time></trkpt><trkpt lat="44.69346321522347" lon="8.681183900268895"><ele>162.0</ele><time>2026-05-01T10:50:54Z</time></trkpt><trkpt lat="44.693643086085665" lon="8.68126421821945"><ele>162.0</ele><time>2026-05-01T10:50:55Z</time></trkpt><trkpt lat="44.69383207484465" lon="8.681338333374521"><ele>162.0</ele><time>2026-05-01T10:50:56Z</time></trkpt><trkpt lat="44.69401836267807" lon="8.681411897012529"><ele>162.0</ele><time>2026-05-01T10:50:57Z</time></trkpt><trkpt lat="44.69420222773947" lon="8.681488538351154"><ele>162.0</ele><time>2026-05-01T10:50:58Z</time></trkpt><trkpt lat="44.69438558718503" lon="8.681571000310573"><ele>162.0</ele><time>2026-05-01T10:50:59Z</time></trkpt><trkpt lat="44.69456870536509" lon="8.681652825089756"><ele>162.0</ele><time>2026-05-01T10:51:00Z</time></trkpt><trkpt lat="44.69475577019698" lon="8.68173200412337"><ele>162.33333333333334</ele><time>2026-05-01T10:51:01Z</time></trkpt><trkpt lat="44.694939940526204" lon="8.681812255569824"><ele>162.66666666666669</ele><time>2026-05-01T10:51:02Z</time></trkpt><trkpt lat="44.69512461672929" lon="8.681893870733827"><ele>163.0</ele><time>2026-05-01T10:51:03Z</time></trkpt><trkpt lat="44.69530870158141" lon="8.68197434859542"><ele>163.0</ele><time>2026-05-01T10:51:04Z</time></trkpt><trkpt lat="44.69549440080893" lon="8.682049901715391"><ele>163.0</ele><time>2026-05-01T10:51:05Z</time></trkpt><trkpt lat="44.69567905540394" lon="8.682125518244705"><ele>163.0</ele><time>2026-05-01T10:51:06Z</time></trkpt><trkpt lat="44.695868152039196" lon="8.682201870569356"><ele>163.0</ele><time>2026-05-01T10:51:07Z</time></trkpt><trkpt lat="44.696055775899566" lon="8.68228112428001"><ele>163.0</ele><time>2026-05-01T10:51:08Z</time></trkpt><trkpt lat="44.696242874742474" lon="8.682362177546569"><ele>163.0</ele><time>2026-05-01T10:51:09Z</time></trkpt><trkpt lat="44.69642967664688" lon="8.682442676054412"><ele>162.66666666666669</ele><time>2026-05-01T10:51:10Z</time></trkpt><trkpt lat="44.69661353789404" lon="8.68252439552132"><ele>162.33333333333334</ele><time>2026-05-01T10:51:11Z</time></trkpt><trkpt lat="44.69679775200122" lon="8.68260614411948"><ele>162.0</ele><time>2026-05-01T10:51:12Z</time></trkpt><trkpt lat="44.69697730513421" lon="8.682681260265761"><ele>162.66666666666666</ele><time>2026-05-01T10:51:13Z</time></trkpt><trkpt lat="44.697142195725604" lon="8.68274463898615"><ele>163.33333333333331</ele><time>2026-05-01T10:51:14Z</time></trkpt><trkpt lat="44.697300812189766" lon="8.682810690409946"><ele>164.0</ele><time>2026-05-01T10:51:15Z</time></trkpt><trkpt lat="44.69743764225141" lon="8.682872884140266"><ele>164.0</ele><time>2026-05-01T10:51:16Z</time></trkpt><trkpt lat="44.6975501292078" lon="8.682924014144527"><ele>164.0</ele><time>2026-05-01T10:51:17Z</time></trkpt><trkpt lat="44.6976282974845" lon="8.682979927606215"><ele>164.0</ele><time>2026-05-01T10:51:18Z</time></trkpt><trkpt lat="44.6976690034853" lon="8.683070739470297"><ele>164.0</ele><time>2026-05-01T10:51:19Z</time></trkpt><trkpt lat="44.69764550976477" lon="8.683311314977285"><ele>164.0</ele><time>2026-05-01T10:51:21Z</time></trkpt><trkpt lat="44.69757753207782" lon="8.683460774499217"><ele>164.0</ele><time>2026-05-01T10:51:22Z</time></trkpt><trkpt lat="44.69746267134544" lon="8.683599553760006"><ele>164.0</ele><time>2026-05-01T10:51:23Z</time></trkpt><trkpt lat="44.69734795734151" lon="8.683783078270656"><ele>163.66666666666666</ele><time>2026-05-01T10:51:24Z</time></trkpt><trkpt lat="44.69722111180593" lon="8.683959201806562"><ele>163.33333333333334</ele><time>2026-05-01T10:51:25Z</time></trkpt><trkpt lat="44.69709678821629" lon="8.684142996055732"><ele>163.0</ele><time>2026-05-01T10:51:26Z</time></trkpt><trkpt lat="44.69696366758175" lon="8.684339610248815"><ele>164.0</ele><time>2026-05-01T10:51:27Z</time></trkpt><trkpt lat="44.69682598061746" lon="8.684543487489778"><ele>165.0</ele><time>2026-05-01T10:51:28Z</time></trkpt><trkpt lat="44.696683502027156" lon="8.684751557856593"><ele>166.0</ele><time>2026-05-01T10:51:29Z</time></trkpt><trkpt lat="44.69653750657122" lon="8.684965267693476"><ele>166.0</ele><time>2026-05-01T10:51:30Z</time></trkpt><trkpt lat="44.696396534259364" lon="8.68518246167688"><ele>166.0</ele><time>2026-05-01T10:51:31Z</time></trkpt><trkpt lat="44.69625687562475" lon="8.685401203206919"><ele>166.0</ele><time>2026-05-01T10:51:32Z</time></trkpt><trkpt lat="44.69611757548874" lon="8.685614439852472"><ele>166.66666666666669</ele><time>2026-05-01T10:51:33Z</time></trkpt><trkpt lat="44.695982052003366" lon="8.685822073484438"><ele>167.33333333333334</ele><time>2026-05-01T10:51:34Z</time></trkpt><trkpt lat="44.695840864476786" lon="8.686034951234003"><ele>168.0</ele><time>2026-05-01T10:51:35Z</time></trkpt><trkpt lat="44.695701456171655" lon="8.686249608192169"><ele>168.33333333333334</ele><time>2026-05-01T10:51:36Z</time></trkpt><trkpt lat="44.69555801054212" lon="8.686458153817304"><ele>168.66666666666669</ele><time>2026-05-01T10:51:37Z</time></trkpt><trkpt lat="44.6954137816459" lon="8.686663484172309"><ele>169.0</ele><time>2026-05-01T10:51:38Z</time></trkpt><trkpt lat="44.69527135431635" lon="8.686869346581938"><ele>168.66666666666669</ele><time>2026-05-01T10:51:39Z</time></trkpt><trkpt lat="44.695129613474165" lon="8.68708027010917"><ele>168.33333333333334</ele><time>2026-05-01T10:51:40Z</time></trkpt><trkpt lat="44.69499136965799" lon="8.687279241245816"><ele>168.0</ele><time>2026-05-01T10:51:41Z</time></trkpt><trkpt lat="44.694849519309294" lon="8.687491880775031"><ele>168.0</ele><time>2026-05-01T10:51:42Z</time></trkpt><trkpt lat="44.694708901554655" lon="8.68770370473107"><ele>168.0</ele><time>2026-05-01T10:51:43Z</time></trkpt><trkpt lat="44.69456909633441" lon="8.687919028846425"><ele>168.0</ele><time>2026-05-01T10:51:44Z</time></trkpt><trkpt lat="44.694429805214796" lon="8.68813564332306"><ele>168.33333333333334</ele><time>2026-05-01T10:51:45Z</time></trkpt><trkpt lat="44.694289204063146" lon="8.688347055510157"><ele>168.66666666666669</ele><time>2026-05-01T10:51:46Z</time></trkpt><trkpt lat="44.69414863734426" lon="8.688555278555008"><ele>169.0</ele><time>2026-05-01T10:51:47Z</time></trkpt><trkpt lat="44.6940062729512" lon="8.688765983693335"><ele>169.0</ele><time>2026-05-01T10:51:48Z</time></trkpt><trkpt lat="44.69386778697265" lon="8.688973086302223"><ele>169.0</ele><time>2026-05-01T10:51:49Z</time></trkpt><trkpt lat="44.693733341964084" lon="8.68917699266712"><ele>169.0</ele><time>2026-05-01T10:51:50Z</time></trkpt><trkpt lat="44.693595591369686" lon="8.689383082588058"><ele>170.0</ele><time>2026-05-01T10:51:51Z</time></trkpt><trkpt lat="44.69346121149571" lon="8.689583233433419"><ele>171.0</ele><time>2026-05-01T10:51:52Z</time></trkpt><trkpt lat="44.693328427144905" lon="8.689780854290772"><ele>172.0</ele><time>2026-05-01T10:51:53Z</time></trkpt><trkpt lat="44.69319411592713" lon="8.689980617843133"><ele>172.0</ele><time>2026-05-01T10:51:53.999Z</time></trkpt><trkpt lat="44.69306380662343" lon="8.69017677514838"><ele>172.0</ele><time>2026-05-01T10:51:54.999Z</time></trkpt><trkpt lat="44.692932463145404" lon="8.690375041095077"><ele>172.0</ele><time>2026-05-01T10:51:55.999Z</time></trkpt><trkpt lat="44.69280132655772" lon="8.690566302277174"><ele>172.66666666666669</ele><time>2026-05-01T10:51:56.999Z</time></trkpt><trkpt lat="44.69267155364262" lon="8.690758996391766"><ele>173.33333333333334</ele><time>2026-05-01T10:51:57.999Z</time></trkpt><trkpt lat="44.692540865904796" lon="8.690955759956303"><ele>174.0</ele><time>2026-05-01T10:51:58.999Z</time></trkpt><trkpt lat="44.692411756524876" lon="8.69115735449859"><ele>174.33333333333334</ele><time>2026-05-01T10:51:59.999Z</time></trkpt><trkpt lat="44.692286856306694" lon="8.691350872547693"><ele>174.66666666666669</ele><time>2026-05-01T10:52:00.999Z</time></trkpt><trkpt lat="44.69215606362428" lon="8.69154312262773"><ele>175.0</ele><time>2026-05-01T10:52:01.999Z</time></trkpt><trkpt lat="44.69202575906472" lon="8.691738564185362"><ele>176.33333333333334</ele><time>2026-05-01T10:52:02.999Z</time></trkpt><trkpt lat="44.69189505686105" lon="8.691932476549587"><ele>177.66666666666666</ele><time>2026-05-01T10:52:03.999Z</time></trkpt><trkpt lat="44.69176346815446" lon="8.692128072781903"><ele>179.0</ele><time>2026-05-01T10:52:04.999Z</time></trkpt><trkpt lat="44.691630604283645" lon="8.692321758137961"><ele>179.0</ele><time>2026-05-01T10:52:05.999Z</time></trkpt><trkpt lat="44.691501102699455" lon="8.692511464308758"><ele>179.0</ele><time>2026-05-01T10:52:06.999Z</time></trkpt><trkpt lat="44.69136857718664" lon="8.692707101031028"><ele>179.0</ele><time>2026-05-01T10:52:07.999Z</time></trkpt><trkpt lat="44.69123848281097" lon="8.692908640979224"><ele>179.33333333333331</ele><time>2026-05-01T10:52:08.999Z</time></trkpt><trkpt lat="44.691109123490584" lon="8.693098631706958"><ele>179.66666666666666</ele><time>2026-05-01T10:52:09.999Z</time></trkpt><trkpt lat="44.69098373165765" lon="8.693289323317966"><ele>180.0</ele><time>2026-05-01T10:52:10.999Z</time></trkpt><trkpt lat="44.69085658690918" lon="8.693483372593397"><ele>182.33333333333334</ele><time>2026-05-01T10:52:11.999Z</time></trkpt><trkpt lat="44.69073162204321" lon="8.693666060310672"><ele>184.66666666666669</ele><time>2026-05-01T10:52:12.999Z</time></trkpt><trkpt lat="44.690610785539285" lon="8.693850248328259"><ele>187.0</ele><time>2026-05-01T10:52:13.999Z</time></trkpt><trkpt lat="44.690489706726986" lon="8.694030938265866"><ele>187.0</ele><time>2026-05-01T10:52:14.999Z</time></trkpt><trkpt lat="44.69037046359937" lon="8.694210247479125"><ele>187.0</ele><time>2026-05-01T10:52:15.999Z</time></trkpt><trkpt lat="44.69025936072785" lon="8.69438437303005"><ele>187.0</ele><time>2026-05-01T10:52:16.999Z</time></trkpt><trkpt lat="44.690161188359106" lon="8.694548652969146"><ele>188.75</ele><time>2026-05-01T10:52:17.999Z</time></trkpt><trkpt lat="44.69007414133405" lon="8.694694347109511"><ele>190.5</ele><time>2026-05-01T10:52:18.999Z</time></trkpt><trkpt lat="44.689999001575" lon="8.694839031806612"><ele>192.25</ele><time>2026-05-01T10:52:19.999Z</time></trkpt><trkpt lat="44.68994081056011" lon="8.69500607374707"><ele>194.0</ele><time>2026-05-01T10:52:20.999Z</time></trkpt><trkpt lat="44.68988493459127" lon="8.695182400342837"><ele>192.0</ele><time>2026-05-01T10:52:21.999Z</time></trkpt><trkpt lat="44.689811954054704" lon="8.695361630567394"><ele>190.0</ele><time>2026-05-01T10:52:22.999Z</time></trkpt><trkpt lat="44.68971557504221" lon="8.695548723800043"><ele>188.0</ele><time>2026-05-01T10:52:23.999Z</time></trkpt><trkpt lat="44.68961765626214" lon="8.69572797133187"><ele>188.0</ele><time>2026-05-01T10:52:24.999Z</time></trkpt><trkpt lat="44.689514078218686" lon="8.695894657801215"><ele>188.0</ele><time>2026-05-01T10:52:25.999Z</time></trkpt><trkpt lat="44.689413647907834" lon="8.696055740535568"><ele>188.0</ele><time>2026-05-01T10:52:26.999Z</time></trkpt><trkpt lat="44.68930294868316" lon="8.69621600464754"><ele>188.33333333333331</ele><time>2026-05-01T10:52:27.999Z</time></trkpt><trkpt lat="44.68917529197446" lon="8.696366816726618"><ele>188.66666666666666</ele><time>2026-05-01T10:52:28.999Z</time></trkpt><trkpt lat="44.68904070404623" lon="8.696514348366227"><ele>189.0</ele><time>2026-05-01T10:52:29.999Z</time></trkpt><trkpt lat="44.68891577902341" lon="8.696663843112749"><ele>189.0</ele><time>2026-05-01T10:52:30.999Z</time></trkpt><trkpt lat="44.68880122732292" lon="8.696821198743027"><ele>189.0</ele><time>2026-05-01T10:52:31.999Z</time></trkpt><trkpt lat="44.68869439404272" lon="8.696980858212175"><ele>189.0</ele><time>2026-05-01T10:52:32.999Z</time></trkpt><trkpt lat="44.688581708817374" lon="8.697129536540924"><ele>188.33333333333334</ele><time>2026-05-01T10:52:33.999Z</time></trkpt><trkpt lat="44.688473209480144" lon="8.697284278879708"><ele>187.66666666666669</ele><time>2026-05-01T10:52:34.999Z</time></trkpt><trkpt lat="44.688363452343665" lon="8.697435919537412"><ele>187.0</ele><time>2026-05-01T10:52:36Z</time></trkpt><trkpt lat="44.6882556733637" lon="8.697566967265216"><ele>187.0</ele><time>2026-05-01T10:52:37Z</time></trkpt><trkpt lat="44.688141104640316" lon="8.697677855998679"><ele>187.0</ele><time>2026-05-01T10:52:38Z</time></trkpt><trkpt lat="44.688013232191416" lon="8.697757038135535"><ele>187.0</ele><time>2026-05-01T10:52:39Z</time></trkpt><trkpt lat="44.68788445771392" lon="8.697820839645027"><ele>187.0</ele><time>2026-05-01T10:52:40Z</time></trkpt><trkpt lat="44.687757414823636" lon="8.69786394324121"><ele>184.75</ele><time>2026-05-01T10:52:41Z</time></trkpt><trkpt lat="44.68762046604788" lon="8.697879332378966"><ele>182.5</ele><time>2026-05-01T10:52:42Z</time></trkpt><trkpt lat="44.68748494306694" lon="8.69787996430434"><ele>180.25</ele><time>2026-05-01T10:52:43Z</time></trkpt><trkpt lat="44.68735675409551" lon="8.697887260923377"><ele>178.0</ele><time>2026-05-01T10:52:44Z</time></trkpt><trkpt lat="44.68723588557152" lon="8.697927837038279"><ele>178.0</ele><time>2026-05-01T10:52:45Z</time></trkpt><trkpt lat="44.687131371488555" lon="8.698015218234376"><ele>178.0</ele><time>2026-05-01T10:52:46Z</time></trkpt><trkpt lat="44.68702938631664" lon="8.698127322971812"><ele>178.0</ele><time>2026-05-01T10:52:47Z</time></trkpt><trkpt lat="44.68692853062951" lon="8.698238137463912"><ele>178.0</ele><time>2026-05-01T10:52:48Z</time></trkpt><trkpt lat="44.686815140836785" lon="8.69831823319691"><ele>179.75</ele><time>2026-05-01T10:52:49Z</time></trkpt><trkpt lat="44.68668733570602" lon="8.69836504067902"><ele>181.5</ele><time>2026-05-01T10:52:50Z</time></trkpt><trkpt lat="44.68656097796707" lon="8.698390273093617"><ele>183.25</ele><time>2026-05-01T10:52:51Z</time></trkpt><trkpt lat="44.68644192222606" lon="8.69843178932447"><ele>185.0</ele><time>2026-05-01T10:52:52Z</time></trkpt><trkpt lat="44.686325515475815" lon="8.698479325521102"><ele>185.0</ele><time>2026-05-01T10:52:53Z</time></trkpt><trkpt lat="44.68621425686695" lon="8.69853725026457"><ele>185.0</ele><time>2026-05-01T10:52:54Z</time></trkpt><trkpt lat="44.68610527525965" lon="8.698624436339346"><ele>185.0</ele><time>2026-05-01T10:52:55Z</time></trkpt><trkpt lat="44.686022201391154" lon="8.698736043302"><ele>185.0</ele><time>2026-05-01T10:52:56Z</time></trkpt><trkpt lat="44.685956109072606" lon="8.69884158010226"><ele>184.0</ele><time>2026-05-01T10:52:57Z</time></trkpt><trkpt lat="44.685892046156006" lon="8.698935464324046"><ele>183.0</ele><time>2026-05-01T10:52:58Z</time></trkpt><trkpt lat="44.68583627460516" lon="8.699016205368993"><ele>182.0</ele><time>2026-05-01T10:52:59Z</time></trkpt><trkpt lat="44.68577605472028" lon="8.699085414888277"><ele>181.0</ele><time>2026-05-01T10:53:00Z</time></trkpt><trkpt lat="44.68569857827314" lon="8.699167032941862"><ele>180.0</ele><time>2026-05-01T10:53:01Z</time></trkpt><trkpt lat="44.68566357015103" lon="8.699264557102158"><ele>179.0</ele><time>2026-05-01T10:53:02Z</time></trkpt><trkpt lat="44.685684777909685" lon="8.699392497699643"><ele>178.79999999999998</ele><time>2026-05-01T10:53:03Z</time></trkpt><trkpt lat="44.68569286988563" lon="8.699518999409934"><ele>178.6</ele><time>2026-05-01T10:53:04Z</time></trkpt><trkpt lat="44.68573885585958" lon="8.699662117928513"><ele>178.4</ele><time>2026-05-01T10:53:05Z</time></trkpt><trkpt lat="44.685792906594145" lon="8.699803532817164"><ele>178.2</ele><time>2026-05-01T10:53:06Z</time></trkpt><trkpt lat="44.685831330007005" lon="8.699931348078088"><ele>178.0</ele><time>2026-05-01T10:53:07Z</time></trkpt><trkpt lat="44.685853320812974" lon="8.700047879582272"><ele>178.0</ele><time>2026-05-01T10:53:08Z</time></trkpt><trkpt lat="44.68586099292174" lon="8.700159143322319"><ele>178.0</ele><time>2026-05-01T10:53:09Z</time></trkpt><trkpt lat="44.685826377006926" lon="8.700279150247747"><ele>178.0</ele><time>2026-05-01T10:53:10Z</time></trkpt><trkpt lat="44.68578587856275" lon="8.70042035302406"><ele>178.0</ele><time>2026-05-01T10:53:11Z</time></trkpt><trkpt lat="44.6857375880519" lon="8.70058473529877"><ele>178.0</ele><time>2026-05-01T10:53:12Z</time></trkpt><trkpt lat="44.68569886974249" lon="8.70072636870745"><ele>179.0</ele><time>2026-05-01T10:53:13Z</time></trkpt><trkpt lat="44.68565196360798" lon="8.700876201488157"><ele>180.0</ele><time>2026-05-01T10:53:14Z</time></trkpt><trkpt lat="44.68561603210433" lon="8.701008173589331"><ele>181.0</ele><time>2026-05-01T10:53:15Z</time></trkpt><trkpt lat="44.685596892441815" lon="8.701121469121762"><ele>182.0</ele><time>2026-05-01T10:53:16Z</time></trkpt><trkpt lat="44.68557350171119" lon="8.70122680956086"><ele>183.0</ele><time>2026-05-01T10:53:17Z</time></trkpt><trkpt lat="44.68561562806409" lon="8.701370821656631"><ele>184.0</ele><time>2026-05-01T10:53:18Z</time></trkpt><trkpt lat="44.68566280683536" lon="8.701515006392428"><ele>185.0</ele><time>2026-05-01T10:53:19Z</time></trkpt><trkpt lat="44.68573163807239" lon="8.701670092586612"><ele>186.0</ele><time>2026-05-01T10:53:20Z</time></trkpt><trkpt lat="44.68579521106301" lon="8.70182358838912"><ele>187.0</ele><time>2026-05-01T10:53:21Z</time></trkpt><trkpt lat="44.68585059272985" lon="8.701961113878802"><ele>188.0</ele><time>2026-05-01T10:53:22Z</time></trkpt><trkpt lat="44.68586342215023" lon="8.702083576601156"><ele>189.0</ele><time>2026-05-01T10:53:23Z</time></trkpt><trkpt lat="44.68587917294537" lon="8.702184260013619"><ele>190.0</ele><time>2026-05-01T10:53:24Z</time></trkpt><trkpt lat="44.685888420142255" lon="8.70228444930019"><ele>191.0</ele><time>2026-05-01T10:53:25Z</time></trkpt><trkpt lat="44.68589390246074" lon="8.702394660302414"><ele>191.99999999999997</ele><time>2026-05-01T10:53:26Z</time></trkpt><trkpt lat="44.68589009969125" lon="8.702526006158376"><ele>193.0</ele><time>2026-05-01T10:53:27Z</time></trkpt><trkpt lat="44.68588053773849" lon="8.702674428232942"><ele>194.60000000000002</ele><time>2026-05-01T10:53:28Z</time></trkpt><trkpt lat="44.68585714017526" lon="8.702820446756077"><ele>196.20000000000002</ele><time>2026-05-01T10:53:29Z</time></trkpt><trkpt lat="44.685824190039696" lon="8.70295144567058"><ele>197.8</ele><time>2026-05-01T10:53:30Z</time></trkpt><trkpt lat="44.68579014602649" lon="8.703070521455027"><ele>199.4</ele><time>2026-05-01T10:53:31Z</time></trkpt><trkpt lat="44.685757137519694" lon="8.703185853532036"><ele>201.0</ele><time>2026-05-01T10:53:32Z</time></trkpt><trkpt lat="44.685740531594554" lon="8.703310417510389"><ele>201.0</ele><time>2026-05-01T10:53:33Z</time></trkpt><trkpt lat="44.68570853606721" lon="8.703424677725037"><ele>201.0</ele><time>2026-05-01T10:53:34Z</time></trkpt><trkpt lat="44.68568426169372" lon="8.703528879521564"><ele>201.0</ele><time>2026-05-01T10:53:35Z</time></trkpt><trkpt lat="44.68569484738778" lon="8.70371536456428"><ele>201.0</ele><time>2026-05-01T10:53:37Z</time></trkpt><trkpt lat="44.685689719884124" lon="8.703851614979495"><ele>201.0</ele><time>2026-05-01T10:53:38Z</time></trkpt><trkpt lat="44.68571367708999" lon="8.704026952712649"><ele>202.0</ele><time>2026-05-01T10:53:39Z</time></trkpt><trkpt lat="44.6857361176631" lon="8.704204907988158"><ele>203.0</ele><time>2026-05-01T10:53:40Z</time></trkpt><trkpt lat="44.685768817682735" lon="8.704343533129222"><ele>204.0</ele><time>2026-05-01T10:53:41Z</time></trkpt><trkpt lat="44.685775046491145" lon="8.704465356239533"><ele>205.0</ele><time>2026-05-01T10:53:42Z</time></trkpt><trkpt lat="44.68577345512341" lon="8.704568348915801"><ele>206.0</ele><time>2026-05-01T10:53:43Z</time></trkpt><trkpt lat="44.68574377011395" lon="8.704647090074191"><ele>207.5</ele><time>2026-05-01T10:53:44Z</time></trkpt><trkpt lat="44.685688006611656" lon="8.704738386164392"><ele>209.0</ele><time>2026-05-01T10:53:46Z</time></trkpt><trkpt lat="44.68573792057256" lon="8.704824357771212"><ele>210.5</ele><time>2026-05-01T10:53:48Z</time></trkpt><trkpt lat="44.685888918947214" lon="8.705039654954517"><ele>212.0</ele><time>2026-05-01T10:53:48.999Z</time></trkpt><trkpt lat="44.68581206765235" lon="8.704670322556497"><ele>212.0</ele><time>2026-05-01T10:53:49.999Z</time></trkpt><trkpt lat="44.6858014732329" lon="8.704553618524567"><ele>212.0</ele><time>2026-05-01T10:53:50.999Z</time></trkpt><trkpt lat="44.685783999331186" lon="8.704413668775365"><ele>212.0</ele><time>2026-05-01T10:53:51.999Z</time></trkpt><trkpt lat="44.68577078005702" lon="8.704252423633909"><ele>212.0</ele><time>2026-05-01T10:53:52.999Z</time></trkpt><trkpt lat="44.68573811228693" lon="8.704020075161598"><ele>210.5</ele><time>2026-05-01T10:53:53.999Z</time></trkpt><trkpt lat="44.68571330589075" lon="8.703810166314183"><ele>209.0</ele><time>2026-05-01T10:53:54.999Z</time></trkpt><trkpt lat="44.685707610415555" lon="8.703633237066258"><ele>207.5</ele><time>2026-05-01T10:53:55.999Z</time></trkpt><trkpt lat="44.68571959840443" lon="8.703470081996315"><ele>206.0</ele><time>2026-05-01T10:53:56.999Z</time></trkpt><trkpt lat="44.68575505292218" lon="8.703308988258819"><ele>205.0</ele><time>2026-05-01T10:53:57.999Z</time></trkpt><trkpt lat="44.685799468564504" lon="8.703162792095092"><ele>204.0</ele><time>2026-05-01T10:53:58.999Z</time></trkpt><trkpt lat="44.68583950214062" lon="8.703019452821081"><ele>203.0</ele><time>2026-05-01T10:53:59.999Z</time></trkpt><trkpt lat="44.685879730128846" lon="8.702883479742917"><ele>202.0</ele><time>2026-05-01T10:54:00.999Z</time></trkpt><trkpt lat="44.68590944960624" lon="8.702752822140198"><ele>201.0</ele><time>2026-05-01T10:54:01.999Z</time></trkpt><trkpt lat="44.685932112723826" lon="8.70261924423067"><ele>199.66666666666666</ele><time>2026-05-01T10:54:02.999Z</time></trkpt><trkpt lat="44.68593762192701" lon="8.702490372901236"><ele>198.33333333333331</ele><time>2026-05-01T10:54:03.999Z</time></trkpt><trkpt lat="44.68593491556838" lon="8.702360539755054"><ele>197.0</ele><time>2026-05-01T10:54:04.999Z</time></trkpt><trkpt lat="44.68593107690284" lon="8.702244282328563"><ele>195.66666666666666</ele><time>2026-05-01T10:54:05.999Z</time></trkpt><trkpt lat="44.68591834544778" lon="8.70215393905381"><ele>194.33333333333331</ele><time>2026-05-01T10:54:06.999Z</time></trkpt><trkpt lat="44.685889067600655" lon="8.702027684077517"><ele>193.0</ele><time>2026-05-01T10:54:08.999Z</time></trkpt><trkpt lat="44.685797422237336" lon="8.701994324277726"><ele>193.0</ele><time>2026-05-01T10:54:10.999Z</time></trkpt><trkpt lat="44.685714233698185" lon="8.701994521727732"><ele>193.0</ele><time>2026-05-01T10:54:12.999Z</time></trkpt><trkpt lat="44.68568795194999" lon="8.702141901683659"><ele>193.0</ele><time>2026-05-01T10:54:13.999Z</time></trkpt><trkpt lat="44.685669221038836" lon="8.702271976874968"><ele>193.0</ele><time>2026-05-01T10:54:15.999Z</time></trkpt><trkpt lat="44.685650292845374" lon="8.702392001905734"><ele>193.0</ele><time>2026-05-01T10:54:17.999Z</time></trkpt><trkpt lat="44.68554083872262" lon="8.702412704325859"><ele>193.0</ele><time>2026-05-01T10:54:27.999Z</time></trkpt><trkpt lat="44.68558228249473" lon="8.702174280481142"><ele>193.0</ele><time>2026-05-01T10:54:28.999Z</time></trkpt><trkpt lat="44.685609562717744" lon="8.702043376831613"><ele>193.0</ele><time>2026-05-01T10:54:30.999Z</time></trkpt><trkpt lat="44.68583561958848" lon="8.70210284103099"><ele>193.0</ele><time>2026-05-01T10:54:35.999Z</time></trkpt><trkpt lat="44.68588448259191" lon="8.702227738483423"><ele>193.0</ele><time>2026-05-01T10:54:37.999Z</time></trkpt><trkpt lat="44.685894761854186" lon="8.70241377066688"><ele>193.0</ele><time>2026-05-01T10:54:38.999Z</time></trkpt><trkpt lat="44.685885548514214" lon="8.702607193916126"><ele>193.0</ele><time>2026-05-01T10:54:39.999Z</time></trkpt><trkpt lat="44.68585622150963" lon="8.702825096544714"><ele>195.66666666666666</ele><time>2026-05-01T10:54:40.999Z</time></trkpt><trkpt lat="44.685797099320204" lon="8.703046226512422"><ele>198.33333333333331</ele><time>2026-05-01T10:54:42Z</time></trkpt><trkpt lat="44.685740994967915" lon="8.703253272631308"><ele>201.0</ele><time>2026-05-01T10:54:43Z</time></trkpt><trkpt lat="44.68571046491037" lon="8.703428385924745"><ele>201.0</ele><time>2026-05-01T10:54:44Z</time></trkpt><trkpt lat="44.68569548546562" lon="8.703578458410222"><ele>201.0</ele><time>2026-05-01T10:54:45Z</time></trkpt><trkpt lat="44.68569328240022" lon="8.703721340332491"><ele>201.0</ele><time>2026-05-01T10:54:46Z</time></trkpt><trkpt lat="44.68569051900406" lon="8.703882670676851"><ele>201.0</ele><time>2026-05-01T10:54:47Z</time></trkpt><trkpt lat="44.68571826968851" lon="8.704067662643661"><ele>202.0</ele><time>2026-05-01T10:54:48Z</time></trkpt><trkpt lat="44.685754320580216" lon="8.7042194165948"><ele>203.0</ele><time>2026-05-01T10:54:49Z</time></trkpt><trkpt lat="44.685769578850184" lon="8.704345046767232"><ele>204.0</ele><time>2026-05-01T10:54:50Z</time></trkpt><trkpt lat="44.68578121216854" lon="8.704451434253453"><ele>205.0</ele><time>2026-05-01T10:54:51Z</time></trkpt><trkpt lat="44.685764614256165" lon="8.704546590136202"><ele>206.0</ele><time>2026-05-01T10:54:52Z</time></trkpt><trkpt lat="44.6856789631311" lon="8.704696096848227"><ele>206.0</ele><time>2026-05-01T10:54:54Z</time></trkpt><trkpt lat="44.68558061768109" lon="8.704719915181663"><ele>206.0</ele><time>2026-05-01T10:54:55Z</time></trkpt><trkpt lat="44.685493529942306" lon="8.70466552191163"><ele>206.0</ele><time>2026-05-01T10:54:56Z</time></trkpt><trkpt lat="44.68545210097632" lon="8.704512262502378"><ele>206.0</ele><time>2026-05-01T10:54:57Z</time></trkpt><trkpt lat="44.685389738447924" lon="8.704365685672185"><ele>206.0</ele><time>2026-05-01T10:54:58Z</time></trkpt><trkpt lat="44.685350322871706" lon="8.70419945427803"><ele>206.0</ele><time>2026-05-01T10:54:59Z</time></trkpt><trkpt lat="44.68530494254648" lon="8.704077771788471"><ele>206.0</ele><time>2026-05-01T10:55:00Z</time></trkpt><trkpt lat="44.68524822166565" lon="8.703998698079834"><ele>206.0</ele><time>2026-05-01T10:55:01Z</time></trkpt><trkpt lat="44.685172380722676" lon="8.70397780181992"><ele>206.0</ele><time>2026-05-01T10:55:02Z</time></trkpt><trkpt lat="44.6850777708988" lon="8.704013240529976"><ele>206.0</ele><time>2026-05-01T10:55:03Z</time></trkpt><trkpt lat="44.68497620366546" lon="8.704120539922322"><ele>206.60000000000002</ele><time>2026-05-01T10:55:04Z</time></trkpt><trkpt lat="44.684887120772636" lon="8.704240503072445"><ele>207.2</ele><time>2026-05-01T10:55:05Z</time></trkpt><trkpt lat="44.68482794929578" lon="8.70434937618375"><ele>207.8</ele><time>2026-05-01T10:55:06Z</time></trkpt><trkpt lat="44.68479340994531" lon="8.704456468709774"><ele>208.39999999999998</ele><time>2026-05-01T10:55:07Z</time></trkpt><trkpt lat="44.684789929095146" lon="8.704583320237122"><ele>209.0</ele><time>2026-05-01T10:55:08Z</time></trkpt><trkpt lat="44.684809420872206" lon="8.704735845863668"><ele>211.25</ele><time>2026-05-01T10:55:09Z</time></trkpt><trkpt lat="44.684832650655515" lon="8.70491031971444"><ele>213.5</ele><time>2026-05-01T10:55:10Z</time></trkpt><trkpt lat="44.68485359113641" lon="8.705088197195384"><ele>215.75</ele><time>2026-05-01T10:55:11Z</time></trkpt><trkpt lat="44.68487443204059" lon="8.705260543254656"><ele>218.0</ele><time>2026-05-01T10:55:12Z</time></trkpt><trkpt lat="44.684876863461064" lon="8.70543462171139"><ele>219.00000000000003</ele><time>2026-05-01T10:55:13Z</time></trkpt><trkpt lat="44.68489139746641" lon="8.705590141044443"><ele>220.0</ele><time>2026-05-01T10:55:14Z</time></trkpt><trkpt lat="44.68489866186673" lon="8.705722784073275"><ele>221.0</ele><time>2026-05-01T10:55:15Z</time></trkpt><trkpt lat="44.684899652755924" lon="8.70582619887836"><ele>222.0</ele><time>2026-05-01T10:55:16Z</time></trkpt><trkpt lat="44.68487645264832" lon="8.705921004301066"><ele>223.00000000000003</ele><time>2026-05-01T10:55:17Z</time></trkpt><trkpt lat="44.68482961441179" lon="8.70598460417504"><ele>224.0</ele><time>2026-05-01T10:55:18Z</time></trkpt><trkpt lat="44.68478048806633" lon="8.706100313341663"><ele>224.66666666666669</ele><time>2026-05-01T10:55:19Z</time></trkpt><trkpt lat="44.68470614510319" lon="8.706217413445874"><ele>225.33333333333334</ele><time>2026-05-01T10:55:20Z</time></trkpt><trkpt lat="44.68464795930969" lon="8.706330041521385"><ele>226.0</ele><time>2026-05-01T10:55:21Z</time></trkpt><trkpt lat="44.684578383037646" lon="8.7064000252594"><ele>226.66666666666669</ele><time>2026-05-01T10:55:22Z</time></trkpt><trkpt lat="44.68454410617365" lon="8.70649480832897"><ele>227.33333333333334</ele><time>2026-05-01T10:55:23Z</time></trkpt><trkpt lat="44.684507344194486" lon="8.706571239236219"><ele>228.0</ele><time>2026-05-01T10:55:24Z</time></trkpt><trkpt lat="44.684519152767265" lon="8.706677357282203"><ele>228.0</ele><time>2026-05-01T10:55:25Z</time></trkpt><trkpt lat="44.684561489170626" lon="8.70680290882827"><ele>228.0</ele><time>2026-05-01T10:55:26Z</time></trkpt><trkpt lat="44.68459708762292" lon="8.706934119991356"><ele>228.0</ele><time>2026-05-01T10:55:27Z</time></trkpt><trkpt lat="44.68463519827088" lon="8.707087290887447"><ele>228.0</ele><time>2026-05-01T10:55:28Z</time></trkpt><trkpt lat="44.68467411222922" lon="8.707259799755265"><ele>228.0</ele><time>2026-05-01T10:55:29Z</time></trkpt><trkpt lat="44.68471282184392" lon="8.707447983616554"><ele>228.33333333333331</ele><time>2026-05-01T10:55:30Z</time></trkpt><trkpt lat="44.68476236152653" lon="8.707647234740033"><ele>228.66666666666666</ele><time>2026-05-01T10:55:31Z</time></trkpt><trkpt lat="44.68483946278407" lon="8.70783900064546"><ele>229.0</ele><time>2026-05-01T10:55:32Z</time></trkpt><trkpt lat="44.68492079847684" lon="8.70805824171496"><ele>229.33333333333331</ele><time>2026-05-01T10:55:33Z</time></trkpt><trkpt lat="44.684991633620676" lon="8.70832061362047"><ele>229.66666666666669</ele><time>2026-05-01T10:55:34Z</time></trkpt><trkpt lat="44.68508129792778" lon="8.708590801796966"><ele>230.0</ele><time>2026-05-01T10:55:35Z</time></trkpt><trkpt lat="44.68517530026043" lon="8.708822183052275"><ele>230.0</ele><time>2026-05-01T10:55:36Z</time></trkpt><trkpt lat="44.685244485955174" lon="8.709033056325225"><ele>230.0</ele><time>2026-05-01T10:55:37Z</time></trkpt><trkpt lat="44.68530821869075" lon="8.70922337739665"><ele>230.0</ele><time>2026-05-01T10:55:38Z</time></trkpt><trkpt lat="44.68535287142649" lon="8.709409142515568"><ele>229.0</ele><time>2026-05-01T10:55:39Z</time></trkpt><trkpt lat="44.68540895411309" lon="8.709576196686907"><ele>228.0</ele><time>2026-05-01T10:55:40Z</time></trkpt><trkpt lat="44.68546244411068" lon="8.7097412125987"><ele>227.0</ele><time>2026-05-01T10:55:41Z</time></trkpt><trkpt lat="44.68549970570423" lon="8.709899131013863"><ele>226.0</ele><time>2026-05-01T10:55:42Z</time></trkpt><trkpt lat="44.68551689023485" lon="8.710060607744042"><ele>226.0</ele><time>2026-05-01T10:55:43Z</time></trkpt><trkpt lat="44.68550084620411" lon="8.710234663519415"><ele>226.0</ele><time>2026-05-01T10:55:44Z</time></trkpt><trkpt lat="44.68546815780707" lon="8.710429824726528"><ele>226.0</ele><time>2026-05-01T10:55:45Z</time></trkpt><trkpt lat="44.68542566287762" lon="8.71066088359139"><ele>226.0</ele><time>2026-05-01T10:55:46Z</time></trkpt><trkpt lat="44.68539520178185" lon="8.710932202037544"><ele>225.33333333333331</ele><time>2026-05-01T10:55:47Z</time></trkpt><trkpt lat="44.685367402748305" lon="8.711172342258804"><ele>224.66666666666669</ele><time>2026-05-01T10:55:48Z</time></trkpt><trkpt lat="44.685318034917294" lon="8.711426515274962"><ele>224.0</ele><time>2026-05-01T10:55:49Z</time></trkpt><trkpt lat="44.68526444189521" lon="8.711666805021682"><ele>232.0</ele><time>2026-05-01T10:55:50Z</time></trkpt><trkpt lat="44.68520188800007" lon="8.711898116371623"><ele>240.0</ele><time>2026-05-01T10:55:51Z</time></trkpt><trkpt lat="44.68514117567089" lon="8.712129988225973"><ele>248.0</ele><time>2026-05-01T10:55:52Z</time></trkpt><trkpt lat="44.68505490798793" lon="8.712347161461699"><ele>248.33333333333334</ele><time>2026-05-01T10:55:53Z</time></trkpt><trkpt lat="44.684999375425946" lon="8.712571059613003"><ele>248.66666666666669</ele><time>2026-05-01T10:55:53.999Z</time></trkpt><trkpt lat="44.68494367815182" lon="8.712790630049373"><ele>249.0</ele><time>2026-05-01T10:55:54.999Z</time></trkpt><trkpt lat="44.68489157913187" lon="8.712995797913493"><ele>249.25</ele><time>2026-05-01T10:55:55.999Z</time></trkpt><trkpt lat="44.68484020487197" lon="8.713191641107668"><ele>249.5</ele><time>2026-05-01T10:55:56.999Z</time></trkpt><trkpt lat="44.684790535675816" lon="8.713384159621581"><ele>249.75</ele><time>2026-05-01T10:55:57.999Z</time></trkpt><trkpt lat="44.68476247241002" lon="8.713571214200408"><ele>250.0</ele><time>2026-05-01T10:55:58.999Z</time></trkpt><trkpt lat="44.68472127524636" lon="8.71374864255775"><ele>250.0</ele><time>2026-05-01T10:55:59.999Z</time></trkpt><trkpt lat="44.68469617623695" lon="8.71394397627931"><ele>250.0</ele><time>2026-05-01T10:56:00.999Z</time></trkpt><trkpt lat="44.68470234454662" lon="8.71415878342333"><ele>250.0</ele><time>2026-05-01T10:56:01.999Z</time></trkpt><trkpt lat="44.68473989592927" lon="8.714383568967213"><ele>253.33333333333331</ele><time>2026-05-01T10:56:02.999Z</time></trkpt><trkpt lat="44.68480167569611" lon="8.714612108760189"><ele>256.6666666666667</ele><time>2026-05-01T10:56:03.999Z</time></trkpt><trkpt lat="44.68486026126697" lon="8.714826296918975"><ele>260.0</ele><time>2026-05-01T10:56:04.999Z</time></trkpt><trkpt lat="44.6849115405906" lon="8.71502755601465"><ele>260.0</ele><time>2026-05-01T10:56:05.999Z</time></trkpt><trkpt lat="44.68495809982465" lon="8.715213310421163"><ele>260.0</ele><time>2026-05-01T10:56:06.999Z</time></trkpt><trkpt lat="44.685001508851364" lon="8.715384860007864"><ele>260.0</ele><time>2026-05-01T10:56:07.999Z</time></trkpt><trkpt lat="44.6850414334033" lon="8.715539847413051"><ele>260.0</ele><time>2026-05-01T10:56:08.999Z</time></trkpt><trkpt lat="44.68504727968606" lon="8.715691205042907"><ele>260.0</ele><time>2026-05-01T10:56:09.999Z</time></trkpt><trkpt lat="44.685043652881575" lon="8.715837310501746"><ele>260.0</ele><time>2026-05-01T10:56:10.999Z</time></trkpt><trkpt lat="44.68498657543342" lon="8.71594870132609"><ele>260.0</ele><time>2026-05-01T10:56:11.999Z</time></trkpt><trkpt lat="44.684872801724715" lon="8.7160075180898"><ele>260.0</ele><time>2026-05-01T10:56:12.999Z</time></trkpt><trkpt lat="44.68479618560783" lon="8.716149777591923"><ele>260.0</ele><time>2026-05-01T10:56:13.999Z</time></trkpt><trkpt lat="44.68471534287026" lon="8.716292413169544"><ele>260.0</ele><time>2026-05-01T10:56:14.999Z</time></trkpt><trkpt lat="44.684674666600536" lon="8.716505294127973"><ele>260.0</ele><time>2026-05-01T10:56:15.999Z</time></trkpt><trkpt lat="44.68467526676428" lon="8.716743207972394"><ele>261.0</ele><time>2026-05-01T10:56:16.999Z</time></trkpt><trkpt lat="44.6846985485972" lon="8.716985839906396"><ele>262.0</ele><time>2026-05-01T10:56:17.999Z</time></trkpt><trkpt lat="44.68471233567097" lon="8.717211798422076"><ele>263.0</ele><time>2026-05-01T10:56:18.999Z</time></trkpt><trkpt lat="44.684728042742215" lon="8.717434848698344"><ele>263.0</ele><time>2026-05-01T10:56:19.999Z</time></trkpt><trkpt lat="44.68473596716328" lon="8.717634480493857"><ele>263.0</ele><time>2026-05-01T10:56:20.999Z</time></trkpt><trkpt lat="44.68474199413196" lon="8.71782125517207"><ele>263.0</ele><time>2026-05-01T10:56:21.999Z</time></trkpt><trkpt lat="44.68471901082949" lon="8.718000775243539"><ele>263.0</ele><time>2026-05-01T10:56:22.999Z</time></trkpt><trkpt lat="44.68469523436132" lon="8.718197143285318"><ele>264.0</ele><time>2026-05-01T10:56:23.999Z</time></trkpt><trkpt lat="44.6846804836844" lon="8.718390311252099"><ele>265.0</ele><time>2026-05-01T10:56:24.999Z</time></trkpt><trkpt lat="44.684672329186114" lon="8.718571591767088"><ele>266.0</ele><time>2026-05-01T10:56:25.999Z</time></trkpt><trkpt lat="44.6847051143503" lon="8.718748223404093"><ele>267.0</ele><time>2026-05-01T10:56:26.999Z</time></trkpt><trkpt lat="44.684743405971304" lon="8.718924303592782"><ele>267.0</ele><time>2026-05-01T10:56:27.999Z</time></trkpt><trkpt lat="44.68472745754776" lon="8.719099387241316"><ele>267.0</ele><time>2026-05-01T10:56:28.999Z</time></trkpt><trkpt lat="44.6846706782347" lon="8.71925114355278"><ele>267.0</ele><time>2026-05-01T10:56:29.999Z</time></trkpt><trkpt lat="44.6845676663315" lon="8.719349780573944"><ele>267.0</ele><time>2026-05-01T10:56:30.999Z</time></trkpt><trkpt lat="44.68446742921396" lon="8.719502532403464"><ele>266.3333333333333</ele><time>2026-05-01T10:56:31.999Z</time></trkpt><trkpt lat="44.68436573254366" lon="8.719644613965366"><ele>265.66666666666663</ele><time>2026-05-01T10:56:32.999Z</time></trkpt><trkpt lat="44.68431640800964" lon="8.719859731663341"><ele>265.0</ele><time>2026-05-01T10:56:33.999Z</time></trkpt><trkpt lat="44.68427085793128" lon="8.7200689400873"><ele>265.0</ele><time>2026-05-01T10:56:34.999Z</time></trkpt><trkpt lat="44.68419800778937" lon="8.720255969556462"><ele>265.0</ele><time>2026-05-01T10:56:35.999Z</time></trkpt><trkpt lat="44.684097719119066" lon="8.720402856508398"><ele>265.0</ele><time>2026-05-01T10:56:36.999Z</time></trkpt><trkpt lat="44.683980041111624" lon="8.720523377089094"><ele>265.0</ele><time>2026-05-01T10:56:37.999Z</time></trkpt><trkpt lat="44.68384937235539" lon="8.720592253717317"><ele>265.0</ele><time>2026-05-01T10:56:38.999Z</time></trkpt><trkpt lat="44.68370646640794" lon="8.720620519798985"><ele>265.0</ele><time>2026-05-01T10:56:39.999Z</time></trkpt><trkpt lat="44.6835503989179" lon="8.720617925992032"><ele>265.0</ele><time>2026-05-01T10:56:40.999Z</time></trkpt><trkpt lat="44.68338038905526" lon="8.72062674848245"><ele>264.3333333333333</ele><time>2026-05-01T10:56:41.999Z</time></trkpt><trkpt lat="44.68321250643085" lon="8.720627633645027"><ele>263.6666666666667</ele><time>2026-05-01T10:56:42.999Z</time></trkpt><trkpt lat="44.683054648444994" lon="8.720706008436526"><ele>263.0</ele><time>2026-05-01T10:56:43.999Z</time></trkpt><trkpt lat="44.68291024686368" lon="8.72083248450556"><ele>263.0</ele><time>2026-05-01T10:56:44.999Z</time></trkpt><trkpt lat="44.68277573531527" lon="8.720949350453644"><ele>263.0</ele><time>2026-05-01T10:56:45.999Z</time></trkpt><trkpt lat="44.68262402516329" lon="8.720957545169457"><ele>263.0</ele><time>2026-05-01T10:56:46.999Z</time></trkpt><trkpt lat="44.68246471419416" lon="8.720987038904621"><ele>263.33333333333337</ele><time>2026-05-01T10:56:48Z</time></trkpt><trkpt lat="44.68228682125046" lon="8.720974955624435"><ele>263.6666666666667</ele><time>2026-05-01T10:56:49Z</time></trkpt><trkpt lat="44.682113280607" lon="8.720980989551443"><ele>264.0</ele><time>2026-05-01T10:56:50Z</time></trkpt><trkpt lat="44.68194958016049" lon="8.7210036629325"><ele>265.0</ele><time>2026-05-01T10:56:51Z</time></trkpt><trkpt lat="44.68179076784105" lon="8.721073861354991"><ele>266.0</ele><time>2026-05-01T10:56:52Z</time></trkpt><trkpt lat="44.681639303876494" lon="8.721193945108455"><ele>267.0</ele><time>2026-05-01T10:56:53Z</time></trkpt><trkpt lat="44.68149660923717" lon="8.721323956692299"><ele>267.0</ele><time>2026-05-01T10:56:54Z</time></trkpt><trkpt lat="44.68135406121287" lon="8.721424996759913"><ele>267.0</ele><time>2026-05-01T10:56:55Z</time></trkpt><trkpt lat="44.68121135891002" lon="8.721486277575966"><ele>267.0</ele><time>2026-05-01T10:56:56Z</time></trkpt><trkpt lat="44.681065880119014" lon="8.721526039096654"><ele>266.6666666666667</ele><time>2026-05-01T10:56:57Z</time></trkpt><trkpt lat="44.680923152101215" lon="8.721586047897173"><ele>266.33333333333337</ele><time>2026-05-01T10:56:58Z</time></trkpt><trkpt lat="44.68078323372667" lon="8.721689371151719"><ele>266.0</ele><time>2026-05-01T10:56:59Z</time></trkpt><trkpt lat="44.68063560336697" lon="8.721784891728923"><ele>266.0</ele><time>2026-05-01T10:57:00Z</time></trkpt><trkpt lat="44.68048629884238" lon="8.721865523254584"><ele>266.0</ele><time>2026-05-01T10:57:01Z</time></trkpt><trkpt lat="44.68033845278216" lon="8.721940197885704"><ele>266.0</ele><time>2026-05-01T10:57:02Z</time></trkpt><trkpt lat="44.68019560786912" lon="8.722018697480257"><ele>265.0</ele><time>2026-05-01T10:57:03Z</time></trkpt><trkpt lat="44.68004539319252" lon="8.722067638749719"><ele>264.0</ele><time>2026-05-01T10:57:04Z</time></trkpt><trkpt lat="44.67989612468415" lon="8.722061159151838"><ele>263.0</ele><time>2026-05-01T10:57:05Z</time></trkpt><trkpt lat="44.679744534841056" lon="8.722047954286383"><ele>263.0</ele><time>2026-05-01T10:57:06Z</time></trkpt><trkpt lat="44.67959028549383" lon="8.722035271941161"><ele>263.0</ele><time>2026-05-01T10:57:07Z</time></trkpt><trkpt lat="44.679440804186136" lon="8.722041771240987"><ele>263.0</ele><time>2026-05-01T10:57:08Z</time></trkpt><trkpt lat="44.67929836269535" lon="8.72202297564243"><ele>263.0</ele><time>2026-05-01T10:57:09Z</time></trkpt><trkpt lat="44.67914993121773" lon="8.722008518643696"><ele>264.0</ele><time>2026-05-01T10:57:10Z</time></trkpt><trkpt lat="44.678985237300104" lon="8.722027172407376"><ele>265.0</ele><time>2026-05-01T10:57:11Z</time></trkpt><trkpt lat="44.678805310502945" lon="8.722109478194126"><ele>266.0</ele><time>2026-05-01T10:57:12Z</time></trkpt><trkpt lat="44.678610673725814" lon="8.722241153637295"><ele>269.6666666666667</ele><time>2026-05-01T10:57:13Z</time></trkpt><trkpt lat="44.678423744930114" lon="8.72234776635192"><ele>273.3333333333333</ele><time>2026-05-01T10:57:14Z</time></trkpt><trkpt lat="44.67826047021937" lon="8.722429735065546"><ele>277.0</ele><time>2026-05-01T10:57:15Z</time></trkpt><trkpt lat="44.67811690187892" lon="8.722519141588547"><ele>277.0</ele><time>2026-05-01T10:57:16Z</time></trkpt><trkpt lat="44.677999015094" lon="8.72265842087879"><ele>277.0</ele><time>2026-05-01T10:57:17Z</time></trkpt><trkpt lat="44.67790558816192" lon="8.722889870019392"><ele>277.0</ele><time>2026-05-01T10:57:18Z</time></trkpt><trkpt lat="44.67784181476317" lon="8.723151170424464"><ele>274.66666666666663</ele><time>2026-05-01T10:57:19Z</time></trkpt><trkpt lat="44.677781882052905" lon="8.7233935447176"><ele>272.3333333333333</ele><time>2026-05-01T10:57:20Z</time></trkpt><trkpt lat="44.677716037957865" lon="8.723610087352016"><ele>270.0</ele><time>2026-05-01T10:57:21Z</time></trkpt><trkpt lat="44.67764747198627" lon="8.72381377343161"><ele>276.25</ele><time>2026-05-01T10:57:22Z</time></trkpt><trkpt lat="44.677593139050025" lon="8.724004429462632"><ele>282.5</ele><time>2026-05-01T10:57:23Z</time></trkpt><trkpt lat="44.67752856227393" lon="8.724176989204878"><ele>288.75</ele><time>2026-05-01T10:57:24Z</time></trkpt><trkpt lat="44.67744015750577" lon="8.724314624121218"><ele>295.0</ele><time>2026-05-01T10:57:25Z</time></trkpt><trkpt lat="44.6773055847635" lon="8.724356605268204"><ele>292.3333333333333</ele><time>2026-05-01T10:57:26Z</time></trkpt><trkpt lat="44.67716504926493" lon="8.724441739367165"><ele>289.6666666666667</ele><time>2026-05-01T10:57:27Z</time></trkpt><trkpt lat="44.6770050863752" lon="8.724511015760763"><ele>287.0</ele><time>2026-05-01T10:57:28Z</time></trkpt><trkpt lat="44.67684528252906" lon="8.7246006417118"><ele>287.0</ele><time>2026-05-01T10:57:29Z</time></trkpt><trkpt lat="44.676676600528985" lon="8.724631408183722"><ele>287.0</ele><time>2026-05-01T10:57:30Z</time></trkpt><trkpt lat="44.67650847047897" lon="8.72466060682948"><ele>287.0</ele><time>2026-05-01T10:57:31Z</time></trkpt><trkpt lat="44.67633938047853" lon="8.7246499351264"><ele>287.0</ele><time>2026-05-01T10:57:32Z</time></trkpt><trkpt lat="44.67619517460785" lon="8.72465253481795"><ele>287.0</ele><time>2026-05-01T10:57:33Z</time></trkpt><trkpt lat="44.67605860915241" lon="8.724679804673553"><ele>287.0</ele><time>2026-05-01T10:57:34Z</time></trkpt><trkpt lat="44.675932153477866" lon="8.724757274114559"><ele>287.0</ele><time>2026-05-01T10:57:35Z</time></trkpt><trkpt lat="44.67582025101072" lon="8.724906472054535"><ele>289.33333333333337</ele><time>2026-05-01T10:57:36Z</time></trkpt><trkpt lat="44.67573890821945" lon="8.725101746204391"><ele>291.6666666666667</ele><time>2026-05-01T10:57:37Z</time></trkpt><trkpt lat="44.6756692004886" lon="8.725327960357705"><ele>294.0</ele><time>2026-05-01T10:57:38Z</time></trkpt><trkpt lat="44.675588034243084" lon="8.725521949807806"><ele>294.0</ele><time>2026-05-01T10:57:39Z</time></trkpt><trkpt lat="44.67551541421392" lon="8.72568223374184"><ele>294.0</ele><time>2026-05-01T10:57:40Z</time></trkpt><trkpt lat="44.67543262846441" lon="8.725828936900934"><ele>294.0</ele><time>2026-05-01T10:57:41Z</time></trkpt><trkpt lat="44.6752937627401" lon="8.725853286382653"><ele>294.0</ele><time>2026-05-01T10:57:42Z</time></trkpt><trkpt lat="44.67513754408151" lon="8.725864383956036"><ele>297.75</ele><time>2026-05-01T10:57:43Z</time></trkpt><trkpt lat="44.674973815560605" lon="8.725873135910312"><ele>301.5</ele><time>2026-05-01T10:57:44Z</time></trkpt><trkpt lat="44.674824863937886" lon="8.72589779413875"><ele>305.25</ele><time>2026-05-01T10:57:45Z</time></trkpt><trkpt lat="44.67469077292538" lon="8.725904443576326"><ele>309.0</ele><time>2026-05-01T10:57:46Z</time></trkpt><trkpt lat="44.674567092346" lon="8.72592591069211"><ele>309.0</ele><time>2026-05-01T10:57:47Z</time></trkpt><trkpt lat="44.674440808978176" lon="8.725975358928624"><ele>309.0</ele><time>2026-05-01T10:57:48Z</time></trkpt><trkpt lat="44.67432640463021" lon="8.72607387863084"><ele>309.0</ele><time>2026-05-01T10:57:49Z</time></trkpt><trkpt lat="44.67423410747561" lon="8.726257724222359"><ele>309.0</ele><time>2026-05-01T10:57:50Z</time></trkpt><trkpt lat="44.67415668150056" lon="8.726466617384814"><ele>310.6666666666667</ele><time>2026-05-01T10:57:51Z</time></trkpt><trkpt lat="44.674069173652185" lon="8.726671930937732"><ele>312.33333333333337</ele><time>2026-05-01T10:57:52Z</time></trkpt><trkpt lat="44.67397484203644" lon="8.726859801309066"><ele>314.0</ele><time>2026-05-01T10:57:53Z</time></trkpt><trkpt lat="44.67385155389155" lon="8.727036949574549"><ele>314.0</ele><time>2026-05-01T10:57:54Z</time></trkpt><trkpt lat="44.67370888533709" lon="8.727217391627422"><ele>314.0</ele><time>2026-05-01T10:57:55Z</time></trkpt><trkpt lat="44.67357003137384" lon="8.727399055328334"><ele>314.0</ele><time>2026-05-01T10:57:56Z</time></trkpt><trkpt lat="44.67342686710332" lon="8.72755729860582"><ele>314.0</ele><time>2026-05-01T10:57:57Z</time></trkpt><trkpt lat="44.67328689535789" lon="8.727710520181144"><ele>314.0</ele><time>2026-05-01T10:57:58Z</time></trkpt><trkpt lat="44.673140437608915" lon="8.727850338310308"><ele>314.0</ele><time>2026-05-01T10:57:59Z</time></trkpt><trkpt lat="44.672979239175476" lon="8.727959745709766"><ele>316.33333333333337</ele><time>2026-05-01T10:58:00Z</time></trkpt><trkpt lat="44.67280124174777" lon="8.72802357643656"><ele>318.6666666666667</ele><time>2026-05-01T10:58:01Z</time></trkpt><trkpt lat="44.67263338106509" lon="8.72808379046347"><ele>321.0</ele><time>2026-05-01T10:58:02Z</time></trkpt><trkpt lat="44.67247296995723" lon="8.728173135581404"><ele>321.3333333333333</ele><time>2026-05-01T10:58:03Z</time></trkpt><trkpt lat="44.67232473254602" lon="8.728291698959408"><ele>321.66666666666663</ele><time>2026-05-01T10:58:04Z</time></trkpt><trkpt lat="44.67219274147742" lon="8.728421092643433"><ele>322.0</ele><time>2026-05-01T10:58:05Z</time></trkpt><trkpt lat="44.67207034919889" lon="8.728549884090363"><ele>323.66666666666663</ele><time>2026-05-01T10:58:06Z</time></trkpt><trkpt lat="44.671946163962836" lon="8.728678081286011"><ele>325.3333333333333</ele><time>2026-05-01T10:58:06.999Z</time></trkpt><trkpt lat="44.67182253858447" lon="8.728806513952646"><ele>327.0</ele><time>2026-05-01T10:58:07.999Z</time></trkpt><trkpt lat="44.671677801056134" lon="8.728884429619105"><ele>327.0</ele><time>2026-05-01T10:58:08.999Z</time></trkpt><trkpt lat="44.67152472239216" lon="8.728939919541963"><ele>327.0</ele><time>2026-05-01T10:58:09.999Z</time></trkpt><trkpt lat="44.671385745324365" lon="8.729017837572396"><ele>327.0</ele><time>2026-05-01T10:58:10.999Z</time></trkpt><trkpt lat="44.671253497107486" lon="8.729073924558419"><ele>327.0</ele><time>2026-05-01T10:58:11.999Z</time></trkpt><trkpt lat="44.6711119898867" lon="8.729160633267565"><ele>326.0</ele><time>2026-05-01T10:58:12.999Z</time></trkpt><trkpt lat="44.67095623928565" lon="8.729306343286211"><ele>325.0</ele><time>2026-05-01T10:58:13.999Z</time></trkpt><trkpt lat="44.67076783924808" lon="8.729436566868989"><ele>324.0</ele><time>2026-05-01T10:58:14.999Z</time></trkpt><trkpt lat="44.67061656654068" lon="8.72957970742906"><ele>324.0</ele><time>2026-05-01T10:58:15.999Z</time></trkpt><trkpt lat="44.670471434575425" lon="8.729676696002242"><ele>324.0</ele><time>2026-05-01T10:58:16.999Z</time></trkpt><trkpt lat="44.67035896531126" lon="8.72977759507028"><ele>324.0</ele><time>2026-05-01T10:58:17.999Z</time></trkpt><trkpt lat="44.670266201785715" lon="8.729878979017247"><ele>324.0</ele><time>2026-05-01T10:58:18.999Z</time></trkpt><trkpt lat="44.6701954672967" lon="8.729967126750772"><ele>325.6</ele><time>2026-05-01T10:58:19.999Z</time></trkpt><trkpt lat="44.67013341382847" lon="8.730013126669503"><ele>327.2</ele><time>2026-05-01T10:58:20.999Z</time></trkpt><trkpt lat="44.670021691274066" lon="8.729974382731495"><ele>328.8</ele><time>2026-05-01T10:58:22.999Z</time></trkpt><trkpt lat="44.66996330202761" lon="8.729873423326032"><ele>330.40000000000003</ele><time>2026-05-01T10:58:23.999Z</time></trkpt><trkpt lat="44.66988369359102" lon="8.729782161884422"><ele>332.0</ele><time>2026-05-01T10:58:24.999Z</time></trkpt><trkpt lat="44.66982330459318" lon="8.729718451472856"><ele>332.0</ele><time>2026-05-01T10:58:25.999Z</time></trkpt><trkpt lat="44.669766102685784" lon="8.729658413064325"><ele>332.0</ele><time>2026-05-01T10:58:26.999Z</time></trkpt><trkpt lat="44.669683740007116" lon="8.729623371851698"><ele>332.0</ele><time>2026-05-01T10:58:27.999Z</time></trkpt><trkpt lat="44.66961148739363" lon="8.72961175062498"><ele>332.0</ele><time>2026-05-01T10:58:28.999Z</time></trkpt><trkpt lat="44.669542023612266" lon="8.729609079191095"><ele>332.0</ele><time>2026-05-01T10:58:29.999Z</time></trkpt><trkpt lat="44.669475316178044" lon="8.729560775480882"><ele>332.0</ele><time>2026-05-01T10:58:30.999Z</time></trkpt><trkpt lat="44.66939467126989" lon="8.729540178006"><ele>330.57142857142856</ele><time>2026-05-01T10:58:31.999Z</time></trkpt><trkpt lat="44.669324204833934" lon="8.729535349953641"><ele>329.14285714285717</ele><time>2026-05-01T10:58:32.999Z</time></trkpt><trkpt lat="44.66924382492728" lon="8.729560370520643"><ele>327.7142857142857</ele><time>2026-05-01T10:58:33.999Z</time></trkpt><trkpt lat="44.66916478082748" lon="8.729571190724126"><ele>326.2857142857143</ele><time>2026-05-01T10:58:34.999Z</time></trkpt><trkpt lat="44.66909805547689" lon="8.729593863600009"><ele>324.8571428571429</ele><time>2026-05-01T10:58:35.999Z</time></trkpt><trkpt lat="44.669028458725364" lon="8.7295929962446"><ele>323.42857142857144</ele><time>2026-05-01T10:58:36.999Z</time></trkpt><trkpt lat="44.66896072349181" lon="8.729612745510734"><ele>322.0</ele><time>2026-05-01T10:58:37.999Z</time></trkpt><trkpt lat="44.66888475411879" lon="8.729654711277032"><ele>322.0</ele><time>2026-05-01T10:58:38.999Z</time></trkpt><trkpt lat="44.66882010059846" lon="8.729674794360523"><ele>322.0</ele><time>2026-05-01T10:58:39.999Z</time></trkpt><trkpt lat="44.66875199829171" lon="8.729692717197464"><ele>322.0</ele><time>2026-05-01T10:58:40.999Z</time></trkpt><trkpt lat="44.668686486687015" lon="8.72972161360676"><ele>322.0</ele><time>2026-05-01T10:58:41.999Z</time></trkpt><trkpt lat="44.668615843992" lon="8.729722451392362"><ele>322.0</ele><time>2026-05-01T10:58:42.999Z</time></trkpt><trkpt lat="44.66853911092367" lon="8.729751274229358"><ele>322.0</ele><time>2026-05-01T10:58:44.999Z</time></trkpt><trkpt lat="44.66844272106007" lon="8.72973404875407"><ele>321.5</ele><time>2026-05-01T10:58:47.999Z</time></trkpt><trkpt lat="44.6683291984327" lon="8.729679861057056"><ele>321.0</ele><time>2026-05-01T10:58:49.999Z</time></trkpt><trkpt lat="44.66824006180687" lon="8.72964035445082"><ele>320.5</ele><time>2026-05-01T10:58:50.999Z</time></trkpt><trkpt lat="44.668130754370026" lon="8.729501055638156"><ele>320.0</ele><time>2026-05-01T10:58:51.999Z</time></trkpt><trkpt lat="44.66808654056098" lon="8.729693189423875"><ele>320.0</ele><time>2026-05-01T10:58:52.999Z</time></trkpt><trkpt lat="44.66800186810409" lon="8.729719930608194"><ele>320.0</ele><time>2026-05-01T10:58:54Z</time></trkpt><trkpt lat="44.66792008135318" lon="8.729760838576984"><ele>320.0</ele><time>2026-05-01T10:58:55Z</time></trkpt><trkpt lat="44.66783866366947" lon="8.729814592863343"><ele>320.0</ele><time>2026-05-01T10:58:56Z</time></trkpt><trkpt lat="44.66777234217322" lon="8.729865923885168"><ele>320.0</ele><time>2026-05-01T10:58:57Z</time></trkpt><trkpt lat="44.66770309555308" lon="8.7298830258664"><ele>320.0</ele><time>2026-05-01T10:58:58Z</time></trkpt><trkpt lat="44.66762982017922" lon="8.729858585631645"><ele>318.5</ele><time>2026-05-01T10:58:59Z</time></trkpt><trkpt lat="44.66750957328557" lon="8.729898418317953"><ele>317.0</ele><time>2026-05-01T10:59:01Z</time></trkpt><trkpt lat="44.667449717665974" lon="8.729957047534441"><ele>315.5</ele><time>2026-05-01T10:59:02Z</time></trkpt><trkpt lat="44.667387070815195" lon="8.730029649838325"><ele>314.0</ele><time>2026-05-01T10:59:03Z</time></trkpt><trkpt lat="44.66732581258491" lon="8.730110802187575"><ele>312.5</ele><time>2026-05-01T10:59:04Z</time></trkpt><trkpt lat="44.667263647952595" lon="8.730183535909982"><ele>311.0</ele><time>2026-05-01T10:59:05Z</time></trkpt><trkpt lat="44.667192267869396" lon="8.73023595630528"><ele>310.33333333333337</ele><time>2026-05-01T10:59:06Z</time></trkpt><trkpt lat="44.667120340203816" lon="8.730289286550306"><ele>309.6666666666667</ele><time>2026-05-01T10:59:07Z</time></trkpt><trkpt lat="44.66703504208279" lon="8.730301903761745"><ele>309.0</ele><time>2026-05-01T10:59:08Z</time></trkpt><trkpt lat="44.666957384903085" lon="8.730323846897194"><ele>308.3333333333333</ele><time>2026-05-01T10:59:09Z</time></trkpt><trkpt lat="44.66687656312884" lon="8.730353115534301"><ele>307.66666666666663</ele><time>2026-05-01T10:59:10Z</time></trkpt><trkpt lat="44.666791934749966" lon="8.730362376302185"><ele>307.0</ele><time>2026-05-01T10:59:11Z</time></trkpt><trkpt lat="44.66670573846157" lon="8.730375325365802"><ele>307.0</ele><time>2026-05-01T10:59:12Z</time></trkpt><trkpt lat="44.66661835267092" lon="8.730390828009247"><ele>307.0</ele><time>2026-05-01T10:59:13Z</time></trkpt><trkpt lat="44.666533210502" lon="8.73041426296128"><ele>307.0</ele><time>2026-05-01T10:59:14Z</time></trkpt><trkpt lat="44.666455300893965" lon="8.730435301475564"><ele>307.0</ele><time>2026-05-01T10:59:15Z</time></trkpt><trkpt lat="44.66638118168359" lon="8.730473836817012"><ele>307.0</ele><time>2026-05-01T10:59:16Z</time></trkpt><trkpt lat="44.66630445244921" lon="8.730536710299255"><ele>307.0</ele><time>2026-05-01T10:59:17Z</time></trkpt><trkpt lat="44.666219312005644" lon="8.730619943465921"><ele>307.0</ele><time>2026-05-01T10:59:18Z</time></trkpt><trkpt lat="44.666125293652655" lon="8.730718772251544"><ele>307.0</ele><time>2026-05-01T10:59:19Z</time></trkpt><trkpt lat="44.666025031461814" lon="8.73081521993179"><ele>307.0</ele><time>2026-05-01T10:59:20Z</time></trkpt><trkpt lat="44.665922856615786" lon="8.730900760934402"><ele>307.0</ele><time>2026-05-01T10:59:21Z</time></trkpt><trkpt lat="44.66581416754812" lon="8.730978532038236"><ele>306.25</ele><time>2026-05-01T10:59:22Z</time></trkpt><trkpt lat="44.66570477433444" lon="8.731048286627095"><ele>305.5</ele><time>2026-05-01T10:59:23Z</time></trkpt><trkpt lat="44.665596079263196" lon="8.731106729875803"><ele>304.75</ele><time>2026-05-01T10:59:24Z</time></trkpt><trkpt lat="44.66548468269351" lon="8.731158102413165"><ele>304.0</ele><time>2026-05-01T10:59:25Z</time></trkpt><trkpt lat="44.66537274864774" lon="8.731200029660897"><ele>301.59999999999997</ele><time>2026-05-01T10:59:26Z</time></trkpt><trkpt lat="44.66526277251308" lon="8.73122258143239"><ele>299.2</ele><time>2026-05-01T10:59:27Z</time></trkpt><trkpt lat="44.66515284460533" lon="8.731236782791825"><ele>296.79999999999995</ele><time>2026-05-01T10:59:28Z</time></trkpt><trkpt lat="44.66504732691986" lon="8.731237241889415"><ele>294.4</ele><time>2026-05-01T10:59:29Z</time></trkpt><trkpt lat="44.66494198879634" lon="8.73123629201203"><ele>292.0</ele><time>2026-05-01T10:59:30Z</time></trkpt><trkpt lat="44.66483240191128" lon="8.731245655615728"><ele>292.0</ele><time>2026-05-01T10:59:31Z</time></trkpt><trkpt lat="44.66472082401762" lon="8.73126252451058"><ele>292.0</ele><time>2026-05-01T10:59:32Z</time></trkpt><trkpt lat="44.66460213100377" lon="8.731273584271516"><ele>292.0</ele><time>2026-05-01T10:59:33Z</time></trkpt><trkpt lat="44.66449262897858" lon="8.731288628422233"><ele>292.0</ele><time>2026-05-01T10:59:34Z</time></trkpt><trkpt lat="44.66438102418348" lon="8.731320598779774"><ele>294.0</ele><time>2026-05-01T10:59:35Z</time></trkpt><trkpt lat="44.66426314502622" lon="8.731381085509009"><ele>296.0</ele><time>2026-05-01T10:59:36Z</time></trkpt><trkpt lat="44.66414219970624" lon="8.731472438679699"><ele>298.0</ele><time>2026-05-01T10:59:37Z</time></trkpt><trkpt lat="44.66404084354242" lon="8.731630973644249"><ele>300.0</ele><time>2026-05-01T10:59:38Z</time></trkpt><trkpt lat="44.663954978194404" lon="8.731835651904632"><ele>297.5</ele><time>2026-05-01T10:59:39Z</time></trkpt><trkpt lat="44.66387876654877" lon="8.732022453372558"><ele>295.0</ele><time>2026-05-01T10:59:40Z</time></trkpt><trkpt lat="44.663812433335245" lon="8.732180822280778"><ele>292.5</ele><time>2026-05-01T10:59:41Z</time></trkpt><trkpt lat="44.663751722124175" lon="8.7323379317116"><ele>290.0</ele><time>2026-05-01T10:59:42Z</time></trkpt><trkpt lat="44.66368014529884" lon="8.732472610190447"><ele>292.0</ele><time>2026-05-01T10:59:43Z</time></trkpt><trkpt lat="44.663609200167315" lon="8.732608528667726"><ele>294.0</ele><time>2026-05-01T10:59:44Z</time></trkpt><trkpt lat="44.66353238444047" lon="8.732749429391001"><ele>296.0</ele><time>2026-05-01T10:59:45Z</time></trkpt><trkpt lat="44.66345719878797" lon="8.732901758821116"><ele>298.0</ele><time>2026-05-01T10:59:46Z</time></trkpt><trkpt lat="44.66335817222408" lon="8.733037801120647"><ele>298.25</ele><time>2026-05-01T10:59:47Z</time></trkpt><trkpt lat="44.66325761471805" lon="8.733165527970895"><ele>298.5</ele><time>2026-05-01T10:59:48Z</time></trkpt><trkpt lat="44.6631593267551" lon="8.733299806933866"><ele>298.75</ele><time>2026-05-01T10:59:49Z</time></trkpt><trkpt lat="44.66305953140215" lon="8.73343258630343"><ele>299.0</ele><time>2026-05-01T10:59:50Z</time></trkpt><trkpt lat="44.66296071860057" lon="8.733568780784235"><ele>299.0</ele><time>2026-05-01T10:59:51Z</time></trkpt><trkpt lat="44.66286107194044" lon="8.733710208029752"><ele>299.0</ele><time>2026-05-01T10:59:52Z</time></trkpt><trkpt lat="44.66275769121072" lon="8.733854595035005"><ele>299.0</ele><time>2026-05-01T10:59:53Z</time></trkpt><trkpt lat="44.662654490155134" lon="8.734001718250289"><ele>299.0</ele><time>2026-05-01T10:59:54Z</time></trkpt><trkpt lat="44.66255306444239" lon="8.734151722402414"><ele>299.0</ele><time>2026-05-01T10:59:55Z</time></trkpt><trkpt lat="44.66244817145291" lon="8.73430175283053"><ele>299.0</ele><time>2026-05-01T10:59:56Z</time></trkpt><trkpt lat="44.662340193438745" lon="8.734456184096901"><ele>299.0</ele><time>2026-05-01T10:59:57Z</time></trkpt><trkpt lat="44.66222264964149" lon="8.73459609652952"><ele>301.25</ele><time>2026-05-01T10:59:58Z</time></trkpt><trkpt lat="44.66209850699398" lon="8.734718385958972"><ele>303.5</ele><time>2026-05-01T10:59:59Z</time></trkpt><trkpt lat="44.66197795989764" lon="8.734824677224685"><ele>305.75</ele><time>2026-05-01T11:00:00Z</time></trkpt><trkpt lat="44.66185673207905" lon="8.73494202918276"><ele>308.0</ele><time>2026-05-01T11:00:01Z</time></trkpt><trkpt lat="44.66174694682657" lon="8.735090997954519"><ele>305.33333333333337</ele><time>2026-05-01T11:00:02Z</time></trkpt><trkpt lat="44.66164460197092" lon="8.735273612423514"><ele>302.6666666666667</ele><time>2026-05-01T11:00:03Z</time></trkpt><trkpt lat="44.661550522908605" lon="8.735473131739548"><ele>300.0</ele><time>2026-05-01T11:00:04Z</time></trkpt><trkpt lat="44.661467736372074" lon="8.735690748424206"><ele>300.0</ele><time>2026-05-01T11:00:05Z</time></trkpt><trkpt lat="44.661389746358324" lon="8.735905249289114"><ele>300.0</ele><time>2026-05-01T11:00:06Z</time></trkpt><trkpt lat="44.661310846387295" lon="8.736122738427705"><ele>300.0</ele><time>2026-05-01T11:00:07Z</time></trkpt><trkpt lat="44.66121906347712" lon="8.736334025382321"><ele>300.3333333333333</ele><time>2026-05-01T11:00:08Z</time></trkpt><trkpt lat="44.66111764746091" lon="8.73653981364077"><ele>300.66666666666663</ele><time>2026-05-01T11:00:09Z</time></trkpt><trkpt lat="44.66100512953882" lon="8.736730963678477"><ele>301.0</ele><time>2026-05-01T11:00:10Z</time></trkpt><trkpt lat="44.66088285788801" lon="8.73691087981303"><ele>303.66666666666663</ele><time>2026-05-01T11:00:11Z</time></trkpt><trkpt lat="44.66076307486573" lon="8.737064328765193"><ele>306.3333333333333</ele><time>2026-05-01T11:00:12Z</time></trkpt><trkpt lat="44.66063865425705" lon="8.73719695165455"><ele>309.0</ele><time>2026-05-01T11:00:13Z</time></trkpt><trkpt lat="44.66050890375276" lon="8.737309852153375"><ele>309.0</ele><time>2026-05-01T11:00:14Z</time></trkpt><trkpt lat="44.66037900895504" lon="8.737399528124309"><ele>309.0</ele><time>2026-05-01T11:00:15Z</time></trkpt><trkpt lat="44.66024595299452" lon="8.73748099535844"><ele>309.0</ele><time>2026-05-01T11:00:16Z</time></trkpt><trkpt lat="44.660115487347" lon="8.737539407445407"><ele>309.0</ele><time>2026-05-01T11:00:17Z</time></trkpt><trkpt lat="44.6599919884463" lon="8.737582011588295"><ele>308.5</ele><time>2026-05-01T11:00:18Z</time></trkpt><trkpt lat="44.65987568514609" lon="8.737616696120135"><ele>308.0</ele><time>2026-05-01T11:00:19Z</time></trkpt><trkpt lat="44.659757917791765" lon="8.737654980003668"><ele>307.5</ele><time>2026-05-01T11:00:20Z</time></trkpt><trkpt lat="44.659632266867995" lon="8.737713046866752"><ele>307.0</ele><time>2026-05-01T11:00:21Z</time></trkpt><trkpt lat="44.65949959269641" lon="8.737793732107507"><ele>306.66666666666663</ele><time>2026-05-01T11:00:22Z</time></trkpt><trkpt lat="44.65936752580724" lon="8.737893777391186"><ele>306.3333333333333</ele><time>2026-05-01T11:00:23Z</time></trkpt><trkpt lat="44.65923195052226" lon="8.738007979978391"><ele>306.0</ele><time>2026-05-01T11:00:23.999Z</time></trkpt><trkpt lat="44.65910106038083" lon="8.73810347951911"><ele>306.0</ele><time>2026-05-01T11:00:24.999Z</time></trkpt><trkpt lat="44.658956026862064" lon="8.738176281626357"><ele>306.0</ele><time>2026-05-01T11:00:25.999Z</time></trkpt><trkpt lat="44.65879235992482" lon="8.738207534881616"><ele>306.0</ele><time>2026-05-01T11:00:26.999Z</time></trkpt><trkpt lat="44.65865445755247" lon="8.73825878367638"><ele>306.25</ele><time>2026-05-01T11:00:27.999Z</time></trkpt><trkpt lat="44.658529365681346" lon="8.73830627756994"><ele>306.5</ele><time>2026-05-01T11:00:28.999Z</time></trkpt><trkpt lat="44.65841777271477" lon="8.738375845307266"><ele>306.75</ele><time>2026-05-01T11:00:29.999Z</time></trkpt><trkpt lat="44.65830042677656" lon="8.738495304670074"><ele>307.0</ele><time>2026-05-01T11:00:30.999Z</time></trkpt><trkpt lat="44.658181909568135" lon="8.738666983318012"><ele>307.0</ele><time>2026-05-01T11:00:31.999Z</time></trkpt><trkpt lat="44.658069115529266" lon="8.738813987190248"><ele>307.0</ele><time>2026-05-01T11:00:32.999Z</time></trkpt><trkpt lat="44.6579559945188" lon="8.738931627584792"><ele>307.0</ele><time>2026-05-01T11:00:33.999Z</time></trkpt><trkpt lat="44.657839370504625" lon="8.739027476540219"><ele>307.0</ele><time>2026-05-01T11:00:34.999Z</time></trkpt><trkpt lat="44.65772479198956" lon="8.739097963687758"><ele>306.8</ele><time>2026-05-01T11:00:35.999Z</time></trkpt><trkpt lat="44.65761234773556" lon="8.739145240161667"><ele>306.6</ele><time>2026-05-01T11:00:36.999Z</time></trkpt><trkpt lat="44.657504025866515" lon="8.739182298663815"><ele>306.40000000000003</ele><time>2026-05-01T11:00:37.999Z</time></trkpt><trkpt lat="44.657403911213265" lon="8.739233827420978"><ele>306.2</ele><time>2026-05-01T11:00:38.999Z</time></trkpt><trkpt lat="44.65733199472335" lon="8.739352868087806"><ele>306.0</ele><time>2026-05-01T11:00:39.999Z</time></trkpt><trkpt lat="44.65730607510882" lon="8.73955030506056"><ele>306.0</ele><time>2026-05-01T11:00:40.999Z</time></trkpt><trkpt lat="44.65729730620172" lon="8.739794965501323"><ele>306.0</ele><time>2026-05-01T11:00:41.999Z</time></trkpt><trkpt lat="44.65723652884883" lon="8.74000650515654"><ele>306.0</ele><time>2026-05-01T11:00:42.999Z</time></trkpt><trkpt lat="44.65716623245004" lon="8.740215017950039"><ele>306.6666666666667</ele><time>2026-05-01T11:00:43.999Z</time></trkpt><trkpt lat="44.6570882399558" lon="8.740429646839056"><ele>307.33333333333337</ele><time>2026-05-01T11:00:44.999Z</time></trkpt><trkpt lat="44.65698484272532" lon="8.740633848623393"><ele>308.0</ele><time>2026-05-01T11:00:45.999Z</time></trkpt><trkpt lat="44.65685456111355" lon="8.740832191388662"><ele>308.0</ele><time>2026-05-01T11:00:46.999Z</time></trkpt><trkpt lat="44.65671955889082" lon="8.741004128993664"><ele>308.0</ele><time>2026-05-01T11:00:47.999Z</time></trkpt><trkpt lat="44.656571711748484" lon="8.741129133560424"><ele>308.0</ele><time>2026-05-01T11:00:48.999Z</time></trkpt><trkpt lat="44.65643603986054" lon="8.741261844069061"><ele>308.33333333333337</ele><time>2026-05-01T11:00:49.999Z</time></trkpt><trkpt lat="44.656283919900275" lon="8.741352793388316"><ele>308.6666666666667</ele><time>2026-05-01T11:00:50.999Z</time></trkpt><trkpt lat="44.65612669239109" lon="8.741442545062569"><ele>309.0</ele><time>2026-05-01T11:00:51.999Z</time></trkpt><trkpt lat="44.65597218519786" lon="8.741543399467842"><ele>310.3333333333333</ele><time>2026-05-01T11:00:52.999Z</time></trkpt><trkpt lat="44.65582033317319" lon="8.741642963964027"><ele>311.66666666666663</ele><time>2026-05-01T11:00:53.999Z</time></trkpt><trkpt lat="44.655670669249936" lon="8.741742997486746"><ele>313.0</ele><time>2026-05-01T11:00:54.999Z</time></trkpt><trkpt lat="44.65553544653266" lon="8.74185068485468"><ele>314.0</ele><time>2026-05-01T11:00:55.999Z</time></trkpt><trkpt lat="44.655417053802466" lon="8.741961724716417"><ele>315.0</ele><time>2026-05-01T11:00:56.999Z</time></trkpt><trkpt lat="44.65529772905305" lon="8.742079195067038"><ele>316.0</ele><time>2026-05-01T11:00:57.999Z</time></trkpt><trkpt lat="44.65516817876005" lon="8.742187837353043"><ele>317.0</ele><time>2026-05-01T11:00:58.999Z</time></trkpt><trkpt lat="44.655029323124545" lon="8.742279474211479"><ele>317.0</ele><time>2026-05-01T11:01:00Z</time></trkpt><trkpt lat="44.654895564329124" lon="8.74238384096577"><ele>317.0</ele><time>2026-05-01T11:01:01Z</time></trkpt><trkpt lat="44.65478376406513" lon="8.742529261789748"><ele>317.0</ele><time>2026-05-01T11:01:02Z</time></trkpt><trkpt lat="44.65471498912552" lon="8.742722479609315"><ele>315.25</ele><time>2026-05-01T11:01:03Z</time></trkpt><trkpt lat="44.65467047734987" lon="8.742932655792824"><ele>313.5</ele><time>2026-05-01T11:01:04Z</time></trkpt><trkpt lat="44.654614657326114" lon="8.743115703329181"><ele>311.75</ele><time>2026-05-01T11:01:05Z</time></trkpt><trkpt lat="44.654566277327554" lon="8.743283865971572"><ele>310.0</ele><time>2026-05-01T11:01:06Z</time></trkpt><trkpt lat="44.654531371758786" lon="8.743448182994694"><ele>312.25</ele><time>2026-05-01T11:01:07Z</time></trkpt><trkpt lat="44.65446398918223" lon="8.74358518969683"><ele>314.5</ele><time>2026-05-01T11:01:08Z</time></trkpt><trkpt lat="44.654368768391855" lon="8.743685831546358"><ele>316.75</ele><time>2026-05-01T11:01:09Z</time></trkpt><trkpt lat="44.65423577456504" lon="8.743693009045083"><ele>319.0</ele><time>2026-05-01T11:01:10Z</time></trkpt><trkpt lat="44.65408266523977" lon="8.743718451271016"><ele>319.0</ele><time>2026-05-01T11:01:11Z</time></trkpt><trkpt lat="44.65392142079045" lon="8.74373524104511"><ele>319.0</ele><time>2026-05-01T11:01:12Z</time></trkpt><trkpt lat="44.65375207743617" lon="8.743853387875113"><ele>319.0</ele><time>2026-05-01T11:01:13Z</time></trkpt><trkpt lat="44.65361193080431" lon="8.744033433333612"><ele>320.0</ele><time>2026-05-01T11:01:14Z</time></trkpt><trkpt lat="44.65348556087333" lon="8.744226306020487"><ele>321.0</ele><time>2026-05-01T11:01:15Z</time></trkpt><trkpt lat="44.65337968465387" lon="8.74442851046604"><ele>322.0</ele><time>2026-05-01T11:01:16Z</time></trkpt><trkpt lat="44.653305407892454" lon="8.744675640715165"><ele>322.0</ele><time>2026-05-01T11:01:17Z</time></trkpt><trkpt lat="44.65325566299886" lon="8.744965215327259"><ele>322.0</ele><time>2026-05-01T11:01:18Z</time></trkpt><trkpt lat="44.65318745308831" lon="8.745249892299505"><ele>322.0</ele><time>2026-05-01T11:01:19Z</time></trkpt><trkpt lat="44.65312442031751" lon="8.745515161121661"><ele>321.3333333333333</ele><time>2026-05-01T11:01:20Z</time></trkpt><trkpt lat="44.65304086626976" lon="8.74574071737689"><ele>320.6666666666667</ele><time>2026-05-01T11:01:21Z</time></trkpt><trkpt lat="44.65293645790794" lon="8.745927777854437"><ele>320.0</ele><time>2026-05-01T11:01:22Z</time></trkpt><trkpt lat="44.652828576273265" lon="8.746090055042037"><ele>323.0</ele><time>2026-05-01T11:01:23Z</time></trkpt><trkpt lat="44.65273085877507" lon="8.746241308384937"><ele>326.0</ele><time>2026-05-01T11:01:24Z</time></trkpt><trkpt lat="44.65263081331996" lon="8.746390889700093"><ele>329.0</ele><time>2026-05-01T11:01:25Z</time></trkpt><trkpt lat="44.65254664569558" lon="8.746554404934864"><ele>332.0</ele><time>2026-05-01T11:01:26Z</time></trkpt><trkpt lat="44.65248425863953" lon="8.746733413893368"><ele>332.8</ele><time>2026-05-01T11:01:27Z</time></trkpt><trkpt lat="44.65245639214853" lon="8.746902863609645"><ele>333.6</ele><time>2026-05-01T11:01:28Z</time></trkpt><trkpt lat="44.65243981453868" lon="8.747053446540844"><ele>334.40000000000003</ele><time>2026-05-01T11:01:29Z</time></trkpt><trkpt lat="44.65239137091825" lon="8.747172039967358"><ele>335.20000000000005</ele><time>2026-05-01T11:01:30Z</time></trkpt><trkpt lat="44.65234157855193" lon="8.747299564613149"><ele>336.0</ele><time>2026-05-01T11:01:31Z</time></trkpt><trkpt lat="44.6522577177585" lon="8.747417554089465"><ele>336.0</ele><time>2026-05-01T11:01:32Z</time></trkpt><trkpt lat="44.65217669744414" lon="8.747560293622938"><ele>336.0</ele><time>2026-05-01T11:01:33Z</time></trkpt><trkpt lat="44.6521027995742" lon="8.747730710866715"><ele>336.0</ele><time>2026-05-01T11:01:34Z</time></trkpt><trkpt lat="44.652062594472184" lon="8.7479679307214"><ele>336.0</ele><time>2026-05-01T11:01:35Z</time></trkpt><trkpt lat="44.65203052912553" lon="8.748198303467168"><ele>337.25</ele><time>2026-05-01T11:01:36Z</time></trkpt><trkpt lat="44.65197664981045" lon="8.74840117643943"><ele>338.5</ele><time>2026-05-01T11:01:37Z</time></trkpt><trkpt lat="44.65191504594375" lon="8.748588190991672"><ele>339.75</ele><time>2026-05-01T11:01:38Z</time></trkpt><trkpt lat="44.651850361151496" lon="8.74875437212996"><ele>341.0</ele><time>2026-05-01T11:01:39Z</time></trkpt><trkpt lat="44.65175917599878" lon="8.748867159996271"><ele>341.0</ele><time>2026-05-01T11:01:40Z</time></trkpt><trkpt lat="44.651634061513896" lon="8.748893552868564"><ele>341.0</ele><time>2026-05-01T11:01:41Z</time></trkpt><trkpt lat="44.65148762235597" lon="8.748867026941653"><ele>341.0</ele><time>2026-05-01T11:01:42Z</time></trkpt><trkpt lat="44.65135269363362" lon="8.748822962571753"><ele>341.0</ele><time>2026-05-01T11:01:43Z</time></trkpt><trkpt lat="44.65121368417501" lon="8.748839108604551"><ele>338.25</ele><time>2026-05-01T11:01:44Z</time></trkpt><trkpt lat="44.651082833037655" lon="8.748887087935124"><ele>335.5</ele><time>2026-05-01T11:01:45Z</time></trkpt><trkpt lat="44.65096343933588" lon="8.748943051833805"><ele>332.75</ele><time>2026-05-01T11:01:46Z</time></trkpt><trkpt lat="44.65084549214094" lon="8.749050873152152"><ele>330.0</ele><time>2026-05-01T11:01:47Z</time></trkpt><trkpt lat="44.650732587741295" lon="8.74920162848841"><ele>330.0</ele><time>2026-05-01T11:01:48Z</time></trkpt><trkpt lat="44.65059590953442" lon="8.749320299953123"><ele>330.0</ele><time>2026-05-01T11:01:49Z</time></trkpt><trkpt lat="44.65043574667204" lon="8.749359976693592"><ele>330.0</ele><time>2026-05-01T11:01:50Z</time></trkpt><trkpt lat="44.65028004460289" lon="8.749372996527605"><ele>332.6666666666667</ele><time>2026-05-01T11:01:51Z</time></trkpt><trkpt lat="44.65013614077772" lon="8.749390989644853"><ele>335.33333333333337</ele><time>2026-05-01T11:01:52Z</time></trkpt><trkpt lat="44.64998587196429" lon="8.749437330909004"><ele>338.0</ele><time>2026-05-01T11:01:53Z</time></trkpt><trkpt lat="44.64982073954553" lon="8.749550286003405"><ele>338.0</ele><time>2026-05-01T11:01:54Z</time></trkpt><trkpt lat="44.64965088877407" lon="8.74970022117448"><ele>338.0</ele><time>2026-05-01T11:01:55Z</time></trkpt><trkpt lat="44.64947808461915" lon="8.749851066114006"><ele>338.0</ele><time>2026-05-01T11:01:56Z</time></trkpt><trkpt lat="44.64931475282794" lon="8.75000702590126"><ele>334.6666666666667</ele><time>2026-05-01T11:01:57Z</time></trkpt><trkpt lat="44.649182964694994" lon="8.75016938740582"><ele>331.3333333333333</ele><time>2026-05-01T11:01:58Z</time></trkpt><trkpt lat="44.64905550302419" lon="8.750311465001465"><ele>328.0</ele><time>2026-05-01T11:01:59Z</time></trkpt><trkpt lat="44.6489216112799" lon="8.750438572960993"><ele>328.0</ele><time>2026-05-01T11:02:00Z</time></trkpt><trkpt lat="44.648686306069344" lon="8.750524223396944"><ele>328.0</ele><time>2026-05-01T11:02:01Z</time></trkpt><trkpt lat="44.648516947562506" lon="8.750560283255501"><ele>328.0</ele><time>2026-05-01T11:02:02Z</time></trkpt><trkpt lat="44.648346885602905" lon="8.750570628184432"><ele>328.0</ele><time>2026-05-01T11:02:03Z</time></trkpt><trkpt lat="44.648172185487724" lon="8.75058938037674"><ele>328.0</ele><time>2026-05-01T11:02:04Z</time></trkpt><trkpt lat="44.647992338727825" lon="8.750601054194954"><ele>328.0</ele><time>2026-05-01T11:02:05Z</time></trkpt><trkpt lat="44.64780515959479" lon="8.750614174284687"><ele>332.0</ele><time>2026-05-01T11:02:06Z</time></trkpt><trkpt lat="44.6476194981883" lon="8.750641784582607"><ele>336.0</ele><time>2026-05-01T11:02:07Z</time></trkpt><trkpt lat="44.64743815375171" lon="8.750638237911492"><ele>340.0</ele><time>2026-05-01T11:02:08Z</time></trkpt><trkpt lat="44.647269470262735" lon="8.750650060660154"><ele>340.0</ele><time>2026-05-01T11:02:09Z</time></trkpt><trkpt lat="44.64711990127697" lon="8.750647582916155"><ele>340.0</ele><time>2026-05-01T11:02:10Z</time></trkpt><trkpt lat="44.646958420967316" lon="8.7507114151225"><ele>340.0</ele><time>2026-05-01T11:02:11Z</time></trkpt><trkpt lat="44.646797714347116" lon="8.750804164909228"><ele>339.0</ele><time>2026-05-01T11:02:12Z</time></trkpt><trkpt lat="44.646630647508935" lon="8.750868109210039"><ele>338.0</ele><time>2026-05-01T11:02:13Z</time></trkpt><trkpt lat="44.64645873040984" lon="8.750874975140471"><ele>337.0</ele><time>2026-05-01T11:02:14Z</time></trkpt><trkpt lat="44.646329852069776" lon="8.75082201346899"><ele>337.0</ele><time>2026-05-01T11:02:15Z</time></trkpt><trkpt lat="44.646255340389494" lon="8.750746804300514"><ele>337.0</ele><time>2026-05-01T11:02:16Z</time></trkpt><trkpt lat="44.64621043677675" lon="8.750646102041326"><ele>337.0</ele><time>2026-05-01T11:02:17Z</time></trkpt><trkpt lat="44.64623376564187" lon="8.750480916565047"><ele>337.0</ele><time>2026-05-01T11:02:18Z</time></trkpt><trkpt lat="44.64619323769135" lon="8.750328833777651"><ele>337.0</ele><time>2026-05-01T11:02:19Z</time></trkpt><trkpt lat="44.64614221946427" lon="8.750168422395005"><ele>339.25</ele><time>2026-05-01T11:02:20Z</time></trkpt><trkpt lat="44.646082796182476" lon="8.750026798739787"><ele>341.5</ele><time>2026-05-01T11:02:21Z</time></trkpt><trkpt lat="44.64600850049966" lon="8.749885423062564"><ele>343.75</ele><time>2026-05-01T11:02:22Z</time></trkpt><trkpt lat="44.64588189261111" lon="8.749789719086095"><ele>346.0</ele><time>2026-05-01T11:02:23Z</time></trkpt><trkpt lat="44.64574494212569" lon="8.74974721103663"><ele>346.0</ele><time>2026-05-01T11:02:24Z</time></trkpt><trkpt lat="44.64559004697729" lon="8.749765275699197"><ele>346.0</ele><time>2026-05-01T11:02:25Z</time></trkpt><trkpt lat="44.64542681407583" lon="8.749802496482944"><ele>346.0</ele><time>2026-05-01T11:02:26Z</time></trkpt><trkpt lat="44.64526170301284" lon="8.749832784370819"><ele>347.3333333333333</ele><time>2026-05-01T11:02:27Z</time></trkpt><trkpt lat="44.64508809004958" lon="8.749853656453409"><ele>348.6666666666667</ele><time>2026-05-01T11:02:28Z</time></trkpt><trkpt lat="44.644927610606246" lon="8.749876503492773"><ele>350.0</ele><time>2026-05-01T11:02:29Z</time></trkpt><trkpt lat="44.644766027161005" lon="8.74989146753036"><ele>350.0</ele><time>2026-05-01T11:02:30Z</time></trkpt><trkpt lat="44.64460718440057" lon="8.749899143296275"><ele>350.0</ele><time>2026-05-01T11:02:31Z</time></trkpt><trkpt lat="44.64444518253847" lon="8.749892958691872"><ele>350.0</ele><time>2026-05-01T11:02:32Z</time></trkpt><trkpt lat="44.644276318315484" lon="8.749863004151864"><ele>348.0</ele><time>2026-05-01T11:02:33Z</time></trkpt><trkpt lat="44.64410118938523" lon="8.749807944056991"><ele>346.0</ele><time>2026-05-01T11:02:34Z</time></trkpt><trkpt lat="44.64393050631938" lon="8.749736948145227"><ele>344.0</ele><time>2026-05-01T11:02:34.999Z</time></trkpt><trkpt lat="44.643763423327044" lon="8.749656985387302"><ele>343.33333333333337</ele><time>2026-05-01T11:02:35.999Z</time></trkpt><trkpt lat="44.64360326713412" lon="8.749553926057963"><ele>342.6666666666667</ele><time>2026-05-01T11:02:36.999Z</time></trkpt><trkpt lat="44.64344209855001" lon="8.7494286559101"><ele>342.0</ele><time>2026-05-01T11:02:37.999Z</time></trkpt><trkpt lat="44.64326788647294" lon="8.749279629584946"><ele>339.5</ele><time>2026-05-01T11:02:38.999Z</time></trkpt><trkpt lat="44.64306920737299" lon="8.749118479775953"><ele>337.0</ele><time>2026-05-01T11:02:39.999Z</time></trkpt><trkpt lat="44.64283649261104" lon="8.748998914866112"><ele>334.5</ele><time>2026-05-01T11:02:40.999Z</time></trkpt><trkpt lat="44.64256862470292" lon="8.74894261788105"><ele>332.0</ele><time>2026-05-01T11:02:41.999Z</time></trkpt><trkpt lat="44.64229748424905" lon="8.748925351548113"><ele>332.0</ele><time>2026-05-01T11:02:42.999Z</time></trkpt><trkpt lat="44.642036880525" lon="8.748883319180898"><ele>332.0</ele><time>2026-05-01T11:02:43.999Z</time></trkpt><trkpt lat="44.641786379008586" lon="8.748828066124949"><ele>330.5</ele><time>2026-05-01T11:02:44.999Z</time></trkpt><trkpt lat="44.641534304891955" lon="8.748778701384976"><ele>329.0</ele><time>2026-05-01T11:02:45.999Z</time></trkpt><trkpt lat="44.64128530959415" lon="8.748734779720616"><ele>328.5</ele><time>2026-05-01T11:02:46.999Z</time></trkpt><trkpt lat="44.64104093805594" lon="8.748688813738147"><ele>328.0</ele><time>2026-05-01T11:02:47.999Z</time></trkpt><trkpt lat="44.64080110121802" lon="8.74864156655088"><ele>328.0</ele><time>2026-05-01T11:02:48.999Z</time></trkpt><trkpt lat="44.64056779499942" lon="8.748594112611102"><ele>328.0</ele><time>2026-05-01T11:02:49.999Z</time></trkpt><trkpt lat="44.64034121572909" lon="8.7485438178811"><ele>327.0</ele><time>2026-05-01T11:02:50.999Z</time></trkpt><trkpt lat="44.640117558899604" lon="8.748491387630631"><ele>326.0</ele><time>2026-05-01T11:02:51.999Z</time></trkpt><trkpt lat="44.63989916110914" lon="8.748440296764649"><ele>325.0</ele><time>2026-05-01T11:02:52.999Z</time></trkpt><trkpt lat="44.63968288532982" lon="8.748389168157837"><ele>325.0</ele><time>2026-05-01T11:02:53.999Z</time></trkpt><trkpt lat="44.639476936915855" lon="8.748335778199804"><ele>325.0</ele><time>2026-05-01T11:02:54.999Z</time></trkpt><trkpt lat="44.63927266659236" lon="8.748283535011408"><ele>325.0</ele><time>2026-05-01T11:02:55.999Z</time></trkpt><trkpt lat="44.63907852294506" lon="8.748235152912399"><ele>324.0</ele><time>2026-05-01T11:02:56.999Z</time></trkpt><trkpt lat="44.638892057174814" lon="8.748194784416063"><ele>323.0</ele><time>2026-05-01T11:02:57.999Z</time></trkpt><trkpt lat="44.63870643128376" lon="8.748153341704011"><ele>322.0</ele><time>2026-05-01T11:02:58.999Z</time></trkpt><trkpt lat="44.63852861695813" lon="8.74811658697877"><ele>321.3333333333333</ele><time>2026-05-01T11:02:59.999Z</time></trkpt><trkpt lat="44.63835272400166" lon="8.748077560252387"><ele>320.6666666666667</ele><time>2026-05-01T11:03:00.999Z</time></trkpt><trkpt lat="44.63818056800784" lon="8.748036382048278"><ele>320.0</ele><time>2026-05-01T11:03:01.999Z</time></trkpt><trkpt lat="44.638014454080206" lon="8.74799442225873"><ele>320.0</ele><time>2026-05-01T11:03:02.999Z</time></trkpt><trkpt lat="44.637855955147835" lon="8.747953092280435"><ele>320.0</ele><time>2026-05-01T11:03:03.999Z</time></trkpt><trkpt lat="44.63771223203461" lon="8.747915487007225"><ele>320.0</ele><time>2026-05-01T11:03:04.999Z</time></trkpt><trkpt lat="44.63758656212879" lon="8.747884271659004"><ele>320.0</ele><time>2026-05-01T11:03:06Z</time></trkpt><trkpt lat="44.63747395225253" lon="8.747857175633152"><ele>320.0</ele><time>2026-05-01T11:03:07Z</time></trkpt><trkpt lat="44.63738321382441" lon="8.74783557480385"><ele>320.0</ele><time>2026-05-01T11:03:08Z</time></trkpt><trkpt lat="44.63730822302558" lon="8.747811661590701"><ele>320.0</ele><time>2026-05-01T11:03:09Z</time></trkpt><trkpt lat="44.637241583469006" lon="8.747780771178311"><ele>320.0</ele><time>2026-05-01T11:03:10Z</time></trkpt><trkpt lat="44.63716354134766" lon="8.747749990194983"><ele>320.0</ele><time>2026-05-01T11:03:12Z</time></trkpt><trkpt lat="44.637110501694615" lon="8.747947085298575"><ele>320.0</ele><time>2026-05-01T11:03:16Z</time></trkpt><trkpt lat="44.637157021177785" lon="8.748089487235005"><ele>320.0</ele><time>2026-05-01T11:03:17Z</time></trkpt><trkpt lat="44.63721716981885" lon="8.748269744728503"><ele>320.0</ele><time>2026-05-01T11:03:18Z</time></trkpt><trkpt lat="44.63726659381613" lon="8.748479047575241"><ele>320.0</ele><time>2026-05-01T11:03:19Z</time></trkpt><trkpt lat="44.63732146951255" lon="8.74875479947225"><ele>321.5</ele><time>2026-05-01T11:03:20Z</time></trkpt><trkpt lat="44.637382822646906" lon="8.749080401654853"><ele>323.0</ele><time>2026-05-01T11:03:21Z</time></trkpt><trkpt lat="44.63744899298643" lon="8.749436218341758"><ele>324.0</ele><time>2026-05-01T11:03:22Z</time></trkpt><trkpt lat="44.63751373720788" lon="8.74977987233561"><ele>325.0</ele><time>2026-05-01T11:03:23Z</time></trkpt><trkpt lat="44.637571099436315" lon="8.750087265196141"><ele>326.0</ele><time>2026-05-01T11:03:24Z</time></trkpt><trkpt lat="44.637622223770904" lon="8.750364277376345"><ele>327.0</ele><time>2026-05-01T11:03:25Z</time></trkpt><trkpt lat="44.63767156949919" lon="8.750617899244407"><ele>328.0</ele><time>2026-05-01T11:03:26Z</time></trkpt><trkpt lat="44.63771953192441" lon="8.75084965258824"><ele>329.25</ele><time>2026-05-01T11:03:27Z</time></trkpt><trkpt lat="44.63777033554238" lon="8.751058134302461"><ele>330.5</ele><time>2026-05-01T11:03:28Z</time></trkpt><trkpt lat="44.637818232391645" lon="8.751248610645392"><ele>331.75</ele><time>2026-05-01T11:03:29Z</time></trkpt><trkpt lat="44.637845402536136" lon="8.751447443259906"><ele>333.0</ele><time>2026-05-01T11:03:30Z</time></trkpt><trkpt lat="44.63783623151617" lon="8.75167513666875"><ele>335.3333333333333</ele><time>2026-05-01T11:03:31Z</time></trkpt><trkpt lat="44.637791412644894" lon="8.751916461211682"><ele>337.66666666666663</ele><time>2026-05-01T11:03:32Z</time></trkpt><trkpt lat="44.637741574950454" lon="8.752124615963767"><ele>340.0</ele><time>2026-05-01T11:03:33Z</time></trkpt><trkpt lat="44.6376857194983" lon="8.752301161669186"><ele>340.0</ele><time>2026-05-01T11:03:34Z</time></trkpt><trkpt lat="44.63762662471012" lon="8.752468876819487"><ele>340.0</ele><time>2026-05-01T11:03:35Z</time></trkpt><trkpt lat="44.637574926613084" lon="8.75263639627399"><ele>340.0</ele><time>2026-05-01T11:03:36Z</time></trkpt><trkpt lat="44.63756962274596" lon="8.752819399756772"><ele>340.0</ele><time>2026-05-01T11:03:37Z</time></trkpt><trkpt lat="44.63761203401992" lon="8.753025083382605"><ele>340.3333333333333</ele><time>2026-05-01T11:03:38Z</time></trkpt><trkpt lat="44.63769080420349" lon="8.75324949085169"><ele>340.6666666666667</ele><time>2026-05-01T11:03:39Z</time></trkpt><trkpt lat="44.637758967631775" lon="8.753463144176285"><ele>341.0</ele><time>2026-05-01T11:03:40Z</time></trkpt><trkpt lat="44.637812960416866" lon="8.753679639103643"><ele>342.75</ele><time>2026-05-01T11:03:41Z</time></trkpt><trkpt lat="44.63784016534926" lon="8.753903755758499"><ele>344.5</ele><time>2026-05-01T11:03:42Z</time></trkpt><trkpt lat="44.63783834958623" lon="8.754099614843192"><ele>346.25</ele><time>2026-05-01T11:03:43Z</time></trkpt><trkpt lat="44.637798273764766" lon="8.754251296245506"><ele>348.0</ele><time>2026-05-01T11:03:44Z</time></trkpt><trkpt lat="44.63774398496805" lon="8.754370306966942"><ele>349.75</ele><time>2026-05-01T11:03:45Z</time></trkpt><trkpt lat="44.63761830184703" lon="8.754413543284274"><ele>351.5</ele><time>2026-05-01T11:03:46Z</time></trkpt><trkpt lat="44.63749336204984" lon="8.754491688710928"><ele>353.25</ele><time>2026-05-01T11:03:47Z</time></trkpt><trkpt lat="44.63737818912471" lon="8.754541187358207"><ele>355.0</ele><time>2026-05-01T11:03:48Z</time></trkpt><trkpt lat="44.63732172980285" lon="8.754656563914496"><ele>355.0</ele><time>2026-05-01T11:03:49Z</time></trkpt><trkpt lat="44.63732086788476" lon="8.754802489684561"><ele>355.0</ele><time>2026-05-01T11:03:50Z</time></trkpt><trkpt lat="44.637382462352946" lon="8.754969255752306"><ele>355.0</ele><time>2026-05-01T11:03:51Z</time></trkpt><trkpt lat="44.63746226137844" lon="8.755153043428175"><ele>355.0</ele><time>2026-05-01T11:03:52Z</time></trkpt><trkpt lat="44.63750782557927" lon="8.75536292693771"><ele>356.5</ele><time>2026-05-01T11:03:53Z</time></trkpt><trkpt lat="44.63755169999372" lon="8.755543422332643"><ele>358.0</ele><time>2026-05-01T11:03:54Z</time></trkpt><trkpt lat="44.63756921059263" lon="8.755709158734183"><ele>359.5</ele><time>2026-05-01T11:03:55Z</time></trkpt><trkpt lat="44.63757579118207" lon="8.755871607586126"><ele>361.0</ele><time>2026-05-01T11:03:56Z</time></trkpt><trkpt lat="44.637553945861704" lon="8.756036144657392"><ele>361.20000000000005</ele><time>2026-05-01T11:03:57Z</time></trkpt><trkpt lat="44.637481418843564" lon="8.756179973620524"><ele>361.40000000000003</ele><time>2026-05-01T11:03:58Z</time></trkpt><trkpt lat="44.63742851454569" lon="8.756325944200015"><ele>361.6</ele><time>2026-05-01T11:03:59Z</time></trkpt><trkpt lat="44.6373779684769" lon="8.756441269883016"><ele>361.8</ele><time>2026-05-01T11:04:00Z</time></trkpt><trkpt lat="44.63737980525451" lon="8.756557337167132"><ele>362.0</ele><time>2026-05-01T11:04:02Z</time></trkpt><trkpt lat="44.63738791462526" lon="8.756652947494059"><ele>362.0</ele><time>2026-05-01T11:04:06Z</time></trkpt><trkpt lat="44.637292761291654" lon="8.756720642928418"><ele>362.0</ele><time>2026-05-01T11:04:08Z</time></trkpt><trkpt lat="44.63723225370258" lon="8.756778336035993"><ele>362.0</ele><time>2026-05-01T11:04:09Z</time></trkpt><trkpt lat="44.63715675532896" lon="8.756834969669582"><ele>362.0</ele><time>2026-05-01T11:04:10Z</time></trkpt><trkpt lat="44.63706614396239" lon="8.756911083403203"><ele>362.0</ele><time>2026-05-01T11:04:11Z</time></trkpt><trkpt lat="44.63696135745071" lon="8.75700509195318"><ele>360.75</ele><time>2026-05-01T11:04:12Z</time></trkpt><trkpt lat="44.63686331351823" lon="8.757081469332826"><ele>359.5</ele><time>2026-05-01T11:04:13Z</time></trkpt><trkpt lat="44.63676157212036" lon="8.757144548805849"><ele>358.25</ele><time>2026-05-01T11:04:14Z</time></trkpt><trkpt lat="44.636644920225024" lon="8.757203028697218"><ele>357.0</ele><time>2026-05-01T11:04:15Z</time></trkpt><trkpt lat="44.63651041512137" lon="8.75726003920288"><ele>357.0</ele><time>2026-05-01T11:04:16Z</time></trkpt><trkpt lat="44.63633522997807" lon="8.757305427668632"><ele>357.0</ele><time>2026-05-01T11:04:17Z</time></trkpt><trkpt lat="44.63616230420772" lon="8.75736855889046"><ele>357.0</ele><time>2026-05-01T11:04:18Z</time></trkpt><trkpt lat="44.63601110038708" lon="8.757389284884221"><ele>356.5</ele><time>2026-05-01T11:04:19Z</time></trkpt><trkpt lat="44.63586605651663" lon="8.757355385277004"><ele>356.0</ele><time>2026-05-01T11:04:20Z</time></trkpt><trkpt lat="44.635721654803675" lon="8.757325673858"><ele>355.5</ele><time>2026-05-01T11:04:21Z</time></trkpt><trkpt lat="44.63558381302757" lon="8.757267858831458"><ele>355.0</ele><time>2026-05-01T11:04:22Z</time></trkpt><trkpt lat="44.63544705389066" lon="8.757219774255796"><ele>355.0</ele><time>2026-05-01T11:04:23Z</time></trkpt><trkpt lat="44.63531538125387" lon="8.757190948150852"><ele>355.0</ele><time>2026-05-01T11:04:24Z</time></trkpt><trkpt lat="44.635191046793935" lon="8.757201406528367"><ele>355.0</ele><time>2026-05-01T11:04:25Z</time></trkpt><trkpt lat="44.63506605441638" lon="8.757274741436719"><ele>355.0</ele><time>2026-05-01T11:04:26Z</time></trkpt><trkpt lat="44.634925052909914" lon="8.75737642306157"><ele>356.0</ele><time>2026-05-01T11:04:27Z</time></trkpt><trkpt lat="44.63478205514637" lon="8.75742320108455"><ele>357.0</ele><time>2026-05-01T11:04:28Z</time></trkpt><trkpt lat="44.63465850207497" lon="8.75747662201222"><ele>358.0</ele><time>2026-05-01T11:04:29Z</time></trkpt><trkpt lat="44.63454197410099" lon="8.757514693481056"><ele>359.0</ele><time>2026-05-01T11:04:30Z</time></trkpt><trkpt lat="44.634420786998" lon="8.757585830920119"><ele>359.33333333333337</ele><time>2026-05-01T11:04:31Z</time></trkpt><trkpt lat="44.63427940411252" lon="8.757711396609288"><ele>359.6666666666667</ele><time>2026-05-01T11:04:32Z</time></trkpt><trkpt lat="44.63413887542507" lon="8.757830995099518"><ele>360.0</ele><time>2026-05-01T11:04:33Z</time></trkpt><trkpt lat="44.63401180141411" lon="8.757918912042353"><ele>360.0</ele><time>2026-05-01T11:04:34Z</time></trkpt><trkpt lat="44.633894738792044" lon="8.75801657928959"><ele>360.0</ele><time>2026-05-01T11:04:35Z</time></trkpt><trkpt lat="44.63377661391571" lon="8.758092407788427"><ele>360.0</ele><time>2026-05-01T11:04:36Z</time></trkpt><trkpt lat="44.63365023822154" lon="8.758110897645606"><ele>360.0</ele><time>2026-05-01T11:04:36.999Z</time></trkpt><trkpt lat="44.63353706947105" lon="8.758106125758106"><ele>362.0</ele><time>2026-05-01T11:04:37.999Z</time></trkpt><trkpt lat="44.633416707199196" lon="8.758179350447804"><ele>364.0</ele><time>2026-05-01T11:04:38.999Z</time></trkpt><trkpt lat="44.6333062196422" lon="8.758297817926278"><ele>366.0</ele><time>2026-05-01T11:04:39.999Z</time></trkpt><trkpt lat="44.63322614126682" lon="8.758451928733969"><ele>368.0</ele><time>2026-05-01T11:04:40.999Z</time></trkpt><trkpt lat="44.633164947538745" lon="8.758599838478261"><ele>368.0</ele><time>2026-05-01T11:04:41.999Z</time></trkpt><trkpt lat="44.633161331200796" lon="8.758800613690976"><ele>368.0</ele><time>2026-05-01T11:04:42.999Z</time></trkpt><trkpt lat="44.63322810087284" lon="8.759004117912397"><ele>368.0</ele><time>2026-05-01T11:04:43.999Z</time></trkpt><trkpt lat="44.63333760626009" lon="8.75913420457145"><ele>368.0</ele><time>2026-05-01T11:04:44.999Z</time></trkpt><trkpt lat="44.63345067710815" lon="8.759287377141975"><ele>368.0</ele><time>2026-05-01T11:04:45.999Z</time></trkpt><trkpt lat="44.63352602974393" lon="8.759323102089235"><ele>368.0</ele><time>2026-05-01T11:04:46.999Z</time></trkpt><trkpt lat="44.633669676041634" lon="8.759324439331731"><ele>368.0</ele><time>2026-05-01T11:04:47.999Z</time></trkpt><trkpt lat="44.63377590841413" lon="8.759396689409295"><ele>368.0</ele><time>2026-05-01T11:04:48.999Z</time></trkpt><trkpt lat="44.63386947659442" lon="8.759514236367693"><ele>367.5</ele><time>2026-05-01T11:04:49.999Z</time></trkpt><trkpt lat="44.633936804350505" lon="8.759670622897499"><ele>367.0</ele><time>2026-05-01T11:04:50.999Z</time></trkpt><trkpt lat="44.63402310322792" lon="8.759862645013136"><ele>366.5</ele><time>2026-05-01T11:04:51.999Z</time></trkpt><trkpt lat="44.63412135954875" lon="8.760033943309407"><ele>366.0</ele><time>2026-05-01T11:04:52.999Z</time></trkpt><trkpt lat="44.634176104264476" lon="8.760216253023383"><ele>366.0</ele><time>2026-05-01T11:04:53.999Z</time></trkpt><trkpt lat="44.63422665599814" lon="8.760398789793507"><ele>366.0</ele><time>2026-05-01T11:04:54.999Z</time></trkpt><trkpt lat="44.63425524531229" lon="8.76060579191681"><ele>366.0</ele><time>2026-05-01T11:04:55.999Z</time></trkpt><trkpt lat="44.63428539154212" lon="8.760806740833994"><ele>366.0</ele><time>2026-05-01T11:04:56.999Z</time></trkpt><trkpt lat="44.634313740936044" lon="8.760995790334377"><ele>365.0</ele><time>2026-05-01T11:04:57.999Z</time></trkpt><trkpt lat="44.63434131844272" lon="8.761174858035552"><ele>364.0</ele><time>2026-05-01T11:04:58.999Z</time></trkpt><trkpt lat="44.63435741021935" lon="8.761329305286141"><ele>363.0</ele><time>2026-05-01T11:04:59.999Z</time></trkpt><trkpt lat="44.63433811234648" lon="8.761456432875372"><ele>362.0</ele><time>2026-05-01T11:05:00.999Z</time></trkpt><trkpt lat="44.63429421262499" lon="8.761575232095048"><ele>361.0</ele><time>2026-05-01T11:05:01.999Z</time></trkpt><trkpt lat="44.63420811446363" lon="8.761634434226178"><ele>361.0</ele><time>2026-05-01T11:05:02.999Z</time></trkpt><trkpt lat="44.63410311724554" lon="8.761693099952687"><ele>361.0</ele><time>2026-05-01T11:05:03.999Z</time></trkpt><trkpt lat="44.63402071505859" lon="8.76179119258843"><ele>361.0</ele><time>2026-05-01T11:05:04.999Z</time></trkpt><trkpt lat="44.63401251289584" lon="8.7619854306627"><ele>361.0</ele><time>2026-05-01T11:05:05.999Z</time></trkpt><trkpt lat="44.633992320364634" lon="8.762161098911847"><ele>360.25</ele><time>2026-05-01T11:05:06.999Z</time></trkpt><trkpt lat="44.633958531152" lon="8.762316110222802"><ele>359.5</ele><time>2026-05-01T11:05:07.999Z</time></trkpt><trkpt lat="44.63395801862638" lon="8.76246332281249"><ele>358.75</ele><time>2026-05-01T11:05:08.999Z</time></trkpt><trkpt lat="44.63401074259386" lon="8.76258581425253"><ele>358.0</ele><time>2026-05-01T11:05:09.999Z</time></trkpt><trkpt lat="44.63412981668185" lon="8.762670246395786"><ele>360.0</ele><time>2026-05-01T11:05:10.999Z</time></trkpt><trkpt lat="44.63427198643506" lon="8.762750389761594"><ele>362.0</ele><time>2026-05-01T11:05:12Z</time></trkpt><trkpt lat="44.63440934040867" lon="8.76286878218959"><ele>364.0</ele><time>2026-05-01T11:05:13Z</time></trkpt><trkpt lat="44.634544426943414" lon="8.762973468327049"><ele>364.0</ele><time>2026-05-01T11:05:14Z</time></trkpt><trkpt lat="44.63465777282441" lon="8.763057736779334"><ele>364.0</ele><time>2026-05-01T11:05:15Z</time></trkpt><trkpt lat="44.63474959057828" lon="8.763161721369698"><ele>364.0</ele><time>2026-05-01T11:05:16Z</time></trkpt><trkpt lat="44.63485388899303" lon="8.763229466450946"><ele>364.0</ele><time>2026-05-01T11:05:17Z</time></trkpt><trkpt lat="44.63493528121651" lon="8.7633141360097"><ele>364.0</ele><time>2026-05-01T11:05:18Z</time></trkpt><trkpt lat="44.63500829616005" lon="8.763408145574672"><ele>364.0</ele><time>2026-05-01T11:05:19Z</time></trkpt><trkpt lat="44.63504129858337" lon="8.763565321931749"><ele>364.0</ele><time>2026-05-01T11:05:20Z</time></trkpt><trkpt lat="44.635107481853524" lon="8.763746361961001"><ele>364.0</ele><time>2026-05-01T11:05:21Z</time></trkpt><trkpt lat="44.635199053589226" lon="8.763891051815415"><ele>363.0</ele><time>2026-05-01T11:05:22Z</time></trkpt><trkpt lat="44.63533900223711" lon="8.764022793456316"><ele>362.0</ele><time>2026-05-01T11:05:23Z</time></trkpt><trkpt lat="44.63549017120469" lon="8.764133010603254"><ele>361.0</ele><time>2026-05-01T11:05:24Z</time></trkpt><trkpt lat="44.63562700243104" lon="8.764235424181397"><ele>361.0</ele><time>2026-05-01T11:05:25Z</time></trkpt><trkpt lat="44.63575404075972" lon="8.764333688455542"><ele>361.0</ele><time>2026-05-01T11:05:26Z</time></trkpt><trkpt lat="44.635870065201544" lon="8.76442223267085"><ele>361.0</ele><time>2026-05-01T11:05:27Z</time></trkpt><trkpt lat="44.63596835367953" lon="8.764526635696285"><ele>361.0</ele><time>2026-05-01T11:05:28Z</time></trkpt><trkpt lat="44.63600125556249" lon="8.76468358749528"><ele>361.0</ele><time>2026-05-01T11:05:29Z</time></trkpt><trkpt lat="44.63601577774101" lon="8.764819095907185"><ele>361.0</ele><time>2026-05-01T11:05:30Z</time></trkpt><trkpt lat="44.63597639436094" lon="8.764943303303202"><ele>361.0</ele><time>2026-05-01T11:05:31Z</time></trkpt><trkpt lat="44.63589099549753" lon="8.765064698599273"><ele>361.0</ele><time>2026-05-01T11:05:32Z</time></trkpt><trkpt lat="44.635782612121545" lon="8.765209550227182"><ele>361.0</ele><time>2026-05-01T11:05:33Z</time></trkpt><trkpt lat="44.635657779116926" lon="8.765386603649981"><ele>361.0</ele><time>2026-05-01T11:05:34Z</time></trkpt><trkpt lat="44.63553036024091" lon="8.76557060879801"><ele>361.0</ele><time>2026-05-01T11:05:35Z</time></trkpt><trkpt lat="44.63541393487604" lon="8.765733228780798"><ele>361.0</ele><time>2026-05-01T11:05:36Z</time></trkpt><trkpt lat="44.635312492570584" lon="8.765871485803821"><ele>361.0</ele><time>2026-05-01T11:05:37Z</time></trkpt><trkpt lat="44.63521220971914" lon="8.765990044669918"><ele>361.0</ele><time>2026-05-01T11:05:38Z</time></trkpt><trkpt lat="44.635111623574865" lon="8.766071668517057"><ele>361.0</ele><time>2026-05-01T11:05:39Z</time></trkpt><trkpt lat="44.63502117416229" lon="8.766157697792192"><ele>362.8</ele><time>2026-05-01T11:05:40Z</time></trkpt><trkpt lat="44.634972026543565" lon="8.766290473332301"><ele>364.6</ele><time>2026-05-01T11:05:41Z</time></trkpt><trkpt lat="44.63497709314059" lon="8.766445029770246"><ele>366.4</ele><time>2026-05-01T11:05:42Z</time></trkpt><trkpt lat="44.63503427713969" lon="8.766575465352213"><ele>368.2</ele><time>2026-05-01T11:05:43Z</time></trkpt><trkpt lat="44.635111369179285" lon="8.766682762742567"><ele>370.0</ele><time>2026-05-01T11:05:44Z</time></trkpt><trkpt lat="44.63519885510779" lon="8.766816657264838"><ele>370.75</ele><time>2026-05-01T11:05:45Z</time></trkpt><trkpt lat="44.635260367810886" lon="8.766987238869548"><ele>371.5</ele><time>2026-05-01T11:05:46Z</time></trkpt><trkpt lat="44.635338171442164" lon="8.767139428254419"><ele>372.25</ele><time>2026-05-01T11:05:47Z</time></trkpt><trkpt lat="44.63540144323178" lon="8.767287639133189"><ele>373.0</ele><time>2026-05-01T11:05:48Z</time></trkpt><trkpt lat="44.635448434444484" lon="8.767434374952696"><ele>370.5</ele><time>2026-05-01T11:05:49Z</time></trkpt><trkpt lat="44.63548855367629" lon="8.767579827893325"><ele>368.0</ele><time>2026-05-01T11:05:50Z</time></trkpt><trkpt lat="44.635484467462" lon="8.767723227386151"><ele>365.5</ele><time>2026-05-01T11:05:51Z</time></trkpt><trkpt lat="44.635407963351085" lon="8.7678468204736"><ele>363.0</ele><time>2026-05-01T11:05:52Z</time></trkpt><trkpt lat="44.63528180449218" lon="8.76790562637881"><ele>363.0</ele><time>2026-05-01T11:05:53Z</time></trkpt><trkpt lat="44.6351476931402" lon="8.767935274571323"><ele>363.0</ele><time>2026-05-01T11:05:54Z</time></trkpt><trkpt lat="44.63502298394712" lon="8.767963369983496"><ele>363.0</ele><time>2026-05-01T11:05:55Z</time></trkpt><trkpt lat="44.634916997735004" lon="8.768026783642506"><ele>363.0</ele><time>2026-05-01T11:05:56Z</time></trkpt><trkpt lat="44.63484122276553" lon="8.768149430521344"><ele>363.0</ele><time>2026-05-01T11:05:57Z</time></trkpt><trkpt lat="44.63480338098762" lon="8.768307994089431"><ele>363.0</ele><time>2026-05-01T11:05:58Z</time></trkpt><trkpt lat="44.6347826573182" lon="8.768456581223923"><ele>363.0</ele><time>2026-05-01T11:05:59Z</time></trkpt><trkpt lat="44.63479444221301" lon="8.768603879679178"><ele>363.0</ele><time>2026-05-01T11:06:00Z</time></trkpt><trkpt lat="44.63484875952325" lon="8.768726669243373"><ele>363.0</ele><time>2026-05-01T11:06:01Z</time></trkpt><trkpt lat="44.634955884628184" lon="8.768816261200625"><ele>362.0</ele><time>2026-05-01T11:06:02Z</time></trkpt><trkpt lat="44.635084498751624" lon="8.768883733517495"><ele>361.0</ele><time>2026-05-01T11:06:03Z</time></trkpt><trkpt lat="44.635220354552224" lon="8.76892759217813"><ele>360.0</ele><time>2026-05-01T11:06:04Z</time></trkpt><trkpt lat="44.63534682454916" lon="8.768940363940976"><ele>359.0</ele><time>2026-05-01T11:06:05Z</time></trkpt><trkpt lat="44.63545751526648" lon="8.768917626927559"><ele>359.0</ele><time>2026-05-01T11:06:06Z</time></trkpt><trkpt lat="44.63555673335631" lon="8.768903923373442"><ele>359.0</ele><time>2026-05-01T11:06:07Z</time></trkpt><trkpt lat="44.63563725092029" lon="8.768919097170649"><ele>359.0</ele><time>2026-05-01T11:06:08Z</time></trkpt><trkpt lat="44.63569908855789" lon="8.769005593865682"><ele>359.0</ele><time>2026-05-01T11:06:09Z</time></trkpt><trkpt lat="44.63570561796847" lon="8.76916083298631"><ele>359.0</ele><time>2026-05-01T11:06:10Z</time></trkpt><trkpt lat="44.63567719554897" lon="8.769335310460153"><ele>360.33333333333337</ele><time>2026-05-01T11:06:11Z</time></trkpt><trkpt lat="44.63562927815459" lon="8.769529544249615"><ele>361.6666666666667</ele><time>2026-05-01T11:06:12Z</time></trkpt><trkpt lat="44.63559621085798" lon="8.76976643928361"><ele>363.0</ele><time>2026-05-01T11:06:13Z</time></trkpt><trkpt lat="44.63556532576958" lon="8.770007185366998"><ele>365.25</ele><time>2026-05-01T11:06:14Z</time></trkpt><trkpt lat="44.63554787509353" lon="8.770211994278172"><ele>367.5</ele><time>2026-05-01T11:06:15Z</time></trkpt><trkpt lat="44.635573232134035" lon="8.770397293562288"><ele>369.75</ele><time>2026-05-01T11:06:16Z</time></trkpt><trkpt lat="44.63566067824396" lon="8.7705799250449"><ele>372.0</ele><time>2026-05-01T11:06:17Z</time></trkpt><trkpt lat="44.63572514719202" lon="8.770794712113844"><ele>372.0</ele><time>2026-05-01T11:06:18Z</time></trkpt><trkpt lat="44.635788361265114" lon="8.770989528699465"><ele>372.0</ele><time>2026-05-01T11:06:19Z</time></trkpt><trkpt lat="44.63584022828216" lon="8.771168045605855"><ele>372.0</ele><time>2026-05-01T11:06:20Z</time></trkpt><trkpt lat="44.63586124798886" lon="8.771347177861772"><ele>372.0</ele><time>2026-05-01T11:06:21Z</time></trkpt><trkpt lat="44.63584057561279" lon="8.771546505902766"><ele>374.0</ele><time>2026-05-01T11:06:22Z</time></trkpt><trkpt lat="44.635824809515576" lon="8.771781148493169"><ele>376.0</ele><time>2026-05-01T11:06:23Z</time></trkpt><trkpt lat="44.63580252101394" lon="8.77204672551847"><ele>378.0</ele><time>2026-05-01T11:06:24Z</time></trkpt><trkpt lat="44.63581538504546" lon="8.772279079233886"><ele>378.75</ele><time>2026-05-01T11:06:25Z</time></trkpt><trkpt lat="44.63584383933942" lon="8.772469631628496"><ele>379.5</ele><time>2026-05-01T11:06:26Z</time></trkpt><trkpt lat="44.63585061283974" lon="8.772625468819024"><ele>380.25</ele><time>2026-05-01T11:06:27Z</time></trkpt><trkpt lat="44.635773233714666" lon="8.772747057230253"><ele>381.0</ele><time>2026-05-01T11:06:28Z</time></trkpt><trkpt lat="44.63567336132517" lon="8.772886208549311"><ele>377.6666666666667</ele><time>2026-05-01T11:06:29Z</time></trkpt><trkpt lat="44.635549048078666" lon="8.773044079163864"><ele>374.33333333333337</ele><time>2026-05-01T11:06:30Z</time></trkpt><trkpt lat="44.63543632846984" lon="8.773207130993905"><ele>371.0</ele><time>2026-05-01T11:06:31Z</time></trkpt><trkpt lat="44.63531641956048" lon="8.773357392961637"><ele>374.25</ele><time>2026-05-01T11:06:32Z</time></trkpt><trkpt lat="44.63516991069046" lon="8.773431470720512"><ele>377.5</ele><time>2026-05-01T11:06:33Z</time></trkpt><trkpt lat="44.63503465574063" lon="8.773524146375083"><ele>380.75</ele><time>2026-05-01T11:06:34Z</time></trkpt><trkpt lat="44.63490033962231" lon="8.773571375872498"><ele>384.0</ele><time>2026-05-01T11:06:35Z</time></trkpt><trkpt lat="44.63478564515852" lon="8.773639542428821"><ele>384.0</ele><time>2026-05-01T11:06:36Z</time></trkpt><trkpt lat="44.63472117811214" lon="8.773753432159259"><ele>384.0</ele><time>2026-05-01T11:06:37Z</time></trkpt><trkpt lat="44.63469908742706" lon="8.773901937683798"><ele>384.0</ele><time>2026-05-01T11:06:37.999Z</time></trkpt><trkpt lat="44.634746746684435" lon="8.774056308695627"><ele>384.0</ele><time>2026-05-01T11:06:38.999Z</time></trkpt><trkpt lat="44.63485498193707" lon="8.774186556898204"><ele>384.0</ele><time>2026-05-01T11:06:39.999Z</time></trkpt><trkpt lat="44.6349920657219" lon="8.774278628598067"><ele>384.0</ele><time>2026-05-01T11:06:40.999Z</time></trkpt><trkpt lat="44.6350913742827" lon="8.774374386347516"><ele>384.0</ele><time>2026-05-01T11:06:41.999Z</time></trkpt><trkpt lat="44.63515244772014" lon="8.774479936690838"><ele>384.0</ele><time>2026-05-01T11:06:42.999Z</time></trkpt><trkpt lat="44.63510785305483" lon="8.77462321780049"><ele>383.25</ele><time>2026-05-01T11:06:43.999Z</time></trkpt><trkpt lat="44.635006822106995" lon="8.774671118699471"><ele>382.5</ele><time>2026-05-01T11:06:44.999Z</time></trkpt><trkpt lat="44.63493232520787" lon="8.774778115173424"><ele>381.75</ele><time>2026-05-01T11:06:45.999Z</time></trkpt><trkpt lat="44.634823996607814" lon="8.774889676874034"><ele>381.0</ele><time>2026-05-01T11:06:46.999Z</time></trkpt><trkpt lat="44.63471698524227" lon="8.775022202316297"><ele>381.0</ele><time>2026-05-01T11:06:47.999Z</time></trkpt><trkpt lat="44.634604057920996" lon="8.775132549028996"><ele>381.0</ele><time>2026-05-01T11:06:48.999Z</time></trkpt><trkpt lat="44.63446651620766" lon="8.775163017784923"><ele>381.0</ele><time>2026-05-01T11:06:49.999Z</time></trkpt><trkpt lat="44.63433532747077" lon="8.775208971872134"><ele>381.0</ele><time>2026-05-01T11:06:50.999Z</time></trkpt><trkpt lat="44.63421855143912" lon="8.775229726790512"><ele>385.25</ele><time>2026-05-01T11:06:51.999Z</time></trkpt><trkpt lat="44.63412320811814" lon="8.775291039443223"><ele>389.5</ele><time>2026-05-01T11:06:52.999Z</time></trkpt><trkpt lat="44.63405717528708" lon="8.775403767749"><ele>393.75</ele><time>2026-05-01T11:06:53.999Z</time></trkpt><trkpt lat="44.63403918301888" lon="8.775588364063747"><ele>398.0</ele><time>2026-05-01T11:06:54.999Z</time></trkpt><trkpt lat="44.63404041160573" lon="8.775793927374597"><ele>398.0</ele><time>2026-05-01T11:06:55.999Z</time></trkpt><trkpt lat="44.63402576777491" lon="8.775967209105602"><ele>398.0</ele><time>2026-05-01T11:06:56.999Z</time></trkpt><trkpt lat="44.634031215409394" lon="8.776122159741233"><ele>398.0</ele><time>2026-05-01T11:06:57.999Z</time></trkpt><trkpt lat="44.634072929252625" lon="8.776272076993878"><ele>398.0</ele><time>2026-05-01T11:06:58.999Z</time></trkpt><trkpt lat="44.634092301289954" lon="8.776404289498746"><ele>398.0</ele><time>2026-05-01T11:06:59.999Z</time></trkpt><trkpt lat="44.63410112501272" lon="8.776520765575778"><ele>396.5</ele><time>2026-05-01T11:07:00.999Z</time></trkpt><trkpt lat="44.63402053472824" lon="8.77661462307542"><ele>395.0</ele><time>2026-05-01T11:07:01.999Z</time></trkpt><trkpt lat="44.63389680386031" lon="8.776683928306014"><ele>393.5</ele><time>2026-05-01T11:07:02.999Z</time></trkpt><trkpt lat="44.63376775904341" lon="8.776756952840044"><ele>392.0</ele><time>2026-05-01T11:07:03.999Z</time></trkpt><trkpt lat="44.63365065114564" lon="8.77677016197805"><ele>395.6</ele><time>2026-05-01T11:07:04.999Z</time></trkpt><trkpt lat="44.63353891359159" lon="8.776797979164481"><ele>399.20000000000005</ele><time>2026-05-01T11:07:05.999Z</time></trkpt><trkpt lat="44.633449275550376" lon="8.776803583785542"><ele>402.8</ele><time>2026-05-01T11:07:06.999Z</time></trkpt><trkpt lat="44.63337285156348" lon="8.776846231716814"><ele>406.4</ele><time>2026-05-01T11:07:07.999Z</time></trkpt><trkpt lat="44.63332520302628" lon="8.776949690740226"><ele>410.0</ele><time>2026-05-01T11:07:08.999Z</time></trkpt><trkpt lat="44.63332281762009" lon="8.777087619722272"><ele>410.0</ele><time>2026-05-01T11:07:09.999Z</time></trkpt><trkpt lat="44.63335882637179" lon="8.777228783029269"><ele>410.0</ele><time>2026-05-01T11:07:10.999Z</time></trkpt><trkpt lat="44.63339805417112" lon="8.777369432722766"><ele>410.0</ele><time>2026-05-01T11:07:11.999Z</time></trkpt><trkpt lat="44.633372924507476" lon="8.777494849865974"><ele>410.0</ele><time>2026-05-01T11:07:12.999Z</time></trkpt><trkpt lat="44.63333375141363" lon="8.777597064836769"><ele>410.0</ele><time>2026-05-01T11:07:13.999Z</time></trkpt><trkpt lat="44.63327982303384" lon="8.777703466551552"><ele>410.99999999999994</ele><time>2026-05-01T11:07:14.999Z</time></trkpt><trkpt lat="44.633215269161035" lon="8.777807243052719"><ele>412.0</ele><time>2026-05-01T11:07:15.999Z</time></trkpt><trkpt lat="44.633138579245795" lon="8.777870419702666"><ele>413.0</ele><time>2026-05-01T11:07:16.999Z</time></trkpt><trkpt lat="44.633064667732334" lon="8.77792253904443"><ele>414.0</ele><time>2026-05-01T11:07:18Z</time></trkpt><trkpt lat="44.63300137708557" lon="8.777985268435577"><ele>414.99999999999994</ele><time>2026-05-01T11:07:19Z</time></trkpt><trkpt lat="44.632955114572994" lon="8.77809419307799"><ele>416.0</ele><time>2026-05-01T11:07:20Z</time></trkpt><trkpt lat="44.6329470172434" lon="8.778234716241315"><ele>416.0</ele><time>2026-05-01T11:07:21Z</time></trkpt><trkpt lat="44.6329831525591" lon="8.778364916790043"><ele>416.0</ele><time>2026-05-01T11:07:22Z</time></trkpt><trkpt lat="44.63305811145999" lon="8.778459278302487"><ele>416.0</ele><time>2026-05-01T11:07:23Z</time></trkpt><trkpt lat="44.63316257530156" lon="8.778500637486268"><ele>416.0</ele><time>2026-05-01T11:07:24Z</time></trkpt><trkpt lat="44.63331488272638" lon="8.778532856736339"><ele>410.3333333333333</ele><time>2026-05-01T11:07:25Z</time></trkpt><trkpt lat="44.63350482787798" lon="8.778532056385808"><ele>404.66666666666663</ele><time>2026-05-01T11:07:26Z</time></trkpt><trkpt lat="44.63365106514926" lon="8.778516300244407"><ele>399.0</ele><time>2026-05-01T11:07:27Z</time></trkpt><trkpt lat="44.63378001427093" lon="8.778513226835134"><ele>403.5</ele><time>2026-05-01T11:07:28Z</time></trkpt><trkpt lat="44.633906368350765" lon="8.778523286555297"><ele>408.0</ele><time>2026-05-01T11:07:29Z</time></trkpt><trkpt lat="44.63400424912308" lon="8.778610888089858"><ele>412.5</ele><time>2026-05-01T11:07:30Z</time></trkpt><trkpt lat="44.634071143092996" lon="8.778733888239094"><ele>417.0</ele><time>2026-05-01T11:07:31Z</time></trkpt><trkpt lat="44.634115167190075" lon="8.778903777230992"><ele>417.0</ele><time>2026-05-01T11:07:32Z</time></trkpt><trkpt lat="44.63417517192234" lon="8.779073458661653"><ele>417.0</ele><time>2026-05-01T11:07:33Z</time></trkpt><trkpt lat="44.634206140293465" lon="8.779267783860938"><ele>417.0</ele><time>2026-05-01T11:07:34Z</time></trkpt><trkpt lat="44.63426623641497" lon="8.779438386126092"><ele>417.0</ele><time>2026-05-01T11:07:35Z</time></trkpt><trkpt lat="44.6343218114115" lon="8.779582329366573"><ele>420.25</ele><time>2026-05-01T11:07:36Z</time></trkpt><trkpt lat="44.634403030194214" lon="8.779665762495558"><ele>423.5</ele><time>2026-05-01T11:07:37Z</time></trkpt><trkpt lat="44.634505947631915" lon="8.779663054071612"><ele>426.75</ele><time>2026-05-01T11:07:38Z</time></trkpt><trkpt lat="44.634607321031794" lon="8.779558512856418"><ele>430.0</ele><time>2026-05-01T11:07:39Z</time></trkpt><trkpt lat="44.63471890129532" lon="8.779428972678549"><ele>425.0</ele><time>2026-05-01T11:07:40Z</time></trkpt><trkpt lat="44.63483221245958" lon="8.779267270084741"><ele>420.0</ele><time>2026-05-01T11:07:41Z</time></trkpt><trkpt lat="44.63493627994625" lon="8.779119756943668"><ele>415.0</ele><time>2026-05-01T11:07:42Z</time></trkpt><trkpt lat="44.635036622049086" lon="8.778980247663709"><ele>415.0</ele><time>2026-05-01T11:07:43Z</time></trkpt><trkpt lat="44.635131072004036" lon="8.77882528726519"><ele>415.0</ele><time>2026-05-01T11:07:44Z</time></trkpt><trkpt lat="44.63523298801889" lon="8.778746747601577"><ele>415.0</ele><time>2026-05-01T11:07:45Z</time></trkpt><trkpt lat="44.63533078500656" lon="8.778685777254145"><ele>415.0</ele><time>2026-05-01T11:07:46Z</time></trkpt><trkpt lat="44.63542236925522" lon="8.778751133170493"><ele>412.6666666666667</ele><time>2026-05-01T11:07:47Z</time></trkpt><trkpt lat="44.63547715947144" lon="8.778892803099469"><ele>410.33333333333337</ele><time>2026-05-01T11:07:48Z</time></trkpt><trkpt lat="44.635583212282064" lon="8.779055735213413"><ele>408.0</ele><time>2026-05-01T11:07:49Z</time></trkpt><trkpt lat="44.635720083967186" lon="8.77923278301199"><ele>407.0</ele><time>2026-05-01T11:07:50Z</time></trkpt><trkpt lat="44.6358606410705" lon="8.779413713415122"><ele>406.0</ele><time>2026-05-01T11:07:51Z</time></trkpt><trkpt lat="44.63601358153515" lon="8.779545175812734"><ele>405.0</ele><time>2026-05-01T11:07:52Z</time></trkpt><trkpt lat="44.63616728434894" lon="8.779657886292892"><ele>405.0</ele><time>2026-05-01T11:07:53Z</time></trkpt><trkpt lat="44.63627016895921" lon="8.779822254402756"><ele>405.0</ele><time>2026-05-01T11:07:54Z</time></trkpt><trkpt lat="44.636397034576966" lon="8.779958669155143"><ele>405.0</ele><time>2026-05-01T11:07:55Z</time></trkpt><trkpt lat="44.63649635632731" lon="8.780154836659634"><ele>407.66666666666663</ele><time>2026-05-01T11:07:56Z</time></trkpt><trkpt lat="44.636592842035505" lon="8.780345779105765"><ele>410.3333333333333</ele><time>2026-05-01T11:07:57Z</time></trkpt><trkpt lat="44.63668577555115" lon="8.780512459512408"><ele>413.0</ele><time>2026-05-01T11:07:58Z</time></trkpt><trkpt lat="44.63676164976685" lon="8.7806780359073"><ele>413.0</ele><time>2026-05-01T11:07:59Z</time></trkpt><trkpt lat="44.63684026050783" lon="8.78082090213471"><ele>413.0</ele><time>2026-05-01T11:08:00Z</time></trkpt><trkpt lat="44.63692541849316" lon="8.78094134585282"><ele>413.0</ele><time>2026-05-01T11:08:01Z</time></trkpt><trkpt lat="44.63701511051673" lon="8.781037943769162"><ele>413.0</ele><time>2026-05-01T11:08:02Z</time></trkpt><trkpt lat="44.63709506682588" lon="8.7811379071952"><ele>411.99999999999994</ele><time>2026-05-01T11:08:03Z</time></trkpt><trkpt lat="44.637130381543145" lon="8.781277105250796"><ele>411.0</ele><time>2026-05-01T11:08:04Z</time></trkpt><trkpt lat="44.63714632670489" lon="8.781409618674376"><ele>410.0</ele><time>2026-05-01T11:08:05Z</time></trkpt><trkpt lat="44.63717793537923" lon="8.781527497229794"><ele>409.0</ele><time>2026-05-01T11:08:06Z</time></trkpt><trkpt lat="44.6372159814367" lon="8.781612226074161"><ele>407.99999999999994</ele><time>2026-05-01T11:08:07Z</time></trkpt><trkpt lat="44.63727668002564" lon="8.781655037352452"><ele>407.0</ele><time>2026-05-01T11:08:10Z</time></trkpt><trkpt lat="44.63722331088175" lon="8.78158744286472"><ele>406.99999999999994</ele><time>2026-05-01T11:08:13Z</time></trkpt><trkpt lat="44.63717155987644" lon="8.781501989997441"><ele>407.0</ele><time>2026-05-01T11:08:15Z</time></trkpt><trkpt lat="44.6370805190483" lon="8.781530316803353"><ele>407.0</ele><time>2026-05-01T11:08:18Z</time></trkpt><trkpt lat="44.637035748052625" lon="8.781601063026443"><ele>407.0</ele><time>2026-05-01T11:08:19Z</time></trkpt><trkpt lat="44.63702082323824" lon="8.781759194445852"><ele>406.99999999999994</ele><time>2026-05-01T11:08:21Z</time></trkpt><trkpt lat="44.63707728532682" lon="8.781827214354827"><ele>407.0</ele><time>2026-05-01T11:08:22Z</time></trkpt><trkpt lat="44.637161488007074" lon="8.781845065950618"><ele>410.0</ele><time>2026-05-01T11:08:23Z</time></trkpt><trkpt lat="44.63723743709796" lon="8.78187180088443"><ele>413.0</ele><time>2026-05-01T11:08:24Z</time></trkpt><trkpt lat="44.637299542809636" lon="8.781926850575859"><ele>416.0</ele><time>2026-05-01T11:08:25Z</time></trkpt><trkpt lat="44.63731389155876" lon="8.782051427635812"><ele>419.0</ele><time>2026-05-01T11:08:26Z</time></trkpt><trkpt lat="44.637362636399814" lon="8.782207930720393"><ele>422.0</ele><time>2026-05-01T11:08:27Z</time></trkpt><trkpt lat="44.637396172016516" lon="8.78237164875067"><ele>421.99999999999994</ele><time>2026-05-01T11:08:28Z</time></trkpt><trkpt lat="44.637450026348866" lon="8.78247830167418"><ele>422.0</ele><time>2026-05-01T11:08:29Z</time></trkpt><trkpt lat="44.63748738286285" lon="8.782578700976341"><ele>422.0</ele><time>2026-05-01T11:08:30Z</time></trkpt><trkpt lat="44.63742354792868" lon="8.78267831210122"><ele>422.0</ele><time>2026-05-01T11:08:32Z</time></trkpt><trkpt lat="44.63736316386496" lon="8.782646746443199"><ele>421.99999999999994</ele><time>2026-05-01T11:08:33Z</time></trkpt><trkpt lat="44.63733497701313" lon="8.78255217271445"><ele>422.0</ele><time>2026-05-01T11:08:34Z</time></trkpt><trkpt lat="44.6373226790726" lon="8.782448650825739"><ele>422.0</ele><time>2026-05-01T11:08:35Z</time></trkpt><trkpt lat="44.637278812825194" lon="8.782334019735378"><ele>422.0</ele><time>2026-05-01T11:08:36Z</time></trkpt><trkpt lat="44.63723620891994" lon="8.782223009287511"><ele>422.0</ele><time>2026-05-01T11:08:37Z</time></trkpt><trkpt lat="44.637181855470544" lon="8.782131254106293"><ele>422.0</ele><time>2026-05-01T11:08:37.999Z</time></trkpt><trkpt lat="44.63710538887239" lon="8.782073543538893"><ele>422.0</ele><time>2026-05-01T11:08:38.999Z</time></trkpt><trkpt lat="44.63700246938376" lon="8.782087226501066"><ele>424.0</ele><time>2026-05-01T11:08:39.999Z</time></trkpt><trkpt lat="44.636896418809016" lon="8.782145579393092"><ele>426.0</ele><time>2026-05-01T11:08:40.999Z</time></trkpt><trkpt lat="44.63679045195153" lon="8.78224957152905"><ele>428.0</ele><time>2026-05-01T11:08:41.999Z</time></trkpt><trkpt lat="44.63669233715" lon="8.782356919648013"><ele>430.0</ele><time>2026-05-01T11:08:42.999Z</time></trkpt><trkpt lat="44.63660080502182" lon="8.782462133917695"><ele>430.0</ele><time>2026-05-01T11:08:43.999Z</time></trkpt><trkpt lat="44.63651069555156" lon="8.782561477173177"><ele>430.0</ele><time>2026-05-01T11:08:44.999Z</time></trkpt><trkpt lat="44.63641887050383" lon="8.782653059265447"><ele>430.0</ele><time>2026-05-01T11:08:45.999Z</time></trkpt><trkpt lat="44.63633440515922" lon="8.782748003141203"><ele>430.0</ele><time>2026-05-01T11:08:46.999Z</time></trkpt><trkpt lat="44.63625342497064" lon="8.782834524307475"><ele>430.0</ele><time>2026-05-01T11:08:47.999Z</time></trkpt><trkpt lat="44.63617560036468" lon="8.782936745374167"><ele>432.8</ele><time>2026-05-01T11:08:48.999Z</time></trkpt><trkpt lat="44.63608691337378" lon="8.783011655612581"><ele>435.6</ele><time>2026-05-01T11:08:49.999Z</time></trkpt><trkpt lat="44.63599746034995" lon="8.783073688601794"><ele>438.4</ele><time>2026-05-01T11:08:50.999Z</time></trkpt><trkpt lat="44.635900725193444" lon="8.783132459248186"><ele>441.2</ele><time>2026-05-01T11:08:51.999Z</time></trkpt><trkpt lat="44.635811189872044" lon="8.783169805315604"><ele>444.0</ele><time>2026-05-01T11:08:52.999Z</time></trkpt><trkpt lat="44.635740375749485" lon="8.783185393315744"><ele>444.0</ele><time>2026-05-01T11:08:53.999Z</time></trkpt><trkpt lat="44.635666783701126" lon="8.783256381061944"><ele>444.0</ele><time>2026-05-01T11:08:55.999Z</time></trkpt><trkpt lat="44.63566905318535" lon="8.783351387739646"><ele>444.0</ele><time>2026-05-01T11:08:56.999Z</time></trkpt><trkpt lat="44.63573925663371" lon="8.783439600355388"><ele>444.0</ele><time>2026-05-01T11:08:57.999Z</time></trkpt><trkpt lat="44.63583071177139" lon="8.78343301298024"><ele>444.0</ele><time>2026-05-01T11:08:58.999Z</time></trkpt><trkpt lat="44.63593191103899" lon="8.783355239297457"><ele>444.0</ele><time>2026-05-01T11:08:59.999Z</time></trkpt><trkpt lat="44.63604447785045" lon="8.783384984650537"><ele>444.0</ele><time>2026-05-01T11:09:00.999Z</time></trkpt><trkpt lat="44.63615007518101" lon="8.783389215038577"><ele>444.0</ele><time>2026-05-01T11:09:01.999Z</time></trkpt><trkpt lat="44.63626029068287" lon="8.783368954763606"><ele>444.0</ele><time>2026-05-01T11:09:02.999Z</time></trkpt><trkpt lat="44.63635929363607" lon="8.783285551684465"><ele>444.0</ele><time>2026-05-01T11:09:03.999Z</time></trkpt><trkpt lat="44.63644610987648" lon="8.783152665845314"><ele>443.79999999999995</ele><time>2026-05-01T11:09:04.999Z</time></trkpt><trkpt lat="44.63654361796688" lon="8.783067980444779"><ele>443.59999999999997</ele><time>2026-05-01T11:09:05.999Z</time></trkpt><trkpt lat="44.63664370094939" lon="8.783037285774666"><ele>443.4</ele><time>2026-05-01T11:09:06.999Z</time></trkpt><trkpt lat="44.63673627447516" lon="8.783010468807975"><ele>443.2</ele><time>2026-05-01T11:09:07.999Z</time></trkpt><trkpt lat="44.636812896316655" lon="8.78308085307591"><ele>443.0</ele><time>2026-05-01T11:09:08.999Z</time></trkpt><trkpt lat="44.63686444056433" lon="8.783201747784847"><ele>443.0</ele><time>2026-05-01T11:09:09.999Z</time></trkpt><trkpt lat="44.63684892739603" lon="8.783373719472246"><ele>443.0</ele><time>2026-05-01T11:09:10.999Z</time></trkpt><trkpt lat="44.63686713216646" lon="8.783557632070226"><ele>443.0</ele><time>2026-05-01T11:09:11.999Z</time></trkpt><trkpt lat="44.63689064643925" lon="8.78376292514154"><ele>443.0</ele><time>2026-05-01T11:09:12.999Z</time></trkpt><trkpt lat="44.636910071052974" lon="8.783987576848286"><ele>442.75</ele><time>2026-05-01T11:09:13.999Z</time></trkpt><trkpt lat="44.63693626609446" lon="8.784207040729274"><ele>442.5</ele><time>2026-05-01T11:09:14.999Z</time></trkpt><trkpt lat="44.63697791006251" lon="8.784390071089378"><ele>442.25</ele><time>2026-05-01T11:09:15.999Z</time></trkpt><trkpt lat="44.637001667917005" lon="8.784554594606865"><ele>442.0</ele><time>2026-05-01T11:09:16.999Z</time></trkpt><trkpt lat="44.63702530220051" lon="8.784712649298786"><ele>442.0</ele><time>2026-05-01T11:09:17.999Z</time></trkpt><trkpt lat="44.63704381794499" lon="8.78487600610842"><ele>442.00000000000006</ele><time>2026-05-01T11:09:18.999Z</time></trkpt><trkpt lat="44.637056778176294" lon="8.785026847766188"><ele>442.00000000000006</ele><time>2026-05-01T11:09:19.999Z</time></trkpt><trkpt lat="44.637060089158226" lon="8.78515049569388"><ele>442.0</ele><time>2026-05-01T11:09:20.999Z</time></trkpt><trkpt lat="44.63704574114539" lon="8.785255459863487"><ele>442.0</ele><time>2026-05-01T11:09:21.999Z</time></trkpt><trkpt lat="44.63701305134895" lon="8.78534557462077"><ele>442.6</ele><time>2026-05-01T11:09:23Z</time></trkpt><trkpt lat="44.63693395399079" lon="8.785392625143876"><ele>443.20000000000005</ele><time>2026-05-01T11:09:24Z</time></trkpt><trkpt lat="44.636841581493826" lon="8.785371265182553"><ele>443.8</ele><time>2026-05-01T11:09:25Z</time></trkpt><trkpt lat="44.63673434783837" lon="8.785396260716555"><ele>444.4</ele><time>2026-05-01T11:09:26Z</time></trkpt><trkpt lat="44.63661216093102" lon="8.78540682788353"><ele>445.0</ele><time>2026-05-01T11:09:27Z</time></trkpt><trkpt lat="44.63648467873125" lon="8.785421338410938"><ele>445.0</ele><time>2026-05-01T11:09:28Z</time></trkpt><trkpt lat="44.63634732278619" lon="8.785431662607456"><ele>445.0</ele><time>2026-05-01T11:09:29Z</time></trkpt><trkpt lat="44.636183794504014" lon="8.785427053337791"><ele>445.0</ele><time>2026-05-01T11:09:30Z</time></trkpt><trkpt lat="44.635997238915465" lon="8.785371697874654"><ele>448.0</ele><time>2026-05-01T11:09:31Z</time></trkpt><trkpt lat="44.63580234133452" lon="8.78529401348961"><ele>451.0</ele><time>2026-05-01T11:09:32Z</time></trkpt><trkpt lat="44.635634083349906" lon="8.785236702367348"><ele>454.0</ele><time>2026-05-01T11:09:33Z</time></trkpt><trkpt lat="44.63547697725241" lon="8.785204802100852"><ele>458.6666666666667</ele><time>2026-05-01T11:09:34Z</time></trkpt><trkpt lat="44.63532640419079" lon="8.785166975463978"><ele>463.33333333333337</ele><time>2026-05-01T11:09:35Z</time></trkpt><trkpt lat="44.63519238425083" lon="8.785070539341948"><ele>468.0</ele><time>2026-05-01T11:09:36Z</time></trkpt><trkpt lat="44.63506019438786" lon="8.784946982831288"><ele>470.66666666666663</ele><time>2026-05-01T11:09:37Z</time></trkpt><trkpt lat="44.6349160210151" lon="8.784795542568462"><ele>473.3333333333333</ele><time>2026-05-01T11:09:38Z</time></trkpt><trkpt lat="44.63475822346895" lon="8.78462337648438"><ele>476.0</ele><time>2026-05-01T11:09:39Z</time></trkpt><trkpt lat="44.634597165767566" lon="8.784430030077473"><ele>481.0</ele><time>2026-05-01T11:09:40Z</time></trkpt><trkpt lat="44.63444422475259" lon="8.784234309905115"><ele>486.0</ele><time>2026-05-01T11:09:41Z</time></trkpt><trkpt lat="44.63431381715795" lon="8.784063130234165"><ele>491.0</ele><time>2026-05-01T11:09:42Z</time></trkpt><trkpt lat="44.6341962698849" lon="8.783909663008748"><ele>491.0</ele><time>2026-05-01T11:09:43Z</time></trkpt><trkpt lat="44.63409239312183" lon="8.783774776127588"><ele>491.0</ele><time>2026-05-01T11:09:44Z</time></trkpt><trkpt lat="44.63401153654758" lon="8.783648964855836"><ele>491.0</ele><time>2026-05-01T11:09:45Z</time></trkpt><trkpt lat="44.63395159195194" lon="8.783513296335585"><ele>491.0</ele><time>2026-05-01T11:09:46Z</time></trkpt><trkpt lat="44.63393223706362" lon="8.783341351210822"><ele>489.5</ele><time>2026-05-01T11:09:47Z</time></trkpt><trkpt lat="44.63388101228765" lon="8.78319865633985"><ele>488.0</ele><time>2026-05-01T11:09:48Z</time></trkpt><trkpt lat="44.633801543024504" lon="8.783070217363544"><ele>486.5</ele><time>2026-05-01T11:09:49Z</time></trkpt><trkpt lat="44.63368042036117" lon="8.782979288016996"><ele>485.0</ele><time>2026-05-01T11:09:50Z</time></trkpt><trkpt lat="44.633550102647526" lon="8.78292574399841"><ele>488.25</ele><time>2026-05-01T11:09:51Z</time></trkpt><trkpt lat="44.633414460627264" lon="8.782907298981286"><ele>491.5</ele><time>2026-05-01T11:09:52Z</time></trkpt><trkpt lat="44.633290299822335" lon="8.782864557886281"><ele>494.75</ele><time>2026-05-01T11:09:53Z</time></trkpt><trkpt lat="44.63319873757223" lon="8.782749907047837"><ele>498.0</ele><time>2026-05-01T11:09:54Z</time></trkpt><trkpt lat="44.633169447387395" lon="8.782569465334587"><ele>498.0</ele><time>2026-05-01T11:09:55Z</time></trkpt><trkpt lat="44.63315065011994" lon="8.782411256530807"><ele>498.0</ele><time>2026-05-01T11:09:56Z</time></trkpt><trkpt lat="44.63311946743896" lon="8.782288255125954"><ele>498.0</ele><time>2026-05-01T11:09:57Z</time></trkpt><trkpt lat="44.63304936123949" lon="8.782185514796074"><ele>498.0</ele><time>2026-05-01T11:09:58Z</time></trkpt><trkpt lat="44.632925120951626" lon="8.782086437315773"><ele>501.5</ele><time>2026-05-01T11:09:59Z</time></trkpt><trkpt lat="44.63280199831971" lon="8.78198082293184"><ele>505.0</ele><time>2026-05-01T11:10:00Z</time></trkpt><trkpt lat="44.632692675450926" lon="8.781869155013153"><ele>508.5</ele><time>2026-05-01T11:10:01Z</time></trkpt><trkpt lat="44.632599098160284" lon="8.781738279519503"><ele>512.0</ele><time>2026-05-01T11:10:02Z</time></trkpt><trkpt lat="44.63252237379102" lon="8.781588612840856"><ele>512.0</ele><time>2026-05-01T11:10:03Z</time></trkpt><trkpt lat="44.632464741601346" lon="8.781412743861983"><ele>512.0</ele><time>2026-05-01T11:10:04Z</time></trkpt><trkpt lat="44.63241650159479" lon="8.78123856411252"><ele>512.0</ele><time>2026-05-01T11:10:05Z</time></trkpt><trkpt lat="44.63234829122836" lon="8.781125595283793"><ele>512.0</ele><time>2026-05-01T11:10:06Z</time></trkpt><trkpt lat="44.632261641660484" lon="8.781097634774124"><ele>512.0</ele><time>2026-05-01T11:10:07Z</time></trkpt><trkpt lat="44.63217453181506" lon="8.781133854002968"><ele>512.0</ele><time>2026-05-01T11:10:08Z</time></trkpt><trkpt lat="44.632072354913085" lon="8.781202381435575"><ele>512.0</ele><time>2026-05-01T11:10:09Z</time></trkpt><trkpt lat="44.63194982241674" lon="8.781306690626444"><ele>512.0</ele><time>2026-05-01T11:10:10Z</time></trkpt><trkpt lat="44.63181933146568" lon="8.781412107667679"><ele>516.0</ele><time>2026-05-01T11:10:11Z</time></trkpt><trkpt lat="44.63170660089481" lon="8.781503894059217"><ele>520.0</ele><time>2026-05-01T11:10:12Z</time></trkpt><trkpt lat="44.63160934490343" lon="8.781559947991182"><ele>524.0</ele><time>2026-05-01T11:10:13Z</time></trkpt><trkpt lat="44.63150055953049" lon="8.781584930534049"><ele>528.0</ele><time>2026-05-01T11:10:14Z</time></trkpt><trkpt lat="44.6313844696199" lon="8.781552382897283"><ele>528.0</ele><time>2026-05-01T11:10:15Z</time></trkpt><trkpt lat="44.631278841428134" lon="8.781537768911617"><ele>528.0</ele><time>2026-05-01T11:10:16Z</time></trkpt><trkpt lat="44.63117825309748" lon="8.781475716510617"><ele>528.0</ele><time>2026-05-01T11:10:17Z</time></trkpt><trkpt lat="44.631073457125034" lon="8.781380191671781"><ele>528.0</ele><time>2026-05-01T11:10:18Z</time></trkpt><trkpt lat="44.630978452386806" lon="8.781293191378442"><ele>529.8</ele><time>2026-05-01T11:10:19Z</time></trkpt><trkpt lat="44.630899009056435" lon="8.781236739427534"><ele>531.5999999999999</ele><time>2026-05-01T11:10:20Z</time></trkpt><trkpt lat="44.630829859936114" lon="8.781203373693321"><ele>533.4000000000001</ele><time>2026-05-01T11:10:21Z</time></trkpt><trkpt lat="44.63075085623148" lon="8.781276003359523"><ele>535.2</ele><time>2026-05-01T11:10:22Z</time></trkpt><trkpt lat="44.63065465599104" lon="8.781385396403065"><ele>537.0</ele><time>2026-05-01T11:10:23Z</time></trkpt><trkpt lat="44.63059002398788" lon="8.781495888696817"><ele>537.0</ele><time>2026-05-01T11:10:24Z</time></trkpt><trkpt lat="44.63054749818272" lon="8.781574793743431"><ele>537.0</ele><time>2026-05-01T11:10:25Z</time></trkpt><trkpt lat="44.63053297191612" lon="8.781667538695991"><ele>537.0</ele><time>2026-05-01T11:10:26Z</time></trkpt><trkpt lat="44.63056209635475" lon="8.781779332405671"><ele>537.0</ele><time>2026-05-01T11:10:27Z</time></trkpt><trkpt lat="44.63063688318915" lon="8.7818686364406"><ele>537.0</ele><time>2026-05-01T11:10:28Z</time></trkpt><trkpt lat="44.630732997864584" lon="8.781905882199082"><ele>537.0</ele><time>2026-05-01T11:10:29Z</time></trkpt><trkpt lat="44.63083656933516" lon="8.781885788837386"><ele>537.0</ele><time>2026-05-01T11:10:30Z</time></trkpt><trkpt lat="44.63088833015068" lon="8.781747218534997"><ele>537.0</ele><time>2026-05-01T11:10:31Z</time></trkpt><trkpt lat="44.63090768941147" lon="8.78163702420581"><ele>537.0</ele><time>2026-05-01T11:10:32Z</time></trkpt><trkpt lat="44.63097523758768" lon="8.781604537904968"><ele>537.0</ele><time>2026-05-01T11:10:33Z</time></trkpt><trkpt lat="44.631077029793275" lon="8.781715326380478"><ele>537.0</ele><time>2026-05-01T11:10:35Z</time></trkpt><trkpt lat="44.63117217219798" lon="8.781850949128042"><ele>540.3333333333334</ele><time>2026-05-01T11:10:36Z</time></trkpt><trkpt lat="44.631275941954584" lon="8.782031388366024"><ele>543.6666666666667</ele><time>2026-05-01T11:10:37Z</time></trkpt><trkpt lat="44.63137397737424" lon="8.782196620021681"><ele>547.0</ele><time>2026-05-01T11:10:38Z</time></trkpt><trkpt lat="44.631431445134815" lon="8.782375807165828"><ele>547.0</ele><time>2026-05-01T11:10:39.999Z</time></trkpt><trkpt lat="44.63150293271833" lon="8.782464643440873"><ele>547.0</ele><time>2026-05-01T11:10:40.999Z</time></trkpt><trkpt lat="44.63160011882585" lon="8.782502563821456"><ele>547.0</ele><time>2026-05-01T11:10:41.999Z</time></trkpt><trkpt lat="44.63172098997889" lon="8.782478493082253"><ele>547.0</ele><time>2026-05-01T11:10:42.999Z</time></trkpt><trkpt lat="44.631821456844165" lon="8.782539013154093"><ele>547.0</ele><time>2026-05-01T11:10:43.999Z</time></trkpt><trkpt lat="44.63188366601976" lon="8.782696990449598"><ele>547.6</ele><time>2026-05-01T11:10:44.999Z</time></trkpt><trkpt lat="44.63192212880846" lon="8.782877723626116"><ele>548.2</ele><time>2026-05-01T11:10:45.999Z</time></trkpt><trkpt lat="44.63196722986674" lon="8.783030678724824"><ele>548.8</ele><time>2026-05-01T11:10:46.999Z</time></trkpt><trkpt lat="44.631999878874964" lon="8.783163561445894"><ele>549.4</ele><time>2026-05-01T11:10:47.999Z</time></trkpt><trkpt lat="44.6320200896447" lon="8.783295329258337"><ele>550.0</ele><time>2026-05-01T11:10:48.999Z</time></trkpt><trkpt lat="44.63200459047845" lon="8.783408686871587"><ele>550.0</ele><time>2026-05-01T11:10:49.999Z</time></trkpt><trkpt lat="44.6319363163766" lon="8.783498099423497"><ele>550.0</ele><time>2026-05-01T11:10:50.999Z</time></trkpt><trkpt lat="44.63182180547509" lon="8.783513006820417"><ele>550.0</ele><time>2026-05-01T11:10:51.999Z</time></trkpt><trkpt lat="44.63169759522092" lon="8.783456639177732"><ele>550.0</ele><time>2026-05-01T11:10:52.999Z</time></trkpt><trkpt lat="44.631535548637586" lon="8.783444796557282"><ele>550.0</ele><time>2026-05-01T11:10:53.999Z</time></trkpt><trkpt lat="44.6313912496727" lon="8.783422545073392"><ele>550.0</ele><time>2026-05-01T11:10:54.999Z</time></trkpt><trkpt lat="44.63126473211158" lon="8.78335335357893"><ele>550.0</ele><time>2026-05-01T11:10:55.999Z</time></trkpt><trkpt lat="44.63113815241879" lon="8.783275608781313"><ele>550.0</ele><time>2026-05-01T11:10:56.999Z</time></trkpt><trkpt lat="44.63098105746288" lon="8.783213067885574"><ele>551.6666666666667</ele><time>2026-05-01T11:10:57.999Z</time></trkpt><trkpt lat="44.630817829898085" lon="8.783188806571696"><ele>553.3333333333334</ele><time>2026-05-01T11:10:58.999Z</time></trkpt><trkpt lat="44.630664669086066" lon="8.783165055348825"><ele>555.0</ele><time>2026-05-01T11:10:59.999Z</time></trkpt><trkpt lat="44.63052449587922" lon="8.783126604679873"><ele>555.0</ele><time>2026-05-01T11:11:00.999Z</time></trkpt><trkpt lat="44.63038685894614" lon="8.783072167492172"><ele>555.0</ele><time>2026-05-01T11:11:01.999Z</time></trkpt><trkpt lat="44.63025775562567" lon="8.78299122798646"><ele>555.0</ele><time>2026-05-01T11:11:02.999Z</time></trkpt><trkpt lat="44.630166152424145" lon="8.78282410750007"><ele>555.0</ele><time>2026-05-01T11:11:03.999Z</time></trkpt><trkpt lat="44.630053413191575" lon="8.782664242404229"><ele>560.0</ele><time>2026-05-01T11:11:04.999Z</time></trkpt><trkpt lat="44.62995051166738" lon="8.782466132079398"><ele>565.0</ele><time>2026-05-01T11:11:05.999Z</time></trkpt><trkpt lat="44.629833454459416" lon="8.782270355430501"><ele>570.0</ele><time>2026-05-01T11:11:06.999Z</time></trkpt><trkpt lat="44.62972406024116" lon="8.782077198741478"><ele>570.0</ele><time>2026-05-01T11:11:07.999Z</time></trkpt><trkpt lat="44.62962537325126" lon="8.781906906157836"><ele>570.0</ele><time>2026-05-01T11:11:08.999Z</time></trkpt><trkpt lat="44.62954156142766" lon="8.78175434542428"><ele>570.0</ele><time>2026-05-01T11:11:09.999Z</time></trkpt><trkpt lat="44.62945029905316" lon="8.781625621129692"><ele>570.0</ele><time>2026-05-01T11:11:10.999Z</time></trkpt><trkpt lat="44.62932310325847" lon="8.78153118223976"><ele>575.5</ele><time>2026-05-01T11:11:11.999Z</time></trkpt><trkpt lat="44.629176048836804" lon="8.781451764081764"><ele>581.0</ele><time>2026-05-01T11:11:12.999Z</time></trkpt><trkpt lat="44.62904895891786" lon="8.78134454106135"><ele>586.5</ele><time>2026-05-01T11:11:13.999Z</time></trkpt><trkpt lat="44.62893962192313" lon="8.781225881424213"><ele>592.0</ele><time>2026-05-01T11:11:14.999Z</time></trkpt><trkpt lat="44.628840786062895" lon="8.781123656072968"><ele>592.0</ele><time>2026-05-01T11:11:15.999Z</time></trkpt><trkpt lat="44.62874148654374" lon="8.781028887366606"><ele>592.0</ele><time>2026-05-01T11:11:16.999Z</time></trkpt><trkpt lat="44.62866057872055" lon="8.78091797269875"><ele>592.0</ele><time>2026-05-01T11:11:17.999Z</time></trkpt><trkpt lat="44.62863190706482" lon="8.780738035176656"><ele>592.0</ele><time>2026-05-01T11:11:18.999Z</time></trkpt><trkpt lat="44.628596659040895" lon="8.780522708508194"><ele>595.25</ele><time>2026-05-01T11:11:19.999Z</time></trkpt><trkpt lat="44.62858854641714" lon="8.780315739471458"><ele>598.5</ele><time>2026-05-01T11:11:20.999Z</time></trkpt><trkpt lat="44.62863578451427" lon="8.780131586071436"><ele>601.75</ele><time>2026-05-01T11:11:21.999Z</time></trkpt><trkpt lat="44.62865735671829" lon="8.779960790604164"><ele>605.0</ele><time>2026-05-01T11:11:22.999Z</time></trkpt><trkpt lat="44.62864524967365" lon="8.779779953616913"><ele>605.0</ele><time>2026-05-01T11:11:23.999Z</time></trkpt><trkpt lat="44.62859028558858" lon="8.779631259346482"><ele>605.0</ele><time>2026-05-01T11:11:24.999Z</time></trkpt><trkpt lat="44.62852621296402" lon="8.779530158686029"><ele>605.0</ele><time>2026-05-01T11:11:25.999Z</time></trkpt><trkpt lat="44.62843257167829" lon="8.779524243252547"><ele>605.0</ele><time>2026-05-01T11:11:26.999Z</time></trkpt><trkpt lat="44.62831787735757" lon="8.779593751993485"><ele>605.0</ele><time>2026-05-01T11:11:27.999Z</time></trkpt><trkpt lat="44.628181134309614" lon="8.779705561711436"><ele>605.0</ele><time>2026-05-01T11:11:29Z</time></trkpt><trkpt lat="44.62802030844977" lon="8.779768283937182"><ele>605.0</ele><time>2026-05-01T11:11:30Z</time></trkpt><trkpt lat="44.62787423087273" lon="8.779766619261085"><ele>605.0</ele><time>2026-05-01T11:11:31Z</time></trkpt><trkpt lat="44.62773720483847" lon="8.779721846256733"><ele>610.6666666666666</ele><time>2026-05-01T11:11:32Z</time></trkpt><trkpt lat="44.62760113141015" lon="8.779648157395544"><ele>616.3333333333334</ele><time>2026-05-01T11:11:33Z</time></trkpt><trkpt lat="44.62744657596105" lon="8.779564756366582"><ele>622.0</ele><time>2026-05-01T11:11:34Z</time></trkpt><trkpt lat="44.627307777253534" lon="8.779450518812071"><ele>625.5</ele><time>2026-05-01T11:11:35Z</time></trkpt><trkpt lat="44.62720402671421" lon="8.779300376581904"><ele>629.0</ele><time>2026-05-01T11:11:36Z</time></trkpt><trkpt lat="44.627116829756226" lon="8.779150793301973"><ele>632.5</ele><time>2026-05-01T11:11:37Z</time></trkpt><trkpt lat="44.627030865706516" lon="8.778987920470257"><ele>636.0</ele><time>2026-05-01T11:11:38Z</time></trkpt><trkpt lat="44.62695970491673" lon="8.778794968103854"><ele>636.0</ele><time>2026-05-01T11:11:39Z</time></trkpt><trkpt lat="44.62689535815289" lon="8.778589659505501"><ele>636.0</ele><time>2026-05-01T11:11:40Z</time></trkpt><trkpt lat="44.626841709513776" lon="8.778386590288024"><ele>636.0</ele><time>2026-05-01T11:11:41Z</time></trkpt><trkpt lat="44.62679466953025" lon="8.778184072478295"><ele>633.75</ele><time>2026-05-01T11:11:42Z</time></trkpt><trkpt lat="44.626781468226596" lon="8.777984046458196"><ele>631.5</ele><time>2026-05-01T11:11:43Z</time></trkpt><trkpt lat="44.62679057069521" lon="8.777797692493678"><ele>629.25</ele><time>2026-05-01T11:11:44Z</time></trkpt><trkpt lat="44.62679667412041" lon="8.77762638393831"><ele>627.0</ele><time>2026-05-01T11:11:45Z</time></trkpt><trkpt lat="44.626827267788585" lon="8.77747574441397"><ele>625.6666666666666</ele><time>2026-05-01T11:11:46Z</time></trkpt><trkpt lat="44.62685400362523" lon="8.777363521760304"><ele>624.3333333333334</ele><time>2026-05-01T11:11:47Z</time></trkpt><trkpt lat="44.626852375475444" lon="8.777264835943864"><ele>623.0</ele><time>2026-05-01T11:11:48Z</time></trkpt><trkpt lat="44.626805566251555" lon="8.777193357537124"><ele>621.6666666666667</ele><time>2026-05-01T11:11:49Z</time></trkpt><trkpt lat="44.62671944706559" lon="8.777160342177423"><ele>620.3333333333334</ele><time>2026-05-01T11:11:50Z</time></trkpt><trkpt lat="44.62660891922945" lon="8.777216804334302"><ele>619.0</ele><time>2026-05-01T11:11:51Z</time></trkpt><trkpt lat="44.626527466055535" lon="8.777326561559946"><ele>619.0</ele><time>2026-05-01T11:11:52Z</time></trkpt><trkpt lat="44.62642439394032" lon="8.777445307992364"><ele>619.0</ele><time>2026-05-01T11:11:53Z</time></trkpt><trkpt lat="44.62629857856287" lon="8.777584505472023"><ele>619.0</ele><time>2026-05-01T11:11:54Z</time></trkpt><trkpt lat="44.62616194702413" lon="8.777723713975423"><ele>625.0</ele><time>2026-05-01T11:11:55Z</time></trkpt><trkpt lat="44.62601965762055" lon="8.777863949318327"><ele>631.0</ele><time>2026-05-01T11:11:56Z</time></trkpt><trkpt lat="44.625889989057164" lon="8.778000019529399"><ele>637.0</ele><time>2026-05-01T11:11:57Z</time></trkpt><trkpt lat="44.62576417838403" lon="8.778098090620816"><ele>637.0</ele><time>2026-05-01T11:11:58Z</time></trkpt><trkpt lat="44.62564465799722" lon="8.778153175779506"><ele>637.0</ele><time>2026-05-01T11:11:59Z</time></trkpt><trkpt lat="44.62554351048495" lon="8.778229124738068"><ele>637.0</ele><time>2026-05-01T11:12:00Z</time></trkpt><trkpt lat="44.62544769412724" lon="8.778287257201072"><ele>637.0</ele><time>2026-05-01T11:12:01Z</time></trkpt><trkpt lat="44.62538636254817" lon="8.778404541957649"><ele>637.0</ele><time>2026-05-01T11:12:02Z</time></trkpt><trkpt lat="44.62536194491811" lon="8.778580663421982"><ele>640.6666666666667</ele><time>2026-05-01T11:12:03Z</time></trkpt><trkpt lat="44.62539003537595" lon="8.778786246662703"><ele>644.3333333333334</ele><time>2026-05-01T11:12:04Z</time></trkpt><trkpt lat="44.6254423060446" lon="8.779008453461845"><ele>648.0</ele><time>2026-05-01T11:12:05Z</time></trkpt><trkpt lat="44.62543149415741" lon="8.779225212429422"><ele>649.5</ele><time>2026-05-01T11:12:06Z</time></trkpt><trkpt lat="44.625394654246385" lon="8.779449536531308"><ele>651.0</ele><time>2026-05-01T11:12:07Z</time></trkpt><trkpt lat="44.62532259437859" lon="8.779637552784036"><ele>652.5</ele><time>2026-05-01T11:12:08Z</time></trkpt><trkpt lat="44.625279615157005" lon="8.779804630189755"><ele>654.0</ele><time>2026-05-01T11:12:09Z</time></trkpt><trkpt lat="44.62523315692373" lon="8.779921913637857"><ele>654.0</ele><time>2026-05-01T11:12:10Z</time></trkpt><trkpt lat="44.62525228237389" lon="8.780034814294046"><ele>654.0</ele><time>2026-05-01T11:12:11Z</time></trkpt><trkpt lat="44.62532194910017" lon="8.780156922301304"><ele>654.0</ele><time>2026-05-01T11:12:12Z</time></trkpt><trkpt lat="44.62545674361437" lon="8.780271764529035"><ele>654.0</ele><time>2026-05-01T11:12:13Z</time></trkpt><trkpt lat="44.625600947914776" lon="8.78038956497284"><ele>652.0</ele><time>2026-05-01T11:12:14Z</time></trkpt><trkpt lat="44.625699802339554" lon="8.7805535628462"><ele>650.0</ele><time>2026-05-01T11:12:15Z</time></trkpt><trkpt lat="44.62578307647059" lon="8.780732576827619"><ele>648.0</ele><time>2026-05-01T11:12:16Z</time></trkpt><trkpt lat="44.62583505720687" lon="8.780937055178754"><ele>648.3333333333334</ele><time>2026-05-01T11:12:17Z</time></trkpt><trkpt lat="44.62584336623094" lon="8.781175141598888"><ele>648.6666666666667</ele><time>2026-05-01T11:12:18Z</time></trkpt><trkpt lat="44.625843506751046" lon="8.781458576577204"><ele>649.0</ele><time>2026-05-01T11:12:19Z</time></trkpt><trkpt lat="44.62584494485876" lon="8.781752544762128"><ele>649.3333333333334</ele><time>2026-05-01T11:12:20Z</time></trkpt><trkpt lat="44.625841439510715" lon="8.782022029017014"><ele>649.6666666666666</ele><time>2026-05-01T11:12:21Z</time></trkpt><trkpt lat="44.625845740102804" lon="8.782272702651563"><ele>650.0</ele><time>2026-05-01T11:12:22Z</time></trkpt><trkpt lat="44.625824643807135" lon="8.782520734012492"><ele>651.0</ele><time>2026-05-01T11:12:23Z</time></trkpt><trkpt lat="44.62581141063559" lon="8.782789405813148"><ele>652.0</ele><time>2026-05-01T11:12:24Z</time></trkpt><trkpt lat="44.62577686223806" lon="8.783081985201695"><ele>653.0</ele><time>2026-05-01T11:12:25Z</time></trkpt><trkpt lat="44.62576946721115" lon="8.783402680136946"><ele>653.5</ele><time>2026-05-01T11:12:26Z</time></trkpt><trkpt lat="44.6257388754636" lon="8.783731618598736"><ele>654.0</ele><time>2026-05-01T11:12:27Z</time></trkpt><trkpt lat="44.62568759041767" lon="8.784041888120683"><ele>654.0</ele><time>2026-05-01T11:12:28Z</time></trkpt><trkpt lat="44.625640738227716" lon="8.784326268147014"><ele>654.0</ele><time>2026-05-01T11:12:29Z</time></trkpt><trkpt lat="44.62559105396202" lon="8.784589089306689"><ele>654.0</ele><time>2026-05-01T11:12:30Z</time></trkpt><trkpt lat="44.62555464499995" lon="8.784837048686834"><ele>654.3333333333334</ele><time>2026-05-01T11:12:31Z</time></trkpt><trkpt lat="44.6254795047264" lon="8.785048779842242"><ele>654.6666666666667</ele><time>2026-05-01T11:12:32Z</time></trkpt><trkpt lat="44.625406550077905" lon="8.785259879591633"><ele>655.0</ele><time>2026-05-01T11:12:33Z</time></trkpt><trkpt lat="44.62532831687132" lon="8.785468193448411"><ele>658.5</ele><time>2026-05-01T11:12:34Z</time></trkpt><trkpt lat="44.62525908638533" lon="8.785666968301118"><ele>662.0</ele><time>2026-05-01T11:12:35Z</time></trkpt><trkpt lat="44.62516218858519" lon="8.785817958470851"><ele>665.5</ele><time>2026-05-01T11:12:36Z</time></trkpt><trkpt lat="44.62508292390578" lon="8.785955343570821"><ele>669.0</ele><time>2026-05-01T11:12:37Z</time></trkpt><trkpt lat="44.62499213637376" lon="8.786073406673689"><ele>671.0</ele><time>2026-05-01T11:12:37.999Z</time></trkpt><trkpt lat="44.62488791230297" lon="8.78617313387306"><ele>673.0</ele><time>2026-05-01T11:12:38.999Z</time></trkpt><trkpt lat="44.62474623147838" lon="8.786181899528453"><ele>675.0</ele><time>2026-05-01T11:12:39.999Z</time></trkpt><trkpt lat="44.62461722759333" lon="8.786101575798325"><ele>677.0</ele><time>2026-05-01T11:12:40.999Z</time></trkpt><trkpt lat="44.62452087017628" lon="8.786034684867397"><ele>675.25</ele><time>2026-05-01T11:12:41.999Z</time></trkpt><trkpt lat="44.62443424628722" lon="8.786048153552482"><ele>673.5</ele><time>2026-05-01T11:12:42.999Z</time></trkpt><trkpt lat="44.62436195610658" lon="8.786162686015691"><ele>671.75</ele><time>2026-05-01T11:12:43.999Z</time></trkpt><trkpt lat="44.624266774936714" lon="8.786343381730164"><ele>670.0</ele><time>2026-05-01T11:12:44.999Z</time></trkpt><trkpt lat="44.6243405779932" lon="8.78662664593162"><ele>673.3333333333334</ele><time>2026-05-01T11:12:45.999Z</time></trkpt><trkpt lat="44.62434275808278" lon="8.78688126006622"><ele>676.6666666666666</ele><time>2026-05-01T11:12:46.999Z</time></trkpt><trkpt lat="44.62433840045248" lon="8.787143281120258"><ele>680.0</ele><time>2026-05-01T11:12:47.999Z</time></trkpt><trkpt lat="44.6243245735425" lon="8.787395496359792"><ele>680.0</ele><time>2026-05-01T11:12:48.999Z</time></trkpt><trkpt lat="44.62425793804997" lon="8.7876277014714"><ele>680.0</ele><time>2026-05-01T11:12:49.999Z</time></trkpt><trkpt lat="44.62420795272592" lon="8.787864246634374"><ele>680.0</ele><time>2026-05-01T11:12:50.999Z</time></trkpt><trkpt lat="44.62414908977465" lon="8.788066301414606"><ele>683.25</ele><time>2026-05-01T11:12:51.999Z</time></trkpt><trkpt lat="44.62406563499144" lon="8.788219589556652"><ele>686.5</ele><time>2026-05-01T11:12:52.999Z</time></trkpt><trkpt lat="44.6239724610389" lon="8.78836052352071"><ele>689.75</ele><time>2026-05-01T11:12:53.999Z</time></trkpt><trkpt lat="44.62390921959442" lon="8.788508574153376"><ele>693.0</ele><time>2026-05-01T11:12:54.999Z</time></trkpt><trkpt lat="44.62389024695807" lon="8.788704762643928"><ele>697.3333333333334</ele><time>2026-05-01T11:12:55.999Z</time></trkpt><trkpt lat="44.623912109524795" lon="8.788951260761733"><ele>701.6666666666667</ele><time>2026-05-01T11:12:56.999Z</time></trkpt><trkpt lat="44.62387101916217" lon="8.789177628312002"><ele>706.0</ele><time>2026-05-01T11:12:57.999Z</time></trkpt><trkpt lat="44.623824220290544" lon="8.789386790408216"><ele>707.0</ele><time>2026-05-01T11:12:58.999Z</time></trkpt><trkpt lat="44.62375379353817" lon="8.789585399589043"><ele>708.0</ele><time>2026-05-01T11:12:59.999Z</time></trkpt><trkpt lat="44.623661414055" lon="8.789787420266045"><ele>709.0</ele><time>2026-05-01T11:13:00.999Z</time></trkpt><trkpt lat="44.62353406904386" lon="8.789937958137779"><ele>706.3333333333334</ele><time>2026-05-01T11:13:01.999Z</time></trkpt><trkpt lat="44.623390870085885" lon="8.790052652346397"><ele>703.6666666666666</ele><time>2026-05-01T11:13:02.999Z</time></trkpt><trkpt lat="44.623232363148546" lon="8.79017270971163"><ele>701.0</ele><time>2026-05-01T11:13:03.999Z</time></trkpt><trkpt lat="44.623073420707" lon="8.790304023410544"><ele>700.3333333333333</ele><time>2026-05-01T11:13:04.999Z</time></trkpt><trkpt lat="44.62291619943796" lon="8.790410496864093"><ele>699.6666666666666</ele><time>2026-05-01T11:13:05.999Z</time></trkpt><trkpt lat="44.62275669019835" lon="8.790505316849952"><ele>699.0</ele><time>2026-05-01T11:13:06.999Z</time></trkpt><trkpt lat="44.62258601404668" lon="8.790588920521387"><ele>700.6666666666666</ele><time>2026-05-01T11:13:07.999Z</time></trkpt><trkpt lat="44.62239799249596" lon="8.790661972040352"><ele>702.3333333333333</ele><time>2026-05-01T11:13:08.999Z</time></trkpt><trkpt lat="44.622203785337156" lon="8.790704107701128"><ele>704.0</ele><time>2026-05-01T11:13:09.999Z</time></trkpt><trkpt lat="44.622018950206005" lon="8.79074280551935"><ele>707.6666666666666</ele><time>2026-05-01T11:13:10.999Z</time></trkpt><trkpt lat="44.62184276325883" lon="8.790792379879814"><ele>711.3333333333334</ele><time>2026-05-01T11:13:11.999Z</time></trkpt><trkpt lat="44.62167228814748" lon="8.790846586355663"><ele>715.0</ele><time>2026-05-01T11:13:12.999Z</time></trkpt><trkpt lat="44.62151517539478" lon="8.790909472045962"><ele>715.0</ele><time>2026-05-01T11:13:13.999Z</time></trkpt><trkpt lat="44.62135570617538" lon="8.79097985772777"><ele>715.0</ele><time>2026-05-01T11:13:14.999Z</time></trkpt><trkpt lat="44.62116982335626" lon="8.791057133487213"><ele>715.0</ele><time>2026-05-01T11:13:15.999Z</time></trkpt><trkpt lat="44.62099094161326" lon="8.791127727800406"><ele>716.25</ele><time>2026-05-01T11:13:16.999Z</time></trkpt><trkpt lat="44.62089428637489" lon="8.791150988026383"><ele>717.5</ele><time>2026-05-01T11:13:17.999Z</time></trkpt><trkpt lat="44.62077922466127" lon="8.791149816013558"><ele>718.75</ele><time>2026-05-01T11:13:18.999Z</time></trkpt><trkpt lat="44.62058785280316" lon="8.791087846430502"><ele>720.0</ele><time>2026-05-01T11:13:19.999Z</time></trkpt><trkpt lat="44.620439062734334" lon="8.7909975754906"><ele>725.0</ele><time>2026-05-01T11:13:20.999Z</time></trkpt><trkpt lat="44.62029289984019" lon="8.790869728971892"><ele>730.0</ele><time>2026-05-01T11:13:21.999Z</time></trkpt><trkpt lat="44.62010976564718" lon="8.7907784384061"><ele>735.0</ele><time>2026-05-01T11:13:22.999Z</time></trkpt><trkpt lat="44.61992124076079" lon="8.790703790044025"><ele>735.0</ele><time>2026-05-01T11:13:23.999Z</time></trkpt><trkpt lat="44.61977161158135" lon="8.790586638687333"><ele>735.0</ele><time>2026-05-01T11:13:24.999Z</time></trkpt><trkpt lat="44.61963904771778" lon="8.790467756112186"><ele>735.0</ele><time>2026-05-01T11:13:25.999Z</time></trkpt><trkpt lat="44.619535790550856" lon="8.790358653301976"><ele>735.75</ele><time>2026-05-01T11:13:26.999Z</time></trkpt><trkpt lat="44.61944221479802" lon="8.790290451464491"><ele>736.5</ele><time>2026-05-01T11:13:27.999Z</time></trkpt><trkpt lat="44.61934329090143" lon="8.790273281319338"><ele>737.25</ele><time>2026-05-01T11:13:28.999Z</time></trkpt><trkpt lat="44.61922780320939" lon="8.790348958293349"><ele>738.0</ele><time>2026-05-01T11:13:29.999Z</time></trkpt><trkpt lat="44.61908162682485" lon="8.790509769988969"><ele>738.0</ele><time>2026-05-01T11:13:30.999Z</time></trkpt><trkpt lat="44.618917517888256" lon="8.790705992081163"><ele>738.0</ele><time>2026-05-01T11:13:31.999Z</time></trkpt><trkpt lat="44.61875974366691" lon="8.790885392925537"><ele>738.0</ele><time>2026-05-01T11:13:32.999Z</time></trkpt><trkpt lat="44.61863342585799" lon="8.791064897297195"><ele>732.6666666666666</ele><time>2026-05-01T11:13:34Z</time></trkpt><trkpt lat="44.61855382125599" lon="8.791270974443426"><ele>727.3333333333333</ele><time>2026-05-01T11:13:35Z</time></trkpt><trkpt lat="44.618530368992985" lon="8.79151256336455"><ele>722.0</ele><time>2026-05-01T11:13:36Z</time></trkpt><trkpt lat="44.61849093274848" lon="8.791742170317809"><ele>726.75</ele><time>2026-05-01T11:13:37Z</time></trkpt><trkpt lat="44.61841958255902" lon="8.791925145395608"><ele>731.5</ele><time>2026-05-01T11:13:38Z</time></trkpt><trkpt lat="44.618366303585184" lon="8.792102910287"><ele>736.25</ele><time>2026-05-01T11:13:39Z</time></trkpt><trkpt lat="44.61832243656576" lon="8.792273725749697"><ele>741.0</ele><time>2026-05-01T11:13:40Z</time></trkpt><trkpt lat="44.61828334904196" lon="8.79245136393824"><ele>741.0</ele><time>2026-05-01T11:13:41Z</time></trkpt><trkpt lat="44.61818799132631" lon="8.792597175496244"><ele>741.0</ele><time>2026-05-01T11:13:42Z</time></trkpt><trkpt lat="44.61804308027676" lon="8.792718973409368"><ele>741.0</ele><time>2026-05-01T11:13:43Z</time></trkpt><trkpt lat="44.61789552356212" lon="8.7928212208674"><ele>740.5</ele><time>2026-05-01T11:13:44Z</time></trkpt><trkpt lat="44.61775406396639" lon="8.792839593607882"><ele>740.0</ele><time>2026-05-01T11:13:45Z</time></trkpt><trkpt lat="44.61761691906715" lon="8.792869806012275"><ele>739.5</ele><time>2026-05-01T11:13:46Z</time></trkpt><trkpt lat="44.61748723773936" lon="8.792881680762287"><ele>739.0</ele><time>2026-05-01T11:13:47Z</time></trkpt><trkpt lat="44.617367127725814" lon="8.79298804215878"><ele>739.0</ele><time>2026-05-01T11:13:48Z</time></trkpt><trkpt lat="44.61724444858034" lon="8.793159016823886"><ele>739.0</ele><time>2026-05-01T11:13:49Z</time></trkpt><trkpt lat="44.6171469354647" lon="8.793353659040525"><ele>739.0</ele><time>2026-05-01T11:13:50Z</time></trkpt><trkpt lat="44.617002251538054" lon="8.793469928718784"><ele>738.3333333333334</ele><time>2026-05-01T11:13:51Z</time></trkpt><trkpt lat="44.61685545819129" lon="8.793559216379643"><ele>737.6666666666666</ele><time>2026-05-01T11:13:52Z</time></trkpt><trkpt lat="44.61671737457192" lon="8.79366678495441"><ele>737.0</ele><time>2026-05-01T11:13:53Z</time></trkpt><trkpt lat="44.61658532842702" lon="8.793772280032952"><ele>737.0</ele><time>2026-05-01T11:13:54Z</time></trkpt><trkpt lat="44.616468118803866" lon="8.793901472957009"><ele>737.0</ele><time>2026-05-01T11:13:55Z</time></trkpt><trkpt lat="44.61634289143527" lon="8.79400755583647"><ele>737.0</ele><time>2026-05-01T11:13:56Z</time></trkpt><trkpt lat="44.61619073224959" lon="8.793983344356796"><ele>737.0</ele><time>2026-05-01T11:13:57Z</time></trkpt><trkpt lat="44.61602897831675" lon="8.79401022320932"><ele>733.0</ele><time>2026-05-01T11:13:58Z</time></trkpt><trkpt lat="44.61587908719724" lon="8.794003859506589"><ele>729.0</ele><time>2026-05-01T11:13:59Z</time></trkpt><trkpt lat="44.61573151500028" lon="8.794002065951815"><ele>725.0</ele><time>2026-05-01T11:14:00Z</time></trkpt><trkpt lat="44.61557432919246" lon="8.793994080119786"><ele>725.0</ele><time>2026-05-01T11:14:01Z</time></trkpt><trkpt lat="44.61541152285226" lon="8.793979440992382"><ele>725.0</ele><time>2026-05-01T11:14:02Z</time></trkpt><trkpt lat="44.61525189569675" lon="8.793967124686594"><ele>725.0</ele><time>2026-05-01T11:14:03Z</time></trkpt><trkpt lat="44.61509330984588" lon="8.793971923193475"><ele>723.25</ele><time>2026-05-01T11:14:04Z</time></trkpt><trkpt lat="44.61494811505447" lon="8.794004110895251"><ele>721.5</ele><time>2026-05-01T11:14:05Z</time></trkpt><trkpt lat="44.614824275745036" lon="8.79406685241195"><ele>719.75</ele><time>2026-05-01T11:14:06Z</time></trkpt><trkpt lat="44.614726304196445" lon="8.79417414133947"><ele>718.0</ele><time>2026-05-01T11:14:07Z</time></trkpt><trkpt lat="44.61467243635518" lon="8.794359943825473"><ele>724.0</ele><time>2026-05-01T11:14:08Z</time></trkpt><trkpt lat="44.6146350013405" lon="8.794587165174615"><ele>730.0</ele><time>2026-05-01T11:14:09Z</time></trkpt><trkpt lat="44.614565721881625" lon="8.79485963614662"><ele>736.0</ele><time>2026-05-01T11:14:10Z</time></trkpt><trkpt lat="44.61450584689491" lon="8.7950696783127"><ele>726.6666666666667</ele><time>2026-05-01T11:14:11Z</time></trkpt><trkpt lat="44.61444010662346" lon="8.795303973378712"><ele>717.3333333333334</ele><time>2026-05-01T11:14:12Z</time></trkpt><trkpt lat="44.61439438746909" lon="8.795529634392222"><ele>708.0</ele><time>2026-05-01T11:14:13Z</time></trkpt><trkpt lat="44.61430919150961" lon="8.79571168213275"><ele>708.0</ele><time>2026-05-01T11:14:14Z</time></trkpt><trkpt lat="44.614216505623645" lon="8.795881416563182"><ele>708.0</ele><time>2026-05-01T11:14:15Z</time></trkpt><trkpt lat="44.61415147837981" lon="8.79606677665566"><ele>708.0</ele><time>2026-05-01T11:14:16Z</time></trkpt><trkpt lat="44.61411762170545" lon="8.79626580528559"><ele>708.0</ele><time>2026-05-01T11:14:17Z</time></trkpt><trkpt lat="44.6141191545129" lon="8.796471923545555"><ele>711.25</ele><time>2026-05-01T11:14:18Z</time></trkpt><trkpt lat="44.6140615901779" lon="8.79663189347137"><ele>714.5</ele><time>2026-05-01T11:14:19Z</time></trkpt><trkpt lat="44.61398968215415" lon="8.796774698330939"><ele>717.75</ele><time>2026-05-01T11:14:20Z</time></trkpt><trkpt lat="44.61393651568267" lon="8.796922714835533"><ele>721.0</ele><time>2026-05-01T11:14:21Z</time></trkpt><trkpt lat="44.61390997192327" lon="8.797082434806164"><ele>720.3333333333334</ele><time>2026-05-01T11:14:22Z</time></trkpt><trkpt lat="44.61393358496611" lon="8.797276444041643"><ele>719.6666666666666</ele><time>2026-05-01T11:14:23Z</time></trkpt><trkpt lat="44.613966235973884" lon="8.797503227389887"><ele>719.0</ele><time>2026-05-01T11:14:24Z</time></trkpt><trkpt lat="44.61398777073542" lon="8.797733103934894"><ele>719.0</ele><time>2026-05-01T11:14:25Z</time></trkpt><trkpt lat="44.61396366230306" lon="8.79794678904428"><ele>719.0</ele><time>2026-05-01T11:14:26Z</time></trkpt><trkpt lat="44.6139494542267" lon="8.798159307194029"><ele>719.0</ele><time>2026-05-01T11:14:27Z</time></trkpt><trkpt lat="44.61396181533929" lon="8.798365324760589"><ele>716.5</ele><time>2026-05-01T11:14:28Z</time></trkpt><trkpt lat="44.61396694542645" lon="8.798568430585327"><ele>714.0</ele><time>2026-05-01T11:14:29Z</time></trkpt><trkpt lat="44.61395181909725" lon="8.798764443061822"><ele>711.5</ele><time>2026-05-01T11:14:30Z</time></trkpt><trkpt lat="44.61391575300096" lon="8.798943017016754"><ele>709.0</ele><time>2026-05-01T11:14:31Z</time></trkpt><trkpt lat="44.613852514019186" lon="8.799101144732157"><ele>709.0</ele><time>2026-05-01T11:14:32Z</time></trkpt><trkpt lat="44.61375423553313" lon="8.799196172038023"><ele>709.0</ele><time>2026-05-01T11:14:33Z</time></trkpt><trkpt lat="44.613636512328846" lon="8.79928736819031"><ele>709.0</ele><time>2026-05-01T11:14:34Z</time></trkpt><trkpt lat="44.6134603815624" lon="8.799226095947274"><ele>709.0</ele><time>2026-05-01T11:14:35Z</time></trkpt><trkpt lat="44.613286713777015" lon="8.799229877351882"><ele>705.5</ele><time>2026-05-01T11:14:35.999Z</time></trkpt><trkpt lat="44.61313464216115" lon="8.799204925139028"><ele>702.0</ele><time>2026-05-01T11:14:36.999Z</time></trkpt><trkpt lat="44.612991707460544" lon="8.799187148973253"><ele>698.5</ele><time>2026-05-01T11:14:37.999Z</time></trkpt><trkpt lat="44.612850851890165" lon="8.799169359067392"><ele>695.0</ele><time>2026-05-01T11:14:38.999Z</time></trkpt><trkpt lat="44.61271194792702" lon="8.799165219723527"><ele>694.5</ele><time>2026-05-01T11:14:39.999Z</time></trkpt><trkpt lat="44.61256902212695" lon="8.799198306562626"><ele>694.0</ele><time>2026-05-01T11:14:40.999Z</time></trkpt><trkpt lat="44.61243056563371" lon="8.799232591587621"><ele>693.5</ele><time>2026-05-01T11:14:41.999Z</time></trkpt><trkpt lat="44.612295432368505" lon="8.79924514505651"><ele>693.0</ele><time>2026-05-01T11:14:42.999Z</time></trkpt><trkpt lat="44.6121610778659" lon="8.79926146167571"><ele>693.0</ele><time>2026-05-01T11:14:43.999Z</time></trkpt><trkpt lat="44.61201613969708" lon="8.799323194228464"><ele>693.0</ele><time>2026-05-01T11:14:44.999Z</time></trkpt><trkpt lat="44.611875016363925" lon="8.799429642882403"><ele>693.0</ele><time>2026-05-01T11:14:45.999Z</time></trkpt><trkpt lat="44.6117401041134" lon="8.799549409751444"><ele>688.0</ele><time>2026-05-01T11:14:46.999Z</time></trkpt><trkpt lat="44.611610858068694" lon="8.799667422948552"><ele>683.0</ele><time>2026-05-01T11:14:47.999Z</time></trkpt><trkpt lat="44.61149097103636" lon="8.799797292241472"><ele>678.0</ele><time>2026-05-01T11:14:48.999Z</time></trkpt><trkpt lat="44.611385493383445" lon="8.799957814943486"><ele>678.0</ele><time>2026-05-01T11:14:49.999Z</time></trkpt><trkpt lat="44.61130397722319" lon="8.800144351920018"><ele>678.0</ele><time>2026-05-01T11:14:50.999Z</time></trkpt><trkpt lat="44.61122238308391" lon="8.80031840612707"><ele>678.0</ele><time>2026-05-01T11:14:51.999Z</time></trkpt><trkpt lat="44.611113117722375" lon="8.800462424273883"><ele>683.0</ele><time>2026-05-01T11:14:52.999Z</time></trkpt><trkpt lat="44.610977858484844" lon="8.800551741547228"><ele>688.0</ele><time>2026-05-01T11:14:53.999Z</time></trkpt><trkpt lat="44.61082316413717" lon="8.800559576622131"><ele>693.0</ele><time>2026-05-01T11:14:54.999Z</time></trkpt><trkpt lat="44.61067009763586" lon="8.800484655649607"><ele>693.0</ele><time>2026-05-01T11:14:55.999Z</time></trkpt><trkpt lat="44.61052315799406" lon="8.80045207728325"><ele>693.0</ele><time>2026-05-01T11:14:56.999Z</time></trkpt><trkpt lat="44.61036943032591" lon="8.800438886470477"><ele>693.0</ele><time>2026-05-01T11:14:57.999Z</time></trkpt><trkpt lat="44.61020230842515" lon="8.800475011316585"><ele>693.3333333333334</ele><time>2026-05-01T11:14:58.999Z</time></trkpt><trkpt lat="44.61002775668791" lon="8.800548646309634"><ele>693.6666666666667</ele><time>2026-05-01T11:14:59.999Z</time></trkpt><trkpt lat="44.609859604986106" lon="8.80063750529565"><ele>694.0</ele><time>2026-05-01T11:15:00.999Z</time></trkpt><trkpt lat="44.609690440749326" lon="8.800721251159235"><ele>694.0</ele><time>2026-05-01T11:15:01.999Z</time></trkpt><trkpt lat="44.60951707869263" lon="8.800827556452676"><ele>694.0</ele><time>2026-05-01T11:15:02.999Z</time></trkpt><trkpt lat="44.60935571916631" lon="8.800961142489788"><ele>694.0</ele><time>2026-05-01T11:15:03.999Z</time></trkpt><trkpt lat="44.60919436871517" lon="8.801091086933766"><ele>698.0</ele><time>2026-05-01T11:15:04.999Z</time></trkpt><trkpt lat="44.60903305782984" lon="8.80120000413536"><ele>702.0</ele><time>2026-05-01T11:15:05.999Z</time></trkpt><trkpt lat="44.608879377592494" lon="8.80127995669252"><ele>706.0</ele><time>2026-05-01T11:15:06.999Z</time></trkpt><trkpt lat="44.60873415601287" lon="8.801360592627523"><ele>703.0</ele><time>2026-05-01T11:15:07.999Z</time></trkpt><trkpt lat="44.60859001936268" lon="8.801440803913811"><ele>700.0</ele><time>2026-05-01T11:15:08.999Z</time></trkpt><trkpt lat="44.60844204223904" lon="8.801512589179397"><ele>697.0</ele><time>2026-05-01T11:15:09.999Z</time></trkpt><trkpt lat="44.608295675133114" lon="8.801582607052367"><ele>697.0</ele><time>2026-05-01T11:15:10.999Z</time></trkpt><trkpt lat="44.608149963002354" lon="8.801648340647986"><ele>697.0</ele><time>2026-05-01T11:15:11.999Z</time></trkpt><trkpt lat="44.60801233691109" lon="8.80171920627703"><ele>697.0</ele><time>2026-05-01T11:15:12.999Z</time></trkpt><trkpt lat="44.60789852995191" lon="8.801802874748368"><ele>697.0</ele><time>2026-05-01T11:15:13.999Z</time></trkpt><trkpt lat="44.60781085528289" lon="8.80191577292252"><ele>694.0</ele><time>2026-05-01T11:15:14.999Z</time></trkpt><trkpt lat="44.60776014332694" lon="8.802092486474999"><ele>691.0</ele><time>2026-05-01T11:15:15.999Z</time></trkpt><trkpt lat="44.607725579555606" lon="8.80233770598959"><ele>688.0</ele><time>2026-05-01T11:15:16.999Z</time></trkpt><trkpt lat="44.60765254448501" lon="8.802578570648942"><ele>690.3333333333334</ele><time>2026-05-01T11:15:17.999Z</time></trkpt><trkpt lat="44.607572481074364" lon="8.802799753523681"><ele>692.6666666666666</ele><time>2026-05-01T11:15:18.999Z</time></trkpt><trkpt lat="44.6074926962207" lon="8.803007518228483"><ele>695.0</ele><time>2026-05-01T11:15:19.999Z</time></trkpt><trkpt lat="44.60742782169883" lon="8.803201791655201"><ele>695.0</ele><time>2026-05-01T11:15:20.999Z</time></trkpt><trkpt lat="44.607361681335405" lon="8.803380835570104"><ele>695.0</ele><time>2026-05-01T11:15:21.999Z</time></trkpt><trkpt lat="44.60728460621389" lon="8.803548814857109"><ele>695.0</ele><time>2026-05-01T11:15:22.999Z</time></trkpt><trkpt lat="44.607173217095024" lon="8.803681083030773"><ele>695.0</ele><time>2026-05-01T11:15:23.999Z</time></trkpt><trkpt lat="44.60700577964945" lon="8.803721410782055"><ele>697.6666666666666</ele><time>2026-05-01T11:15:24.999Z</time></trkpt><trkpt lat="44.606847364855476" lon="8.80369679911506"><ele>700.3333333333334</ele><time>2026-05-01T11:15:25.999Z</time></trkpt><trkpt lat="44.60667342760309" lon="8.803656878641156"><ele>703.0</ele><time>2026-05-01T11:15:26.999Z</time></trkpt><trkpt lat="44.606503174148536" lon="8.803604454359137"><ele>700.6666666666667</ele><time>2026-05-01T11:15:27.999Z</time></trkpt><trkpt lat="44.606355480934496" lon="8.803467836171144"><ele>698.3333333333334</ele><time>2026-05-01T11:15:28.999Z</time></trkpt><trkpt lat="44.60620632329949" lon="8.803352608531453"><ele>696.0</ele><time>2026-05-01T11:15:29.999Z</time></trkpt><trkpt lat="44.60606533065502" lon="8.803261751132634"><ele>696.0</ele><time>2026-05-01T11:15:30.999Z</time></trkpt><trkpt lat="44.60595821769602" lon="8.803127172778664"><ele>696.0</ele><time>2026-05-01T11:15:31.999Z</time></trkpt><trkpt lat="44.605850080784904" lon="8.802972768180032"><ele>696.0</ele><time>2026-05-01T11:15:32.999Z</time></trkpt><trkpt lat="44.605756144685905" lon="8.80276103668794"><ele>692.0</ele><time>2026-05-01T11:15:33.999Z</time></trkpt><trkpt lat="44.60566124862569" lon="8.802525165618903"><ele>688.0</ele><time>2026-05-01T11:15:34.999Z</time></trkpt><trkpt lat="44.60559594577046" lon="8.802284796904182"><ele>684.0</ele><time>2026-05-01T11:15:35.999Z</time></trkpt><trkpt lat="44.605541832689475" lon="8.802064816693923"><ele>684.0</ele><time>2026-05-01T11:15:36.999Z</time></trkpt><trkpt lat="44.605477899708724" lon="8.801869704847118"><ele>684.0</ele><time>2026-05-01T11:15:37.999Z</time></trkpt><trkpt lat="44.605400231478626" lon="8.801700692100772"><ele>684.0</ele><time>2026-05-01T11:15:38.999Z</time></trkpt><trkpt lat="44.605302216415986" lon="8.801558589663244"><ele>684.0</ele><time>2026-05-01T11:15:40Z</time></trkpt><trkpt lat="44.60519099818036" lon="8.801451879042935"><ele>684.25</ele><time>2026-05-01T11:15:41Z</time></trkpt><trkpt lat="44.60509356333954" lon="8.801344528654559"><ele>684.5</ele><time>2026-05-01T11:15:42Z</time></trkpt><trkpt lat="44.60503017670485" lon="8.80120846218463"><ele>684.75</ele><time>2026-05-01T11:15:43Z</time></trkpt><trkpt lat="44.60501001201399" lon="8.801039030817655"><ele>685.0</ele><time>2026-05-01T11:15:44Z</time></trkpt><trkpt lat="44.60502918706919" lon="8.800853176014702"><ele>685.0</ele><time>2026-05-01T11:15:45Z</time></trkpt><trkpt lat="44.60502283977026" lon="8.800656316182268"><ele>685.0</ele><time>2026-05-01T11:15:46Z</time></trkpt><trkpt lat="44.604961481713985" lon="8.80045987950501"><ele>685.0</ele><time>2026-05-01T11:15:47Z</time></trkpt><trkpt lat="44.60490713911192" lon="8.800252393075564"><ele>681.6666666666667</ele><time>2026-05-01T11:15:48Z</time></trkpt><trkpt lat="44.60487150560532" lon="8.8000383514258"><ele>678.3333333333334</ele><time>2026-05-01T11:15:49Z</time></trkpt><trkpt lat="44.60483427152147" lon="8.799836204697014"><ele>675.0</ele><time>2026-05-01T11:15:50Z</time></trkpt><trkpt lat="44.6047830391069" lon="8.799643839096513"><ele>675.0</ele><time>2026-05-01T11:15:51Z</time></trkpt><trkpt lat="44.604748986162285" lon="8.79944695628889"><ele>675.0</ele><time>2026-05-01T11:15:52Z</time></trkpt><trkpt lat="44.604731255544834" lon="8.799249938323225"><ele>675.0</ele><time>2026-05-01T11:15:53Z</time></trkpt><trkpt lat="44.60470962375239" lon="8.799060673197166"><ele>675.0</ele><time>2026-05-01T11:15:54Z</time></trkpt><trkpt lat="44.604629872949744" lon="8.798880250043043"><ele>672.0</ele><time>2026-05-01T11:15:55Z</time></trkpt><trkpt lat="44.60453654095975" lon="8.798689716156458"><ele>669.0</ele><time>2026-05-01T11:15:56Z</time></trkpt><trkpt lat="44.604444128768336" lon="8.798478357940047"><ele>666.0</ele><time>2026-05-01T11:15:57Z</time></trkpt><trkpt lat="44.60436499363412" lon="8.7982661275725"><ele>665.75</ele><time>2026-05-01T11:15:58Z</time></trkpt><trkpt lat="44.60429311375542" lon="8.798064592943616"><ele>665.5</ele><time>2026-05-01T11:15:59Z</time></trkpt><trkpt lat="44.604224985727" lon="8.797874532582973"><ele>665.25</ele><time>2026-05-01T11:16:00Z</time></trkpt><trkpt lat="44.60417028351901" lon="8.797712667567383"><ele>665.0</ele><time>2026-05-01T11:16:01Z</time></trkpt><trkpt lat="44.60412156126367" lon="8.797586047510528"><ele>663.0</ele><time>2026-05-01T11:16:02Z</time></trkpt><trkpt lat="44.60407851991602" lon="8.79749906168986"><ele>663.0</ele><time>2026-05-01T11:16:03Z</time></trkpt><trkpt lat="44.604003335917255" lon="8.797444614535987"><ele>663.0</ele><time>2026-05-01T11:16:05Z</time></trkpt><trkpt lat="44.60393637670163" lon="8.797464121033906"><ele>663.0</ele><time>2026-05-01T11:16:08Z</time></trkpt><trkpt lat="44.603873624799654" lon="8.79750972535424"><ele>663.0</ele><time>2026-05-01T11:16:11Z</time></trkpt><trkpt lat="44.6038918699584" lon="8.797596047880633"><ele>663.0</ele><time>2026-05-01T11:16:12Z</time></trkpt></trkseg><trkseg><trkpt lat="44.60389940361577" lon="8.797671113463215"><ele>665.0</ele><time>2026-05-01T11:26:40.999Z</time></trkpt><trkpt lat="44.60390983851977" lon="8.797765056813022"><ele>665.0</ele><time>2026-05-01T11:26:41.999Z</time></trkpt><trkpt lat="44.603919881136385" lon="8.797883929405625"><ele>665.0</ele><time>2026-05-01T11:26:42.999Z</time></trkpt><trkpt lat="44.60392374126293" lon="8.798019414584823"><ele>665.0</ele><time>2026-05-01T11:26:43.999Z</time></trkpt><trkpt lat="44.60392398777649" lon="8.79815813224398"><ele>665.0</ele><time>2026-05-01T11:26:44.999Z</time></trkpt><trkpt lat="44.60390441224375" lon="8.798308235362299"><ele>665.0</ele><time>2026-05-01T11:26:45.999Z</time></trkpt><trkpt lat="44.60394316748946" lon="8.798446322305848"><ele>665.0</ele><time>2026-05-01T11:26:46.999Z</time></trkpt><trkpt lat="44.60398263389346" lon="8.798586275387581"><ele>665.0</ele><time>2026-05-01T11:26:47.999Z</time></trkpt><trkpt lat="44.603974974753804" lon="8.79876885845661"><ele>665.0</ele><time>2026-05-01T11:26:48.999Z</time></trkpt><trkpt lat="44.60397009981386" lon="8.798933133102036"><ele>665.5</ele><time>2026-05-01T11:26:49.999Z</time></trkpt><trkpt lat="44.60397882290931" lon="8.799120581701226"><ele>666.0</ele><time>2026-05-01T11:26:50.999Z</time></trkpt><trkpt lat="44.60396400826545" lon="8.799313452389384"><ele>666.5</ele><time>2026-05-01T11:26:51.999Z</time></trkpt><trkpt lat="44.60394451371726" lon="8.799502562327335"><ele>667.0</ele><time>2026-05-01T11:26:52.999Z</time></trkpt><trkpt lat="44.60389011327572" lon="8.79966980297831"><ele>668.5</ele><time>2026-05-01T11:26:53.999Z</time></trkpt><trkpt lat="44.60384548649927" lon="8.799844242355334"><ele>670.0</ele><time>2026-05-01T11:26:54.999Z</time></trkpt><trkpt lat="44.60382677132536" lon="8.80002308126952"><ele>671.5</ele><time>2026-05-01T11:26:55.999Z</time></trkpt><trkpt lat="44.603791187446795" lon="8.800183756343166"><ele>673.0</ele><time>2026-05-01T11:26:56.999Z</time></trkpt><trkpt lat="44.603760665014214" lon="8.800339940312385"><ele>673.4</ele><time>2026-05-01T11:26:57.999Z</time></trkpt><trkpt lat="44.60371595937167" lon="8.800484202090564"><ele>673.8</ele><time>2026-05-01T11:26:58.999Z</time></trkpt><trkpt lat="44.60360641131909" lon="8.800560935365711"><ele>674.2</ele><time>2026-05-01T11:26:59.999Z</time></trkpt><trkpt lat="44.60354199220481" lon="8.800675628577741"><ele>674.6</ele><time>2026-05-01T11:27:00.999Z</time></trkpt><trkpt lat="44.603509059686345" lon="8.800810875196596"><ele>675.0</ele><time>2026-05-01T11:27:01.999Z</time></trkpt><trkpt lat="44.60350201194441" lon="8.800954669436681"><ele>666.0</ele><time>2026-05-01T11:27:02.999Z</time></trkpt><trkpt lat="44.60350430437386" lon="8.801121671073098"><ele>657.0</ele><time>2026-05-01T11:27:03.999Z</time></trkpt><trkpt lat="44.603471919028884" lon="8.801302383184987"><ele>648.0</ele><time>2026-05-01T11:27:04.999Z</time></trkpt><trkpt lat="44.603441305621175" lon="8.801479064561036"><ele>639.0</ele><time>2026-05-01T11:27:05.999Z</time></trkpt><trkpt lat="44.60344189019781" lon="8.801645854011536"><ele>639.0</ele><time>2026-05-01T11:27:06.999Z</time></trkpt><trkpt lat="44.6034741494274" lon="8.801791495891019"><ele>639.0</ele><time>2026-05-01T11:27:07.999Z</time></trkpt><trkpt lat="44.60351034802617" lon="8.80191194701924"><ele>639.0</ele><time>2026-05-01T11:27:08.999Z</time></trkpt><trkpt lat="44.60346290890156" lon="8.802028136399198"><ele>639.0</ele><time>2026-05-01T11:27:09.999Z</time></trkpt><trkpt lat="44.60332070217199" lon="8.802034916327889"><ele>639.0</ele><time>2026-05-01T11:27:10.999Z</time></trkpt><trkpt lat="44.603241708942825" lon="8.802113700051436"><ele>639.0</ele><time>2026-05-01T11:27:11.999Z</time></trkpt><trkpt lat="44.6031532450952" lon="8.802196072948844"><ele>639.0</ele><time>2026-05-01T11:27:12.999Z</time></trkpt><trkpt lat="44.603099430130264" lon="8.802352187216936"><ele>639.0</ele><time>2026-05-01T11:27:13.999Z</time></trkpt><trkpt lat="44.60307928167666" lon="8.802544100760969"><ele>639.0</ele><time>2026-05-01T11:27:14.999Z</time></trkpt><trkpt lat="44.6030739903615" lon="8.802735770600469"><ele>639.0</ele><time>2026-05-01T11:27:15.999Z</time></trkpt><trkpt lat="44.603034413613244" lon="8.802894485355882"><ele>639.0</ele><time>2026-05-01T11:27:16.999Z</time></trkpt><trkpt lat="44.6030071609556" lon="8.803023083119765"><ele>639.0</ele><time>2026-05-01T11:27:17.999Z</time></trkpt><trkpt lat="44.60301519446972" lon="8.803131508377875"><ele>639.0</ele><time>2026-05-01T11:27:18.999Z</time></trkpt><trkpt lat="44.60306338795105" lon="8.80324100782792"><ele>639.0</ele><time>2026-05-01T11:27:19.999Z</time></trkpt><trkpt lat="44.60312464621251" lon="8.803344410137337"><ele>639.0</ele><time>2026-05-01T11:27:20.999Z</time></trkpt><trkpt lat="44.6031609141754" lon="8.803481929682855"><ele>639.0</ele><time>2026-05-01T11:27:21.999Z</time></trkpt><trkpt lat="44.603126586120176" lon="8.803628643164613"><ele>639.0</ele><time>2026-05-01T11:27:22.999Z</time></trkpt><trkpt lat="44.60312256236351" lon="8.803812693737662"><ele>639.0</ele><time>2026-05-01T11:27:23.999Z</time></trkpt><trkpt lat="44.603116807950016" lon="8.804013801020922"><ele>638.5</ele><time>2026-05-01T11:27:24.999Z</time></trkpt><trkpt lat="44.60311454956423" lon="8.804190365655678"><ele>638.0</ele><time>2026-05-01T11:27:25.999Z</time></trkpt><trkpt lat="44.60313902094388" lon="8.804349350423635"><ele>637.5</ele><time>2026-05-01T11:27:26.999Z</time></trkpt><trkpt lat="44.60318623801788" lon="8.80448378073324"><ele>637.0</ele><time>2026-05-01T11:27:27.999Z</time></trkpt><trkpt lat="44.603191213917995" lon="8.804664183995659"><ele>637.0</ele><time>2026-05-01T11:27:28.999Z</time></trkpt><trkpt lat="44.60316048630701" lon="8.804744618151895"><ele>637.0</ele><time>2026-05-01T11:27:29.999Z</time></trkpt><trkpt lat="44.603050898831036" lon="8.804810300261252"><ele>637.0</ele><time>2026-05-01T11:27:30.999Z</time></trkpt><trkpt lat="44.60299841398273" lon="8.804934303905005"><ele>637.0</ele><time>2026-05-01T11:27:31.999Z</time></trkpt><trkpt lat="44.60293847647149" lon="8.805049467107686"><ele>637.0</ele><time>2026-05-01T11:27:32.999Z</time></trkpt><trkpt lat="44.60285604638542" lon="8.805138123244335"><ele>631.2</ele><time>2026-05-01T11:27:33.999Z</time></trkpt><trkpt lat="44.60276819109448" lon="8.805229822806242"><ele>625.4000000000001</ele><time>2026-05-01T11:27:34.999Z</time></trkpt><trkpt lat="44.602676617476206" lon="8.805308520371925"><ele>619.5999999999999</ele><time>2026-05-01T11:27:35.999Z</time></trkpt><trkpt lat="44.60259000184742" lon="8.805368764934057"><ele>613.8</ele><time>2026-05-01T11:27:36.999Z</time></trkpt><trkpt lat="44.60250889463813" lon="8.805434478624946"><ele>608.0</ele><time>2026-05-01T11:27:37.999Z</time></trkpt><trkpt lat="44.602426205416876" lon="8.805453916169627"><ele>608.0</ele><time>2026-05-01T11:27:38.999Z</time></trkpt><trkpt lat="44.602358489886825" lon="8.805509020500827"><ele>608.0</ele><time>2026-05-01T11:27:39.999Z</time></trkpt><trkpt lat="44.6022960252979" lon="8.805605704697644"><ele>608.0</ele><time>2026-05-01T11:27:40.999Z</time></trkpt><trkpt lat="44.60224624907475" lon="8.805696986939187"><ele>608.0</ele><time>2026-05-01T11:27:41.999Z</time></trkpt><trkpt lat="44.60223917461539" lon="8.805791185732836"><ele>608.0</ele><time>2026-05-01T11:27:42.999Z</time></trkpt><trkpt lat="44.602355133381685" lon="8.80595745248614"><ele>608.0</ele><time>2026-05-01T11:27:44.999Z</time></trkpt><trkpt lat="44.60246465856768" lon="8.805956152639114"><ele>608.0</ele><time>2026-05-01T11:27:45.999Z</time></trkpt><trkpt lat="44.602561262612994" lon="8.805994552474743"><ele>608.0</ele><time>2026-05-01T11:27:46.999Z</time></trkpt><trkpt lat="44.60263403024254" lon="8.806084712177618"><ele>608.0</ele><time>2026-05-01T11:27:47.999Z</time></trkpt><trkpt lat="44.6027066804754" lon="8.806161115678908"><ele>608.0</ele><time>2026-05-01T11:27:48.999Z</time></trkpt><trkpt lat="44.602786341315706" lon="8.806229425988814"><ele>608.0</ele><time>2026-05-01T11:27:49.999Z</time></trkpt><trkpt lat="44.60284061928237" lon="8.806342059130554"><ele>608.0</ele><time>2026-05-01T11:27:50.999Z</time></trkpt><trkpt lat="44.60290790612679" lon="8.806438538528717"><ele>608.0</ele><time>2026-05-01T11:27:51.999Z</time></trkpt><trkpt lat="44.602949082934565" lon="8.806566737673851"><ele>608.0</ele><time>2026-05-01T11:27:52.999Z</time></trkpt><trkpt lat="44.60299919966176" lon="8.80668462483593"><ele>608.0</ele><time>2026-05-01T11:27:53.999Z</time></trkpt><trkpt lat="44.60305309244418" lon="8.806795122145582"><ele>604.0</ele><time>2026-05-01T11:27:54.999Z</time></trkpt><trkpt lat="44.60311554355511" lon="8.806893305332252"><ele>600.0</ele><time>2026-05-01T11:27:55.999Z</time></trkpt><trkpt lat="44.60317112398224" lon="8.806980277232944"><ele>596.0</ele><time>2026-05-01T11:27:56.999Z</time></trkpt><trkpt lat="44.6032081938255" lon="8.807061151577885"><ele>592.0</ele><time>2026-05-01T11:27:57.999Z</time></trkpt><trkpt lat="44.60316458526955" lon="8.807169459310987"><ele>588.0</ele><time>2026-05-01T11:27:59.999Z</time></trkpt><trkpt lat="44.60308295320004" lon="8.807082022893432"><ele>584.0</ele><time>2026-05-01T11:28:00.999Z</time></trkpt><trkpt lat="44.60304379987394" lon="8.806975678266635"><ele>584.0</ele><time>2026-05-01T11:28:01.999Z</time></trkpt><trkpt lat="44.60296805669997" lon="8.80688865773986"><ele>584.0</ele><time>2026-05-01T11:28:02.999Z</time></trkpt><trkpt lat="44.6028891468747" lon="8.806787256558662"><ele>584.0</ele><time>2026-05-01T11:28:03.999Z</time></trkpt><trkpt lat="44.602800278992184" lon="8.80668052720447"><ele>584.0</ele><time>2026-05-01T11:28:04.999Z</time></trkpt><trkpt lat="44.60270963854006" lon="8.806585040247848"><ele>584.0</ele><time>2026-05-01T11:28:05.999Z</time></trkpt><trkpt lat="44.60264075519455" lon="8.806435733250382"><ele>585.0</ele><time>2026-05-01T11:28:06.999Z</time></trkpt><trkpt lat="44.602511389562814" lon="8.8063758995302"><ele>586.0</ele><time>2026-05-01T11:28:07.999Z</time></trkpt><trkpt lat="44.60237324395945" lon="8.80638579816482"><ele>587.0</ele><time>2026-05-01T11:28:08.999Z</time></trkpt><trkpt lat="44.602265413198275" lon="8.806571065973648"><ele>588.0</ele><time>2026-05-01T11:28:09.999Z</time></trkpt><trkpt lat="44.60216932492952" lon="8.806662241227924"><ele>588.0</ele><time>2026-05-01T11:28:10.999Z</time></trkpt><trkpt lat="44.60207094835476" lon="8.806736162583254"><ele>588.0</ele><time>2026-05-01T11:28:11.999Z</time></trkpt><trkpt lat="44.60196328579662" lon="8.806788744022954"><ele>588.0</ele><time>2026-05-01T11:28:12.999Z</time></trkpt><trkpt lat="44.60185356078773" lon="8.806845423164505"><ele>588.0</ele><time>2026-05-01T11:28:13.999Z</time></trkpt><trkpt lat="44.60174646313938" lon="8.806921885601186"><ele>581.75</ele><time>2026-05-01T11:28:14.999Z</time></trkpt><trkpt lat="44.601645535934175" lon="8.807012084450077"><ele>575.5</ele><time>2026-05-01T11:28:15.999Z</time></trkpt><trkpt lat="44.601549627522594" lon="8.807095529517493"><ele>569.25</ele><time>2026-05-01T11:28:16.999Z</time></trkpt><trkpt lat="44.601447158866065" lon="8.807142126093291"><ele>563.0</ele><time>2026-05-01T11:28:17.999Z</time></trkpt><trkpt lat="44.60133606008535" lon="8.807114740157717"><ele>563.0</ele><time>2026-05-01T11:28:18.999Z</time></trkpt><trkpt lat="44.601229502293755" lon="8.807136616413954"><ele>563.0</ele><time>2026-05-01T11:28:19.999Z</time></trkpt><trkpt lat="44.60112887097705" lon="8.807153099514457"><ele>563.0</ele><time>2026-05-01T11:28:20.999Z</time></trkpt><trkpt lat="44.60103504673223" lon="8.807210021119953"><ele>563.0</ele><time>2026-05-01T11:28:21.999Z</time></trkpt><trkpt lat="44.60096509380048" lon="8.807302426877525"><ele>563.0</ele><time>2026-05-01T11:28:22.999Z</time></trkpt><trkpt lat="44.60090882689119" lon="8.807394177902943"><ele>563.7142857142857</ele><time>2026-05-01T11:28:23.999Z</time></trkpt><trkpt lat="44.600852025551184" lon="8.80745856176539"><ele>564.4285714285714</ele><time>2026-05-01T11:28:24.999Z</time></trkpt><trkpt lat="44.60078759192462" lon="8.807496001752986"><ele>565.1428571428571</ele><time>2026-05-01T11:28:25.999Z</time></trkpt><trkpt lat="44.600725498414015" lon="8.807479606987215"><ele>565.8571428571429</ele><time>2026-05-01T11:28:26.999Z</time></trkpt><trkpt lat="44.6006639591675" lon="8.807441152123499"><ele>566.5714285714286</ele><time>2026-05-01T11:28:27.999Z</time></trkpt><trkpt lat="44.60060739009797" lon="8.807396133669707"><ele>567.2857142857142</ele><time>2026-05-01T11:28:28.999Z</time></trkpt><trkpt lat="44.60055109849263" lon="8.807348677137341"><ele>568.0</ele><time>2026-05-01T11:28:29.999Z</time></trkpt><trkpt lat="44.60043855076961" lon="8.807275960606246"><ele>567.25</ele><time>2026-05-01T11:28:31.999Z</time></trkpt><trkpt lat="44.60031634775096" lon="8.807282083642674"><ele>566.5</ele><time>2026-05-01T11:28:33.999Z</time></trkpt><trkpt lat="44.60020932663612" lon="8.807346586674862"><ele>565.75</ele><time>2026-05-01T11:28:35.999Z</time></trkpt><trkpt lat="44.60009928717164" lon="8.80738219594603"><ele>565.0</ele><time>2026-05-01T11:28:37.999Z</time></trkpt><trkpt lat="44.59997773326558" lon="8.807378884636341"><ele>565.0</ele><time>2026-05-01T11:28:39.999Z</time></trkpt><trkpt lat="44.59991617070025" lon="8.807343692125546"><ele>565.0</ele><time>2026-05-01T11:28:40.999Z</time></trkpt><trkpt lat="44.59987185491428" lon="8.807252162349114"><ele>565.0</ele><time>2026-05-01T11:28:41.999Z</time></trkpt><trkpt lat="44.59980978357464" lon="8.807187332599403"><ele>565.0</ele><time>2026-05-01T11:28:42.999Z</time></trkpt><trkpt lat="44.59976314189603" lon="8.807093941283707"><ele>565.0</ele><time>2026-05-01T11:28:43.999Z</time></trkpt><trkpt lat="44.59972344264229" lon="8.80699265021969"><ele>565.0</ele><time>2026-05-01T11:28:44.999Z</time></trkpt><trkpt lat="44.59969726846675" lon="8.806873457416218"><ele>565.6</ele><time>2026-05-01T11:28:45.999Z</time></trkpt><trkpt lat="44.59967798272625" lon="8.806744627761827"><ele>566.2</ele><time>2026-05-01T11:28:46.999Z</time></trkpt><trkpt lat="44.599655383934014" lon="8.806622566393427"><ele>566.8</ele><time>2026-05-01T11:28:47.999Z</time></trkpt><trkpt lat="44.59962554110427" lon="8.806504712652018"><ele>567.4</ele><time>2026-05-01T11:28:48.999Z</time></trkpt><trkpt lat="44.5995934086859" lon="8.806382544515241"><ele>568.0</ele><time>2026-05-01T11:28:49.999Z</time></trkpt><trkpt lat="44.59956414167005" lon="8.806258049756952"><ele>568.0</ele><time>2026-05-01T11:28:50.999Z</time></trkpt><trkpt lat="44.599563201913035" lon="8.806122745428492"><ele>568.0</ele><time>2026-05-01T11:28:51.999Z</time></trkpt><trkpt lat="44.59954755343158" lon="8.805988618129318"><ele>568.0</ele><time>2026-05-01T11:28:52.999Z</time></trkpt><trkpt lat="44.59955065286705" lon="8.805848665501284"><ele>568.0</ele><time>2026-05-01T11:28:53.999Z</time></trkpt><trkpt lat="44.599542262038284" lon="8.805703067074202"><ele>568.0</ele><time>2026-05-01T11:28:54.999Z</time></trkpt><trkpt lat="44.59953232004264" lon="8.805551162564331"><ele>569.0</ele><time>2026-05-01T11:28:55.999Z</time></trkpt><trkpt lat="44.59951904133713" lon="8.80540095921948"><ele>570.0</ele><time>2026-05-01T11:28:56.999Z</time></trkpt><trkpt lat="44.59949278166607" lon="8.805246160213933"><ele>571.0</ele><time>2026-05-01T11:28:57.999Z</time></trkpt><trkpt lat="44.599464064913036" lon="8.805083522572822"><ele>572.0</ele><time>2026-05-01T11:28:58.999Z</time></trkpt><trkpt lat="44.59943194782448" lon="8.804916523921758"><ele>572.0</ele><time>2026-05-01T11:28:59.999Z</time></trkpt><trkpt lat="44.599396189432596" lon="8.804745579170751"><ele>572.0</ele><time>2026-05-01T11:29:00.999Z</time></trkpt><trkpt lat="44.599351885378326" lon="8.804573806274478"><ele>572.0</ele><time>2026-05-01T11:29:01.999Z</time></trkpt><trkpt lat="44.59930732179705" lon="8.80439354785408"><ele>572.0</ele><time>2026-05-01T11:29:02.999Z</time></trkpt><trkpt lat="44.599267745309824" lon="8.804204506601607"><ele>569.75</ele><time>2026-05-01T11:29:03.999Z</time></trkpt><trkpt lat="44.599227031967715" lon="8.804027391277547"><ele>567.5</ele><time>2026-05-01T11:29:04.999Z</time></trkpt><trkpt lat="44.59918650559272" lon="8.803854916997862"><ele>565.25</ele><time>2026-05-01T11:29:05.999Z</time></trkpt><trkpt lat="44.599156003958385" lon="8.803683555124675"><ele>563.0</ele><time>2026-05-01T11:29:06.999Z</time></trkpt><trkpt lat="44.599131484282864" lon="8.803508734822332"><ele>560.75</ele><time>2026-05-01T11:29:07.999Z</time></trkpt><trkpt lat="44.599107134983804" lon="8.803339522493177"><ele>558.5</ele><time>2026-05-01T11:29:08.999Z</time></trkpt><trkpt lat="44.599083174855735" lon="8.80316764380034"><ele>556.25</ele><time>2026-05-01T11:29:09.999Z</time></trkpt><trkpt lat="44.599053868027454" lon="8.803001863579397"><ele>554.0</ele><time>2026-05-01T11:29:10.999Z</time></trkpt><trkpt lat="44.59899637371387" lon="8.80285506840545"><ele>554.0</ele><time>2026-05-01T11:29:11.999Z</time></trkpt><trkpt lat="44.598920649877904" lon="8.802710182782922"><ele>554.0</ele><time>2026-05-01T11:29:12.999Z</time></trkpt><trkpt lat="44.59884709927178" lon="8.802581954309284"><ele>554.0</ele><time>2026-05-01T11:29:13.999Z</time></trkpt><trkpt lat="44.59877046956471" lon="8.802435526725752"><ele>554.0</ele><time>2026-05-01T11:29:14.999Z</time></trkpt><trkpt lat="44.59870926419353" lon="8.802272452841992"><ele>553.75</ele><time>2026-05-01T11:29:15.999Z</time></trkpt><trkpt lat="44.59865619390313" lon="8.802101729227918"><ele>553.5</ele><time>2026-05-01T11:29:16.999Z</time></trkpt><trkpt lat="44.598600158567805" lon="8.801933869391673"><ele>553.25</ele><time>2026-05-01T11:29:17.999Z</time></trkpt><trkpt lat="44.59854324449283" lon="8.801789227686609"><ele>553.0</ele><time>2026-05-01T11:29:18.999Z</time></trkpt><trkpt lat="44.5984929419403" lon="8.801630429460525"><ele>553.0</ele><time>2026-05-01T11:29:19.999Z</time></trkpt><trkpt lat="44.59847583569477" lon="8.801450791483635"><ele>553.0</ele><time>2026-05-01T11:29:20.999Z</time></trkpt><trkpt lat="44.59843802405411" lon="8.801284017508436"><ele>553.0</ele><time>2026-05-01T11:29:21.999Z</time></trkpt><trkpt lat="44.5984020052768" lon="8.801114792387962"><ele>553.0</ele><time>2026-05-01T11:29:22.999Z</time></trkpt><trkpt lat="44.59836028984075" lon="8.800952719171846"><ele>553.0</ele><time>2026-05-01T11:29:23.999Z</time></trkpt><trkpt lat="44.598333921516854" lon="8.800791646059423"><ele>553.0</ele><time>2026-05-01T11:29:24.999Z</time></trkpt><trkpt lat="44.5982908432147" lon="8.800638109811795"><ele>553.0</ele><time>2026-05-01T11:29:25.999Z</time></trkpt><trkpt lat="44.59821995907385" lon="8.800497195846658"><ele>553.0</ele><time>2026-05-01T11:29:26.999Z</time></trkpt><trkpt lat="44.59817864202248" lon="8.800340461555184"><ele>553.0</ele><time>2026-05-01T11:29:27.999Z</time></trkpt><trkpt lat="44.59807943494733" lon="8.800219611500252"><ele>553.0</ele><time>2026-05-01T11:29:28.999Z</time></trkpt><trkpt lat="44.598034037011914" lon="8.800059843321588"><ele>553.0</ele><time>2026-05-01T11:29:29.999Z</time></trkpt><trkpt lat="44.59800894187346" lon="8.799904140405644"><ele>553.0</ele><time>2026-05-01T11:29:30.999Z</time></trkpt><trkpt lat="44.5979753478574" lon="8.799759610731275"><ele>552.0</ele><time>2026-05-01T11:29:31.999Z</time></trkpt><trkpt lat="44.59793423364706" lon="8.799620392029563"><ele>551.0</ele><time>2026-05-01T11:29:32.999Z</time></trkpt><trkpt lat="44.597887325674414" lon="8.799476631670403"><ele>550.0</ele><time>2026-05-01T11:29:33.999Z</time></trkpt><trkpt lat="44.597852869007234" lon="8.799321712713482"><ele>549.0</ele><time>2026-05-01T11:29:34.999Z</time></trkpt><trkpt lat="44.597835332711114" lon="8.799171347498987"><ele>548.0</ele><time>2026-05-01T11:29:35.999Z</time></trkpt><trkpt lat="44.597843315167125" lon="8.799048524935884"><ele>547.3333333333333</ele><time>2026-05-01T11:29:36.999Z</time></trkpt><trkpt lat="44.597876274487554" lon="8.798944692798393"><ele>546.6666666666666</ele><time>2026-05-01T11:29:37.999Z</time></trkpt><trkpt lat="44.59792684783917" lon="8.798856444572232"><ele>546.0</ele><time>2026-05-01T11:29:38.999Z</time></trkpt><trkpt lat="44.59797973538453" lon="8.798779180090508"><ele>545.3333333333334</ele><time>2026-05-01T11:29:39.999Z</time></trkpt><trkpt lat="44.59800569558771" lon="8.798678042296418"><ele>544.6666666666667</ele><time>2026-05-01T11:29:40.999Z</time></trkpt><trkpt lat="44.59799825657916" lon="8.798561184117967"><ele>544.0</ele><time>2026-05-01T11:29:41.999Z</time></trkpt><trkpt lat="44.59794973519212" lon="8.79843442123506"><ele>543.75</ele><time>2026-05-01T11:29:42.999Z</time></trkpt><trkpt lat="44.597895447173926" lon="8.798297883041103"><ele>543.5</ele><time>2026-05-01T11:29:43.999Z</time></trkpt><trkpt lat="44.59784407559062" lon="8.798131799379155"><ele>543.25</ele><time>2026-05-01T11:29:44.999Z</time></trkpt><trkpt lat="44.59779252202798" lon="8.797965712375213"><ele>543.0</ele><time>2026-05-01T11:29:45.999Z</time></trkpt><trkpt lat="44.59774021203465" lon="8.797796580665814"><ele>547.4</ele><time>2026-05-01T11:29:46.999Z</time></trkpt><trkpt lat="44.59768992298628" lon="8.79765262526263"><ele>551.8</ele><time>2026-05-01T11:29:47.999Z</time></trkpt><trkpt lat="44.597645796346306" lon="8.79751833978653"><ele>556.2</ele><time>2026-05-01T11:29:48.999Z</time></trkpt><trkpt lat="44.59758643110495" lon="8.797396583419463"><ele>560.6</ele><time>2026-05-01T11:29:49.999Z</time></trkpt><trkpt lat="44.59751439866565" lon="8.797300030145928"><ele>565.0</ele><time>2026-05-01T11:29:50.999Z</time></trkpt><trkpt lat="44.59748078758739" lon="8.797172148404668"><ele>565.0</ele><time>2026-05-01T11:29:51.999Z</time></trkpt><trkpt lat="44.597505566493574" lon="8.797004620548138"><ele>565.0</ele><time>2026-05-01T11:29:52.999Z</time></trkpt><trkpt lat="44.59750611947236" lon="8.796857960685253"><ele>565.0</ele><time>2026-05-01T11:29:53.999Z</time></trkpt><trkpt lat="44.597484859967935" lon="8.796708827370296"><ele>565.0</ele><time>2026-05-01T11:29:54.999Z</time></trkpt><trkpt lat="44.59739639375824" lon="8.796643338332357"><ele>565.0</ele><time>2026-05-01T11:29:55.999Z</time></trkpt><trkpt lat="44.59728069976552" lon="8.796643749827211"><ele>562.25</ele><time>2026-05-01T11:29:56.999Z</time></trkpt><trkpt lat="44.597160055946325" lon="8.796657186054574"><ele>559.5</ele><time>2026-05-01T11:29:57.999Z</time></trkpt><trkpt lat="44.59707227142928" lon="8.796553041196079"><ele>556.75</ele><time>2026-05-01T11:29:58.999Z</time></trkpt><trkpt lat="44.597046117640716" lon="8.796386594262207"><ele>554.0</ele><time>2026-05-01T11:29:59.999Z</time></trkpt><trkpt lat="44.59703845339249" lon="8.796208644061869"><ele>559.5</ele><time>2026-05-01T11:30:00.999Z</time></trkpt><trkpt lat="44.59697168525626" lon="8.796044255512607"><ele>565.0</ele><time>2026-05-01T11:30:01.999Z</time></trkpt><trkpt lat="44.596864955455814" lon="8.795905505354526"><ele>570.5</ele><time>2026-05-01T11:30:02.999Z</time></trkpt><trkpt lat="44.59677852658011" lon="8.79573651557276"><ele>576.0</ele><time>2026-05-01T11:30:03.999Z</time></trkpt><trkpt lat="44.596740386262944" lon="8.795545198527417"><ele>576.0</ele><time>2026-05-01T11:30:04.999Z</time></trkpt><trkpt lat="44.59673088235008" lon="8.795374158322588"><ele>576.0</ele><time>2026-05-01T11:30:05.999Z</time></trkpt><trkpt lat="44.596680632469976" lon="8.795229105268549"><ele>576.0</ele><time>2026-05-01T11:30:06.999Z</time></trkpt><trkpt lat="44.596571606025215" lon="8.79511125366964"><ele>576.0</ele><time>2026-05-01T11:30:07.999Z</time></trkpt><trkpt lat="44.59646261053299" lon="8.794975132879335"><ele>572.0</ele><time>2026-05-01T11:30:08.999Z</time></trkpt><trkpt lat="44.596371068187544" lon="8.794821075910953"><ele>568.0</ele><time>2026-05-01T11:30:09.999Z</time></trkpt><trkpt lat="44.596288896554064" lon="8.794663134404662"><ele>564.0</ele><time>2026-05-01T11:30:10.999Z</time></trkpt><trkpt lat="44.59620876782773" lon="8.794521750188363"><ele>560.0</ele><time>2026-05-01T11:30:11.999Z</time></trkpt><trkpt lat="44.59612738812851" lon="8.794407916425415"><ele>560.0</ele><time>2026-05-01T11:30:12.999Z</time></trkpt><trkpt lat="44.59602055136993" lon="8.79431360010828"><ele>560.0</ele><time>2026-05-01T11:30:13.999Z</time></trkpt><trkpt lat="44.59588671289594" lon="8.794264366533794"><ele>560.0</ele><time>2026-05-01T11:30:14.999Z</time></trkpt><trkpt lat="44.595748778919976" lon="8.794260555034892"><ele>560.0</ele><time>2026-05-01T11:30:15.999Z</time></trkpt><trkpt lat="44.59562367410344" lon="8.794212217380267"><ele>560.0</ele><time>2026-05-01T11:30:16.999Z</time></trkpt><trkpt lat="44.59554411889078" lon="8.794056358189554"><ele>560.0</ele><time>2026-05-01T11:30:17.999Z</time></trkpt><trkpt lat="44.595474949187924" lon="8.793904861350924"><ele>560.0</ele><time>2026-05-01T11:30:18.999Z</time></trkpt><trkpt lat="44.595375027162234" lon="8.793798314252912"><ele>560.0</ele><time>2026-05-01T11:30:19.999Z</time></trkpt><trkpt lat="44.59525837588691" lon="8.79372807364515"><ele>559.75</ele><time>2026-05-01T11:30:20.999Z</time></trkpt><trkpt lat="44.59517804961053" lon="8.793595480950797"><ele>559.5</ele><time>2026-05-01T11:30:21.999Z</time></trkpt><trkpt lat="44.59510117310067" lon="8.793427313231179"><ele>559.25</ele><time>2026-05-01T11:30:22.999Z</time></trkpt><trkpt lat="44.59501559727854" lon="8.793338064529056"><ele>559.0</ele><time>2026-05-01T11:30:23.999Z</time></trkpt><trkpt lat="44.59491497851678" lon="8.793313368451907"><ele>559.0</ele><time>2026-05-01T11:30:24.999Z</time></trkpt><trkpt lat="44.59481114904472" lon="8.79336596685033"><ele>559.0</ele><time>2026-05-01T11:30:25.999Z</time></trkpt><trkpt lat="44.594734810231834" lon="8.793442795414297"><ele>559.0</ele><time>2026-05-01T11:30:26.999Z</time></trkpt><trkpt lat="44.59468438235455" lon="8.793585705043188"><ele>559.0</ele><time>2026-05-01T11:30:27.999Z</time></trkpt><trkpt lat="44.5946514634189" lon="8.793756081967357"><ele>559.0</ele><time>2026-05-01T11:30:28.999Z</time></trkpt><trkpt lat="44.59460271547453" lon="8.793913553521877"><ele>561.5</ele><time>2026-05-01T11:30:29.999Z</time></trkpt><trkpt lat="44.59448552123251" lon="8.793971806348651"><ele>564.0</ele><time>2026-05-01T11:30:30.999Z</time></trkpt><trkpt lat="44.59436633935686" lon="8.793991751273493"><ele>566.5</ele><time>2026-05-01T11:30:31.999Z</time></trkpt><trkpt lat="44.59424478709979" lon="8.794067547546417"><ele>569.0</ele><time>2026-05-01T11:30:32.999Z</time></trkpt><trkpt lat="44.594132163227904" lon="8.794166597952575"><ele>569.0</ele><time>2026-05-01T11:30:33.999Z</time></trkpt><trkpt lat="44.59401061095399" lon="8.794238732632644"><ele>569.0</ele><time>2026-05-01T11:30:34.999Z</time></trkpt><trkpt lat="44.593890430479604" lon="8.794309344215273"><ele>569.0</ele><time>2026-05-01T11:30:35.999Z</time></trkpt><trkpt lat="44.593777143697615" lon="8.794372185816878"><ele>569.0</ele><time>2026-05-01T11:30:36.999Z</time></trkpt><trkpt lat="44.59365727359424" lon="8.794397313910778"><ele>573.0</ele><time>2026-05-01T11:30:37.999Z</time></trkpt><trkpt lat="44.59352981512587" lon="8.794395777297266"><ele>577.0</ele><time>2026-05-01T11:30:38.999Z</time></trkpt><trkpt lat="44.5934139036709" lon="8.794410543438614"><ele>581.0</ele><time>2026-05-01T11:30:39.999Z</time></trkpt><trkpt lat="44.59329383506696" lon="8.794437939045222"><ele>585.0</ele><time>2026-05-01T11:30:40.999Z</time></trkpt><trkpt lat="44.593174896170176" lon="8.794487898716024"><ele>585.0</ele><time>2026-05-01T11:30:41.999Z</time></trkpt><trkpt lat="44.593050860504675" lon="8.794535484117391"><ele>585.0</ele><time>2026-05-01T11:30:42.999Z</time></trkpt><trkpt lat="44.59293309868988" lon="8.79460446522165"><ele>585.0</ele><time>2026-05-01T11:30:43.999Z</time></trkpt><trkpt lat="44.59282396535343" lon="8.794674515295748"><ele>585.0</ele><time>2026-05-01T11:30:44.999Z</time></trkpt><trkpt lat="44.592724806332626" lon="8.794741070908678"><ele>581.8333333333334</ele><time>2026-05-01T11:30:45.999Z</time></trkpt><trkpt lat="44.592651720803346" lon="8.79481560445422"><ele>578.6666666666666</ele><time>2026-05-01T11:30:46.999Z</time></trkpt><trkpt lat="44.5925907500856" lon="8.794894052310946"><ele>575.5</ele><time>2026-05-01T11:30:47.999Z</time></trkpt><trkpt lat="44.59252145709362" lon="8.794951165998361"><ele>572.3333333333333</ele><time>2026-05-01T11:30:48.999Z</time></trkpt><trkpt lat="44.59243034420922" lon="8.79497024407729"><ele>569.1666666666666</ele><time>2026-05-01T11:30:49.999Z</time></trkpt><trkpt lat="44.592331002240286" lon="8.79494385106719"><ele>566.0</ele><time>2026-05-01T11:30:50.999Z</time></trkpt><trkpt lat="44.592229093178695" lon="8.794919926377847"><ele>566.0</ele><time>2026-05-01T11:30:51.999Z</time></trkpt><trkpt lat="44.59212911272876" lon="8.79492082021708"><ele>566.0</ele><time>2026-05-01T11:30:52.999Z</time></trkpt><trkpt lat="44.59203534468994" lon="8.794912117540745"><ele>566.0</ele><time>2026-05-01T11:30:53.999Z</time></trkpt><trkpt lat="44.59195296441082" lon="8.794848017895461"><ele>566.0</ele><time>2026-05-01T11:30:54.999Z</time></trkpt><trkpt lat="44.591896847385655" lon="8.794741652841134"><ele>566.0</ele><time>2026-05-01T11:30:55.999Z</time></trkpt><trkpt lat="44.59188028149676" lon="8.794595133108757"><ele>563.6</ele><time>2026-05-01T11:30:56.999Z</time></trkpt><trkpt lat="44.59186618045066" lon="8.794437318799801"><ele>561.2</ele><time>2026-05-01T11:30:57.999Z</time></trkpt><trkpt lat="44.59183050814497" lon="8.79429428536126"><ele>558.8</ele><time>2026-05-01T11:30:58.999Z</time></trkpt><trkpt lat="44.59178679557774" lon="8.794178116625273"><ele>556.4</ele><time>2026-05-01T11:30:59.999Z</time></trkpt><trkpt lat="44.59174998493989" lon="8.794070140851227"><ele>554.0</ele><time>2026-05-01T11:31:00.999Z</time></trkpt><trkpt lat="44.59168487411937" lon="8.79399023612753"><ele>554.0</ele><time>2026-05-01T11:31:01.999Z</time></trkpt><trkpt lat="44.59157472741363" lon="8.793962427449722"><ele>554.0</ele><time>2026-05-01T11:31:02.999Z</time></trkpt><trkpt lat="44.59146529335338" lon="8.793945790849094"><ele>554.0</ele><time>2026-05-01T11:31:03.999Z</time></trkpt><trkpt lat="44.591385605858456" lon="8.793851601249829"><ele>554.0</ele><time>2026-05-01T11:31:04.999Z</time></trkpt><trkpt lat="44.59129785123041" lon="8.793763769117223"><ele>554.0</ele><time>2026-05-01T11:31:05.999Z</time></trkpt><trkpt lat="44.591213795057534" lon="8.793661717592505"><ele>552.6</ele><time>2026-05-01T11:31:06.999Z</time></trkpt><trkpt lat="44.59111575864409" lon="8.793591883040715"><ele>551.2</ele><time>2026-05-01T11:31:07.999Z</time></trkpt><trkpt lat="44.59102317443059" lon="8.793526364605361"><ele>549.8000000000001</ele><time>2026-05-01T11:31:08.999Z</time></trkpt><trkpt lat="44.590967191814016" lon="8.793417888813963"><ele>548.4</ele><time>2026-05-01T11:31:09.999Z</time></trkpt><trkpt lat="44.59092870293702" lon="8.793307056535475"><ele>547.0</ele><time>2026-05-01T11:31:10.999Z</time></trkpt><trkpt lat="44.590932840006296" lon="8.793164771738171"><ele>547.0</ele><time>2026-05-01T11:31:11.999Z</time></trkpt><trkpt lat="44.59091081892492" lon="8.79304407451198"><ele>547.0</ele><time>2026-05-01T11:31:12.999Z</time></trkpt><trkpt lat="44.59085022784975" lon="8.79294763951629"><ele>547.0</ele><time>2026-05-01T11:31:13.999Z</time></trkpt><trkpt lat="44.590792089698745" lon="8.792846357756751"><ele>547.0</ele><time>2026-05-01T11:31:14.999Z</time></trkpt><trkpt lat="44.59074620400191" lon="8.792729222319183"><ele>547.0</ele><time>2026-05-01T11:31:15.999Z</time></trkpt><trkpt lat="44.59071763200727" lon="8.792609939650038"><ele>544.0</ele><time>2026-05-01T11:31:16.999Z</time></trkpt><trkpt lat="44.59069990670076" lon="8.792480561263353"><ele>541.0</ele><time>2026-05-01T11:31:17.999Z</time></trkpt><trkpt lat="44.59069778600479" lon="8.792353699685162"><ele>538.0</ele><time>2026-05-01T11:31:18.999Z</time></trkpt><trkpt lat="44.59070226103611" lon="8.792228670809687"><ele>535.0</ele><time>2026-05-01T11:31:19.999Z</time></trkpt><trkpt lat="44.59068570401556" lon="8.792111939454644"><ele>532.0</ele><time>2026-05-01T11:31:20.999Z</time></trkpt><trkpt lat="44.59063713293616" lon="8.792017079039862"><ele>529.0</ele><time>2026-05-01T11:31:21.999Z</time></trkpt><trkpt lat="44.590562144183785" lon="8.791949084172712"><ele>529.0</ele><time>2026-05-01T11:31:22.999Z</time></trkpt><trkpt lat="44.59049031435832" lon="8.791879851377539"><ele>529.0</ele><time>2026-05-01T11:31:23.999Z</time></trkpt><trkpt lat="44.59042067927976" lon="8.791802506526201"><ele>529.0</ele><time>2026-05-01T11:31:24.999Z</time></trkpt><trkpt lat="44.590357904355066" lon="8.791733194092028"><ele>529.0</ele><time>2026-05-01T11:31:25.999Z</time></trkpt><trkpt lat="44.59028497252224" lon="8.791685628799112"><ele>529.0</ele><time>2026-05-01T11:31:26.999Z</time></trkpt><trkpt lat="44.59020304398334" lon="8.791693925972025"><ele>529.0</ele><time>2026-05-01T11:31:27.999Z</time></trkpt><trkpt lat="44.59012844881793" lon="8.791767308084705"><ele>530.5</ele><time>2026-05-01T11:31:28.999Z</time></trkpt><trkpt lat="44.59007795617176" lon="8.791865486484586"><ele>532.0</ele><time>2026-05-01T11:31:29.999Z</time></trkpt><trkpt lat="44.59005343518241" lon="8.791976113966987"><ele>533.5</ele><time>2026-05-01T11:31:30.999Z</time></trkpt><trkpt lat="44.590010349739295" lon="8.792071359057424"><ele>535.0</ele><time>2026-05-01T11:31:31.999Z</time></trkpt><trkpt lat="44.589955737415906" lon="8.792152372381938"><ele>536.5</ele><time>2026-05-01T11:31:32.999Z</time></trkpt><trkpt lat="44.589874601971765" lon="8.792182147740483"><ele>538.0</ele><time>2026-05-01T11:31:33.999Z</time></trkpt><trkpt lat="44.58978377268296" lon="8.792220575385201"><ele>538.0</ele><time>2026-05-01T11:31:34.999Z</time></trkpt><trkpt lat="44.589700502604444" lon="8.792291761877124"><ele>538.0</ele><time>2026-05-01T11:31:35.999Z</time></trkpt><trkpt lat="44.58961324232585" lon="8.79237730960545"><ele>538.0</ele><time>2026-05-01T11:31:36.999Z</time></trkpt><trkpt lat="44.58952505928124" lon="8.792470103412034"><ele>538.0</ele><time>2026-05-01T11:31:37.999Z</time></trkpt><trkpt lat="44.589430934646664" lon="8.792560370204928"><ele>538.0</ele><time>2026-05-01T11:31:38.999Z</time></trkpt><trkpt lat="44.589330448361416" lon="8.792663787659873"><ele>539.25</ele><time>2026-05-01T11:31:39.999Z</time></trkpt><trkpt lat="44.58923217726724" lon="8.792803341366643"><ele>540.5</ele><time>2026-05-01T11:31:40.999Z</time></trkpt><trkpt lat="44.589144984073506" lon="8.792960718422956"><ele>541.75</ele><time>2026-05-01T11:31:41.999Z</time></trkpt><trkpt lat="44.58907512808049" lon="8.793089059589757"><ele>543.0</ele><time>2026-05-01T11:31:42.999Z</time></trkpt><trkpt lat="44.58899709713081" lon="8.79319556778288"><ele>543.0</ele><time>2026-05-01T11:31:43.999Z</time></trkpt><trkpt lat="44.58892829327909" lon="8.793302817809407"><ele>543.0</ele><time>2026-05-01T11:31:44.999Z</time></trkpt><trkpt lat="44.5888567021817" lon="8.793394816201193"><ele>543.0</ele><time>2026-05-01T11:31:45.999Z</time></trkpt><trkpt lat="44.58875942232572" lon="8.793335812237048"><ele>543.0</ele><time>2026-05-01T11:31:46.999Z</time></trkpt><trkpt lat="44.588691950233844" lon="8.793244998461118"><ele>543.0</ele><time>2026-05-01T11:31:47.999Z</time></trkpt><trkpt lat="44.58864260993081" lon="8.793102300089084"><ele>545.25</ele><time>2026-05-01T11:31:48.999Z</time></trkpt><trkpt lat="44.58859666273989" lon="8.792942556788581"><ele>547.5</ele><time>2026-05-01T11:31:49.999Z</time></trkpt><trkpt lat="44.58854521616139" lon="8.792782244336761"><ele>549.75</ele><time>2026-05-01T11:31:50.999Z</time></trkpt><trkpt lat="44.58850707556006" lon="8.792617508944351"><ele>552.0</ele><time>2026-05-01T11:31:51.999Z</time></trkpt><trkpt lat="44.58845619291626" lon="8.792460523541441"><ele>547.5</ele><time>2026-05-01T11:31:52.999Z</time></trkpt><trkpt lat="44.58841333477853" lon="8.792336710193522"><ele>543.0</ele><time>2026-05-01T11:31:53.999Z</time></trkpt><trkpt lat="44.5883730885396" lon="8.792231310230871"><ele>538.5</ele><time>2026-05-01T11:31:54.999Z</time></trkpt><trkpt lat="44.588316621323564" lon="8.792155089362877"><ele>534.0</ele><time>2026-05-01T11:31:55.999Z</time></trkpt><trkpt lat="44.588254439386155" lon="8.792096194493782"><ele>529.5</ele><time>2026-05-01T11:31:56.999Z</time></trkpt><trkpt lat="44.58817246459942" lon="8.792090677081376"><ele>525.0</ele><time>2026-05-01T11:31:57.999Z</time></trkpt><trkpt lat="44.588075542120144" lon="8.792124852754814"><ele>525.0</ele><time>2026-05-01T11:31:58.999Z</time></trkpt><trkpt lat="44.58796957962262" lon="8.792139809323817"><ele>525.0</ele><time>2026-05-01T11:31:59.999Z</time></trkpt><trkpt lat="44.58785102509202" lon="8.792156874000847"><ele>525.0</ele><time>2026-05-01T11:32:00.999Z</time></trkpt><trkpt lat="44.587733955461175" lon="8.792161730873785"><ele>525.0</ele><time>2026-05-01T11:32:01.999Z</time></trkpt><trkpt lat="44.58762692898614" lon="8.79216170358744"><ele>529.4</ele><time>2026-05-01T11:32:02.999Z</time></trkpt><trkpt lat="44.587528316841656" lon="8.79217946572647"><ele>533.8</ele><time>2026-05-01T11:32:03.999Z</time></trkpt><trkpt lat="44.587449495014695" lon="8.792128203457658"><ele>538.2</ele><time>2026-05-01T11:32:04.999Z</time></trkpt><trkpt lat="44.587365055707295" lon="8.79208206544145"><ele>542.6</ele><time>2026-05-01T11:32:05.999Z</time></trkpt><trkpt lat="44.587285727330844" lon="8.792034107965273"><ele>547.0</ele><time>2026-05-01T11:32:06.999Z</time></trkpt><trkpt lat="44.58719227257679" lon="8.79199734572113"><ele>547.0</ele><time>2026-05-01T11:32:07.999Z</time></trkpt><trkpt lat="44.587098649170684" lon="8.791964071901663"><ele>547.0</ele><time>2026-05-01T11:32:08.999Z</time></trkpt><trkpt lat="44.58699395939701" lon="8.791948019741293"><ele>547.0</ele><time>2026-05-01T11:32:09.999Z</time></trkpt><trkpt lat="44.58689421539961" lon="8.791921639322322"><ele>547.0</ele><time>2026-05-01T11:32:10.999Z</time></trkpt><trkpt lat="44.5868115449003" lon="8.791853793698808"><ele>547.0</ele><time>2026-05-01T11:32:11.999Z</time></trkpt><trkpt lat="44.58674332141797" lon="8.791768003565128"><ele>544.4</ele><time>2026-05-01T11:32:12.999Z</time></trkpt><trkpt lat="44.58667170831218" lon="8.791674147450571"><ele>541.8000000000001</ele><time>2026-05-01T11:32:13.999Z</time></trkpt><trkpt lat="44.58664635645406" lon="8.791535001838874"><ele>539.2</ele><time>2026-05-01T11:32:14.999Z</time></trkpt><trkpt lat="44.58658505721888" lon="8.791426105541715"><ele>536.6</ele><time>2026-05-01T11:32:15.999Z</time></trkpt><trkpt lat="44.58652950506174" lon="8.791328366571665"><ele>534.0</ele><time>2026-05-01T11:32:16.999Z</time></trkpt><trkpt lat="44.586444659216944" lon="8.791265239656761"><ele>534.0</ele><time>2026-05-01T11:32:17.999Z</time></trkpt><trkpt lat="44.586357809349586" lon="8.791200973094952"><ele>534.0</ele><time>2026-05-01T11:32:18.999Z</time></trkpt><trkpt lat="44.58627894885945" lon="8.791139066613008"><ele>534.0</ele><time>2026-05-01T11:32:19.999Z</time></trkpt><trkpt lat="44.58619105844274" lon="8.791113296925108"><ele>534.0</ele><time>2026-05-01T11:32:20.999Z</time></trkpt><trkpt lat="44.586095335625544" lon="8.791129140859997"><ele>534.0</ele><time>2026-05-01T11:32:21.999Z</time></trkpt><trkpt lat="44.58600878730778" lon="8.791233266229286"><ele>534.2</ele><time>2026-05-01T11:32:22.999Z</time></trkpt><trkpt lat="44.585940448975755" lon="8.791361170436438"><ele>534.4</ele><time>2026-05-01T11:32:23.999Z</time></trkpt><trkpt lat="44.58589340271911" lon="8.791488514305039"><ele>534.6</ele><time>2026-05-01T11:32:24.999Z</time></trkpt><trkpt lat="44.58583050459212" lon="8.79159589542578"><ele>534.8</ele><time>2026-05-01T11:32:25.999Z</time></trkpt><trkpt lat="44.585771194805005" lon="8.791695333972587"><ele>535.0</ele><time>2026-05-01T11:32:26.999Z</time></trkpt><trkpt lat="44.585711347315474" lon="8.79177792101909"><ele>535.0</ele><time>2026-05-01T11:32:27.999Z</time></trkpt><trkpt lat="44.585652620316985" lon="8.791814563644524"><ele>535.0</ele><time>2026-05-01T11:32:28.999Z</time></trkpt><trkpt lat="44.585538043985444" lon="8.79177430450923"><ele>535.0</ele><time>2026-05-01T11:32:30.999Z</time></trkpt><trkpt lat="44.585495462763745" lon="8.791681111667975"><ele>535.0</ele><time>2026-05-01T11:32:31.999Z</time></trkpt><trkpt lat="44.58546733515925" lon="8.791579685058757"><ele>535.0</ele><time>2026-05-01T11:32:32.999Z</time></trkpt><trkpt lat="44.58545498018003" lon="8.791477666657704"><ele>535.0</ele><time>2026-05-01T11:32:33.999Z</time></trkpt><trkpt lat="44.58545284864555" lon="8.791381797865329"><ele>535.0</ele><time>2026-05-01T11:32:34.999Z</time></trkpt><trkpt lat="44.58542967468462" lon="8.791295155852024"><ele>535.0</ele><time>2026-05-01T11:32:35.999Z</time></trkpt><trkpt lat="44.58538539056605" lon="8.791196703149376"><ele>535.0</ele><time>2026-05-01T11:32:36.999Z</time></trkpt><trkpt lat="44.585328605091014" lon="8.791099715331656"><ele>535.0</ele><time>2026-05-01T11:32:37.999Z</time></trkpt><trkpt lat="44.58527301175813" lon="8.791001460800635"><ele>535.0</ele><time>2026-05-01T11:32:38.999Z</time></trkpt><trkpt lat="44.58522654364571" lon="8.79088647645305"><ele>535.0</ele><time>2026-05-01T11:32:39.999Z</time></trkpt><trkpt lat="44.585193065593906" lon="8.790761706362858"><ele>533.6666666666667</ele><time>2026-05-01T11:32:40.999Z</time></trkpt><trkpt lat="44.58518017535038" lon="8.79064194840265"><ele>532.3333333333334</ele><time>2026-05-01T11:32:41.999Z</time></trkpt><trkpt lat="44.585163843874916" lon="8.790537104831667"><ele>531.0</ele><time>2026-05-01T11:32:42.999Z</time></trkpt><trkpt lat="44.58513067327637" lon="8.790397061162"><ele>529.6666666666666</ele><time>2026-05-01T11:32:44.999Z</time></trkpt><trkpt lat="44.58507849078869" lon="8.790290170622514"><ele>528.3333333333333</ele><time>2026-05-01T11:32:46.999Z</time></trkpt><trkpt lat="44.58501647857305" lon="8.790260701660241"><ele>527.0</ele><time>2026-05-01T11:32:47.999Z</time></trkpt><trkpt lat="44.584945854150725" lon="8.790302870943046"><ele>527.0000000000001</ele><time>2026-05-01T11:32:48.999Z</time></trkpt><trkpt lat="44.584882102547766" lon="8.790307002924429"><ele>527.0</ele><time>2026-05-01T11:32:49.999Z</time></trkpt><trkpt lat="44.58482148121007" lon="8.790340845098331"><ele>527.0</ele><time>2026-05-01T11:32:50.999Z</time></trkpt><trkpt lat="44.58475687506696" lon="8.790387201048961"><ele>527.0</ele><time>2026-05-01T11:32:51.999Z</time></trkpt><trkpt lat="44.58470570787264" lon="8.790442554920464"><ele>527.0</ele><time>2026-05-01T11:32:52.999Z</time></trkpt><trkpt lat="44.5846568532842" lon="8.790508997698783"><ele>527.0000000000001</ele><time>2026-05-01T11:32:53.999Z</time></trkpt><trkpt lat="44.584606259040605" lon="8.790579242523016"><ele>527.0</ele><time>2026-05-01T11:32:54.999Z</time></trkpt><trkpt lat="44.584549374011566" lon="8.790642742981474"><ele>526.4</ele><time>2026-05-01T11:32:55.999Z</time></trkpt><trkpt lat="44.5844319871406" lon="8.79064150211634"><ele>525.8000000000001</ele><time>2026-05-01T11:32:57.999Z</time></trkpt><trkpt lat="44.58431637338386" lon="8.790632078299454"><ele>525.2</ele><time>2026-05-01T11:32:59.999Z</time></trkpt><trkpt lat="44.584182543976326" lon="8.790664900857776"><ele>524.6</ele><time>2026-05-01T11:33:01.999Z</time></trkpt><trkpt lat="44.58412275282894" lon="8.790719900267467"><ele>524.0</ele><time>2026-05-01T11:33:02.999Z</time></trkpt><trkpt lat="44.58400781717257" lon="8.790803216285724"><ele>524.0</ele><time>2026-05-01T11:33:04.999Z</time></trkpt><trkpt lat="44.583917152326684" lon="8.79082711761205"><ele>524.0</ele><time>2026-05-01T11:33:05.999Z</time></trkpt><trkpt lat="44.583813806850415" lon="8.790893732460722"><ele>524.0</ele><time>2026-05-01T11:33:06.999Z</time></trkpt><trkpt lat="44.58371438741148" lon="8.79099068499118"><ele>524.0</ele><time>2026-05-01T11:33:07.999Z</time></trkpt><trkpt lat="44.583602609861344" lon="8.791079011394068"><ele>531.5</ele><time>2026-05-01T11:33:08.999Z</time></trkpt><trkpt lat="44.583475186238566" lon="8.791130626662948"><ele>539.0</ele><time>2026-05-01T11:33:09.999Z</time></trkpt><trkpt lat="44.58333581007902" lon="8.791148766395743"><ele>546.5</ele><time>2026-05-01T11:33:11.999Z</time></trkpt><trkpt lat="44.58322067845729" lon="8.791155637614832"><ele>554.0</ele><time>2026-05-01T11:33:12.999Z</time></trkpt><trkpt lat="44.58310308866034" lon="8.791166049838557"><ele>554.0</ele><time>2026-05-01T11:33:13.999Z</time></trkpt><trkpt lat="44.58298881139784" lon="8.791156788707605"><ele>554.0</ele><time>2026-05-01T11:33:14.999Z</time></trkpt><trkpt lat="44.58288182636836" lon="8.79114404886362"><ele>554.0</ele><time>2026-05-01T11:33:15.999Z</time></trkpt><trkpt lat="44.58277944349074" lon="8.791114148492113"><ele>554.0</ele><time>2026-05-01T11:33:16.999Z</time></trkpt><trkpt lat="44.58268151754052" lon="8.791058050039645"><ele>554.0</ele><time>2026-05-01T11:33:17.999Z</time></trkpt><trkpt lat="44.58259309068092" lon="8.791022924117252"><ele>553.4</ele><time>2026-05-01T11:33:18.999Z</time></trkpt><trkpt lat="44.58250244626677" lon="8.791035367166735"><ele>552.8</ele><time>2026-05-01T11:33:19.999Z</time></trkpt><trkpt lat="44.58239960638124" lon="8.791098682036296"><ele>552.2</ele><time>2026-05-01T11:33:20.999Z</time></trkpt><trkpt lat="44.5822999265078" lon="8.791160378860091"><ele>551.6</ele><time>2026-05-01T11:33:21.999Z</time></trkpt><trkpt lat="44.58221248472962" lon="8.791206443502958"><ele>551.0</ele><time>2026-05-01T11:33:22.999Z</time></trkpt><trkpt lat="44.582135862573786" lon="8.791223009953452"><ele>550.75</ele><time>2026-05-01T11:33:23.999Z</time></trkpt><trkpt lat="44.5820105134808" lon="8.791068603150338"><ele>550.5</ele><time>2026-05-01T11:33:25.999Z</time></trkpt><trkpt lat="44.5819799870506" lon="8.790934931318612"><ele>550.25</ele><time>2026-05-01T11:33:26.999Z</time></trkpt><trkpt lat="44.581923514192724" lon="8.7908383785638"><ele>550.0</ele><time>2026-05-01T11:33:27.999Z</time></trkpt><trkpt lat="44.58181735393348" lon="8.790790420559837"><ele>544.2</ele><time>2026-05-01T11:33:28.999Z</time></trkpt><trkpt lat="44.581693478749926" lon="8.79078062703973"><ele>538.4</ele><time>2026-05-01T11:33:29.999Z</time></trkpt><trkpt lat="44.581581156383734" lon="8.790781072653246"><ele>532.6</ele><time>2026-05-01T11:33:30.999Z</time></trkpt><trkpt lat="44.58146943815495" lon="8.790797452821762"><ele>526.8</ele><time>2026-05-01T11:33:31.999Z</time></trkpt><trkpt lat="44.58137515890182" lon="8.790839533250285"><ele>521.0</ele><time>2026-05-01T11:33:32.999Z</time></trkpt><trkpt lat="44.58127995804011" lon="8.790859204319696"><ele>521.0</ele><time>2026-05-01T11:33:33.999Z</time></trkpt><trkpt lat="44.58120193895833" lon="8.790760644269024"><ele>521.0</ele><time>2026-05-01T11:33:34.999Z</time></trkpt><trkpt lat="44.581137375169874" lon="8.79065697784552"><ele>521.0</ele><time>2026-05-01T11:33:35.999Z</time></trkpt><trkpt lat="44.58107783982062" lon="8.79055216521741"><ele>521.0</ele><time>2026-05-01T11:33:36.999Z</time></trkpt><trkpt lat="44.58101738647247" lon="8.790420176275608"><ele>521.0</ele><time>2026-05-01T11:33:37.999Z</time></trkpt><trkpt lat="44.58096295995562" lon="8.790293497499803"><ele>521.6</ele><time>2026-05-01T11:33:38.999Z</time></trkpt><trkpt lat="44.580924273622784" lon="8.79017006372991"><ele>522.2</ele><time>2026-05-01T11:33:39.999Z</time></trkpt><trkpt lat="44.58091726022821" lon="8.790036512759784"><ele>522.8</ele><time>2026-05-01T11:33:40.999Z</time></trkpt><trkpt lat="44.58091050453076" lon="8.789903216773343"><ele>523.4</ele><time>2026-05-01T11:33:41.999Z</time></trkpt><trkpt lat="44.58087126914051" lon="8.789787266844904"><ele>524.0</ele><time>2026-05-01T11:33:42.999Z</time></trkpt><trkpt lat="44.580863341140365" lon="8.789583001255677"><ele>524.0</ele><time>2026-05-01T11:33:44.999Z</time></trkpt><trkpt lat="44.58084928554486" lon="8.789409325998838"><ele>524.0</ele><time>2026-05-01T11:33:45.999Z</time></trkpt><trkpt lat="44.58079298760704" lon="8.789262044435016"><ele>524.0</ele><time>2026-05-01T11:33:46.999Z</time></trkpt><trkpt lat="44.58074912832553" lon="8.789135080364177"><ele>524.0</ele><time>2026-05-01T11:33:47.999Z</time></trkpt><trkpt lat="44.58069837648951" lon="8.789027948260209"><ele>524.0</ele><time>2026-05-01T11:33:48.999Z</time></trkpt><trkpt lat="44.58061626119331" lon="8.78892939806024"><ele>527.2</ele><time>2026-05-01T11:33:49.999Z</time></trkpt><trkpt lat="44.58051230414357" lon="8.788853625529487"><ele>530.4</ele><time>2026-05-01T11:33:50.999Z</time></trkpt><trkpt lat="44.58041639436293" lon="8.788789385425552"><ele>533.6</ele><time>2026-05-01T11:33:51.999Z</time></trkpt><trkpt lat="44.580346238238675" lon="8.788705805494274"><ele>536.8</ele><time>2026-05-01T11:33:52.999Z</time></trkpt><trkpt lat="44.58032729097142" lon="8.788600450649264"><ele>540.0</ele><time>2026-05-01T11:33:53.999Z</time></trkpt><trkpt lat="44.580316812086394" lon="8.788463008481058"><ele>540.0</ele><time>2026-05-01T11:33:55.999Z</time></trkpt><trkpt lat="44.58026881058108" lon="8.788342099832464"><ele>540.0</ele><time>2026-05-01T11:33:57.999Z</time></trkpt><trkpt lat="44.58022945052182" lon="8.788261127232959"><ele>540.0</ele><time>2026-05-01T11:33:58.999Z</time></trkpt><trkpt lat="44.58018412156174" lon="8.788166641410678"><ele>540.0</ele><time>2026-05-01T11:33:59.999Z</time></trkpt><trkpt lat="44.580146872971795" lon="8.788090433625229"><ele>540.0</ele><time>2026-05-01T11:34:00.999Z</time></trkpt><trkpt lat="44.58006832625193" lon="8.787954271030369"><ele>540.0</ele><time>2026-05-01T11:34:02.999Z</time></trkpt><trkpt lat="44.5800253755238" lon="8.787885090029784"><ele>540.0</ele><time>2026-05-01T11:34:03.999Z</time></trkpt><trkpt lat="44.579982822273024" lon="8.78780268737075"><ele>540.0</ele><time>2026-05-01T11:34:04.999Z</time></trkpt><trkpt lat="44.57994593639197" lon="8.787708364833886"><ele>540.0</ele><time>2026-05-01T11:34:05.999Z</time></trkpt><trkpt lat="44.57990591464488" lon="8.787605693205302"><ele>540.0</ele><time>2026-05-01T11:34:06.999Z</time></trkpt><trkpt lat="44.57985269803879" lon="8.787510380173662"><ele>540.0</ele><time>2026-05-01T11:34:07.999Z</time></trkpt><trkpt lat="44.579797086670595" lon="8.787415805303398"><ele>540.0</ele><time>2026-05-01T11:34:08.999Z</time></trkpt><trkpt lat="44.57974487518417" lon="8.787323073092683"><ele>536.3333333333334</ele><time>2026-05-01T11:34:09.999Z</time></trkpt><trkpt lat="44.57970245041736" lon="8.787223371307505"><ele>532.6666666666666</ele><time>2026-05-01T11:34:10.999Z</time></trkpt><trkpt lat="44.57967130465827" lon="8.787121172934219"><ele>529.0</ele><time>2026-05-01T11:34:11.999Z</time></trkpt><trkpt lat="44.57966555874335" lon="8.787016981461054"><ele>525.3333333333333</ele><time>2026-05-01T11:34:12.999Z</time></trkpt><trkpt lat="44.57969121003792" lon="8.786921320111336"><ele>521.6666666666666</ele><time>2026-05-01T11:34:13.999Z</time></trkpt><trkpt lat="44.579729953585016" lon="8.786824285149464"><ele>518.0</ele><time>2026-05-01T11:34:14.999Z</time></trkpt><trkpt lat="44.57975604214621" lon="8.786712206682807"><ele>514.6</ele><time>2026-05-01T11:34:15.999Z</time></trkpt><trkpt lat="44.579753539264985" lon="8.786590293708139"><ele>511.19999999999993</ele><time>2026-05-01T11:34:16.999Z</time></trkpt><trkpt lat="44.579725281784704" lon="8.786473302455915"><ele>507.8</ele><time>2026-05-01T11:34:17.999Z</time></trkpt><trkpt lat="44.57966985620322" lon="8.786361465748026"><ele>504.4</ele><time>2026-05-01T11:34:18.999Z</time></trkpt><trkpt lat="44.5796088487488" lon="8.786254392231518"><ele>501.0</ele><time>2026-05-01T11:34:19.999Z</time></trkpt><trkpt lat="44.57957340199707" lon="8.786132392923452"><ele>499.6</ele><time>2026-05-01T11:34:20.999Z</time></trkpt><trkpt lat="44.57957714278091" lon="8.78600034140461"><ele>498.20000000000005</ele><time>2026-05-01T11:34:21.999Z</time></trkpt><trkpt lat="44.57960382706208" lon="8.785876925727864"><ele>496.79999999999995</ele><time>2026-05-01T11:34:22.999Z</time></trkpt><trkpt lat="44.57960834803802" lon="8.785752278060741"><ele>495.4</ele><time>2026-05-01T11:34:23.999Z</time></trkpt><trkpt lat="44.57956723207066" lon="8.785620619273368"><ele>494.0</ele><time>2026-05-01T11:34:24.999Z</time></trkpt><trkpt lat="44.57951649251105" lon="8.785473974834336"><ele>500.4</ele><time>2026-05-01T11:34:25.999Z</time></trkpt><trkpt lat="44.57949117234951" lon="8.785360487909653"><ele>506.79999999999995</ele><time>2026-05-01T11:34:26.999Z</time></trkpt><trkpt lat="44.579469754936426" lon="8.785178817945143"><ele>513.2</ele><time>2026-05-01T11:34:27.999Z</time></trkpt><trkpt lat="44.57944350634342" lon="8.785026653037194"><ele>519.6</ele><time>2026-05-01T11:34:28.999Z</time></trkpt><trkpt lat="44.579407435507626" lon="8.784883269983975"><ele>526.0</ele><time>2026-05-01T11:34:29.999Z</time></trkpt><trkpt lat="44.57936981368624" lon="8.784740104135665"><ele>526.0</ele><time>2026-05-01T11:34:30.999Z</time></trkpt><trkpt lat="44.579336278540495" lon="8.784600402517174"><ele>526.0</ele><time>2026-05-01T11:34:31.999Z</time></trkpt><trkpt lat="44.57930192546997" lon="8.784458834425859"><ele>526.0</ele><time>2026-05-01T11:34:32.999Z</time></trkpt><trkpt lat="44.579266493661834" lon="8.784325684008659"><ele>526.0</ele><time>2026-05-01T11:34:33.999Z</time></trkpt><trkpt lat="44.57921829452509" lon="8.784212859929086"><ele>526.0</ele><time>2026-05-01T11:34:34.999Z</time></trkpt><trkpt lat="44.579145555934794" lon="8.784150003727914"><ele>526.0</ele><time>2026-05-01T11:34:35.999Z</time></trkpt><trkpt lat="44.57905931624264" lon="8.784164862247868"><ele>526.0</ele><time>2026-05-01T11:34:37Z</time></trkpt><trkpt lat="44.57897463774853" lon="8.78423929713032"><ele>526.0</ele><time>2026-05-01T11:34:38Z</time></trkpt><trkpt lat="44.57889403292289" lon="8.784374017229224"><ele>526.0</ele><time>2026-05-01T11:34:39Z</time></trkpt><trkpt lat="44.57882462072546" lon="8.784531235356345"><ele>526.0</ele><time>2026-05-01T11:34:40Z</time></trkpt><trkpt lat="44.57876265912861" lon="8.784690004516474"><ele>526.0</ele><time>2026-05-01T11:34:41Z</time></trkpt><trkpt lat="44.5786965309719" lon="8.784878675708846"><ele>526.0</ele><time>2026-05-01T11:34:42Z</time></trkpt><trkpt lat="44.578620206916696" lon="8.785067118102168"><ele>526.0</ele><time>2026-05-01T11:34:43Z</time></trkpt><trkpt lat="44.578545914718475" lon="8.78525854853942"><ele>526.5</ele><time>2026-05-01T11:34:44Z</time></trkpt><trkpt lat="44.57848041830627" lon="8.785455074716284"><ele>527.0</ele><time>2026-05-01T11:34:45Z</time></trkpt><trkpt lat="44.57841391569967" lon="8.785631171230113"><ele>527.5</ele><time>2026-05-01T11:34:46Z</time></trkpt><trkpt lat="44.57832586831964" lon="8.785768877743937"><ele>528.0</ele><time>2026-05-01T11:34:47Z</time></trkpt><trkpt lat="44.57822881006288" lon="8.78589163501788"><ele>534.75</ele><time>2026-05-01T11:34:48Z</time></trkpt><trkpt lat="44.57814452220581" lon="8.786014036547172"><ele>541.5</ele><time>2026-05-01T11:34:49Z</time></trkpt><trkpt lat="44.57806226757777" lon="8.78614952152894"><ele>548.25</ele><time>2026-05-01T11:34:50Z</time></trkpt><trkpt lat="44.57798485851839" lon="8.78627790415585"><ele>555.0</ele><time>2026-05-01T11:34:51Z</time></trkpt><trkpt lat="44.57787893449074" lon="8.786390178498147"><ele>553.0</ele><time>2026-05-01T11:34:52Z</time></trkpt><trkpt lat="44.57777388234367" lon="8.786506476498726"><ele>551.0</ele><time>2026-05-01T11:34:53Z</time></trkpt><trkpt lat="44.57768117729401" lon="8.786648087350594"><ele>549.0</ele><time>2026-05-01T11:34:54Z</time></trkpt><trkpt lat="44.57760059471501" lon="8.7867847427915"><ele>547.0</ele><time>2026-05-01T11:34:55Z</time></trkpt><trkpt lat="44.5775234531656" lon="8.786914632481539"><ele>547.0</ele><time>2026-05-01T11:34:56Z</time></trkpt><trkpt lat="44.57744055759469" lon="8.787042661340502"><ele>547.0</ele><time>2026-05-01T11:34:57Z</time></trkpt><trkpt lat="44.577339640867756" lon="8.787151698932297"><ele>547.0</ele><time>2026-05-01T11:34:58Z</time></trkpt><trkpt lat="44.577232460317504" lon="8.787257125641977"><ele>547.0</ele><time>2026-05-01T11:34:59Z</time></trkpt><trkpt lat="44.57713826707596" lon="8.787390609047717"><ele>547.0</ele><time>2026-05-01T11:35:00Z</time></trkpt><trkpt lat="44.577045122351294" lon="8.787525042504775"><ele>547.0</ele><time>2026-05-01T11:35:01Z</time></trkpt><trkpt lat="44.576943119584044" lon="8.787639100880035"><ele>547.0</ele><time>2026-05-01T11:35:02Z</time></trkpt><trkpt lat="44.57684384873594" lon="8.787749909522802"><ele>547.0</ele><time>2026-05-01T11:35:03Z</time></trkpt><trkpt lat="44.576747038749104" lon="8.787850402121126"><ele>545.0</ele><time>2026-05-01T11:35:04Z</time></trkpt><trkpt lat="44.57664701170279" lon="8.787925690656005"><ele>543.0</ele><time>2026-05-01T11:35:05Z</time></trkpt><trkpt lat="44.57657172251407" lon="8.788032565873891"><ele>541.0</ele><time>2026-05-01T11:35:06Z</time></trkpt><trkpt lat="44.57650499129008" lon="8.788160442032535"><ele>539.0</ele><time>2026-05-01T11:35:07Z</time></trkpt><trkpt lat="44.5764250077377" lon="8.788281149981147"><ele>539.0</ele><time>2026-05-01T11:35:08Z</time></trkpt><trkpt lat="44.57632776504388" lon="8.788365162081536"><ele>539.0</ele><time>2026-05-01T11:35:09Z</time></trkpt><trkpt lat="44.57622554876558" lon="8.78840516192254"><ele>539.0</ele><time>2026-05-01T11:35:10Z</time></trkpt><trkpt lat="44.576127337636805" lon="8.788366976607213"><ele>539.0</ele><time>2026-05-01T11:35:11Z</time></trkpt><trkpt lat="44.576035079248854" lon="8.788319505123154"><ele>539.0</ele><time>2026-05-01T11:35:12Z</time></trkpt><trkpt lat="44.57595760212694" lon="8.788331942293823"><ele>537.8333333333333</ele><time>2026-05-01T11:35:13Z</time></trkpt><trkpt lat="44.575907651192466" lon="8.788420838362168"><ele>536.6666666666666</ele><time>2026-05-01T11:35:14Z</time></trkpt><trkpt lat="44.57589013807254" lon="8.788544493371933"><ele>535.5</ele><time>2026-05-01T11:35:15Z</time></trkpt><trkpt lat="44.57586513192924" lon="8.788660214905278"><ele>534.3333333333334</ele><time>2026-05-01T11:35:16Z</time></trkpt><trkpt lat="44.575812210516425" lon="8.788751059811457"><ele>533.1666666666667</ele><time>2026-05-01T11:35:17Z</time></trkpt><trkpt lat="44.575759919809435" lon="8.788844002494082"><ele>532.0</ele><time>2026-05-01T11:35:18Z</time></trkpt><trkpt lat="44.57571887130521" lon="8.788944999729923"><ele>532.0</ele><time>2026-05-01T11:35:18.999Z</time></trkpt><trkpt lat="44.575704400362504" lon="8.78906767148298"><ele>532.0</ele><time>2026-05-01T11:35:19.999Z</time></trkpt><trkpt lat="44.57570054940336" lon="8.789201122286011"><ele>532.0</ele><time>2026-05-01T11:35:20.999Z</time></trkpt><trkpt lat="44.57565180275509" lon="8.789311811574489"><ele>532.0</ele><time>2026-05-01T11:35:21.999Z</time></trkpt><trkpt lat="44.57555567387548" lon="8.789358255420229"><ele>532.0</ele><time>2026-05-01T11:35:22.999Z</time></trkpt><trkpt lat="44.575456661867236" lon="8.7893827772033"><ele>533.6</ele><time>2026-05-01T11:35:23.999Z</time></trkpt><trkpt lat="44.57536549141814" lon="8.789427332489899"><ele>535.2</ele><time>2026-05-01T11:35:24.999Z</time></trkpt><trkpt lat="44.57528651492216" lon="8.789490230491447"><ele>536.8</ele><time>2026-05-01T11:35:25.999Z</time></trkpt><trkpt lat="44.57519750502588" lon="8.789536114453943"><ele>538.4</ele><time>2026-05-01T11:35:26.999Z</time></trkpt><trkpt lat="44.575093675608244" lon="8.789543174147603"><ele>540.0</ele><time>2026-05-01T11:35:27.999Z</time></trkpt><trkpt lat="44.57499768127854" lon="8.789570965639115"><ele>540.0</ele><time>2026-05-01T11:35:28.999Z</time></trkpt><trkpt lat="44.57490258281108" lon="8.789602333055525"><ele>540.0</ele><time>2026-05-01T11:35:29.999Z</time></trkpt><trkpt lat="44.57479324603297" lon="8.789588923081208"><ele>540.0</ele><time>2026-05-01T11:35:30.999Z</time></trkpt><trkpt lat="44.57468190346206" lon="8.789547445132708"><ele>540.0</ele><time>2026-05-01T11:35:31.999Z</time></trkpt><trkpt lat="44.57457151408517" lon="8.789480501781062"><ele>540.0</ele><time>2026-05-01T11:35:32.999Z</time></trkpt><trkpt lat="44.574455010178966" lon="8.789417231321634"><ele>538.25</ele><time>2026-05-01T11:35:33.999Z</time></trkpt><trkpt lat="44.57433564492449" lon="8.789373169915573"><ele>536.5</ele><time>2026-05-01T11:35:34.999Z</time></trkpt><trkpt lat="44.57421423072255" lon="8.789339374273744"><ele>534.75</ele><time>2026-05-01T11:35:35.999Z</time></trkpt><trkpt lat="44.57409507458" lon="8.789312322475757"><ele>533.0</ele><time>2026-05-01T11:35:36.999Z</time></trkpt><trkpt lat="44.57398106341398" lon="8.789292361929082"><ele>527.5</ele><time>2026-05-01T11:35:37.999Z</time></trkpt><trkpt lat="44.573879783737596" lon="8.789286587114526"><ele>522.0</ele><time>2026-05-01T11:35:38.999Z</time></trkpt><trkpt lat="44.57378624540081" lon="8.789274850620222"><ele>516.5</ele><time>2026-05-01T11:35:39.999Z</time></trkpt><trkpt lat="44.573707917667356" lon="8.789245033603294"><ele>511.0</ele><time>2026-05-01T11:35:40.999Z</time></trkpt><trkpt lat="44.57363249502916" lon="8.78920324768978"><ele>505.49999999999994</ele><time>2026-05-01T11:35:41.999Z</time></trkpt><trkpt lat="44.57355709109699" lon="8.789154550349732"><ele>500.0</ele><time>2026-05-01T11:35:42.999Z</time></trkpt><trkpt lat="44.573473980300896" lon="8.78910194078544"><ele>498.8333333333333</ele><time>2026-05-01T11:35:43.999Z</time></trkpt><trkpt lat="44.57338262076685" lon="8.789060408212524"><ele>497.66666666666663</ele><time>2026-05-01T11:35:44.999Z</time></trkpt><trkpt lat="44.57330344611214" lon="8.789031060584001"><ele>496.5</ele><time>2026-05-01T11:35:45.999Z</time></trkpt><trkpt lat="44.57321787479847" lon="8.789004253104377"><ele>495.33333333333337</ele><time>2026-05-01T11:35:46.999Z</time></trkpt><trkpt lat="44.57313488936797" lon="8.788983600880181"><ele>494.1666666666667</ele><time>2026-05-01T11:35:47.999Z</time></trkpt><trkpt lat="44.57304918012017" lon="8.788967802428168"><ele>493.0</ele><time>2026-05-01T11:35:48.999Z</time></trkpt><trkpt lat="44.57297185908637" lon="8.788948931776629"><ele>493.0</ele><time>2026-05-01T11:35:49.999Z</time></trkpt><trkpt lat="44.57290376922676" lon="8.788933967483501"><ele>492.99999999999994</ele><time>2026-05-01T11:35:50.999Z</time></trkpt><trkpt lat="44.57278016926792" lon="8.78892978699029"><ele>492.99999999999994</ele><time>2026-05-01T11:35:52.999Z</time></trkpt><trkpt lat="44.57266500363239" lon="8.788974209500985"><ele>493.0</ele><time>2026-05-01T11:35:54.999Z</time></trkpt><trkpt lat="44.57258562666743" lon="8.789054785776589"><ele>493.0</ele><time>2026-05-01T11:35:56.999Z</time></trkpt><trkpt lat="44.57256713359287" lon="8.789214346024462"><ele>493.6666666666667</ele><time>2026-05-01T11:35:58.999Z</time></trkpt><trkpt lat="44.572574151128684" lon="8.789318871290236"><ele>494.33333333333337</ele><time>2026-05-01T11:35:59.999Z</time></trkpt><trkpt lat="44.57257677006463" lon="8.789434438783571"><ele>495.0</ele><time>2026-05-01T11:36:00.999Z</time></trkpt><trkpt lat="44.57255398243582" lon="8.789550687390202"><ele>495.66666666666663</ele><time>2026-05-01T11:36:01.999Z</time></trkpt><trkpt lat="44.57251801625311" lon="8.789666814756307"><ele>496.3333333333333</ele><time>2026-05-01T11:36:02.999Z</time></trkpt><trkpt lat="44.57248900524054" lon="8.789789612776449"><ele>497.0</ele><time>2026-05-01T11:36:03.999Z</time></trkpt><trkpt lat="44.572466308585284" lon="8.789923954061647"><ele>497.0</ele><time>2026-05-01T11:36:04.999Z</time></trkpt><trkpt lat="44.57245586770273" lon="8.79006819530303"><ele>497.00000000000006</ele><time>2026-05-01T11:36:05.999Z</time></trkpt><trkpt lat="44.57244776229534" lon="8.790205554689507"><ele>497.00000000000006</ele><time>2026-05-01T11:36:06.999Z</time></trkpt><trkpt lat="44.57244402157672" lon="8.79034383388345"><ele>497.0</ele><time>2026-05-01T11:36:07.999Z</time></trkpt><trkpt lat="44.572444031816396" lon="8.79048788277282"><ele>497.0</ele><time>2026-05-01T11:36:08.999Z</time></trkpt><trkpt lat="44.57244560731945" lon="8.790627328069016"><ele>497.8</ele><time>2026-05-01T11:36:09.999Z</time></trkpt><trkpt lat="44.57244726248335" lon="8.790766914168689"><ele>498.6</ele><time>2026-05-01T11:36:10.999Z</time></trkpt><trkpt lat="44.57244322908901" lon="8.790908477609948"><ele>499.40000000000003</ele><time>2026-05-01T11:36:11.999Z</time></trkpt><trkpt lat="44.57242833632028" lon="8.791044997345352"><ele>500.20000000000005</ele><time>2026-05-01T11:36:12.999Z</time></trkpt><trkpt lat="44.57239818577114" lon="8.791181058293919"><ele>501.0</ele><time>2026-05-01T11:36:13.999Z</time></trkpt><trkpt lat="44.572364939684924" lon="8.791322218707917"><ele>502.0</ele><time>2026-05-01T11:36:14.999Z</time></trkpt><trkpt lat="44.57232675866002" lon="8.79146219121656"><ele>503.0</ele><time>2026-05-01T11:36:15.999Z</time></trkpt><trkpt lat="44.572297945620186" lon="8.791618353603928"><ele>504.0</ele><time>2026-05-01T11:36:16.999Z</time></trkpt><trkpt lat="44.57228418796964" lon="8.791789987787949"><ele>505.0</ele><time>2026-05-01T11:36:17.999Z</time></trkpt><trkpt lat="44.57228473039332" lon="8.791967280846178"><ele>505.0</ele><time>2026-05-01T11:36:18.999Z</time></trkpt><trkpt lat="44.57228845764584" lon="8.792134070554756"><ele>505.0</ele><time>2026-05-01T11:36:19.999Z</time></trkpt><trkpt lat="44.572290942946395" lon="8.792289136822218"><ele>505.0</ele><time>2026-05-01T11:36:20.999Z</time></trkpt><trkpt lat="44.572288170165336" lon="8.792425009337814"><ele>505.0</ele><time>2026-05-01T11:36:21.999Z</time></trkpt><trkpt lat="44.57227825020187" lon="8.79253961055444"><ele>505.0</ele><time>2026-05-01T11:36:22.999Z</time></trkpt><trkpt lat="44.57219425342499" lon="8.792645664473872"><ele>505.0</ele><time>2026-05-01T11:36:24.999Z</time></trkpt><trkpt lat="44.57210083484019" lon="8.792527520675913"><ele>505.0</ele><time>2026-05-01T11:36:26.999Z</time></trkpt><trkpt lat="44.572086450808165" lon="8.792437285486551"><ele>505.0</ele><time>2026-05-01T11:36:27.999Z</time></trkpt><trkpt lat="44.57206151520353" lon="8.792249151917854"><ele>505.0</ele><time>2026-05-01T11:36:29.999Z</time></trkpt><trkpt lat="44.57203137088502" lon="8.792132113537665"><ele>505.0</ele><time>2026-05-01T11:36:30.999Z</time></trkpt><trkpt lat="44.5719968703488" lon="8.791981979351947"><ele>511.2</ele><time>2026-05-01T11:36:31.999Z</time></trkpt><trkpt lat="44.57196112360686" lon="8.791846736319672"><ele>517.4</ele><time>2026-05-01T11:36:32.999Z</time></trkpt><trkpt lat="44.57191829839228" lon="8.791710090970906"><ele>523.6</ele><time>2026-05-01T11:36:33.999Z</time></trkpt><trkpt lat="44.57187194737021" lon="8.791581502658364"><ele>529.8</ele><time>2026-05-01T11:36:34.999Z</time></trkpt><trkpt lat="44.57184471028681" lon="8.791446990656386"><ele>536.0</ele><time>2026-05-01T11:36:35.999Z</time></trkpt><trkpt lat="44.57184155713729" lon="8.79130535913071"><ele>536.0</ele><time>2026-05-01T11:36:36.999Z</time></trkpt><trkpt lat="44.57185588913242" lon="8.791178147260998"><ele>536.0</ele><time>2026-05-01T11:36:37.999Z</time></trkpt><trkpt lat="44.571873954483394" lon="8.791074180905856"><ele>536.0</ele><time>2026-05-01T11:36:38.999Z</time></trkpt><trkpt lat="44.571860431532286" lon="8.790985654027532"><ele>536.0</ele><time>2026-05-01T11:36:39.999Z</time></trkpt><trkpt lat="44.57173160062915" lon="8.79097114257773"><ele>536.0</ele><time>2026-05-01T11:36:41.999Z</time></trkpt><trkpt lat="44.57168532939928" lon="8.791082207936924"><ele>536.0</ele><time>2026-05-01T11:36:43Z</time></trkpt><trkpt lat="44.571675304627824" lon="8.791201056253037"><ele>536.0</ele><time>2026-05-01T11:36:44Z</time></trkpt><trkpt lat="44.57164341180721" lon="8.791334313008655"><ele>536.0</ele><time>2026-05-01T11:36:45Z</time></trkpt><trkpt lat="44.57160576828699" lon="8.791482278268822"><ele>536.0</ele><time>2026-05-01T11:36:46Z</time></trkpt><trkpt lat="44.57158441394829" lon="8.791659696267002"><ele>536.0</ele><time>2026-05-01T11:36:47Z</time></trkpt><trkpt lat="44.57158511923254" lon="8.791840726357032"><ele>536.0</ele><time>2026-05-01T11:36:48Z</time></trkpt><trkpt lat="44.57158515651637" lon="8.792032699407757"><ele>536.0</ele><time>2026-05-01T11:36:49Z</time></trkpt><trkpt lat="44.57157094190954" lon="8.792214219621462"><ele>536.0</ele><time>2026-05-01T11:36:50Z</time></trkpt><trkpt lat="44.57154619190076" lon="8.79240480270558"><ele>536.0</ele><time>2026-05-01T11:36:51Z</time></trkpt><trkpt lat="44.57153363722059" lon="8.79256264321188"><ele>534.2</ele><time>2026-05-01T11:36:52Z</time></trkpt><trkpt lat="44.57151912923857" lon="8.792727843312475"><ele>532.4000000000001</ele><time>2026-05-01T11:36:53Z</time></trkpt><trkpt lat="44.57150780889428" lon="8.792890978142191"><ele>530.6</ele><time>2026-05-01T11:36:54Z</time></trkpt><trkpt lat="44.57150633078561" lon="8.793032216653325"><ele>528.8000000000001</ele><time>2026-05-01T11:36:55Z</time></trkpt><trkpt lat="44.571515061740364" lon="8.793154288295726"><ele>527.0</ele><time>2026-05-01T11:36:56Z</time></trkpt><trkpt lat="44.571516445179356" lon="8.793249213292594"><ele>527.0</ele><time>2026-05-01T11:36:57Z</time></trkpt><trkpt lat="44.57147060011002" lon="8.793402675954198"><ele>527.0</ele><time>2026-05-01T11:36:59Z</time></trkpt><trkpt lat="44.57134677524208" lon="8.793429235988842"><ele>527.0</ele><time>2026-05-01T11:37:01Z</time></trkpt><trkpt lat="44.57126200474631" lon="8.793358081740585"><ele>527.0</ele><time>2026-05-01T11:37:02Z</time></trkpt><trkpt lat="44.57116305249093" lon="8.793243934711382"><ele>532.0</ele><time>2026-05-01T11:37:03Z</time></trkpt><trkpt lat="44.57105488150917" lon="8.793154809425777"><ele>537.0</ele><time>2026-05-01T11:37:04Z</time></trkpt><trkpt lat="44.57095764262547" lon="8.793103311860206"><ele>542.0</ele><time>2026-05-01T11:37:05Z</time></trkpt><trkpt lat="44.5708693762669" lon="8.79310507994453"><ele>547.0</ele><time>2026-05-01T11:37:06Z</time></trkpt><trkpt lat="44.57077922965251" lon="8.79316529587044"><ele>552.0</ele><time>2026-05-01T11:37:07Z</time></trkpt><trkpt lat="44.570690297551295" lon="8.793263795756555"><ele>552.0</ele><time>2026-05-01T11:37:08Z</time></trkpt><trkpt lat="44.57058724352564" lon="8.793345142078115"><ele>552.0</ele><time>2026-05-01T11:37:09Z</time></trkpt><trkpt lat="44.57047300490206" lon="8.793350790362831"><ele>552.0</ele><time>2026-05-01T11:37:10Z</time></trkpt><trkpt lat="44.570378298084485" lon="8.79331832327012"><ele>552.0</ele><time>2026-05-01T11:37:11Z</time></trkpt><trkpt lat="44.570304572807196" lon="8.793325063902326"><ele>552.0</ele><time>2026-05-01T11:37:12Z</time></trkpt><trkpt lat="44.57025250232024" lon="8.793385227262908"><ele>554.3333333333334</ele><time>2026-05-01T11:37:13Z</time></trkpt><trkpt lat="44.57026420891684" lon="8.793504390333991"><ele>556.6666666666666</ele><time>2026-05-01T11:37:14Z</time></trkpt><trkpt lat="44.57029422665548" lon="8.793593618084449"><ele>559.0</ele><time>2026-05-01T11:37:15Z</time></trkpt><trkpt lat="44.570332788973616" lon="8.793698411471746"><ele>561.3333333333333</ele><time>2026-05-01T11:37:16Z</time></trkpt><trkpt lat="44.57036253874318" lon="8.79381657572306"><ele>563.6666666666666</ele><time>2026-05-01T11:37:17Z</time></trkpt><trkpt lat="44.57035771500235" lon="8.793952211808424"><ele>566.0</ele><time>2026-05-01T11:37:18Z</time></trkpt><trkpt lat="44.57031973091092" lon="8.794073742911968"><ele>566.0</ele><time>2026-05-01T11:37:19Z</time></trkpt><trkpt lat="44.57024262855138" lon="8.794177732201677"><ele>566.0</ele><time>2026-05-01T11:37:20Z</time></trkpt><trkpt lat="44.57014658660795" lon="8.79425904547078"><ele>566.0</ele><time>2026-05-01T11:37:21Z</time></trkpt><trkpt lat="44.57003296447604" lon="8.794306382609616"><ele>566.0</ele><time>2026-05-01T11:37:22Z</time></trkpt><trkpt lat="44.56991825929156" lon="8.794355324963583"><ele>566.6</ele><time>2026-05-01T11:37:23Z</time></trkpt><trkpt lat="44.56982347923745" lon="8.794415121175902"><ele>567.2</ele><time>2026-05-01T11:37:24Z</time></trkpt><trkpt lat="44.56974181692346" lon="8.794492350905152"><ele>567.8</ele><time>2026-05-01T11:37:25Z</time></trkpt><trkpt lat="44.56967749943868" lon="8.79455702364296"><ele>568.4</ele><time>2026-05-01T11:37:26Z</time></trkpt><trkpt lat="44.56959372041407" lon="8.794593370930462"><ele>569.0</ele><time>2026-05-01T11:37:27Z</time></trkpt><trkpt lat="44.56949344094281" lon="8.7945859183792"><ele>569.0</ele><time>2026-05-01T11:37:28Z</time></trkpt><trkpt lat="44.56937583681705" lon="8.794560029041325"><ele>569.0</ele><time>2026-05-01T11:37:29Z</time></trkpt><trkpt lat="44.569261851727525" lon="8.794544391188218"><ele>569.0</ele><time>2026-05-01T11:37:30Z</time></trkpt><trkpt lat="44.569152222621526" lon="8.794540190211267"><ele>569.0</ele><time>2026-05-01T11:37:31Z</time></trkpt><trkpt lat="44.56904633535241" lon="8.794559072382729"><ele>569.0</ele><time>2026-05-01T11:37:32Z</time></trkpt><trkpt lat="44.56893497369718" lon="8.79461802846385"><ele>569.0</ele><time>2026-05-01T11:37:33Z</time></trkpt><trkpt lat="44.568819123789325" lon="8.794696868087705"><ele>569.0</ele><time>2026-05-01T11:37:33.999Z</time></trkpt><trkpt lat="44.56871249442165" lon="8.79477554283355"><ele>569.0</ele><time>2026-05-01T11:37:34.999Z</time></trkpt><trkpt lat="44.56860019231023" lon="8.794831966277336"><ele>574.25</ele><time>2026-05-01T11:37:35.999Z</time></trkpt><trkpt lat="44.56847567230711" lon="8.79485094068571"><ele>579.5</ele><time>2026-05-01T11:37:36.999Z</time></trkpt><trkpt lat="44.56835449132322" lon="8.79488687992722"><ele>584.75</ele><time>2026-05-01T11:37:37.999Z</time></trkpt><trkpt lat="44.56824336653794" lon="8.794936021756865"><ele>590.0</ele><time>2026-05-01T11:37:38.999Z</time></trkpt><trkpt lat="44.56814253525653" lon="8.794984567654135"><ele>590.0</ele><time>2026-05-01T11:37:39.999Z</time></trkpt><trkpt lat="44.56805945744583" lon="8.795062565942898"><ele>590.0</ele><time>2026-05-01T11:37:40.999Z</time></trkpt><trkpt lat="44.56798879230552" lon="8.795170705845244"><ele>590.0</ele><time>2026-05-01T11:37:41.999Z</time></trkpt><trkpt lat="44.567910157343384" lon="8.795266363760819"><ele>590.0</ele><time>2026-05-01T11:37:42.999Z</time></trkpt><trkpt lat="44.56781527759375" lon="8.795305177744362"><ele>590.0</ele><time>2026-05-01T11:37:43.999Z</time></trkpt><trkpt lat="44.567720944181524" lon="8.795300297962212"><ele>591.0</ele><time>2026-05-01T11:37:44.999Z</time></trkpt><trkpt lat="44.56762989151686" lon="8.795245867072483"><ele>592.0</ele><time>2026-05-01T11:37:45.999Z</time></trkpt><trkpt lat="44.567565008095684" lon="8.795122559966737"><ele>593.0</ele><time>2026-05-01T11:37:46.999Z</time></trkpt><trkpt lat="44.567535301322394" lon="8.794963130113961"><ele>594.0</ele><time>2026-05-01T11:37:47.999Z</time></trkpt><trkpt lat="44.56754780331106" lon="8.794787431321996"><ele>594.0</ele><time>2026-05-01T11:37:48.999Z</time></trkpt><trkpt lat="44.56759240158738" lon="8.794593914617693"><ele>594.0</ele><time>2026-05-01T11:37:49.999Z</time></trkpt><trkpt lat="44.567627250253814" lon="8.79440717742699"><ele>594.0</ele><time>2026-05-01T11:37:50.999Z</time></trkpt><trkpt lat="44.56765219512516" lon="8.794270156813026"><ele>594.0</ele><time>2026-05-01T11:37:51.999Z</time></trkpt><trkpt lat="44.5677084458184" lon="8.79409654210045"><ele>596.5</ele><time>2026-05-01T11:37:52.999Z</time></trkpt><trkpt lat="44.56779138892043" lon="8.79399550749888"><ele>599.0</ele><time>2026-05-01T11:37:53.999Z</time></trkpt><trkpt lat="44.56791277050127" lon="8.79395143700946"><ele>601.5</ele><time>2026-05-01T11:37:54.999Z</time></trkpt><trkpt lat="44.56803953045644" lon="8.79392759437294"><ele>604.0</ele><time>2026-05-01T11:37:55.999Z</time></trkpt><trkpt lat="44.56815125883551" lon="8.793860440287917"><ele>604.0</ele><time>2026-05-01T11:37:56.999Z</time></trkpt><trkpt lat="44.56823853236961" lon="8.7937183758392"><ele>604.0</ele><time>2026-05-01T11:37:57.999Z</time></trkpt><trkpt lat="44.56832408906321" lon="8.793569353545793"><ele>604.0</ele><time>2026-05-01T11:37:58.999Z</time></trkpt><trkpt lat="44.568441022366144" lon="8.793464477572332"><ele>604.0</ele><time>2026-05-01T11:37:59.999Z</time></trkpt><trkpt lat="44.56855964696619" lon="8.793368882955866"><ele>603.8</ele><time>2026-05-01T11:38:00.999Z</time></trkpt><trkpt lat="44.56865222278876" lon="8.793273371408954"><ele>603.5999999999999</ele><time>2026-05-01T11:38:01.999Z</time></trkpt><trkpt lat="44.56874586564592" lon="8.793220609762804"><ele>603.4</ele><time>2026-05-01T11:38:02.999Z</time></trkpt><trkpt lat="44.56881923611843" lon="8.793190955356918"><ele>603.1999999999999</ele><time>2026-05-01T11:38:03.999Z</time></trkpt><trkpt lat="44.5687999342265" lon="8.793045597235414"><ele>603.0</ele><time>2026-05-01T11:38:05.999Z</time></trkpt><trkpt lat="44.5686565240815" lon="8.793049598481764"><ele>607.25</ele><time>2026-05-01T11:38:07.999Z</time></trkpt><trkpt lat="44.56855208639013" lon="8.793074988589181"><ele>611.5</ele><time>2026-05-01T11:38:08.999Z</time></trkpt><trkpt lat="44.56844132071871" lon="8.793099766916868"><ele>615.75</ele><time>2026-05-01T11:38:09.999Z</time></trkpt><trkpt lat="44.56832727385072" lon="8.793117885442507"><ele>620.0</ele><time>2026-05-01T11:38:10.999Z</time></trkpt><trkpt lat="44.5682031874895" lon="8.793089789096893"><ele>620.0</ele><time>2026-05-01T11:38:11.999Z</time></trkpt><trkpt lat="44.56807400456339" lon="8.793028471841314"><ele>620.0</ele><time>2026-05-01T11:38:12.999Z</time></trkpt><trkpt lat="44.56793564195747" lon="8.792957240665515"><ele>620.0</ele><time>2026-05-01T11:38:13.999Z</time></trkpt><trkpt lat="44.567815223952245" lon="8.79290536221175"><ele>620.0</ele><time>2026-05-01T11:38:14.999Z</time></trkpt><trkpt lat="44.56771635889328" lon="8.792886015986278"><ele>621.5</ele><time>2026-05-01T11:38:15.999Z</time></trkpt><trkpt lat="44.56761204605174" lon="8.792870661125583"><ele>623.0</ele><time>2026-05-01T11:38:16.999Z</time></trkpt><trkpt lat="44.56744707335598" lon="8.792828298411443"><ele>624.5</ele><time>2026-05-01T11:38:17.999Z</time></trkpt><trkpt lat="44.56728727587949" lon="8.792830099176731"><ele>626.0</ele><time>2026-05-01T11:38:18.999Z</time></trkpt><trkpt lat="44.56715033668403" lon="8.792850063066885"><ele>626.0</ele><time>2026-05-01T11:38:19.999Z</time></trkpt><trkpt lat="44.56703713217121" lon="8.792866435623989"><ele>626.0</ele><time>2026-05-01T11:38:20.999Z</time></trkpt><trkpt lat="44.56690913150368" lon="8.792877256327554"><ele>626.0</ele><time>2026-05-01T11:38:21.999Z</time></trkpt><trkpt lat="44.566798525787284" lon="8.792852594328613"><ele>626.0</ele><time>2026-05-01T11:38:22.999Z</time></trkpt><trkpt lat="44.56668234814605" lon="8.79282340372692"><ele>626.0</ele><time>2026-05-01T11:38:23.999Z</time></trkpt><trkpt lat="44.56656787471963" lon="8.79276459960801"><ele>626.0</ele><time>2026-05-01T11:38:24.999Z</time></trkpt><trkpt lat="44.566434649689796" lon="8.792669802796915"><ele>626.0</ele><time>2026-05-01T11:38:25.999Z</time></trkpt><trkpt lat="44.56629387944998" lon="8.79260598295162"><ele>626.0</ele><time>2026-05-01T11:38:26.999Z</time></trkpt><trkpt lat="44.566156905729294" lon="8.792560814406855"><ele>630.75</ele><time>2026-05-01T11:38:27.999Z</time></trkpt><trkpt lat="44.56603728148098" lon="8.79249496723371"><ele>635.5</ele><time>2026-05-01T11:38:28.999Z</time></trkpt><trkpt lat="44.56593709353787" lon="8.792393999257392"><ele>640.25</ele><time>2026-05-01T11:38:29.999Z</time></trkpt><trkpt lat="44.56585257370622" lon="8.79228324599394"><ele>645.0</ele><time>2026-05-01T11:38:30.999Z</time></trkpt><trkpt lat="44.565780046417025" lon="8.792161846566907"><ele>645.0</ele><time>2026-05-01T11:38:31.999Z</time></trkpt><trkpt lat="44.56573527709333" lon="8.792026174890776"><ele>645.0</ele><time>2026-05-01T11:38:32.999Z</time></trkpt><trkpt lat="44.56572625773095" lon="8.791868145739755"><ele>645.0</ele><time>2026-05-01T11:38:33.999Z</time></trkpt><trkpt lat="44.56575075436692" lon="8.791681229548722"><ele>645.0</ele><time>2026-05-01T11:38:34.999Z</time></trkpt><trkpt lat="44.56579379212066" lon="8.791492302219446"><ele>647.25</ele><time>2026-05-01T11:38:35.999Z</time></trkpt><trkpt lat="44.56580945608219" lon="8.79130363292002"><ele>649.5</ele><time>2026-05-01T11:38:36.999Z</time></trkpt><trkpt lat="44.56578684218264" lon="8.79110517470672"><ele>651.75</ele><time>2026-05-01T11:38:37.999Z</time></trkpt><trkpt lat="44.56572411108305" lon="8.79093250709783"><ele>654.0</ele><time>2026-05-01T11:38:38.999Z</time></trkpt><trkpt lat="44.565675622677624" lon="8.79078738925096"><ele>655.0</ele><time>2026-05-01T11:38:39.999Z</time></trkpt><trkpt lat="44.56566017720909" lon="8.790654106415449"><ele>656.0</ele><time>2026-05-01T11:38:40.999Z</time></trkpt><trkpt lat="44.56568323305729" lon="8.790526434429406"><ele>657.0</ele><time>2026-05-01T11:38:41.999Z</time></trkpt><trkpt lat="44.565749340401595" lon="8.790424017376626"><ele>658.0</ele><time>2026-05-01T11:38:42.999Z</time></trkpt><trkpt lat="44.565844014712745" lon="8.79032570716777"><ele>659.0</ele><time>2026-05-01T11:38:43.999Z</time></trkpt><trkpt lat="44.56595326176735" lon="8.790198241690089"><ele>658.3333333333333</ele><time>2026-05-01T11:38:44.999Z</time></trkpt><trkpt lat="44.56605193163278" lon="8.790043135568707"><ele>657.6666666666666</ele><time>2026-05-01T11:38:45.999Z</time></trkpt><trkpt lat="44.56615205542428" lon="8.789869154175008"><ele>657.0</ele><time>2026-05-01T11:38:46.999Z</time></trkpt><trkpt lat="44.566243007537025" lon="8.789713543840719"><ele>659.75</ele><time>2026-05-01T11:38:47.999Z</time></trkpt><trkpt lat="44.56632338909821" lon="8.789565338646575"><ele>662.5</ele><time>2026-05-01T11:38:49Z</time></trkpt><trkpt lat="44.56639467581044" lon="8.789433131317827"><ele>665.25</ele><time>2026-05-01T11:38:50Z</time></trkpt><trkpt lat="44.56646808560037" lon="8.789302752606465"><ele>668.0</ele><time>2026-05-01T11:38:51Z</time></trkpt><trkpt lat="44.5665428257161" lon="8.789161472334046"><ele>668.0</ele><time>2026-05-01T11:38:52Z</time></trkpt><trkpt lat="44.56660524074259" lon="8.789017103244301"><ele>668.0</ele><time>2026-05-01T11:38:53Z</time></trkpt><trkpt lat="44.5666231803178" lon="8.788883059317667"><ele>668.0</ele><time>2026-05-01T11:38:54Z</time></trkpt><trkpt lat="44.566603661646646" lon="8.78875921583721"><ele>668.0</ele><time>2026-05-01T11:38:55Z</time></trkpt><trkpt lat="44.56656680774506" lon="8.788630126588197"><ele>668.0</ele><time>2026-05-01T11:38:56Z</time></trkpt><trkpt lat="44.56657255935955" lon="8.788470631342063"><ele>667.4</ele><time>2026-05-01T11:38:57Z</time></trkpt><trkpt lat="44.5665954642071" lon="8.788315243334923"><ele>666.8</ele><time>2026-05-01T11:38:58Z</time></trkpt><trkpt lat="44.5666046752521" lon="8.788171885679311"><ele>666.2</ele><time>2026-05-01T11:38:59Z</time></trkpt><trkpt lat="44.56657587049706" lon="8.78804882815895"><ele>665.6</ele><time>2026-05-01T11:39:00Z</time></trkpt><trkpt lat="44.56651571237237" lon="8.787943243465005"><ele>665.0</ele><time>2026-05-01T11:39:01Z</time></trkpt><trkpt lat="44.56643013528052" lon="8.787851956441276"><ele>665.0</ele><time>2026-05-01T11:39:02Z</time></trkpt><trkpt lat="44.56634835045437" lon="8.787747884743705"><ele>665.0</ele><time>2026-05-01T11:39:03Z</time></trkpt><trkpt lat="44.566279606208035" lon="8.787614972397485"><ele>665.0</ele><time>2026-05-01T11:39:04Z</time></trkpt><trkpt lat="44.56622955134514" lon="8.787465241715191"><ele>665.0</ele><time>2026-05-01T11:39:05Z</time></trkpt><trkpt lat="44.56618556342358" lon="8.7873265234835"><ele>664.5</ele><time>2026-05-01T11:39:06Z</time></trkpt><trkpt lat="44.56614373817417" lon="8.787220644822355"><ele>664.0</ele><time>2026-05-01T11:39:07Z</time></trkpt><trkpt lat="44.56611462066328" lon="8.787117204510139"><ele>663.5</ele><time>2026-05-01T11:39:08Z</time></trkpt><trkpt lat="44.56612529765562" lon="8.786999381627545"><ele>663.0</ele><time>2026-05-01T11:39:09Z</time></trkpt><trkpt lat="44.566190125375265" lon="8.786903894592363"><ele>662.5</ele><time>2026-05-01T11:39:10Z</time></trkpt><trkpt lat="44.566258197345476" lon="8.786829352768276"><ele>662.0</ele><time>2026-05-01T11:39:11Z</time></trkpt><trkpt lat="44.56628522054794" lon="8.786723702234001"><ele>660.8</ele><time>2026-05-01T11:39:12Z</time></trkpt><trkpt lat="44.566233159955154" lon="8.786599389255555"><ele>659.6</ele><time>2026-05-01T11:39:13Z</time></trkpt><trkpt lat="44.56614879030474" lon="8.786487358571156"><ele>658.4</ele><time>2026-05-01T11:39:14Z</time></trkpt><trkpt lat="44.56607570808661" lon="8.78637486077445"><ele>657.1999999999999</ele><time>2026-05-01T11:39:15Z</time></trkpt><trkpt lat="44.56603740799657" lon="8.786236148465672"><ele>656.0</ele><time>2026-05-01T11:39:16Z</time></trkpt><trkpt lat="44.56602082783041" lon="8.786078947098867"><ele>654.8</ele><time>2026-05-01T11:39:17Z</time></trkpt><trkpt lat="44.565984181471556" lon="8.785931850907906"><ele>653.5999999999999</ele><time>2026-05-01T11:39:18Z</time></trkpt><trkpt lat="44.565914793490634" lon="8.785818174429634"><ele>652.4</ele><time>2026-05-01T11:39:19Z</time></trkpt><trkpt lat="44.565827251906285" lon="8.785732959775432"><ele>651.2</ele><time>2026-05-01T11:39:20Z</time></trkpt><trkpt lat="44.565738888136025" lon="8.785634100703001"><ele>650.0</ele><time>2026-05-01T11:39:21Z</time></trkpt><trkpt lat="44.5656635564314" lon="8.78551187619793"><ele>650.0</ele><time>2026-05-01T11:39:22Z</time></trkpt><trkpt lat="44.56561144485526" lon="8.785379132729272"><ele>650.0</ele><time>2026-05-01T11:39:23Z</time></trkpt><trkpt lat="44.5655831539659" lon="8.785244881196059"><ele>650.0</ele><time>2026-05-01T11:39:24Z</time></trkpt><trkpt lat="44.56556800621056" lon="8.785089227234018"><ele>650.0</ele><time>2026-05-01T11:39:25Z</time></trkpt><trkpt lat="44.56559041294157" lon="8.784889349492605"><ele>649.6666666666666</ele><time>2026-05-01T11:39:26Z</time></trkpt><trkpt lat="44.565613843959554" lon="8.784646659582892"><ele>649.3333333333334</ele><time>2026-05-01T11:39:27Z</time></trkpt><trkpt lat="44.56559674011274" lon="8.78440184577411"><ele>649.0</ele><time>2026-05-01T11:39:28Z</time></trkpt><trkpt lat="44.565543869622566" lon="8.784184324941268"><ele>650.75</ele><time>2026-05-01T11:39:29Z</time></trkpt><trkpt lat="44.56551387149385" lon="8.783974136920175"><ele>652.5</ele><time>2026-05-01T11:39:30Z</time></trkpt><trkpt lat="44.565500876617335" lon="8.783800279304506"><ele>654.25</ele><time>2026-05-01T11:39:31Z</time></trkpt><trkpt lat="44.56548160029461" lon="8.78364870480545"><ele>656.0</ele><time>2026-05-01T11:39:32Z</time></trkpt><trkpt lat="44.565470208398985" lon="8.783506961624818"><ele>657.5999999999999</ele><time>2026-05-01T11:39:33Z</time></trkpt><trkpt lat="44.56548910591969" lon="8.783371102802983"><ele>659.2</ele><time>2026-05-01T11:39:34Z</time></trkpt><trkpt lat="44.565550565869586" lon="8.783238812834293"><ele>660.8</ele><time>2026-05-01T11:39:35Z</time></trkpt><trkpt lat="44.565625247285716" lon="8.783115563105838"><ele>662.4000000000001</ele><time>2026-05-01T11:39:36Z</time></trkpt><trkpt lat="44.565702214934426" lon="8.783024630567558"><ele>664.0</ele><time>2026-05-01T11:39:37Z</time></trkpt><trkpt lat="44.56576240827422" lon="8.782946781762824"><ele>664.0</ele><time>2026-05-01T11:39:38Z</time></trkpt><trkpt lat="44.56578981652941" lon="8.782845854629855"><ele>664.0</ele><time>2026-05-01T11:39:39Z</time></trkpt><trkpt lat="44.5657486078302" lon="8.782743685484428"><ele>664.0</ele><time>2026-05-01T11:39:40Z</time></trkpt><trkpt lat="44.565663911501986" lon="8.782663465438215"><ele>664.0</ele><time>2026-05-01T11:39:41Z</time></trkpt><trkpt lat="44.56557959530904" lon="8.782570334776151"><ele>664.0</ele><time>2026-05-01T11:39:41.999Z</time></trkpt><trkpt lat="44.56549426663125" lon="8.782453799121738"><ele>664.25</ele><time>2026-05-01T11:39:42.999Z</time></trkpt><trkpt lat="44.56541947887523" lon="8.78231607220167"><ele>664.5</ele><time>2026-05-01T11:39:43.999Z</time></trkpt><trkpt lat="44.56536250157" lon="8.782150458348173"><ele>664.75</ele><time>2026-05-01T11:39:44.999Z</time></trkpt><trkpt lat="44.56531343044793" lon="8.781973541873626"><ele>665.0</ele><time>2026-05-01T11:39:45.999Z</time></trkpt><trkpt lat="44.565272287786996" lon="8.781796013297933"><ele>666.4</ele><time>2026-05-01T11:39:46.999Z</time></trkpt><trkpt lat="44.56523323375676" lon="8.78163343425524"><ele>667.8</ele><time>2026-05-01T11:39:47.999Z</time></trkpt><trkpt lat="44.56520668152262" lon="8.781484343087014"><ele>669.2</ele><time>2026-05-01T11:39:48.999Z</time></trkpt><trkpt lat="44.56519380944886" lon="8.78135183590466"><ele>670.6</ele><time>2026-05-01T11:39:49.999Z</time></trkpt><trkpt lat="44.56520991694689" lon="8.781207417245932"><ele>672.0</ele><time>2026-05-01T11:39:50.999Z</time></trkpt><trkpt lat="44.565267801924655" lon="8.781052621586099"><ele>671.3333333333334</ele><time>2026-05-01T11:39:51.999Z</time></trkpt><trkpt lat="44.56534949752297" lon="8.780873394992485"><ele>670.6666666666667</ele><time>2026-05-01T11:39:52.999Z</time></trkpt><trkpt lat="44.565433949154176" lon="8.780683326450083"><ele>670.0</ele><time>2026-05-01T11:39:53.999Z</time></trkpt><trkpt lat="44.56551871849913" lon="8.780512455797536"><ele>675.0</ele><time>2026-05-01T11:39:54.999Z</time></trkpt><trkpt lat="44.565583354021086" lon="8.780308037601877"><ele>680.0</ele><time>2026-05-01T11:39:55.999Z</time></trkpt><trkpt lat="44.56564122315573" lon="8.780110830084608"><ele>685.0</ele><time>2026-05-01T11:39:56.999Z</time></trkpt><trkpt lat="44.56570397906372" lon="8.7799364589624"><ele>685.8</ele><time>2026-05-01T11:39:57.999Z</time></trkpt><trkpt lat="44.56575694909122" lon="8.779786848726829"><ele>686.6</ele><time>2026-05-01T11:39:58.999Z</time></trkpt><trkpt lat="44.56579276989714" lon="8.779646459151945"><ele>687.4000000000001</ele><time>2026-05-01T11:39:59.999Z</time></trkpt><trkpt lat="44.56582813270615" lon="8.779507652003891"><ele>688.2</ele><time>2026-05-01T11:40:00.999Z</time></trkpt><trkpt lat="44.56587226203337" lon="8.77938492798089"><ele>689.0</ele><time>2026-05-01T11:40:01.999Z</time></trkpt><trkpt lat="44.565939103065006" lon="8.779267902436883"><ele>689.0</ele><time>2026-05-01T11:40:02.999Z</time></trkpt><trkpt lat="44.56601111648369" lon="8.77913496494716"><ele>689.0</ele><time>2026-05-01T11:40:03.999Z</time></trkpt><trkpt lat="44.566071595796174" lon="8.778988210284853"><ele>689.0</ele><time>2026-05-01T11:40:04.999Z</time></trkpt><trkpt lat="44.566128617737775" lon="8.778829872029524"><ele>689.0</ele><time>2026-05-01T11:40:05.999Z</time></trkpt><trkpt lat="44.56618173253625" lon="8.778669797091295"><ele>692.75</ele><time>2026-05-01T11:40:06.999Z</time></trkpt><trkpt lat="44.56622158134199" lon="8.778505848834532"><ele>696.5</ele><time>2026-05-01T11:40:07.999Z</time></trkpt><trkpt lat="44.56623895121579" lon="8.778334617742258"><ele>700.25</ele><time>2026-05-01T11:40:08.999Z</time></trkpt><trkpt lat="44.56624106424299" lon="8.778170411111143"><ele>704.0</ele><time>2026-05-01T11:40:09.999Z</time></trkpt><trkpt lat="44.566234792232926" lon="8.778032774807068"><ele>704.0</ele><time>2026-05-01T11:40:10.999Z</time></trkpt><trkpt lat="44.56622648111269" lon="8.77790764648804"><ele>704.0</ele><time>2026-05-01T11:40:11.999Z</time></trkpt><trkpt lat="44.566199830597114" lon="8.777790449439763"><ele>704.0</ele><time>2026-05-01T11:40:12.999Z</time></trkpt><trkpt lat="44.56614220416425" lon="8.777708900546322"><ele>704.0</ele><time>2026-05-01T11:40:13.999Z</time></trkpt><trkpt lat="44.566070843859805" lon="8.77770311361189"><ele>704.0</ele><time>2026-05-01T11:40:14.999Z</time></trkpt><trkpt lat="44.56598694581613" lon="8.777773690123887"><ele>704.0</ele><time>2026-05-01T11:40:16.999Z</time></trkpt><trkpt lat="44.56591289526066" lon="8.777926770182988"><ele>701.5</ele><time>2026-05-01T11:40:18.999Z</time></trkpt><trkpt lat="44.565850369836426" lon="8.778012091641548"><ele>699.0</ele><time>2026-05-01T11:40:19.999Z</time></trkpt><trkpt lat="44.56578291969799" lon="8.778099132784604"><ele>696.5</ele><time>2026-05-01T11:40:20.999Z</time></trkpt><trkpt lat="44.56571219066697" lon="8.778193692025974"><ele>694.0</ele><time>2026-05-01T11:40:21.999Z</time></trkpt><trkpt lat="44.56565047961754" lon="8.778274639696807"><ele>691.5</ele><time>2026-05-01T11:40:22.999Z</time></trkpt><trkpt lat="44.565587174412386" lon="8.778348469618281"><ele>689.0</ele><time>2026-05-01T11:40:23.999Z</time></trkpt><trkpt lat="44.565505776765335" lon="8.778389002262282"><ele>689.0</ele><time>2026-05-01T11:40:24.999Z</time></trkpt><trkpt lat="44.565403413003956" lon="8.77838986542942"><ele>689.0</ele><time>2026-05-01T11:40:25.999Z</time></trkpt><trkpt lat="44.56528995977161" lon="8.778375980419755"><ele>689.0</ele><time>2026-05-01T11:40:26.999Z</time></trkpt><trkpt lat="44.56518557686966" lon="8.778368671855455"><ele>689.0</ele><time>2026-05-01T11:40:27.999Z</time></trkpt><trkpt lat="44.56509602022177" lon="8.77837787783853"><ele>689.0</ele><time>2026-05-01T11:40:28.999Z</time></trkpt><trkpt lat="44.5650169379221" lon="8.778388552466394"><ele>688.8333333333333</ele><time>2026-05-01T11:40:29.999Z</time></trkpt><trkpt lat="44.564938946481846" lon="8.778395206719654"><ele>688.6666666666666</ele><time>2026-05-01T11:40:30.999Z</time></trkpt><trkpt lat="44.564862721438786" lon="8.778382760443687"><ele>688.5</ele><time>2026-05-01T11:40:31.999Z</time></trkpt><trkpt lat="44.564799336212744" lon="8.778329308061206"><ele>688.3333333333334</ele><time>2026-05-01T11:40:32.999Z</time></trkpt><trkpt lat="44.564743010391666" lon="8.77825115115583"><ele>688.1666666666667</ele><time>2026-05-01T11:40:33.999Z</time></trkpt><trkpt lat="44.56469385634435" lon="8.778163606254722"><ele>688.0</ele><time>2026-05-01T11:40:34.999Z</time></trkpt><trkpt lat="44.56466075522676" lon="8.778060958840094"><ele>688.0</ele><time>2026-05-01T11:40:35.999Z</time></trkpt><trkpt lat="44.56464221147429" lon="8.77795074587634"><ele>688.0</ele><time>2026-05-01T11:40:36.999Z</time></trkpt><trkpt lat="44.56463791235332" lon="8.777834924518354"><ele>688.0</ele><time>2026-05-01T11:40:37.999Z</time></trkpt><trkpt lat="44.5646583952395" lon="8.777718790508947"><ele>688.0</ele><time>2026-05-01T11:40:38.999Z</time></trkpt><trkpt lat="44.56469040642822" lon="8.777611733767161"><ele>688.0</ele><time>2026-05-01T11:40:39.999Z</time></trkpt><trkpt lat="44.56472686950253" lon="8.777515791949037"><ele>688.0</ele><time>2026-05-01T11:40:40.999Z</time></trkpt><trkpt lat="44.5647461519916" lon="8.777409946509255"><ele>689.8333333333334</ele><time>2026-05-01T11:40:41.999Z</time></trkpt><trkpt lat="44.5647433931468" lon="8.77729789610935"><ele>691.6666666666667</ele><time>2026-05-01T11:40:42.999Z</time></trkpt><trkpt lat="44.56471961779822" lon="8.777192049597412"><ele>693.5</ele><time>2026-05-01T11:40:43.999Z</time></trkpt><trkpt lat="44.56469530605288" lon="8.777081467899345"><ele>695.3333333333334</ele><time>2026-05-01T11:40:44.999Z</time></trkpt><trkpt lat="44.564673525413916" lon="8.776968002575884"><ele>697.1666666666666</ele><time>2026-05-01T11:40:45.999Z</time></trkpt><trkpt lat="44.56465347635277" lon="8.776846937955618"><ele>699.0</ele><time>2026-05-01T11:40:46.999Z</time></trkpt><trkpt lat="44.56462500967203" lon="8.776729228117189"><ele>699.0</ele><time>2026-05-01T11:40:47.999Z</time></trkpt><trkpt lat="44.564594991105" lon="8.77660814219715"><ele>699.0</ele><time>2026-05-01T11:40:48.999Z</time></trkpt><trkpt lat="44.564569846960296" lon="8.776496014688487"><ele>699.0</ele><time>2026-05-01T11:40:49.999Z</time></trkpt><trkpt lat="44.564539612739416" lon="8.776379479854807"><ele>699.0</ele><time>2026-05-01T11:40:50.999Z</time></trkpt><trkpt lat="44.56452884617749" lon="8.776251080940437"><ele>699.0</ele><time>2026-05-01T11:40:51.999Z</time></trkpt><trkpt lat="44.56451895407729" lon="8.77612540842487"><ele>699.0</ele><time>2026-05-01T11:40:52.999Z</time></trkpt><trkpt lat="44.56450741631945" lon="8.775998654040153"><ele>701.4000000000001</ele><time>2026-05-01T11:40:53.999Z</time></trkpt><trkpt lat="44.56449590389568" lon="8.775880348660772"><ele>703.8</ele><time>2026-05-01T11:40:55Z</time></trkpt><trkpt lat="44.56445673448836" lon="8.775782317575278"><ele>706.2</ele><time>2026-05-01T11:40:56Z</time></trkpt><trkpt lat="44.56438167304921" lon="8.77570572198714"><ele>708.5999999999999</ele><time>2026-05-01T11:40:57Z</time></trkpt><trkpt lat="44.564276181427495" lon="8.775638836298747"><ele>711.0</ele><time>2026-05-01T11:40:58Z</time></trkpt><trkpt lat="44.56416748258436" lon="8.775551278387438"><ele>711.0</ele><time>2026-05-01T11:40:59Z</time></trkpt><trkpt lat="44.5640807299866" lon="8.775434465123562"><ele>711.0</ele><time>2026-05-01T11:41:00Z</time></trkpt><trkpt lat="44.564022120306525" lon="8.77531741599833"><ele>711.0</ele><time>2026-05-01T11:41:01Z</time></trkpt><trkpt lat="44.5639700298527" lon="8.775201350599758"><ele>711.0</ele><time>2026-05-01T11:41:02Z</time></trkpt><trkpt lat="44.56394994869855" lon="8.775043779093096"><ele>711.0</ele><time>2026-05-01T11:41:03Z</time></trkpt><trkpt lat="44.56397819227829" lon="8.77484459916074"><ele>713.0</ele><time>2026-05-01T11:41:04Z</time></trkpt><trkpt lat="44.56401297445416" lon="8.774670144335104"><ele>715.0</ele><time>2026-05-01T11:41:05Z</time></trkpt><trkpt lat="44.56403459348466" lon="8.774538030422692"><ele>717.0</ele><time>2026-05-01T11:41:06Z</time></trkpt><trkpt lat="44.56403974299784" lon="8.774429569208117"><ele>719.0</ele><time>2026-05-01T11:41:07Z</time></trkpt><trkpt lat="44.56396395000038" lon="8.774292522975374"><ele>721.0</ele><time>2026-05-01T11:41:09Z</time></trkpt><trkpt lat="44.563885775390226" lon="8.774269517879643"><ele>720.4</ele><time>2026-05-01T11:41:10Z</time></trkpt><trkpt lat="44.563806467921516" lon="8.774299980140714"><ele>719.8</ele><time>2026-05-01T11:41:11Z</time></trkpt><trkpt lat="44.563722209219" lon="8.77434888056592"><ele>719.1999999999999</ele><time>2026-05-01T11:41:12Z</time></trkpt><trkpt lat="44.56362282853636" lon="8.774403861224076"><ele>718.5999999999999</ele><time>2026-05-01T11:41:13Z</time></trkpt><trkpt lat="44.56352708096054" lon="8.774421638854628"><ele>718.0</ele><time>2026-05-01T11:41:14Z</time></trkpt><trkpt lat="44.56342063002647" lon="8.774395514946018"><ele>720.5</ele><time>2026-05-01T11:41:15Z</time></trkpt><trkpt lat="44.563323459834976" lon="8.774305295673436"><ele>723.0</ele><time>2026-05-01T11:41:16Z</time></trkpt><trkpt lat="44.56324765413918" lon="8.774185188145822"><ele>725.5</ele><time>2026-05-01T11:41:17Z</time></trkpt><trkpt lat="44.563184034006035" lon="8.774058032973773"><ele>728.0</ele><time>2026-05-01T11:41:18Z</time></trkpt><trkpt lat="44.56313163974171" lon="8.773914896826385"><ele>728.0</ele><time>2026-05-01T11:41:19Z</time></trkpt><trkpt lat="44.56308250029564" lon="8.773771080869881"><ele>728.0</ele><time>2026-05-01T11:41:20Z</time></trkpt><trkpt lat="44.563041613700214" lon="8.773597092909451"><ele>728.0</ele><time>2026-05-01T11:41:21Z</time></trkpt><trkpt lat="44.5629803174191" lon="8.773434451250571"><ele>728.0</ele><time>2026-05-01T11:41:22Z</time></trkpt><trkpt lat="44.56290733670886" lon="8.773276565100854"><ele>729.75</ele><time>2026-05-01T11:41:23Z</time></trkpt><trkpt lat="44.56283113219961" lon="8.773136103633684"><ele>731.5</ele><time>2026-05-01T11:41:24Z</time></trkpt><trkpt lat="44.56275143579211" lon="8.773014268000802"><ele>733.25</ele><time>2026-05-01T11:41:25Z</time></trkpt><trkpt lat="44.56266990744111" lon="8.772896185705605"><ele>735.0</ele><time>2026-05-01T11:41:26Z</time></trkpt><trkpt lat="44.56259013323509" lon="8.772780269274577"><ele>736.6</ele><time>2026-05-01T11:41:27Z</time></trkpt><trkpt lat="44.562516199128574" lon="8.772662586677328"><ele>738.2</ele><time>2026-05-01T11:41:28Z</time></trkpt><trkpt lat="44.56244334508187" lon="8.772557691885533"><ele>739.8</ele><time>2026-05-01T11:41:29Z</time></trkpt><trkpt lat="44.56237712207014" lon="8.77246161507821"><ele>741.4</ele><time>2026-05-01T11:41:30Z</time></trkpt><trkpt lat="44.562320651053504" lon="8.772350852811917"><ele>743.0</ele><time>2026-05-01T11:41:31Z</time></trkpt><trkpt lat="44.56228258716967" lon="8.77220444848681"><ele>743.0</ele><time>2026-05-01T11:41:32Z</time></trkpt><trkpt lat="44.56226003489019" lon="8.772062723944142"><ele>743.0</ele><time>2026-05-01T11:41:33Z</time></trkpt><trkpt lat="44.56224056421517" lon="8.771952012144286"><ele>743.0</ele><time>2026-05-01T11:41:34Z</time></trkpt><trkpt lat="44.562208943158694" lon="8.771854012125424"><ele>743.0</ele><time>2026-05-01T11:41:35Z</time></trkpt><trkpt lat="44.562148880815435" lon="8.771782111794435"><ele>743.0</ele><time>2026-05-01T11:41:36Z</time></trkpt><trkpt lat="44.562060240103904" lon="8.77175552558263"><ele>743.0</ele><time>2026-05-01T11:41:37Z</time></trkpt><trkpt lat="44.5619772301063" lon="8.771804749072395"><ele>744.75</ele><time>2026-05-01T11:41:38Z</time></trkpt><trkpt lat="44.56190238773817" lon="8.771926071618584"><ele>746.5</ele><time>2026-05-01T11:41:39Z</time></trkpt><trkpt lat="44.56181788410655" lon="8.772052126468108"><ele>748.25</ele><time>2026-05-01T11:41:39.999Z</time></trkpt><trkpt lat="44.56170907005775" lon="8.772118496371627"><ele>750.0</ele><time>2026-05-01T11:41:40.999Z</time></trkpt><trkpt lat="44.5616146716268" lon="8.772172615053718"><ele>750.0</ele><time>2026-05-01T11:41:41.999Z</time></trkpt><trkpt lat="44.56153629864086" lon="8.772246287894237"><ele>750.0</ele><time>2026-05-01T11:41:42.999Z</time></trkpt><trkpt lat="44.56143680984928" lon="8.772307675192534"><ele>750.0</ele><time>2026-05-01T11:41:43.999Z</time></trkpt><trkpt lat="44.56132325883653" lon="8.77237364852319"><ele>750.0</ele><time>2026-05-01T11:41:44.999Z</time></trkpt><trkpt lat="44.56119884251395" lon="8.772436766983208"><ele>751.2</ele><time>2026-05-01T11:41:45.999Z</time></trkpt><trkpt lat="44.561085092345365" lon="8.772457441650518"><ele>752.4</ele><time>2026-05-01T11:41:46.999Z</time></trkpt><trkpt lat="44.56099107316196" lon="8.772457544958435"><ele>753.5999999999999</ele><time>2026-05-01T11:41:47.999Z</time></trkpt><trkpt lat="44.5608957632288" lon="8.772495001715495"><ele>754.8</ele><time>2026-05-01T11:41:48.999Z</time></trkpt><trkpt lat="44.56083057723016" lon="8.77259020715905"><ele>756.0</ele><time>2026-05-01T11:41:49.999Z</time></trkpt><trkpt lat="44.56078797761087" lon="8.772738047184268"><ele>756.0</ele><time>2026-05-01T11:41:50.999Z</time></trkpt><trkpt lat="44.56073797036708" lon="8.772909911252198"><ele>756.0</ele><time>2026-05-01T11:41:51.999Z</time></trkpt><trkpt lat="44.56068777629753" lon="8.773045690359528"><ele>756.0</ele><time>2026-05-01T11:41:52.999Z</time></trkpt><trkpt lat="44.560664486289156" lon="8.773233378736956"><ele>756.0</ele><time>2026-05-01T11:41:53.999Z</time></trkpt><trkpt lat="44.56053996697317" lon="8.77329717417626"><ele>756.0</ele><time>2026-05-01T11:41:54.999Z</time></trkpt><trkpt lat="44.56040334157051" lon="8.773317083280068"><ele>756.0</ele><time>2026-05-01T11:41:55.999Z</time></trkpt><trkpt lat="44.56029892993158" lon="8.773392639897736"><ele>756.0</ele><time>2026-05-01T11:41:56.999Z</time></trkpt><trkpt lat="44.560189061058054" lon="8.773449925161286"><ele>756.0</ele><time>2026-05-01T11:41:57.999Z</time></trkpt><trkpt lat="44.560059868635406" lon="8.77344686823097"><ele>760.5</ele><time>2026-05-01T11:41:58.999Z</time></trkpt><trkpt lat="44.55991012519146" lon="8.773420935605552"><ele>765.0</ele><time>2026-05-01T11:41:59.999Z</time></trkpt><trkpt lat="44.559768466097935" lon="8.773422119615791"><ele>769.5</ele><time>2026-05-01T11:42:00.999Z</time></trkpt><trkpt lat="44.559629999088976" lon="8.773393584896079"><ele>774.0</ele><time>2026-05-01T11:42:01.999Z</time></trkpt><trkpt lat="44.559508020481594" lon="8.7734020849721"><ele>774.5</ele><time>2026-05-01T11:42:02.999Z</time></trkpt><trkpt lat="44.559394263544554" lon="8.773423381195064"><ele>775.0</ele><time>2026-05-01T11:42:03.999Z</time></trkpt><trkpt lat="44.55927744241373" lon="8.773452304535365"><ele>775.5</ele><time>2026-05-01T11:42:04.999Z</time></trkpt><trkpt lat="44.55916039952934" lon="8.773510822783052"><ele>776.0</ele><time>2026-05-01T11:42:05.999Z</time></trkpt><trkpt lat="44.55904325245696" lon="8.773593450858387"><ele>778.0</ele><time>2026-05-01T11:42:06.999Z</time></trkpt><trkpt lat="44.55894137785578" lon="8.773689582944836"><ele>780.0</ele><time>2026-05-01T11:42:07.999Z</time></trkpt><trkpt lat="44.55884910764526" lon="8.773788421837818"><ele>782.0</ele><time>2026-05-01T11:42:08.999Z</time></trkpt><trkpt lat="44.55875541601846" lon="8.773890586435867"><ele>784.0</ele><time>2026-05-01T11:42:09.999Z</time></trkpt><trkpt lat="44.558648379238214" lon="8.773967372731851"><ele>784.0</ele><time>2026-05-01T11:42:10.999Z</time></trkpt><trkpt lat="44.5585431553998" lon="8.77402374799909"><ele>784.0</ele><time>2026-05-01T11:42:11.999Z</time></trkpt><trkpt lat="44.55842797100308" lon="8.774028959641312"><ele>784.0</ele><time>2026-05-01T11:42:12.999Z</time></trkpt><trkpt lat="44.55830856171071" lon="8.773993788224642"><ele>784.0</ele><time>2026-05-01T11:42:13.999Z</time></trkpt><trkpt lat="44.558172253212746" lon="8.773955948970922"><ele>784.0</ele><time>2026-05-01T11:42:14.999Z</time></trkpt><trkpt lat="44.5580319409783" lon="8.773942144697136"><ele>784.0</ele><time>2026-05-01T11:42:15.999Z</time></trkpt><trkpt lat="44.55789525945267" lon="8.773963016994447"><ele>784.0</ele><time>2026-05-01T11:42:16.999Z</time></trkpt><trkpt lat="44.55776040717563" lon="8.773989229067727"><ele>784.0</ele><time>2026-05-01T11:42:17.999Z</time></trkpt><trkpt lat="44.55763372991998" lon="8.774005814884829"><ele>783.75</ele><time>2026-05-01T11:42:18.999Z</time></trkpt><trkpt lat="44.557504717501374" lon="8.773989081563004"><ele>783.5</ele><time>2026-05-01T11:42:19.999Z</time></trkpt><trkpt lat="44.55738757054143" lon="8.77392591964811"><ele>783.25</ele><time>2026-05-01T11:42:20.999Z</time></trkpt><trkpt lat="44.55728191176456" lon="8.773837613093168"><ele>783.0</ele><time>2026-05-01T11:42:21.999Z</time></trkpt><trkpt lat="44.55717103209631" lon="8.773769511050139"><ele>783.0</ele><time>2026-05-01T11:42:22.999Z</time></trkpt><trkpt lat="44.557059765054206" lon="8.773745499164592"><ele>783.0</ele><time>2026-05-01T11:42:23.999Z</time></trkpt><trkpt lat="44.55694103189286" lon="8.77374276584546"><ele>783.0</ele><time>2026-05-01T11:42:24.999Z</time></trkpt><trkpt lat="44.55682678731522" lon="8.773736838436689"><ele>783.0</ele><time>2026-05-01T11:42:25.999Z</time></trkpt><trkpt lat="44.556708559375664" lon="8.773706650815727"><ele>782.75</ele><time>2026-05-01T11:42:26.999Z</time></trkpt><trkpt lat="44.556602919000454" lon="8.7736285278142"><ele>782.5</ele><time>2026-05-01T11:42:27.999Z</time></trkpt><trkpt lat="44.55649934288126" lon="8.773524092500466"><ele>782.25</ele><time>2026-05-01T11:42:28.999Z</time></trkpt><trkpt lat="44.556413865414726" lon="8.773396956362372"><ele>782.0</ele><time>2026-05-01T11:42:29.999Z</time></trkpt><trkpt lat="44.556330002631796" lon="8.773245647548842"><ele>782.0</ele><time>2026-05-01T11:42:30.999Z</time></trkpt><trkpt lat="44.55624106601184" lon="8.77308816017472"><ele>782.0</ele><time>2026-05-01T11:42:31.999Z</time></trkpt><trkpt lat="44.55614819233237" lon="8.772938996766756"><ele>782.0</ele><time>2026-05-01T11:42:32.999Z</time></trkpt><trkpt lat="44.556059351356296" lon="8.772781971248046"><ele>782.0</ele><time>2026-05-01T11:42:33.999Z</time></trkpt><trkpt lat="44.555984797538756" lon="8.77261260946054"><ele>781.75</ele><time>2026-05-01T11:42:34.999Z</time></trkpt><trkpt lat="44.55590813357219" lon="8.772446605381806"><ele>781.5</ele><time>2026-05-01T11:42:35.999Z</time></trkpt><trkpt lat="44.55581095498994" lon="8.772297115197174"><ele>781.25</ele><time>2026-05-01T11:42:36.999Z</time></trkpt><trkpt lat="44.5557127468336" lon="8.772145540610454"><ele>781.0</ele><time>2026-05-01T11:42:37.999Z</time></trkpt><trkpt lat="44.5556351206699" lon="8.771973880386636"><ele>777.5</ele><time>2026-05-01T11:42:38.999Z</time></trkpt><trkpt lat="44.55557426635674" lon="8.771787992193653"><ele>774.0</ele><time>2026-05-01T11:42:39.999Z</time></trkpt><trkpt lat="44.555537785880546" lon="8.771613619592463"><ele>770.5</ele><time>2026-05-01T11:42:40.999Z</time></trkpt><trkpt lat="44.55551407683779" lon="8.771457022344634"><ele>767.0</ele><time>2026-05-01T11:42:41.999Z</time></trkpt><trkpt lat="44.55547730414238" lon="8.771315599986172"><ele>767.0</ele><time>2026-05-01T11:42:42.999Z</time></trkpt><trkpt lat="44.555405886331954" lon="8.771203236899257"><ele>767.0</ele><time>2026-05-01T11:42:43.999Z</time></trkpt><trkpt lat="44.555311171602" lon="8.771121112547037"><ele>767.0</ele><time>2026-05-01T11:42:44.999Z</time></trkpt><trkpt lat="44.55521154022053" lon="8.771059336166593"><ele>767.0</ele><time>2026-05-01T11:42:45.999Z</time></trkpt><trkpt lat="44.5551062426991" lon="8.77101575468264"><ele>767.0</ele><time>2026-05-01T11:42:46.999Z</time></trkpt><trkpt lat="44.55499242042363" lon="8.770991242881403"><ele>766.2</ele><time>2026-05-01T11:42:47.999Z</time></trkpt><trkpt lat="44.55487852975001" lon="8.770986861829352"><ele>765.4000000000001</ele><time>2026-05-01T11:42:48.999Z</time></trkpt><trkpt lat="44.55476769602845" lon="8.770991031681291"><ele>764.5999999999999</ele><time>2026-05-01T11:42:49.999Z</time></trkpt><trkpt lat="44.5546603760978" lon="8.770995944420543"><ele>763.8</ele><time>2026-05-01T11:42:50.999Z</time></trkpt><trkpt lat="44.55457194412742" lon="8.771085275226586"><ele>763.0</ele><time>2026-05-01T11:42:51.999Z</time></trkpt><trkpt lat="44.554491255657425" lon="8.771188821825714"><ele>762.0</ele><time>2026-05-01T11:42:52.999Z</time></trkpt><trkpt lat="44.55440111603029" lon="8.771263965049142"><ele>761.0</ele><time>2026-05-01T11:42:53.999Z</time></trkpt><trkpt lat="44.554310058806585" lon="8.771346304024215"><ele>760.0</ele><time>2026-05-01T11:42:54.999Z</time></trkpt><trkpt lat="44.55422907442759" lon="8.771451782488649"><ele>759.0</ele><time>2026-05-01T11:42:55.999Z</time></trkpt><trkpt lat="44.55414097729262" lon="8.771539859999935"><ele>758.0</ele><time>2026-05-01T11:42:56.999Z</time></trkpt><trkpt lat="44.5540667301468" lon="8.771653029074564"><ele>758.0</ele><time>2026-05-01T11:42:57.999Z</time></trkpt><trkpt lat="44.55402203941385" lon="8.771804053375861"><ele>758.0</ele><time>2026-05-01T11:42:58.999Z</time></trkpt><trkpt lat="44.55400743005143" lon="8.7719673417395"><ele>758.0</ele><time>2026-05-01T11:42:59.999Z</time></trkpt><trkpt lat="44.55395421697478" lon="8.772104047782971"><ele>758.0</ele><time>2026-05-01T11:43:01Z</time></trkpt><trkpt lat="44.55390269394725" lon="8.772244818184785"><ele>760.25</ele><time>2026-05-01T11:43:02Z</time></trkpt><trkpt lat="44.553837187385014" lon="8.77236969497509"><ele>762.5</ele><time>2026-05-01T11:43:03Z</time></trkpt><trkpt lat="44.553752415725576" lon="8.772465287978342"><ele>764.75</ele><time>2026-05-01T11:43:04Z</time></trkpt><trkpt lat="44.55365205807146" lon="8.772550517854105"><ele>767.0</ele><time>2026-05-01T11:43:05Z</time></trkpt><trkpt lat="44.55354696278721" lon="8.772657209382134"><ele>764.75</ele><time>2026-05-01T11:43:06Z</time></trkpt><trkpt lat="44.55346811135822" lon="8.772810776642471"><ele>762.5</ele><time>2026-05-01T11:43:07Z</time></trkpt><trkpt lat="44.55337803719586" lon="8.772937507360034"><ele>760.25</ele><time>2026-05-01T11:43:08Z</time></trkpt><trkpt lat="44.55332866489125" lon="8.773081533576436"><ele>758.0</ele><time>2026-05-01T11:43:09Z</time></trkpt><trkpt lat="44.553267770504114" lon="8.77318770536257"><ele>758.0</ele><time>2026-05-01T11:43:10Z</time></trkpt><trkpt lat="44.553184027380134" lon="8.77320959979805"><ele>758.0</ele><time>2026-05-01T11:43:11Z</time></trkpt><trkpt lat="44.55306896222806" lon="8.773216639359669"><ele>758.0</ele><time>2026-05-01T11:43:12Z</time></trkpt><trkpt lat="44.552930144836495" lon="8.773238718535808"><ele>758.0</ele><time>2026-05-01T11:43:13Z</time></trkpt><trkpt lat="44.55278907509127" lon="8.773241767567162"><ele>757.25</ele><time>2026-05-01T11:43:14Z</time></trkpt><trkpt lat="44.55265779382204" lon="8.77323729646276"><ele>756.5</ele><time>2026-05-01T11:43:15Z</time></trkpt><trkpt lat="44.55252842554574" lon="8.773241499474784"><ele>755.75</ele><time>2026-05-01T11:43:16Z</time></trkpt><trkpt lat="44.55240207587984" lon="8.773251995402191"><ele>755.0</ele><time>2026-05-01T11:43:17Z</time></trkpt><trkpt lat="44.552288424656844" lon="8.773305965552195"><ele>755.0</ele><time>2026-05-01T11:43:18Z</time></trkpt><trkpt lat="44.55219359922306" lon="8.77337206585452"><ele>755.0</ele><time>2026-05-01T11:43:19Z</time></trkpt><trkpt lat="44.55210036129599" lon="8.77342678248236"><ele>755.0</ele><time>2026-05-01T11:43:20Z</time></trkpt><trkpt lat="44.55200996291881" lon="8.773481763722977"><ele>755.0</ele><time>2026-05-01T11:43:21Z</time></trkpt><trkpt lat="44.551917833027915" lon="8.77353151580574"><ele>755.0</ele><time>2026-05-01T11:43:22Z</time></trkpt><trkpt lat="44.55182272330326" lon="8.77359643338617"><ele>757.0</ele><time>2026-05-01T11:43:23Z</time></trkpt><trkpt lat="44.551724471765915" lon="8.773657715602958"><ele>759.0</ele><time>2026-05-01T11:43:24Z</time></trkpt><trkpt lat="44.55162898299115" lon="8.773735904176533"><ele>761.0</ele><time>2026-05-01T11:43:25Z</time></trkpt><trkpt lat="44.551536779377486" lon="8.77380647490763"><ele>763.0</ele><time>2026-05-01T11:43:26Z</time></trkpt><trkpt lat="44.551457039726" lon="8.773861585022212"><ele>765.0</ele><time>2026-05-01T11:43:27Z</time></trkpt><trkpt lat="44.551377466190964" lon="8.77389305601446"><ele>765.0</ele><time>2026-05-01T11:43:28Z</time></trkpt><trkpt lat="44.55128830517441" lon="8.773910059814288"><ele>765.0</ele><time>2026-05-01T11:43:29Z</time></trkpt><trkpt lat="44.55118652833874" lon="8.773915265277854"><ele>765.0</ele><time>2026-05-01T11:43:30Z</time></trkpt><trkpt lat="44.551086272756756" lon="8.773876674363752"><ele>765.0</ele><time>2026-05-01T11:43:31Z</time></trkpt><trkpt lat="44.55100071570199" lon="8.773836720436321"><ele>765.0</ele><time>2026-05-01T11:43:32Z</time></trkpt><trkpt lat="44.55092596077205" lon="8.773785075466167"><ele>764.0</ele><time>2026-05-01T11:43:33Z</time></trkpt><trkpt lat="44.550863116525946" lon="8.773707328176563"><ele>763.0</ele><time>2026-05-01T11:43:33.999Z</time></trkpt><trkpt lat="44.550859219810036" lon="8.773558996991333"><ele>762.0</ele><time>2026-05-01T11:43:34.999Z</time></trkpt><trkpt lat="44.55080833140506" lon="8.773445293638106"><ele>761.0</ele><time>2026-05-01T11:43:35.999Z</time></trkpt><trkpt lat="44.55076761929182" lon="8.773327860036494"><ele>760.0</ele><time>2026-05-01T11:43:36.999Z</time></trkpt><trkpt lat="44.55068837603503" lon="8.773235397809508"><ele>760.0</ele><time>2026-05-01T11:43:37.999Z</time></trkpt><trkpt lat="44.55058854673686" lon="8.773156293961856"><ele>760.0</ele><time>2026-05-01T11:43:38.999Z</time></trkpt><trkpt lat="44.55047893290964" lon="8.773087623957027"><ele>760.0</ele><time>2026-05-01T11:43:39.999Z</time></trkpt><trkpt lat="44.55036590129851" lon="8.773053186676952"><ele>760.0</ele><time>2026-05-01T11:43:40.999Z</time></trkpt><trkpt lat="44.55024996251384" lon="8.773079857696237"><ele>762.8</ele><time>2026-05-01T11:43:41.999Z</time></trkpt><trkpt lat="44.55013217756747" lon="8.773101543183174"><ele>765.6</ele><time>2026-05-01T11:43:42.999Z</time></trkpt><trkpt lat="44.55002245554706" lon="8.77312148920491"><ele>768.4000000000001</ele><time>2026-05-01T11:43:43.999Z</time></trkpt><trkpt lat="44.549927651289266" lon="8.77310039595541"><ele>771.2</ele><time>2026-05-01T11:43:44.999Z</time></trkpt><trkpt lat="44.54984363177036" lon="8.773029430147346"><ele>774.0</ele><time>2026-05-01T11:43:45.999Z</time></trkpt><trkpt lat="44.54979803433694" lon="8.772905783289136"><ele>774.0</ele><time>2026-05-01T11:43:46.999Z</time></trkpt><trkpt lat="44.549737156335276" lon="8.772808245355813"><ele>774.0</ele><time>2026-05-01T11:43:47.999Z</time></trkpt><trkpt lat="44.54969639087355" lon="8.772710343609361"><ele>774.0</ele><time>2026-05-01T11:43:48.999Z</time></trkpt><trkpt lat="44.54963638321985" lon="8.772634170636776"><ele>774.0</ele><time>2026-05-01T11:43:49.999Z</time></trkpt><trkpt lat="44.54956224714904" lon="8.772573106981636"><ele>774.0</ele><time>2026-05-01T11:43:50.999Z</time></trkpt><trkpt lat="44.549482078873886" lon="8.772527391099937"><ele>774.0</ele><time>2026-05-01T11:43:51.999Z</time></trkpt><trkpt lat="44.54939393860885" lon="8.77250028885348"><ele>773.4000000000001</ele><time>2026-05-01T11:43:52.999Z</time></trkpt><trkpt lat="44.549295707624225" lon="8.77249442925495"><ele>772.8</ele><time>2026-05-01T11:43:53.999Z</time></trkpt><trkpt lat="44.5491878530694" lon="8.772486038225049"><ele>772.2</ele><time>2026-05-01T11:43:54.999Z</time></trkpt><trkpt lat="44.54907070207727" lon="8.772495099055366"><ele>771.5999999999999</ele><time>2026-05-01T11:43:55.999Z</time></trkpt><trkpt lat="44.548948328154516" lon="8.77249489247928"><ele>771.0</ele><time>2026-05-01T11:43:56.999Z</time></trkpt><trkpt lat="44.54879983158542" lon="8.772468779412339"><ele>772.6666666666667</ele><time>2026-05-01T11:43:57.999Z</time></trkpt><trkpt lat="44.548635159545796" lon="8.772442932381992"><ele>774.3333333333334</ele><time>2026-05-01T11:43:58.999Z</time></trkpt><trkpt lat="44.54846017175168" lon="8.772439721537916"><ele>776.0</ele><time>2026-05-01T11:43:59.999Z</time></trkpt><trkpt lat="44.548305356423384" lon="8.772347545977873"><ele>776.0</ele><time>2026-05-01T11:44:00.999Z</time></trkpt><trkpt lat="44.548161726184425" lon="8.7723210229156"><ele>776.0</ele><time>2026-05-01T11:44:01.999Z</time></trkpt><trkpt lat="44.54802769221518" lon="8.772301461932344"><ele>776.0</ele><time>2026-05-01T11:44:02.999Z</time></trkpt><trkpt lat="44.54790113725384" lon="8.772299057719735"><ele>776.0</ele><time>2026-05-01T11:44:03.999Z</time></trkpt><trkpt lat="44.54777851099889" lon="8.772332112783623"><ele>776.5999999999999</ele><time>2026-05-01T11:44:04.999Z</time></trkpt><trkpt lat="44.54766139128859" lon="8.772370978339675"><ele>777.2</ele><time>2026-05-01T11:44:05.999Z</time></trkpt><trkpt lat="44.54755232562701" lon="8.772376572233203"><ele>777.8</ele><time>2026-05-01T11:44:06.999Z</time></trkpt><trkpt lat="44.54744824082337" lon="8.77236033031219"><ele>778.4000000000001</ele><time>2026-05-01T11:44:07.999Z</time></trkpt><trkpt lat="44.5473570532801" lon="8.772351485866858"><ele>779.0</ele><time>2026-05-01T11:44:08.999Z</time></trkpt><trkpt lat="44.54726897727348" lon="8.77233455283123"><ele>779.0</ele><time>2026-05-01T11:44:09.999Z</time></trkpt><trkpt lat="44.54717387245071" lon="8.772280879562379"><ele>779.0</ele><time>2026-05-01T11:44:10.999Z</time></trkpt><trkpt lat="44.54707264990026" lon="8.772207061446299"><ele>779.0</ele><time>2026-05-01T11:44:11.999Z</time></trkpt><trkpt lat="44.54696059981193" lon="8.772149921905369"><ele>779.0</ele><time>2026-05-01T11:44:12.999Z</time></trkpt><trkpt lat="44.546837228352565" lon="8.772113106008156"><ele>780.75</ele><time>2026-05-01T11:44:13.999Z</time></trkpt><trkpt lat="44.54670480389724" lon="8.7720770827474"><ele>782.5</ele><time>2026-05-01T11:44:14.999Z</time></trkpt><trkpt lat="44.546571284741276" lon="8.772028058692845"><ele>784.25</ele><time>2026-05-01T11:44:15.999Z</time></trkpt><trkpt lat="44.54643353129357" lon="8.77197403658048"><ele>786.0</ele><time>2026-05-01T11:44:16.999Z</time></trkpt><trkpt lat="44.54629924884936" lon="8.771900809829054"><ele>782.0</ele><time>2026-05-01T11:44:17.999Z</time></trkpt><trkpt lat="44.54618133879515" lon="8.77179958905285"><ele>778.0</ele><time>2026-05-01T11:44:18.999Z</time></trkpt><trkpt lat="44.54606969281506" lon="8.771703943983791"><ele>774.0</ele><time>2026-05-01T11:44:19.999Z</time></trkpt><trkpt lat="44.54596075965587" lon="8.771643728601035"><ele>770.0</ele><time>2026-05-01T11:44:20.999Z</time></trkpt><trkpt lat="44.54583633906901" lon="8.771633873179372"><ele>770.0</ele><time>2026-05-01T11:44:21.999Z</time></trkpt><trkpt lat="44.54570722879907" lon="8.771672704428283"><ele>770.0</ele><time>2026-05-01T11:44:22.999Z</time></trkpt><trkpt lat="44.54557614946123" lon="8.771739919440325"><ele>770.0</ele><time>2026-05-01T11:44:23.999Z</time></trkpt><trkpt lat="44.54544737920203" lon="8.771763268901378"><ele>770.0</ele><time>2026-05-01T11:44:24.999Z</time></trkpt><trkpt lat="44.54533230072714" lon="8.771744733528992"><ele>772.5</ele><time>2026-05-01T11:44:25.999Z</time></trkpt><trkpt lat="44.545210439657886" lon="8.77169728426311"><ele>775.0</ele><time>2026-05-01T11:44:26.999Z</time></trkpt><trkpt lat="44.5450935313597" lon="8.77165553566684"><ele>777.5</ele><time>2026-05-01T11:44:27.999Z</time></trkpt><trkpt lat="44.54497370286863" lon="8.771611838692886"><ele>780.0</ele><time>2026-05-01T11:44:28.999Z</time></trkpt><trkpt lat="44.54484777081808" lon="8.771552567872064"><ele>780.0</ele><time>2026-05-01T11:44:29.999Z</time></trkpt><trkpt lat="44.54476023520136" lon="8.771508319483914"><ele>780.0</ele><time>2026-05-01T11:44:30.999Z</time></trkpt><trkpt lat="44.54463007576743" lon="8.7715024363112"><ele>780.0</ele><time>2026-05-01T11:44:31.999Z</time></trkpt><trkpt lat="44.544486771158354" lon="8.771510689579234"><ele>780.0</ele><time>2026-05-01T11:44:32.999Z</time></trkpt><trkpt lat="44.54433750071819" lon="8.771525957199053"><ele>781.0</ele><time>2026-05-01T11:44:33.999Z</time></trkpt><trkpt lat="44.54421076633176" lon="8.771593244390333"><ele>782.0</ele><time>2026-05-01T11:44:34.999Z</time></trkpt><trkpt lat="44.544072775982826" lon="8.771668222003616"><ele>783.0</ele><time>2026-05-01T11:44:35.999Z</time></trkpt><trkpt lat="44.54395812785091" lon="8.771741230989484"><ele>784.0</ele><time>2026-05-01T11:44:36.999Z</time></trkpt><trkpt lat="44.543850951356774" lon="8.771825069588882"><ele>787.75</ele><time>2026-05-01T11:44:37.999Z</time></trkpt><trkpt lat="44.54374838715684" lon="8.771922973273494"><ele>791.5</ele><time>2026-05-01T11:44:38.999Z</time></trkpt><trkpt lat="44.543645104618456" lon="8.772030122852764"><ele>795.25</ele><time>2026-05-01T11:44:39.999Z</time></trkpt><trkpt lat="44.54355725088699" lon="8.772147278513739"><ele>799.0</ele><time>2026-05-01T11:44:40.999Z</time></trkpt><trkpt lat="44.54348114011304" lon="8.772262801352309"><ele>799.0</ele><time>2026-05-01T11:44:41.999Z</time></trkpt><trkpt lat="44.54339559444453" lon="8.772364499434142"><ele>799.0</ele><time>2026-05-01T11:44:42.999Z</time></trkpt><trkpt lat="44.54328884564935" lon="8.772398524224112"><ele>799.0</ele><time>2026-05-01T11:44:43.999Z</time></trkpt><trkpt lat="44.54318454016328" lon="8.772365241129217"><ele>799.0</ele><time>2026-05-01T11:44:44.999Z</time></trkpt><trkpt lat="44.543091371353405" lon="8.772347445910174"><ele>799.0</ele><time>2026-05-01T11:44:45.999Z</time></trkpt><trkpt lat="44.54300122878974" lon="8.772390152199721"><ele>799.0</ele><time>2026-05-01T11:44:46.999Z</time></trkpt><trkpt lat="44.542929014327335" lon="8.772465669138551"><ele>799.0</ele><time>2026-05-01T11:44:47.999Z</time></trkpt><trkpt lat="44.54286911363857" lon="8.772527292519126"><ele>799.0</ele><time>2026-05-01T11:44:48.999Z</time></trkpt><trkpt lat="44.542812390570276" lon="8.772625729843565"><ele>799.0</ele><time>2026-05-01T11:44:49.999Z</time></trkpt><trkpt lat="44.542770638303594" lon="8.772774389285026"><ele>799.0</ele><time>2026-05-01T11:44:50.999Z</time></trkpt><trkpt lat="44.542740127822746" lon="8.772954349450455"><ele>799.0</ele><time>2026-05-01T11:44:51.999Z</time></trkpt><trkpt lat="44.54271207510802" lon="8.773103875860297"><ele>799.0</ele><time>2026-05-01T11:44:52.999Z</time></trkpt><trkpt lat="44.54267013628039" lon="8.773229308062023"><ele>799.0</ele><time>2026-05-01T11:44:53.999Z</time></trkpt><trkpt lat="44.54258098809968" lon="8.773410351707774"><ele>799.0</ele><time>2026-05-01T11:44:54.999Z</time></trkpt><trkpt lat="44.542542889102116" lon="8.773533185405967"><ele>797.8000000000001</ele><time>2026-05-01T11:44:55.999Z</time></trkpt><trkpt lat="44.542533303550194" lon="8.773663363488081"><ele>796.6</ele><time>2026-05-01T11:44:56.999Z</time></trkpt><trkpt lat="44.542532145953494" lon="8.773796361413025"><ele>795.4</ele><time>2026-05-01T11:44:57.999Z</time></trkpt><trkpt lat="44.54253269639273" lon="8.77390724196019"><ele>794.2</ele><time>2026-05-01T11:44:58.999Z</time></trkpt><trkpt lat="44.542568284226356" lon="8.77402437040436"><ele>793.0</ele><time>2026-05-01T11:44:59.999Z</time></trkpt><trkpt lat="44.542656857466575" lon="8.774162737381431"><ele>793.0</ele><time>2026-05-01T11:45:00.999Z</time></trkpt><trkpt lat="44.542743345567786" lon="8.774305736064035"><ele>793.0</ele><time>2026-05-01T11:45:01.999Z</time></trkpt><trkpt lat="44.54280921485597" lon="8.774451929586993"><ele>793.0</ele><time>2026-05-01T11:45:02.999Z</time></trkpt><trkpt lat="44.542858567989065" lon="8.774607390522059"><ele>793.0</ele><time>2026-05-01T11:45:03.999Z</time></trkpt><trkpt lat="44.54288036975827" lon="8.774752883471253"><ele>794.0</ele><time>2026-05-01T11:45:04.999Z</time></trkpt><trkpt lat="44.54287218259285" lon="8.774895295270083"><ele>795.0</ele><time>2026-05-01T11:45:05.999Z</time></trkpt><trkpt lat="44.54283670996282" lon="8.77502945944968"><ele>796.0</ele><time>2026-05-01T11:45:06.999Z</time></trkpt><trkpt lat="44.54279120584316" lon="8.775162941299294"><ele>797.0</ele><time>2026-05-01T11:45:07.999Z</time></trkpt><trkpt lat="44.54278455452114" lon="8.775318459202335"><ele>798.0</ele><time>2026-05-01T11:45:08.999Z</time></trkpt><trkpt lat="44.542815458041574" lon="8.775489210359478"><ele>800.2</ele><time>2026-05-01T11:45:09.999Z</time></trkpt><trkpt lat="44.54282511653761" lon="8.77565326061211"><ele>802.4</ele><time>2026-05-01T11:45:10.999Z</time></trkpt><trkpt lat="44.542780231195536" lon="8.775782849683234"><ele>804.6</ele><time>2026-05-01T11:45:11.999Z</time></trkpt><trkpt lat="44.54271462094088" lon="8.775901146388996"><ele>806.8000000000001</ele><time>2026-05-01T11:45:12.999Z</time></trkpt><trkpt lat="44.54268242859012" lon="8.776022518002339"><ele>809.0</ele><time>2026-05-01T11:45:13.999Z</time></trkpt><trkpt lat="44.54269201957306" lon="8.7761914208573"><ele>809.0</ele><time>2026-05-01T11:45:14.999Z</time></trkpt><trkpt lat="44.542738767759026" lon="8.776320562237089"><ele>809.0</ele><time>2026-05-01T11:45:15.999Z</time></trkpt><trkpt lat="44.54280974772759" lon="8.776456956300933"><ele>809.0</ele><time>2026-05-01T11:45:16.999Z</time></trkpt><trkpt lat="44.54287418880282" lon="8.776634757276783"><ele>809.0</ele><time>2026-05-01T11:45:17.999Z</time></trkpt><trkpt lat="44.5428745679389" lon="8.776789171123744"><ele>808.75</ele><time>2026-05-01T11:45:18.999Z</time></trkpt><trkpt lat="44.542869721395284" lon="8.776960696461938"><ele>808.5</ele><time>2026-05-01T11:45:19.999Z</time></trkpt><trkpt lat="44.54286145973381" lon="8.777139526611354"><ele>808.25</ele><time>2026-05-01T11:45:20.999Z</time></trkpt><trkpt lat="44.54284451319009" lon="8.777320388910141"><ele>808.0</ele><time>2026-05-01T11:45:21.999Z</time></trkpt><trkpt lat="44.54283293349726" lon="8.777507858145116"><ele>810.25</ele><time>2026-05-01T11:45:22.999Z</time></trkpt><trkpt lat="44.5428159157314" lon="8.777695884733175"><ele>812.5</ele><time>2026-05-01T11:45:23.999Z</time></trkpt><trkpt lat="44.542794612491726" lon="8.777867822902012"><ele>814.75</ele><time>2026-05-01T11:45:24.999Z</time></trkpt><trkpt lat="44.542759133752" lon="8.778019604121868"><ele>817.0</ele><time>2026-05-01T11:45:25.999Z</time></trkpt><trkpt lat="44.54270095945718" lon="8.778151740285734"><ele>817.0</ele><time>2026-05-01T11:45:26.999Z</time></trkpt><trkpt lat="44.54261940513555" lon="8.778268965526369"><ele>817.0</ele><time>2026-05-01T11:45:27.999Z</time></trkpt><trkpt lat="44.542529535042746" lon="8.778375353338179"><ele>817.0</ele><time>2026-05-01T11:45:28.999Z</time></trkpt><trkpt lat="44.54244549841046" lon="8.778497386981911"><ele>817.0</ele><time>2026-05-01T11:45:29.999Z</time></trkpt><trkpt lat="44.54236137062822" lon="8.778624149935988"><ele>816.5</ele><time>2026-05-01T11:45:30.999Z</time></trkpt><trkpt lat="44.54228087618079" lon="8.778761764157098"><ele>816.0</ele><time>2026-05-01T11:45:31.999Z</time></trkpt><trkpt lat="44.54221100925687" lon="8.778915329275737"><ele>815.5</ele><time>2026-05-01T11:45:32.999Z</time></trkpt><trkpt lat="44.54213704354264" lon="8.779063334716742"><ele>815.0</ele><time>2026-05-01T11:45:33.999Z</time></trkpt><trkpt lat="44.542043962229975" lon="8.779189998267617"><ele>815.0</ele><time>2026-05-01T11:45:34.999Z</time></trkpt><trkpt lat="44.54194175342219" lon="8.779298746585487"><ele>815.0</ele><time>2026-05-01T11:45:35.999Z</time></trkpt><trkpt lat="44.54185093210738" lon="8.779404470956546"><ele>815.0</ele><time>2026-05-01T11:45:36.999Z</time></trkpt><trkpt lat="44.54177479455209" lon="8.779516005791617"><ele>815.0</ele><time>2026-05-01T11:45:37.999Z</time></trkpt><trkpt lat="44.54168293961257" lon="8.779612369673325"><ele>815.0</ele><time>2026-05-01T11:45:38.999Z</time></trkpt><trkpt lat="44.54156440574691" lon="8.779672790106934"><ele>815.0</ele><time>2026-05-01T11:45:39.999Z</time></trkpt><trkpt lat="44.5414329307547" lon="8.779703956252092"><ele>815.0</ele><time>2026-05-01T11:45:40.999Z</time></trkpt><trkpt lat="44.541308930975234" lon="8.779742417614562"><ele>815.0</ele><time>2026-05-01T11:45:41.999Z</time></trkpt><trkpt lat="44.5411864651257" lon="8.77982700049503"><ele>815.0</ele><time>2026-05-01T11:45:42.999Z</time></trkpt><trkpt lat="44.54107827141293" lon="8.779954326533309"><ele>815.0</ele><time>2026-05-01T11:45:43.999Z</time></trkpt><trkpt lat="44.54097752251746" lon="8.780091341192188"><ele>815.0</ele><time>2026-05-01T11:45:44.999Z</time></trkpt><trkpt lat="44.54087748060209" lon="8.780192680884543"><ele>815.0</ele><time>2026-05-01T11:45:45.999Z</time></trkpt><trkpt lat="44.54076763221448" lon="8.780271376670008"><ele>817.0</ele><time>2026-05-01T11:45:46.999Z</time></trkpt><trkpt lat="44.54065122723486" lon="8.780343337212404"><ele>819.0</ele><time>2026-05-01T11:45:47.999Z</time></trkpt><trkpt lat="44.540526710593966" lon="8.780375490087708"><ele>821.0</ele><time>2026-05-01T11:45:48.999Z</time></trkpt><trkpt lat="44.540406089327355" lon="8.78040510495978"><ele>823.0</ele><time>2026-05-01T11:45:49.999Z</time></trkpt><trkpt lat="44.54029913151945" lon="8.780485041372915"><ele>823.0</ele><time>2026-05-01T11:45:50.999Z</time></trkpt><trkpt lat="44.54020282431955" lon="8.780596957460272"><ele>823.0</ele><time>2026-05-01T11:45:51.999Z</time></trkpt><trkpt lat="44.5401145303808" lon="8.780692600753133"><ele>823.0</ele><time>2026-05-01T11:45:52.999Z</time></trkpt><trkpt lat="44.539985054924315" lon="8.780773777327589"><ele>823.0</ele><time>2026-05-01T11:45:53.999Z</time></trkpt><trkpt lat="44.5398518563369" lon="8.780817677215147"><ele>823.0</ele><time>2026-05-01T11:45:54.999Z</time></trkpt><trkpt lat="44.53970229029811" lon="8.780866601402328"><ele>823.0</ele><time>2026-05-01T11:45:55.999Z</time></trkpt><trkpt lat="44.53954652114297" lon="8.78091862410732"><ele>823.0</ele><time>2026-05-01T11:45:56.999Z</time></trkpt><trkpt lat="44.53939112667423" lon="8.780970509397038"><ele>827.6666666666666</ele><time>2026-05-01T11:45:57.999Z</time></trkpt><trkpt lat="44.53923182728731" lon="8.78102961519229"><ele>832.3333333333333</ele><time>2026-05-01T11:45:58.999Z</time></trkpt><trkpt lat="44.539078563439865" lon="8.781090308833814"><ele>837.0</ele><time>2026-05-01T11:45:59.999Z</time></trkpt><trkpt lat="44.53892175999195" lon="8.78113938661853"><ele>837.0</ele><time>2026-05-01T11:46:00.999Z</time></trkpt><trkpt lat="44.53874906040048" lon="8.781199876887918"><ele>837.0</ele><time>2026-05-01T11:46:01.999Z</time></trkpt><trkpt lat="44.53858823759336" lon="8.781252944226184"><ele>837.0</ele><time>2026-05-01T11:46:02.999Z</time></trkpt><trkpt lat="44.538444251603075" lon="8.78130497556121"><ele>838.6</ele><time>2026-05-01T11:46:03.999Z</time></trkpt><trkpt lat="44.53831880098527" lon="8.781342642379233"><ele>840.2</ele><time>2026-05-01T11:46:04.999Z</time></trkpt><trkpt lat="44.538209489502115" lon="8.78133598875801"><ele>841.8</ele><time>2026-05-01T11:46:05.999Z</time></trkpt><trkpt lat="44.53811470130467" lon="8.781279082955844"><ele>843.4</ele><time>2026-05-01T11:46:06.999Z</time></trkpt><trkpt lat="44.53803384563973" lon="8.78118610371393"><ele>845.0</ele><time>2026-05-01T11:46:07.999Z</time></trkpt><trkpt lat="44.53796156740048" lon="8.781047068947041"><ele>846.5</ele><time>2026-05-01T11:46:08.999Z</time></trkpt><trkpt lat="44.537860913619674" lon="8.780918798951342"><ele>848.0</ele><time>2026-05-01T11:46:09.999Z</time></trkpt><trkpt lat="44.537744805850394" lon="8.78078973223897"><ele>849.5</ele><time>2026-05-01T11:46:10.999Z</time></trkpt><trkpt lat="44.53763336552854" lon="8.78066162052755"><ele>851.0</ele><time>2026-05-01T11:46:11.999Z</time></trkpt><trkpt lat="44.53752635329597" lon="8.78053626229949"><ele>851.0</ele><time>2026-05-01T11:46:12.999Z</time></trkpt><trkpt lat="44.53741418475082" lon="8.78041285582725"><ele>851.0</ele><time>2026-05-01T11:46:13.999Z</time></trkpt><trkpt lat="44.537315957900375" lon="8.780279835476758"><ele>851.0</ele><time>2026-05-01T11:46:14.999Z</time></trkpt><trkpt lat="44.537222354092165" lon="8.780150220681035"><ele>851.0</ele><time>2026-05-01T11:46:15.999Z</time></trkpt><trkpt lat="44.53712632507968" lon="8.78004522798551"><ele>853.0</ele><time>2026-05-01T11:46:16.999Z</time></trkpt><trkpt lat="44.53702942466196" lon="8.779950159291833"><ele>855.0</ele><time>2026-05-01T11:46:17.999Z</time></trkpt><trkpt lat="44.53691971052608" lon="8.779859612957674"><ele>857.0</ele><time>2026-05-01T11:46:18.999Z</time></trkpt><trkpt lat="44.53677911848866" lon="8.77976565107009"><ele>859.0</ele><time>2026-05-01T11:46:19.999Z</time></trkpt><trkpt lat="44.53661256357271" lon="8.77965410512756"><ele>859.0</ele><time>2026-05-01T11:46:20.999Z</time></trkpt><trkpt lat="44.536428246326736" lon="8.77951815257402"><ele>859.0</ele><time>2026-05-01T11:46:21.999Z</time></trkpt><trkpt lat="44.536241950111084" lon="8.779371180161029"><ele>859.0</ele><time>2026-05-01T11:46:22.999Z</time></trkpt><trkpt lat="44.53604885456939" lon="8.779215027990773"><ele>859.0</ele><time>2026-05-01T11:46:23.999Z</time></trkpt><trkpt lat="44.53585095200922" lon="8.779047495479603"><ele>859.0</ele><time>2026-05-01T11:46:24.999Z</time></trkpt><trkpt lat="44.535658743029124" lon="8.77888322251821"><ele>859.0</ele><time>2026-05-01T11:46:25.999Z</time></trkpt><trkpt lat="44.53547779079711" lon="8.778726693807856"><ele>859.0</ele><time>2026-05-01T11:46:26.999Z</time></trkpt><trkpt lat="44.53530104131461" lon="8.77857721418077"><ele>859.0</ele><time>2026-05-01T11:46:27.999Z</time></trkpt><trkpt lat="44.5351316367139" lon="8.778433060828666"><ele>860.6666666666666</ele><time>2026-05-01T11:46:28.999Z</time></trkpt><trkpt lat="44.534962704906626" lon="8.778290955258994"><ele>862.3333333333333</ele><time>2026-05-01T11:46:29.999Z</time></trkpt><trkpt lat="44.53478986845762" lon="8.778144032528774"><ele>864.0</ele><time>2026-05-01T11:46:30.999Z</time></trkpt><trkpt lat="44.5346056991484" lon="8.777992546227312"><ele>865.6666666666667</ele><time>2026-05-01T11:46:31.999Z</time></trkpt><trkpt lat="44.53441270934291" lon="8.77783509018427"><ele>867.3333333333334</ele><time>2026-05-01T11:46:32.999Z</time></trkpt><trkpt lat="44.534227464693" lon="8.777680720412938"><ele>869.0</ele><time>2026-05-01T11:46:33.999Z</time></trkpt><trkpt lat="44.53405570105242" lon="8.77753856992306"><ele>869.0</ele><time>2026-05-01T11:46:34.999Z</time></trkpt><trkpt lat="44.53388901667933" lon="8.777401218056383"><ele>869.0</ele><time>2026-05-01T11:46:35.999Z</time></trkpt><trkpt lat="44.53373490107757" lon="8.777270311904585"><ele>869.0</ele><time>2026-05-01T11:46:36.999Z</time></trkpt><trkpt lat="44.533583421127545" lon="8.777140566002691"><ele>869.25</ele><time>2026-05-01T11:46:37.999Z</time></trkpt><trkpt lat="44.533440684165704" lon="8.777027283936977"><ele>869.5</ele><time>2026-05-01T11:46:38.999Z</time></trkpt><trkpt lat="44.53331906607912" lon="8.776929810367635"><ele>869.75</ele><time>2026-05-01T11:46:39.999Z</time></trkpt><trkpt lat="44.533207189492245" lon="8.776847417352574"><ele>870.0</ele><time>2026-05-01T11:46:40.999Z</time></trkpt><trkpt lat="44.533096526360076" lon="8.776778884060402"><ele>870.0</ele><time>2026-05-01T11:46:41.999Z</time></trkpt><trkpt lat="44.53297101478461" lon="8.776721636607114"><ele>870.0</ele><time>2026-05-01T11:46:42.999Z</time></trkpt><trkpt lat="44.532817771361636" lon="8.776670905019445"><ele>870.0</ele><time>2026-05-01T11:46:43.999Z</time></trkpt><trkpt lat="44.53263896779456" lon="8.776646517649784"><ele>873.3333333333333</ele><time>2026-05-01T11:46:44.999Z</time></trkpt><trkpt lat="44.53244664234425" lon="8.776617908981132"><ele>876.6666666666666</ele><time>2026-05-01T11:46:45.999Z</time></trkpt><trkpt lat="44.53225046442128" lon="8.776561919206047"><ele>880.0</ele><time>2026-05-01T11:46:46.999Z</time></trkpt><trkpt lat="44.53205762476056" lon="8.776520070115497"><ele>882.0</ele><time>2026-05-01T11:46:47.999Z</time></trkpt><trkpt lat="44.53188798491297" lon="8.776500767063252"><ele>884.0</ele><time>2026-05-01T11:46:48.999Z</time></trkpt><trkpt lat="44.53173004568452" lon="8.77647741318342"><ele>886.0</ele><time>2026-05-01T11:46:49.999Z</time></trkpt><trkpt lat="44.53158539593299" lon="8.77642688970032"><ele>886.0</ele><time>2026-05-01T11:46:50.999Z</time></trkpt><trkpt lat="44.53143631292027" lon="8.776379407326996"><ele>886.0</ele><time>2026-05-01T11:46:51.999Z</time></trkpt><trkpt lat="44.53126822495066" lon="8.776369208707449"><ele>886.0</ele><time>2026-05-01T11:46:52.999Z</time></trkpt><trkpt lat="44.531088982965436" lon="8.776393746190857"><ele>888.3333333333333</ele><time>2026-05-01T11:46:53.999Z</time></trkpt><trkpt lat="44.53090675495396" lon="8.776404515638868"><ele>890.6666666666667</ele><time>2026-05-01T11:46:54.999Z</time></trkpt><trkpt lat="44.53072672212505" lon="8.776389482219605"><ele>893.0</ele><time>2026-05-01T11:46:55.999Z</time></trkpt><trkpt lat="44.53056069925344" lon="8.776357800337221"><ele>893.0</ele><time>2026-05-01T11:46:56.999Z</time></trkpt><trkpt lat="44.53041871802832" lon="8.776337896376871"><ele>893.0</ele><time>2026-05-01T11:46:57.999Z</time></trkpt><trkpt lat="44.53028812134544" lon="8.776337728857671"><ele>893.0</ele><time>2026-05-01T11:46:58.999Z</time></trkpt><trkpt lat="44.53015430761" lon="8.776336117223375"><ele>893.0</ele><time>2026-05-01T11:46:59.999Z</time></trkpt><trkpt lat="44.52999898718779" lon="8.776371919397032"><ele>893.3333333333334</ele><time>2026-05-01T11:47:00.999Z</time></trkpt><trkpt lat="44.52983876446207" lon="8.776444330429776"><ele>893.6666666666667</ele><time>2026-05-01T11:47:01.999Z</time></trkpt><trkpt lat="44.52967810862859" lon="8.776505223923412"><ele>894.0</ele><time>2026-05-01T11:47:02.998Z</time></trkpt><trkpt lat="44.52952030455649" lon="8.776481019279082"><ele>893.5</ele><time>2026-05-01T11:47:03.998Z</time></trkpt><trkpt lat="44.529364504389484" lon="8.776415379722211"><ele>893.0</ele><time>2026-05-01T11:47:04.998Z</time></trkpt><trkpt lat="44.52922412150138" lon="8.776373787943989"><ele>892.5</ele><time>2026-05-01T11:47:05.998Z</time></trkpt><trkpt lat="44.529105282662044" lon="8.776348347254189"><ele>892.0</ele><time>2026-05-01T11:47:06.998Z</time></trkpt><trkpt lat="44.52900681384426" lon="8.77635397665836"><ele>891.9999999999999</ele><time>2026-05-01T11:47:07.998Z</time></trkpt><trkpt lat="44.52893964145305" lon="8.77640110531701"><ele>892.0</ele><time>2026-05-01T11:47:08.998Z</time></trkpt><trkpt lat="44.52888232758156" lon="8.776524217237968"><ele>892.0</ele><time>2026-05-01T11:47:10.998Z</time></trkpt><trkpt lat="44.528892413323966" lon="8.776623475645668"><ele>892.0</ele><time>2026-05-01T11:47:41.999Z</time></trkpt><trkpt lat="44.52888544611103" lon="8.776752907647534"><ele>891.9999999999999</ele><time>2026-05-01T11:49:01.999Z</time></trkpt><trkpt lat="44.52887789156792" lon="8.776856820527787"><ele>892.0</ele><time>2026-05-01T11:49:02.999Z</time></trkpt><trkpt lat="44.5288668470919" lon="8.776984588728652"><ele>894.25</ele><time>2026-05-01T11:49:03.999Z</time></trkpt><trkpt lat="44.528843943862874" lon="8.777134077374264"><ele>896.5</ele><time>2026-05-01T11:49:04.999Z</time></trkpt><trkpt lat="44.52880649754551" lon="8.777279587263115"><ele>898.75</ele><time>2026-05-01T11:49:05.999Z</time></trkpt><trkpt lat="44.52875474350985" lon="8.777432366326419"><ele>901.0</ele><time>2026-05-01T11:49:06.999Z</time></trkpt><trkpt lat="44.52869318365756" lon="8.777590367138446"><ele>898.75</ele><time>2026-05-01T11:49:07.999Z</time></trkpt><trkpt lat="44.528631840191345" lon="8.777751031107597"><ele>896.5</ele><time>2026-05-01T11:49:08.999Z</time></trkpt><trkpt lat="44.52857223281951" lon="8.7779006119986"><ele>894.25</ele><time>2026-05-01T11:49:09.999Z</time></trkpt><trkpt lat="44.528506314992164" lon="8.778065046093776"><ele>892.0</ele><time>2026-05-01T11:49:10.999Z</time></trkpt><trkpt lat="44.52843817910083" lon="8.778232944057265"><ele>892.0</ele><time>2026-05-01T11:49:11.999Z</time></trkpt><trkpt lat="44.528382082290804" lon="8.77833674269638"><ele>892.0</ele><time>2026-05-01T11:49:12.999Z</time></trkpt><trkpt lat="44.528300694579244" lon="8.778485780490474"><ele>892.0</ele><time>2026-05-01T11:49:13.999Z</time></trkpt><trkpt lat="44.52819626939323" lon="8.778620142587929"><ele>892.0</ele><time>2026-05-01T11:49:14.999Z</time></trkpt><trkpt lat="44.52808961706631" lon="8.778726412807645"><ele>895.4000000000001</ele><time>2026-05-01T11:49:15.999Z</time></trkpt><trkpt lat="44.52799556283509" lon="8.778821610616578"><ele>898.8000000000001</ele><time>2026-05-01T11:49:16.999Z</time></trkpt><trkpt lat="44.527911768172984" lon="8.778906571862992"><ele>902.2</ele><time>2026-05-01T11:49:17.999Z</time></trkpt><trkpt lat="44.5278308542072" lon="8.77897431801216"><ele>905.6</ele><time>2026-05-01T11:49:18.999Z</time></trkpt><trkpt lat="44.5277625933621" lon="8.779057123698125"><ele>909.0</ele><time>2026-05-01T11:49:19.999Z</time></trkpt><trkpt lat="44.527717232229584" lon="8.779160241482927"><ele>901.4000000000001</ele><time>2026-05-01T11:49:20.999Z</time></trkpt><trkpt lat="44.527700461547774" lon="8.779289275183611"><ele>893.8000000000001</ele><time>2026-05-01T11:49:21.999Z</time></trkpt><trkpt lat="44.52769413832538" lon="8.77943511688924"><ele>886.1999999999999</ele><time>2026-05-01T11:49:22.999Z</time></trkpt><trkpt lat="44.527685762730776" lon="8.779596518200075"><ele>878.5999999999999</ele><time>2026-05-01T11:49:23.999Z</time></trkpt><trkpt lat="44.527683712789575" lon="8.779771883909765"><ele>871.0</ele><time>2026-05-01T11:49:24.999Z</time></trkpt><trkpt lat="44.52768275390588" lon="8.77997737128977"><ele>874.0</ele><time>2026-05-01T11:49:25.999Z</time></trkpt><trkpt lat="44.527668880167475" lon="8.780201518582317"><ele>877.0</ele><time>2026-05-01T11:49:26.999Z</time></trkpt><trkpt lat="44.52766555122664" lon="8.780427089711544"><ele>880.0</ele><time>2026-05-01T11:49:27.999Z</time></trkpt><trkpt lat="44.52766449380588" lon="8.780647239065358"><ele>880.0</ele><time>2026-05-01T11:49:28.999Z</time></trkpt><trkpt lat="44.52763545451752" lon="8.780852605602641"><ele>880.0</ele><time>2026-05-01T11:49:29.999Z</time></trkpt><trkpt lat="44.527570926708556" lon="8.781057645002589"><ele>880.0</ele><time>2026-05-01T11:49:30.999Z</time></trkpt><trkpt lat="44.52748381776601" lon="8.781252466912724"><ele>883.0</ele><time>2026-05-01T11:49:31.999Z</time></trkpt><trkpt lat="44.527391736525225" lon="8.781412104239472"><ele>886.0</ele><time>2026-05-01T11:49:32.999Z</time></trkpt><trkpt lat="44.52730763329021" lon="8.78156487547992"><ele>889.0</ele><time>2026-05-01T11:49:33.999Z</time></trkpt><trkpt lat="44.52725034427426" lon="8.781714306218468"><ele>892.0</ele><time>2026-05-01T11:49:34.999Z</time></trkpt><trkpt lat="44.52722601068664" lon="8.78188963322909"><ele>893.6</ele><time>2026-05-01T11:49:35.999Z</time></trkpt><trkpt lat="44.52721263242474" lon="8.78206860956933"><ele>895.2</ele><time>2026-05-01T11:49:36.999Z</time></trkpt><trkpt lat="44.527178402192995" lon="8.78222735051772"><ele>896.8</ele><time>2026-05-01T11:49:37.999Z</time></trkpt><trkpt lat="44.52712910296825" lon="8.782357368395115"><ele>898.4</ele><time>2026-05-01T11:49:38.999Z</time></trkpt><trkpt lat="44.527112179501586" lon="8.782484553310155"><ele>900.0</ele><time>2026-05-01T11:49:39.999Z</time></trkpt><trkpt lat="44.5271657237907" lon="8.782598336399579"><ele>900.0</ele><time>2026-05-01T11:49:40.999Z</time></trkpt><trkpt lat="44.52725291367414" lon="8.782717043562133"><ele>900.0</ele><time>2026-05-01T11:49:41.999Z</time></trkpt><trkpt lat="44.52732443790344" lon="8.782867142644408"><ele>900.0</ele><time>2026-05-01T11:49:42.999Z</time></trkpt><trkpt lat="44.52734039335314" lon="8.783049220125884"><ele>900.0</ele><time>2026-05-01T11:49:43.999Z</time></trkpt><trkpt lat="44.527305156548294" lon="8.783236043597924"><ele>862.0</ele><time>2026-05-01T11:49:44.999Z</time></trkpt><trkpt lat="44.525603727456584" lon="8.792686376725138"><ele>862.0</ele><time>2026-05-01T11:50:45.999Z</time></trkpt><trkpt lat="44.52562561395968" lon="8.792904979745268"><ele>862.0</ele><time>2026-05-01T11:50:46.999Z</time></trkpt><trkpt lat="44.52564480041359" lon="8.7931065083453"><ele>862.0</ele><time>2026-05-01T11:50:47.999Z</time></trkpt><trkpt lat="44.525670549159834" lon="8.793306513027213"><ele>862.0</ele><time>2026-05-01T11:50:48.999Z</time></trkpt><trkpt lat="44.52565472126015" lon="8.793496424444522"><ele>863.75</ele><time>2026-05-01T11:50:49.999Z</time></trkpt><trkpt lat="44.52562586403771" lon="8.793673126658739"><ele>865.5</ele><time>2026-05-01T11:50:50.999Z</time></trkpt><trkpt lat="44.52555038404349" lon="8.793852388400817"><ele>867.25</ele><time>2026-05-01T11:50:51.999Z</time></trkpt><trkpt lat="44.52548625710822" lon="8.794060573744874"><ele>869.0</ele><time>2026-05-01T11:50:52.999Z</time></trkpt><trkpt lat="44.52544188450376" lon="8.79428008727438"><ele>871.5</ele><time>2026-05-01T11:50:53.999Z</time></trkpt><trkpt lat="44.52541655976157" lon="8.794503251197318"><ele>874.0</ele><time>2026-05-01T11:50:54.999Z</time></trkpt><trkpt lat="44.525394059843364" lon="8.794694847151167"><ele>876.5</ele><time>2026-05-01T11:50:55.999Z</time></trkpt><trkpt lat="44.5253886440932" lon="8.79485126366953"><ele>879.0</ele><time>2026-05-01T11:50:56.999Z</time></trkpt><trkpt lat="44.52544018496289" lon="8.794968985072023"><ele>879.0</ele><time>2026-05-01T11:50:57.999Z</time></trkpt><trkpt lat="44.525551856780226" lon="8.795033812591488"><ele>879.0</ele><time>2026-05-01T11:50:58.999Z</time></trkpt><trkpt lat="44.52570105489396" lon="8.795050285293021"><ele>879.0</ele><time>2026-05-01T11:50:59.999Z</time></trkpt><trkpt lat="44.525833563560354" lon="8.795088242223184"><ele>879.0</ele><time>2026-05-01T11:51:00.999Z</time></trkpt><trkpt lat="44.52594794504485" lon="8.795065402426308"><ele>879.0</ele><time>2026-05-01T11:51:01.999Z</time></trkpt><trkpt lat="44.52604193863233" lon="8.795058842682689"><ele>879.0000000000001</ele><time>2026-05-01T11:51:02.999Z</time></trkpt><trkpt lat="44.52612723277621" lon="8.795092074591459"><ele>879.0000000000001</ele><time>2026-05-01T11:51:03.999Z</time></trkpt><trkpt lat="44.526171292668685" lon="8.79522023796406"><ele>879.0</ele><time>2026-05-01T11:51:04.999Z</time></trkpt><trkpt lat="44.526175930056326" lon="8.795386863849538"><ele>879.0</ele><time>2026-05-01T11:51:05.999Z</time></trkpt><trkpt lat="44.52612255379285" lon="8.795600021282143"><ele>880.0</ele><time>2026-05-01T11:51:06.999Z</time></trkpt><trkpt lat="44.52608068491078" lon="8.795817411434482"><ele>881.0</ele><time>2026-05-01T11:51:07.999Z</time></trkpt><trkpt lat="44.52605815480511" lon="8.796048593353975"><ele>882.0</ele><time>2026-05-01T11:51:08.999Z</time></trkpt><trkpt lat="44.5260330451108" lon="8.796238360062423"><ele>882.0</ele><time>2026-05-01T11:51:09.999Z</time></trkpt><trkpt lat="44.52601400559578" lon="8.79641111451942"><ele>882.0</ele><time>2026-05-01T11:51:10.999Z</time></trkpt><trkpt lat="44.52594690454684" lon="8.796538306289053"><ele>882.0</ele><time>2026-05-01T11:51:11.999Z</time></trkpt><trkpt lat="44.525855153651605" lon="8.796642040683347"><ele>882.0</ele><time>2026-05-01T11:51:12.999Z</time></trkpt><trkpt lat="44.52577343730961" lon="8.796771833661632"><ele>879.0</ele><time>2026-05-01T11:51:13.999Z</time></trkpt><trkpt lat="44.52569225506129" lon="8.796900237550153"><ele>876.0</ele><time>2026-05-01T11:51:14.999Z</time></trkpt><trkpt lat="44.525609735753356" lon="8.797017642976254"><ele>873.0</ele><time>2026-05-01T11:51:15.999Z</time></trkpt><trkpt lat="44.525511790642476" lon="8.797122420526193"><ele>870.0</ele><time>2026-05-01T11:51:16.999Z</time></trkpt><trkpt lat="44.52540557939388" lon="8.797220355973451"><ele>871.75</ele><time>2026-05-01T11:51:17.998Z</time></trkpt><trkpt lat="44.5252913761291" lon="8.797312014205762"><ele>873.5</ele><time>2026-05-01T11:51:18.998Z</time></trkpt><trkpt lat="44.5251542584469" lon="8.797355413001597"><ele>875.25</ele><time>2026-05-01T11:51:19.998Z</time></trkpt><trkpt lat="44.52500351793074" lon="8.797389438503574"><ele>877.0</ele><time>2026-05-01T11:51:20.998Z</time></trkpt><trkpt lat="44.52484821954565" lon="8.797383198181848"><ele>877.0</ele><time>2026-05-01T11:51:21.998Z</time></trkpt><trkpt lat="44.52468367362112" lon="8.797349325004841"><ele>877.0</ele><time>2026-05-01T11:51:22.998Z</time></trkpt><trkpt lat="44.524522431619495" lon="8.797301711181571"><ele>877.0</ele><time>2026-05-01T11:51:23.998Z</time></trkpt><trkpt lat="44.52437330682185" lon="8.79726897668973"><ele>873.6666666666666</ele><time>2026-05-01T11:51:24.999Z</time></trkpt><trkpt lat="44.52421955033849" lon="8.797206075249841"><ele>870.3333333333333</ele><time>2026-05-01T11:51:25.999Z</time></trkpt><trkpt lat="44.5240728287558" lon="8.797125534508735"><ele>867.0</ele><time>2026-05-01T11:51:26.999Z</time></trkpt><trkpt lat="44.52393557669988" lon="8.79703663972851"><ele>867.0</ele><time>2026-05-01T11:51:27.999Z</time></trkpt><trkpt lat="44.52382308768235" lon="8.796897515916905"><ele>867.0</ele><time>2026-05-01T11:51:28.999Z</time></trkpt><trkpt lat="44.52370296715076" lon="8.79674666264475"><ele>867.0</ele><time>2026-05-01T11:51:29.999Z</time></trkpt><trkpt lat="44.52356821230497" lon="8.796614674551856"><ele>869.0</ele><time>2026-05-01T11:51:30.999Z</time></trkpt><trkpt lat="44.523421995010516" lon="8.796487501917287"><ele>871.0</ele><time>2026-05-01T11:51:31.999Z</time></trkpt><trkpt lat="44.52326787554055" lon="8.796388989181793"><ele>873.0</ele><time>2026-05-01T11:51:32.999Z</time></trkpt><trkpt lat="44.52313135209173" lon="8.796293491541197"><ele>873.0</ele><time>2026-05-01T11:51:33.999Z</time></trkpt><trkpt lat="44.522992624139135" lon="8.796214429812872"><ele>873.0</ele><time>2026-05-01T11:51:34.999Z</time></trkpt><trkpt lat="44.52283819731347" lon="8.796165205060863"><ele>873.0</ele><time>2026-05-01T11:51:35.999Z</time></trkpt><trkpt lat="44.52268020642907" lon="8.796136577376409"><ele>875.3333333333333</ele><time>2026-05-01T11:51:36.999Z</time></trkpt><trkpt lat="44.522528981269986" lon="8.796114550057583"><ele>877.6666666666666</ele><time>2026-05-01T11:51:37.999Z</time></trkpt><trkpt lat="44.52238058607322" lon="8.796085298253532"><ele>880.0</ele><time>2026-05-01T11:51:38.999Z</time></trkpt><trkpt lat="44.522238796626525" lon="8.795992511438767"><ele>880.0</ele><time>2026-05-01T11:51:39.999Z</time></trkpt><trkpt lat="44.52207067724965" lon="8.795908937347225"><ele>880.0</ele><time>2026-05-01T11:51:40.999Z</time></trkpt><trkpt lat="44.52190702727011" lon="8.795781940845735"><ele>880.0</ele><time>2026-05-01T11:51:41.999Z</time></trkpt><trkpt lat="44.52174655611204" lon="8.795689358213655"><ele>876.6666666666666</ele><time>2026-05-01T11:51:42.999Z</time></trkpt><trkpt lat="44.521588871978736" lon="8.795634838298339"><ele>873.3333333333333</ele><time>2026-05-01T11:51:43.999Z</time></trkpt><trkpt lat="44.52142988004173" lon="8.795617655799191"><ele>870.0</ele><time>2026-05-01T11:51:44.999Z</time></trkpt><trkpt lat="44.51553078505328" lon="8.798259880633392"><ele>868.5</ele><time>2026-05-01T11:52:45.999Z</time></trkpt><trkpt lat="44.51566243186586" lon="8.798255845933555"><ele>867.0</ele><time>2026-05-01T11:52:46.999Z</time></trkpt><trkpt lat="44.51580711540455" lon="8.798272331336062"><ele>865.5</ele><time>2026-05-01T11:52:47.999Z</time></trkpt><trkpt lat="44.51595771985778" lon="8.798287921200066"><ele>864.0</ele><time>2026-05-01T11:52:48.999Z</time></trkpt><trkpt lat="44.516113314313" lon="8.798311616125975"><ele>865.25</ele><time>2026-05-01T11:52:49.999Z</time></trkpt><trkpt lat="44.51624960410906" lon="8.798334636674856"><ele>866.5</ele><time>2026-05-01T11:52:50.999Z</time></trkpt><trkpt lat="44.51637956000009" lon="8.798362243601403"><ele>867.75</ele><time>2026-05-01T11:52:51.999Z</time></trkpt><trkpt lat="44.51651375486055" lon="8.798406128120119"><ele>869.0</ele><time>2026-05-01T11:52:52.999Z</time></trkpt><trkpt lat="44.51663044882452" lon="8.79847479400251"><ele>867.0</ele><time>2026-05-01T11:52:53.999Z</time></trkpt><trkpt lat="44.51673708804013" lon="8.798562485186093"><ele>865.0</ele><time>2026-05-01T11:52:54.999Z</time></trkpt><trkpt lat="44.51682311081685" lon="8.79867457690256"><ele>863.0</ele><time>2026-05-01T11:52:55.999Z</time></trkpt><trkpt lat="44.51686238857316" lon="8.79882109047288"><ele>861.0</ele><time>2026-05-01T11:52:56.999Z</time></trkpt><trkpt lat="44.516899782286714" lon="8.798990639348968"><ele>861.0</ele><time>2026-05-01T11:52:57.999Z</time></trkpt><trkpt lat="44.51693210807377" lon="8.799171331443477"><ele>861.0</ele><time>2026-05-01T11:52:58.999Z</time></trkpt><trkpt lat="44.51694998228298" lon="8.79935473663473"><ele>861.0</ele><time>2026-05-01T11:52:59.999Z</time></trkpt><trkpt lat="44.51694312412331" lon="8.799543302584269"><ele>861.0</ele><time>2026-05-01T11:53:00.999Z</time></trkpt><trkpt lat="44.51691116636083" lon="8.799716709843004"><ele>860.0</ele><time>2026-05-01T11:53:01.999Z</time></trkpt><trkpt lat="44.516871152509715" lon="8.799877742021227"><ele>858.9999999999999</ele><time>2026-05-01T11:53:02.999Z</time></trkpt><trkpt lat="44.51685305999212" lon="8.800022995219122"><ele>857.9999999999999</ele><time>2026-05-01T11:53:03.999Z</time></trkpt><trkpt lat="44.51685255028338" lon="8.800149270404807"><ele>857.0</ele><time>2026-05-01T11:53:04.999Z</time></trkpt><trkpt lat="44.5169104134379" lon="8.80028137088244"><ele>856.0</ele><time>2026-05-01T11:53:05.999Z</time></trkpt><trkpt lat="44.517028540246905" lon="8.80041417199658"><ele>858.75</ele><time>2026-05-01T11:53:06.999Z</time></trkpt><trkpt lat="44.51712101437115" lon="8.800581171225883"><ele>861.5</ele><time>2026-05-01T11:53:07.999Z</time></trkpt><trkpt lat="44.517184435646065" lon="8.800746700875044"><ele>864.25</ele><time>2026-05-01T11:53:08.999Z</time></trkpt><trkpt lat="44.51720005666709" lon="8.800924497446532"><ele>867.0</ele><time>2026-05-01T11:53:09.999Z</time></trkpt><trkpt lat="44.51720753759127" lon="8.80110544361344"><ele>868.0</ele><time>2026-05-01T11:53:10.999Z</time></trkpt><trkpt lat="44.517203567093595" lon="8.801285951315037"><ele>869.0</ele><time>2026-05-01T11:53:11.999Z</time></trkpt><trkpt lat="44.517162239497715" lon="8.80146834750618"><ele>870.0</ele><time>2026-05-01T11:53:12.999Z</time></trkpt><trkpt lat="44.51707541258534" lon="8.80167541331423"><ele>871.0</ele><time>2026-05-01T11:53:13.999Z</time></trkpt><trkpt lat="44.516986158122016" lon="8.801869199087617"><ele>867.25</ele><time>2026-05-01T11:53:14.999Z</time></trkpt><trkpt lat="44.516897078015496" lon="8.802038558568665"><ele>863.5</ele><time>2026-05-01T11:53:15.999Z</time></trkpt><trkpt lat="44.51681059221846" lon="8.80219575112915"><ele>859.75</ele><time>2026-05-01T11:53:16.999Z</time></trkpt><trkpt lat="44.516738522481425" lon="8.802356362438848"><ele>856.0</ele><time>2026-05-01T11:53:17.999Z</time></trkpt><trkpt lat="44.51667362498612" lon="8.80250879692983"><ele>856.1999999999999</ele><time>2026-05-01T11:53:18.999Z</time></trkpt><trkpt lat="44.51662919284901" lon="8.802668237333133"><ele>856.3999999999999</ele><time>2026-05-01T11:53:19.999Z</time></trkpt><trkpt lat="44.51658063583534" lon="8.802811478771943"><ele>856.6</ele><time>2026-05-01T11:53:20.999Z</time></trkpt><trkpt lat="44.5165539778328" lon="8.802956704600003"><ele>856.8</ele><time>2026-05-01T11:53:21.999Z</time></trkpt><trkpt lat="44.51653503257288" lon="8.803096752197002"><ele>857.0</ele><time>2026-05-01T11:53:22.999Z</time></trkpt><trkpt lat="44.516537780894275" lon="8.803226634628878"><ele>857.0</ele><time>2026-05-01T11:53:23.999Z</time></trkpt><trkpt lat="44.5165183233778" lon="8.80334672909207"><ele>857.0</ele><time>2026-05-01T11:53:24.999Z</time></trkpt><trkpt lat="44.51651670489074" lon="8.803470464608107"><ele>857.0</ele><time>2026-05-01T11:53:25.999Z</time></trkpt><trkpt lat="44.51651457820088" lon="8.803585950031923"><ele>857.0</ele><time>2026-05-01T11:53:26.999Z</time></trkpt><trkpt lat="44.516514966556194" lon="8.803682575842263"><ele>857.0</ele><time>2026-05-01T11:53:27.999Z</time></trkpt><trkpt lat="44.51653724714592" lon="8.803852053614971"><ele>855.6</ele><time>2026-05-01T11:53:29.999Z</time></trkpt><trkpt lat="44.516560038675664" lon="8.804017698101363"><ele>854.2</ele><time>2026-05-01T11:53:32Z</time></trkpt><trkpt lat="44.51658903734019" lon="8.804107266064916"><ele>852.8</ele><time>2026-05-01T11:53:33Z</time></trkpt><trkpt lat="44.5166208424432" lon="8.804194895291813"><ele>851.4</ele><time>2026-05-01T11:53:34Z</time></trkpt><trkpt lat="44.51667927812966" lon="8.804346945382262"><ele>850.0</ele><time>2026-05-01T11:53:36Z</time></trkpt><trkpt lat="44.51671068851141" lon="8.804428468700385"><ele>848.6666666666666</ele><time>2026-05-01T11:53:37Z</time></trkpt><trkpt lat="44.51677225807098" lon="8.8045856553039"><ele>847.3333333333333</ele><time>2026-05-01T11:53:39Z</time></trkpt><trkpt lat="44.516805994749554" lon="8.804671784566022"><ele>846.0</ele><time>2026-05-01T11:53:40Z</time></trkpt><trkpt lat="44.516844198043245" lon="8.80476931758807"><ele>844.6666666666667</ele><time>2026-05-01T11:53:41Z</time></trkpt><trkpt lat="44.51688215470824" lon="8.804864264137858"><ele>843.3333333333334</ele><time>2026-05-01T11:53:42Z</time></trkpt><trkpt lat="44.516918537689385" lon="8.804957488635493"><ele>842.0</ele><time>2026-05-01T11:53:43Z</time></trkpt><trkpt lat="44.51694741058535" lon="8.805046953908043"><ele>842.0</ele><time>2026-05-01T11:53:44Z</time></trkpt><trkpt lat="44.51696969805121" lon="8.805152943004359"><ele>842.0</ele><time>2026-05-01T11:53:45Z</time></trkpt><trkpt lat="44.515749787553325" lon="8.8168925877368"><ele>850.75</ele><time>2026-05-01T11:54:45.999Z</time></trkpt><trkpt lat="44.515828444315105" lon="8.817000192906486"><ele>859.5</ele><time>2026-05-01T11:54:46.999Z</time></trkpt><trkpt lat="44.51591190242337" lon="8.817105719375974"><ele>868.25</ele><time>2026-05-01T11:54:47.999Z</time></trkpt><trkpt lat="44.515996361603555" lon="8.817216093191368"><ele>877.0</ele><time>2026-05-01T11:54:48.999Z</time></trkpt><trkpt lat="44.51607709339218" lon="8.817327263142886"><ele>877.0</ele><time>2026-05-01T11:54:49.999Z</time></trkpt><trkpt lat="44.51615732156687" lon="8.817434492308658"><ele>877.0</ele><time>2026-05-01T11:54:50.999Z</time></trkpt><trkpt lat="44.51624055899267" lon="8.817524699389192"><ele>877.0</ele><time>2026-05-01T11:54:51.999Z</time></trkpt><trkpt lat="44.516315155259704" lon="8.81758875078475"><ele>877.0</ele><time>2026-05-01T11:54:52.999Z</time></trkpt><trkpt lat="44.51637323817245" lon="8.817630597414999"><ele>877.0</ele><time>2026-05-01T11:54:53.999Z</time></trkpt><trkpt lat="44.51647886601536" lon="8.817697862517646"><ele>874.8</ele><time>2026-05-01T11:54:55.999Z</time></trkpt><trkpt lat="44.516551095890385" lon="8.817733007793892"><ele>872.6</ele><time>2026-05-01T11:54:56.999Z</time></trkpt><trkpt lat="44.51663481672448" lon="8.817784949282022"><ele>870.3999999999999</ele><time>2026-05-01T11:54:57.999Z</time></trkpt><trkpt lat="44.516731167713544" lon="8.817848431934927"><ele>868.1999999999999</ele><time>2026-05-01T11:54:58.999Z</time></trkpt><trkpt lat="44.51686229789017" lon="8.817918910919296"><ele>866.0</ele><time>2026-05-01T11:54:59.999Z</time></trkpt><trkpt lat="44.51700578803473" lon="8.818010881619927"><ele>869.5</ele><time>2026-05-01T11:55:00.999Z</time></trkpt><trkpt lat="44.51713429051972" lon="8.818102280595484"><ele>873.0</ele><time>2026-05-01T11:55:01.999Z</time></trkpt><trkpt lat="44.517258529629544" lon="8.818193595826934"><ele>876.5</ele><time>2026-05-01T11:55:02.999Z</time></trkpt><trkpt lat="44.51738197191155" lon="8.818283519285746"><ele>880.0</ele><time>2026-05-01T11:55:03.999Z</time></trkpt><trkpt lat="44.51749970171769" lon="8.81836615457816"><ele>880.0</ele><time>2026-05-01T11:55:04.999Z</time></trkpt><trkpt lat="44.517615322783016" lon="8.818445454506538"><ele>880.0</ele><time>2026-05-01T11:55:05.999Z</time></trkpt><trkpt lat="44.51773038630249" lon="8.81852681261822"><ele>880.0</ele><time>2026-05-01T11:55:06.999Z</time></trkpt><trkpt lat="44.51784550616976" lon="8.818609709131437"><ele>880.0</ele><time>2026-05-01T11:55:07.999Z</time></trkpt><trkpt lat="44.51795490554547" lon="8.818702706480831"><ele>877.5</ele><time>2026-05-01T11:55:08.999Z</time></trkpt><trkpt lat="44.518056152894765" lon="8.818808667533476"><ele>875.0</ele><time>2026-05-01T11:55:09.999Z</time></trkpt><trkpt lat="44.51815074397876" lon="8.818925725951928"><ele>872.5</ele><time>2026-05-01T11:55:10.999Z</time></trkpt><trkpt lat="44.518241543913234" lon="8.819051871657244"><ele>870.0</ele><time>2026-05-01T11:55:11.999Z</time></trkpt><trkpt lat="44.51833050509961" lon="8.81917776116281"><ele>870.0</ele><time>2026-05-01T11:55:12.999Z</time></trkpt><trkpt lat="44.5184185390147" lon="8.819305155134595"><ele>870.0</ele><time>2026-05-01T11:55:13.999Z</time></trkpt><trkpt lat="44.51850876371417" lon="8.819427594116693"><ele>870.0</ele><time>2026-05-01T11:55:14.999Z</time></trkpt><trkpt lat="44.518601847240724" lon="8.819544883518038"><ele>870.0</ele><time>2026-05-01T11:55:15.999Z</time></trkpt><trkpt lat="44.51871668057009" lon="8.819648057760114"><ele>866.3333333333333</ele><time>2026-05-01T11:55:16.999Z</time></trkpt><trkpt lat="44.5188493519903" lon="8.81970941841312"><ele>862.6666666666666</ele><time>2026-05-01T11:55:17.999Z</time></trkpt><trkpt lat="44.519014200441624" lon="8.819733576820441"><ele>859.0</ele><time>2026-05-01T11:55:18.999Z</time></trkpt><trkpt lat="44.51917410982692" lon="8.819750043186987"><ele>859.0</ele><time>2026-05-01T11:55:19.999Z</time></trkpt><trkpt lat="44.51932700059261" lon="8.819731974871985"><ele>859.0</ele><time>2026-05-01T11:55:20.999Z</time></trkpt><trkpt lat="44.51947205138293" lon="8.8197134769499"><ele>859.0</ele><time>2026-05-01T11:55:21.999Z</time></trkpt><trkpt lat="44.519617645024276" lon="8.819698246770166"><ele>859.0</ele><time>2026-05-01T11:55:22.999Z</time></trkpt><trkpt lat="44.51974795420784" lon="8.819690078590288"><ele>858.75</ele><time>2026-05-01T11:55:23.999Z</time></trkpt><trkpt lat="44.519881316530565" lon="8.819701779497834"><ele>858.5</ele><time>2026-05-01T11:55:24.999Z</time></trkpt><trkpt lat="44.52001655839047" lon="8.819771089707142"><ele>858.25</ele><time>2026-05-01T11:55:25.999Z</time></trkpt><trkpt lat="44.520172210718954" lon="8.819861421356755"><ele>858.0</ele><time>2026-05-01T11:55:26.999Z</time></trkpt><trkpt lat="44.52035679388474" lon="8.819986052055036"><ele>856.0</ele><time>2026-05-01T11:55:27.999Z</time></trkpt><trkpt lat="44.52055277968333" lon="8.820108022521188"><ele>854.0</ele><time>2026-05-01T11:55:28.999Z</time></trkpt><trkpt lat="44.52072392807726" lon="8.820233086358593"><ele>852.0</ele><time>2026-05-01T11:55:29.999Z</time></trkpt><trkpt lat="44.52089472733609" lon="8.820353921277032"><ele>852.0</ele><time>2026-05-01T11:55:30.999Z</time></trkpt><trkpt lat="44.52106374802824" lon="8.820461442233642"><ele>852.0</ele><time>2026-05-01T11:55:31.999Z</time></trkpt><trkpt lat="44.52122838352783" lon="8.820570264563221"><ele>852.0</ele><time>2026-05-01T11:55:32.999Z</time></trkpt><trkpt lat="44.521390899788585" lon="8.820680380771934"><ele>848.75</ele><time>2026-05-01T11:55:33.999Z</time></trkpt><trkpt lat="44.52154572527039" lon="8.820784408920188"><ele>845.5</ele><time>2026-05-01T11:55:34.999Z</time></trkpt><trkpt lat="44.52167640999583" lon="8.820872283956914"><ele>842.25</ele><time>2026-05-01T11:55:35.999Z</time></trkpt><trkpt lat="44.521787776909534" lon="8.82094893996239"><ele>839.0</ele><time>2026-05-01T11:55:37Z</time></trkpt><trkpt lat="44.52185110426332" lon="8.821063007899749"><ele>839.0</ele><time>2026-05-01T11:55:38Z</time></trkpt><trkpt lat="44.521903069731636" lon="8.821193808296734"><ele>839.0</ele><time>2026-05-01T11:55:39Z</time></trkpt><trkpt lat="44.52191591597857" lon="8.821339801838974"><ele>839.0</ele><time>2026-05-01T11:55:40Z</time></trkpt><trkpt lat="44.52188684511983" lon="8.821504819678623"><ele>839.0</ele><time>2026-05-01T11:55:41Z</time></trkpt><trkpt lat="44.52182350532625" lon="8.821711984286695"><ele>835.6666666666667</ele><time>2026-05-01T11:55:42Z</time></trkpt><trkpt lat="44.52174486510009" lon="8.821970955690828"><ele>832.3333333333333</ele><time>2026-05-01T11:55:43Z</time></trkpt><trkpt lat="44.52165956232732" lon="8.822248364208926"><ele>829.0</ele><time>2026-05-01T11:55:44Z</time></trkpt><trkpt lat="44.52157776473595" lon="8.822513792574236"><ele>756.0</ele><time>2026-05-01T11:55:45Z</time></trkpt><trkpt lat="44.524333073403035" lon="8.831709381781446"><ele>755.0</ele><time>2026-05-01T11:56:45.999Z</time></trkpt><trkpt lat="44.524331290633135" lon="8.831970222749874"><ele>754.0</ele><time>2026-05-01T11:56:46.999Z</time></trkpt><trkpt lat="44.52433051788862" lon="8.832222915799674"><ele>753.0</ele><time>2026-05-01T11:56:47.999Z</time></trkpt><trkpt lat="44.52432196676343" lon="8.832462682731093"><ele>754.0</ele><time>2026-05-01T11:56:48.999Z</time></trkpt><trkpt lat="44.524304780185915" lon="8.83269067427782"><ele>755.0</ele><time>2026-05-01T11:56:49.999Z</time></trkpt><trkpt lat="44.52426042370281" lon="8.832891154156263"><ele>756.0</ele><time>2026-05-01T11:56:50.999Z</time></trkpt><trkpt lat="44.52420840930503" lon="8.833049314997893"><ele>757.0</ele><time>2026-05-01T11:56:51.999Z</time></trkpt><trkpt lat="44.5241162104437" lon="8.833165727370606"><ele>757.0</ele><time>2026-05-01T11:56:52.999Z</time></trkpt><trkpt lat="44.52397268420761" lon="8.83326182009024"><ele>757.0</ele><time>2026-05-01T11:56:53.999Z</time></trkpt><trkpt lat="44.52382468586836" lon="8.833317096975845"><ele>757.0</ele><time>2026-05-01T11:56:54.999Z</time></trkpt><trkpt lat="44.523698986894914" lon="8.833390656209005"><ele>757.0</ele><time>2026-05-01T11:56:55.999Z</time></trkpt><trkpt lat="44.523619153038716" lon="8.83352739747706"><ele>748.6666666666667</ele><time>2026-05-01T11:56:56.999Z</time></trkpt><trkpt lat="44.523605526511616" lon="8.833720755428498"><ele>740.3333333333334</ele><time>2026-05-01T11:56:57.999Z</time></trkpt><trkpt lat="44.523644325431455" lon="8.833939795128842"><ele>732.0</ele><time>2026-05-01T11:56:58.999Z</time></trkpt><trkpt lat="44.523720021879484" lon="8.834132092846902"><ele>733.75</ele><time>2026-05-01T11:56:59.999Z</time></trkpt><trkpt lat="44.52378052607504" lon="8.834307057703064"><ele>735.5</ele><time>2026-05-01T11:57:00.999Z</time></trkpt><trkpt lat="44.52382748484832" lon="8.834477980065358"><ele>737.25</ele><time>2026-05-01T11:57:01.999Z</time></trkpt><trkpt lat="44.52388125579352" lon="8.834647205079769"><ele>739.0</ele><time>2026-05-01T11:57:02.999Z</time></trkpt><trkpt lat="44.523955004909176" lon="8.834829503309225"><ele>739.0</ele><time>2026-05-01T11:57:03.999Z</time></trkpt><trkpt lat="44.524061200730756" lon="8.835015348434446"><ele>739.0</ele><time>2026-05-01T11:57:04.999Z</time></trkpt><trkpt lat="44.52418980974898" lon="8.835192252240612"><ele>739.0</ele><time>2026-05-01T11:57:05.999Z</time></trkpt><trkpt lat="44.52431730795902" lon="8.835355607178055"><ele>737.6666666666667</ele><time>2026-05-01T11:57:06.999Z</time></trkpt><trkpt lat="44.52443285817691" lon="8.835522354468129"><ele>736.3333333333334</ele><time>2026-05-01T11:57:07.999Z</time></trkpt><trkpt lat="44.52454844597877" lon="8.835687479072922"><ele>735.0</ele><time>2026-05-01T11:57:08.999Z</time></trkpt><trkpt lat="44.524666922519735" lon="8.835854253023463"><ele>730.5</ele><time>2026-05-01T11:57:09.999Z</time></trkpt><trkpt lat="44.52477470012498" lon="8.836002832041558"><ele>726.0</ele><time>2026-05-01T11:57:10.999Z</time></trkpt><trkpt lat="44.52487404672901" lon="8.836148539308635"><ele>721.5</ele><time>2026-05-01T11:57:11.999Z</time></trkpt><trkpt lat="44.524960308823324" lon="8.836270551304779"><ele>717.0</ele><time>2026-05-01T11:57:12.999Z</time></trkpt><trkpt lat="44.525033323193725" lon="8.83637944906568"><ele>717.0</ele><time>2026-05-01T11:57:13.999Z</time></trkpt><trkpt lat="44.52509068379277" lon="8.83649862011673"><ele>717.0</ele><time>2026-05-01T11:57:14.999Z</time></trkpt><trkpt lat="44.525081695111126" lon="8.836648564308106"><ele>717.0</ele><time>2026-05-01T11:57:15.999Z</time></trkpt><trkpt lat="44.5250656789712" lon="8.836795408830282"><ele>717.0</ele><time>2026-05-01T11:57:16.999Z</time></trkpt><trkpt lat="44.52497554867673" lon="8.836899417081288"><ele>717.0</ele><time>2026-05-01T11:57:17.999Z</time></trkpt><trkpt lat="44.52486470704142" lon="8.836953569603656"><ele>715.5</ele><time>2026-05-01T11:57:18.999Z</time></trkpt><trkpt lat="44.52474409800899" lon="8.836935652672283"><ele>714.0</ele><time>2026-05-01T11:57:19.999Z</time></trkpt><trkpt lat="44.52462391979969" lon="8.836825437235088"><ele>712.5</ele><time>2026-05-01T11:57:20.999Z</time></trkpt><trkpt lat="44.524492424715305" lon="8.836698716458098"><ele>711.0</ele><time>2026-05-01T11:57:21.999Z</time></trkpt><trkpt lat="44.524370408232855" lon="8.836557904391618"><ele>711.0</ele><time>2026-05-01T11:57:22.999Z</time></trkpt><trkpt lat="44.52423259467279" lon="8.836470629019232"><ele>711.0</ele><time>2026-05-01T11:57:23.999Z</time></trkpt><trkpt lat="44.5240883055677" lon="8.836415205534413"><ele>711.0</ele><time>2026-05-01T11:57:24.999Z</time></trkpt><trkpt lat="44.52394260955513" lon="8.836380553962613"><ele>711.0</ele><time>2026-05-01T11:57:25.999Z</time></trkpt><trkpt lat="44.52379772241548" lon="8.836345511485863"><ele>708.25</ele><time>2026-05-01T11:57:26.999Z</time></trkpt><trkpt lat="44.5236528233444" lon="8.836301115393015"><ele>705.5</ele><time>2026-05-01T11:57:27.999Z</time></trkpt><trkpt lat="44.52350835575526" lon="8.836251100517398"><ele>702.75</ele><time>2026-05-01T11:57:28.999Z</time></trkpt><trkpt lat="44.52336555764402" lon="8.836205096823045"><ele>700.0</ele><time>2026-05-01T11:57:29.999Z</time></trkpt><trkpt lat="44.52323780363813" lon="8.836167117818112"><ele>700.0</ele><time>2026-05-01T11:57:30.999Z</time></trkpt><trkpt lat="44.523120252080155" lon="8.836136576376184"><ele>700.0</ele><time>2026-05-01T11:57:31.999Z</time></trkpt><trkpt lat="44.523012163280754" lon="8.836102627921681"><ele>700.0</ele><time>2026-05-01T11:57:32.999Z</time></trkpt><trkpt lat="44.5229088425376" lon="8.83607439410426"><ele>700.0</ele><time>2026-05-01T11:57:33.999Z</time></trkpt><trkpt lat="44.522799606001165" lon="8.836080193646053"><ele>700.0</ele><time>2026-05-01T11:57:34.999Z</time></trkpt><trkpt lat="44.52269533687817" lon="8.836174517904361"><ele>697.25</ele><time>2026-05-01T11:57:35.999Z</time></trkpt><trkpt lat="44.52262406975653" lon="8.836341802363075"><ele>694.5</ele><time>2026-05-01T11:57:36.999Z</time></trkpt><trkpt lat="44.52260833772887" lon="8.836530418196805"><ele>691.75</ele><time>2026-05-01T11:57:37.999Z</time></trkpt><trkpt lat="44.52264573256236" lon="8.836708555602973"><ele>689.0</ele><time>2026-05-01T11:57:38.999Z</time></trkpt><trkpt lat="44.52268776637506" lon="8.836872478902025"><ele>687.5</ele><time>2026-05-01T11:57:39.999Z</time></trkpt><trkpt lat="44.52270176855978" lon="8.83703837821746"><ele>686.0</ele><time>2026-05-01T11:57:40.999Z</time></trkpt><trkpt lat="44.52271840329703" lon="8.837209887482787"><ele>684.5</ele><time>2026-05-01T11:57:41.999Z</time></trkpt><trkpt lat="44.52274755252341" lon="8.837372334147688"><ele>683.0</ele><time>2026-05-01T11:57:43Z</time></trkpt><trkpt lat="44.52278611046065" lon="8.837532046518383"><ele>678.5</ele><time>2026-05-01T11:57:44Z</time></trkpt><trkpt lat="44.5228483177518" lon="8.83768507012784"><ele>674.0</ele><time>2026-05-01T11:57:45Z</time></trkpt><trkpt lat="44.52133834684164" lon="8.841692457412003"><ele>651.75</ele><time>2026-05-01T11:58:45.999Z</time></trkpt><trkpt lat="44.52121337667135" lon="8.841575038418028"><ele>629.5</ele><time>2026-05-01T11:58:46.999Z</time></trkpt><trkpt lat="44.52109131098309" lon="8.841467197189422"><ele>607.25</ele><time>2026-05-01T11:58:47.999Z</time></trkpt><trkpt lat="44.520970576376314" lon="8.841357441916061"><ele>585.0</ele><time>2026-05-01T11:58:48.999Z</time></trkpt><trkpt lat="44.52087385105451" lon="8.841218122926088"><ele>585.0</ele><time>2026-05-01T11:58:49.999Z</time></trkpt><trkpt lat="44.52076507546581" lon="8.841075728772024"><ele>585.0</ele><time>2026-05-01T11:58:50.999Z</time></trkpt><trkpt lat="44.520679916226975" lon="8.840880483811523"><ele>585.0</ele><time>2026-05-01T11:58:51.999Z</time></trkpt><trkpt lat="44.520593170973875" lon="8.840683715945637"><ele>583.6666666666666</ele><time>2026-05-01T11:58:52.999Z</time></trkpt><trkpt lat="44.520508195861474" lon="8.840496083850423"><ele>582.3333333333333</ele><time>2026-05-01T11:58:53.999Z</time></trkpt><trkpt lat="44.52042482524822" lon="8.840312902590865"><ele>581.0</ele><time>2026-05-01T11:58:54.999Z</time></trkpt><trkpt lat="44.520344900219314" lon="8.84012781381082"><ele>581.0</ele><time>2026-05-01T11:58:55.999Z</time></trkpt><trkpt lat="44.520261181813076" lon="8.839951504021311"><ele>581.0</ele><time>2026-05-01T11:58:56.999Z</time></trkpt><trkpt lat="44.520181056538796" lon="8.839788584381385"><ele>581.0</ele><time>2026-05-01T11:58:57.999Z</time></trkpt><trkpt lat="44.520101373462836" lon="8.839633946002989"><ele>581.0</ele><time>2026-05-01T11:58:58.999Z</time></trkpt><trkpt lat="44.52000060681065" lon="8.83952567636926"><ele>581.0</ele><time>2026-05-01T11:58:59.999Z</time></trkpt><trkpt lat="44.51986268063885" lon="8.839506904312866"><ele>581.0</ele><time>2026-05-01T11:59:00.999Z</time></trkpt><trkpt lat="44.51972677323404" lon="8.839533078035812"><ele>581.0</ele><time>2026-05-01T11:59:01.999Z</time></trkpt><trkpt lat="44.51959275268734" lon="8.839545109534502"><ele>581.0</ele><time>2026-05-01T11:59:02.999Z</time></trkpt><trkpt lat="44.519455716345334" lon="8.839528112606898"><ele>579.0</ele><time>2026-05-01T11:59:03.999Z</time></trkpt><trkpt lat="44.51932175486995" lon="8.839524698332124"><ele>577.0</ele><time>2026-05-01T11:59:04.999Z</time></trkpt><trkpt lat="44.51918700470337" lon="8.839491084940141"><ele>575.0</ele><time>2026-05-01T11:59:05.999Z</time></trkpt><trkpt lat="44.519076757263576" lon="8.839406897878547"><ele>573.0</ele><time>2026-05-01T11:59:06.999Z</time></trkpt><trkpt lat="44.519003002185755" lon="8.839285895344268"><ele>573.0</ele><time>2026-05-01T11:59:07.999Z</time></trkpt><trkpt lat="44.51892275621412" lon="8.839109262733233"><ele>573.0</ele><time>2026-05-01T11:59:08.999Z</time></trkpt><trkpt lat="44.518857609583996" lon="8.838958523609426"><ele>573.0</ele><time>2026-05-01T11:59:09.999Z</time></trkpt><trkpt lat="44.51879309592869" lon="8.838799318318273"><ele>573.0</ele><time>2026-05-01T11:59:10.999Z</time></trkpt><trkpt lat="44.51872947957382" lon="8.838641782879106"><ele>567.5</ele><time>2026-05-01T11:59:11.999Z</time></trkpt><trkpt lat="44.51867558449586" lon="8.838481928543006"><ele>562.0</ele><time>2026-05-01T11:59:12.999Z</time></trkpt><trkpt lat="44.518641770505354" lon="8.838317930892588"><ele>556.5</ele><time>2026-05-01T11:59:13.999Z</time></trkpt><trkpt lat="44.518630710003" lon="8.838163928431955"><ele>551.0</ele><time>2026-05-01T11:59:14.999Z</time></trkpt><trkpt lat="44.51861983352653" lon="8.838027647803507"><ele>551.0</ele><time>2026-05-01T11:59:15.999Z</time></trkpt><trkpt lat="44.51856780781546" lon="8.837928930013515"><ele>551.0</ele><time>2026-05-01T11:59:16.999Z</time></trkpt><trkpt lat="44.51847737890726" lon="8.837876471804842"><ele>551.0</ele><time>2026-05-01T11:59:17.999Z</time></trkpt><trkpt lat="44.51837512505839" lon="8.837922384681931"><ele>551.0</ele><time>2026-05-01T11:59:18.999Z</time></trkpt><trkpt lat="44.51829303643716" lon="8.837999688046029"><ele>551.0</ele><time>2026-05-01T11:59:19.999Z</time></trkpt><trkpt lat="44.51825883018721" lon="8.838130302451432"><ele>551.0</ele><time>2026-05-01T11:59:20.999Z</time></trkpt><trkpt lat="44.518284185147685" lon="8.838266772158724"><ele>551.0</ele><time>2026-05-01T11:59:21.999Z</time></trkpt><trkpt lat="44.51837152026981" lon="8.838399169613771"><ele>551.0</ele><time>2026-05-01T11:59:22.999Z</time></trkpt><trkpt lat="44.51844517173757" lon="8.838586198794651"><ele>551.0</ele><time>2026-05-01T11:59:23.999Z</time></trkpt><trkpt lat="44.51849050959618" lon="8.838777732928191"><ele>546.0</ele><time>2026-05-01T11:59:24.999Z</time></trkpt><trkpt lat="44.51852802021986" lon="8.839011818731024"><ele>541.0</ele><time>2026-05-01T11:59:25.999Z</time></trkpt><trkpt lat="44.518567507825736" lon="8.839225108129936"><ele>536.0</ele><time>2026-05-01T11:59:26.999Z</time></trkpt><trkpt lat="44.51860656696734" lon="8.839441064201155"><ele>530.0</ele><time>2026-05-01T11:59:27.999Z</time></trkpt><trkpt lat="44.51865591703156" lon="8.839652837001728"><ele>524.0</ele><time>2026-05-01T11:59:28.999Z</time></trkpt><trkpt lat="44.51871571985199" lon="8.839859195802653"><ele>518.0</ele><time>2026-05-01T11:59:29.999Z</time></trkpt><trkpt lat="44.51878807934126" lon="8.840055756927555"><ele>521.0</ele><time>2026-05-01T11:59:30.999Z</time></trkpt><trkpt lat="44.518867013631876" lon="8.840236522877486"><ele>524.0</ele><time>2026-05-01T11:59:31.999Z</time></trkpt><trkpt lat="44.518938493596885" lon="8.840409515982861"><ele>527.0</ele><time>2026-05-01T11:59:32.999Z</time></trkpt><trkpt lat="44.51899649763498" lon="8.840565869252906"><ele>530.0</ele><time>2026-05-01T11:59:33.999Z</time></trkpt><trkpt lat="44.519066132461894" lon="8.840702523792265"><ele>530.0</ele><time>2026-05-01T11:59:34.999Z</time></trkpt><trkpt lat="44.5191664705598" lon="8.840804835012424"><ele>530.0</ele><time>2026-05-01T11:59:35.999Z</time></trkpt><trkpt lat="44.51929604362674" lon="8.84083532614413"><ele>530.0</ele><time>2026-05-01T11:59:36.999Z</time></trkpt><trkpt lat="44.51941954681119" lon="8.840807949028916"><ele>530.0</ele><time>2026-05-01T11:59:37.999Z</time></trkpt><trkpt lat="44.51951235269026" lon="8.840815657952838"><ele>534.25</ele><time>2026-05-01T11:59:38.999Z</time></trkpt><trkpt lat="44.51959737482235" lon="8.84090359981987"><ele>538.5</ele><time>2026-05-01T11:59:39.999Z</time></trkpt><trkpt lat="44.519629947204585" lon="8.841066801637641"><ele>542.75</ele><time>2026-05-01T11:59:40.999Z</time></trkpt><trkpt lat="44.51960866313596" lon="8.841220676571075"><ele>547.0</ele><time>2026-05-01T11:59:41.999Z</time></trkpt><trkpt lat="44.519535752884636" lon="8.841358062845867"><ele>532.3333333333334</ele><time>2026-05-01T11:59:42.999Z</time></trkpt><trkpt lat="44.5194649478098" lon="8.841521412849149"><ele>517.6666666666666</ele><time>2026-05-01T11:59:43.999Z</time></trkpt><trkpt lat="44.5194267373471" lon="8.841695942461266"><ele>503.0</ele><time>2026-05-01T11:59:44.999Z</time></trkpt><trkpt lat="44.519123052817484" lon="8.850602463007538"><ele>479.66666666666663</ele><time>2026-05-01T12:00:45.999Z</time></trkpt><trkpt lat="44.5190943820968" lon="8.850826132407645"><ele>456.33333333333337</ele><time>2026-05-01T12:00:46.999Z</time></trkpt><trkpt lat="44.51904305054769" lon="8.85104203500176"><ele>433.0</ele><time>2026-05-01T12:00:47.999Z</time></trkpt><trkpt lat="44.518995254004565" lon="8.851250829548302"><ele>432.5</ele><time>2026-05-01T12:00:48.999Z</time></trkpt><trkpt lat="44.51895450863354" lon="8.851457934564618"><ele>432.0</ele><time>2026-05-01T12:00:49.999Z</time></trkpt><trkpt lat="44.518877960230405" lon="8.851628574318665"><ele>431.5</ele><time>2026-05-01T12:00:50.999Z</time></trkpt><trkpt lat="44.51881556824583" lon="8.851807432693525"><ele>431.0</ele><time>2026-05-01T12:00:51.999Z</time></trkpt><trkpt lat="44.51875499191584" lon="8.85197758740267"><ele>430.0</ele><time>2026-05-01T12:00:52.999Z</time></trkpt><trkpt lat="44.51872092714132" lon="8.852170096584782"><ele>429.0</ele><time>2026-05-01T12:00:53.999Z</time></trkpt><trkpt lat="44.51870753662529" lon="8.852353503365904"><ele>428.0</ele><time>2026-05-01T12:00:54.999Z</time></trkpt><trkpt lat="44.518717086593036" lon="8.852548984208656"><ele>427.0</ele><time>2026-05-01T12:00:55.999Z</time></trkpt><trkpt lat="44.51873457480296" lon="8.852742057456135"><ele>427.0</ele><time>2026-05-01T12:00:56.999Z</time></trkpt><trkpt lat="44.51874337847033" lon="8.852934573914048"><ele>427.0</ele><time>2026-05-01T12:00:57.999Z</time></trkpt><trkpt lat="44.5187446585403" lon="8.853129869366828"><ele>427.0</ele><time>2026-05-01T12:00:58.999Z</time></trkpt><trkpt lat="44.51873547451983" lon="8.85332479722502"><ele>427.0</ele><time>2026-05-01T12:00:59.999Z</time></trkpt><trkpt lat="44.51870824089938" lon="8.853514630543355"><ele>419.0</ele><time>2026-05-01T12:01:00.999Z</time></trkpt><trkpt lat="44.51867541352126" lon="8.85368264699348"><ele>411.0</ele><time>2026-05-01T12:01:01.999Z</time></trkpt><trkpt lat="44.51864651428475" lon="8.853851822605058"><ele>403.0</ele><time>2026-05-01T12:01:02.999Z</time></trkpt><trkpt lat="44.51858933672403" lon="8.853999174028791"><ele>395.0</ele><time>2026-05-01T12:01:03.999Z</time></trkpt><trkpt lat="44.51848253091635" lon="8.8540921742192"><ele>395.0</ele><time>2026-05-01T12:01:04.999Z</time></trkpt><trkpt lat="44.51835360830458" lon="8.854104107917754"><ele>395.0</ele><time>2026-05-01T12:01:05.999Z</time></trkpt><trkpt lat="44.51822290541379" lon="8.854024064816528"><ele>395.0</ele><time>2026-05-01T12:01:06.999Z</time></trkpt><trkpt lat="44.518090749025355" lon="8.853915200910283"><ele>395.0</ele><time>2026-05-01T12:01:07.999Z</time></trkpt><trkpt lat="44.51795605461176" lon="8.853819783400029"><ele>391.5</ele><time>2026-05-01T12:01:08.999Z</time></trkpt><trkpt lat="44.51783623215914" lon="8.853736644901412"><ele>388.0</ele><time>2026-05-01T12:01:09.999Z</time></trkpt><trkpt lat="44.517703979006924" lon="8.853644379740008"><ele>384.5</ele><time>2026-05-01T12:01:10.999Z</time></trkpt><trkpt lat="44.51759637656438" lon="8.85358256523049"><ele>381.0</ele><time>2026-05-01T12:01:11.999Z</time></trkpt><trkpt lat="44.51747375986012" lon="8.853491815787176"><ele>380.5</ele><time>2026-05-01T12:01:12.999Z</time></trkpt><trkpt lat="44.51737559922998" lon="8.853353595858076"><ele>380.0</ele><time>2026-05-01T12:01:13.999Z</time></trkpt><trkpt lat="44.51728685574337" lon="8.8532110873374"><ele>379.5</ele><time>2026-05-01T12:01:14.999Z</time></trkpt><trkpt lat="44.51722377421282" lon="8.853083404706219"><ele>379.0</ele><time>2026-05-01T12:01:15.999Z</time></trkpt><trkpt lat="44.51719918264195" lon="8.852973696290109"><ele>379.0</ele><time>2026-05-01T12:01:16.999Z</time></trkpt><trkpt lat="44.517222247742716" lon="8.852852790630608"><ele>379.0</ele><time>2026-05-01T12:01:17.999Z</time></trkpt><trkpt lat="44.5172722193121" lon="8.852745789677074"><ele>379.0</ele><time>2026-05-01T12:01:18.999Z</time></trkpt><trkpt lat="44.51732396234908" lon="8.85261661294358"><ele>379.0</ele><time>2026-05-01T12:01:19.999Z</time></trkpt><trkpt lat="44.51737114315878" lon="8.852487269226815"><ele>379.0</ele><time>2026-05-01T12:01:20.999Z</time></trkpt><trkpt lat="44.51741466786582" lon="8.852367948574223"><ele>378.0</ele><time>2026-05-01T12:01:21.999Z</time></trkpt><trkpt lat="44.51744344710443" lon="8.852239766548834"><ele>377.0</ele><time>2026-05-01T12:01:22.999Z</time></trkpt><trkpt lat="44.51749342013347" lon="8.85212929340218"><ele>376.0</ele><time>2026-05-01T12:01:23.999Z</time></trkpt><trkpt lat="44.51750576229333" lon="8.851998638688995"><ele>375.0</ele><time>2026-05-01T12:01:24.999Z</time></trkpt><trkpt lat="44.51748116045202" lon="8.851857590625414"><ele>374.0</ele><time>2026-05-01T12:01:25.999Z</time></trkpt><trkpt lat="44.51741323275461" lon="8.851699382966668"><ele>373.75</ele><time>2026-05-01T12:01:26.999Z</time></trkpt><trkpt lat="44.5173462648618" lon="8.85155035962816"><ele>373.5</ele><time>2026-05-01T12:01:27.999Z</time></trkpt><trkpt lat="44.51728220406043" lon="8.851412184568014"><ele>373.25</ele><time>2026-05-01T12:01:28.999Z</time></trkpt><trkpt lat="44.517224368348714" lon="8.851282749020193"><ele>373.0</ele><time>2026-05-01T12:01:29.999Z</time></trkpt><trkpt lat="44.51716471434827" lon="8.851151470874003"><ele>373.0</ele><time>2026-05-01T12:01:30.999Z</time></trkpt><trkpt lat="44.517151723667524" lon="8.851028921781934"><ele>373.0</ele><time>2026-05-01T12:01:31.999Z</time></trkpt><trkpt lat="44.51715991791775" lon="8.850906902406022"><ele>373.0</ele><time>2026-05-01T12:01:32.999Z</time></trkpt><trkpt lat="44.51718145714782" lon="8.850783985287322"><ele>373.0</ele><time>2026-05-01T12:01:33.999Z</time></trkpt><trkpt lat="44.517219312748075" lon="8.850663340520521"><ele>373.0</ele><time>2026-05-01T12:01:34.999Z</time></trkpt><trkpt lat="44.51725362421144" lon="8.85054565418697"><ele>372.8333333333333</ele><time>2026-05-01T12:01:35.999Z</time></trkpt><trkpt lat="44.51728371182033" lon="8.850422634524469"><ele>372.66666666666663</ele><time>2026-05-01T12:01:36.999Z</time></trkpt><trkpt lat="44.51731365017029" lon="8.85029987720702"><ele>372.5</ele><time>2026-05-01T12:01:37.999Z</time></trkpt><trkpt lat="44.517341055736615" lon="8.8501894393393"><ele>372.3333333333333</ele><time>2026-05-01T12:01:38.999Z</time></trkpt><trkpt lat="44.51733173778201" lon="8.850084002373853"><ele>372.1666666666667</ele><time>2026-05-01T12:01:39.999Z</time></trkpt><trkpt lat="44.517265528469856" lon="8.850010086978877"><ele>372.0</ele><time>2026-05-01T12:01:40.999Z</time></trkpt><trkpt lat="44.51717390199307" lon="8.850011655169762"><ele>370.5</ele><time>2026-05-01T12:01:41.999Z</time></trkpt><trkpt lat="44.51708848228544" lon="8.850086397704924"><ele>369.0</ele><time>2026-05-01T12:01:42.999Z</time></trkpt><trkpt lat="44.5170186500667" lon="8.850185375597917"><ele>367.5</ele><time>2026-05-01T12:01:43.999Z</time></trkpt><trkpt lat="44.51695557637641" lon="8.850298790307308"><ele>366.0</ele><time>2026-05-01T12:01:44.999Z</time></trkpt><trkpt lat="44.513578264944684" lon="8.853141034195687"><ele>348.8</ele><time>2026-05-01T12:02:45.999Z</time></trkpt><trkpt lat="44.51348226812152" lon="8.85309766542881"><ele>331.6</ele><time>2026-05-01T12:02:46.999Z</time></trkpt><trkpt lat="44.513428655134184" lon="8.852977961160523"><ele>314.4</ele><time>2026-05-01T12:02:47.999Z</time></trkpt><trkpt lat="44.513422833618364" lon="8.85281860424525"><ele>297.2</ele><time>2026-05-01T12:02:48.999Z</time></trkpt><trkpt lat="44.513408450798636" lon="8.852648418026808"><ele>280.0</ele><time>2026-05-01T12:02:49.999Z</time></trkpt><trkpt lat="44.51336641068205" lon="8.852481516549096"><ele>279.75</ele><time>2026-05-01T12:02:50.999Z</time></trkpt><trkpt lat="44.5133328212965" lon="8.852322709346655"><ele>279.5</ele><time>2026-05-01T12:02:51.999Z</time></trkpt><trkpt lat="44.513301172358666" lon="8.852166060473905"><ele>279.25</ele><time>2026-05-01T12:02:52.999Z</time></trkpt><trkpt lat="44.51327427976488" lon="8.852006864373122"><ele>279.0</ele><time>2026-05-01T12:02:53.999Z</time></trkpt><trkpt lat="44.51326744731626" lon="8.851841193216162"><ele>279.0</ele><time>2026-05-01T12:02:54.999Z</time></trkpt><trkpt lat="44.51327728722133" lon="8.851675570221587"><ele>279.0</ele><time>2026-05-01T12:02:55.999Z</time></trkpt><trkpt lat="44.51329538572065" lon="8.851496620948785"><ele>279.0</ele><time>2026-05-01T12:02:56.999Z</time></trkpt><trkpt lat="44.513317380773" lon="8.851319553401662"><ele>279.0</ele><time>2026-05-01T12:02:57.999Z</time></trkpt><trkpt lat="44.5133277382577" lon="8.851146987202798"><ele>279.0</ele><time>2026-05-01T12:02:58.999Z</time></trkpt><trkpt lat="44.51332892112409" lon="8.850971494367712"><ele>279.0</ele><time>2026-05-01T12:02:59.999Z</time></trkpt><trkpt lat="44.513283739052724" lon="8.850807739228165"><ele>279.0</ele><time>2026-05-01T12:03:00.999Z</time></trkpt><trkpt lat="44.513207631394366" lon="8.850663459859764"><ele>279.0</ele><time>2026-05-01T12:03:01.999Z</time></trkpt><trkpt lat="44.51312874948588" lon="8.850529960009238"><ele>278.75</ele><time>2026-05-01T12:03:02.999Z</time></trkpt><trkpt lat="44.51306759992076" lon="8.85037979940052"><ele>278.5</ele><time>2026-05-01T12:03:03.999Z</time></trkpt><trkpt lat="44.51303782871374" lon="8.850205517593329"><ele>278.25</ele><time>2026-05-01T12:03:04.999Z</time></trkpt><trkpt lat="44.513049277636455" lon="8.850027221447542"><ele>278.0</ele><time>2026-05-01T12:03:05.999Z</time></trkpt><trkpt lat="44.51308422090551" lon="8.849855248850316"><ele>278.0</ele><time>2026-05-01T12:03:06.999Z</time></trkpt><trkpt lat="44.51310866833485" lon="8.849686754731366"><ele>278.0</ele><time>2026-05-01T12:03:07.999Z</time></trkpt><trkpt lat="44.51313494541945" lon="8.849525677695725"><ele>278.0</ele><time>2026-05-01T12:03:08.999Z</time></trkpt><trkpt lat="44.51318817534879" lon="8.849381704593307"><ele>278.0</ele><time>2026-05-01T12:03:09.999Z</time></trkpt><trkpt lat="44.51326621184691" lon="8.849277138067519"><ele>275.8</ele><time>2026-05-01T12:03:10.999Z</time></trkpt><trkpt lat="44.51334067232918" lon="8.849193804916155"><ele>273.6</ele><time>2026-05-01T12:03:11.999Z</time></trkpt><trkpt lat="44.51339569262953" lon="8.849111330649361"><ele>271.4</ele><time>2026-05-01T12:03:12.999Z</time></trkpt><trkpt lat="44.513416418825024" lon="8.849000059025807"><ele>269.2</ele><time>2026-05-01T12:03:13.999Z</time></trkpt><trkpt lat="44.51340054088509" lon="8.848878324378564"><ele>267.0</ele><time>2026-05-01T12:03:14.999Z</time></trkpt><trkpt lat="44.513325058969826" lon="8.848766908355087"><ele>267.0</ele><time>2026-05-01T12:03:15.999Z</time></trkpt><trkpt lat="44.51323270258263" lon="8.848692086526098"><ele>267.0</ele><time>2026-05-01T12:03:16.999Z</time></trkpt><trkpt lat="44.51313339835886" lon="8.848642531092844"><ele>267.0</ele><time>2026-05-01T12:03:17.999Z</time></trkpt><trkpt lat="44.513037680341" lon="8.848628209084444"><ele>267.0</ele><time>2026-05-01T12:03:18.999Z</time></trkpt><trkpt lat="44.512942265274674" lon="8.848654131158058"><ele>267.0</ele><time>2026-05-01T12:03:19.999Z</time></trkpt><trkpt lat="44.51285521604025" lon="8.848705324751474"><ele>263.8</ele><time>2026-05-01T12:03:20.999Z</time></trkpt><trkpt lat="44.51278377131416" lon="8.848783819606492"><ele>260.6</ele><time>2026-05-01T12:03:21.999Z</time></trkpt><trkpt lat="44.51272352891754" lon="8.848897200793914"><ele>257.40000000000003</ele><time>2026-05-01T12:03:22.999Z</time></trkpt><trkpt lat="44.51266077665469" lon="8.849040022859592"><ele>254.20000000000002</ele><time>2026-05-01T12:03:23.999Z</time></trkpt><trkpt lat="44.51259050575024" lon="8.849182598556329"><ele>251.0</ele><time>2026-05-01T12:03:24.999Z</time></trkpt><trkpt lat="44.51251156240522" lon="8.849343656749403"><ele>251.0</ele><time>2026-05-01T12:03:25.999Z</time></trkpt><trkpt lat="44.51244217578555" lon="8.849516324305169"><ele>251.0</ele><time>2026-05-01T12:03:26.999Z</time></trkpt><trkpt lat="44.51239358018184" lon="8.849706234824108"><ele>251.0</ele><time>2026-05-01T12:03:27.999Z</time></trkpt><trkpt lat="44.512355063087675" lon="8.849893656653718"><ele>251.0</ele><time>2026-05-01T12:03:28.999Z</time></trkpt><trkpt lat="44.512321430932865" lon="8.850073547048813"><ele>253.0</ele><time>2026-05-01T12:03:29.999Z</time></trkpt><trkpt lat="44.51230817401833" lon="8.850266559833495"><ele>255.0</ele><time>2026-05-01T12:03:30.999Z</time></trkpt><trkpt lat="44.512338801817336" lon="8.850469241397942"><ele>257.0</ele><time>2026-05-01T12:03:31.999Z</time></trkpt><trkpt lat="44.512386101311954" lon="8.850670395829907"><ele>259.0</ele><time>2026-05-01T12:03:32.999Z</time></trkpt><trkpt lat="44.512459721873896" lon="8.850858166671904"><ele>258.75</ele><time>2026-05-01T12:03:33.999Z</time></trkpt><trkpt lat="44.51255309709455" lon="8.851022977683495"><ele>258.5</ele><time>2026-05-01T12:03:34.999Z</time></trkpt><trkpt lat="44.512649018222916" lon="8.851174234020796"><ele>258.25</ele><time>2026-05-01T12:03:35.999Z</time></trkpt><trkpt lat="44.512698580728625" lon="8.851353686865886"><ele>258.0</ele><time>2026-05-01T12:03:36.999Z</time></trkpt><trkpt lat="44.51273747510498" lon="8.851529385446446"><ele>258.0</ele><time>2026-05-01T12:03:37.999Z</time></trkpt><trkpt lat="44.51275846072786" lon="8.851716285844155"><ele>258.0</ele><time>2026-05-01T12:03:38.999Z</time></trkpt><trkpt lat="44.51274959115786" lon="8.851912654672995"><ele>258.0</ele><time>2026-05-01T12:03:39.999Z</time></trkpt><trkpt lat="44.51271821826292" lon="8.852109058556568"><ele>258.0</ele><time>2026-05-01T12:03:40.999Z</time></trkpt><trkpt lat="44.51265849904518" lon="8.852274561688114"><ele>255.5</ele><time>2026-05-01T12:03:41.999Z</time></trkpt><trkpt lat="44.51258260163499" lon="8.852371078240427"><ele>253.0</ele><time>2026-05-01T12:03:42.999Z</time></trkpt><trkpt lat="44.5125001108927" lon="8.852408158083186"><ele>250.5</ele><time>2026-05-01T12:03:43.999Z</time></trkpt><trkpt lat="44.5124271241269" lon="8.852489981184233"><ele>248.0</ele><time>2026-05-01T12:03:44.999Z</time></trkpt><trkpt lat="44.51118383618111" lon="8.859958836452837"><ele>242.8</ele><time>2026-05-01T12:04:45.999Z</time></trkpt><trkpt lat="44.51115869054575" lon="8.86009923917598"><ele>237.60000000000002</ele><time>2026-05-01T12:04:46.999Z</time></trkpt><trkpt lat="44.511090188230874" lon="8.860214587885013"><ele>232.39999999999998</ele><time>2026-05-01T12:04:47.999Z</time></trkpt><trkpt lat="44.51102088630405" lon="8.86032350877704"><ele>227.2</ele><time>2026-05-01T12:04:48.999Z</time></trkpt><trkpt lat="44.51094729850091" lon="8.860424414942196"><ele>222.0</ele><time>2026-05-01T12:04:49.999Z</time></trkpt><trkpt lat="44.51086904844736" lon="8.860507520932599"><ele>222.0</ele><time>2026-05-01T12:04:50.999Z</time></trkpt><trkpt lat="44.51078148475159" lon="8.860564570491647"><ele>222.0</ele><time>2026-05-01T12:04:51.999Z</time></trkpt><trkpt lat="44.51069571294627" lon="8.8606187040013"><ele>222.0</ele><time>2026-05-01T12:04:52.999Z</time></trkpt><trkpt lat="44.5106302163185" lon="8.860706486946329"><ele>222.0</ele><time>2026-05-01T12:04:53.999Z</time></trkpt><trkpt lat="44.51057958698174" lon="8.860815515200134"><ele>222.0</ele><time>2026-05-01T12:04:54.999Z</time></trkpt><trkpt lat="44.5105403379448" lon="8.86093168355635"><ele>220.0</ele><time>2026-05-01T12:04:55.999Z</time></trkpt><trkpt lat="44.51049173593538" lon="8.861048610700863"><ele>218.0</ele><time>2026-05-01T12:04:56.999Z</time></trkpt><trkpt lat="44.51043989543754" lon="8.86117901757023"><ele>216.0</ele><time>2026-05-01T12:04:57.999Z</time></trkpt><trkpt lat="44.510385022977005" lon="8.861311730869755"><ele>214.0</ele><time>2026-05-01T12:04:58.999Z</time></trkpt><trkpt lat="44.51031303965017" lon="8.861434663609279"><ele>212.0</ele><time>2026-05-01T12:04:59.999Z</time></trkpt><trkpt lat="44.5102623804941" lon="8.861571206739493"><ele>212.0</ele><time>2026-05-01T12:05:00.999Z</time></trkpt><trkpt lat="44.51020902922616" lon="8.861705604363976"><ele>212.0</ele><time>2026-05-01T12:05:01.999Z</time></trkpt><trkpt lat="44.51014991330564" lon="8.861840552575321"><ele>212.0</ele><time>2026-05-01T12:05:02.999Z</time></trkpt><trkpt lat="44.510099400953074" lon="8.861983262688652"><ele>212.0</ele><time>2026-05-01T12:05:03.999Z</time></trkpt><trkpt lat="44.5100457024653" lon="8.862120764797801"><ele>212.0</ele><time>2026-05-01T12:05:04.999Z</time></trkpt><trkpt lat="44.50998663329741" lon="8.862257483444669"><ele>211.8</ele><time>2026-05-01T12:05:05.999Z</time></trkpt><trkpt lat="44.509941319065696" lon="8.862402689350937"><ele>211.6</ele><time>2026-05-01T12:05:06.999Z</time></trkpt><trkpt lat="44.50988920953647" lon="8.862537869847317"><ele>211.4</ele><time>2026-05-01T12:05:07.999Z</time></trkpt><trkpt lat="44.50984805805892" lon="8.86266665064736"><ele>211.20000000000002</ele><time>2026-05-01T12:05:08.999Z</time></trkpt><trkpt lat="44.50977553788263" lon="8.862764246134356"><ele>211.0</ele><time>2026-05-01T12:05:09.999Z</time></trkpt><trkpt lat="44.5097279366304" lon="8.86287391883383"><ele>211.33333333333331</ele><time>2026-05-01T12:05:10.999Z</time></trkpt><trkpt lat="44.50968473025978" lon="8.862945275181154"><ele>211.66666666666666</ele><time>2026-05-01T12:05:11.999Z</time></trkpt><trkpt lat="44.5096350912936" lon="8.86303477057006"><ele>212.0</ele><time>2026-05-01T12:05:13.999Z</time></trkpt><trkpt lat="44.50958251019843" lon="8.863143322430453"><ele>212.33333333333331</ele><time>2026-05-01T12:05:15.999Z</time></trkpt><trkpt lat="44.50952474820844" lon="8.863190686631457"><ele>212.66666666666666</ele><time>2026-05-01T12:05:16.999Z</time></trkpt><trkpt lat="44.50946790363419" lon="8.863285473342971"><ele>213.0</ele><time>2026-05-01T12:05:17.999Z</time></trkpt><trkpt lat="44.509404562329706" lon="8.86337618608467"><ele>210.16666666666666</ele><time>2026-05-01T12:05:18.999Z</time></trkpt><trkpt lat="44.50935841649536" lon="8.863472233622387"><ele>207.33333333333331</ele><time>2026-05-01T12:05:19.999Z</time></trkpt><trkpt lat="44.50930501383979" lon="8.863581411648507"><ele>204.5</ele><time>2026-05-01T12:05:20.999Z</time></trkpt><trkpt lat="44.50922602456373" lon="8.863655655865506"><ele>201.66666666666666</ele><time>2026-05-01T12:05:21.999Z</time></trkpt><trkpt lat="44.50914911499502" lon="8.863721070139986"><ele>198.83333333333331</ele><time>2026-05-01T12:05:22.999Z</time></trkpt><trkpt lat="44.509087750091545" lon="8.863789725572282"><ele>196.0</ele><time>2026-05-01T12:05:23.999Z</time></trkpt><trkpt lat="44.50899575257634" lon="8.863866094678606"><ele>196.0</ele><time>2026-05-01T12:05:25.999Z</time></trkpt><trkpt lat="44.508920342254854" lon="8.863907697467605"><ele>196.0</ele><time>2026-05-01T12:05:26.999Z</time></trkpt><trkpt lat="44.50886005922979" lon="8.864007617551442"><ele>196.0</ele><time>2026-05-01T12:05:27.999Z</time></trkpt><trkpt lat="44.508833460453836" lon="8.864157661568202"><ele>196.0</ele><time>2026-05-01T12:05:28.999Z</time></trkpt><trkpt lat="44.5088050645856" lon="8.864311931233166"><ele>196.0</ele><time>2026-05-01T12:05:29.999Z</time></trkpt><trkpt lat="44.50878260542907" lon="8.864443095055133"><ele>195.75</ele><time>2026-05-01T12:05:30.999Z</time></trkpt><trkpt lat="44.50878998388615" lon="8.864594360610948"><ele>195.5</ele><time>2026-05-01T12:05:31.999Z</time></trkpt><trkpt lat="44.508838415458705" lon="8.864772608430263"><ele>195.25</ele><time>2026-05-01T12:05:32.999Z</time></trkpt><trkpt lat="44.50887698690124" lon="8.864955008560695"><ele>195.0</ele><time>2026-05-01T12:05:33.999Z</time></trkpt><trkpt lat="44.50892401348975" lon="8.865113449080775"><ele>192.75</ele><time>2026-05-01T12:05:34.999Z</time></trkpt><trkpt lat="44.508970093249985" lon="8.865278420823971"><ele>190.5</ele><time>2026-05-01T12:05:35.999Z</time></trkpt><trkpt lat="44.50900013337279" lon="8.8654614906309"><ele>188.25</ele><time>2026-05-01T12:05:36.999Z</time></trkpt><trkpt lat="44.50902995819868" lon="8.865649525562045"><ele>186.0</ele><time>2026-05-01T12:05:37.999Z</time></trkpt><trkpt lat="44.50905777619688" lon="8.86585303879931"><ele>185.25</ele><time>2026-05-01T12:05:38.999Z</time></trkpt><trkpt lat="44.50907163116695" lon="8.866058245060964"><ele>184.5</ele><time>2026-05-01T12:05:39.999Z</time></trkpt><trkpt lat="44.50906808198313" lon="8.866257615071145"><ele>183.75</ele><time>2026-05-01T12:05:40.999Z</time></trkpt><trkpt lat="44.50906220042827" lon="8.866450843739086"><ele>183.0</ele><time>2026-05-01T12:05:41.999Z</time></trkpt><trkpt lat="44.50906075767599" lon="8.86664262691818"><ele>184.66666666666666</ele><time>2026-05-01T12:05:42.999Z</time></trkpt><trkpt lat="44.509097174752974" lon="8.866820161067443"><ele>186.33333333333331</ele><time>2026-05-01T12:05:43.999Z</time></trkpt><trkpt lat="44.50918892289985" lon="8.866986379468706"><ele>188.0</ele><time>2026-05-01T12:05:44.999Z</time></trkpt><trkpt lat="44.512893797040846" lon="8.876877159072007"><ele>182.60000000000002</ele><time>2026-05-01T12:06:45.999Z</time></trkpt><trkpt lat="44.51284641298265" lon="8.87700655842083"><ele>177.20000000000002</ele><time>2026-05-01T12:06:46.999Z</time></trkpt><trkpt lat="44.51280582029467" lon="8.877136344689502"><ele>171.8</ele><time>2026-05-01T12:06:47.999Z</time></trkpt><trkpt lat="44.51277436244628" lon="8.877261972635006"><ele>166.4</ele><time>2026-05-01T12:06:48.999Z</time></trkpt><trkpt lat="44.5127553748306" lon="8.87738544591084"><ele>161.0</ele><time>2026-05-01T12:06:49.999Z</time></trkpt><trkpt lat="44.51273082832565" lon="8.877503202888835"><ele>160.0</ele><time>2026-05-01T12:06:50.999Z</time></trkpt><trkpt lat="44.51269731701806" lon="8.877604878770237"><ele>159.0</ele><time>2026-05-01T12:06:51.999Z</time></trkpt><trkpt lat="44.51266242545796" lon="8.877705029929317"><ele>158.0</ele><time>2026-05-01T12:06:52.999Z</time></trkpt><trkpt lat="44.51262838736886" lon="8.877798109038668"><ele>157.0</ele><time>2026-05-01T12:06:53.999Z</time></trkpt><trkpt lat="44.51259998662501" lon="8.877894768321413"><ele>156.0</ele><time>2026-05-01T12:06:54.999Z</time></trkpt><trkpt lat="44.51256607116978" lon="8.87800104697152"><ele>155.0</ele><time>2026-05-01T12:06:55.999Z</time></trkpt><trkpt lat="44.51252583667874" lon="8.878115153474937"><ele>155.0</ele><time>2026-05-01T12:06:56.999Z</time></trkpt><trkpt lat="44.512482518423994" lon="8.878236316476137"><ele>155.0</ele><time>2026-05-01T12:06:57.999Z</time></trkpt><trkpt lat="44.51244238458221" lon="8.878358372485645"><ele>155.0</ele><time>2026-05-01T12:06:58.999Z</time></trkpt><trkpt lat="44.51239217442665" lon="8.878463139353883"><ele>155.0</ele><time>2026-05-01T12:06:59.999Z</time></trkpt><trkpt lat="44.51232277763906" lon="8.878538786421519"><ele>155.0</ele><time>2026-05-01T12:07:00.999Z</time></trkpt><trkpt lat="44.51222474251624" lon="8.878590552039654"><ele>155.0</ele><time>2026-05-01T12:07:01.999Z</time></trkpt><trkpt lat="44.51211213104758" lon="8.878637917019123"><ele>155.0</ele><time>2026-05-01T12:07:02.999Z</time></trkpt><trkpt lat="44.511973006667695" lon="8.878730186879098"><ele>155.0</ele><time>2026-05-01T12:07:03.999Z</time></trkpt><trkpt lat="44.511821087641145" lon="8.878876403525679"><ele>155.0</ele><time>2026-05-01T12:07:04.999Z</time></trkpt><trkpt lat="44.51168121459875" lon="8.879039211502533"><ele>155.0</ele><time>2026-05-01T12:07:05.999Z</time></trkpt><trkpt lat="44.511553808349156" lon="8.879187448515077"><ele>155.0</ele><time>2026-05-01T12:07:06.999Z</time></trkpt><trkpt lat="44.51141108626083" lon="8.879340747249575"><ele>155.5</ele><time>2026-05-01T12:07:07.999Z</time></trkpt><trkpt lat="44.51130618311132" lon="8.879551725493165"><ele>156.0</ele><time>2026-05-01T12:07:09.999Z</time></trkpt><trkpt lat="44.511213566737354" lon="8.879683981731931"><ele>156.5</ele><time>2026-05-01T12:07:10.999Z</time></trkpt><trkpt lat="44.511146249884526" lon="8.879821728904016"><ele>157.0</ele><time>2026-05-01T12:07:11.999Z</time></trkpt><trkpt lat="44.51112302577747" lon="8.880001669094382"><ele>155.0</ele><time>2026-05-01T12:07:12.999Z</time></trkpt><trkpt lat="44.511131433887755" lon="8.880219387783976"><ele>153.0</ele><time>2026-05-01T12:07:13.999Z</time></trkpt><trkpt lat="44.51111135325063" lon="8.880472606033475"><ele>151.0</ele><time>2026-05-01T12:07:14.999Z</time></trkpt><trkpt lat="44.51105887462008" lon="8.880730870320502"><ele>148.0</ele><time>2026-05-01T12:07:15.999Z</time></trkpt><trkpt lat="44.51101920246242" lon="8.880985251130506"><ele>145.0</ele><time>2026-05-01T12:07:16.999Z</time></trkpt><trkpt lat="44.51099393783563" lon="8.881227152878147"><ele>142.0</ele><time>2026-05-01T12:07:17.999Z</time></trkpt><trkpt lat="44.51097864630896" lon="8.881444912594953"><ele>142.0</ele><time>2026-05-01T12:07:18.999Z</time></trkpt><trkpt lat="44.51096145134569" lon="8.881643152897697"><ele>142.0</ele><time>2026-05-01T12:07:19.999Z</time></trkpt><trkpt lat="44.51093784974081" lon="8.881819522240699"><ele>142.0</ele><time>2026-05-01T12:07:20.999Z</time></trkpt><trkpt lat="44.51090923199119" lon="8.88199375934465"><ele>142.0</ele><time>2026-05-01T12:07:21.999Z</time></trkpt><trkpt lat="44.51087531785947" lon="8.88216542584964"><ele>140.5</ele><time>2026-05-01T12:07:22.999Z</time></trkpt><trkpt lat="44.510840289549364" lon="8.882335039280003"><ele>139.0</ele><time>2026-05-01T12:07:23.999Z</time></trkpt><trkpt lat="44.51078835717738" lon="8.882485331791777"><ele>137.5</ele><time>2026-05-01T12:07:24.999Z</time></trkpt><trkpt lat="44.510743768787336" lon="8.882634320416821"><ele>136.0</ele><time>2026-05-01T12:07:25.999Z</time></trkpt><trkpt lat="44.510718293196256" lon="8.882766206045758"><ele>135.66666666666669</ele><time>2026-05-01T12:07:26.999Z</time></trkpt><trkpt lat="44.510671900735346" lon="8.882879894892037"><ele>135.33333333333334</ele><time>2026-05-01T12:07:27.999Z</time></trkpt><trkpt lat="44.510619646876336" lon="8.882976155538957"><ele>135.0</ele><time>2026-05-01T12:07:28.999Z</time></trkpt><trkpt lat="44.510555366735844" lon="8.883046589927286"><ele>134.66666666666666</ele><time>2026-05-01T12:07:29.999Z</time></trkpt><trkpt lat="44.51048956205444" lon="8.883085472197283"><ele>134.33333333333331</ele><time>2026-05-01T12:07:30.999Z</time></trkpt><trkpt lat="44.510422839537995" lon="8.883143736586998"><ele>134.0</ele><time>2026-05-01T12:07:32.999Z</time></trkpt><trkpt lat="44.51034978812648" lon="8.88317047100771"><ele>134.0</ele><time>2026-05-01T12:07:40.999Z</time></trkpt><trkpt lat="44.510368945331614" lon="8.883421014600989"><ele>134.0</ele><time>2026-05-01T12:07:42.999Z</time></trkpt><trkpt lat="44.51041391188532" lon="8.88353398130232"><ele>134.0</ele><time>2026-05-01T12:07:43.999Z</time></trkpt><trkpt lat="44.510436184193146" lon="8.883655278048897"><ele>134.0</ele><time>2026-05-01T12:07:44.999Z</time></trkpt><trkpt lat="44.508279443455656" lon="8.887113127133485"><ele>134.0</ele><time>2026-05-01T12:08:45.999Z</time></trkpt><trkpt lat="44.50824765564431" lon="8.887256939052724"><ele>134.0</ele><time>2026-05-01T12:09:18.999Z</time></trkpt><trkpt lat="44.508216041141985" lon="8.887348987619633"><ele>134.0</ele><time>2026-05-01T12:09:19.999Z</time></trkpt><trkpt lat="44.508176054367894" lon="8.887452734819592"><ele>134.0</ele><time>2026-05-01T12:09:20.999Z</time></trkpt><trkpt lat="44.50810662517961" lon="8.887577061300643"><ele>134.0</ele><time>2026-05-01T12:09:21.999Z</time></trkpt><trkpt lat="44.508010237763976" lon="8.887696131668863"><ele>132.5</ele><time>2026-05-01T12:09:22.999Z</time></trkpt><trkpt lat="44.507884411928856" lon="8.887813843682126"><ele>131.0</ele><time>2026-05-01T12:09:23.999Z</time></trkpt><trkpt lat="44.50778034250357" lon="8.88796498160406"><ele>129.5</ele><time>2026-05-01T12:09:24.999Z</time></trkpt><trkpt lat="44.50767740814603" lon="8.888074321797369"><ele>128.0</ele><time>2026-05-01T12:09:25.999Z</time></trkpt><trkpt lat="44.507591589115506" lon="8.888180266342301"><ele>128.0</ele><time>2026-05-01T12:09:26.999Z</time></trkpt><trkpt lat="44.50751133197164" lon="8.888275825809627"><ele>128.0</ele><time>2026-05-01T12:09:27.999Z</time></trkpt><trkpt lat="44.50744169292416" lon="8.888372184816996"><ele>128.0</ele><time>2026-05-01T12:09:28.999Z</time></trkpt><trkpt lat="44.507384120938234" lon="8.888464421429692"><ele>128.0</ele><time>2026-05-01T12:09:29.999Z</time></trkpt><trkpt lat="44.5073308210197" lon="8.888557153422235"><ele>128.0</ele><time>2026-05-01T12:09:30.999Z</time></trkpt><trkpt lat="44.50728016603099" lon="8.88866108961288"><ele>128.8</ele><time>2026-05-01T12:09:31.999Z</time></trkpt><trkpt lat="44.50722920755457" lon="8.888759757507582"><ele>129.60000000000002</ele><time>2026-05-01T12:09:32.999Z</time></trkpt><trkpt lat="44.507186692991596" lon="8.888871809724536"><ele>130.39999999999998</ele><time>2026-05-01T12:09:33.999Z</time></trkpt><trkpt lat="44.5071576975235" lon="8.889004737123896"><ele>131.2</ele><time>2026-05-01T12:09:34.999Z</time></trkpt><trkpt lat="44.50713700323236" lon="8.8891687433607"><ele>132.0</ele><time>2026-05-01T12:09:35.999Z</time></trkpt><trkpt lat="44.507127256754615" lon="8.889322558425505"><ele>132.6</ele><time>2026-05-01T12:09:36.999Z</time></trkpt><trkpt lat="44.507125157495054" lon="8.88946399952372"><ele>133.2</ele><time>2026-05-01T12:09:37.999Z</time></trkpt><trkpt lat="44.50713193410128" lon="8.889591380077626"><ele>133.8</ele><time>2026-05-01T12:09:38.999Z</time></trkpt><trkpt lat="44.507138278469874" lon="8.889715500270727"><ele>134.4</ele><time>2026-05-01T12:09:39.999Z</time></trkpt><trkpt lat="44.50713869798201" lon="8.88983872194001"><ele>135.0</ele><time>2026-05-01T12:09:40.999Z</time></trkpt><trkpt lat="44.5071307509436" lon="8.889961185127984"><ele>135.0</ele><time>2026-05-01T12:09:41.999Z</time></trkpt><trkpt lat="44.50712300916181" lon="8.890071383163637"><ele>135.0</ele><time>2026-05-01T12:09:42.999Z</time></trkpt><trkpt lat="44.50710336454455" lon="8.890172778413628"><ele>135.0</ele><time>2026-05-01T12:09:43.999Z</time></trkpt><trkpt lat="44.50694654511578" lon="8.89096705691448"><ele>135.0</ele><time>2026-05-01T12:11:47.999Z</time></trkpt><trkpt lat="44.50712132282782" lon="8.890034085157193"><ele>135.0</ele><time>2026-05-01T12:13:45.999Z</time></trkpt></trkseg><trkseg><trkpt lat="44.507116809669" lon="8.89001610117722"><ele>135.16666666666666</ele><time>2026-05-01T13:18:12Z</time></trkpt><trkpt lat="44.50712405710752" lon="8.890146170827464"><ele>135.33333333333334</ele><time>2026-05-01T13:18:39Z</time></trkpt><trkpt lat="44.5070996486805" lon="8.89023960861553"><ele>135.5</ele><time>2026-05-01T13:18:40Z</time></trkpt><trkpt lat="44.50706968554338" lon="8.89034585585401"><ele>135.66666666666669</ele><time>2026-05-01T13:18:41Z</time></trkpt><trkpt lat="44.507034583247766" lon="8.890445761536597"><ele>135.83333333333334</ele><time>2026-05-01T13:18:42Z</time></trkpt><trkpt lat="44.50699754411691" lon="8.890554151169281"><ele>136.0</ele><time>2026-05-01T13:18:43Z</time></trkpt><trkpt lat="44.5069712872236" lon="8.890652380781455"><ele>134.66666666666669</ele><time>2026-05-01T13:18:44Z</time></trkpt><trkpt lat="44.50696196079477" lon="8.890760512052108"><ele>133.33333333333334</ele><time>2026-05-01T13:18:45Z</time></trkpt><trkpt lat="44.50694368804168" lon="8.890866008496758"><ele>132.0</ele><time>2026-05-01T13:18:46Z</time></trkpt><trkpt lat="44.50693445104015" lon="8.890970666133756"><ele>130.66666666666666</ele><time>2026-05-01T13:18:47.001Z</time></trkpt><trkpt lat="44.506924694647324" lon="8.891076318543147"><ele>129.33333333333331</ele><time>2026-05-01T13:18:48.001Z</time></trkpt><trkpt lat="44.50691458800241" lon="8.891181362380804"><ele>128.0</ele><time>2026-05-01T13:18:49.001Z</time></trkpt><trkpt lat="44.50689792544846" lon="8.891283187885143"><ele>128.0</ele><time>2026-05-01T13:18:50.001Z</time></trkpt><trkpt lat="44.50688386461403" lon="8.891386730149337"><ele>127.99999999999999</ele><time>2026-05-01T13:18:51.001Z</time></trkpt><trkpt lat="44.50687117057297" lon="8.891487483313526"><ele>128.0</ele><time>2026-05-01T13:18:52.001Z</time></trkpt><trkpt lat="44.50686867081963" lon="8.8915833518101"><ele>128.0</ele><time>2026-05-01T13:18:53.001Z</time></trkpt><trkpt lat="44.50686926217485" lon="8.891676894871226"><ele>127.99999999999999</ele><time>2026-05-01T13:18:54.001Z</time></trkpt><trkpt lat="44.506855318885734" lon="8.891765452548597"><ele>128.0</ele><time>2026-05-01T13:18:55.001Z</time></trkpt><trkpt lat="44.506841233387995" lon="8.891861991145854"><ele>128.0</ele><time>2026-05-01T13:18:56.001Z</time></trkpt><trkpt lat="44.506829391328" lon="8.891971360955369"><ele>127.66666666666666</ele><time>2026-05-01T13:18:57.001Z</time></trkpt><trkpt lat="44.50679243212551" lon="8.892077240725795"><ele>127.33333333333333</ele><time>2026-05-01T13:18:58.001Z</time></trkpt><trkpt lat="44.50671884138326" lon="8.892149320257957"><ele>127.0</ele><time>2026-05-01T13:18:59.001Z</time></trkpt><trkpt lat="44.506669593971665" lon="8.89224135508315"><ele>126.66666666666666</ele><time>2026-05-01T13:19:00.001Z</time></trkpt><trkpt lat="44.506626033004636" lon="8.892338114738076"><ele>126.33333333333333</ele><time>2026-05-01T13:19:01.001Z</time></trkpt><trkpt lat="44.50660067800887" lon="8.892444945874214"><ele>126.0</ele><time>2026-05-01T13:19:02.001Z</time></trkpt><trkpt lat="44.50655959334825" lon="8.892545485704199"><ele>125.83333333333333</ele><time>2026-05-01T13:19:03.001Z</time></trkpt><trkpt lat="44.506526034092545" lon="8.892652956007971"><ele>125.66666666666666</ele><time>2026-05-01T13:19:04.001Z</time></trkpt><trkpt lat="44.50649500316799" lon="8.892769493977669"><ele>125.5</ele><time>2026-05-01T13:19:05.001Z</time></trkpt><trkpt lat="44.50647896543201" lon="8.892877915657117"><ele>125.33333333333333</ele><time>2026-05-01T13:19:06.001Z</time></trkpt><trkpt lat="44.50646367003123" lon="8.892982117552792"><ele>125.16666666666666</ele><time>2026-05-01T13:19:07.001Z</time></trkpt><trkpt lat="44.50644848227162" lon="8.893074914497053"><ele>125.0</ele><time>2026-05-01T13:19:08.001Z</time></trkpt><trkpt lat="44.506445387050825" lon="8.893165258470226"><ele>124.99999999999999</ele><time>2026-05-01T13:19:09.001Z</time></trkpt><trkpt lat="44.506446745702796" lon="8.893255585127461"><ele>125.0</ele><time>2026-05-01T13:19:10.001Z</time></trkpt><trkpt lat="44.50646241944617" lon="8.893342712726318"><ele>125.0</ele><time>2026-05-01T13:19:11.001Z</time></trkpt><trkpt lat="44.506477412098185" lon="8.89343348828423"><ele>125.0</ele><time>2026-05-01T13:19:12.001Z</time></trkpt><trkpt lat="44.50650479054126" lon="8.893595004193582"><ele>124.99999999999999</ele><time>2026-05-01T13:19:14.001Z</time></trkpt><trkpt lat="44.50649540764074" lon="8.893688947443689"><ele>125.0</ele><time>2026-05-01T13:19:15.001Z</time></trkpt><trkpt lat="44.50649194000865" lon="8.893789009322912"><ele>124.6</ele><time>2026-05-01T13:19:16.001Z</time></trkpt><trkpt lat="44.506483046454846" lon="8.893890723165653"><ele>124.2</ele><time>2026-05-01T13:19:17.001Z</time></trkpt><trkpt lat="44.5064710743021" lon="8.894004464667113"><ele>123.80000000000001</ele><time>2026-05-01T13:19:18.001Z</time></trkpt><trkpt lat="44.50645693153209" lon="8.894132331231187"><ele>123.4</ele><time>2026-05-01T13:19:19.001Z</time></trkpt><trkpt lat="44.50644047757756" lon="8.894278367939204"><ele>123.0</ele><time>2026-05-01T13:19:20.001Z</time></trkpt><trkpt lat="44.50642618714357" lon="8.894442473506786"><ele>121.80000000000001</ele><time>2026-05-01T13:19:21.001Z</time></trkpt><trkpt lat="44.50641001197526" lon="8.894602303948965"><ele>120.60000000000001</ele><time>2026-05-01T13:19:22.001Z</time></trkpt><trkpt lat="44.50639452019363" lon="8.894762201065937"><ele>119.39999999999999</ele><time>2026-05-01T13:19:23.001Z</time></trkpt><trkpt lat="44.506378656897745" lon="8.89491352382576"><ele>118.19999999999999</ele><time>2026-05-01T13:19:24.001Z</time></trkpt><trkpt lat="44.506363505051766" lon="8.895058059862542"><ele>117.0</ele><time>2026-05-01T13:19:25.001Z</time></trkpt><trkpt lat="44.50634833969302" lon="8.89520272476023"><ele>117.0</ele><time>2026-05-01T13:19:26.001Z</time></trkpt><trkpt lat="44.50634534642377" lon="8.895347930165002"><ele>116.99999999999999</ele><time>2026-05-01T13:19:27.001Z</time></trkpt><trkpt lat="44.50632680298749" lon="8.895496209973738"><ele>116.99999999999999</ele><time>2026-05-01T13:19:28.001Z</time></trkpt><trkpt lat="44.50631344047392" lon="8.895649794562143"><ele>117.0</ele><time>2026-05-01T13:19:29.001Z</time></trkpt><trkpt lat="44.50629403279368" lon="8.895787686811408"><ele>117.0</ele><time>2026-05-01T13:19:30.001Z</time></trkpt><trkpt lat="44.50625720859854" lon="8.895926991197202"><ele>117.0</ele><time>2026-05-01T13:19:31.001Z</time></trkpt><trkpt lat="44.50620087880222" lon="8.896062028701579"><ele>117.0</ele><time>2026-05-01T13:19:32.001Z</time></trkpt><trkpt lat="44.50613034297997" lon="8.896184793493871"><ele>117.0</ele><time>2026-05-01T13:19:33.001Z</time></trkpt><trkpt lat="44.506051105303214" lon="8.896296517205624"><ele>117.0</ele><time>2026-05-01T13:19:34.001Z</time></trkpt><trkpt lat="44.50596599426063" lon="8.896408779814806"><ele>117.0</ele><time>2026-05-01T13:19:35.001Z</time></trkpt><trkpt lat="44.505882595517384" lon="8.896512005263265"><ele>116.99999999999999</ele><time>2026-05-01T13:19:36.001Z</time></trkpt><trkpt lat="44.50579272201476" lon="8.89659346660448"><ele>116.99999999999999</ele><time>2026-05-01T13:19:37.001Z</time></trkpt><trkpt lat="44.50570865203205" lon="8.896697046872907"><ele>117.0</ele><time>2026-05-01T13:19:38.001Z</time></trkpt><trkpt lat="44.505624890641336" lon="8.89679985436722"><ele>117.0</ele><time>2026-05-01T13:19:39.001Z</time></trkpt><trkpt lat="44.505539914735614" lon="8.896903977635247"><ele>118.0</ele><time>2026-05-01T13:19:40.001Z</time></trkpt><trkpt lat="44.50546427675384" lon="8.897017981743602"><ele>119.0</ele><time>2026-05-01T13:19:41.001Z</time></trkpt><trkpt lat="44.50537592098327" lon="8.897110206670222"><ele>120.0</ele><time>2026-05-01T13:19:42.001Z</time></trkpt><trkpt lat="44.505279651771644" lon="8.897200593820987"><ele>121.0</ele><time>2026-05-01T13:19:43.001Z</time></trkpt><trkpt lat="44.50517902709411" lon="8.897285456499775"><ele>121.0</ele><time>2026-05-01T13:19:44.001Z</time></trkpt><trkpt lat="44.50507049011831" lon="8.897357411241064"><ele>121.0</ele><time>2026-05-01T13:19:45.001Z</time></trkpt><trkpt lat="44.50495721199206" lon="8.897430559512882"><ele>121.0</ele><time>2026-05-01T13:19:46.001Z</time></trkpt><trkpt lat="44.50484635210996" lon="8.897510552367468"><ele>121.0</ele><time>2026-05-01T13:19:47.001Z</time></trkpt><trkpt lat="44.50473356514157" lon="8.897591394889595"><ele>121.25</ele><time>2026-05-01T13:19:48.001Z</time></trkpt><trkpt lat="44.5046211566645" lon="8.897667158108435"><ele>121.5</ele><time>2026-05-01T13:19:49.001Z</time></trkpt><trkpt lat="44.50451024589803" lon="8.897738193203388"><ele>121.75</ele><time>2026-05-01T13:19:50.001Z</time></trkpt><trkpt lat="44.50440407101964" lon="8.897812694369977"><ele>122.0</ele><time>2026-05-01T13:19:51.001Z</time></trkpt><trkpt lat="44.50429571774525" lon="8.897881539171212"><ele>122.0</ele><time>2026-05-01T13:19:52.001Z</time></trkpt><trkpt lat="44.504183673009905" lon="8.897950424833567"><ele>122.0</ele><time>2026-05-01T13:19:53.001Z</time></trkpt><trkpt lat="44.50407636715999" lon="8.89802980923765"><ele>122.0</ele><time>2026-05-01T13:19:54.001Z</time></trkpt><trkpt lat="44.503966496264006" lon="8.898095110165805"><ele>122.0</ele><time>2026-05-01T13:19:55.001Z</time></trkpt><trkpt lat="44.503854101008926" lon="8.898157169552864"><ele>122.0</ele><time>2026-05-01T13:19:56.001Z</time></trkpt><trkpt lat="44.50374862952475" lon="8.898219261509041"><ele>121.99999999999999</ele><time>2026-05-01T13:19:57.001Z</time></trkpt><trkpt lat="44.50365335278541" lon="8.898282293898122"><ele>121.99999999999999</ele><time>2026-05-01T13:19:58.001Z</time></trkpt><trkpt lat="44.503560118608846" lon="8.898349291950808"><ele>122.0</ele><time>2026-05-01T13:19:59.001Z</time></trkpt><trkpt lat="44.50347042195025" lon="8.898440433162737"><ele>122.0</ele><time>2026-05-01T13:20:00.001Z</time></trkpt><trkpt lat="44.50338481635137" lon="8.89857230055713"><ele>121.0</ele><time>2026-05-01T13:20:01.001Z</time></trkpt><trkpt lat="44.50331057365333" lon="8.898727567482187"><ele>120.0</ele><time>2026-05-01T13:20:02.001Z</time></trkpt><trkpt lat="44.50324268453705" lon="8.898886205072127"><ele>119.0</ele><time>2026-05-01T13:20:03.001Z</time></trkpt><trkpt lat="44.503160585575955" lon="8.899027051975436"><ele>118.0</ele><time>2026-05-01T13:20:04Z</time></trkpt><trkpt lat="44.503080757189096" lon="8.899165101442406"><ele>116.75</ele><time>2026-05-01T13:20:05Z</time></trkpt><trkpt lat="44.50300692917749" lon="8.899293913874695"><ele>115.5</ele><time>2026-05-01T13:20:06Z</time></trkpt><trkpt lat="44.502931244821404" lon="8.899417923515868"><ele>114.25</ele><time>2026-05-01T13:20:07Z</time></trkpt><trkpt lat="44.502848964017154" lon="8.899526470300446"><ele>113.0</ele><time>2026-05-01T13:20:08Z</time></trkpt><trkpt lat="44.50274963027389" lon="8.899618446111509"><ele>113.0</ele><time>2026-05-01T13:20:09Z</time></trkpt><trkpt lat="44.502637008828266" lon="8.899692511152189"><ele>113.0</ele><time>2026-05-01T13:20:10Z</time></trkpt><trkpt lat="44.502520610050915" lon="8.899759434776294"><ele>113.0</ele><time>2026-05-01T13:20:11Z</time></trkpt><trkpt lat="44.50240742953647" lon="8.899827983373662"><ele>113.0</ele><time>2026-05-01T13:20:12Z</time></trkpt><trkpt lat="44.50229743178555" lon="8.89991273992577"><ele>113.0</ele><time>2026-05-01T13:20:13Z</time></trkpt><trkpt lat="44.50219537022655" lon="8.900015934915842"><ele>113.0</ele><time>2026-05-01T13:20:14Z</time></trkpt><trkpt lat="44.50209673262688" lon="8.900133059911207"><ele>113.0</ele><time>2026-05-01T13:20:15Z</time></trkpt><trkpt lat="44.50199018734786" lon="8.900238876702605"><ele>113.0</ele><time>2026-05-01T13:20:16Z</time></trkpt><trkpt lat="44.50188900981308" lon="8.900361871622628"><ele>114.75</ele><time>2026-05-01T13:20:17Z</time></trkpt><trkpt lat="44.501787394152835" lon="8.900474235007241"><ele>116.5</ele><time>2026-05-01T13:20:18Z</time></trkpt><trkpt lat="44.501684120173564" lon="8.900582450063554"><ele>118.25</ele><time>2026-05-01T13:20:19Z</time></trkpt><trkpt lat="44.501581135031" lon="8.90068114789907"><ele>120.0</ele><time>2026-05-01T13:20:20Z</time></trkpt><trkpt lat="44.50148410446973" lon="8.90078382279323"><ele>120.0</ele><time>2026-05-01T13:20:21Z</time></trkpt><trkpt lat="44.5013891827701" lon="8.900893513996191"><ele>120.0</ele><time>2026-05-01T13:20:22Z</time></trkpt><trkpt lat="44.5012832965588" lon="8.900974284631857"><ele>120.0</ele><time>2026-05-01T13:20:23Z</time></trkpt><trkpt lat="44.501170793098545" lon="8.901033607888081"><ele>120.0</ele><time>2026-05-01T13:20:24Z</time></trkpt><trkpt lat="44.50105499699571" lon="8.901095042446281"><ele>120.0</ele><time>2026-05-01T13:20:25Z</time></trkpt><trkpt lat="44.50093936048499" lon="8.901156749757703"><ele>120.0</ele><time>2026-05-01T13:20:26Z</time></trkpt><trkpt lat="44.50082433373189" lon="8.901216984997827"><ele>120.0</ele><time>2026-05-01T13:20:27Z</time></trkpt><trkpt lat="44.50071734588969" lon="8.901282609604653"><ele>120.0</ele><time>2026-05-01T13:20:28Z</time></trkpt><trkpt lat="44.500616773721944" lon="8.901343078951113"><ele>120.0</ele><time>2026-05-01T13:20:29Z</time></trkpt><trkpt lat="44.500525693327965" lon="8.901401115248953"><ele>120.0</ele><time>2026-05-01T13:20:30Z</time></trkpt><trkpt lat="44.50044254962638" lon="8.901463582745215"><ele>120.0</ele><time>2026-05-01T13:20:31Z</time></trkpt><trkpt lat="44.50036865795467" lon="8.901540578453181"><ele>120.0</ele><time>2026-05-01T13:20:32Z</time></trkpt><trkpt lat="44.50031325748815" lon="8.901635235393565"><ele>120.0</ele><time>2026-05-01T13:20:33Z</time></trkpt><trkpt lat="44.50026384233155" lon="8.901753431658795"><ele>117.2</ele><time>2026-05-01T13:20:34Z</time></trkpt><trkpt lat="44.500223866837295" lon="8.901876344822595"><ele>114.4</ele><time>2026-05-01T13:20:35.001Z</time></trkpt><trkpt lat="44.50019431036786" lon="8.901993421437341"><ele>111.6</ele><time>2026-05-01T13:20:36.001Z</time></trkpt><trkpt lat="44.50018687230701" lon="8.902119060565704"><ele>108.8</ele><time>2026-05-01T13:20:37.001Z</time></trkpt><trkpt lat="44.50021257985718" lon="8.90225493449264"><ele>106.0</ele><time>2026-05-01T13:20:38.001Z</time></trkpt><trkpt lat="44.500277498544826" lon="8.90238931074532"><ele>106.0</ele><time>2026-05-01T13:20:39.001Z</time></trkpt><trkpt lat="44.500372580233346" lon="8.902506979045057"><ele>106.0</ele><time>2026-05-01T13:20:40.001Z</time></trkpt><trkpt lat="44.50046800520086" lon="8.902603777743956"><ele>106.0</ele><time>2026-05-01T13:20:41.001Z</time></trkpt><trkpt lat="44.50056024170659" lon="8.902706871709528"><ele>106.0</ele><time>2026-05-01T13:20:42.001Z</time></trkpt><trkpt lat="44.50064738402181" lon="8.902810898412547"><ele>106.8</ele><time>2026-05-01T13:20:43.001Z</time></trkpt><trkpt lat="44.50072866828434" lon="8.902921421110026"><ele>107.6</ele><time>2026-05-01T13:20:44.001Z</time></trkpt><trkpt lat="44.50079219588577" lon="8.903051635616253"><ele>108.4</ele><time>2026-05-01T13:20:45.001Z</time></trkpt><trkpt lat="44.50081995816532" lon="8.903202809564215"><ele>109.2</ele><time>2026-05-01T13:20:46.001Z</time></trkpt><trkpt lat="44.50087504108602" lon="8.903331475687974"><ele>110.0</ele><time>2026-05-01T13:20:47.001Z</time></trkpt><trkpt lat="44.500915725323345" lon="8.903467747764294"><ele>108.4</ele><time>2026-05-01T13:20:48.001Z</time></trkpt><trkpt lat="44.50095632527382" lon="8.903599105389945"><ele>106.8</ele><time>2026-05-01T13:20:49.001Z</time></trkpt><trkpt lat="44.50099565923816" lon="8.903729327614595"><ele>105.19999999999999</ele><time>2026-05-01T13:20:50.001Z</time></trkpt><trkpt lat="44.50102913103149" lon="8.903835372794894"><ele>103.6</ele><time>2026-05-01T13:20:51.001Z</time></trkpt><trkpt lat="44.50105544891848" lon="8.903923253746965"><ele>102.0</ele><time>2026-05-01T13:20:52.001Z</time></trkpt><trkpt lat="44.501106399053654" lon="8.904057556828196"><ele>102.0</ele><time>2026-05-01T13:20:54.001Z</time></trkpt><trkpt lat="44.5011686966443" lon="8.904188004885837"><ele>102.0</ele><time>2026-05-01T13:20:56.001Z</time></trkpt><trkpt lat="44.501220751745" lon="8.904295955639439"><ele>102.0</ele><time>2026-05-01T13:20:58.001Z</time></trkpt><trkpt lat="44.501256875970924" lon="8.904370391993064"><ele>102.0</ele><time>2026-05-01T13:21:00.001Z</time></trkpt><trkpt lat="44.501283609180845" lon="8.904451491064169"><ele>102.0</ele><time>2026-05-01T13:22:05.002Z</time></trkpt><trkpt lat="44.5013094460797" lon="8.904574109714702"><ele>102.0</ele><time>2026-05-01T13:22:07.002Z</time></trkpt><trkpt lat="44.50126141109987" lon="8.90467956312422"><ele>102.0</ele><time>2026-05-01T13:22:09.002Z</time></trkpt><trkpt lat="44.50117535372366" lon="8.90469002017426"><ele>102.0</ele><time>2026-05-01T13:22:11Z</time></trkpt><trkpt lat="44.50112517125489" lon="8.904585627964078"><ele>102.0</ele><time>2026-05-01T13:22:12Z</time></trkpt><trkpt lat="44.50110150750834" lon="8.90448385815415"><ele>102.0</ele><time>2026-05-01T13:22:13Z</time></trkpt><trkpt lat="44.5010663265986" lon="8.904384248562145"><ele>102.0</ele><time>2026-05-01T13:22:14Z</time></trkpt><trkpt lat="44.50101792255416" lon="8.904270674224648"><ele>102.0</ele><time>2026-05-01T13:22:15Z</time></trkpt><trkpt lat="44.50096909171536" lon="8.904150948444752"><ele>102.0</ele><time>2026-05-01T13:22:16Z</time></trkpt><trkpt lat="44.50092405439226" lon="8.904049970484307"><ele>102.0</ele><time>2026-05-01T13:22:17Z</time></trkpt><trkpt lat="44.50087924954019" lon="8.903956846811102"><ele>102.0</ele><time>2026-05-01T13:22:18Z</time></trkpt><trkpt lat="44.500837540903504" lon="8.903863492657168"><ele>102.0</ele><time>2026-05-01T13:22:19Z</time></trkpt><trkpt lat="44.50079519956407" lon="8.903777919779337"><ele>102.0</ele><time>2026-05-01T13:22:20Z</time></trkpt><trkpt lat="44.500756987442394" lon="8.903700022517127"><ele>102.0</ele><time>2026-05-01T13:22:21Z</time></trkpt><trkpt lat="44.500713879603886" lon="8.903629109111067"><ele>102.0</ele><time>2026-05-01T13:22:22Z</time></trkpt><trkpt lat="44.50066481636362" lon="8.903563006784943"><ele>102.0</ele><time>2026-05-01T13:22:23Z</time></trkpt><trkpt lat="44.50060231791446" lon="8.903495888360952"><ele>102.0</ele><time>2026-05-01T13:22:24Z</time></trkpt><trkpt lat="44.50053023771203" lon="8.903445611643537"><ele>102.0</ele><time>2026-05-01T13:22:25Z</time></trkpt><trkpt lat="44.500462524054605" lon="8.90339488920802"><ele>102.0</ele><time>2026-05-01T13:22:26Z</time></trkpt><trkpt lat="44.500395653203796" lon="8.903355589281471"><ele>102.0</ele><time>2026-05-01T13:22:27Z</time></trkpt><trkpt lat="44.50032378202603" lon="8.903319684879655"><ele>101.5</ele><time>2026-05-01T13:22:28Z</time></trkpt><trkpt lat="44.50024851370905" lon="8.903282476257948"><ele>101.0</ele><time>2026-05-01T13:22:29Z</time></trkpt><trkpt lat="44.500167583477285" lon="8.903252431220082"><ele>100.5</ele><time>2026-05-01T13:22:30Z</time></trkpt><trkpt lat="44.5000851641388" lon="8.903217592796047"><ele>100.0</ele><time>2026-05-01T13:22:31Z</time></trkpt><trkpt lat="44.50000213544939" lon="8.903189146845442"><ele>99.5</ele><time>2026-05-01T13:22:32Z</time></trkpt><trkpt lat="44.49992171491973" lon="8.903170854147723"><ele>99.0</ele><time>2026-05-01T13:22:33Z</time></trkpt><trkpt lat="44.499846834346656" lon="8.903156812530698"><ele>99.0</ele><time>2026-05-01T13:22:34Z</time></trkpt><trkpt lat="44.49977190655157" lon="8.903157713831675"><ele>99.0</ele><time>2026-05-01T13:22:35Z</time></trkpt><trkpt lat="44.49969215985349" lon="8.903164065771378"><ele>99.0</ele><time>2026-05-01T13:22:36Z</time></trkpt><trkpt lat="44.499616635022356" lon="8.903176133730302"><ele>99.0</ele><time>2026-05-01T13:22:37Z</time></trkpt><trkpt lat="44.49954923696197" lon="8.903198797088242"><ele>99.0</ele><time>2026-05-01T13:22:38Z</time></trkpt><trkpt lat="44.49945997276481" lon="8.903259624458798"><ele>99.0</ele><time>2026-05-01T13:22:40Z</time></trkpt><trkpt lat="44.49949776874141" lon="8.903437456229929"><ele>98.4</ele><time>2026-05-01T13:22:43.001Z</time></trkpt><trkpt lat="44.49956952964071" lon="8.90348308656402"><ele>97.80000000000001</ele><time>2026-05-01T13:22:44.001Z</time></trkpt><trkpt lat="44.49964129082871" lon="8.90353221459561"><ele>97.19999999999999</ele><time>2026-05-01T13:22:45.001Z</time></trkpt><trkpt lat="44.49972127678765" lon="8.90359875638128"><ele>96.6</ele><time>2026-05-01T13:22:46.001Z</time></trkpt><trkpt lat="44.49980683942677" lon="8.903677606597398"><ele>96.0</ele><time>2026-05-01T13:22:47.001Z</time></trkpt><trkpt lat="44.49989416624714" lon="8.903759458777284"><ele>96.0</ele><time>2026-05-01T13:22:48.001Z</time></trkpt><trkpt lat="44.49998570652663" lon="8.903848152684828"><ele>96.0</ele><time>2026-05-01T13:22:49.001Z</time></trkpt><trkpt lat="44.50008104196172" lon="8.903926195154364"><ele>96.0</ele><time>2026-05-01T13:22:50.001Z</time></trkpt><trkpt lat="44.500182651570654" lon="8.904000852215363"><ele>96.0</ele><time>2026-05-01T13:22:51.001Z</time></trkpt><trkpt lat="44.50029398680845" lon="8.904085744792535"><ele>96.0</ele><time>2026-05-01T13:22:52Z</time></trkpt><trkpt lat="44.50039961130212" lon="8.904170884847492"><ele>96.0</ele><time>2026-05-01T13:22:53Z</time></trkpt><trkpt lat="44.50050403229683" lon="8.904268999907874"><ele>96.0</ele><time>2026-05-01T13:22:54Z</time></trkpt><trkpt lat="44.500594536525675" lon="8.904365549181092"><ele>96.0</ele><time>2026-05-01T13:22:55Z</time></trkpt><trkpt lat="44.500688030854384" lon="8.904455720902265"><ele>96.8</ele><time>2026-05-01T13:22:56Z</time></trkpt><trkpt lat="44.500770052316085" lon="8.90455129094276"><ele>97.6</ele><time>2026-05-01T13:22:57Z</time></trkpt><trkpt lat="44.50085272969467" lon="8.904638781670654"><ele>98.4</ele><time>2026-05-01T13:22:58Z</time></trkpt><trkpt lat="44.50092869010548" lon="8.90472436898301"><ele>99.2</ele><time>2026-05-01T13:22:59Z</time></trkpt><trkpt lat="44.50099902619976" lon="8.904795919813731"><ele>100.0</ele><time>2026-05-01T13:23:00Z</time></trkpt><trkpt lat="44.501062441048134" lon="8.904863327422035"><ele>100.00000000000001</ele><time>2026-05-01T13:23:01Z</time></trkpt><trkpt lat="44.501118385650166" lon="8.904915774531812"><ele>100.0</ele><time>2026-05-01T13:23:02Z</time></trkpt><trkpt lat="44.5011743766336" lon="8.904976311653561"><ele>100.0</ele><time>2026-05-01T13:23:03Z</time></trkpt><trkpt lat="44.50123767893112" lon="8.905037572187737"><ele>100.0</ele><time>2026-05-01T13:23:04Z</time></trkpt><trkpt lat="44.50130859530048" lon="8.905121688843739"><ele>100.00000000000001</ele><time>2026-05-01T13:23:05Z</time></trkpt><trkpt lat="44.501377799595616" lon="8.905225862097561"><ele>100.0</ele><time>2026-05-01T13:23:06Z</time></trkpt><trkpt lat="44.50144030774631" lon="8.905342364352647"><ele>99.75</ele><time>2026-05-01T13:23:07Z</time></trkpt><trkpt lat="44.50152311263804" lon="8.905466793247978"><ele>99.5</ele><time>2026-05-01T13:23:08Z</time></trkpt><trkpt lat="44.50161221705122" lon="8.905571729098094"><ele>99.25</ele><time>2026-05-01T13:23:09Z</time></trkpt><trkpt lat="44.501726572405424" lon="8.90566229967158"><ele>99.0</ele><time>2026-05-01T13:23:10Z</time></trkpt><trkpt lat="44.501861812594726" lon="8.90575345298279"><ele>99.0</ele><time>2026-05-01T13:23:11Z</time></trkpt><trkpt lat="44.5019984284433" lon="8.905858362551763"><ele>99.0</ele><time>2026-05-01T13:23:12Z</time></trkpt><trkpt lat="44.50212376398469" lon="8.905947207297698"><ele>99.0</ele><time>2026-05-01T13:23:13Z</time></trkpt><trkpt lat="44.50223609293601" lon="8.90603295213564"><ele>99.0</ele><time>2026-05-01T13:23:14Z</time></trkpt><trkpt lat="44.50234320890866" lon="8.90611611808432"><ele>99.5</ele><time>2026-05-01T13:23:15Z</time></trkpt><trkpt lat="44.50244671186409" lon="8.906172445175047"><ele>100.0</ele><time>2026-05-01T13:23:16Z</time></trkpt><trkpt lat="44.50254897992423" lon="8.906174624857858"><ele>100.5</ele><time>2026-05-01T13:23:17Z</time></trkpt><trkpt lat="44.502653679045665" lon="8.906103898522911"><ele>101.0</ele><time>2026-05-01T13:23:18Z</time></trkpt><trkpt lat="44.50277089225298" lon="8.906024697144783"><ele>101.0</ele><time>2026-05-01T13:23:19Z</time></trkpt><trkpt lat="44.50289358429413" lon="8.90597625450441"><ele>101.0</ele><time>2026-05-01T13:23:20Z</time></trkpt><trkpt lat="44.50302019030944" lon="8.905994993805244"><ele>101.0</ele><time>2026-05-01T13:23:21Z</time></trkpt><trkpt lat="44.50315282719366" lon="8.905991015277124"><ele>101.0</ele><time>2026-05-01T13:23:22Z</time></trkpt><trkpt lat="44.50328345521998" lon="8.906034007975407"><ele>101.25</ele><time>2026-05-01T13:23:23Z</time></trkpt><trkpt lat="44.503413469093516" lon="8.90611054260292"><ele>101.5</ele><time>2026-05-01T13:23:24Z</time></trkpt><trkpt lat="44.50353366495908" lon="8.906220033904376"><ele>101.75</ele><time>2026-05-01T13:23:25Z</time></trkpt><trkpt lat="44.50364919882007" lon="8.906365057929824"><ele>102.0</ele><time>2026-05-01T13:23:26Z</time></trkpt><trkpt lat="44.50375879186951" lon="8.906527868719134"><ele>102.33333333333334</ele><time>2026-05-01T13:23:27Z</time></trkpt><trkpt lat="44.50385854196073" lon="8.906696019950868"><ele>102.66666666666667</ele><time>2026-05-01T13:23:28Z</time></trkpt><trkpt lat="44.503956681032705" lon="8.9068571794692"><ele>103.0</ele><time>2026-05-01T13:23:29Z</time></trkpt><trkpt lat="44.504061421853834" lon="8.907008930797966"><ele>103.0</ele><time>2026-05-01T13:23:30Z</time></trkpt><trkpt lat="44.50417399514772" lon="8.907159804518512"><ele>103.0</ele><time>2026-05-01T13:23:31Z</time></trkpt><trkpt lat="44.5043038553648" lon="8.907301483534072"><ele>103.0</ele><time>2026-05-01T13:23:32Z</time></trkpt><trkpt lat="44.50445338211968" lon="8.907419606852635"><ele>104.33333333333334</ele><time>2026-05-01T13:23:33Z</time></trkpt><trkpt lat="44.50460118182445" lon="8.907553972033705"><ele>105.66666666666666</ele><time>2026-05-01T13:23:34Z</time></trkpt><trkpt lat="44.50474535978931" lon="8.907682155640623"><ele>107.0</ele><time>2026-05-01T13:23:35Z</time></trkpt><trkpt lat="44.50489716200799" lon="8.907816519954245"><ele>107.0</ele><time>2026-05-01T13:23:36Z</time></trkpt><trkpt lat="44.5050429188572" lon="8.90794898823381"><ele>107.0</ele><time>2026-05-01T13:23:37Z</time></trkpt><trkpt lat="44.505189636328005" lon="8.908076422652178"><ele>107.0</ele><time>2026-05-01T13:23:38Z</time></trkpt><trkpt lat="44.505334244715876" lon="8.908198791594028"><ele>107.33333333333333</ele><time>2026-05-01T13:23:39Z</time></trkpt><trkpt lat="44.50547233749821" lon="8.908321269099257"><ele>107.66666666666666</ele><time>2026-05-01T13:23:40Z</time></trkpt><trkpt lat="44.50560311658501" lon="8.908439825093483"><ele>108.0</ele><time>2026-05-01T13:23:41Z</time></trkpt><trkpt lat="44.50572669645583" lon="8.908554045002413"><ele>108.0</ele><time>2026-05-01T13:23:42Z</time></trkpt><trkpt lat="44.505847843868004" lon="8.908664221044427"><ele>108.0</ele><time>2026-05-01T13:23:43Z</time></trkpt><trkpt lat="44.50596449022972" lon="8.908769911407186"><ele>108.0</ele><time>2026-05-01T13:23:44Z</time></trkpt><trkpt lat="44.50607741874986" lon="8.908860894813248"><ele>108.0</ele><time>2026-05-01T13:23:45.001Z</time></trkpt><trkpt lat="44.506202882191936" lon="8.908935374871927"><ele>109.25</ele><time>2026-05-01T13:23:46.001Z</time></trkpt><trkpt lat="44.506342586766344" lon="8.908986578824171"><ele>110.5</ele><time>2026-05-01T13:23:47.001Z</time></trkpt><trkpt lat="44.50648759305739" lon="8.909023840804549"><ele>111.75</ele><time>2026-05-01T13:23:48.001Z</time></trkpt><trkpt lat="44.506631858195206" lon="8.909064694355278"><ele>113.0</ele><time>2026-05-01T13:23:49.001Z</time></trkpt><trkpt lat="44.50677450834171" lon="8.909125256489554"><ele>113.0</ele><time>2026-05-01T13:23:50.001Z</time></trkpt><trkpt lat="44.50691196212975" lon="8.9092017904289"><ele>113.0</ele><time>2026-05-01T13:23:51.001Z</time></trkpt><trkpt lat="44.50703793832349" lon="8.909288618459101"><ele>113.0</ele><time>2026-05-01T13:23:52.001Z</time></trkpt><trkpt lat="44.507168664061275" lon="8.909377424435075"><ele>113.0</ele><time>2026-05-01T13:23:53.001Z</time></trkpt><trkpt lat="44.507291526987345" lon="8.909485966037485"><ele>112.5</ele><time>2026-05-01T13:23:54.001Z</time></trkpt><trkpt lat="44.5074097198758" lon="8.909601894820234"><ele>112.0</ele><time>2026-05-01T13:23:55.001Z</time></trkpt><trkpt lat="44.507518969360945" lon="8.909737352566435"><ele>111.5</ele><time>2026-05-01T13:23:56.001Z</time></trkpt><trkpt lat="44.50761073197967" lon="8.909901933845362"><ele>111.0</ele><time>2026-05-01T13:23:57.001Z</time></trkpt><trkpt lat="44.507690170481496" lon="8.91007070306633"><ele>111.0</ele><time>2026-05-01T13:23:58.001Z</time></trkpt><trkpt lat="44.50774009669516" lon="8.910279565964855"><ele>111.0</ele><time>2026-05-01T13:23:59.001Z</time></trkpt><trkpt lat="44.50780455419062" lon="8.910460708459594"><ele>111.0</ele><time>2026-05-01T13:24:00.001Z</time></trkpt><trkpt lat="44.50785137853384" lon="8.910634797130951"><ele>111.0</ele><time>2026-05-01T13:24:01.001Z</time></trkpt><trkpt lat="44.50789592974184" lon="8.910802537503626"><ele>112.5</ele><time>2026-05-01T13:24:02.001Z</time></trkpt><trkpt lat="44.50794203181031" lon="8.910962560949221"><ele>114.0</ele><time>2026-05-01T13:24:03.001Z</time></trkpt><trkpt lat="44.507984272582426" lon="8.911122778001115"><ele>115.5</ele><time>2026-05-01T13:24:04.001Z</time></trkpt><trkpt lat="44.5080152583638" lon="8.911303217601498"><ele>117.0</ele><time>2026-05-01T13:24:05.001Z</time></trkpt><trkpt lat="44.50806350393015" lon="8.911460901420666"><ele>117.0</ele><time>2026-05-01T13:24:06.001Z</time></trkpt><trkpt lat="44.508137489098125" lon="8.911629465650709"><ele>117.0</ele><time>2026-05-01T13:24:07.001Z</time></trkpt><trkpt lat="44.50819458786372" lon="8.911812559754987"><ele>117.0</ele><time>2026-05-01T13:24:08.001Z</time></trkpt><trkpt lat="44.50825157666495" lon="8.911981895646123"><ele>117.0</ele><time>2026-05-01T13:24:09.001Z</time></trkpt><trkpt lat="44.508319575094575" lon="8.912163601486688"><ele>117.0</ele><time>2026-05-01T13:24:10.001Z</time></trkpt><trkpt lat="44.5083422931115" lon="8.912344662246312"><ele>117.0</ele><time>2026-05-01T13:24:11.001Z</time></trkpt><trkpt lat="44.508399756724266" lon="8.912487960715849"><ele>117.0</ele><time>2026-05-01T13:24:12.001Z</time></trkpt><trkpt lat="44.50845172451493" lon="8.912629047027762"><ele>117.0</ele><time>2026-05-01T13:24:13.001Z</time></trkpt><trkpt lat="44.508534468376396" lon="8.912744549403875"><ele>117.25</ele><time>2026-05-01T13:24:14.001Z</time></trkpt><trkpt lat="44.50864228279728" lon="8.912827031696759"><ele>117.5</ele><time>2026-05-01T13:24:15.001Z</time></trkpt><trkpt lat="44.50876374652088" lon="8.91286393861867"><ele>117.75</ele><time>2026-05-01T13:24:15.999Z</time></trkpt><trkpt lat="44.50888519127046" lon="8.912854309254929"><ele>118.0</ele><time>2026-05-01T13:24:16.999Z</time></trkpt><trkpt lat="44.50899562624024" lon="8.912791232671108"><ele>118.0</ele><time>2026-05-01T13:24:17.999Z</time></trkpt><trkpt lat="44.509115411857614" lon="8.912727183619788"><ele>118.0</ele><time>2026-05-01T13:24:18.999Z</time></trkpt><trkpt lat="44.50924749182275" lon="8.91265946488972"><ele>118.0</ele><time>2026-05-01T13:24:19.999Z</time></trkpt><trkpt lat="44.509396154954814" lon="8.912590008746243"><ele>118.0</ele><time>2026-05-01T13:24:20.999Z</time></trkpt><trkpt lat="44.50954155141615" lon="8.912512528653004"><ele>119.66666666666667</ele><time>2026-05-01T13:24:21.999Z</time></trkpt><trkpt lat="44.50969330454136" lon="8.912431139105076"><ele>121.33333333333334</ele><time>2026-05-01T13:24:22.999Z</time></trkpt><trkpt lat="44.50985573811872" lon="8.912351052474984"><ele>123.0</ele><time>2026-05-01T13:24:23.999Z</time></trkpt><trkpt lat="44.51002249480163" lon="8.91229211438452"><ele>123.0</ele><time>2026-05-01T13:24:24.999Z</time></trkpt><trkpt lat="44.510161028664506" lon="8.912259738962039"><ele>123.0</ele><time>2026-05-01T13:24:25.999Z</time></trkpt><trkpt lat="44.510330156242624" lon="8.912241450676392"><ele>123.0</ele><time>2026-05-01T13:24:26.999Z</time></trkpt><trkpt lat="44.51048265450326" lon="8.912257638076124"><ele>123.0</ele><time>2026-05-01T13:24:27.999Z</time></trkpt><trkpt lat="44.51063411457215" lon="8.912290025115697"><ele>123.0</ele><time>2026-05-01T13:24:28.999Z</time></trkpt><trkpt lat="44.510793556205144" lon="8.912319054904408"><ele>123.0</ele><time>2026-05-01T13:24:29.999Z</time></trkpt><trkpt lat="44.51095017709266" lon="8.912367561537954"><ele>123.0</ele><time>2026-05-01T13:24:30.999Z</time></trkpt><trkpt lat="44.51110607411028" lon="8.912425262610006"><ele>123.0</ele><time>2026-05-01T13:24:31.999Z</time></trkpt><trkpt lat="44.51124328704571" lon="8.912550602737122"><ele>123.0</ele><time>2026-05-01T13:24:32.999Z</time></trkpt><trkpt lat="44.511385989750856" lon="8.912701040876009"><ele>123.66666666666666</ele><time>2026-05-01T13:24:33.999Z</time></trkpt><trkpt lat="44.51153873221732" lon="8.912845931600279"><ele>124.33333333333333</ele><time>2026-05-01T13:24:34.999Z</time></trkpt><trkpt lat="44.511699348660834" lon="8.91298457214434"><ele>125.0</ele><time>2026-05-01T13:24:35.999Z</time></trkpt><trkpt lat="44.5118548020231" lon="8.91313032662063"><ele>125.0</ele><time>2026-05-01T13:24:36.999Z</time></trkpt><trkpt lat="44.51202048702245" lon="8.913282068004047"><ele>125.0</ele><time>2026-05-01T13:24:37.999Z</time></trkpt><trkpt lat="44.512185944712826" lon="8.91342887079986"><ele>125.0</ele><time>2026-05-01T13:24:38.999Z</time></trkpt><trkpt lat="44.51234588792515" lon="8.913576153997383"><ele>124.0</ele><time>2026-05-01T13:24:39.999Z</time></trkpt><trkpt lat="44.51250388530193" lon="8.913723625373727"><ele>123.0</ele><time>2026-05-01T13:24:40.999Z</time></trkpt><trkpt lat="44.512664680230046" lon="8.913878839904893"><ele>122.0</ele><time>2026-05-01T13:24:41.999Z</time></trkpt><trkpt lat="44.51281855263912" lon="8.914031265118824"><ele>122.0</ele><time>2026-05-01T13:24:42.999Z</time></trkpt><trkpt lat="44.512975209064784" lon="8.91418374301199"><ele>122.0</ele><time>2026-05-01T13:24:44Z</time></trkpt><trkpt lat="44.513126861265164" lon="8.914329183785942"><ele>122.0</ele><time>2026-05-01T13:24:45Z</time></trkpt><trkpt lat="44.513280943067215" lon="8.914441790365004"><ele>122.0</ele><time>2026-05-01T13:24:46Z</time></trkpt><trkpt lat="44.51345228222908" lon="8.914515992509136"><ele>122.0</ele><time>2026-05-01T13:24:47Z</time></trkpt><trkpt lat="44.513638154527584" lon="8.914548945529884"><ele>122.0</ele><time>2026-05-01T13:24:48Z</time></trkpt><trkpt lat="44.51378759445091" lon="8.914448000931069"><ele>124.0</ele><time>2026-05-01T13:24:49Z</time></trkpt><trkpt lat="44.513962733895994" lon="8.914424002411486"><ele>126.0</ele><time>2026-05-01T13:24:50Z</time></trkpt><trkpt lat="44.514134055485144" lon="8.914399510415999"><ele>128.0</ele><time>2026-05-01T13:24:51Z</time></trkpt><trkpt lat="44.51431546760681" lon="8.914355246949773"><ele>128.0</ele><time>2026-05-01T13:24:52Z</time></trkpt><trkpt lat="44.5144944150909" lon="8.914282831229263"><ele>128.0</ele><time>2026-05-01T13:24:53Z</time></trkpt><trkpt lat="44.51467625824088" lon="8.914181376272769"><ele>128.0</ele><time>2026-05-01T13:24:54Z</time></trkpt><trkpt lat="44.514850879909815" lon="8.914076457395565"><ele>127.66666666666666</ele><time>2026-05-01T13:24:55Z</time></trkpt><trkpt lat="44.51502958745715" lon="8.913982846022941"><ele>127.33333333333334</ele><time>2026-05-01T13:24:56Z</time></trkpt><trkpt lat="44.515203628702785" lon="8.91388318578956"><ele>127.0</ele><time>2026-05-01T13:24:57Z</time></trkpt><trkpt lat="44.515375229517296" lon="8.913782038050686"><ele>128.33333333333334</ele><time>2026-05-01T13:24:58Z</time></trkpt><trkpt lat="44.51554050646145" lon="8.913685928984636"><ele>129.66666666666666</ele><time>2026-05-01T13:24:59Z</time></trkpt><trkpt lat="44.51570062555419" lon="8.91359204398503"><ele>131.0</ele><time>2026-05-01T13:25:00Z</time></trkpt><trkpt lat="44.51585981105746" lon="8.913505903546428"><ele>131.0</ele><time>2026-05-01T13:25:01Z</time></trkpt><trkpt lat="44.51601334950019" lon="8.913423143496386"><ele>131.0</ele><time>2026-05-01T13:25:02Z</time></trkpt><trkpt lat="44.51615983453777" lon="8.913343785182581"><ele>131.0</ele><time>2026-05-01T13:25:03Z</time></trkpt><trkpt lat="44.516304145351704" lon="8.91325600158214"><ele>132.75</ele><time>2026-05-01T13:25:04Z</time></trkpt><trkpt lat="44.51643819863926" lon="8.913152207078033"><ele>134.5</ele><time>2026-05-01T13:25:05Z</time></trkpt><trkpt lat="44.51650006248774" lon="8.913034415032255"><ele>136.25</ele><time>2026-05-01T13:25:06Z</time></trkpt><trkpt lat="44.51658112199157" lon="8.91289357917573"><ele>138.0</ele><time>2026-05-01T13:25:07Z</time></trkpt><trkpt lat="44.51665954435067" lon="8.91275729959265"><ele>138.0</ele><time>2026-05-01T13:25:08Z</time></trkpt><trkpt lat="44.51675912071245" lon="8.912643989767774"><ele>138.0</ele><time>2026-05-01T13:25:09Z</time></trkpt><trkpt lat="44.51688897155457" lon="8.912594666442539"><ele>138.0</ele><time>2026-05-01T13:25:10Z</time></trkpt><trkpt lat="44.51700888995105" lon="8.912568149516906"><ele>138.0</ele><time>2026-05-01T13:25:11Z</time></trkpt><trkpt lat="44.51713936752415" lon="8.912541641526401"><ele>137.25</ele><time>2026-05-01T13:25:12Z</time></trkpt><trkpt lat="44.51726145319027" lon="8.912649899449587"><ele>136.5</ele><time>2026-05-01T13:25:13Z</time></trkpt><trkpt lat="44.517396704608416" lon="8.912705979838883"><ele>135.75</ele><time>2026-05-01T13:25:14Z</time></trkpt><trkpt lat="44.5175293020774" lon="8.912758444450946"><ele>135.0</ele><time>2026-05-01T13:25:15Z</time></trkpt><trkpt lat="44.51765609181501" lon="8.912829928526254"><ele>135.0</ele><time>2026-05-01T13:25:16Z</time></trkpt><trkpt lat="44.51774899221269" lon="8.912979152105475"><ele>135.0</ele><time>2026-05-01T13:25:17Z</time></trkpt><trkpt lat="44.517826721118325" lon="8.913130980361723"><ele>135.0</ele><time>2026-05-01T13:25:18Z</time></trkpt><trkpt lat="44.51791741881324" lon="8.91330712369873"><ele>135.0</ele><time>2026-05-01T13:25:19Z</time></trkpt><trkpt lat="44.51801901934815" lon="8.913476576304845"><ele>136.0</ele><time>2026-05-01T13:25:20Z</time></trkpt><trkpt lat="44.51812762886008" lon="8.913635532957889"><ele>137.0</ele><time>2026-05-01T13:25:21Z</time></trkpt><trkpt lat="44.51825382981211" lon="8.913764694719333"><ele>138.0</ele><time>2026-05-01T13:25:22Z</time></trkpt><trkpt lat="44.51837315191901" lon="8.913882868426107"><ele>138.0</ele><time>2026-05-01T13:25:23Z</time></trkpt><trkpt lat="44.518466026409236" lon="8.914033186774686"><ele>138.0</ele><time>2026-05-01T13:25:24Z</time></trkpt><trkpt lat="44.518508352347176" lon="8.914185100730398"><ele>138.0</ele><time>2026-05-01T13:25:25Z</time></trkpt><trkpt lat="44.51855678870405" lon="8.914388674248851"><ele>138.0</ele><time>2026-05-01T13:25:26Z</time></trkpt><trkpt lat="44.51861129790771" lon="8.91458247274957"><ele>140.0</ele><time>2026-05-01T13:25:27Z</time></trkpt><trkpt lat="44.51865800890773" lon="8.914788677133753"><ele>142.0</ele><time>2026-05-01T13:25:28Z</time></trkpt><trkpt lat="44.518713054082916" lon="8.914999281398067"><ele>144.0</ele><time>2026-05-01T13:25:29Z</time></trkpt><trkpt lat="44.518760799306094" lon="8.915212109680152"><ele>151.0</ele><time>2026-05-01T13:25:30Z</time></trkpt><trkpt lat="44.518808909980706" lon="8.915416461093505"><ele>158.0</ele><time>2026-05-01T13:25:31Z</time></trkpt><trkpt lat="44.518847316593316" lon="8.91562457225141"><ele>165.0</ele><time>2026-05-01T13:25:32Z</time></trkpt><trkpt lat="44.51885708544644" lon="8.915841844110924"><ele>162.66666666666666</ele><time>2026-05-01T13:25:33Z</time></trkpt><trkpt lat="44.518844805037155" lon="8.916068026830581"><ele>160.33333333333331</ele><time>2026-05-01T13:25:34Z</time></trkpt><trkpt lat="44.518802563180984" lon="8.916278362366892"><ele>158.0</ele><time>2026-05-01T13:25:35Z</time></trkpt><trkpt lat="44.51876461623829" lon="8.916490414662684"><ele>158.0</ele><time>2026-05-01T13:25:36Z</time></trkpt><trkpt lat="44.5187738226656" lon="8.916709732968764"><ele>158.0</ele><time>2026-05-01T13:25:37Z</time></trkpt><trkpt lat="44.51880338601999" lon="8.916903005652202"><ele>158.0</ele><time>2026-05-01T13:25:38Z</time></trkpt><trkpt lat="44.51886255582166" lon="8.917091436367826"><ele>158.0</ele><time>2026-05-01T13:25:39Z</time></trkpt><trkpt lat="44.518962570281104" lon="8.917261118989526"><ele>153.66666666666666</ele><time>2026-05-01T13:25:40Z</time></trkpt><trkpt lat="44.51908280390726" lon="8.917417024916665"><ele>149.33333333333334</ele><time>2026-05-01T13:25:41Z</time></trkpt><trkpt lat="44.51920068025283" lon="8.917570697000356"><ele>145.0</ele><time>2026-05-01T13:25:42Z</time></trkpt><trkpt lat="44.51931153153791" lon="8.917726746831821"><ele>145.25</ele><time>2026-05-01T13:25:43Z</time></trkpt><trkpt lat="44.519427592690924" lon="8.917852073949609"><ele>145.5</ele><time>2026-05-01T13:25:44Z</time></trkpt><trkpt lat="44.51955732752197" lon="8.917897314737596"><ele>145.75</ele><time>2026-05-01T13:25:45.001Z</time></trkpt><trkpt lat="44.519696256119914" lon="8.917875810345993"><ele>146.0</ele><time>2026-05-01T13:25:46.001Z</time></trkpt><trkpt lat="44.51983631008019" lon="8.917809544268957"><ele>146.0</ele><time>2026-05-01T13:25:47.001Z</time></trkpt><trkpt lat="44.51996600578479" lon="8.917708752842467"><ele>146.0</ele><time>2026-05-01T13:25:48.001Z</time></trkpt><trkpt lat="44.52006907290321" lon="8.917553533944885"><ele>146.0</ele><time>2026-05-01T13:25:49.001Z</time></trkpt><trkpt lat="44.52014164227246" lon="8.91735248309733"><ele>148.66666666666666</ele><time>2026-05-01T13:25:50.001Z</time></trkpt><trkpt lat="44.520202953916474" lon="8.917133100792928"><ele>151.33333333333334</ele><time>2026-05-01T13:25:51.001Z</time></trkpt><trkpt lat="44.52027310487528" lon="8.916922966959394"><ele>154.0</ele><time>2026-05-01T13:25:52.001Z</time></trkpt><trkpt lat="44.520352049164416" lon="8.916719913992521"><ele>154.0</ele><time>2026-05-01T13:25:53.001Z</time></trkpt><trkpt lat="44.520424458430384" lon="8.916528016481273"><ele>154.0</ele><time>2026-05-01T13:25:54.001Z</time></trkpt><trkpt lat="44.52050103251436" lon="8.916325862253546"><ele>154.0</ele><time>2026-05-01T13:25:55.001Z</time></trkpt><trkpt lat="44.52061283948464" lon="8.916139191953961"><ele>154.0</ele><time>2026-05-01T13:25:56.001Z</time></trkpt><trkpt lat="44.52074810633234" lon="8.915980764477586"><ele>154.0</ele><time>2026-05-01T13:25:57.001Z</time></trkpt><trkpt lat="44.5208815812799" lon="8.91580140991601"><ele>154.0</ele><time>2026-05-01T13:25:58.001Z</time></trkpt><trkpt lat="44.521039611773915" lon="8.91565132647047"><ele>155.33333333333334</ele><time>2026-05-01T13:25:59.001Z</time></trkpt><trkpt lat="44.52119859136569" lon="8.915474684626917"><ele>156.66666666666666</ele><time>2026-05-01T13:26:00.001Z</time></trkpt><trkpt lat="44.52135409276783" lon="8.915290840285454"><ele>158.0</ele><time>2026-05-01T13:26:01.001Z</time></trkpt><trkpt lat="44.521491244251585" lon="8.915130613282615"><ele>157.0</ele><time>2026-05-01T13:26:02.001Z</time></trkpt><trkpt lat="44.521619438149514" lon="8.91498695929373"><ele>156.0</ele><time>2026-05-01T13:26:03.001Z</time></trkpt><trkpt lat="44.52173817427415" lon="8.914848677753461"><ele>155.0</ele><time>2026-05-01T13:26:04.001Z</time></trkpt><trkpt lat="44.52183324471453" lon="8.914692096312116"><ele>155.0</ele><time>2026-05-01T13:26:05.001Z</time></trkpt><trkpt lat="44.521900608932086" lon="8.914491640831859"><ele>155.0</ele><time>2026-05-01T13:26:06.001Z</time></trkpt><trkpt lat="44.521945848355536" lon="8.91427836761732"><ele>155.0</ele><time>2026-05-01T13:26:07.001Z</time></trkpt><trkpt lat="44.521998888773126" lon="8.914069689139335"><ele>154.5</ele><time>2026-05-01T13:26:08.001Z</time></trkpt><trkpt lat="44.522067263853955" lon="8.91388549260388"><ele>154.0</ele><time>2026-05-01T13:26:09.001Z</time></trkpt><trkpt lat="44.522166208429525" lon="8.913729667597162"><ele>153.5</ele><time>2026-05-01T13:26:10.001Z</time></trkpt><trkpt lat="44.52225122828584" lon="8.913575200670792"><ele>153.0</ele><time>2026-05-01T13:26:11.001Z</time></trkpt><trkpt lat="44.52235648957927" lon="8.913457642211647"><ele>153.5</ele><time>2026-05-01T13:26:12.001Z</time></trkpt><trkpt lat="44.52247058114164" lon="8.913361191261634"><ele>154.0</ele><time>2026-05-01T13:26:13.001Z</time></trkpt><trkpt lat="44.52260692981604" lon="8.913303871564057"><ele>154.5</ele><time>2026-05-01T13:26:14.001Z</time></trkpt><trkpt lat="44.522755152769165" lon="8.91329820967002"><ele>155.0</ele><time>2026-05-01T13:26:15.001Z</time></trkpt><trkpt lat="44.52290861836006" lon="8.91332296096166"><ele>155.0</ele><time>2026-05-01T13:26:16.001Z</time></trkpt><trkpt lat="44.5230618427243" lon="8.913368370648655"><ele>155.0</ele><time>2026-05-01T13:26:17.001Z</time></trkpt><trkpt lat="44.52321994397273" lon="8.913415927271338"><ele>155.0</ele><time>2026-05-01T13:26:18.001Z</time></trkpt><trkpt lat="44.52339538775435" lon="8.913469277200152"><ele>154.66666666666666</ele><time>2026-05-01T13:26:19.001Z</time></trkpt><trkpt lat="44.52357600564083" lon="8.913524016306411"><ele>154.33333333333334</ele><time>2026-05-01T13:26:20.001Z</time></trkpt><trkpt lat="44.52376392812845" lon="8.913572757180948"><ele>154.0</ele><time>2026-05-01T13:26:21.001Z</time></trkpt><trkpt lat="44.52394230047059" lon="8.91361931311057"><ele>156.66666666666669</ele><time>2026-05-01T13:26:21.999Z</time></trkpt><trkpt lat="44.52411360510908" lon="8.913666143445898"><ele>159.33333333333334</ele><time>2026-05-01T13:26:22.999Z</time></trkpt><trkpt lat="44.524266324165346" lon="8.913730712976632"><ele>162.0</ele><time>2026-05-01T13:26:23.999Z</time></trkpt><trkpt lat="44.524409682950335" lon="8.913823516891432"><ele>162.0</ele><time>2026-05-01T13:26:24.999Z</time></trkpt><trkpt lat="44.52454266363037" lon="8.91392106814526"><ele>162.0</ele><time>2026-05-01T13:26:25.999Z</time></trkpt><trkpt lat="44.52467550689363" lon="8.91397289203866"><ele>162.0</ele><time>2026-05-01T13:26:27Z</time></trkpt><trkpt lat="44.524811249532426" lon="8.913944334224357"><ele>162.0</ele><time>2026-05-01T13:26:28Z</time></trkpt><trkpt lat="44.524955696502985" lon="8.913863877172863"><ele>161.33333333333334</ele><time>2026-05-01T13:26:29Z</time></trkpt><trkpt lat="44.525105480063175" lon="8.913765004219604"><ele>160.66666666666669</ele><time>2026-05-01T13:26:30Z</time></trkpt><trkpt lat="44.52525084803313" lon="8.913688938831255"><ele>160.0</ele><time>2026-05-01T13:26:31Z</time></trkpt><trkpt lat="44.52538419648158" lon="8.913630973675629"><ele>160.5</ele><time>2026-05-01T13:26:32Z</time></trkpt><trkpt lat="44.525513950257164" lon="8.91361959947892"><ele>161.0</ele><time>2026-05-01T13:26:33Z</time></trkpt><trkpt lat="44.52562807593463" lon="8.913609832955053"><ele>161.5</ele><time>2026-05-01T13:26:34Z</time></trkpt><trkpt lat="44.5257446103753" lon="8.913643769292007"><ele>162.0</ele><time>2026-05-01T13:26:35Z</time></trkpt><trkpt lat="44.525873681705576" lon="8.913692239906773"><ele>162.0</ele><time>2026-05-01T13:26:36Z</time></trkpt><trkpt lat="44.52600186671227" lon="8.913750491920402"><ele>162.0</ele><time>2026-05-01T13:26:37Z</time></trkpt><trkpt lat="44.52613727060675" lon="8.913788090958679"><ele>162.0</ele><time>2026-05-01T13:26:38Z</time></trkpt><trkpt lat="44.52626730129952" lon="8.913806560776308"><ele>162.0</ele><time>2026-05-01T13:26:39Z</time></trkpt><trkpt lat="44.526401991844914" lon="8.913825301335004"><ele>162.5</ele><time>2026-05-01T13:26:40Z</time></trkpt><trkpt lat="44.52652900273012" lon="8.913874240305862"><ele>163.0</ele><time>2026-05-01T13:26:41Z</time></trkpt><trkpt lat="44.526648647166375" lon="8.913986333573375"><ele>163.5</ele><time>2026-05-01T13:26:42Z</time></trkpt><trkpt lat="44.52675196493228" lon="8.914146546070699"><ele>164.0</ele><time>2026-05-01T13:26:43Z</time></trkpt><trkpt lat="44.5268573401565" lon="8.91430692071281"><ele>164.66666666666666</ele><time>2026-05-01T13:26:44Z</time></trkpt><trkpt lat="44.52697851206184" lon="8.914458357992984"><ele>165.33333333333334</ele><time>2026-05-01T13:26:45Z</time></trkpt><trkpt lat="44.52710067544072" lon="8.914618232799024"><ele>166.0</ele><time>2026-05-01T13:26:46Z</time></trkpt><trkpt lat="44.52721941720587" lon="8.914781078151485"><ele>166.0</ele><time>2026-05-01T13:26:47Z</time></trkpt><trkpt lat="44.52733640963313" lon="8.914931536797475"><ele>166.0</ele><time>2026-05-01T13:26:48Z</time></trkpt><trkpt lat="44.52745317224035" lon="8.915085008260004"><ele>166.0</ele><time>2026-05-01T13:26:49Z</time></trkpt><trkpt lat="44.52756218911007" lon="8.915230238539856"><ele>166.25</ele><time>2026-05-01T13:26:50Z</time></trkpt><trkpt lat="44.527665781704684" lon="8.91536705772064"><ele>166.5</ele><time>2026-05-01T13:26:51Z</time></trkpt><trkpt lat="44.52776701872218" lon="8.91548767681776"><ele>166.75</ele><time>2026-05-01T13:26:52Z</time></trkpt><trkpt lat="44.527880815792365" lon="8.915592594859536"><ele>167.0</ele><time>2026-05-01T13:26:53Z</time></trkpt><trkpt lat="44.52801097252876" lon="8.915666955085008"><ele>167.0</ele><time>2026-05-01T13:26:54Z</time></trkpt><trkpt lat="44.5281499392873" lon="8.915709913035286"><ele>167.0</ele><time>2026-05-01T13:26:55Z</time></trkpt><trkpt lat="44.52827788703764" lon="8.91572602108526"><ele>167.0</ele><time>2026-05-01T13:26:56Z</time></trkpt><trkpt lat="44.52839916611817" lon="8.915716648230584"><ele>167.0</ele><time>2026-05-01T13:26:57Z</time></trkpt><trkpt lat="44.52850733492372" lon="8.915678876888176"><ele>167.0</ele><time>2026-05-01T13:26:58Z</time></trkpt><trkpt lat="44.52860178681027" lon="8.915620291470576"><ele>167.0</ele><time>2026-05-01T13:26:59Z</time></trkpt><trkpt lat="44.52868748588103" lon="8.915552456216577"><ele>167.0</ele><time>2026-05-01T13:27:00Z</time></trkpt><trkpt lat="44.52878001334326" lon="8.915498536568624"><ele>167.0</ele><time>2026-05-01T13:27:01Z</time></trkpt><trkpt lat="44.52888252896587" lon="8.9154638042146"><ele>167.0</ele><time>2026-05-01T13:27:02Z</time></trkpt><trkpt lat="44.528981212032505" lon="8.915457270951789"><ele>167.39999999999998</ele><time>2026-05-01T13:27:03Z</time></trkpt><trkpt lat="44.52908726228202" lon="8.9154677419043"><ele>167.79999999999998</ele><time>2026-05-01T13:27:04Z</time></trkpt><trkpt lat="44.52918772798203" lon="8.915517294530817"><ele>168.2</ele><time>2026-05-01T13:27:05Z</time></trkpt><trkpt lat="44.52927328318086" lon="8.915611593387963"><ele>168.6</ele><time>2026-05-01T13:27:06Z</time></trkpt><trkpt lat="44.52933642786187" lon="8.915718510487375"><ele>169.0</ele><time>2026-05-01T13:27:07Z</time></trkpt><trkpt lat="44.52938032214586" lon="8.91582122561082"><ele>170.0</ele><time>2026-05-01T13:27:08Z</time></trkpt><trkpt lat="44.529419033306056" lon="8.915910306599672"><ele>171.0</ele><time>2026-05-01T13:27:09Z</time></trkpt><trkpt lat="44.52948001751254" lon="8.916034085713704"><ele>172.0</ele><time>2026-05-01T13:27:11Z</time></trkpt><trkpt lat="44.52955048895548" lon="8.91615588089331"><ele>173.0</ele><time>2026-05-01T13:27:13Z</time></trkpt><trkpt lat="44.52958530498047" lon="8.916247101307679"><ele>174.0</ele><time>2026-05-01T13:27:14Z</time></trkpt><trkpt lat="44.52964698535311" lon="8.916330784713848"><ele>175.0</ele><time>2026-05-01T13:27:15Z</time></trkpt><trkpt lat="44.529701656380176" lon="8.916433295704586"><ele>176.0</ele><time>2026-05-01T13:27:16Z</time></trkpt><trkpt lat="44.529772937579814" lon="8.916544247031885"><ele>177.0</ele><time>2026-05-01T13:27:17Z</time></trkpt><trkpt lat="44.529866784361374" lon="8.916676120981581"><ele>178.0</ele><time>2026-05-01T13:27:18Z</time></trkpt><trkpt lat="44.52996433964599" lon="8.916806796807897"><ele>178.0</ele><time>2026-05-01T13:27:19Z</time></trkpt><trkpt lat="44.53005572621931" lon="8.91692488469023"><ele>178.0</ele><time>2026-05-01T13:27:20Z</time></trkpt><trkpt lat="44.53014625475345" lon="8.917024783607228"><ele>178.0</ele><time>2026-05-01T13:27:21Z</time></trkpt><trkpt lat="44.5302379985535" lon="8.917113638291413"><ele>178.0</ele><time>2026-05-01T13:27:22Z</time></trkpt><trkpt lat="44.53033370953787" lon="8.917194786453122"><ele>180.0</ele><time>2026-05-01T13:27:23Z</time></trkpt><trkpt lat="44.53043316222017" lon="8.917279603468844"><ele>182.0</ele><time>2026-05-01T13:27:24Z</time></trkpt><trkpt lat="44.53052886404456" lon="8.91737152730638"><ele>184.0</ele><time>2026-05-01T13:27:25Z</time></trkpt><trkpt lat="44.530625093609984" lon="8.917460034205074"><ele>186.0</ele><time>2026-05-01T13:27:26Z</time></trkpt><trkpt lat="44.530719143594595" lon="8.917554664763754"><ele>184.4</ele><time>2026-05-01T13:27:27Z</time></trkpt><trkpt lat="44.53080518478149" lon="8.917643803466206"><ele>182.8</ele><time>2026-05-01T13:27:28Z</time></trkpt><trkpt lat="44.530893046466325" lon="8.917733312043111"><ele>181.20000000000002</ele><time>2026-05-01T13:27:29Z</time></trkpt><trkpt lat="44.53098030600311" lon="8.917828625583388"><ele>179.60000000000002</ele><time>2026-05-01T13:27:30Z</time></trkpt><trkpt lat="44.531061715743164" lon="8.91793803903325"><ele>178.0</ele><time>2026-05-01T13:27:31Z</time></trkpt><trkpt lat="44.531129200635554" lon="8.918079818341935"><ele>178.0</ele><time>2026-05-01T13:27:32Z</time></trkpt><trkpt lat="44.531142336296014" lon="8.918255739847433"><ele>178.0</ele><time>2026-05-01T13:27:33Z</time></trkpt><trkpt lat="44.53117643224751" lon="8.918423431251457"><ele>178.0</ele><time>2026-05-01T13:27:34Z</time></trkpt><trkpt lat="44.53120165403198" lon="8.91858900136018"><ele>178.0</ele><time>2026-05-01T13:27:35Z</time></trkpt><trkpt lat="44.53122408802451" lon="8.918752946951015"><ele>180.0</ele><time>2026-05-01T13:27:36Z</time></trkpt><trkpt lat="44.53127952012051" lon="8.918918048264084"><ele>182.0</ele><time>2026-05-01T13:27:37Z</time></trkpt><trkpt lat="44.531380053752095" lon="8.91907201429751"><ele>184.0</ele><time>2026-05-01T13:27:38.001Z</time></trkpt><trkpt lat="44.53149657737099" lon="8.91918224791129"><ele>186.0</ele><time>2026-05-01T13:27:39.001Z</time></trkpt><trkpt lat="44.531605106485095" lon="8.919278623333344"><ele>186.0</ele><time>2026-05-01T13:27:40.001Z</time></trkpt><trkpt lat="44.53170231462164" lon="8.919371930756414"><ele>186.0</ele><time>2026-05-01T13:27:41.001Z</time></trkpt><trkpt lat="44.531783120140624" lon="8.919487973600809"><ele>186.0</ele><time>2026-05-01T13:27:42.001Z</time></trkpt><trkpt lat="44.53181965200793" lon="8.919655291927922"><ele>186.0</ele><time>2026-05-01T13:27:43.001Z</time></trkpt><trkpt lat="44.531791482838486" lon="8.919833183068523"><ele>186.0</ele><time>2026-05-01T13:27:44.001Z</time></trkpt><trkpt lat="44.53178825535762" lon="8.920008001733507"><ele>186.0</ele><time>2026-05-01T13:27:45.001Z</time></trkpt><trkpt lat="44.53178696958088" lon="8.920165610046162"><ele>186.0</ele><time>2026-05-01T13:27:46.001Z</time></trkpt><trkpt lat="44.531804072695785" lon="8.920319584393857"><ele>186.0</ele><time>2026-05-01T13:27:47.001Z</time></trkpt><trkpt lat="44.531858181044484" lon="8.920457853525884"><ele>188.25</ele><time>2026-05-01T13:27:48.001Z</time></trkpt><trkpt lat="44.53196004144524" lon="8.920565659003914"><ele>190.5</ele><time>2026-05-01T13:27:49.001Z</time></trkpt><trkpt lat="44.532049068062456" lon="8.920676872899554"><ele>192.75</ele><time>2026-05-01T13:27:50.001Z</time></trkpt><trkpt lat="44.532139991216" lon="8.9207709989736"><ele>195.0</ele><time>2026-05-01T13:27:51.001Z</time></trkpt><trkpt lat="44.53225427642032" lon="8.920853022436969"><ele>195.0</ele><time>2026-05-01T13:27:52.001Z</time></trkpt><trkpt lat="44.53237866518505" lon="8.92095899017726"><ele>195.0</ele><time>2026-05-01T13:27:53.001Z</time></trkpt><trkpt lat="44.53250459940308" lon="8.921076583075607"><ele>195.0</ele><time>2026-05-01T13:27:54.001Z</time></trkpt><trkpt lat="44.53263418326542" lon="8.921221555880368"><ele>195.0</ele><time>2026-05-01T13:27:55.001Z</time></trkpt><trkpt lat="44.5327662049702" lon="8.921427613592744"><ele>195.0</ele><time>2026-05-01T13:27:56.001Z</time></trkpt><trkpt lat="44.532929103224795" lon="8.92165003603588"><ele>195.0</ele><time>2026-05-01T13:27:57.001Z</time></trkpt><trkpt lat="44.533102036967726" lon="8.921889200641294"><ele>197.0</ele><time>2026-05-01T13:27:58.001Z</time></trkpt><trkpt lat="44.53326315104448" lon="8.922112018978874"><ele>199.0</ele><time>2026-05-01T13:27:59.001Z</time></trkpt><trkpt lat="44.53341318215845" lon="8.922290532737993"><ele>201.0</ele><time>2026-05-01T13:28:00.001Z</time></trkpt><trkpt lat="44.533601916930415" lon="8.922597635384687"><ele>201.66666666666669</ele><time>2026-05-01T13:28:01.001Z</time></trkpt><trkpt lat="44.533746354406034" lon="8.922793823565332"><ele>202.33333333333334</ele><time>2026-05-01T13:28:02.001Z</time></trkpt><trkpt lat="44.53390024626575" lon="8.922971257240244"><ele>203.0</ele><time>2026-05-01T13:28:03.001Z</time></trkpt><trkpt lat="44.534075826633774" lon="8.923114510309722"><ele>203.0</ele><time>2026-05-01T13:28:04.001Z</time></trkpt><trkpt lat="44.534278277157654" lon="8.923216277216012"><ele>203.0</ele><time>2026-05-01T13:28:05.001Z</time></trkpt><trkpt lat="44.53450029760335" lon="8.923286377457055"><ele>203.0</ele><time>2026-05-01T13:28:06.001Z</time></trkpt><trkpt lat="44.5347165683693" lon="8.92338107038664"><ele>203.66666666666669</ele><time>2026-05-01T13:28:07.001Z</time></trkpt><trkpt lat="44.534896566941796" lon="8.923502838680037"><ele>204.33333333333331</ele><time>2026-05-01T13:28:08.001Z</time></trkpt><trkpt lat="44.535039849951616" lon="8.923656010268193"><ele>205.0</ele><time>2026-05-01T13:28:09.001Z</time></trkpt><trkpt lat="44.53518138545064" lon="8.92378117615964"><ele>205.0</ele><time>2026-05-01T13:28:10.001Z</time></trkpt><trkpt lat="44.53532226279833" lon="8.923850510893825"><ele>205.0</ele><time>2026-05-01T13:28:11.001Z</time></trkpt><trkpt lat="44.53547244543082" lon="8.92386064921265"><ele>205.0</ele><time>2026-05-01T13:28:12.001Z</time></trkpt><trkpt lat="44.535631911945124" lon="8.923784111345785"><ele>205.5</ele><time>2026-05-01T13:28:13.001Z</time></trkpt><trkpt lat="44.53579689403409" lon="8.923720354409836"><ele>206.0</ele><time>2026-05-01T13:28:14.001Z</time></trkpt><trkpt lat="44.53593195691535" lon="8.923822095479315"><ele>206.5</ele><time>2026-05-01T13:28:15.001Z</time></trkpt><trkpt lat="44.53599499664111" lon="8.923970117885458"><ele>207.0</ele><time>2026-05-01T13:28:16.001Z</time></trkpt><trkpt lat="44.53608841469382" lon="8.924125850458031"><ele>207.66666666666669</ele><time>2026-05-01T13:28:17.001Z</time></trkpt><trkpt lat="44.536204375644076" lon="8.924280879325059"><ele>208.33333333333334</ele><time>2026-05-01T13:28:18.001Z</time></trkpt><trkpt lat="44.53630480447725" lon="8.924460603681839"><ele>209.0</ele><time>2026-05-01T13:28:19.001Z</time></trkpt><trkpt lat="44.536393551644146" lon="8.924616431639432"><ele>209.0</ele><time>2026-05-01T13:28:20.001Z</time></trkpt><trkpt lat="44.536487539110134" lon="8.924724553927977"><ele>209.0</ele><time>2026-05-01T13:28:21.001Z</time></trkpt><trkpt lat="44.53661258142378" lon="8.924743250155526"><ele>209.0</ele><time>2026-05-01T13:28:22.001Z</time></trkpt><trkpt lat="44.5367691063221" lon="8.924643864288772"><ele>209.0</ele><time>2026-05-01T13:28:23.001Z</time></trkpt><trkpt lat="44.53692740363671" lon="8.924547897645759"><ele>211.33333333333334</ele><time>2026-05-01T13:28:24.001Z</time></trkpt><trkpt lat="44.53708642502801" lon="8.924531448736522"><ele>213.66666666666669</ele><time>2026-05-01T13:28:25.001Z</time></trkpt><trkpt lat="44.537243433485635" lon="8.924547709912666"><ele>216.0</ele><time>2026-05-01T13:28:26.001Z</time></trkpt><trkpt lat="44.537381777077464" lon="8.924579981824024"><ele>216.0</ele><time>2026-05-01T13:28:27.001Z</time></trkpt><trkpt lat="44.53749678569169" lon="8.924663114960508"><ele>216.0</ele><time>2026-05-01T13:28:28Z</time></trkpt><trkpt lat="44.53753551551701" lon="8.92479940965104"><ele>216.0</ele><time>2026-05-01T13:28:29Z</time></trkpt><trkpt lat="44.53761805093776" lon="8.92495941435641"><ele>216.0</ele><time>2026-05-01T13:28:30Z</time></trkpt><trkpt lat="44.537701409134534" lon="8.925123681697464"><ele>216.0</ele><time>2026-05-01T13:28:31Z</time></trkpt><trkpt lat="44.5377718812699" lon="8.925269630663665"><ele>216.00000000000003</ele><time>2026-05-01T13:28:32Z</time></trkpt><trkpt lat="44.53781768985352" lon="8.92539462964674"><ele>216.00000000000003</ele><time>2026-05-01T13:28:33Z</time></trkpt><trkpt lat="44.537821559517376" lon="8.925512122937587"><ele>216.0</ele><time>2026-05-01T13:28:34Z</time></trkpt><trkpt lat="44.53777315063458" lon="8.925612424484683"><ele>216.0</ele><time>2026-05-01T13:28:35Z</time></trkpt><trkpt lat="44.537770525188705" lon="8.925831362921933"><ele>219.33333333333331</ele><time>2026-05-01T13:28:36Z</time></trkpt><trkpt lat="44.53780864715561" lon="8.926058047008182"><ele>222.66666666666666</ele><time>2026-05-01T13:28:37Z</time></trkpt><trkpt lat="44.53788111546817" lon="8.926315457297763"><ele>226.0</ele><time>2026-05-01T13:28:38Z</time></trkpt><trkpt lat="44.537996922480346" lon="8.926495857141838"><ele>226.0</ele><time>2026-05-01T13:28:39Z</time></trkpt><trkpt lat="44.53804170458702" lon="8.926685050388407"><ele>226.0</ele><time>2026-05-01T13:28:40Z</time></trkpt><trkpt lat="44.53802563587942" lon="8.926842844866556"><ele>226.0</ele><time>2026-05-01T13:28:41Z</time></trkpt><trkpt lat="44.5379676050998" lon="8.927025789984397"><ele>226.0</ele><time>2026-05-01T13:28:42Z</time></trkpt><trkpt lat="44.53795390879759" lon="8.927224093076022"><ele>226.0</ele><time>2026-05-01T13:28:43Z</time></trkpt><trkpt lat="44.53802381470203" lon="8.927450920692982"><ele>226.0</ele><time>2026-05-01T13:28:44Z</time></trkpt><trkpt lat="44.53811174786549" lon="8.927692392280095"><ele>226.0</ele><time>2026-05-01T13:28:45Z</time></trkpt><trkpt lat="44.538164526762024" lon="8.92795789432207"><ele>226.66666666666666</ele><time>2026-05-01T13:28:46Z</time></trkpt><trkpt lat="44.53821274463369" lon="8.928215874489059"><ele>227.33333333333331</ele><time>2026-05-01T13:28:47Z</time></trkpt><trkpt lat="44.538263148122745" lon="8.928474633502649"><ele>228.0</ele><time>2026-05-01T13:28:48Z</time></trkpt><trkpt lat="44.53831537437121" lon="8.928715646447344"><ele>229.33333333333331</ele><time>2026-05-01T13:28:49Z</time></trkpt><trkpt lat="44.5383661576496" lon="8.928937874903184"><ele>230.66666666666666</ele><time>2026-05-01T13:28:50Z</time></trkpt><trkpt lat="44.53841861299782" lon="8.929158214480482"><ele>232.0</ele><time>2026-05-01T13:28:51Z</time></trkpt><trkpt lat="44.53848881621334" lon="8.929373469821613"><ele>234.0</ele><time>2026-05-01T13:28:52Z</time></trkpt><trkpt lat="44.538547972769706" lon="8.92960459218301"><ele>236.0</ele><time>2026-05-01T13:28:53Z</time></trkpt><trkpt lat="44.53861171314618" lon="8.929824701597134"><ele>238.0</ele><time>2026-05-01T13:28:54Z</time></trkpt><trkpt lat="44.53868377982528" lon="8.930035392941376"><ele>236.0</ele><time>2026-05-01T13:28:55Z</time></trkpt><trkpt lat="44.53878272378342" lon="8.930249043941572"><ele>234.0</ele><time>2026-05-01T13:28:56Z</time></trkpt><trkpt lat="44.53889649773667" lon="8.93046479741887"><ele>232.0</ele><time>2026-05-01T13:28:57Z</time></trkpt><trkpt lat="44.5390054383099" lon="8.930677332994033"><ele>232.0</ele><time>2026-05-01T13:28:58Z</time></trkpt><trkpt lat="44.5391110888214" lon="8.930886900983017"><ele>232.0</ele><time>2026-05-01T13:28:59Z</time></trkpt><trkpt lat="44.53920971875772" lon="8.931081783273656"><ele>232.0</ele><time>2026-05-01T13:29:00Z</time></trkpt><trkpt lat="44.539300528146605" lon="8.931260542522145"><ele>231.5</ele><time>2026-05-01T13:29:01Z</time></trkpt><trkpt lat="44.539389433281556" lon="8.931425092033422"><ele>231.0</ele><time>2026-05-01T13:29:02Z</time></trkpt><trkpt lat="44.53947471840805" lon="8.931537586339873"><ele>230.5</ele><time>2026-05-01T13:29:03Z</time></trkpt><trkpt lat="44.53958120241097" lon="8.931587961779764"><ele>230.0</ele><time>2026-05-01T13:29:04Z</time></trkpt><trkpt lat="44.53971030382444" lon="8.931568195819086"><ele>230.0</ele><time>2026-05-01T13:29:05Z</time></trkpt><trkpt lat="44.53984846139617" lon="8.931487530584917"><ele>230.0</ele><time>2026-05-01T13:29:06Z</time></trkpt><trkpt lat="44.539978203436114" lon="8.931373858822056"><ele>230.0</ele><time>2026-05-01T13:29:07Z</time></trkpt><trkpt lat="44.5400980229925" lon="8.931300688183333"><ele>230.0</ele><time>2026-05-01T13:29:08Z</time></trkpt><trkpt lat="44.5402129255655" lon="8.931293502841262"><ele>230.0</ele><time>2026-05-01T13:29:09Z</time></trkpt><trkpt lat="44.540329647110184" lon="8.931271069755939"><ele>230.0</ele><time>2026-05-01T13:29:10Z</time></trkpt><trkpt lat="44.54043966603172" lon="8.93121978599616"><ele>230.0</ele><time>2026-05-01T13:29:11Z</time></trkpt><trkpt lat="44.540544139354814" lon="8.931176717975877"><ele>230.0</ele><time>2026-05-01T13:29:12Z</time></trkpt><trkpt lat="44.54063820568845" lon="8.931121635605301"><ele>230.0</ele><time>2026-05-01T13:29:13Z</time></trkpt><trkpt lat="44.54072326325134" lon="8.931072985792133"><ele>232.66666666666669</ele><time>2026-05-01T13:29:14Z</time></trkpt><trkpt lat="44.54079790052646" lon="8.931035567182413"><ele>235.33333333333334</ele><time>2026-05-01T13:29:15Z</time></trkpt><trkpt lat="44.54089958667246" lon="8.931055556736464"><ele>238.0</ele><time>2026-05-01T13:29:17Z</time></trkpt><trkpt lat="44.54090433587333" lon="8.931201948562853"><ele>240.66666666666669</ele><time>2026-05-01T13:29:19Z</time></trkpt><trkpt lat="44.540932019385565" lon="8.931291888651304"><ele>243.33333333333334</ele><time>2026-05-01T13:29:20Z</time></trkpt><trkpt lat="44.54094005214998" lon="8.931411625403193"><ele>246.0</ele><time>2026-05-01T13:29:21Z</time></trkpt><trkpt lat="44.540936680392186" lon="8.931534722919547"><ele>246.0</ele><time>2026-05-01T13:29:22Z</time></trkpt><trkpt lat="44.54088314480246" lon="8.93163134675929"><ele>246.0</ele><time>2026-05-01T13:29:23Z</time></trkpt><trkpt lat="44.540813060641675" lon="8.931684189574653"><ele>246.0</ele><time>2026-05-01T13:29:24Z</time></trkpt><trkpt lat="44.54074217407115" lon="8.931782698718466"><ele>246.0</ele><time>2026-05-01T13:29:25Z</time></trkpt><trkpt lat="44.54067409504489" lon="8.931865596705492"><ele>246.0</ele><time>2026-05-01T13:29:26Z</time></trkpt><trkpt lat="44.54063390309734" lon="8.931960437547447"><ele>246.0</ele><time>2026-05-01T13:29:27Z</time></trkpt><trkpt lat="44.54062478621127" lon="8.93206939236933"><ele>247.4</ele><time>2026-05-01T13:29:28Z</time></trkpt><trkpt lat="44.540618763185826" lon="8.932198803109529"><ele>248.8</ele><time>2026-05-01T13:29:29Z</time></trkpt><trkpt lat="44.54063377735559" lon="8.932343683641069"><ele>250.20000000000002</ele><time>2026-05-01T13:29:30Z</time></trkpt><trkpt lat="44.54065766221822" lon="8.932505652066231"><ele>251.60000000000002</ele><time>2026-05-01T13:29:31Z</time></trkpt><trkpt lat="44.54068337135393" lon="8.932640799684094"><ele>253.0</ele><time>2026-05-01T13:29:32Z</time></trkpt><trkpt lat="44.540654593720774" lon="8.932783175400928"><ele>252.8</ele><time>2026-05-01T13:29:33Z</time></trkpt><trkpt lat="44.540618652856715" lon="8.932942002851926"><ele>252.60000000000002</ele><time>2026-05-01T13:29:34Z</time></trkpt><trkpt lat="44.5405921148844" lon="8.933098823312658"><ele>252.39999999999998</ele><time>2026-05-01T13:29:35Z</time></trkpt><trkpt lat="44.54054052172469" lon="8.933222109573537"><ele>252.2</ele><time>2026-05-01T13:29:36Z</time></trkpt><trkpt lat="44.540470510068154" lon="8.933334668326335"><ele>252.0</ele><time>2026-05-01T13:29:37Z</time></trkpt><trkpt lat="44.54035418562414" lon="8.9334025662037"><ele>252.0</ele><time>2026-05-01T13:29:38Z</time></trkpt><trkpt lat="44.54024143107472" lon="8.933523544786095"><ele>252.0</ele><time>2026-05-01T13:29:39Z</time></trkpt><trkpt lat="44.54011964019194" lon="8.933604335994268"><ele>252.0</ele><time>2026-05-01T13:29:40Z</time></trkpt><trkpt lat="44.54001542294764" lon="8.933684940460592"><ele>252.0</ele><time>2026-05-01T13:29:41Z</time></trkpt><trkpt lat="44.53991780056234" lon="8.933786094514456"><ele>252.0</ele><time>2026-05-01T13:29:42Z</time></trkpt><trkpt lat="44.53983286248219" lon="8.933904015486666"><ele>252.0</ele><time>2026-05-01T13:29:43Z</time></trkpt><trkpt lat="44.539775248539456" lon="8.934035526427293"><ele>252.0</ele><time>2026-05-01T13:29:44Z</time></trkpt><trkpt lat="44.53974979767576" lon="8.934184277438657"><ele>252.0</ele><time>2026-05-01T13:29:45Z</time></trkpt><trkpt lat="44.53975969936926" lon="8.934346401482395"><ele>251.25</ele><time>2026-05-01T13:29:46Z</time></trkpt><trkpt lat="44.539794806874454" lon="8.934490283206664"><ele>250.5</ele><time>2026-05-01T13:29:47Z</time></trkpt><trkpt lat="44.53985106929322" lon="8.93461994178304"><ele>249.75</ele><time>2026-05-01T13:29:48Z</time></trkpt><trkpt lat="44.53992624916261" lon="8.934742990283455"><ele>249.0</ele><time>2026-05-01T13:29:49Z</time></trkpt><trkpt lat="44.54001768689479" lon="8.93486635967213"><ele>249.0</ele><time>2026-05-01T13:29:50Z</time></trkpt><trkpt lat="44.54010703409513" lon="8.93501111168931"><ele>249.0</ele><time>2026-05-01T13:29:51Z</time></trkpt><trkpt lat="44.54017468104252" lon="8.935183909176523"><ele>249.0</ele><time>2026-05-01T13:29:52Z</time></trkpt><trkpt lat="44.54023403649941" lon="8.935369562748434"><ele>249.0</ele><time>2026-05-01T13:29:53Z</time></trkpt><trkpt lat="44.54029020553987" lon="8.93555733346057"><ele>249.75</ele><time>2026-05-01T13:29:54Z</time></trkpt><trkpt lat="44.540347219629105" lon="8.935742270120215"><ele>250.5</ele><time>2026-05-01T13:29:55Z</time></trkpt><trkpt lat="44.54037877408638" lon="8.935931436708666"><ele>251.25</ele><time>2026-05-01T13:29:56Z</time></trkpt><trkpt lat="44.54041708786761" lon="8.936095189808354"><ele>252.0</ele><time>2026-05-01T13:29:57Z</time></trkpt><trkpt lat="44.54045904564699" lon="8.936239476935796"><ele>253.5</ele><time>2026-05-01T13:29:58Z</time></trkpt><trkpt lat="44.54048548065388" lon="8.936382373426603"><ele>255.0</ele><time>2026-05-01T13:29:59Z</time></trkpt><trkpt lat="44.54053939332365" lon="8.936503839935485"><ele>256.5</ele><time>2026-05-01T13:30:00Z</time></trkpt><trkpt lat="44.5406324770537" lon="8.936619273986166"><ele>258.0</ele><time>2026-05-01T13:30:01Z</time></trkpt><trkpt lat="44.54074379245523" lon="8.936754416505721"><ele>258.0</ele><time>2026-05-01T13:30:02.001Z</time></trkpt><trkpt lat="44.540839565650124" lon="8.936876371500778"><ele>258.0</ele><time>2026-05-01T13:30:03.001Z</time></trkpt><trkpt lat="44.540919427786626" lon="8.936985590939413"><ele>258.0</ele><time>2026-05-01T13:30:04.001Z</time></trkpt><trkpt lat="44.540967182096196" lon="8.93708942692743"><ele>258.0</ele><time>2026-05-01T13:30:05.001Z</time></trkpt><trkpt lat="44.54099190758965" lon="8.937196618886398"><ele>258.0</ele><time>2026-05-01T13:30:06.001Z</time></trkpt><trkpt lat="44.540942671690395" lon="8.937300341601588"><ele>258.0</ele><time>2026-05-01T13:30:07.001Z</time></trkpt><trkpt lat="44.5408834706077" lon="8.937373219347787"><ele>258.0</ele><time>2026-05-01T13:30:08.001Z</time></trkpt><trkpt lat="44.54083425802787" lon="8.937479846731696"><ele>258.0</ele><time>2026-05-01T13:30:09.001Z</time></trkpt><trkpt lat="44.54079525691703" lon="8.937586086089986"><ele>258.0</ele><time>2026-05-01T13:30:10.001Z</time></trkpt><trkpt lat="44.540765184613846" lon="8.93768142263763"><ele>258.0</ele><time>2026-05-01T13:30:11.001Z</time></trkpt><trkpt lat="44.54074980433436" lon="8.93777226869961"><ele>258.0</ele><time>2026-05-01T13:30:12.001Z</time></trkpt><trkpt lat="44.5407947742687" lon="8.93786534081425"><ele>261.4</ele><time>2026-05-01T13:30:13.001Z</time></trkpt><trkpt lat="44.54091565246474" lon="8.937874418581163"><ele>264.8</ele><time>2026-05-01T13:30:14.001Z</time></trkpt><trkpt lat="44.541007504550166" lon="8.93791439088375"><ele>268.2</ele><time>2026-05-01T13:30:15.001Z</time></trkpt><trkpt lat="44.54108735127521" lon="8.937939510474889"><ele>271.6</ele><time>2026-05-01T13:30:16.001Z</time></trkpt><trkpt lat="44.541187598285156" lon="8.93796492651739"><ele>275.0</ele><time>2026-05-01T13:30:17.001Z</time></trkpt><trkpt lat="44.54126759720377" lon="8.937989554155154"><ele>275.0</ele><time>2026-05-01T13:30:18.001Z</time></trkpt><trkpt lat="44.54133268873649" lon="8.938014000365047"><ele>275.0</ele><time>2026-05-01T13:30:19.001Z</time></trkpt><trkpt lat="44.541408945404314" lon="8.93805216945316"><ele>275.0</ele><time>2026-05-01T13:30:21.001Z</time></trkpt><trkpt lat="44.5413948682701" lon="8.938143986351902"><ele>275.0</ele><time>2026-05-01T13:30:24.001Z</time></trkpt><trkpt lat="44.5413407933686" lon="8.93808478985152"><ele>275.0</ele><time>2026-05-01T13:30:25.001Z</time></trkpt><trkpt lat="44.54125576071373" lon="8.938061252443708"><ele>275.0</ele><time>2026-05-01T13:30:26.001Z</time></trkpt><trkpt lat="44.541158900679235" lon="8.938026219954766"><ele>275.33333333333337</ele><time>2026-05-01T13:30:27.001Z</time></trkpt><trkpt lat="44.54106441626462" lon="8.93801088701665"><ele>275.6666666666667</ele><time>2026-05-01T13:30:28.001Z</time></trkpt><trkpt lat="44.54098932374297" lon="8.937997227368024"><ele>276.0</ele><time>2026-05-01T13:30:29.001Z</time></trkpt><trkpt lat="44.54088176979759" lon="8.937965631376194"><ele>276.3333333333333</ele><time>2026-05-01T13:30:31.001Z</time></trkpt><trkpt lat="44.54081870955285" lon="8.937992643945362"><ele>276.66666666666663</ele><time>2026-05-01T13:30:33.001Z</time></trkpt><trkpt lat="44.54082763673239" lon="8.938087855916168"><ele>277.0</ele><time>2026-05-01T13:30:35Z</time></trkpt><trkpt lat="44.54095765673782" lon="8.938091538420561"><ele>277.0</ele><time>2026-05-01T13:30:37Z</time></trkpt><trkpt lat="44.54102405764881" lon="8.938127744679948"><ele>277.0</ele><time>2026-05-01T13:30:38Z</time></trkpt><trkpt lat="44.54111724917223" lon="8.938155129619462"><ele>277.0</ele><time>2026-05-01T13:30:39Z</time></trkpt><trkpt lat="44.5412083181675" lon="8.93818676298933"><ele>277.0</ele><time>2026-05-01T13:30:40Z</time></trkpt><trkpt lat="44.54129367788311" lon="8.938231473919693"><ele>277.0</ele><time>2026-05-01T13:30:41Z</time></trkpt><trkpt lat="44.54136915489749" lon="8.938254856087237"><ele>277.0</ele><time>2026-05-01T13:30:42Z</time></trkpt><trkpt lat="44.54142810844756" lon="8.938290041884738"><ele>276.66666666666663</ele><time>2026-05-01T13:30:43Z</time></trkpt><trkpt lat="44.54151578836026" lon="8.93836192276777"><ele>276.3333333333333</ele><time>2026-05-01T13:30:45Z</time></trkpt><trkpt lat="44.54160295168711" lon="8.938389907868652"><ele>276.0</ele><time>2026-05-01T13:30:47Z</time></trkpt><trkpt lat="44.541559405739044" lon="8.938466792846631"><ele>275.6666666666667</ele><time>2026-05-01T13:30:50Z</time></trkpt><trkpt lat="44.54149664903121" lon="8.938393791039385"><ele>275.33333333333337</ele><time>2026-05-01T13:30:51Z</time></trkpt><trkpt lat="44.54141978813108" lon="8.93836331188968"><ele>275.0</ele><time>2026-05-01T13:30:52Z</time></trkpt><trkpt lat="44.54132984524049" lon="8.93832835960473"><ele>275.0</ele><time>2026-05-01T13:30:53Z</time></trkpt><trkpt lat="44.54123318050455" lon="8.93829902274885"><ele>275.0</ele><time>2026-05-01T13:30:54Z</time></trkpt><trkpt lat="44.54116674906471" lon="8.938277690045975"><ele>275.0</ele><time>2026-05-01T13:30:55Z</time></trkpt><trkpt lat="44.54110151578443" lon="8.938264365928093"><ele>275.0</ele><time>2026-05-01T13:30:56Z</time></trkpt><trkpt lat="44.54102643053014" lon="8.938265646485037"><ele>275.0</ele><time>2026-05-01T13:30:57Z</time></trkpt><trkpt lat="44.54094959412463" lon="8.938272797483188"><ele>275.0</ele><time>2026-05-01T13:30:58Z</time></trkpt><trkpt lat="44.54101086765006" lon="8.938376449633601"><ele>281.75</ele><time>2026-05-01T13:31:01Z</time></trkpt><trkpt lat="44.5411504192322" lon="8.938388154959037"><ele>288.5</ele><time>2026-05-01T13:31:03Z</time></trkpt><trkpt lat="44.54124641414965" lon="8.938418881621816"><ele>295.25</ele><time>2026-05-01T13:31:04Z</time></trkpt><trkpt lat="44.54136017278698" lon="8.938476748803021"><ele>302.0</ele><time>2026-05-01T13:31:05Z</time></trkpt><trkpt lat="44.5414779848524" lon="8.938543236124922"><ele>306.6666666666667</ele><time>2026-05-01T13:31:06Z</time></trkpt><trkpt lat="44.541621551887815" lon="8.938641695655848"><ele>311.3333333333333</ele><time>2026-05-01T13:31:07Z</time></trkpt><trkpt lat="44.54175139790777" lon="8.938758181552936"><ele>316.0</ele><time>2026-05-01T13:31:08Z</time></trkpt><trkpt lat="44.541885407753426" lon="8.938847312321242"><ele>316.0</ele><time>2026-05-01T13:31:09Z</time></trkpt><trkpt lat="44.542006070187746" lon="8.938859499696221"><ele>316.0</ele><time>2026-05-01T13:31:10Z</time></trkpt><trkpt lat="44.5421049931867" lon="8.938913914397837"><ele>316.0</ele><time>2026-05-01T13:31:11Z</time></trkpt><trkpt lat="44.54219128067974" lon="8.938961081581455"><ele>316.0</ele><time>2026-05-01T13:31:12Z</time></trkpt><trkpt lat="44.54227293829142" lon="8.939024503076778"><ele>316.0</ele><time>2026-05-01T13:31:13Z</time></trkpt><trkpt lat="44.542347876788554" lon="8.939112787955013"><ele>318.6</ele><time>2026-05-01T13:31:14Z</time></trkpt><trkpt lat="44.5424203292478" lon="8.939229054379298"><ele>321.20000000000005</ele><time>2026-05-01T13:31:15Z</time></trkpt><trkpt lat="44.54250921165302" lon="8.939338972230546"><ele>323.79999999999995</ele><time>2026-05-01T13:31:16Z</time></trkpt><trkpt lat="44.542579614580646" lon="8.939456988113214"><ele>326.4</ele><time>2026-05-01T13:31:17Z</time></trkpt><trkpt lat="44.54264664410024" lon="8.939555617605837"><ele>329.0</ele><time>2026-05-01T13:31:18Z</time></trkpt><trkpt lat="44.5427365752183" lon="8.939628240166194"><ele>329.0</ele><time>2026-05-01T13:31:19Z</time></trkpt><trkpt lat="44.542858346326284" lon="8.939671739786608"><ele>329.0</ele><time>2026-05-01T13:31:20Z</time></trkpt><trkpt lat="44.542957802038714" lon="8.939750305291849"><ele>329.0</ele><time>2026-05-01T13:31:21Z</time></trkpt><trkpt lat="44.543060239600955" lon="8.939792162241494"><ele>329.0</ele><time>2026-05-01T13:31:22Z</time></trkpt><trkpt lat="44.54313291194991" lon="8.939852829306192"><ele>329.0</ele><time>2026-05-01T13:31:23Z</time></trkpt><trkpt lat="44.54322958359641" lon="8.939914538436302"><ele>326.5</ele><time>2026-05-01T13:31:25Z</time></trkpt><trkpt lat="44.54330378694673" lon="8.939954083777975"><ele>324.0</ele><time>2026-05-01T13:31:27.001Z</time></trkpt><trkpt lat="44.54338411044076" lon="8.939985270770443"><ele>321.5</ele><time>2026-05-01T13:31:29.001Z</time></trkpt><trkpt lat="44.54347025147141" lon="8.940010166758755"><ele>319.0</ele><time>2026-05-01T13:31:31.001Z</time></trkpt><trkpt lat="44.543569350000425" lon="8.940045080294022"><ele>316.5</ele><time>2026-05-01T13:31:33.001Z</time></trkpt><trkpt lat="44.54364366751729" lon="8.94009929963287"><ele>314.0</ele><time>2026-05-01T13:31:35.001Z</time></trkpt><trkpt lat="44.54358719498585" lon="8.940203331975242"><ele>314.0</ele><time>2026-05-01T13:31:37.001Z</time></trkpt><trkpt lat="44.543511868841335" lon="8.940160293890338"><ele>314.0</ele><time>2026-05-01T13:31:38.001Z</time></trkpt><trkpt lat="44.543413723125425" lon="8.9401391938636"><ele>314.0</ele><time>2026-05-01T13:31:39.001Z</time></trkpt><trkpt lat="44.54329249944462" lon="8.94009817474508"><ele>314.0</ele><time>2026-05-01T13:31:40.001Z</time></trkpt><trkpt lat="44.543157946010275" lon="8.940060603898196"><ele>314.0</ele><time>2026-05-01T13:31:41.001Z</time></trkpt><trkpt lat="44.54302886986401" lon="8.940026549976892"><ele>314.0</ele><time>2026-05-01T13:31:42.001Z</time></trkpt><trkpt lat="44.542917737237026" lon="8.939996794037496"><ele>314.0</ele><time>2026-05-01T13:31:43.001Z</time></trkpt><trkpt lat="44.54283250414827" lon="8.939972571553657"><ele>314.0</ele><time>2026-05-01T13:31:44.001Z</time></trkpt><trkpt lat="44.54275970962943" lon="8.93995323702638"><ele>314.0</ele><time>2026-05-01T13:31:45.001Z</time></trkpt><trkpt lat="44.54269675393012" lon="8.939949433811394"><ele>314.0</ele><time>2026-05-01T13:31:46.001Z</time></trkpt><trkpt lat="44.54258143697466" lon="8.939927600657509"><ele>316.5</ele><time>2026-05-01T13:31:48.001Z</time></trkpt><trkpt lat="44.54252188890488" lon="8.9398904056096"><ele>319.0</ele><time>2026-05-01T13:31:49.001Z</time></trkpt><trkpt lat="44.54246479164984" lon="8.939850550034228"><ele>321.5</ele><time>2026-05-01T13:31:50.001Z</time></trkpt><trkpt lat="44.54234887221721" lon="8.939772667510518"><ele>324.0</ele><time>2026-05-01T13:31:52.001Z</time></trkpt><trkpt lat="44.542276449666254" lon="8.939736619639572"><ele>326.5</ele><time>2026-05-01T13:31:53.001Z</time></trkpt><trkpt lat="44.54218959091327" lon="8.939709464181506"><ele>329.0</ele><time>2026-05-01T13:31:54.001Z</time></trkpt><trkpt lat="44.5420942402791" lon="8.939670613782468"><ele>331.1666666666667</ele><time>2026-05-01T13:31:55.001Z</time></trkpt><trkpt lat="44.541992004391275" lon="8.939655960955124"><ele>333.33333333333337</ele><time>2026-05-01T13:31:56.001Z</time></trkpt><trkpt lat="44.541905170499405" lon="8.93966079143683"><ele>335.5</ele><time>2026-05-01T13:31:57.001Z</time></trkpt><trkpt lat="44.54182408852776" lon="8.93964479609525"><ele>337.6666666666667</ele><time>2026-05-01T13:31:58.001Z</time></trkpt><trkpt lat="44.54175153991706" lon="8.939597648563328"><ele>339.8333333333333</ele><time>2026-05-01T13:31:59.001Z</time></trkpt><trkpt lat="44.541674391839265" lon="8.93957403705671"><ele>342.0</ele><time>2026-05-01T13:32:00.001Z</time></trkpt><trkpt lat="44.54160437997845" lon="8.939529931044692"><ele>342.0</ele><time>2026-05-01T13:32:01.001Z</time></trkpt><trkpt lat="44.54153571015577" lon="8.939481741518483"><ele>342.0</ele><time>2026-05-01T13:32:02.001Z</time></trkpt><trkpt lat="44.54147081863473" lon="8.939427912865732"><ele>342.0</ele><time>2026-05-01T13:32:03.001Z</time></trkpt><trkpt lat="44.541410651271455" lon="8.939389133122225"><ele>342.0</ele><time>2026-05-01T13:32:04.001Z</time></trkpt><trkpt lat="44.54135545925812" lon="8.939346358325489"><ele>342.0</ele><time>2026-05-01T13:32:05.001Z</time></trkpt><trkpt lat="44.541291715750624" lon="8.939390208498523"><ele>342.0</ele><time>2026-05-01T13:32:06.001Z</time></trkpt><trkpt lat="44.54122360614024" lon="8.939543980334275"><ele>339.6666666666667</ele><time>2026-05-01T13:32:08.001Z</time></trkpt><trkpt lat="44.541197263427385" lon="8.939651593378716"><ele>337.3333333333333</ele><time>2026-05-01T13:32:09.001Z</time></trkpt><trkpt lat="44.54114366696889" lon="8.939729792651528"><ele>335.0</ele><time>2026-05-01T13:32:10.001Z</time></trkpt><trkpt lat="44.541095989455165" lon="8.939800454917433"><ele>332.66666666666663</ele><time>2026-05-01T13:32:11.001Z</time></trkpt><trkpt lat="44.5410005140389" lon="8.939912107177141"><ele>330.3333333333333</ele><time>2026-05-01T13:32:13.001Z</time></trkpt><trkpt lat="44.54093728417864" lon="8.939959981743538"><ele>328.0</ele><time>2026-05-01T13:32:14.001Z</time></trkpt><trkpt lat="44.54087011357802" lon="8.940016614521136"><ele>331.66666666666663</ele><time>2026-05-01T13:32:15.001Z</time></trkpt><trkpt lat="44.540817597253316" lon="8.940068124731576"><ele>335.3333333333333</ele><time>2026-05-01T13:32:16.001Z</time></trkpt><trkpt lat="44.540744681373376" lon="8.94014272570694"><ele>339.0</ele><time>2026-05-01T13:32:18.001Z</time></trkpt><trkpt lat="44.540688520876614" lon="8.940209378830307"><ele>342.6666666666667</ele><time>2026-05-01T13:32:20.001Z</time></trkpt><trkpt lat="44.54063280657172" lon="8.94031579842409"><ele>346.33333333333337</ele><time>2026-05-01T13:32:22.001Z</time></trkpt><trkpt lat="44.54062235603036" lon="8.940415930842939"><ele>350.0</ele><time>2026-05-01T13:32:23.001Z</time></trkpt><trkpt lat="44.54062167648434" lon="8.940513429557315"><ele>350.0</ele><time>2026-05-01T13:32:24.001Z</time></trkpt><trkpt lat="44.5406048636414" lon="8.940643516803668"><ele>350.0</ele><time>2026-05-01T13:32:25.001Z</time></trkpt><trkpt lat="44.54055654361439" lon="8.940700708117166"><ele>350.0</ele><time>2026-05-01T13:32:26.001Z</time></trkpt><trkpt lat="44.540467190674626" lon="8.94083548907351"><ele>350.0</ele><time>2026-05-01T13:32:28.001Z</time></trkpt><trkpt lat="44.54043406348522" lon="8.940931479399259"><ele>350.0</ele><time>2026-05-01T13:32:29.001Z</time></trkpt><trkpt lat="44.540409651864486" lon="8.941070403283279"><ele>351.83333333333337</ele><time>2026-05-01T13:32:31.001Z</time></trkpt><trkpt lat="44.54040858744485" lon="8.941169648812027"><ele>353.6666666666667</ele><time>2026-05-01T13:32:33.001Z</time></trkpt><trkpt lat="44.54046937546154" lon="8.94122752279645"><ele>355.5</ele><time>2026-05-01T13:32:35.001Z</time></trkpt><trkpt lat="44.54052420602575" lon="8.941155774994906"><ele>357.3333333333333</ele><time>2026-05-01T13:32:36.001Z</time></trkpt><trkpt lat="44.540503386795606" lon="8.941044437124654"><ele>359.16666666666663</ele><time>2026-05-01T13:32:37.001Z</time></trkpt><trkpt lat="44.540521146724615" lon="8.940946641386368"><ele>361.0</ele><time>2026-05-01T13:32:39.001Z</time></trkpt><trkpt lat="44.5405983978429" lon="8.940967501647624"><ele>361.0</ele><time>2026-05-01T13:32:42Z</time></trkpt><trkpt lat="44.540599294960636" lon="8.941069431303852"><ele>361.0</ele><time>2026-05-01T13:32:43Z</time></trkpt><trkpt lat="44.54056260724621" lon="8.94117098879979"><ele>361.0</ele><time>2026-05-01T13:32:44Z</time></trkpt><trkpt lat="44.5404581014496" lon="8.941262124767094"><ele>361.0</ele><time>2026-05-01T13:32:46Z</time></trkpt><trkpt lat="44.54041610681249" lon="8.941370462981904"><ele>361.0</ele><time>2026-05-01T13:32:48Z</time></trkpt><trkpt lat="44.540416618390566" lon="8.941459694333107"><ele>361.0</ele><time>2026-05-01T13:32:49Z</time></trkpt><trkpt lat="44.5404456156557" lon="8.9415414894514"><ele>361.0</ele><time>2026-05-01T13:32:50Z</time></trkpt><trkpt lat="44.54047236607233" lon="8.941625163554006"><ele>361.0</ele><time>2026-05-01T13:32:51Z</time></trkpt><trkpt lat="44.54057344227699" lon="8.94173070822951"><ele>361.0</ele><time>2026-05-01T13:32:52Z</time></trkpt><trkpt lat="44.54067414278171" lon="8.941833768448443"><ele>361.0</ele><time>2026-05-01T13:32:53Z</time></trkpt><trkpt lat="44.540771114577915" lon="8.941921145094124"><ele>361.0</ele><time>2026-05-01T13:32:54Z</time></trkpt><trkpt lat="44.5408928199354" lon="8.942028626934121"><ele>359.5</ele><time>2026-05-01T13:32:55Z</time></trkpt><trkpt lat="44.54092571286718" lon="8.942158840718788"><ele>358.0</ele><time>2026-05-01T13:32:56Z</time></trkpt><trkpt lat="44.5409246034278" lon="8.94229944547017"><ele>356.5</ele><time>2026-05-01T13:32:57Z</time></trkpt><trkpt lat="44.54091209469376" lon="8.942403820988527"><ele>355.0</ele><time>2026-05-01T13:32:58Z</time></trkpt><trkpt lat="44.54093340660388" lon="8.942496641200945"><ele>353.5</ele><time>2026-05-01T13:32:59Z</time></trkpt><trkpt lat="44.541002600296046" lon="8.942588196126065"><ele>352.0</ele><time>2026-05-01T13:33:00Z</time></trkpt><trkpt lat="44.541070640424486" lon="8.942683667805607"><ele>352.5</ele><time>2026-05-01T13:33:01Z</time></trkpt><trkpt lat="44.54114386363089" lon="8.942756875040786"><ele>353.0</ele><time>2026-05-01T13:33:02Z</time></trkpt><trkpt lat="44.54121307369098" lon="8.942821129593135"><ele>353.5</ele><time>2026-05-01T13:33:03Z</time></trkpt><trkpt lat="44.54128469140724" lon="8.942882531441743"><ele>354.0</ele><time>2026-05-01T13:33:04Z</time></trkpt><trkpt lat="44.54136152408821" lon="8.942941188428739"><ele>354.5</ele><time>2026-05-01T13:33:05Z</time></trkpt><trkpt lat="44.541438444979704" lon="8.942993516580072"><ele>355.0</ele><time>2026-05-01T13:33:06Z</time></trkpt><trkpt lat="44.54151597279678" lon="8.943035725466967"><ele>355.0</ele><time>2026-05-01T13:33:07Z</time></trkpt><trkpt lat="44.541593798978354" lon="8.943069715777028"><ele>355.0</ele><time>2026-05-01T13:33:08Z</time></trkpt><trkpt lat="44.54167484126054" lon="8.943095770543017"><ele>355.0</ele><time>2026-05-01T13:33:09Z</time></trkpt><trkpt lat="44.541739879344455" lon="8.943111891255494"><ele>355.0</ele><time>2026-05-01T13:33:10Z</time></trkpt><trkpt lat="44.54182575503901" lon="8.943128875608604"><ele>355.0</ele><time>2026-05-01T13:33:12Z</time></trkpt><trkpt lat="44.541958403244735" lon="8.943190979332932"><ele>355.0</ele><time>2026-05-01T13:33:14Z</time></trkpt><trkpt lat="44.54200644325572" lon="8.943260296408031"><ele>355.0</ele><time>2026-05-01T13:33:15Z</time></trkpt><trkpt lat="44.54203260554684" lon="8.943399029431793"><ele>355.0</ele><time>2026-05-01T13:33:17Z</time></trkpt><trkpt lat="44.54208943645265" lon="8.94355516051645"><ele>355.0</ele><time>2026-05-01T13:33:19Z</time></trkpt><trkpt lat="44.54211899627644" lon="8.943641421894961"><ele>355.0</ele><time>2026-05-01T13:33:20Z</time></trkpt><trkpt lat="44.5421812442863" lon="8.943776893348115"><ele>358.5</ele><time>2026-05-01T13:33:22Z</time></trkpt><trkpt lat="44.54230327749468" lon="8.943876902220229"><ele>362.0</ele><time>2026-05-01T13:33:24Z</time></trkpt><trkpt lat="44.54242455483319" lon="8.943891981272863"><ele>365.5</ele><time>2026-05-01T13:33:25Z</time></trkpt><trkpt lat="44.542570479836385" lon="8.943892368793282"><ele>369.0</ele><time>2026-05-01T13:33:26Z</time></trkpt><trkpt lat="44.54271253489561" lon="8.94389291934639"><ele>369.0</ele><time>2026-05-01T13:33:27.001Z</time></trkpt><trkpt lat="44.54282532969756" lon="8.943904898384696"><ele>369.0</ele><time>2026-05-01T13:33:28.001Z</time></trkpt><trkpt lat="44.542913827289105" lon="8.94391409871784"><ele>369.0</ele><time>2026-05-01T13:33:29.001Z</time></trkpt><trkpt lat="44.54295022127948" lon="8.944020372456068"><ele>369.0</ele><time>2026-05-01T13:33:30.001Z</time></trkpt><trkpt lat="44.54295836116729" lon="8.944124948808037"><ele>369.0</ele><time>2026-05-01T13:33:31.001Z</time></trkpt><trkpt lat="44.54295633469639" lon="8.944262527995411"><ele>370.6666666666667</ele><time>2026-05-01T13:33:32.001Z</time></trkpt><trkpt lat="44.54294224800999" lon="8.9444067641971"><ele>372.3333333333333</ele><time>2026-05-01T13:33:33.001Z</time></trkpt><trkpt lat="44.54294462033387" lon="8.944522173670231"><ele>374.0</ele><time>2026-05-01T13:33:34.001Z</time></trkpt><trkpt lat="44.542962268748276" lon="8.944625409883173"><ele>375.66666666666663</ele><time>2026-05-01T13:33:35.001Z</time></trkpt><trkpt lat="44.54300472367873" lon="8.944715266016743"><ele>377.3333333333333</ele><time>2026-05-01T13:33:36.001Z</time></trkpt><trkpt lat="44.54306841440572" lon="8.9447769538201"><ele>379.0</ele><time>2026-05-01T13:33:37.001Z</time></trkpt><trkpt lat="44.54315512228256" lon="8.94478467989991"><ele>379.0</ele><time>2026-05-01T13:33:38.001Z</time></trkpt><trkpt lat="44.54326011541663" lon="8.944728457608"><ele>379.0</ele><time>2026-05-01T13:33:39.001Z</time></trkpt><trkpt lat="44.543375539171606" lon="8.944658926511881"><ele>379.0</ele><time>2026-05-01T13:33:40.001Z</time></trkpt><trkpt lat="44.54346546725884" lon="8.944568603979773"><ele>379.0</ele><time>2026-05-01T13:33:41.001Z</time></trkpt><trkpt lat="44.543575067036784" lon="8.944601031708826"><ele>379.0</ele><time>2026-05-01T13:33:42.001Z</time></trkpt><trkpt lat="44.543700859242314" lon="8.944609684937012"><ele>379.0</ele><time>2026-05-01T13:33:43.001Z</time></trkpt><trkpt lat="44.543842923438746" lon="8.944609201947129"><ele>379.0</ele><time>2026-05-01T13:33:44.001Z</time></trkpt><trkpt lat="44.54395846418289" lon="8.944675063629862"><ele>379.0</ele><time>2026-05-01T13:33:45.001Z</time></trkpt><trkpt lat="44.54407873827501" lon="8.944736370115129"><ele>382.75</ele><time>2026-05-01T13:33:46.001Z</time></trkpt><trkpt lat="44.54418816209831" lon="8.944804034549648"><ele>386.5</ele><time>2026-05-01T13:33:47.001Z</time></trkpt><trkpt lat="44.544286886694735" lon="8.94486611371619"><ele>390.25</ele><time>2026-05-01T13:33:48.001Z</time></trkpt><trkpt lat="44.54437472823958" lon="8.944965050632314"><ele>394.0</ele><time>2026-05-01T13:33:49.001Z</time></trkpt><trkpt lat="44.54446856323682" lon="8.945060214056078"><ele>398.5</ele><time>2026-05-01T13:33:50.001Z</time></trkpt><trkpt lat="44.544567449815375" lon="8.945168785090107"><ele>403.0</ele><time>2026-05-01T13:33:51.001Z</time></trkpt><trkpt lat="44.54466980365086" lon="8.94530796971491"><ele>407.5</ele><time>2026-05-01T13:33:52.001Z</time></trkpt><trkpt lat="44.54475943997658" lon="8.945450663351538"><ele>412.0</ele><time>2026-05-01T13:33:53.001Z</time></trkpt><trkpt lat="44.54482868075188" lon="8.945566400352297"><ele>412.00000000000006</ele><time>2026-05-01T13:33:54.001Z</time></trkpt><trkpt lat="44.544881499592634" lon="8.945655795963418"><ele>412.0</ele><time>2026-05-01T13:33:55.001Z</time></trkpt><trkpt lat="44.54491437000937" lon="8.94573426370344"><ele>412.0</ele><time>2026-05-01T13:33:56.001Z</time></trkpt><trkpt lat="44.54493204561675" lon="8.94582295323311"><ele>412.0</ele><time>2026-05-01T13:33:57.001Z</time></trkpt><trkpt lat="44.54490788700294" lon="8.945929606629882"><ele>412.00000000000006</ele><time>2026-05-01T13:33:58.001Z</time></trkpt><trkpt lat="44.544838972997326" lon="8.945986451371772"><ele>412.0</ele><time>2026-05-01T13:33:59.001Z</time></trkpt><trkpt lat="44.544771507299345" lon="8.946071526563701"><ele>413.00000000000006</ele><time>2026-05-01T13:34:00.001Z</time></trkpt><trkpt lat="44.54472308073819" lon="8.946159899631015"><ele>414.0</ele><time>2026-05-01T13:34:01.001Z</time></trkpt><trkpt lat="44.54471858298572" lon="8.946268154925635"><ele>415.0</ele><time>2026-05-01T13:34:02.001Z</time></trkpt><trkpt lat="44.54475345340294" lon="8.946371706623829"><ele>416.0</ele><time>2026-05-01T13:34:03.001Z</time></trkpt><trkpt lat="44.544825787457" lon="8.94647294884926"><ele>417.00000000000006</ele><time>2026-05-01T13:34:04.001Z</time></trkpt><trkpt lat="44.54487578774583" lon="8.94657966877108"><ele>418.0</ele><time>2026-05-01T13:34:05.001Z</time></trkpt><trkpt lat="44.544876794975636" lon="8.946690263285209"><ele>419.33333333333337</ele><time>2026-05-01T13:34:06.001Z</time></trkpt><trkpt lat="44.54482799044942" lon="8.946750401450114"><ele>420.6666666666667</ele><time>2026-05-01T13:34:07.001Z</time></trkpt><trkpt lat="44.54475707832303" lon="8.946763546936747"><ele>422.0</ele><time>2026-05-01T13:34:08.001Z</time></trkpt><trkpt lat="44.54469511727839" lon="8.94679638893848"><ele>423.33333333333337</ele><time>2026-05-01T13:34:09.001Z</time></trkpt><trkpt lat="44.544660800447915" lon="8.946870648432464"><ele>424.6666666666667</ele><time>2026-05-01T13:34:10.001Z</time></trkpt><trkpt lat="44.544673537674576" lon="8.946993813766584"><ele>426.0</ele><time>2026-05-01T13:34:11.001Z</time></trkpt><trkpt lat="44.544696837929365" lon="8.947149456675422"><ele>426.0</ele><time>2026-05-01T13:34:12.001Z</time></trkpt><trkpt lat="44.54470603252698" lon="8.947331938447475"><ele>426.0</ele><time>2026-05-01T13:34:13.001Z</time></trkpt><trkpt lat="44.54471648300403" lon="8.94753604050382"><ele>426.0</ele><time>2026-05-01T13:34:14.001Z</time></trkpt><trkpt lat="44.544726818105275" lon="8.947737889019592"><ele>426.0</ele><time>2026-05-01T13:34:15.001Z</time></trkpt><trkpt lat="44.54475376802786" lon="8.947938351210986"><ele>428.25</ele><time>2026-05-01T13:34:16.001Z</time></trkpt><trkpt lat="44.544759999489" lon="8.948137439780876"><ele>430.5</ele><time>2026-05-01T13:34:17.001Z</time></trkpt><trkpt lat="44.544767461047456" lon="8.94833390148627"><ele>432.75</ele><time>2026-05-01T13:34:18.001Z</time></trkpt><trkpt lat="44.54477564984733" lon="8.94849858682615"><ele>435.0</ele><time>2026-05-01T13:34:19.001Z</time></trkpt><trkpt lat="44.54478287427788" lon="8.948625078935747"><ele>435.4</ele><time>2026-05-01T13:34:20.001Z</time></trkpt><trkpt lat="44.54478886229957" lon="8.94872697782304"><ele>435.8</ele><time>2026-05-01T13:34:21.001Z</time></trkpt><trkpt lat="44.544817389745056" lon="8.94887809077973"><ele>436.20000000000005</ele><time>2026-05-01T13:34:23.001Z</time></trkpt><trkpt lat="44.54494245623813" lon="8.948887210862658"><ele>436.6</ele><time>2026-05-01T13:34:25.001Z</time></trkpt><trkpt lat="44.545003579720394" lon="8.948784235920613"><ele>437.0</ele><time>2026-05-01T13:34:26.001Z</time></trkpt><trkpt lat="44.54506888605258" lon="8.948650602573558"><ele>437.0</ele><time>2026-05-01T13:34:27.001Z</time></trkpt><trkpt lat="44.54516618711777" lon="8.948527049551004"><ele>437.0</ele><time>2026-05-01T13:34:28.001Z</time></trkpt><trkpt lat="44.545263416324595" lon="8.948383871086895"><ele>437.0</ele><time>2026-05-01T13:34:29.001Z</time></trkpt><trkpt lat="44.54533662397229" lon="8.948217449687634"><ele>437.0</ele><time>2026-05-01T13:34:30.001Z</time></trkpt><trkpt lat="44.545416887042684" lon="8.948071443590692"><ele>441.8</ele><time>2026-05-01T13:34:31.001Z</time></trkpt><trkpt lat="44.54550690732442" lon="8.94798704440602"><ele>446.6</ele><time>2026-05-01T13:34:32.001Z</time></trkpt><trkpt lat="44.545598041222846" lon="8.947919923691346"><ele>451.40000000000003</ele><time>2026-05-01T13:34:33.001Z</time></trkpt><trkpt lat="44.54568941377743" lon="8.947837236589613"><ele>456.20000000000005</ele><time>2026-05-01T13:34:34.001Z</time></trkpt><trkpt lat="44.54579120642791" lon="8.947766507415418"><ele>461.0</ele><time>2026-05-01T13:34:35.001Z</time></trkpt><trkpt lat="44.54587899018999" lon="8.947668167791806"><ele>461.5</ele><time>2026-05-01T13:34:36.001Z</time></trkpt><trkpt lat="44.54596388276419" lon="8.947538910681645"><ele>462.0</ele><time>2026-05-01T13:34:37.001Z</time></trkpt><trkpt lat="44.54606322137856" lon="8.947387888996003"><ele>462.5</ele><time>2026-05-01T13:34:38.001Z</time></trkpt><trkpt lat="44.546165619112315" lon="8.94721668984131"><ele>463.0</ele><time>2026-05-01T13:34:39.001Z</time></trkpt><trkpt lat="44.546240736724876" lon="8.947083434086636"><ele>463.0</ele><time>2026-05-01T13:34:40.001Z</time></trkpt><trkpt lat="44.546304828859526" lon="8.94696963887439"><ele>462.99999999999994</ele><time>2026-05-01T13:34:41.001Z</time></trkpt><trkpt lat="44.54636306204238" lon="8.946860797901675"><ele>462.99999999999994</ele><time>2026-05-01T13:34:42.001Z</time></trkpt><trkpt lat="44.5464193312811" lon="8.946762214110697"><ele>463.0</ele><time>2026-05-01T13:34:43.001Z</time></trkpt><trkpt lat="44.54646771366964" lon="8.946705079973109"><ele>463.0</ele><time>2026-05-01T13:34:44.001Z</time></trkpt><trkpt lat="44.5465921559426" lon="8.94668796314403"><ele>463.0</ele><time>2026-05-01T13:34:46.001Z</time></trkpt><trkpt lat="44.54665313236884" lon="8.946713443413477"><ele>463.0</ele><time>2026-05-01T13:34:47.001Z</time></trkpt><trkpt lat="44.546656284670824" lon="8.946925719993542"><ele>463.0</ele><time>2026-05-01T13:34:48.001Z</time></trkpt><trkpt lat="44.54669883454191" lon="8.947080018863947"><ele>463.0</ele><time>2026-05-01T13:34:49.001Z</time></trkpt><trkpt lat="44.546711228292835" lon="8.947243234079963"><ele>463.0</ele><time>2026-05-01T13:34:50.001Z</time></trkpt><trkpt lat="44.5466905669083" lon="8.947384076928603"><ele>462.99999999999994</ele><time>2026-05-01T13:34:51.001Z</time></trkpt><trkpt lat="44.54664610849602" lon="8.947542993655844"><ele>462.99999999999994</ele><time>2026-05-01T13:34:52Z</time></trkpt><trkpt lat="44.54663100375409" lon="8.947697861331928"><ele>463.0</ele><time>2026-05-01T13:34:53Z</time></trkpt><trkpt lat="44.54666973168132" lon="8.947834355259818"><ele>463.0</ele><time>2026-05-01T13:34:54Z</time></trkpt><trkpt lat="44.54666158784378" lon="8.947976712367616"><ele>466.2</ele><time>2026-05-01T13:34:55Z</time></trkpt><trkpt lat="44.54661876849045" lon="8.948104871038623"><ele>469.4</ele><time>2026-05-01T13:34:56Z</time></trkpt><trkpt lat="44.54654247091593" lon="8.948194749561589"><ele>472.59999999999997</ele><time>2026-05-01T13:34:57Z</time></trkpt><trkpt lat="44.54644981247778" lon="8.948311247797987"><ele>475.79999999999995</ele><time>2026-05-01T13:34:58Z</time></trkpt><trkpt lat="44.54637153971654" lon="8.948418470206809"><ele>479.0</ele><time>2026-05-01T13:34:59Z</time></trkpt><trkpt lat="44.54632709712757" lon="8.948528685274434"><ele>478.49999999999994</ele><time>2026-05-01T13:35:00Z</time></trkpt><trkpt lat="44.54628995589215" lon="8.948625475140178"><ele>478.0</ele><time>2026-05-01T13:35:01Z</time></trkpt><trkpt lat="44.54627860780513" lon="8.948755021266146"><ele>477.5</ele><time>2026-05-01T13:35:02Z</time></trkpt><trkpt lat="44.546243904552995" lon="8.94888270225572"><ele>477.0</ele><time>2026-05-01T13:35:03Z</time></trkpt><trkpt lat="44.546233230208244" lon="8.949008315721748"><ele>476.49999999999994</ele><time>2026-05-01T13:35:04Z</time></trkpt><trkpt lat="44.546203467078826" lon="8.9491163976536"><ele>476.0</ele><time>2026-05-01T13:35:05Z</time></trkpt><trkpt lat="44.54618857117309" lon="8.949223192082309"><ele>478.4</ele><time>2026-05-01T13:35:06Z</time></trkpt><trkpt lat="44.54621969379925" lon="8.949331156587652"><ele>480.8</ele><time>2026-05-01T13:35:07Z</time></trkpt><trkpt lat="44.54629245244978" lon="8.949397994706171"><ele>483.19999999999993</ele><time>2026-05-01T13:35:08Z</time></trkpt><trkpt lat="44.5463850094121" lon="8.949391180059802"><ele>485.59999999999997</ele><time>2026-05-01T13:35:09Z</time></trkpt><trkpt lat="44.54649334923652" lon="8.949305435173843"><ele>488.0</ele><time>2026-05-01T13:35:10Z</time></trkpt><trkpt lat="44.546600359477935" lon="8.949176389562023"><ele>488.0</ele><time>2026-05-01T13:35:11Z</time></trkpt><trkpt lat="44.54672377851351" lon="8.949114656858287"><ele>488.0</ele><time>2026-05-01T13:35:12Z</time></trkpt><trkpt lat="44.54684299621959" lon="8.949063884765755"><ele>488.0</ele><time>2026-05-01T13:35:13Z</time></trkpt><trkpt lat="44.54694861135285" lon="8.949081078792535"><ele>488.0</ele><time>2026-05-01T13:35:14Z</time></trkpt><trkpt lat="44.54703927952973" lon="8.949149189495929"><ele>490.25</ele><time>2026-05-01T13:35:15Z</time></trkpt><trkpt lat="44.54712298385588" lon="8.949267416803421"><ele>492.5</ele><time>2026-05-01T13:35:16Z</time></trkpt><trkpt lat="44.54722016220395" lon="8.949391751692222"><ele>494.75</ele><time>2026-05-01T13:35:17Z</time></trkpt><trkpt lat="44.5472485102483" lon="8.949550473678954"><ele>497.0</ele><time>2026-05-01T13:35:18Z</time></trkpt><trkpt lat="44.54725886490712" lon="8.949698163369568"><ele>497.0</ele><time>2026-05-01T13:35:19Z</time></trkpt><trkpt lat="44.54728761175431" lon="8.949843421033941"><ele>497.00000000000006</ele><time>2026-05-01T13:35:20Z</time></trkpt><trkpt lat="44.54731234983522" lon="8.949969443521926"><ele>497.00000000000006</ele><time>2026-05-01T13:35:21Z</time></trkpt><trkpt lat="44.54738111795722" lon="8.950058197132623"><ele>497.0</ele><time>2026-05-01T13:35:22Z</time></trkpt><trkpt lat="44.54747237598833" lon="8.950094253421561"><ele>497.0</ele><time>2026-05-01T13:35:23Z</time></trkpt><trkpt lat="44.547569190184376" lon="8.950088140639888"><ele>499.40000000000003</ele><time>2026-05-01T13:35:24Z</time></trkpt><trkpt lat="44.547655524554735" lon="8.950101667566244"><ele>501.80000000000007</ele><time>2026-05-01T13:35:25Z</time></trkpt><trkpt lat="44.547719955163885" lon="8.950202529707374"><ele>504.2</ele><time>2026-05-01T13:35:26Z</time></trkpt><trkpt lat="44.54778443910365" lon="8.950342096554227"><ele>506.6</ele><time>2026-05-01T13:35:27Z</time></trkpt><trkpt lat="44.54787837826984" lon="8.95046567444424"><ele>509.0</ele><time>2026-05-01T13:35:28Z</time></trkpt><trkpt lat="44.54796262247194" lon="8.950567376778595"><ele>509.0</ele><time>2026-05-01T13:35:29Z</time></trkpt><trkpt lat="44.54806760403717" lon="8.950578980373772"><ele>509.0</ele><time>2026-05-01T13:35:30Z</time></trkpt><trkpt lat="44.5481818450838" lon="8.950547798696673"><ele>509.0</ele><time>2026-05-01T13:35:31Z</time></trkpt><trkpt lat="44.54829863760989" lon="8.950533245243866"><ele>509.0</ele><time>2026-05-01T13:35:32.001Z</time></trkpt><trkpt lat="44.5484126485561" lon="8.950563709355862"><ele>509.0</ele><time>2026-05-01T13:35:33.001Z</time></trkpt><trkpt lat="44.54851352931423" lon="8.950644292419774"><ele>509.0</ele><time>2026-05-01T13:35:34.001Z</time></trkpt><trkpt lat="44.54857534508451" lon="8.95077693257563"><ele>509.0</ele><time>2026-05-01T13:35:35.001Z</time></trkpt><trkpt lat="44.54866397462712" lon="8.950940054182718"><ele>509.0</ele><time>2026-05-01T13:35:36.001Z</time></trkpt><trkpt lat="44.54875898514928" lon="8.951126395694407"><ele>512.0</ele><time>2026-05-01T13:35:37.001Z</time></trkpt><trkpt lat="44.54888672173041" lon="8.951283651842402"><ele>515.0</ele><time>2026-05-01T13:35:38.001Z</time></trkpt><trkpt lat="44.54902298336066" lon="8.951428627285678"><ele>518.0</ele><time>2026-05-01T13:35:39.001Z</time></trkpt><trkpt lat="44.54911978345749" lon="8.951580789405757"><ele>518.0</ele><time>2026-05-01T13:35:40.001Z</time></trkpt><trkpt lat="44.549214649087006" lon="8.951699422055833"><ele>518.0</ele><time>2026-05-01T13:35:41.001Z</time></trkpt><trkpt lat="44.54930444707179" lon="8.951779463741824"><ele>518.0</ele><time>2026-05-01T13:35:42.001Z</time></trkpt><trkpt lat="44.54937309592759" lon="8.951850525899859"><ele>518.0</ele><time>2026-05-01T13:35:43.001Z</time></trkpt><trkpt lat="44.54948376172304" lon="8.951836961189885"><ele>518.0</ele><time>2026-05-01T13:35:44.001Z</time></trkpt><trkpt lat="44.549605914871414" lon="8.951860928419247"><ele>524.0</ele><time>2026-05-01T13:35:45.001Z</time></trkpt><trkpt lat="44.54971376311037" lon="8.951894853662639"><ele>530.0</ele><time>2026-05-01T13:35:46.001Z</time></trkpt><trkpt lat="44.54981644428833" lon="8.951932816399598"><ele>536.0</ele><time>2026-05-01T13:35:47.001Z</time></trkpt><trkpt lat="44.549909464912055" lon="8.951959330247707"><ele>542.0</ele><time>2026-05-01T13:35:48.001Z</time></trkpt><trkpt lat="44.54999349466448" lon="8.951939786960802"><ele>548.0</ele><time>2026-05-01T13:35:49.001Z</time></trkpt><trkpt lat="44.55007325268239" lon="8.951879465181323"><ele>542.5</ele><time>2026-05-01T13:35:50.001Z</time></trkpt><trkpt lat="44.5500916023607" lon="8.951704923627975"><ele>537.0</ele><time>2026-05-01T13:35:51.001Z</time></trkpt><trkpt lat="44.55012908751026" lon="8.95152887672694"><ele>531.5</ele><time>2026-05-01T13:35:52.001Z</time></trkpt><trkpt lat="44.55017406104401" lon="8.951365862838996"><ele>526.0</ele><time>2026-05-01T13:35:53.001Z</time></trkpt><trkpt lat="44.550244761462196" lon="8.95122316809956"><ele>526.0</ele><time>2026-05-01T13:35:54.001Z</time></trkpt><trkpt lat="44.5503400691989" lon="8.9510772208866"><ele>526.0</ele><time>2026-05-01T13:35:55.001Z</time></trkpt><trkpt lat="44.55041307634217" lon="8.950910441544556"><ele>526.0</ele><time>2026-05-01T13:35:56.001Z</time></trkpt><trkpt lat="44.55046690654787" lon="8.950773506708888"><ele>526.0</ele><time>2026-05-01T13:35:57.001Z</time></trkpt><trkpt lat="44.55054373004492" lon="8.95068336956645"><ele>528.8</ele><time>2026-05-01T13:35:58.001Z</time></trkpt><trkpt lat="44.55063147912103" lon="8.95060092855576"><ele>531.6</ele><time>2026-05-01T13:35:59.001Z</time></trkpt><trkpt lat="44.55073230318748" lon="8.950548978975863"><ele>534.4</ele><time>2026-05-01T13:36:00.001Z</time></trkpt><trkpt lat="44.55081798306034" lon="8.950515244845693"><ele>537.2</ele><time>2026-05-01T13:36:01.001Z</time></trkpt><trkpt lat="44.55091155543369" lon="8.950491500009004"><ele>540.0</ele><time>2026-05-01T13:36:02.001Z</time></trkpt><trkpt lat="44.55103239813703" lon="8.950492678508285"><ele>540.0</ele><time>2026-05-01T13:36:03.001Z</time></trkpt><trkpt lat="44.55117353635469" lon="8.950494371961526"><ele>540.0</ele><time>2026-05-01T13:36:04.001Z</time></trkpt><trkpt lat="44.551309055498294" lon="8.950533495770497"><ele>540.0</ele><time>2026-05-01T13:36:05.001Z</time></trkpt><trkpt lat="44.5514064795019" lon="8.950593981511057"><ele>540.0</ele><time>2026-05-01T13:36:06.001Z</time></trkpt><trkpt lat="44.551466572984175" lon="8.950625291388796"><ele>542.4</ele><time>2026-05-01T13:36:07.001Z</time></trkpt><trkpt lat="44.551516258596976" lon="8.950693424973677"><ele>544.8</ele><time>2026-05-01T13:36:10.001Z</time></trkpt><trkpt lat="44.55143111852092" lon="8.950830060910112"><ele>547.2</ele><time>2026-05-01T13:36:11.001Z</time></trkpt><trkpt lat="44.55137299624928" lon="8.950958965047427"><ele>549.6</ele><time>2026-05-01T13:36:12.001Z</time></trkpt><trkpt lat="44.55132824305602" lon="8.951115015703385"><ele>552.0</ele><time>2026-05-01T13:36:13.001Z</time></trkpt><trkpt lat="44.55128512315648" lon="8.951276933236812"><ele>551.25</ele><time>2026-05-01T13:36:14.001Z</time></trkpt><trkpt lat="44.551237059034996" lon="8.951419197341833"><ele>550.5</ele><time>2026-05-01T13:36:15.001Z</time></trkpt><trkpt lat="44.55114362501743" lon="8.951518040691708"><ele>549.75</ele><time>2026-05-01T13:36:16.001Z</time></trkpt><trkpt lat="44.551013965631746" lon="8.951580779096155"><ele>549.0</ele><time>2026-05-01T13:36:17.001Z</time></trkpt><trkpt lat="44.55088541329241" lon="8.951680981380386"><ele>553.25</ele><time>2026-05-01T13:36:18.001Z</time></trkpt><trkpt lat="44.55078576961877" lon="8.951834873565673"><ele>557.5</ele><time>2026-05-01T13:36:19.001Z</time></trkpt><trkpt lat="44.55070877770321" lon="8.951980531053529"><ele>561.75</ele><time>2026-05-01T13:36:20.001Z</time></trkpt><trkpt lat="44.550665095300126" lon="8.95212613773168"><ele>566.0</ele><time>2026-05-01T13:36:21.001Z</time></trkpt><trkpt lat="44.55065964635371" lon="8.952302225106285"><ele>566.0</ele><time>2026-05-01T13:36:22.001Z</time></trkpt><trkpt lat="44.550678904592196" lon="8.952489599231523"><ele>566.0</ele><time>2026-05-01T13:36:23.001Z</time></trkpt><trkpt lat="44.550647117677464" lon="8.952637182706901"><ele>566.0</ele><time>2026-05-01T13:36:24.001Z</time></trkpt><trkpt lat="44.55053465179719" lon="8.952711652765883"><ele>566.0</ele><time>2026-05-01T13:36:25.001Z</time></trkpt><trkpt lat="44.55040694078167" lon="8.95282406006312"><ele>572.3333333333333</ele><time>2026-05-01T13:36:26.001Z</time></trkpt><trkpt lat="44.55026766607637" lon="8.952949929441386"><ele>578.6666666666666</ele><time>2026-05-01T13:36:27.001Z</time></trkpt><trkpt lat="44.550131046770055" lon="8.953080154203398"><ele>585.0</ele><time>2026-05-01T13:36:28.001Z</time></trkpt><trkpt lat="44.549969741442254" lon="8.953107923746549"><ele>585.0</ele><time>2026-05-01T13:36:29.001Z</time></trkpt><trkpt lat="44.549800584066965" lon="8.953116399282706"><ele>585.0</ele><time>2026-05-01T13:36:30.001Z</time></trkpt><trkpt lat="44.54962771535498" lon="8.953159551181784"><ele>585.0</ele><time>2026-05-01T13:36:31.001Z</time></trkpt><trkpt lat="44.54947171302257" lon="8.953195912147022"><ele>585.75</ele><time>2026-05-01T13:36:32.001Z</time></trkpt><trkpt lat="44.54932258750736" lon="8.95319699891973"><ele>586.5</ele><time>2026-05-01T13:36:33.001Z</time></trkpt><trkpt lat="44.54918015219863" lon="8.953177929534677"><ele>587.25</ele><time>2026-05-01T13:36:34.001Z</time></trkpt><trkpt lat="44.54903122240892" lon="8.953167227866272"><ele>588.0</ele><time>2026-05-01T13:36:35.001Z</time></trkpt><trkpt lat="44.54888722809957" lon="8.953100938461407"><ele>588.0</ele><time>2026-05-01T13:36:36.001Z</time></trkpt><trkpt lat="44.54874889091611" lon="8.95307597514765"><ele>588.0</ele><time>2026-05-01T13:36:37.001Z</time></trkpt><trkpt lat="44.54864238458664" lon="8.953008218013185"><ele>588.0</ele><time>2026-05-01T13:36:38.001Z</time></trkpt><trkpt lat="44.54855414379685" lon="8.952920676496465"><ele>588.0</ele><time>2026-05-01T13:36:39.001Z</time></trkpt><trkpt lat="44.54846589769933" lon="8.952791137805468"><ele>591.25</ele><time>2026-05-01T13:36:40.001Z</time></trkpt><trkpt lat="44.54834614240781" lon="8.952665280464752"><ele>594.5</ele><time>2026-05-01T13:36:41.001Z</time></trkpt><trkpt lat="44.54823419858555" lon="8.952558795430082"><ele>597.75</ele><time>2026-05-01T13:36:42.001Z</time></trkpt><trkpt lat="44.54812760930984" lon="8.95247745857581"><ele>601.0</ele><time>2026-05-01T13:36:43.001Z</time></trkpt><trkpt lat="44.548006940212254" lon="8.952403375364794"><ele>596.0</ele><time>2026-05-01T13:36:44.001Z</time></trkpt><trkpt lat="44.54787415919988" lon="8.952353077244625"><ele>591.0</ele><time>2026-05-01T13:36:45.001Z</time></trkpt><trkpt lat="44.54773565709305" lon="8.952322227770866"><ele>586.0</ele><time>2026-05-01T13:36:46.001Z</time></trkpt><trkpt lat="44.54759965831318" lon="8.95229520784734"><ele>581.0</ele><time>2026-05-01T13:36:47.001Z</time></trkpt><trkpt lat="44.54747302545979" lon="8.95227067897307"><ele>581.0</ele><time>2026-05-01T13:36:48.001Z</time></trkpt><trkpt lat="44.54734497791459" lon="8.952239108282226"><ele>581.0</ele><time>2026-05-01T13:36:49.001Z</time></trkpt><trkpt lat="44.547223760746796" lon="8.952235304859277"><ele>581.0</ele><time>2026-05-01T13:36:50.001Z</time></trkpt><trkpt lat="44.547100947546284" lon="8.952242817967274"><ele>581.0</ele><time>2026-05-01T13:36:51.001Z</time></trkpt><trkpt lat="44.54697298558426" lon="8.952265864401573"><ele>579.5</ele><time>2026-05-01T13:36:52Z</time></trkpt><trkpt lat="44.5468547740116" lon="8.95231430954555"><ele>578.0</ele><time>2026-05-01T13:36:53Z</time></trkpt><trkpt lat="44.546753402117126" lon="8.952393819372825"><ele>576.5</ele><time>2026-05-01T13:36:54Z</time></trkpt><trkpt lat="44.54667361858437" lon="8.952506611810318"><ele>575.0</ele><time>2026-05-01T13:36:55Z</time></trkpt><trkpt lat="44.546623188444705" lon="8.952657212936582"><ele>575.0</ele><time>2026-05-01T13:36:56Z</time></trkpt><trkpt lat="44.54660255798975" lon="8.952840685437767"><ele>575.0</ele><time>2026-05-01T13:36:57Z</time></trkpt><trkpt lat="44.54659138063062" lon="8.953050785616327"><ele>575.0</ele><time>2026-05-01T13:36:58Z</time></trkpt><trkpt lat="44.546581495743254" lon="8.953252319464863"><ele>575.0</ele><time>2026-05-01T13:36:59Z</time></trkpt><trkpt lat="44.546533100561376" lon="8.953435618012037"><ele>577.5</ele><time>2026-05-01T13:37:00Z</time></trkpt><trkpt lat="44.54648906282173" lon="8.95360739393503"><ele>580.0</ele><time>2026-05-01T13:37:01Z</time></trkpt><trkpt lat="44.54645318920263" lon="8.953786058407145"><ele>582.5</ele><time>2026-05-01T13:37:02Z</time></trkpt><trkpt lat="44.546395788477405" lon="8.953956043972758"><ele>585.0</ele><time>2026-05-01T13:37:03Z</time></trkpt><trkpt lat="44.54634282014799" lon="8.954121293991621"><ele>586.25</ele><time>2026-05-01T13:37:04Z</time></trkpt><trkpt lat="44.54627874153504" lon="8.954264187332246"><ele>587.5</ele><time>2026-05-01T13:37:05Z</time></trkpt><trkpt lat="44.54620407151973" lon="8.954390781384785"><ele>588.75</ele><time>2026-05-01T13:37:06Z</time></trkpt><trkpt lat="44.546104889049246" lon="8.954465946906906"><ele>590.0</ele><time>2026-05-01T13:37:07Z</time></trkpt><trkpt lat="44.54600055472409" lon="8.954544015202755"><ele>586.0</ele><time>2026-05-01T13:37:08Z</time></trkpt><trkpt lat="44.54587192154388" lon="8.95463465563564"><ele>582.0</ele><time>2026-05-01T13:37:09Z</time></trkpt><trkpt lat="44.54571329272979" lon="8.95475509875562"><ele>578.0</ele><time>2026-05-01T13:37:10Z</time></trkpt><trkpt lat="44.54551452822773" lon="8.954869860041267"><ele>576.3333333333333</ele><time>2026-05-01T13:37:11Z</time></trkpt><trkpt lat="44.54529710659453" lon="8.954941180219173"><ele>574.6666666666666</ele><time>2026-05-01T13:37:12Z</time></trkpt><trkpt lat="44.545115000160344" lon="8.955039234652698"><ele>573.0</ele><time>2026-05-01T13:37:13Z</time></trkpt><trkpt lat="44.544960184134496" lon="8.955110912028015"><ele>576.0</ele><time>2026-05-01T13:37:14Z</time></trkpt><trkpt lat="44.54481307567876" lon="8.95517154301448"><ele>579.0</ele><time>2026-05-01T13:37:15Z</time></trkpt><trkpt lat="44.54469011113587" lon="8.955230447594065"><ele>582.0</ele><time>2026-05-01T13:37:16Z</time></trkpt><trkpt lat="44.54457747280468" lon="8.955254223429781"><ele>585.0</ele><time>2026-05-01T13:37:17Z</time></trkpt><trkpt lat="44.544478312534544" lon="8.955291772501008"><ele>585.0</ele><time>2026-05-01T13:37:18Z</time></trkpt><trkpt lat="44.54438572243201" lon="8.955325247396223"><ele>585.0</ele><time>2026-05-01T13:37:19Z</time></trkpt><trkpt lat="44.54428971522528" lon="8.95538343356237"><ele>585.0</ele><time>2026-05-01T13:37:20Z</time></trkpt><trkpt lat="44.54419970918011" lon="8.955441503244039"><ele>585.0</ele><time>2026-05-01T13:37:21Z</time></trkpt><trkpt lat="44.54412069755732" lon="8.955531087015268"><ele>585.0</ele><time>2026-05-01T13:37:22Z</time></trkpt><trkpt lat="44.5440606805766" lon="8.955627016123943"><ele>585.0</ele><time>2026-05-01T13:37:23Z</time></trkpt><trkpt lat="44.5440160206785" lon="8.955704387038915"><ele>585.0</ele><time>2026-05-01T13:37:24Z</time></trkpt><trkpt lat="44.54396743764698" lon="8.95582718781678"><ele>585.0</ele><time>2026-05-01T13:37:26Z</time></trkpt><trkpt lat="44.544028305780195" lon="8.955916500608753"><ele>585.0</ele><time>2026-05-01T13:37:27Z</time></trkpt><trkpt lat="44.54412645272843" lon="8.95593291999622"><ele>585.0</ele><time>2026-05-01T13:37:28Z</time></trkpt><trkpt lat="44.54421710786923" lon="8.955952707825869"><ele>585.1666666666666</ele><time>2026-05-01T13:37:29Z</time></trkpt><trkpt lat="44.544305801918334" lon="8.955981390895602"><ele>585.3333333333334</ele><time>2026-05-01T13:37:30Z</time></trkpt><trkpt lat="44.54438287549509" lon="8.95598881661066"><ele>585.5</ele><time>2026-05-01T13:37:31Z</time></trkpt><trkpt lat="44.544453262589904" lon="8.955954933578335"><ele>585.6666666666667</ele><time>2026-05-01T13:37:32Z</time></trkpt><trkpt lat="44.54453673881543" lon="8.955896364151611"><ele>585.8333333333334</ele><time>2026-05-01T13:37:33Z</time></trkpt><trkpt lat="44.5446276437144" lon="8.955823724313737"><ele>586.0</ele><time>2026-05-01T13:37:34Z</time></trkpt><trkpt lat="44.544715521116245" lon="8.955748862228951"><ele>586.0</ele><time>2026-05-01T13:37:35Z</time></trkpt><trkpt lat="44.54479668986201" lon="8.955685999905965"><ele>586.0</ele><time>2026-05-01T13:37:36Z</time></trkpt><trkpt lat="44.54486758325827" lon="8.955618945707567"><ele>586.0</ele><time>2026-05-01T13:37:37Z</time></trkpt><trkpt lat="44.544911748982884" lon="8.955526146252632"><ele>586.0</ele><time>2026-05-01T13:37:38Z</time></trkpt><trkpt lat="44.54497356395904" lon="8.955481768575583"><ele>586.0</ele><time>2026-05-01T13:37:39Z</time></trkpt><trkpt lat="44.545079271114886" lon="8.955488563753269"><ele>586.0</ele><time>2026-05-01T13:37:40.001Z</time></trkpt><trkpt lat="44.54520259793593" lon="8.955477197663926"><ele>586.0</ele><time>2026-05-01T13:37:41.001Z</time></trkpt><trkpt lat="44.54530709899745" lon="8.95547013665259"><ele>586.0</ele><time>2026-05-01T13:37:42.001Z</time></trkpt><trkpt lat="44.54540941173922" lon="8.955457666907026"><ele>586.0</ele><time>2026-05-01T13:37:43.001Z</time></trkpt><trkpt lat="44.545517368337606" lon="8.95541030253983"><ele>586.0</ele><time>2026-05-01T13:37:44.001Z</time></trkpt><trkpt lat="44.54562170114009" lon="8.95537146179988"><ele>586.0</ele><time>2026-05-01T13:37:45.001Z</time></trkpt><trkpt lat="44.545711509168186" lon="8.955360190361683"><ele>584.2</ele><time>2026-05-01T13:37:46.001Z</time></trkpt><trkpt lat="44.545790932801474" lon="8.955368061261737"><ele>582.4000000000001</ele><time>2026-05-01T13:37:47.001Z</time></trkpt><trkpt lat="44.545867245084374" lon="8.955421017923555"><ele>580.6</ele><time>2026-05-01T13:37:48.001Z</time></trkpt><trkpt lat="44.54594169119349" lon="8.955486469182935"><ele>578.8000000000001</ele><time>2026-05-01T13:37:49.001Z</time></trkpt><trkpt lat="44.546046766472216" lon="8.955528029593689"><ele>577.0</ele><time>2026-05-01T13:37:50.001Z</time></trkpt><trkpt lat="44.54616695186709" lon="8.955533997302293"><ele>577.75</ele><time>2026-05-01T13:37:51.001Z</time></trkpt><trkpt lat="44.54630269905641" lon="8.955510975948437"><ele>578.5</ele><time>2026-05-01T13:37:52.001Z</time></trkpt><trkpt lat="44.54644626215041" lon="8.955490876656611"><ele>579.25</ele><time>2026-05-01T13:37:53.001Z</time></trkpt><trkpt lat="44.54657503558451" lon="8.955474790061722"><ele>580.0</ele><time>2026-05-01T13:37:54.001Z</time></trkpt><trkpt lat="44.54669880617178" lon="8.955454192204947"><ele>580.0</ele><time>2026-05-01T13:37:55.001Z</time></trkpt><trkpt lat="44.54679951129835" lon="8.955451961886634"><ele>580.0</ele><time>2026-05-01T13:37:56.001Z</time></trkpt><trkpt lat="44.54685035393262" lon="8.955525760204742"><ele>580.0</ele><time>2026-05-01T13:37:57.001Z</time></trkpt><trkpt lat="44.54688460782389" lon="8.955608329072545"><ele>580.0</ele><time>2026-05-01T13:37:58.001Z</time></trkpt><trkpt lat="44.54694843238483" lon="8.955679049003113"><ele>580.0</ele><time>2026-05-01T13:37:59.001Z</time></trkpt><trkpt lat="44.54700736020449" lon="8.955775639120725"><ele>580.0</ele><time>2026-05-01T13:38:00.001Z</time></trkpt><trkpt lat="44.547103173224876" lon="8.955857446620838"><ele>579.0</ele><time>2026-05-01T13:38:01.001Z</time></trkpt><trkpt lat="44.54720838753996" lon="8.955930996493139"><ele>578.0</ele><time>2026-05-01T13:38:02.001Z</time></trkpt><trkpt lat="44.547310106879685" lon="8.956012519324153"><ele>577.0</ele><time>2026-05-01T13:38:03.001Z</time></trkpt><trkpt lat="44.54742526739114" lon="8.956077735457944"><ele>576.0</ele><time>2026-05-01T13:38:04.001Z</time></trkpt><trkpt lat="44.54752622677829" lon="8.956117352900497"><ele>576.0</ele><time>2026-05-01T13:38:05.001Z</time></trkpt><trkpt lat="44.54760199213313" lon="8.956177377325215"><ele>576.0</ele><time>2026-05-01T13:38:06.001Z</time></trkpt><trkpt lat="44.54763646898411" lon="8.956308510161723"><ele>576.0</ele><time>2026-05-01T13:38:07.001Z</time></trkpt><trkpt lat="44.54766925719842" lon="8.956451381011012"><ele>576.0</ele><time>2026-05-01T13:38:08.001Z</time></trkpt><trkpt lat="44.547727620440604" lon="8.956577739279679"><ele>576.0</ele><time>2026-05-01T13:38:09.001Z</time></trkpt><trkpt lat="44.54777567779847" lon="8.956693094200881"><ele>574.2</ele><time>2026-05-01T13:38:10.001Z</time></trkpt><trkpt lat="44.547835490671424" lon="8.9567908124022"><ele>572.4000000000001</ele><time>2026-05-01T13:38:11.001Z</time></trkpt><trkpt lat="44.54792517784545" lon="8.95683931391582"><ele>570.6</ele><time>2026-05-01T13:38:12.001Z</time></trkpt><trkpt lat="44.548029235018326" lon="8.956785652348046"><ele>568.8000000000001</ele><time>2026-05-01T13:38:13.001Z</time></trkpt><trkpt lat="44.548135152963646" lon="8.95679818526431"><ele>567.0</ele><time>2026-05-01T13:38:14.001Z</time></trkpt><trkpt lat="44.54822905881271" lon="8.956882368046717"><ele>567.0</ele><time>2026-05-01T13:38:15.001Z</time></trkpt><trkpt lat="44.54829571466749" lon="8.957005690662154"><ele>567.0</ele><time>2026-05-01T13:38:16.001Z</time></trkpt><trkpt lat="44.54836524969432" lon="8.957091831460593"><ele>567.0</ele><time>2026-05-01T13:38:17.001Z</time></trkpt><trkpt lat="44.54845870938548" lon="8.9571065223551"><ele>567.0</ele><time>2026-05-01T13:38:18.001Z</time></trkpt><trkpt lat="44.548553611457244" lon="8.957124397918033"><ele>567.0</ele><time>2026-05-01T13:38:19.001Z</time></trkpt><trkpt lat="44.54861488700121" lon="8.957216245593937"><ele>567.0</ele><time>2026-05-01T13:38:20.001Z</time></trkpt><trkpt lat="44.54865412914768" lon="8.957361329232818"><ele>567.0</ele><time>2026-05-01T13:38:21.001Z</time></trkpt><trkpt lat="44.54870303226809" lon="8.957447578938805"><ele>567.0</ele><time>2026-05-01T13:38:22.001Z</time></trkpt><trkpt lat="44.54880158091736" lon="8.957496610687071"><ele>567.0</ele><time>2026-05-01T13:38:23.001Z</time></trkpt><trkpt lat="44.548915709803815" lon="8.957480698896894"><ele>567.0</ele><time>2026-05-01T13:38:24.001Z</time></trkpt><trkpt lat="44.54902002696155" lon="8.95747526203275"><ele>567.0</ele><time>2026-05-01T13:38:25.001Z</time></trkpt><trkpt lat="44.54910524484819" lon="8.957539924733311"><ele>567.0</ele><time>2026-05-01T13:38:26.001Z</time></trkpt><trkpt lat="44.549185907612525" lon="8.957674532629543"><ele>567.0</ele><time>2026-05-01T13:38:27.001Z</time></trkpt><trkpt lat="44.54926819602091" lon="8.95782605604543"><ele>567.0</ele><time>2026-05-01T13:38:28.001Z</time></trkpt><trkpt lat="44.54934606413328" lon="8.957938601958263"><ele>567.0</ele><time>2026-05-01T13:38:29.001Z</time></trkpt><trkpt lat="44.549417943641465" lon="8.958027586632625"><ele>567.0</ele><time>2026-05-01T13:38:30.001Z</time></trkpt><trkpt lat="44.54947169321221" lon="8.958120880796093"><ele>567.0</ele><time>2026-05-01T13:38:31.001Z</time></trkpt><trkpt lat="44.54949430363811" lon="8.958228258870486"><ele>567.0</ele><time>2026-05-01T13:38:32.001Z</time></trkpt><trkpt lat="44.54945207218689" lon="8.95837418778851"><ele>567.0</ele><time>2026-05-01T13:38:33.001Z</time></trkpt><trkpt lat="44.5493659813263" lon="8.958475755716892"><ele>571.0</ele><time>2026-05-01T13:38:34.001Z</time></trkpt><trkpt lat="44.54923597399455" lon="8.958478455602634"><ele>575.0</ele><time>2026-05-01T13:38:35.001Z</time></trkpt><trkpt lat="44.54914781715882" lon="8.958572307453402"><ele>579.0</ele><time>2026-05-01T13:38:36.001Z</time></trkpt><trkpt lat="44.549047876734974" lon="8.95870897172055"><ele>583.0</ele><time>2026-05-01T13:38:37.001Z</time></trkpt><trkpt lat="44.54893155748025" lon="8.95884369943886"><ele>583.0</ele><time>2026-05-01T13:38:38.001Z</time></trkpt><trkpt lat="44.548823245356516" lon="8.95897847848683"><ele>583.0</ele><time>2026-05-01T13:38:39.001Z</time></trkpt><trkpt lat="44.54870830646953" lon="8.959082341756186"><ele>583.0</ele><time>2026-05-01T13:38:40.001Z</time></trkpt><trkpt lat="44.54861951295944" lon="8.95918800026247"><ele>583.0</ele><time>2026-05-01T13:38:41.001Z</time></trkpt><trkpt lat="44.54854892905665" lon="8.959274895084599"><ele>574.5</ele><time>2026-05-01T13:38:42.001Z</time></trkpt><trkpt lat="44.548501659193185" lon="8.959386127490168"><ele>566.0</ele><time>2026-05-01T13:38:43.001Z</time></trkpt><trkpt lat="44.548483655202816" lon="8.959539126871496"><ele>557.5</ele><time>2026-05-01T13:38:44.001Z</time></trkpt><trkpt lat="44.5484719921398" lon="8.959720771981882"><ele>549.0</ele><time>2026-05-01T13:38:45.001Z</time></trkpt><trkpt lat="44.54842114486761" lon="8.959883233330347"><ele>546.2</ele><time>2026-05-01T13:38:46.001Z</time></trkpt><trkpt lat="44.54842490832838" lon="8.960057080378249"><ele>543.4</ele><time>2026-05-01T13:38:47.001Z</time></trkpt><trkpt lat="44.54843181892663" lon="8.960225287952706"><ele>540.6</ele><time>2026-05-01T13:38:48.001Z</time></trkpt><trkpt lat="44.548450951620055" lon="8.960368264873503"><ele>537.8</ele><time>2026-05-01T13:38:49.001Z</time></trkpt><trkpt lat="44.548489206662936" lon="8.960490520341219"><ele>535.0</ele><time>2026-05-01T13:38:50.001Z</time></trkpt><trkpt lat="44.548569049755194" lon="8.960598348071503"><ele>535.0</ele><time>2026-05-01T13:38:51.001Z</time></trkpt><trkpt lat="44.54867440677636" lon="8.960677909492153"><ele>535.0</ele><time>2026-05-01T13:38:52.001Z</time></trkpt><trkpt lat="44.54877682642345" lon="8.96074305894262"><ele>535.0</ele><time>2026-05-01T13:38:53.001Z</time></trkpt><trkpt lat="44.548839736206006" lon="8.960857571058414"><ele>535.0</ele><time>2026-05-01T13:38:54.001Z</time></trkpt><trkpt lat="44.548874423255164" lon="8.960981132441086"><ele>535.0</ele><time>2026-05-01T13:38:55.001Z</time></trkpt><trkpt lat="44.548854953222246" lon="8.961105449916722"><ele>538.4</ele><time>2026-05-01T13:38:56.001Z</time></trkpt><trkpt lat="44.548874772320005" lon="8.961233301639504"><ele>541.8</ele><time>2026-05-01T13:38:57.001Z</time></trkpt><trkpt lat="44.548917806889975" lon="8.961340453749893"><ele>545.2</ele><time>2026-05-01T13:38:58.001Z</time></trkpt><trkpt lat="44.549004842929016" lon="8.961436521746762"><ele>548.6</ele><time>2026-05-01T13:38:59.001Z</time></trkpt><trkpt lat="44.54908412584494" lon="8.961524949898166"><ele>552.0</ele><time>2026-05-01T13:39:00.001Z</time></trkpt><trkpt lat="44.5491670366616" lon="8.961589806410355"><ele>552.0</ele><time>2026-05-01T13:39:01.001Z</time></trkpt><trkpt lat="44.549249968433294" lon="8.961643840095908"><ele>552.0</ele><time>2026-05-01T13:39:02.001Z</time></trkpt><trkpt lat="44.54928331213116" lon="8.961755372122232"><ele>552.0</ele><time>2026-05-01T13:39:03.001Z</time></trkpt><trkpt lat="44.54927546818946" lon="8.961876430985368"><ele>552.0</ele><time>2026-05-01T13:39:04.001Z</time></trkpt><trkpt lat="44.549182332583335" lon="8.961962775877044"><ele>552.0</ele><time>2026-05-01T13:39:05.001Z</time></trkpt><trkpt lat="44.5491506943778" lon="8.962079419582398"><ele>550.4</ele><time>2026-05-01T13:39:06.001Z</time></trkpt><trkpt lat="44.54919943421917" lon="8.962215939085556"><ele>548.8000000000001</ele><time>2026-05-01T13:39:07.001Z</time></trkpt><trkpt lat="44.54927305256648" lon="8.962328727661928"><ele>547.2</ele><time>2026-05-01T13:39:08.001Z</time></trkpt><trkpt lat="44.549333699774365" lon="8.96244966290589"><ele>545.6</ele><time>2026-05-01T13:39:09.001Z</time></trkpt><trkpt lat="44.549380066016795" lon="8.962543222808545"><ele>544.0</ele><time>2026-05-01T13:39:10.001Z</time></trkpt><trkpt lat="44.54938045690388" lon="8.962708819638772"><ele>542.0</ele><time>2026-05-01T13:39:12.001Z</time></trkpt><trkpt lat="44.549272520814434" lon="8.962740025886548"><ele>540.0</ele><time>2026-05-01T13:39:13.001Z</time></trkpt><trkpt lat="44.54919897020997" lon="8.962850309001606"><ele>538.0</ele><time>2026-05-01T13:39:14.001Z</time></trkpt><trkpt lat="44.54915301486363" lon="8.962951904931609"><ele>536.0</ele><time>2026-05-01T13:39:15.001Z</time></trkpt><trkpt lat="44.549143502488455" lon="8.963074801607634"><ele>534.0</ele><time>2026-05-01T13:39:16.001Z</time></trkpt><trkpt lat="44.549186077680595" lon="8.96319864730906"><ele>534.0</ele><time>2026-05-01T13:39:17.001Z</time></trkpt><trkpt lat="44.549265841656045" lon="8.963296044777438"><ele>534.0</ele><time>2026-05-01T13:39:18.001Z</time></trkpt><trkpt lat="44.54936183964007" lon="8.963361737568668"><ele>534.0</ele><time>2026-05-01T13:39:19.001Z</time></trkpt><trkpt lat="44.54943546754554" lon="8.963449791286873"><ele>534.0</ele><time>2026-05-01T13:39:20.001Z</time></trkpt><trkpt lat="44.54948958960567" lon="8.963541054153255"><ele>534.0</ele><time>2026-05-01T13:39:21.001Z</time></trkpt><trkpt lat="44.549503531949064" lon="8.963649588969208"><ele>531.5</ele><time>2026-05-01T13:39:22.001Z</time></trkpt><trkpt lat="44.549525467499464" lon="8.963741434382742"><ele>529.0</ele><time>2026-05-01T13:39:23.001Z</time></trkpt><trkpt lat="44.54953312981391" lon="8.963864428057724"><ele>526.5</ele><time>2026-05-01T13:39:25.001Z</time></trkpt><trkpt lat="44.54944443055463" lon="8.96380129754041"><ele>524.0</ele><time>2026-05-01T13:39:27.001Z</time></trkpt><trkpt lat="44.54945646752885" lon="8.96368608066183"><ele>521.5</ele><time>2026-05-01T13:39:28.001Z</time></trkpt><trkpt lat="44.5494288656685" lon="8.96358325822201"><ele>519.0</ele><time>2026-05-01T13:39:29.001Z</time></trkpt><trkpt lat="44.54939800249457" lon="8.963494360723644"><ele>519.0</ele><time>2026-05-01T13:39:30.001Z</time></trkpt><trkpt lat="44.5493339185851" lon="8.963420970847531"><ele>519.0</ele><time>2026-05-01T13:39:31.001Z</time></trkpt><trkpt lat="44.54921902727053" lon="8.96341468783149"><ele>519.0</ele><time>2026-05-01T13:39:32.001Z</time></trkpt><trkpt lat="44.54912903981792" lon="8.963367880835957"><ele>519.0</ele><time>2026-05-01T13:39:33.001Z</time></trkpt><trkpt lat="44.549055191651334" lon="8.96332979689946"><ele>519.0</ele><time>2026-05-01T13:39:34.001Z</time></trkpt><trkpt lat="44.54900046274988" lon="8.963253680724087"><ele>519.0</ele><time>2026-05-01T13:39:35.001Z</time></trkpt><trkpt lat="44.54895500959967" lon="8.963153288729613"><ele>522.0</ele><time>2026-05-01T13:39:36.001Z</time></trkpt><trkpt lat="44.548954287311915" lon="8.963032150171525"><ele>525.0</ele><time>2026-05-01T13:39:37.001Z</time></trkpt><trkpt lat="44.54900945073801" lon="8.962938228210247"><ele>528.0</ele><time>2026-05-01T13:39:38.001Z</time></trkpt><trkpt lat="44.548989665485024" lon="8.962800494092532"><ele>531.0</ele><time>2026-05-01T13:39:40.001Z</time></trkpt><trkpt lat="44.548906552893115" lon="8.962791121470927"><ele>534.0</ele><time>2026-05-01T13:39:41.001Z</time></trkpt><trkpt lat="44.54884913863507" lon="8.962926792689714"><ele>534.0</ele><time>2026-05-01T13:39:42.001Z</time></trkpt><trkpt lat="44.54880637288366" lon="8.963054572399834"><ele>534.0</ele><time>2026-05-01T13:39:43.001Z</time></trkpt><trkpt lat="44.54877565091871" lon="8.963178699495375"><ele>534.0</ele><time>2026-05-01T13:39:44.001Z</time></trkpt><trkpt lat="44.54877391739219" lon="8.963303488160127"><ele>534.0</ele><time>2026-05-01T13:39:45.001Z</time></trkpt><trkpt lat="44.548829469493164" lon="8.963422409282757"><ele>534.0</ele><time>2026-05-01T13:39:46.001Z</time></trkpt><trkpt lat="44.54892596154869" lon="8.963526908014853"><ele>530.25</ele><time>2026-05-01T13:39:47.001Z</time></trkpt><trkpt lat="44.54901827445167" lon="8.963633214168507"><ele>526.5</ele><time>2026-05-01T13:39:48.001Z</time></trkpt><trkpt lat="44.54908181008261" lon="8.96377201847934"><ele>522.75</ele><time>2026-05-01T13:39:49.001Z</time></trkpt><trkpt lat="44.54915935536884" lon="8.963894095407568"><ele>519.0</ele><time>2026-05-01T13:39:50.001Z</time></trkpt><trkpt lat="44.54917760985218" lon="8.964053381632707"><ele>519.0</ele><time>2026-05-01T13:39:51.001Z</time></trkpt><trkpt lat="44.54920608580791" lon="8.964188996933093"><ele>519.0</ele><time>2026-05-01T13:39:52.001Z</time></trkpt><trkpt lat="44.54925229442562" lon="8.964290352394183"><ele>519.0</ele><time>2026-05-01T13:39:53.001Z</time></trkpt><trkpt lat="44.54928872918431" lon="8.96439521571053"><ele>519.0</ele><time>2026-05-01T13:39:54.001Z</time></trkpt><trkpt lat="44.54929618865721" lon="8.964548539311188"><ele>519.0</ele><time>2026-05-01T13:39:55.001Z</time></trkpt><trkpt lat="44.54929073528838" lon="8.964694177358254"><ele>516.6</ele><time>2026-05-01T13:39:56.001Z</time></trkpt><trkpt lat="44.54915119762251" lon="8.964694106034047"><ele>514.2</ele><time>2026-05-01T13:39:57.001Z</time></trkpt><trkpt lat="44.54909451767866" lon="8.964789168783476"><ele>511.80000000000007</ele><time>2026-05-01T13:39:58.001Z</time></trkpt><trkpt lat="44.549069637582505" lon="8.964913589893941"><ele>509.40000000000003</ele><time>2026-05-01T13:39:59.001Z</time></trkpt><trkpt lat="44.549078232180925" lon="8.965047106276566"><ele>507.0</ele><time>2026-05-01T13:40:00.001Z</time></trkpt><trkpt lat="44.549113741344065" lon="8.965180976441248"><ele>505.25</ele><time>2026-05-01T13:40:01.001Z</time></trkpt><trkpt lat="44.54917338510084" lon="8.965319166575561"><ele>503.5</ele><time>2026-05-01T13:40:02.001Z</time></trkpt><trkpt lat="44.54923678376402" lon="8.965456604137486"><ele>501.75</ele><time>2026-05-01T13:40:03.001Z</time></trkpt><trkpt lat="44.54929589836623" lon="8.965596893174688"><ele>500.0</ele><time>2026-05-01T13:40:04.001Z</time></trkpt><trkpt lat="44.549348583964246" lon="8.965738132948445"><ele>499.2</ele><time>2026-05-01T13:40:05.001Z</time></trkpt><trkpt lat="44.549396878458886" lon="8.965881274684852"><ele>498.4</ele><time>2026-05-01T13:40:06.001Z</time></trkpt><trkpt lat="44.5494483453747" lon="8.966010797658358"><ele>497.6</ele><time>2026-05-01T13:40:07.001Z</time></trkpt><trkpt lat="44.549497541153244" lon="8.966146966274021"><ele>496.8</ele><time>2026-05-01T13:40:08.001Z</time></trkpt><trkpt lat="44.549531393574426" lon="8.966296469061534"><ele>496.0</ele><time>2026-05-01T13:40:09.001Z</time></trkpt><trkpt lat="44.54958120676134" lon="8.96641274074248"><ele>494.6</ele><time>2026-05-01T13:40:10.001Z</time></trkpt><trkpt lat="44.54958429593672" lon="8.966527125541782"><ele>493.20000000000005</ele><time>2026-05-01T13:40:11.001Z</time></trkpt><trkpt lat="44.549555552530414" lon="8.966637986422647"><ele>491.79999999999995</ele><time>2026-05-01T13:40:12.001Z</time></trkpt><trkpt lat="44.54948034255853" lon="8.96671708561191"><ele>490.4</ele><time>2026-05-01T13:40:13.001Z</time></trkpt><trkpt lat="44.54936906836224" lon="8.966737533095861"><ele>489.0</ele><time>2026-05-01T13:40:14.001Z</time></trkpt><trkpt lat="44.54933603792392" lon="8.966861892019674"><ele>489.0</ele><time>2026-05-01T13:40:15.001Z</time></trkpt><trkpt lat="44.549348926900294" lon="8.96699393771021"><ele>489.0</ele><time>2026-05-01T13:40:16.001Z</time></trkpt><trkpt lat="44.549356803624285" lon="8.967166248897428"><ele>489.0</ele><time>2026-05-01T13:40:17.001Z</time></trkpt><trkpt lat="44.54937752817812" lon="8.9673865009516"><ele>489.0</ele><time>2026-05-01T13:40:18.001Z</time></trkpt><trkpt lat="44.54939379120144" lon="8.967633795265417"><ele>486.66666666666663</ele><time>2026-05-01T13:40:19.001Z</time></trkpt><trkpt lat="44.54941113607741" lon="8.967878717087924"><ele>484.3333333333333</ele><time>2026-05-01T13:40:20.001Z</time></trkpt><trkpt lat="44.54944122274955" lon="8.968098000115603"><ele>482.0</ele><time>2026-05-01T13:40:21.001Z</time></trkpt><trkpt lat="44.5494583083502" lon="8.968302122625571"><ele>481.5</ele><time>2026-05-01T13:40:22.001Z</time></trkpt><trkpt lat="44.54947315907409" lon="8.96848141785668"><ele>481.0</ele><time>2026-05-01T13:40:23.001Z</time></trkpt><trkpt lat="44.54948589146582" lon="8.968638150152199"><ele>480.5</ele><time>2026-05-01T13:40:24.001Z</time></trkpt><trkpt lat="44.54950422295979" lon="8.96878910212585"><ele>480.0</ele><time>2026-05-01T13:40:25.001Z</time></trkpt><trkpt lat="44.549550162715335" lon="8.968915699536725"><ele>479.4</ele><time>2026-05-01T13:40:26.001Z</time></trkpt><trkpt lat="44.54962356203056" lon="8.969017266590404"><ele>478.8</ele><time>2026-05-01T13:40:27.001Z</time></trkpt><trkpt lat="44.54966847393272" lon="8.969125835863187"><ele>478.20000000000005</ele><time>2026-05-01T13:40:28.001Z</time></trkpt><trkpt lat="44.54969202198842" lon="8.969241988812115"><ele>477.6</ele><time>2026-05-01T13:40:29.001Z</time></trkpt><trkpt lat="44.549592700177506" lon="8.969352838262326"><ele>477.0</ele><time>2026-05-01T13:40:30.001Z</time></trkpt><trkpt lat="44.54952740798984" lon="8.969507272127293"><ele>477.0</ele><time>2026-05-01T13:40:31.001Z</time></trkpt><trkpt lat="44.549456730577745" lon="8.96965726629172"><ele>477.0</ele><time>2026-05-01T13:40:32.001Z</time></trkpt><trkpt lat="44.54936805160628" lon="8.96978922534067"><ele>477.0</ele><time>2026-05-01T13:40:33.001Z</time></trkpt><trkpt lat="44.54927861857068" lon="8.969923692968981"><ele>477.0</ele><time>2026-05-01T13:40:34.001Z</time></trkpt><trkpt lat="44.54920450440983" lon="8.970059633293504"><ele>477.5</ele><time>2026-05-01T13:40:35.001Z</time></trkpt><trkpt lat="44.54916251947621" lon="8.9702131648104"><ele>478.0</ele><time>2026-05-01T13:40:36.001Z</time></trkpt><trkpt lat="44.549113527576395" lon="8.970363419357142"><ele>478.5</ele><time>2026-05-01T13:40:37.001Z</time></trkpt><trkpt lat="44.54909146407897" lon="8.970513886112048"><ele>479.0</ele><time>2026-05-01T13:40:38.001Z</time></trkpt><trkpt lat="44.54909000299222" lon="8.970675880623109"><ele>479.0</ele><time>2026-05-01T13:40:39.001Z</time></trkpt><trkpt lat="44.54912163029926" lon="8.970819490744955"><ele>479.0</ele><time>2026-05-01T13:40:40.001Z</time></trkpt><trkpt lat="44.549132710684404" lon="8.970975806201688"><ele>479.0</ele><time>2026-05-01T13:40:41.001Z</time></trkpt><trkpt lat="44.549111140661154" lon="8.971131185873281"><ele>479.0</ele><time>2026-05-01T13:40:42.001Z</time></trkpt><trkpt lat="44.54910590944058" lon="8.971278559892937"><ele>479.0</ele><time>2026-05-01T13:40:43.001Z</time></trkpt><trkpt lat="44.54910623601174" lon="8.971410186244425"><ele>477.0</ele><time>2026-05-01T13:40:44.001Z</time></trkpt><trkpt lat="44.549145993047155" lon="8.971544354274846"><ele>475.0</ele><time>2026-05-01T13:40:45.001Z</time></trkpt><trkpt lat="44.54920520118138" lon="8.971669969940509"><ele>473.0</ele><time>2026-05-01T13:40:46.001Z</time></trkpt><trkpt lat="44.54928027717498" lon="8.971768319616144"><ele>471.0</ele><time>2026-05-01T13:40:47.001Z</time></trkpt><trkpt lat="44.54937460141645" lon="8.971840756989655"><ele>469.0</ele><time>2026-05-01T13:40:48.001Z</time></trkpt><trkpt lat="44.54945821442595" lon="8.971938047825287"><ele>471.2</ele><time>2026-05-01T13:40:49.001Z</time></trkpt><trkpt lat="44.54952020594781" lon="8.972071475538538"><ele>473.4</ele><time>2026-05-01T13:40:50.001Z</time></trkpt><trkpt lat="44.54959941609868" lon="8.972175022689154"><ele>475.6</ele><time>2026-05-01T13:40:51.001Z</time></trkpt><trkpt lat="44.549685696103936" lon="8.972237961552151"><ele>477.8</ele><time>2026-05-01T13:40:52.001Z</time></trkpt><trkpt lat="44.549754890001076" lon="8.972339656824268"><ele>480.0</ele><time>2026-05-01T13:40:53.001Z</time></trkpt><trkpt lat="44.54981893907242" lon="8.972441648201869"><ele>477.6</ele><time>2026-05-01T13:40:54.001Z</time></trkpt><trkpt lat="44.549852271974494" lon="8.972557078316754"><ele>475.2</ele><time>2026-05-01T13:40:55.001Z</time></trkpt><trkpt lat="44.5498563374751" lon="8.972701893431273"><ele>472.79999999999995</ele><time>2026-05-01T13:40:56.001Z</time></trkpt><trkpt lat="44.54986804732965" lon="8.972870412437105"><ele>470.4</ele><time>2026-05-01T13:40:57.001Z</time></trkpt><trkpt lat="44.54987869832129" lon="8.973029767652456"><ele>468.0</ele><time>2026-05-01T13:40:58.001Z</time></trkpt><trkpt lat="44.54988964793116" lon="8.97316925751298"><ele>468.0</ele><time>2026-05-01T13:40:59.001Z</time></trkpt><trkpt lat="44.54991337326801" lon="8.973289732246602"><ele>467.99999999999994</ele><time>2026-05-01T13:41:00.001Z</time></trkpt><trkpt lat="44.54998846412838" lon="8.973390462439282"><ele>467.99999999999994</ele><time>2026-05-01T13:41:01.001Z</time></trkpt><trkpt lat="44.55005436469207" lon="8.97352135316609"><ele>468.0</ele><time>2026-05-01T13:41:02.001Z</time></trkpt><trkpt lat="44.55013472730477" lon="8.97364974032494"><ele>468.0</ele><time>2026-05-01T13:41:03.001Z</time></trkpt><trkpt lat="44.550218375023746" lon="8.973755377102169"><ele>468.2</ele><time>2026-05-01T13:41:04.001Z</time></trkpt><trkpt lat="44.550276021839984" lon="8.973879337754436"><ele>468.4</ele><time>2026-05-01T13:41:05.001Z</time></trkpt><trkpt lat="44.55034231392215" lon="8.973990669062092"><ele>468.59999999999997</ele><time>2026-05-01T13:41:06.001Z</time></trkpt><trkpt lat="44.55040789506829" lon="8.974083848227192"><ele>468.79999999999995</ele><time>2026-05-01T13:41:07.001Z</time></trkpt><trkpt lat="44.5504968586618" lon="8.974149583185483"><ele>469.0</ele><time>2026-05-01T13:41:08.001Z</time></trkpt><trkpt lat="44.55060897157611" lon="8.974176617064478"><ele>462.4</ele><time>2026-05-01T13:41:09.001Z</time></trkpt><trkpt lat="44.55072090938569" lon="8.974199143342357"><ele>455.79999999999995</ele><time>2026-05-01T13:41:10.001Z</time></trkpt><trkpt lat="44.55082380282257" lon="8.974213235309744"><ele>449.20000000000005</ele><time>2026-05-01T13:41:11.001Z</time></trkpt><trkpt lat="44.55092202801444" lon="8.974258549931712"><ele>442.6</ele><time>2026-05-01T13:41:12.001Z</time></trkpt><trkpt lat="44.551014417510395" lon="8.974307008784937"><ele>436.0</ele><time>2026-05-01T13:41:13.001Z</time></trkpt><trkpt lat="44.551101750837034" lon="8.974393293178245"><ele>436.00000000000006</ele><time>2026-05-01T13:41:14.001Z</time></trkpt><trkpt lat="44.55117088201658" lon="8.974488567727049"><ele>436.0</ele><time>2026-05-01T13:41:15.001Z</time></trkpt><trkpt lat="44.5512342984668" lon="8.97456510405585"><ele>436.0</ele><time>2026-05-01T13:41:16.001Z</time></trkpt><trkpt lat="44.551260936335346" lon="8.974656769551528"><ele>436.0</ele><time>2026-05-01T13:41:17.001Z</time></trkpt><trkpt lat="44.55129575776913" lon="8.974733152157267"><ele>436.00000000000006</ele><time>2026-05-01T13:41:18.001Z</time></trkpt><trkpt lat="44.55126064757224" lon="8.974807443138305"><ele>436.0</ele><time>2026-05-01T13:41:19.001Z</time></trkpt><trkpt lat="44.551186704411236" lon="8.974825269503594"><ele>436.0</ele><time>2026-05-01T13:41:20.001Z</time></trkpt><trkpt lat="44.551113852372616" lon="8.974759177675432"><ele>436.0</ele><time>2026-05-01T13:41:21.001Z</time></trkpt><trkpt lat="44.55105760286929" lon="8.974650158007094"><ele>436.0</ele><time>2026-05-01T13:41:22.001Z</time></trkpt><trkpt lat="44.5509940321552" lon="8.97456468264092"><ele>436.0</ele><time>2026-05-01T13:41:23.001Z</time></trkpt><trkpt lat="44.55089169709948" lon="8.974538261142396"><ele>436.0</ele><time>2026-05-01T13:41:24.001Z</time></trkpt><trkpt lat="44.550781740181016" lon="8.974574120438188"><ele>436.00000000000006</ele><time>2026-05-01T13:41:25.001Z</time></trkpt><trkpt lat="44.55071023618723" lon="8.974575491457193"><ele>436.0</ele><time>2026-05-01T13:41:26.001Z</time></trkpt><trkpt lat="44.550641880666184" lon="8.974602939984901"><ele>436.0</ele><time>2026-05-01T13:41:28.001Z</time></trkpt><trkpt lat="44.55061834807113" lon="8.974688884847767"><ele>436.0</ele><time>2026-05-01T13:41:29.001Z</time></trkpt><trkpt lat="44.550669982245275" lon="8.97480439270106"><ele>436.00000000000006</ele><time>2026-05-01T13:41:30.001Z</time></trkpt><trkpt lat="44.55077151730475" lon="8.974846423567648"><ele>436.0</ele><time>2026-05-01T13:41:31.001Z</time></trkpt><trkpt lat="44.55086071482746" lon="8.974887801679138"><ele>436.0</ele><time>2026-05-01T13:41:32.001Z</time></trkpt><trkpt lat="44.550952408022404" lon="8.974958310989702"><ele>436.0</ele><time>2026-05-01T13:41:33.001Z</time></trkpt><trkpt lat="44.55104931713359" lon="8.975012961622632"><ele>436.0</ele><time>2026-05-01T13:41:34.001Z</time></trkpt><trkpt lat="44.551136089600796" lon="8.975076094327399"><ele>436.0</ele><time>2026-05-01T13:41:35.001Z</time></trkpt><trkpt lat="44.55121918846056" lon="8.975121703397173"><ele>436.0</ele><time>2026-05-01T13:41:36.001Z</time></trkpt><trkpt lat="44.55130014791926" lon="8.975183429426036"><ele>435.0</ele><time>2026-05-01T13:41:37.001Z</time></trkpt><trkpt lat="44.55131941826164" lon="8.975317716092706"><ele>434.0</ele><time>2026-05-01T13:41:38.001Z</time></trkpt><trkpt lat="44.55134811262483" lon="8.975455191739677"><ele>433.0</ele><time>2026-05-01T13:41:39.001Z</time></trkpt><trkpt lat="44.55140175677572" lon="8.97557960129243"><ele>432.0</ele><time>2026-05-01T13:41:40.001Z</time></trkpt><trkpt lat="44.5514639621735" lon="8.97569058632089"><ele>431.0</ele><time>2026-05-01T13:41:41.001Z</time></trkpt><trkpt lat="44.551556742261795" lon="8.975772416550098"><ele>431.0</ele><time>2026-05-01T13:41:42.001Z</time></trkpt><trkpt lat="44.55167918407926" lon="8.975840995648374"><ele>431.0</ele><time>2026-05-01T13:41:43.001Z</time></trkpt><trkpt lat="44.55183838833917" lon="8.975907864935747"><ele>431.0</ele><time>2026-05-01T13:41:44.001Z</time></trkpt><trkpt lat="44.55198079226163" lon="8.975995340439658"><ele>429.5</ele><time>2026-05-01T13:41:45.001Z</time></trkpt><trkpt lat="44.55207524665153" lon="8.976149201181345"><ele>428.0</ele><time>2026-05-01T13:41:46.001Z</time></trkpt><trkpt lat="44.552176854336984" lon="8.976274809423604"><ele>426.5</ele><time>2026-05-01T13:41:47.001Z</time></trkpt><trkpt lat="44.55225410366376" lon="8.976402679902058"><ele>425.0</ele><time>2026-05-01T13:41:48.001Z</time></trkpt><trkpt lat="44.552335118928596" lon="8.976489535787456"><ele>425.0</ele><time>2026-05-01T13:41:49.001Z</time></trkpt><trkpt lat="44.552407828366924" lon="8.976546141824839"><ele>425.0</ele><time>2026-05-01T13:41:50.001Z</time></trkpt><trkpt lat="44.55247408142527" lon="8.976576289356625"><ele>425.0</ele><time>2026-05-01T13:41:51.001Z</time></trkpt><trkpt lat="44.55257199045471" lon="8.976654102421561"><ele>425.0</ele><time>2026-05-01T13:41:53.001Z</time></trkpt><trkpt lat="44.55262996154839" lon="8.976743646665199"><ele>425.0</ele><time>2026-05-01T13:41:55.001Z</time></trkpt><trkpt lat="44.55251978390105" lon="8.976818985249004"><ele>425.0</ele><time>2026-05-01T13:41:57.001Z</time></trkpt><trkpt lat="44.55244680288463" lon="8.976731713002533"><ele>425.0</ele><time>2026-05-01T13:41:58.001Z</time></trkpt><trkpt lat="44.55236123997177" lon="8.976664788503236"><ele>425.0</ele><time>2026-05-01T13:41:59.001Z</time></trkpt><trkpt lat="44.552262082946804" lon="8.976573768361629"><ele>425.0</ele><time>2026-05-01T13:42:00.001Z</time></trkpt><trkpt lat="44.55215761356997" lon="8.976473450591408"><ele>425.0</ele><time>2026-05-01T13:42:01.001Z</time></trkpt><trkpt lat="44.552054347765406" lon="8.97637461767256"><ele>418.5</ele><time>2026-05-01T13:42:02.001Z</time></trkpt><trkpt lat="44.55195041213433" lon="8.976306264592765"><ele>412.0</ele><time>2026-05-01T13:42:03.001Z</time></trkpt><trkpt lat="44.55185204439849" lon="8.976237623023016"><ele>405.5</ele><time>2026-05-01T13:42:04.001Z</time></trkpt><trkpt lat="44.55174170402764" lon="8.976206245478778"><ele>399.0</ele><time>2026-05-01T13:42:05.001Z</time></trkpt><trkpt lat="44.55163403805089" lon="8.976157228818842"><ele>399.0</ele><time>2026-05-01T13:42:06.001Z</time></trkpt><trkpt lat="44.551523870714256" lon="8.976130320276711"><ele>399.0</ele><time>2026-05-01T13:42:07.001Z</time></trkpt><trkpt lat="44.55140854286383" lon="8.976118250063793"><ele>399.0</ele><time>2026-05-01T13:42:08.001Z</time></trkpt><trkpt lat="44.55129243175097" lon="8.97614166469715"><ele>399.0</ele><time>2026-05-01T13:42:09.001Z</time></trkpt><trkpt lat="44.551180173128806" lon="8.976154497431493"><ele>396.79999999999995</ele><time>2026-05-01T13:42:10.001Z</time></trkpt><trkpt lat="44.55106417058969" lon="8.976144756719917"><ele>394.59999999999997</ele><time>2026-05-01T13:42:11.001Z</time></trkpt><trkpt lat="44.55095091930202" lon="8.976125543993124"><ele>392.4</ele><time>2026-05-01T13:42:12.001Z</time></trkpt><trkpt lat="44.55084800260328" lon="8.976100994662524"><ele>390.2</ele><time>2026-05-01T13:42:13.001Z</time></trkpt><trkpt lat="44.55075518162067" lon="8.976058476282674"><ele>388.0</ele><time>2026-05-01T13:42:14.001Z</time></trkpt><trkpt lat="44.550675232722774" lon="8.97597901020216"><ele>388.0</ele><time>2026-05-01T13:42:15.001Z</time></trkpt><trkpt lat="44.55059468116676" lon="8.975899436353512"><ele>388.0</ele><time>2026-05-01T13:42:16.001Z</time></trkpt><trkpt lat="44.55050818802361" lon="8.975849040286143"><ele>388.0</ele><time>2026-05-01T13:42:17.001Z</time></trkpt><trkpt lat="44.55042264390653" lon="8.975799557306651"><ele>388.0</ele><time>2026-05-01T13:42:18.001Z</time></trkpt><trkpt lat="44.55031475359914" lon="8.975742366348761"><ele>388.0</ele><time>2026-05-01T13:42:19.001Z</time></trkpt><trkpt lat="44.55018217991116" lon="8.9757047063571"><ele>391.0</ele><time>2026-05-01T13:42:20.001Z</time></trkpt><trkpt lat="44.55004198587839" lon="8.975666092873807"><ele>394.0</ele><time>2026-05-01T13:42:21.001Z</time></trkpt><trkpt lat="44.54990754815141" lon="8.975629064842016"><ele>397.0</ele><time>2026-05-01T13:42:22.001Z</time></trkpt><trkpt lat="44.54978572751218" lon="8.97559392440026"><ele>400.0</ele><time>2026-05-01T13:42:23.001Z</time></trkpt><trkpt lat="44.549668500114" lon="8.97555476639525"><ele>400.0</ele><time>2026-05-01T13:42:24.001Z</time></trkpt><trkpt lat="44.54955160928048" lon="8.975515051820159"><ele>400.0</ele><time>2026-05-01T13:42:25.001Z</time></trkpt><trkpt lat="44.549435111384575" lon="8.975479174156677"><ele>400.0</ele><time>2026-05-01T13:42:26.001Z</time></trkpt><trkpt lat="44.54932004731188" lon="8.975445001787737"><ele>400.0</ele><time>2026-05-01T13:42:27.001Z</time></trkpt><trkpt lat="44.54920859335988" lon="8.975414231112056"><ele>398.8</ele><time>2026-05-01T13:42:28.001Z</time></trkpt><trkpt lat="44.549103048577074" lon="8.975388626653315"><ele>397.6</ele><time>2026-05-01T13:42:29.001Z</time></trkpt><trkpt lat="44.54900276202114" lon="8.975371690138125"><ele>396.4</ele><time>2026-05-01T13:42:30.001Z</time></trkpt><trkpt lat="44.54891060772735" lon="8.97536951908673"><ele>395.2</ele><time>2026-05-01T13:42:31.001Z</time></trkpt><trkpt lat="44.5488328042324" lon="8.97540498818026"><ele>394.0</ele><time>2026-05-01T13:42:32.001Z</time></trkpt><trkpt lat="44.54873892822314" lon="8.975382919902914"><ele>393.33333333333337</ele><time>2026-05-01T13:42:34.001Z</time></trkpt><trkpt lat="44.54867065773191" lon="8.975378290449992"><ele>392.6666666666667</ele><time>2026-05-01T13:42:36.001Z</time></trkpt><trkpt lat="44.54857778076896" lon="8.975462075924225"><ele>392.0</ele><time>2026-05-01T13:42:38.001Z</time></trkpt><trkpt lat="44.54851712780958" lon="8.975519135209218"><ele>391.33333333333337</ele><time>2026-05-01T13:42:39.001Z</time></trkpt><trkpt lat="44.54844843859792" lon="8.975576837754529"><ele>390.6666666666667</ele><time>2026-05-01T13:42:40.001Z</time></trkpt><trkpt lat="44.548385841254934" lon="8.975624973837835"><ele>390.0</ele><time>2026-05-01T13:42:41.001Z</time></trkpt><trkpt lat="44.5482760879969" lon="8.975705122882225"><ele>390.0</ele><time>2026-05-01T13:42:43.001Z</time></trkpt><trkpt lat="44.54821601951892" lon="8.97574839691166"><ele>390.0</ele><time>2026-05-01T13:42:44.001Z</time></trkpt><trkpt lat="44.548107091395224" lon="8.975819559966736"><ele>390.0</ele><time>2026-05-01T13:42:46.001Z</time></trkpt><trkpt lat="44.548036015533576" lon="8.97596151890545"><ele>390.0</ele><time>2026-05-01T13:42:48.001Z</time></trkpt><trkpt lat="44.54800656312957" lon="8.976068382606059"><ele>390.0</ele><time>2026-05-01T13:42:49.001Z</time></trkpt><trkpt lat="44.54798040935252" lon="8.976186253549375"><ele>389.6</ele><time>2026-05-01T13:42:50.001Z</time></trkpt><trkpt lat="44.547951755655674" lon="8.97631770678668"><ele>389.2</ele><time>2026-05-01T13:42:51.001Z</time></trkpt><trkpt lat="44.54792198472297" lon="8.97645513264866"><ele>388.79999999999995</ele><time>2026-05-01T13:42:52.001Z</time></trkpt><trkpt lat="44.547891978687986" lon="8.976593643775779"><ele>388.4</ele><time>2026-05-01T13:42:53.001Z</time></trkpt><trkpt lat="44.547865263111476" lon="8.97671696580805"><ele>388.0</ele><time>2026-05-01T13:42:54.001Z</time></trkpt><trkpt lat="44.547858610116805" lon="8.97682216452091"><ele>388.0</ele><time>2026-05-01T13:42:55.001Z</time></trkpt><trkpt lat="44.547809763752305" lon="8.976881462443544"><ele>388.0</ele><time>2026-05-01T13:42:56.001Z</time></trkpt><trkpt lat="44.547782825193835" lon="8.976970586789635"><ele>388.0</ele><time>2026-05-01T13:42:58.001Z</time></trkpt></trkseg></trk></gpx>